<?xml version="1.0" encoding="UTF-8" standalone="no" ?>
<gpx xmlns="http://www.topografix.com/GPX/1/1" xmlns:xsi="http://www.w3.org/2001/XMLSchema-instance" xsi:schemaLocation="http://www.topografix.com/GPX/1/1 http://www.topografix.com/GPX/1/1/gpx.xsd" version="1.1" creator="VisuGPX - https://www.visugpx.com">
  <metadata>
    <name>Aupillon Couloir NO 8 avr. 2021</name>
    <desc><![CDATA[grp_trc:]]></desc>
  </metadata>
  <trk>
    <name><![CDATA[Aupillon Couloir NO 8 avr. 2021]]></name>
    <cmt><![CDATA[08:41:01]]></cmt>
    <desc><![CDATA[comment ...]]></desc>
    <trkseg>
      <trkpt lat="44.47713" lon="6.54912">
        <ele>1658</ele>
        <time>2021-04-08T06:41:00Z</time>
      </trkpt>
      <trkpt lat="44.47712" lon="6.54912">
        <ele>1659</ele>
        <time>2021-04-08T06:41:01Z</time>
      </trkpt>
      <trkpt lat="44.47712" lon="6.54912">
        <ele>1659</ele>
        <time>2021-04-08T06:41:02Z</time>
      </trkpt>
      <trkpt lat="44.47711" lon="6.54912">
        <ele>1658</ele>
        <time>2021-04-08T06:41:03Z</time>
      </trkpt>
      <trkpt lat="44.4771" lon="6.54912">
        <ele>1658</ele>
        <time>2021-04-08T06:41:04Z</time>
      </trkpt>
      <trkpt lat="44.47709" lon="6.54912">
        <ele>1658</ele>
        <time>2021-04-08T06:41:05Z</time>
      </trkpt>
      <trkpt lat="44.47708" lon="6.54912">
        <ele>1658</ele>
        <time>2021-04-08T06:41:06Z</time>
      </trkpt>
      <trkpt lat="44.47707" lon="6.54912">
        <ele>1658</ele>
        <time>2021-04-08T06:41:07Z</time>
      </trkpt>
      <trkpt lat="44.47706" lon="6.54912">
        <ele>1659</ele>
        <time>2021-04-08T06:41:08Z</time>
      </trkpt>
      <trkpt lat="44.47705" lon="6.54912">
        <ele>1659</ele>
        <time>2021-04-08T06:41:09Z</time>
      </trkpt>
      <trkpt lat="44.47704" lon="6.54912">
        <ele>1659</ele>
        <time>2021-04-08T06:41:10Z</time>
      </trkpt>
      <trkpt lat="44.47704" lon="6.54912">
        <ele>1659</ele>
        <time>2021-04-08T06:41:11Z</time>
      </trkpt>
      <trkpt lat="44.47703" lon="6.54912">
        <ele>1659</ele>
        <time>2021-04-08T06:41:12Z</time>
      </trkpt>
      <trkpt lat="44.47701" lon="6.54912">
        <ele>1659</ele>
        <time>2021-04-08T06:41:13Z</time>
      </trkpt>
      <trkpt lat="44.477" lon="6.54911">
        <ele>1659</ele>
        <time>2021-04-08T06:41:14Z</time>
      </trkpt>
      <trkpt lat="44.477" lon="6.54912">
        <ele>1660</ele>
        <time>2021-04-08T06:41:15Z</time>
      </trkpt>
      <trkpt lat="44.47699" lon="6.54912">
        <ele>1660</ele>
        <time>2021-04-08T06:41:16Z</time>
      </trkpt>
      <trkpt lat="44.47698" lon="6.54911">
        <ele>1660</ele>
        <time>2021-04-08T06:41:17Z</time>
      </trkpt>
      <trkpt lat="44.47697" lon="6.54911">
        <ele>1661</ele>
        <time>2021-04-08T06:41:18Z</time>
      </trkpt>
      <trkpt lat="44.47697" lon="6.5491">
        <ele>1661</ele>
        <time>2021-04-08T06:41:19Z</time>
      </trkpt>
      <trkpt lat="44.47696" lon="6.5491">
        <ele>1661</ele>
        <time>2021-04-08T06:41:20Z</time>
      </trkpt>
      <trkpt lat="44.47695" lon="6.5491">
        <ele>1661</ele>
        <time>2021-04-08T06:41:21Z</time>
      </trkpt>
      <trkpt lat="44.47694" lon="6.54909">
        <ele>1662</ele>
        <time>2021-04-08T06:41:22Z</time>
      </trkpt>
      <trkpt lat="44.47693" lon="6.54909">
        <ele>1662</ele>
        <time>2021-04-08T06:41:23Z</time>
      </trkpt>
      <trkpt lat="44.47692" lon="6.54909">
        <ele>1662</ele>
        <time>2021-04-08T06:41:24Z</time>
      </trkpt>
      <trkpt lat="44.47691" lon="6.54908">
        <ele>1663</ele>
        <time>2021-04-08T06:41:25Z</time>
      </trkpt>
      <trkpt lat="44.4769" lon="6.54908">
        <ele>1663</ele>
        <time>2021-04-08T06:41:26Z</time>
      </trkpt>
      <trkpt lat="44.47688" lon="6.54907">
        <ele>1663</ele>
        <time>2021-04-08T06:41:27Z</time>
      </trkpt>
      <trkpt lat="44.47687" lon="6.54907">
        <ele>1664</ele>
        <time>2021-04-08T06:41:28Z</time>
      </trkpt>
      <trkpt lat="44.47686" lon="6.54906">
        <ele>1664</ele>
        <time>2021-04-08T06:41:29Z</time>
      </trkpt>
      <trkpt lat="44.47685" lon="6.54906">
        <ele>1664</ele>
        <time>2021-04-08T06:41:30Z</time>
      </trkpt>
      <trkpt lat="44.47684" lon="6.54907">
        <ele>1664</ele>
        <time>2021-04-08T06:41:31Z</time>
      </trkpt>
      <trkpt lat="44.47683" lon="6.54907">
        <ele>1664</ele>
        <time>2021-04-08T06:41:32Z</time>
      </trkpt>
      <trkpt lat="44.47682" lon="6.54907">
        <ele>1665</ele>
        <time>2021-04-08T06:41:33Z</time>
      </trkpt>
      <trkpt lat="44.47681" lon="6.54907">
        <ele>1665</ele>
        <time>2021-04-08T06:41:34Z</time>
      </trkpt>
      <trkpt lat="44.47679" lon="6.54908">
        <ele>1664</ele>
        <time>2021-04-08T06:41:35Z</time>
      </trkpt>
      <trkpt lat="44.47678" lon="6.54908">
        <ele>1664</ele>
        <time>2021-04-08T06:41:36Z</time>
      </trkpt>
      <trkpt lat="44.47677" lon="6.54907">
        <ele>1664</ele>
        <time>2021-04-08T06:41:37Z</time>
      </trkpt>
      <trkpt lat="44.47676" lon="6.54907">
        <ele>1664</ele>
        <time>2021-04-08T06:41:38Z</time>
      </trkpt>
      <trkpt lat="44.47675" lon="6.54907">
        <ele>1664</ele>
        <time>2021-04-08T06:41:39Z</time>
      </trkpt>
      <trkpt lat="44.47673" lon="6.54907">
        <ele>1664</ele>
        <time>2021-04-08T06:41:40Z</time>
      </trkpt>
      <trkpt lat="44.47672" lon="6.54906">
        <ele>1664</ele>
        <time>2021-04-08T06:41:41Z</time>
      </trkpt>
      <trkpt lat="44.47672" lon="6.54906">
        <ele>1664</ele>
        <time>2021-04-08T06:41:42Z</time>
      </trkpt>
      <trkpt lat="44.4767" lon="6.54906">
        <ele>1664</ele>
        <time>2021-04-08T06:41:43Z</time>
      </trkpt>
      <trkpt lat="44.4767" lon="6.54906">
        <ele>1664</ele>
        <time>2021-04-08T06:41:44Z</time>
      </trkpt>
      <trkpt lat="44.47668" lon="6.54907">
        <ele>1664</ele>
        <time>2021-04-08T06:41:45Z</time>
      </trkpt>
      <trkpt lat="44.47667" lon="6.54907">
        <ele>1664</ele>
        <time>2021-04-08T06:41:46Z</time>
      </trkpt>
      <trkpt lat="44.47667" lon="6.54906">
        <ele>1664</ele>
        <time>2021-04-08T06:41:47Z</time>
      </trkpt>
      <trkpt lat="44.47666" lon="6.54906">
        <ele>1664</ele>
        <time>2021-04-08T06:41:48Z</time>
      </trkpt>
      <trkpt lat="44.47664" lon="6.54906">
        <ele>1663</ele>
        <time>2021-04-08T06:41:49Z</time>
      </trkpt>
      <trkpt lat="44.47663" lon="6.54906">
        <ele>1663</ele>
        <time>2021-04-08T06:41:50Z</time>
      </trkpt>
      <trkpt lat="44.47662" lon="6.54905">
        <ele>1663</ele>
        <time>2021-04-08T06:41:51Z</time>
      </trkpt>
      <trkpt lat="44.47661" lon="6.54904">
        <ele>1663</ele>
        <time>2021-04-08T06:41:52Z</time>
      </trkpt>
      <trkpt lat="44.4766" lon="6.54904">
        <ele>1664</ele>
        <time>2021-04-08T06:41:53Z</time>
      </trkpt>
      <trkpt lat="44.47659" lon="6.54904">
        <ele>1664</ele>
        <time>2021-04-08T06:41:54Z</time>
      </trkpt>
      <trkpt lat="44.47658" lon="6.54903">
        <ele>1665</ele>
        <time>2021-04-08T06:41:55Z</time>
      </trkpt>
      <trkpt lat="44.47657" lon="6.54903">
        <ele>1665</ele>
        <time>2021-04-08T06:41:56Z</time>
      </trkpt>
      <trkpt lat="44.47655" lon="6.54903">
        <ele>1666</ele>
        <time>2021-04-08T06:41:57Z</time>
      </trkpt>
      <trkpt lat="44.47654" lon="6.54904">
        <ele>1666</ele>
        <time>2021-04-08T06:41:58Z</time>
      </trkpt>
      <trkpt lat="44.47653" lon="6.54903">
        <ele>1666</ele>
        <time>2021-04-08T06:41:59Z</time>
      </trkpt>
      <trkpt lat="44.47652" lon="6.54903">
        <ele>1666</ele>
        <time>2021-04-08T06:42:00Z</time>
      </trkpt>
      <trkpt lat="44.47651" lon="6.54902">
        <ele>1666</ele>
        <time>2021-04-08T06:42:01Z</time>
      </trkpt>
      <trkpt lat="44.4765" lon="6.54902">
        <ele>1666</ele>
        <time>2021-04-08T06:42:02Z</time>
      </trkpt>
      <trkpt lat="44.4765" lon="6.54902">
        <ele>1666</ele>
        <time>2021-04-08T06:42:03Z</time>
      </trkpt>
      <trkpt lat="44.47649" lon="6.54901">
        <ele>1667</ele>
        <time>2021-04-08T06:42:04Z</time>
      </trkpt>
      <trkpt lat="44.47649" lon="6.549">
        <ele>1667</ele>
        <time>2021-04-08T06:42:05Z</time>
      </trkpt>
      <trkpt lat="44.47648" lon="6.549">
        <ele>1667</ele>
        <time>2021-04-08T06:42:06Z</time>
      </trkpt>
      <trkpt lat="44.47647" lon="6.549">
        <ele>1667</ele>
        <time>2021-04-08T06:42:07Z</time>
      </trkpt>
      <trkpt lat="44.47646" lon="6.549">
        <ele>1667</ele>
        <time>2021-04-08T06:42:08Z</time>
      </trkpt>
      <trkpt lat="44.47645" lon="6.54899">
        <ele>1667</ele>
        <time>2021-04-08T06:42:09Z</time>
      </trkpt>
      <trkpt lat="44.47644" lon="6.54899">
        <ele>1667</ele>
        <time>2021-04-08T06:42:10Z</time>
      </trkpt>
      <trkpt lat="44.47643" lon="6.54899">
        <ele>1667</ele>
        <time>2021-04-08T06:42:11Z</time>
      </trkpt>
      <trkpt lat="44.47643" lon="6.54898">
        <ele>1668</ele>
        <time>2021-04-08T06:42:12Z</time>
      </trkpt>
      <trkpt lat="44.47641" lon="6.54897">
        <ele>1668</ele>
        <time>2021-04-08T06:42:13Z</time>
      </trkpt>
      <trkpt lat="44.47641" lon="6.54897">
        <ele>1668</ele>
        <time>2021-04-08T06:42:14Z</time>
      </trkpt>
      <trkpt lat="44.4764" lon="6.54896">
        <ele>1668</ele>
        <time>2021-04-08T06:42:15Z</time>
      </trkpt>
      <trkpt lat="44.47639" lon="6.54895">
        <ele>1668</ele>
        <time>2021-04-08T06:42:16Z</time>
      </trkpt>
      <trkpt lat="44.47638" lon="6.54894">
        <ele>1668</ele>
        <time>2021-04-08T06:42:17Z</time>
      </trkpt>
      <trkpt lat="44.47637" lon="6.54894">
        <ele>1668</ele>
        <time>2021-04-08T06:42:18Z</time>
      </trkpt>
      <trkpt lat="44.47636" lon="6.54894">
        <ele>1668</ele>
        <time>2021-04-08T06:42:19Z</time>
      </trkpt>
      <trkpt lat="44.47635" lon="6.54894">
        <ele>1668</ele>
        <time>2021-04-08T06:42:20Z</time>
      </trkpt>
      <trkpt lat="44.47635" lon="6.54893">
        <ele>1669</ele>
        <time>2021-04-08T06:42:21Z</time>
      </trkpt>
      <trkpt lat="44.47634" lon="6.54893">
        <ele>1669</ele>
        <time>2021-04-08T06:42:22Z</time>
      </trkpt>
      <trkpt lat="44.47633" lon="6.54892">
        <ele>1669</ele>
        <time>2021-04-08T06:42:23Z</time>
      </trkpt>
      <trkpt lat="44.47632" lon="6.54891">
        <ele>1669</ele>
        <time>2021-04-08T06:42:24Z</time>
      </trkpt>
      <trkpt lat="44.47631" lon="6.54891">
        <ele>1669</ele>
        <time>2021-04-08T06:42:25Z</time>
      </trkpt>
      <trkpt lat="44.4763" lon="6.5489">
        <ele>1669</ele>
        <time>2021-04-08T06:42:26Z</time>
      </trkpt>
      <trkpt lat="44.4763" lon="6.54889">
        <ele>1670</ele>
        <time>2021-04-08T06:42:27Z</time>
      </trkpt>
      <trkpt lat="44.47629" lon="6.54888">
        <ele>1670</ele>
        <time>2021-04-08T06:42:28Z</time>
      </trkpt>
      <trkpt lat="44.47628" lon="6.54887">
        <ele>1670</ele>
        <time>2021-04-08T06:42:29Z</time>
      </trkpt>
      <trkpt lat="44.47627" lon="6.54886">
        <ele>1669</ele>
        <time>2021-04-08T06:42:30Z</time>
      </trkpt>
      <trkpt lat="44.47626" lon="6.54885">
        <ele>1669</ele>
        <time>2021-04-08T06:42:31Z</time>
      </trkpt>
      <trkpt lat="44.47625" lon="6.54885">
        <ele>1669</ele>
        <time>2021-04-08T06:42:32Z</time>
      </trkpt>
      <trkpt lat="44.47624" lon="6.54885">
        <ele>1669</ele>
        <time>2021-04-08T06:42:33Z</time>
      </trkpt>
      <trkpt lat="44.47623" lon="6.54884">
        <ele>1669</ele>
        <time>2021-04-08T06:42:34Z</time>
      </trkpt>
      <trkpt lat="44.47623" lon="6.54883">
        <ele>1669</ele>
        <time>2021-04-08T06:42:35Z</time>
      </trkpt>
      <trkpt lat="44.47622" lon="6.54883">
        <ele>1669</ele>
        <time>2021-04-08T06:42:36Z</time>
      </trkpt>
      <trkpt lat="44.47621" lon="6.54883">
        <ele>1669</ele>
        <time>2021-04-08T06:42:37Z</time>
      </trkpt>
      <trkpt lat="44.4762" lon="6.54883">
        <ele>1669</ele>
        <time>2021-04-08T06:42:38Z</time>
      </trkpt>
      <trkpt lat="44.47619" lon="6.54882">
        <ele>1669</ele>
        <time>2021-04-08T06:42:39Z</time>
      </trkpt>
      <trkpt lat="44.47618" lon="6.5488">
        <ele>1668</ele>
        <time>2021-04-08T06:42:40Z</time>
      </trkpt>
      <trkpt lat="44.47617" lon="6.54879">
        <ele>1668</ele>
        <time>2021-04-08T06:42:41Z</time>
      </trkpt>
      <trkpt lat="44.47616" lon="6.54878">
        <ele>1668</ele>
        <time>2021-04-08T06:42:42Z</time>
      </trkpt>
      <trkpt lat="44.47615" lon="6.54878">
        <ele>1669</ele>
        <time>2021-04-08T06:42:43Z</time>
      </trkpt>
      <trkpt lat="44.47614" lon="6.54876">
        <ele>1669</ele>
        <time>2021-04-08T06:42:44Z</time>
      </trkpt>
      <trkpt lat="44.47613" lon="6.54876">
        <ele>1669</ele>
        <time>2021-04-08T06:42:45Z</time>
      </trkpt>
      <trkpt lat="44.47612" lon="6.54876">
        <ele>1669</ele>
        <time>2021-04-08T06:42:46Z</time>
      </trkpt>
      <trkpt lat="44.47611" lon="6.54876">
        <ele>1669</ele>
        <time>2021-04-08T06:42:47Z</time>
      </trkpt>
      <trkpt lat="44.4761" lon="6.54876">
        <ele>1669</ele>
        <time>2021-04-08T06:42:48Z</time>
      </trkpt>
      <trkpt lat="44.4761" lon="6.54876">
        <ele>1669</ele>
        <time>2021-04-08T06:42:49Z</time>
      </trkpt>
      <trkpt lat="44.4761" lon="6.54875">
        <ele>1669</ele>
        <time>2021-04-08T06:42:50Z</time>
      </trkpt>
      <trkpt lat="44.47609" lon="6.54876">
        <ele>1669</ele>
        <time>2021-04-08T06:42:51Z</time>
      </trkpt>
      <trkpt lat="44.47608" lon="6.54875">
        <ele>1669</ele>
        <time>2021-04-08T06:42:52Z</time>
      </trkpt>
      <trkpt lat="44.47608" lon="6.54875">
        <ele>1669</ele>
        <time>2021-04-08T06:42:53Z</time>
      </trkpt>
      <trkpt lat="44.47608" lon="6.54873">
        <ele>1669</ele>
        <time>2021-04-08T06:42:54Z</time>
      </trkpt>
      <trkpt lat="44.47607" lon="6.54872">
        <ele>1668</ele>
        <time>2021-04-08T06:42:55Z</time>
      </trkpt>
      <trkpt lat="44.47606" lon="6.54872">
        <ele>1666</ele>
        <time>2021-04-08T06:42:56Z</time>
      </trkpt>
      <trkpt lat="44.47606" lon="6.54871">
        <ele>1665</ele>
        <time>2021-04-08T06:42:57Z</time>
      </trkpt>
      <trkpt lat="44.47605" lon="6.5487">
        <ele>1664</ele>
        <time>2021-04-08T06:42:58Z</time>
      </trkpt>
      <trkpt lat="44.47605" lon="6.54869">
        <ele>1663</ele>
        <time>2021-04-08T06:42:59Z</time>
      </trkpt>
      <trkpt lat="44.47604" lon="6.54869">
        <ele>1663</ele>
        <time>2021-04-08T06:43:00Z</time>
      </trkpt>
      <trkpt lat="44.47604" lon="6.54867">
        <ele>1662</ele>
        <time>2021-04-08T06:43:01Z</time>
      </trkpt>
      <trkpt lat="44.47603" lon="6.54866">
        <ele>1662</ele>
        <time>2021-04-08T06:43:02Z</time>
      </trkpt>
      <trkpt lat="44.47603" lon="6.54864">
        <ele>1662</ele>
        <time>2021-04-08T06:43:03Z</time>
      </trkpt>
      <trkpt lat="44.47601" lon="6.54864">
        <ele>1662</ele>
        <time>2021-04-08T06:43:04Z</time>
      </trkpt>
      <trkpt lat="44.476" lon="6.54864">
        <ele>1661</ele>
        <time>2021-04-08T06:43:05Z</time>
      </trkpt>
      <trkpt lat="44.47599" lon="6.54864">
        <ele>1661</ele>
        <time>2021-04-08T06:43:06Z</time>
      </trkpt>
      <trkpt lat="44.47598" lon="6.54863">
        <ele>1660</ele>
        <time>2021-04-08T06:43:07Z</time>
      </trkpt>
      <trkpt lat="44.47596" lon="6.54863">
        <ele>1660</ele>
        <time>2021-04-08T06:43:08Z</time>
      </trkpt>
      <trkpt lat="44.47595" lon="6.54863">
        <ele>1660</ele>
        <time>2021-04-08T06:43:09Z</time>
      </trkpt>
      <trkpt lat="44.47594" lon="6.54863">
        <ele>1659</ele>
        <time>2021-04-08T06:43:10Z</time>
      </trkpt>
      <trkpt lat="44.47593" lon="6.54861">
        <ele>1660</ele>
        <time>2021-04-08T06:43:11Z</time>
      </trkpt>
      <trkpt lat="44.47592" lon="6.5486">
        <ele>1660</ele>
        <time>2021-04-08T06:43:12Z</time>
      </trkpt>
      <trkpt lat="44.47592" lon="6.5486">
        <ele>1661</ele>
        <time>2021-04-08T06:43:13Z</time>
      </trkpt>
      <trkpt lat="44.47592" lon="6.54859">
        <ele>1662</ele>
        <time>2021-04-08T06:43:14Z</time>
      </trkpt>
      <trkpt lat="44.47591" lon="6.54858">
        <ele>1663</ele>
        <time>2021-04-08T06:43:15Z</time>
      </trkpt>
      <trkpt lat="44.4759" lon="6.54858">
        <ele>1663</ele>
        <time>2021-04-08T06:43:16Z</time>
      </trkpt>
      <trkpt lat="44.47588" lon="6.54858">
        <ele>1663</ele>
        <time>2021-04-08T06:43:17Z</time>
      </trkpt>
      <trkpt lat="44.47587" lon="6.54857">
        <ele>1663</ele>
        <time>2021-04-08T06:43:18Z</time>
      </trkpt>
      <trkpt lat="44.47586" lon="6.54858">
        <ele>1664</ele>
        <time>2021-04-08T06:43:19Z</time>
      </trkpt>
      <trkpt lat="44.47584" lon="6.54858">
        <ele>1664</ele>
        <time>2021-04-08T06:43:20Z</time>
      </trkpt>
      <trkpt lat="44.47583" lon="6.54858">
        <ele>1664</ele>
        <time>2021-04-08T06:43:21Z</time>
      </trkpt>
      <trkpt lat="44.47582" lon="6.54858">
        <ele>1664</ele>
        <time>2021-04-08T06:43:22Z</time>
      </trkpt>
      <trkpt lat="44.47581" lon="6.54858">
        <ele>1665</ele>
        <time>2021-04-08T06:43:23Z</time>
      </trkpt>
      <trkpt lat="44.47579" lon="6.54857">
        <ele>1666</ele>
        <time>2021-04-08T06:43:24Z</time>
      </trkpt>
      <trkpt lat="44.47578" lon="6.54856">
        <ele>1668</ele>
        <time>2021-04-08T06:43:25Z</time>
      </trkpt>
      <trkpt lat="44.47577" lon="6.54856">
        <ele>1668</ele>
        <time>2021-04-08T06:43:26Z</time>
      </trkpt>
      <trkpt lat="44.47576" lon="6.54855">
        <ele>1669</ele>
        <time>2021-04-08T06:43:27Z</time>
      </trkpt>
      <trkpt lat="44.47575" lon="6.54855">
        <ele>1669</ele>
        <time>2021-04-08T06:43:28Z</time>
      </trkpt>
      <trkpt lat="44.47573" lon="6.54856">
        <ele>1669</ele>
        <time>2021-04-08T06:43:29Z</time>
      </trkpt>
      <trkpt lat="44.47572" lon="6.54856">
        <ele>1670</ele>
        <time>2021-04-08T06:43:30Z</time>
      </trkpt>
      <trkpt lat="44.47571" lon="6.54855">
        <ele>1670</ele>
        <time>2021-04-08T06:43:31Z</time>
      </trkpt>
      <trkpt lat="44.47569" lon="6.54855">
        <ele>1670</ele>
        <time>2021-04-08T06:43:32Z</time>
      </trkpt>
      <trkpt lat="44.47568" lon="6.54854">
        <ele>1671</ele>
        <time>2021-04-08T06:43:33Z</time>
      </trkpt>
      <trkpt lat="44.47567" lon="6.54854">
        <ele>1671</ele>
        <time>2021-04-08T06:43:34Z</time>
      </trkpt>
      <trkpt lat="44.47566" lon="6.54853">
        <ele>1671</ele>
        <time>2021-04-08T06:43:35Z</time>
      </trkpt>
      <trkpt lat="44.47564" lon="6.54852">
        <ele>1671</ele>
        <time>2021-04-08T06:43:36Z</time>
      </trkpt>
      <trkpt lat="44.47563" lon="6.54851">
        <ele>1672</ele>
        <time>2021-04-08T06:43:37Z</time>
      </trkpt>
      <trkpt lat="44.47562" lon="6.5485">
        <ele>1672</ele>
        <time>2021-04-08T06:43:38Z</time>
      </trkpt>
      <trkpt lat="44.47561" lon="6.5485">
        <ele>1673</ele>
        <time>2021-04-08T06:43:39Z</time>
      </trkpt>
      <trkpt lat="44.4756" lon="6.5485">
        <ele>1673</ele>
        <time>2021-04-08T06:43:40Z</time>
      </trkpt>
      <trkpt lat="44.47559" lon="6.54849">
        <ele>1673</ele>
        <time>2021-04-08T06:43:41Z</time>
      </trkpt>
      <trkpt lat="44.47558" lon="6.54849">
        <ele>1673</ele>
        <time>2021-04-08T06:43:42Z</time>
      </trkpt>
      <trkpt lat="44.47557" lon="6.54849">
        <ele>1673</ele>
        <time>2021-04-08T06:43:43Z</time>
      </trkpt>
      <trkpt lat="44.47556" lon="6.54849">
        <ele>1673</ele>
        <time>2021-04-08T06:43:44Z</time>
      </trkpt>
      <trkpt lat="44.47555" lon="6.54849">
        <ele>1673</ele>
        <time>2021-04-08T06:43:45Z</time>
      </trkpt>
      <trkpt lat="44.47554" lon="6.54849">
        <ele>1673</ele>
        <time>2021-04-08T06:43:46Z</time>
      </trkpt>
      <trkpt lat="44.47553" lon="6.54849">
        <ele>1673</ele>
        <time>2021-04-08T06:43:47Z</time>
      </trkpt>
      <trkpt lat="44.47552" lon="6.54848">
        <ele>1672</ele>
        <time>2021-04-08T06:43:48Z</time>
      </trkpt>
      <trkpt lat="44.47551" lon="6.54848">
        <ele>1672</ele>
        <time>2021-04-08T06:43:49Z</time>
      </trkpt>
      <trkpt lat="44.4755" lon="6.54847">
        <ele>1672</ele>
        <time>2021-04-08T06:43:50Z</time>
      </trkpt>
      <trkpt lat="44.47549" lon="6.54846">
        <ele>1672</ele>
        <time>2021-04-08T06:43:51Z</time>
      </trkpt>
      <trkpt lat="44.47547" lon="6.54845">
        <ele>1672</ele>
        <time>2021-04-08T06:43:52Z</time>
      </trkpt>
      <trkpt lat="44.47546" lon="6.54845">
        <ele>1672</ele>
        <time>2021-04-08T06:43:53Z</time>
      </trkpt>
      <trkpt lat="44.47545" lon="6.54844">
        <ele>1672</ele>
        <time>2021-04-08T06:43:54Z</time>
      </trkpt>
      <trkpt lat="44.47544" lon="6.54844">
        <ele>1671</ele>
        <time>2021-04-08T06:43:55Z</time>
      </trkpt>
      <trkpt lat="44.47543" lon="6.54843">
        <ele>1671</ele>
        <time>2021-04-08T06:43:56Z</time>
      </trkpt>
      <trkpt lat="44.47542" lon="6.54842">
        <ele>1671</ele>
        <time>2021-04-08T06:43:57Z</time>
      </trkpt>
      <trkpt lat="44.47541" lon="6.54842">
        <ele>1671</ele>
        <time>2021-04-08T06:43:58Z</time>
      </trkpt>
      <trkpt lat="44.4754" lon="6.54841">
        <ele>1671</ele>
        <time>2021-04-08T06:43:59Z</time>
      </trkpt>
      <trkpt lat="44.47539" lon="6.54841">
        <ele>1670</ele>
        <time>2021-04-08T06:44:00Z</time>
      </trkpt>
      <trkpt lat="44.47538" lon="6.5484">
        <ele>1670</ele>
        <time>2021-04-08T06:44:01Z</time>
      </trkpt>
      <trkpt lat="44.47537" lon="6.54839">
        <ele>1670</ele>
        <time>2021-04-08T06:44:02Z</time>
      </trkpt>
      <trkpt lat="44.47536" lon="6.54839">
        <ele>1670</ele>
        <time>2021-04-08T06:44:03Z</time>
      </trkpt>
      <trkpt lat="44.47534" lon="6.54839">
        <ele>1670</ele>
        <time>2021-04-08T06:44:04Z</time>
      </trkpt>
      <trkpt lat="44.47533" lon="6.54839">
        <ele>1670</ele>
        <time>2021-04-08T06:44:05Z</time>
      </trkpt>
      <trkpt lat="44.47533" lon="6.54838">
        <ele>1670</ele>
        <time>2021-04-08T06:44:06Z</time>
      </trkpt>
      <trkpt lat="44.47532" lon="6.54838">
        <ele>1669</ele>
        <time>2021-04-08T06:44:07Z</time>
      </trkpt>
      <trkpt lat="44.4753" lon="6.54837">
        <ele>1669</ele>
        <time>2021-04-08T06:44:08Z</time>
      </trkpt>
      <trkpt lat="44.47529" lon="6.54837">
        <ele>1669</ele>
        <time>2021-04-08T06:44:09Z</time>
      </trkpt>
      <trkpt lat="44.47528" lon="6.54837">
        <ele>1669</ele>
        <time>2021-04-08T06:44:10Z</time>
      </trkpt>
      <trkpt lat="44.47527" lon="6.54837">
        <ele>1669</ele>
        <time>2021-04-08T06:44:11Z</time>
      </trkpt>
      <trkpt lat="44.47526" lon="6.54837">
        <ele>1669</ele>
        <time>2021-04-08T06:44:12Z</time>
      </trkpt>
      <trkpt lat="44.47524" lon="6.54836">
        <ele>1669</ele>
        <time>2021-04-08T06:44:13Z</time>
      </trkpt>
      <trkpt lat="44.47523" lon="6.54836">
        <ele>1669</ele>
        <time>2021-04-08T06:44:14Z</time>
      </trkpt>
      <trkpt lat="44.47521" lon="6.54836">
        <ele>1669</ele>
        <time>2021-04-08T06:44:15Z</time>
      </trkpt>
      <trkpt lat="44.4752" lon="6.54836">
        <ele>1669</ele>
        <time>2021-04-08T06:44:16Z</time>
      </trkpt>
      <trkpt lat="44.47519" lon="6.54836">
        <ele>1670</ele>
        <time>2021-04-08T06:44:17Z</time>
      </trkpt>
      <trkpt lat="44.47518" lon="6.54836">
        <ele>1670</ele>
        <time>2021-04-08T06:44:18Z</time>
      </trkpt>
      <trkpt lat="44.47517" lon="6.54835">
        <ele>1670</ele>
        <time>2021-04-08T06:44:19Z</time>
      </trkpt>
      <trkpt lat="44.47516" lon="6.54835">
        <ele>1670</ele>
        <time>2021-04-08T06:44:20Z</time>
      </trkpt>
      <trkpt lat="44.47515" lon="6.54835">
        <ele>1670</ele>
        <time>2021-04-08T06:44:21Z</time>
      </trkpt>
      <trkpt lat="44.47514" lon="6.54834">
        <ele>1670</ele>
        <time>2021-04-08T06:44:22Z</time>
      </trkpt>
      <trkpt lat="44.47513" lon="6.54833">
        <ele>1671</ele>
        <time>2021-04-08T06:44:23Z</time>
      </trkpt>
      <trkpt lat="44.47511" lon="6.54833">
        <ele>1671</ele>
        <time>2021-04-08T06:44:24Z</time>
      </trkpt>
      <trkpt lat="44.47509" lon="6.54833">
        <ele>1671</ele>
        <time>2021-04-08T06:44:25Z</time>
      </trkpt>
      <trkpt lat="44.47508" lon="6.54833">
        <ele>1671</ele>
        <time>2021-04-08T06:44:26Z</time>
      </trkpt>
      <trkpt lat="44.47507" lon="6.54832">
        <ele>1671</ele>
        <time>2021-04-08T06:44:27Z</time>
      </trkpt>
      <trkpt lat="44.47506" lon="6.54832">
        <ele>1671</ele>
        <time>2021-04-08T06:44:28Z</time>
      </trkpt>
      <trkpt lat="44.47505" lon="6.54832">
        <ele>1671</ele>
        <time>2021-04-08T06:44:29Z</time>
      </trkpt>
      <trkpt lat="44.47504" lon="6.54831">
        <ele>1671</ele>
        <time>2021-04-08T06:44:30Z</time>
      </trkpt>
      <trkpt lat="44.47502" lon="6.54831">
        <ele>1672</ele>
        <time>2021-04-08T06:44:31Z</time>
      </trkpt>
      <trkpt lat="44.475" lon="6.54832">
        <ele>1672</ele>
        <time>2021-04-08T06:44:32Z</time>
      </trkpt>
      <trkpt lat="44.47499" lon="6.54831">
        <ele>1672</ele>
        <time>2021-04-08T06:44:33Z</time>
      </trkpt>
      <trkpt lat="44.47498" lon="6.54831">
        <ele>1673</ele>
        <time>2021-04-08T06:44:34Z</time>
      </trkpt>
      <trkpt lat="44.47497" lon="6.54831">
        <ele>1673</ele>
        <time>2021-04-08T06:44:35Z</time>
      </trkpt>
      <trkpt lat="44.47496" lon="6.54831">
        <ele>1673</ele>
        <time>2021-04-08T06:44:36Z</time>
      </trkpt>
      <trkpt lat="44.47495" lon="6.54831">
        <ele>1673</ele>
        <time>2021-04-08T06:44:37Z</time>
      </trkpt>
      <trkpt lat="44.47493" lon="6.54831">
        <ele>1673</ele>
        <time>2021-04-08T06:44:38Z</time>
      </trkpt>
      <trkpt lat="44.47492" lon="6.5483">
        <ele>1673</ele>
        <time>2021-04-08T06:44:39Z</time>
      </trkpt>
      <trkpt lat="44.47492" lon="6.54832">
        <ele>1673</ele>
        <time>2021-04-08T06:44:40Z</time>
      </trkpt>
      <trkpt lat="44.47491" lon="6.54833">
        <ele>1672</ele>
        <time>2021-04-08T06:44:41Z</time>
      </trkpt>
      <trkpt lat="44.47489" lon="6.54834">
        <ele>1672</ele>
        <time>2021-04-08T06:44:42Z</time>
      </trkpt>
      <trkpt lat="44.47488" lon="6.54834">
        <ele>1671</ele>
        <time>2021-04-08T06:44:43Z</time>
      </trkpt>
      <trkpt lat="44.47487" lon="6.54835">
        <ele>1670</ele>
        <time>2021-04-08T06:44:44Z</time>
      </trkpt>
      <trkpt lat="44.47486" lon="6.54835">
        <ele>1670</ele>
        <time>2021-04-08T06:44:45Z</time>
      </trkpt>
      <trkpt lat="44.47485" lon="6.54833">
        <ele>1670</ele>
        <time>2021-04-08T06:44:46Z</time>
      </trkpt>
      <trkpt lat="44.47484" lon="6.54833">
        <ele>1670</ele>
        <time>2021-04-08T06:44:47Z</time>
      </trkpt>
      <trkpt lat="44.47483" lon="6.54833">
        <ele>1670</ele>
        <time>2021-04-08T06:44:48Z</time>
      </trkpt>
      <trkpt lat="44.47482" lon="6.54833">
        <ele>1670</ele>
        <time>2021-04-08T06:44:49Z</time>
      </trkpt>
      <trkpt lat="44.47481" lon="6.54833">
        <ele>1670</ele>
        <time>2021-04-08T06:44:50Z</time>
      </trkpt>
      <trkpt lat="44.4748" lon="6.54833">
        <ele>1670</ele>
        <time>2021-04-08T06:44:51Z</time>
      </trkpt>
      <trkpt lat="44.47479" lon="6.54833">
        <ele>1670</ele>
        <time>2021-04-08T06:44:52Z</time>
      </trkpt>
      <trkpt lat="44.47478" lon="6.54832">
        <ele>1670</ele>
        <time>2021-04-08T06:44:53Z</time>
      </trkpt>
      <trkpt lat="44.47477" lon="6.54833">
        <ele>1670</ele>
        <time>2021-04-08T06:44:54Z</time>
      </trkpt>
      <trkpt lat="44.47476" lon="6.54833">
        <ele>1670</ele>
        <time>2021-04-08T06:44:55Z</time>
      </trkpt>
      <trkpt lat="44.47475" lon="6.54835">
        <ele>1670</ele>
        <time>2021-04-08T06:44:56Z</time>
      </trkpt>
      <trkpt lat="44.47474" lon="6.54836">
        <ele>1670</ele>
        <time>2021-04-08T06:44:57Z</time>
      </trkpt>
      <trkpt lat="44.47473" lon="6.54836">
        <ele>1670</ele>
        <time>2021-04-08T06:44:58Z</time>
      </trkpt>
      <trkpt lat="44.47471" lon="6.54836">
        <ele>1669</ele>
        <time>2021-04-08T06:44:59Z</time>
      </trkpt>
      <trkpt lat="44.4747" lon="6.54836">
        <ele>1669</ele>
        <time>2021-04-08T06:45:00Z</time>
      </trkpt>
      <trkpt lat="44.47469" lon="6.54836">
        <ele>1669</ele>
        <time>2021-04-08T06:45:01Z</time>
      </trkpt>
      <trkpt lat="44.47468" lon="6.54836">
        <ele>1669</ele>
        <time>2021-04-08T06:45:02Z</time>
      </trkpt>
      <trkpt lat="44.47466" lon="6.54836">
        <ele>1670</ele>
        <time>2021-04-08T06:45:03Z</time>
      </trkpt>
      <trkpt lat="44.47465" lon="6.54835">
        <ele>1670</ele>
        <time>2021-04-08T06:45:04Z</time>
      </trkpt>
      <trkpt lat="44.47464" lon="6.54834">
        <ele>1670</ele>
        <time>2021-04-08T06:45:05Z</time>
      </trkpt>
      <trkpt lat="44.47463" lon="6.54832">
        <ele>1670</ele>
        <time>2021-04-08T06:45:06Z</time>
      </trkpt>
      <trkpt lat="44.47462" lon="6.54832">
        <ele>1671</ele>
        <time>2021-04-08T06:45:07Z</time>
      </trkpt>
      <trkpt lat="44.47461" lon="6.5483">
        <ele>1671</ele>
        <time>2021-04-08T06:45:08Z</time>
      </trkpt>
      <trkpt lat="44.4746" lon="6.54829">
        <ele>1671</ele>
        <time>2021-04-08T06:45:09Z</time>
      </trkpt>
      <trkpt lat="44.47459" lon="6.54827">
        <ele>1671</ele>
        <time>2021-04-08T06:45:10Z</time>
      </trkpt>
      <trkpt lat="44.47458" lon="6.54826">
        <ele>1671</ele>
        <time>2021-04-08T06:45:11Z</time>
      </trkpt>
      <trkpt lat="44.47457" lon="6.54826">
        <ele>1672</ele>
        <time>2021-04-08T06:45:12Z</time>
      </trkpt>
      <trkpt lat="44.47456" lon="6.54826">
        <ele>1672</ele>
        <time>2021-04-08T06:45:13Z</time>
      </trkpt>
      <trkpt lat="44.47455" lon="6.54825">
        <ele>1672</ele>
        <time>2021-04-08T06:45:14Z</time>
      </trkpt>
      <trkpt lat="44.47454" lon="6.54824">
        <ele>1672</ele>
        <time>2021-04-08T06:45:15Z</time>
      </trkpt>
      <trkpt lat="44.47453" lon="6.54824">
        <ele>1673</ele>
        <time>2021-04-08T06:45:16Z</time>
      </trkpt>
      <trkpt lat="44.47453" lon="6.54823">
        <ele>1673</ele>
        <time>2021-04-08T06:45:17Z</time>
      </trkpt>
      <trkpt lat="44.47452" lon="6.54822">
        <ele>1673</ele>
        <time>2021-04-08T06:45:18Z</time>
      </trkpt>
      <trkpt lat="44.47451" lon="6.54822">
        <ele>1673</ele>
        <time>2021-04-08T06:45:19Z</time>
      </trkpt>
      <trkpt lat="44.4745" lon="6.5482">
        <ele>1673</ele>
        <time>2021-04-08T06:45:20Z</time>
      </trkpt>
      <trkpt lat="44.47449" lon="6.54819">
        <ele>1673</ele>
        <time>2021-04-08T06:45:21Z</time>
      </trkpt>
      <trkpt lat="44.47449" lon="6.54817">
        <ele>1674</ele>
        <time>2021-04-08T06:45:22Z</time>
      </trkpt>
      <trkpt lat="44.47448" lon="6.54816">
        <ele>1674</ele>
        <time>2021-04-08T06:45:23Z</time>
      </trkpt>
      <trkpt lat="44.47448" lon="6.54814">
        <ele>1675</ele>
        <time>2021-04-08T06:45:24Z</time>
      </trkpt>
      <trkpt lat="44.47448" lon="6.54812">
        <ele>1678</ele>
        <time>2021-04-08T06:45:25Z</time>
      </trkpt>
      <trkpt lat="44.47447" lon="6.54811">
        <ele>1678</ele>
        <time>2021-04-08T06:45:26Z</time>
      </trkpt>
      <trkpt lat="44.47446" lon="6.5481">
        <ele>1679</ele>
        <time>2021-04-08T06:45:27Z</time>
      </trkpt>
      <trkpt lat="44.47445" lon="6.5481">
        <ele>1679</ele>
        <time>2021-04-08T06:45:28Z</time>
      </trkpt>
      <trkpt lat="44.47444" lon="6.5481">
        <ele>1679</ele>
        <time>2021-04-08T06:45:29Z</time>
      </trkpt>
      <trkpt lat="44.47443" lon="6.54809">
        <ele>1679</ele>
        <time>2021-04-08T06:45:30Z</time>
      </trkpt>
      <trkpt lat="44.47443" lon="6.54808">
        <ele>1679</ele>
        <time>2021-04-08T06:45:31Z</time>
      </trkpt>
      <trkpt lat="44.47442" lon="6.54808">
        <ele>1678</ele>
        <time>2021-04-08T06:45:32Z</time>
      </trkpt>
      <trkpt lat="44.47441" lon="6.54807">
        <ele>1678</ele>
        <time>2021-04-08T06:45:33Z</time>
      </trkpt>
      <trkpt lat="44.47439" lon="6.54805">
        <ele>1678</ele>
        <time>2021-04-08T06:45:34Z</time>
      </trkpt>
      <trkpt lat="44.47438" lon="6.54804">
        <ele>1678</ele>
        <time>2021-04-08T06:45:35Z</time>
      </trkpt>
      <trkpt lat="44.47437" lon="6.54803">
        <ele>1678</ele>
        <time>2021-04-08T06:45:36Z</time>
      </trkpt>
      <trkpt lat="44.47436" lon="6.54802">
        <ele>1678</ele>
        <time>2021-04-08T06:45:37Z</time>
      </trkpt>
      <trkpt lat="44.47435" lon="6.54801">
        <ele>1678</ele>
        <time>2021-04-08T06:45:38Z</time>
      </trkpt>
      <trkpt lat="44.47434" lon="6.548">
        <ele>1678</ele>
        <time>2021-04-08T06:45:39Z</time>
      </trkpt>
      <trkpt lat="44.47434" lon="6.54799">
        <ele>1678</ele>
        <time>2021-04-08T06:45:40Z</time>
      </trkpt>
      <trkpt lat="44.47433" lon="6.54799">
        <ele>1678</ele>
        <time>2021-04-08T06:45:41Z</time>
      </trkpt>
      <trkpt lat="44.47432" lon="6.54798">
        <ele>1678</ele>
        <time>2021-04-08T06:45:42Z</time>
      </trkpt>
      <trkpt lat="44.47431" lon="6.54798">
        <ele>1678</ele>
        <time>2021-04-08T06:45:43Z</time>
      </trkpt>
      <trkpt lat="44.4743" lon="6.54798">
        <ele>1678</ele>
        <time>2021-04-08T06:45:44Z</time>
      </trkpt>
      <trkpt lat="44.47429" lon="6.54797">
        <ele>1677</ele>
        <time>2021-04-08T06:45:45Z</time>
      </trkpt>
      <trkpt lat="44.47428" lon="6.54797">
        <ele>1677</ele>
        <time>2021-04-08T06:45:46Z</time>
      </trkpt>
      <trkpt lat="44.47428" lon="6.54797">
        <ele>1677</ele>
        <time>2021-04-08T06:45:47Z</time>
      </trkpt>
      <trkpt lat="44.47428" lon="6.54796">
        <ele>1677</ele>
        <time>2021-04-08T06:45:48Z</time>
      </trkpt>
      <trkpt lat="44.47426" lon="6.54796">
        <ele>1677</ele>
        <time>2021-04-08T06:45:49Z</time>
      </trkpt>
      <trkpt lat="44.47425" lon="6.54796">
        <ele>1677</ele>
        <time>2021-04-08T06:45:50Z</time>
      </trkpt>
      <trkpt lat="44.47424" lon="6.54796">
        <ele>1676</ele>
        <time>2021-04-08T06:45:51Z</time>
      </trkpt>
      <trkpt lat="44.47422" lon="6.54796">
        <ele>1676</ele>
        <time>2021-04-08T06:45:52Z</time>
      </trkpt>
      <trkpt lat="44.47421" lon="6.54795">
        <ele>1676</ele>
        <time>2021-04-08T06:45:53Z</time>
      </trkpt>
      <trkpt lat="44.4742" lon="6.54795">
        <ele>1676</ele>
        <time>2021-04-08T06:45:54Z</time>
      </trkpt>
      <trkpt lat="44.47419" lon="6.54795">
        <ele>1676</ele>
        <time>2021-04-08T06:45:55Z</time>
      </trkpt>
      <trkpt lat="44.47417" lon="6.54794">
        <ele>1676</ele>
        <time>2021-04-08T06:45:56Z</time>
      </trkpt>
      <trkpt lat="44.47416" lon="6.54794">
        <ele>1675</ele>
        <time>2021-04-08T06:45:57Z</time>
      </trkpt>
      <trkpt lat="44.47415" lon="6.54794">
        <ele>1675</ele>
        <time>2021-04-08T06:45:58Z</time>
      </trkpt>
      <trkpt lat="44.47415" lon="6.54795">
        <ele>1675</ele>
        <time>2021-04-08T06:45:59Z</time>
      </trkpt>
      <trkpt lat="44.47414" lon="6.54796">
        <ele>1675</ele>
        <time>2021-04-08T06:46:00Z</time>
      </trkpt>
      <trkpt lat="44.47413" lon="6.54796">
        <ele>1675</ele>
        <time>2021-04-08T06:46:01Z</time>
      </trkpt>
      <trkpt lat="44.47412" lon="6.54797">
        <ele>1675</ele>
        <time>2021-04-08T06:46:02Z</time>
      </trkpt>
      <trkpt lat="44.4741" lon="6.54797">
        <ele>1675</ele>
        <time>2021-04-08T06:46:03Z</time>
      </trkpt>
      <trkpt lat="44.4741" lon="6.54798">
        <ele>1674</ele>
        <time>2021-04-08T06:46:04Z</time>
      </trkpt>
      <trkpt lat="44.47409" lon="6.54799">
        <ele>1674</ele>
        <time>2021-04-08T06:46:05Z</time>
      </trkpt>
      <trkpt lat="44.47408" lon="6.548">
        <ele>1674</ele>
        <time>2021-04-08T06:46:06Z</time>
      </trkpt>
      <trkpt lat="44.47407" lon="6.548">
        <ele>1674</ele>
        <time>2021-04-08T06:46:07Z</time>
      </trkpt>
      <trkpt lat="44.47406" lon="6.548">
        <ele>1673</ele>
        <time>2021-04-08T06:46:08Z</time>
      </trkpt>
      <trkpt lat="44.47405" lon="6.548">
        <ele>1673</ele>
        <time>2021-04-08T06:46:09Z</time>
      </trkpt>
      <trkpt lat="44.47403" lon="6.548">
        <ele>1673</ele>
        <time>2021-04-08T06:46:10Z</time>
      </trkpt>
      <trkpt lat="44.47402" lon="6.548">
        <ele>1672</ele>
        <time>2021-04-08T06:46:11Z</time>
      </trkpt>
      <trkpt lat="44.47401" lon="6.54799">
        <ele>1672</ele>
        <time>2021-04-08T06:46:12Z</time>
      </trkpt>
      <trkpt lat="44.47399" lon="6.54799">
        <ele>1672</ele>
        <time>2021-04-08T06:46:13Z</time>
      </trkpt>
      <trkpt lat="44.47398" lon="6.54799">
        <ele>1672</ele>
        <time>2021-04-08T06:46:14Z</time>
      </trkpt>
      <trkpt lat="44.47398" lon="6.54798">
        <ele>1672</ele>
        <time>2021-04-08T06:46:15Z</time>
      </trkpt>
      <trkpt lat="44.47396" lon="6.54799">
        <ele>1672</ele>
        <time>2021-04-08T06:46:16Z</time>
      </trkpt>
      <trkpt lat="44.47395" lon="6.54799">
        <ele>1671</ele>
        <time>2021-04-08T06:46:17Z</time>
      </trkpt>
      <trkpt lat="44.47394" lon="6.54799">
        <ele>1671</ele>
        <time>2021-04-08T06:46:18Z</time>
      </trkpt>
      <trkpt lat="44.47392" lon="6.54799">
        <ele>1671</ele>
        <time>2021-04-08T06:46:19Z</time>
      </trkpt>
      <trkpt lat="44.47392" lon="6.548">
        <ele>1671</ele>
        <time>2021-04-08T06:46:20Z</time>
      </trkpt>
      <trkpt lat="44.47391" lon="6.548">
        <ele>1671</ele>
        <time>2021-04-08T06:46:21Z</time>
      </trkpt>
      <trkpt lat="44.47389" lon="6.54799">
        <ele>1671</ele>
        <time>2021-04-08T06:46:22Z</time>
      </trkpt>
      <trkpt lat="44.47388" lon="6.54799">
        <ele>1671</ele>
        <time>2021-04-08T06:46:23Z</time>
      </trkpt>
      <trkpt lat="44.47387" lon="6.548">
        <ele>1671</ele>
        <time>2021-04-08T06:46:24Z</time>
      </trkpt>
      <trkpt lat="44.47386" lon="6.548">
        <ele>1671</ele>
        <time>2021-04-08T06:46:25Z</time>
      </trkpt>
      <trkpt lat="44.47385" lon="6.54799">
        <ele>1671</ele>
        <time>2021-04-08T06:46:26Z</time>
      </trkpt>
      <trkpt lat="44.47383" lon="6.54799">
        <ele>1671</ele>
        <time>2021-04-08T06:46:27Z</time>
      </trkpt>
      <trkpt lat="44.47382" lon="6.548">
        <ele>1671</ele>
        <time>2021-04-08T06:46:28Z</time>
      </trkpt>
      <trkpt lat="44.47381" lon="6.548">
        <ele>1671</ele>
        <time>2021-04-08T06:46:29Z</time>
      </trkpt>
      <trkpt lat="44.4738" lon="6.54801">
        <ele>1670</ele>
        <time>2021-04-08T06:46:30Z</time>
      </trkpt>
      <trkpt lat="44.47379" lon="6.54801">
        <ele>1670</ele>
        <time>2021-04-08T06:46:31Z</time>
      </trkpt>
      <trkpt lat="44.47378" lon="6.54801">
        <ele>1670</ele>
        <time>2021-04-08T06:46:32Z</time>
      </trkpt>
      <trkpt lat="44.47376" lon="6.54801">
        <ele>1670</ele>
        <time>2021-04-08T06:46:33Z</time>
      </trkpt>
      <trkpt lat="44.47375" lon="6.548">
        <ele>1670</ele>
        <time>2021-04-08T06:46:34Z</time>
      </trkpt>
      <trkpt lat="44.47374" lon="6.548">
        <ele>1670</ele>
        <time>2021-04-08T06:46:35Z</time>
      </trkpt>
      <trkpt lat="44.47373" lon="6.54799">
        <ele>1670</ele>
        <time>2021-04-08T06:46:36Z</time>
      </trkpt>
      <trkpt lat="44.47371" lon="6.54799">
        <ele>1670</ele>
        <time>2021-04-08T06:46:37Z</time>
      </trkpt>
      <trkpt lat="44.4737" lon="6.54799">
        <ele>1670</ele>
        <time>2021-04-08T06:46:38Z</time>
      </trkpt>
      <trkpt lat="44.47369" lon="6.54799">
        <ele>1670</ele>
        <time>2021-04-08T06:46:39Z</time>
      </trkpt>
      <trkpt lat="44.47368" lon="6.54799">
        <ele>1670</ele>
        <time>2021-04-08T06:46:40Z</time>
      </trkpt>
      <trkpt lat="44.47367" lon="6.54799">
        <ele>1670</ele>
        <time>2021-04-08T06:46:41Z</time>
      </trkpt>
      <trkpt lat="44.47366" lon="6.548">
        <ele>1670</ele>
        <time>2021-04-08T06:46:42Z</time>
      </trkpt>
      <trkpt lat="44.47365" lon="6.54799">
        <ele>1671</ele>
        <time>2021-04-08T06:46:43Z</time>
      </trkpt>
      <trkpt lat="44.47364" lon="6.548">
        <ele>1671</ele>
        <time>2021-04-08T06:46:44Z</time>
      </trkpt>
      <trkpt lat="44.47362" lon="6.548">
        <ele>1671</ele>
        <time>2021-04-08T06:46:45Z</time>
      </trkpt>
      <trkpt lat="44.47362" lon="6.54799">
        <ele>1671</ele>
        <time>2021-04-08T06:46:46Z</time>
      </trkpt>
      <trkpt lat="44.4736" lon="6.54799">
        <ele>1672</ele>
        <time>2021-04-08T06:46:47Z</time>
      </trkpt>
      <trkpt lat="44.47359" lon="6.54798">
        <ele>1673</ele>
        <time>2021-04-08T06:46:48Z</time>
      </trkpt>
      <trkpt lat="44.47358" lon="6.54797">
        <ele>1673</ele>
        <time>2021-04-08T06:46:49Z</time>
      </trkpt>
      <trkpt lat="44.47357" lon="6.54797">
        <ele>1673</ele>
        <time>2021-04-08T06:46:50Z</time>
      </trkpt>
      <trkpt lat="44.47357" lon="6.54797">
        <ele>1674</ele>
        <time>2021-04-08T06:46:51Z</time>
      </trkpt>
      <trkpt lat="44.47356" lon="6.54797">
        <ele>1674</ele>
        <time>2021-04-08T06:46:52Z</time>
      </trkpt>
      <trkpt lat="44.47355" lon="6.54797">
        <ele>1675</ele>
        <time>2021-04-08T06:46:53Z</time>
      </trkpt>
      <trkpt lat="44.47354" lon="6.54797">
        <ele>1675</ele>
        <time>2021-04-08T06:46:54Z</time>
      </trkpt>
      <trkpt lat="44.47353" lon="6.54797">
        <ele>1675</ele>
        <time>2021-04-08T06:46:55Z</time>
      </trkpt>
      <trkpt lat="44.47351" lon="6.54796">
        <ele>1676</ele>
        <time>2021-04-08T06:46:56Z</time>
      </trkpt>
      <trkpt lat="44.4735" lon="6.54796">
        <ele>1676</ele>
        <time>2021-04-08T06:46:57Z</time>
      </trkpt>
      <trkpt lat="44.4735" lon="6.54796">
        <ele>1676</ele>
        <time>2021-04-08T06:46:58Z</time>
      </trkpt>
      <trkpt lat="44.47349" lon="6.54795">
        <ele>1677</ele>
        <time>2021-04-08T06:46:59Z</time>
      </trkpt>
      <trkpt lat="44.47348" lon="6.54795">
        <ele>1677</ele>
        <time>2021-04-08T06:47:00Z</time>
      </trkpt>
      <trkpt lat="44.47347" lon="6.54794">
        <ele>1677</ele>
        <time>2021-04-08T06:47:01Z</time>
      </trkpt>
      <trkpt lat="44.47345" lon="6.54794">
        <ele>1677</ele>
        <time>2021-04-08T06:47:02Z</time>
      </trkpt>
      <trkpt lat="44.47345" lon="6.54794">
        <ele>1677</ele>
        <time>2021-04-08T06:47:03Z</time>
      </trkpt>
      <trkpt lat="44.47344" lon="6.54793">
        <ele>1677</ele>
        <time>2021-04-08T06:47:04Z</time>
      </trkpt>
      <trkpt lat="44.47344" lon="6.54792">
        <ele>1677</ele>
        <time>2021-04-08T06:47:05Z</time>
      </trkpt>
      <trkpt lat="44.47343" lon="6.54791">
        <ele>1678</ele>
        <time>2021-04-08T06:47:06Z</time>
      </trkpt>
      <trkpt lat="44.47341" lon="6.54791">
        <ele>1678</ele>
        <time>2021-04-08T06:47:07Z</time>
      </trkpt>
      <trkpt lat="44.4734" lon="6.54791">
        <ele>1678</ele>
        <time>2021-04-08T06:47:08Z</time>
      </trkpt>
      <trkpt lat="44.47339" lon="6.54791">
        <ele>1678</ele>
        <time>2021-04-08T06:47:09Z</time>
      </trkpt>
      <trkpt lat="44.47339" lon="6.5479">
        <ele>1678</ele>
        <time>2021-04-08T06:47:10Z</time>
      </trkpt>
      <trkpt lat="44.47338" lon="6.5479">
        <ele>1678</ele>
        <time>2021-04-08T06:47:11Z</time>
      </trkpt>
      <trkpt lat="44.47337" lon="6.54789">
        <ele>1678</ele>
        <time>2021-04-08T06:47:12Z</time>
      </trkpt>
      <trkpt lat="44.47336" lon="6.54788">
        <ele>1678</ele>
        <time>2021-04-08T06:47:13Z</time>
      </trkpt>
      <trkpt lat="44.47335" lon="6.54788">
        <ele>1678</ele>
        <time>2021-04-08T06:47:14Z</time>
      </trkpt>
      <trkpt lat="44.47335" lon="6.54787">
        <ele>1678</ele>
        <time>2021-04-08T06:47:15Z</time>
      </trkpt>
      <trkpt lat="44.47334" lon="6.54787">
        <ele>1678</ele>
        <time>2021-04-08T06:47:16Z</time>
      </trkpt>
      <trkpt lat="44.47333" lon="6.54786">
        <ele>1679</ele>
        <time>2021-04-08T06:47:17Z</time>
      </trkpt>
      <trkpt lat="44.47332" lon="6.54783">
        <ele>1680</ele>
        <time>2021-04-08T06:47:18Z</time>
      </trkpt>
      <trkpt lat="44.47331" lon="6.54781">
        <ele>1680</ele>
        <time>2021-04-08T06:47:19Z</time>
      </trkpt>
      <trkpt lat="44.4733" lon="6.5478">
        <ele>1681</ele>
        <time>2021-04-08T06:47:20Z</time>
      </trkpt>
      <trkpt lat="44.4733" lon="6.5478">
        <ele>1681</ele>
        <time>2021-04-08T06:47:21Z</time>
      </trkpt>
      <trkpt lat="44.4733" lon="6.54779">
        <ele>1681</ele>
        <time>2021-04-08T06:47:22Z</time>
      </trkpt>
      <trkpt lat="44.4733" lon="6.5478">
        <ele>1681</ele>
        <time>2021-04-08T06:47:23Z</time>
      </trkpt>
      <trkpt lat="44.47329" lon="6.5478">
        <ele>1681</ele>
        <time>2021-04-08T06:47:24Z</time>
      </trkpt>
      <trkpt lat="44.47329" lon="6.5478">
        <ele>1681</ele>
        <time>2021-04-08T06:47:25Z</time>
      </trkpt>
      <trkpt lat="44.4733" lon="6.5478">
        <ele>1681</ele>
        <time>2021-04-08T06:47:26Z</time>
      </trkpt>
      <trkpt lat="44.4733" lon="6.5478">
        <ele>1681</ele>
        <time>2021-04-08T06:47:27Z</time>
      </trkpt>
      <trkpt lat="44.4733" lon="6.5478">
        <ele>1681</ele>
        <time>2021-04-08T06:47:28Z</time>
      </trkpt>
      <trkpt lat="44.4733" lon="6.5478">
        <ele>1681</ele>
        <time>2021-04-08T06:47:29Z</time>
      </trkpt>
      <trkpt lat="44.4733" lon="6.5478">
        <ele>1681</ele>
        <time>2021-04-08T06:47:30Z</time>
      </trkpt>
      <trkpt lat="44.4733" lon="6.54781">
        <ele>1681</ele>
        <time>2021-04-08T06:47:31Z</time>
      </trkpt>
      <trkpt lat="44.4733" lon="6.54781">
        <ele>1681</ele>
        <time>2021-04-08T06:47:32Z</time>
      </trkpt>
      <trkpt lat="44.4733" lon="6.54781">
        <ele>1681</ele>
        <time>2021-04-08T06:47:33Z</time>
      </trkpt>
      <trkpt lat="44.4733" lon="6.54781">
        <ele>1681</ele>
        <time>2021-04-08T06:47:34Z</time>
      </trkpt>
      <trkpt lat="44.4733" lon="6.54781">
        <ele>1681</ele>
        <time>2021-04-08T06:47:35Z</time>
      </trkpt>
      <trkpt lat="44.4733" lon="6.54781">
        <ele>1681</ele>
        <time>2021-04-08T06:47:36Z</time>
      </trkpt>
      <trkpt lat="44.4733" lon="6.54781">
        <ele>1681</ele>
        <time>2021-04-08T06:47:37Z</time>
      </trkpt>
      <trkpt lat="44.4733" lon="6.54781">
        <ele>1681</ele>
        <time>2021-04-08T06:47:38Z</time>
      </trkpt>
      <trkpt lat="44.4733" lon="6.54781">
        <ele>1681</ele>
        <time>2021-04-08T06:47:39Z</time>
      </trkpt>
      <trkpt lat="44.4733" lon="6.54781">
        <ele>1681</ele>
        <time>2021-04-08T06:47:40Z</time>
      </trkpt>
      <trkpt lat="44.4733" lon="6.54781">
        <ele>1681</ele>
        <time>2021-04-08T06:47:41Z</time>
      </trkpt>
      <trkpt lat="44.4733" lon="6.54781">
        <ele>1681</ele>
        <time>2021-04-08T06:47:42Z</time>
      </trkpt>
      <trkpt lat="44.4733" lon="6.54781">
        <ele>1681</ele>
        <time>2021-04-08T06:47:43Z</time>
      </trkpt>
      <trkpt lat="44.4733" lon="6.54781">
        <ele>1681</ele>
        <time>2021-04-08T06:47:44Z</time>
      </trkpt>
      <trkpt lat="44.4733" lon="6.54781">
        <ele>1681</ele>
        <time>2021-04-08T06:47:45Z</time>
      </trkpt>
      <trkpt lat="44.4733" lon="6.54781">
        <ele>1682</ele>
        <time>2021-04-08T06:47:46Z</time>
      </trkpt>
      <trkpt lat="44.4733" lon="6.54781">
        <ele>1682</ele>
        <time>2021-04-08T06:47:47Z</time>
      </trkpt>
      <trkpt lat="44.4733" lon="6.54781">
        <ele>1682</ele>
        <time>2021-04-08T06:47:48Z</time>
      </trkpt>
      <trkpt lat="44.4733" lon="6.54781">
        <ele>1682</ele>
        <time>2021-04-08T06:47:49Z</time>
      </trkpt>
      <trkpt lat="44.4733" lon="6.54781">
        <ele>1682</ele>
        <time>2021-04-08T06:47:50Z</time>
      </trkpt>
      <trkpt lat="44.4733" lon="6.54781">
        <ele>1682</ele>
        <time>2021-04-08T06:47:51Z</time>
      </trkpt>
      <trkpt lat="44.4733" lon="6.54781">
        <ele>1682</ele>
        <time>2021-04-08T06:47:52Z</time>
      </trkpt>
      <trkpt lat="44.4733" lon="6.54781">
        <ele>1682</ele>
        <time>2021-04-08T06:47:53Z</time>
      </trkpt>
      <trkpt lat="44.4733" lon="6.54781">
        <ele>1682</ele>
        <time>2021-04-08T06:47:54Z</time>
      </trkpt>
      <trkpt lat="44.4733" lon="6.54781">
        <ele>1682</ele>
        <time>2021-04-08T06:47:55Z</time>
      </trkpt>
      <trkpt lat="44.4733" lon="6.54781">
        <ele>1682</ele>
        <time>2021-04-08T06:47:56Z</time>
      </trkpt>
      <trkpt lat="44.4733" lon="6.54781">
        <ele>1682</ele>
        <time>2021-04-08T06:47:57Z</time>
      </trkpt>
      <trkpt lat="44.4733" lon="6.54781">
        <ele>1682</ele>
        <time>2021-04-08T06:47:58Z</time>
      </trkpt>
      <trkpt lat="44.4733" lon="6.54781">
        <ele>1682</ele>
        <time>2021-04-08T06:47:59Z</time>
      </trkpt>
      <trkpt lat="44.4733" lon="6.54781">
        <ele>1682</ele>
        <time>2021-04-08T06:48:00Z</time>
      </trkpt>
      <trkpt lat="44.4733" lon="6.54781">
        <ele>1682</ele>
        <time>2021-04-08T06:48:01Z</time>
      </trkpt>
      <trkpt lat="44.4733" lon="6.54781">
        <ele>1682</ele>
        <time>2021-04-08T06:48:02Z</time>
      </trkpt>
      <trkpt lat="44.4733" lon="6.54781">
        <ele>1682</ele>
        <time>2021-04-08T06:48:03Z</time>
      </trkpt>
      <trkpt lat="44.4733" lon="6.54781">
        <ele>1682</ele>
        <time>2021-04-08T06:48:04Z</time>
      </trkpt>
      <trkpt lat="44.4733" lon="6.54781">
        <ele>1682</ele>
        <time>2021-04-08T06:48:05Z</time>
      </trkpt>
      <trkpt lat="44.4733" lon="6.54781">
        <ele>1682</ele>
        <time>2021-04-08T06:48:06Z</time>
      </trkpt>
      <trkpt lat="44.4733" lon="6.54781">
        <ele>1682</ele>
        <time>2021-04-08T06:48:07Z</time>
      </trkpt>
      <trkpt lat="44.4733" lon="6.54781">
        <ele>1682</ele>
        <time>2021-04-08T06:48:08Z</time>
      </trkpt>
      <trkpt lat="44.4733" lon="6.54781">
        <ele>1682</ele>
        <time>2021-04-08T06:48:09Z</time>
      </trkpt>
      <trkpt lat="44.4733" lon="6.54781">
        <ele>1682</ele>
        <time>2021-04-08T06:48:10Z</time>
      </trkpt>
      <trkpt lat="44.4733" lon="6.54781">
        <ele>1682</ele>
        <time>2021-04-08T06:48:11Z</time>
      </trkpt>
      <trkpt lat="44.4733" lon="6.54781">
        <ele>1682</ele>
        <time>2021-04-08T06:48:12Z</time>
      </trkpt>
      <trkpt lat="44.4733" lon="6.54781">
        <ele>1682</ele>
        <time>2021-04-08T06:48:13Z</time>
      </trkpt>
      <trkpt lat="44.4733" lon="6.54781">
        <ele>1682</ele>
        <time>2021-04-08T06:48:14Z</time>
      </trkpt>
      <trkpt lat="44.4733" lon="6.54781">
        <ele>1682</ele>
        <time>2021-04-08T06:48:15Z</time>
      </trkpt>
      <trkpt lat="44.4733" lon="6.54781">
        <ele>1682</ele>
        <time>2021-04-08T06:48:16Z</time>
      </trkpt>
      <trkpt lat="44.4733" lon="6.54781">
        <ele>1682</ele>
        <time>2021-04-08T06:48:17Z</time>
      </trkpt>
      <trkpt lat="44.4733" lon="6.54781">
        <ele>1682</ele>
        <time>2021-04-08T06:48:18Z</time>
      </trkpt>
      <trkpt lat="44.4733" lon="6.54781">
        <ele>1682</ele>
        <time>2021-04-08T06:48:19Z</time>
      </trkpt>
      <trkpt lat="44.4733" lon="6.54781">
        <ele>1682</ele>
        <time>2021-04-08T06:48:20Z</time>
      </trkpt>
      <trkpt lat="44.4733" lon="6.54781">
        <ele>1682</ele>
        <time>2021-04-08T06:48:21Z</time>
      </trkpt>
      <trkpt lat="44.4733" lon="6.54781">
        <ele>1682</ele>
        <time>2021-04-08T06:48:22Z</time>
      </trkpt>
      <trkpt lat="44.4733" lon="6.54781">
        <ele>1682</ele>
        <time>2021-04-08T06:48:23Z</time>
      </trkpt>
      <trkpt lat="44.4733" lon="6.54781">
        <ele>1682</ele>
        <time>2021-04-08T06:48:24Z</time>
      </trkpt>
      <trkpt lat="44.4733" lon="6.54781">
        <ele>1682</ele>
        <time>2021-04-08T06:48:25Z</time>
      </trkpt>
      <trkpt lat="44.4733" lon="6.54781">
        <ele>1682</ele>
        <time>2021-04-08T06:48:26Z</time>
      </trkpt>
      <trkpt lat="44.4733" lon="6.54781">
        <ele>1682</ele>
        <time>2021-04-08T06:48:27Z</time>
      </trkpt>
      <trkpt lat="44.4733" lon="6.54781">
        <ele>1682</ele>
        <time>2021-04-08T06:48:28Z</time>
      </trkpt>
      <trkpt lat="44.4733" lon="6.54781">
        <ele>1682</ele>
        <time>2021-04-08T06:48:29Z</time>
      </trkpt>
      <trkpt lat="44.4733" lon="6.54781">
        <ele>1682</ele>
        <time>2021-04-08T06:48:30Z</time>
      </trkpt>
      <trkpt lat="44.4733" lon="6.54781">
        <ele>1682</ele>
        <time>2021-04-08T06:48:31Z</time>
      </trkpt>
      <trkpt lat="44.4733" lon="6.54781">
        <ele>1682</ele>
        <time>2021-04-08T06:48:32Z</time>
      </trkpt>
      <trkpt lat="44.4733" lon="6.54781">
        <ele>1682</ele>
        <time>2021-04-08T06:48:33Z</time>
      </trkpt>
      <trkpt lat="44.4733" lon="6.54781">
        <ele>1682</ele>
        <time>2021-04-08T06:48:34Z</time>
      </trkpt>
      <trkpt lat="44.4733" lon="6.54781">
        <ele>1682</ele>
        <time>2021-04-08T06:48:35Z</time>
      </trkpt>
      <trkpt lat="44.4733" lon="6.54781">
        <ele>1682</ele>
        <time>2021-04-08T06:48:36Z</time>
      </trkpt>
      <trkpt lat="44.4733" lon="6.54781">
        <ele>1682</ele>
        <time>2021-04-08T06:48:37Z</time>
      </trkpt>
      <trkpt lat="44.4733" lon="6.54781">
        <ele>1682</ele>
        <time>2021-04-08T06:48:38Z</time>
      </trkpt>
      <trkpt lat="44.4733" lon="6.54781">
        <ele>1682</ele>
        <time>2021-04-08T06:48:39Z</time>
      </trkpt>
      <trkpt lat="44.4733" lon="6.54781">
        <ele>1682</ele>
        <time>2021-04-08T06:48:40Z</time>
      </trkpt>
      <trkpt lat="44.4733" lon="6.54781">
        <ele>1682</ele>
        <time>2021-04-08T06:48:41Z</time>
      </trkpt>
      <trkpt lat="44.4733" lon="6.54781">
        <ele>1682</ele>
        <time>2021-04-08T06:48:42Z</time>
      </trkpt>
      <trkpt lat="44.4733" lon="6.54781">
        <ele>1682</ele>
        <time>2021-04-08T06:48:43Z</time>
      </trkpt>
      <trkpt lat="44.4733" lon="6.54781">
        <ele>1682</ele>
        <time>2021-04-08T06:48:44Z</time>
      </trkpt>
      <trkpt lat="44.4733" lon="6.54781">
        <ele>1682</ele>
        <time>2021-04-08T06:48:45Z</time>
      </trkpt>
      <trkpt lat="44.4733" lon="6.54781">
        <ele>1682</ele>
        <time>2021-04-08T06:48:46Z</time>
      </trkpt>
      <trkpt lat="44.4733" lon="6.54781">
        <ele>1682</ele>
        <time>2021-04-08T06:48:47Z</time>
      </trkpt>
      <trkpt lat="44.4733" lon="6.54781">
        <ele>1682</ele>
        <time>2021-04-08T06:48:48Z</time>
      </trkpt>
      <trkpt lat="44.4733" lon="6.54781">
        <ele>1682</ele>
        <time>2021-04-08T06:48:49Z</time>
      </trkpt>
      <trkpt lat="44.4733" lon="6.54781">
        <ele>1682</ele>
        <time>2021-04-08T06:48:50Z</time>
      </trkpt>
      <trkpt lat="44.4733" lon="6.54781">
        <ele>1682</ele>
        <time>2021-04-08T06:48:51Z</time>
      </trkpt>
      <trkpt lat="44.4733" lon="6.54781">
        <ele>1682</ele>
        <time>2021-04-08T06:48:52Z</time>
      </trkpt>
      <trkpt lat="44.4733" lon="6.54781">
        <ele>1682</ele>
        <time>2021-04-08T06:48:53Z</time>
      </trkpt>
      <trkpt lat="44.4733" lon="6.54781">
        <ele>1682</ele>
        <time>2021-04-08T06:48:54Z</time>
      </trkpt>
      <trkpt lat="44.4733" lon="6.54781">
        <ele>1682</ele>
        <time>2021-04-08T06:48:55Z</time>
      </trkpt>
      <trkpt lat="44.4733" lon="6.54781">
        <ele>1682</ele>
        <time>2021-04-08T06:48:56Z</time>
      </trkpt>
      <trkpt lat="44.4733" lon="6.54781">
        <ele>1682</ele>
        <time>2021-04-08T06:48:57Z</time>
      </trkpt>
      <trkpt lat="44.4733" lon="6.54781">
        <ele>1682</ele>
        <time>2021-04-08T06:48:58Z</time>
      </trkpt>
      <trkpt lat="44.4733" lon="6.54781">
        <ele>1682</ele>
        <time>2021-04-08T06:48:59Z</time>
      </trkpt>
      <trkpt lat="44.4733" lon="6.54781">
        <ele>1682</ele>
        <time>2021-04-08T06:49:00Z</time>
      </trkpt>
      <trkpt lat="44.4733" lon="6.54781">
        <ele>1682</ele>
        <time>2021-04-08T06:49:01Z</time>
      </trkpt>
      <trkpt lat="44.4733" lon="6.54781">
        <ele>1682</ele>
        <time>2021-04-08T06:49:02Z</time>
      </trkpt>
      <trkpt lat="44.4733" lon="6.54781">
        <ele>1682</ele>
        <time>2021-04-08T06:49:03Z</time>
      </trkpt>
      <trkpt lat="44.4733" lon="6.54781">
        <ele>1682</ele>
        <time>2021-04-08T06:49:04Z</time>
      </trkpt>
      <trkpt lat="44.4733" lon="6.54781">
        <ele>1682</ele>
        <time>2021-04-08T06:49:05Z</time>
      </trkpt>
      <trkpt lat="44.4733" lon="6.54781">
        <ele>1682</ele>
        <time>2021-04-08T06:49:06Z</time>
      </trkpt>
      <trkpt lat="44.4733" lon="6.54781">
        <ele>1682</ele>
        <time>2021-04-08T06:49:07Z</time>
      </trkpt>
      <trkpt lat="44.4733" lon="6.54781">
        <ele>1682</ele>
        <time>2021-04-08T06:49:08Z</time>
      </trkpt>
      <trkpt lat="44.4733" lon="6.54781">
        <ele>1682</ele>
        <time>2021-04-08T06:49:09Z</time>
      </trkpt>
      <trkpt lat="44.4733" lon="6.54781">
        <ele>1682</ele>
        <time>2021-04-08T06:49:10Z</time>
      </trkpt>
      <trkpt lat="44.4733" lon="6.54781">
        <ele>1682</ele>
        <time>2021-04-08T06:49:11Z</time>
      </trkpt>
      <trkpt lat="44.4733" lon="6.54781">
        <ele>1682</ele>
        <time>2021-04-08T06:49:12Z</time>
      </trkpt>
      <trkpt lat="44.4733" lon="6.54781">
        <ele>1682</ele>
        <time>2021-04-08T06:49:13Z</time>
      </trkpt>
      <trkpt lat="44.4733" lon="6.54781">
        <ele>1682</ele>
        <time>2021-04-08T06:49:14Z</time>
      </trkpt>
      <trkpt lat="44.4733" lon="6.54781">
        <ele>1682</ele>
        <time>2021-04-08T06:49:15Z</time>
      </trkpt>
      <trkpt lat="44.4733" lon="6.54781">
        <ele>1682</ele>
        <time>2021-04-08T06:49:16Z</time>
      </trkpt>
      <trkpt lat="44.4733" lon="6.54781">
        <ele>1682</ele>
        <time>2021-04-08T06:49:17Z</time>
      </trkpt>
      <trkpt lat="44.47324" lon="6.54779">
        <ele>1682</ele>
        <time>2021-04-08T06:49:18Z</time>
      </trkpt>
      <trkpt lat="44.47323" lon="6.54778">
        <ele>1682</ele>
        <time>2021-04-08T06:49:19Z</time>
      </trkpt>
      <trkpt lat="44.47322" lon="6.54777">
        <ele>1682</ele>
        <time>2021-04-08T06:49:20Z</time>
      </trkpt>
      <trkpt lat="44.47321" lon="6.54777">
        <ele>1682</ele>
        <time>2021-04-08T06:49:21Z</time>
      </trkpt>
      <trkpt lat="44.47321" lon="6.54776">
        <ele>1682</ele>
        <time>2021-04-08T06:49:22Z</time>
      </trkpt>
      <trkpt lat="44.4732" lon="6.54774">
        <ele>1681</ele>
        <time>2021-04-08T06:49:23Z</time>
      </trkpt>
      <trkpt lat="44.47319" lon="6.54774">
        <ele>1681</ele>
        <time>2021-04-08T06:49:24Z</time>
      </trkpt>
      <trkpt lat="44.47319" lon="6.54773">
        <ele>1681</ele>
        <time>2021-04-08T06:49:25Z</time>
      </trkpt>
      <trkpt lat="44.47318" lon="6.54772">
        <ele>1681</ele>
        <time>2021-04-08T06:49:26Z</time>
      </trkpt>
      <trkpt lat="44.47318" lon="6.54771">
        <ele>1681</ele>
        <time>2021-04-08T06:49:27Z</time>
      </trkpt>
      <trkpt lat="44.47317" lon="6.54771">
        <ele>1681</ele>
        <time>2021-04-08T06:49:28Z</time>
      </trkpt>
      <trkpt lat="44.47317" lon="6.5477">
        <ele>1681</ele>
        <time>2021-04-08T06:49:29Z</time>
      </trkpt>
      <trkpt lat="44.47316" lon="6.54769">
        <ele>1681</ele>
        <time>2021-04-08T06:49:30Z</time>
      </trkpt>
      <trkpt lat="44.47315" lon="6.54768">
        <ele>1681</ele>
        <time>2021-04-08T06:49:31Z</time>
      </trkpt>
      <trkpt lat="44.47315" lon="6.54767">
        <ele>1681</ele>
        <time>2021-04-08T06:49:32Z</time>
      </trkpt>
      <trkpt lat="44.47314" lon="6.54766">
        <ele>1681</ele>
        <time>2021-04-08T06:49:33Z</time>
      </trkpt>
      <trkpt lat="44.47313" lon="6.54765">
        <ele>1681</ele>
        <time>2021-04-08T06:49:34Z</time>
      </trkpt>
      <trkpt lat="44.47313" lon="6.54765">
        <ele>1681</ele>
        <time>2021-04-08T06:49:35Z</time>
      </trkpt>
      <trkpt lat="44.47312" lon="6.54764">
        <ele>1681</ele>
        <time>2021-04-08T06:49:36Z</time>
      </trkpt>
      <trkpt lat="44.47311" lon="6.54762">
        <ele>1681</ele>
        <time>2021-04-08T06:49:37Z</time>
      </trkpt>
      <trkpt lat="44.47311" lon="6.54762">
        <ele>1681</ele>
        <time>2021-04-08T06:49:38Z</time>
      </trkpt>
      <trkpt lat="44.4731" lon="6.54761">
        <ele>1682</ele>
        <time>2021-04-08T06:49:39Z</time>
      </trkpt>
      <trkpt lat="44.47309" lon="6.5476">
        <ele>1682</ele>
        <time>2021-04-08T06:49:40Z</time>
      </trkpt>
      <trkpt lat="44.47309" lon="6.54759">
        <ele>1682</ele>
        <time>2021-04-08T06:49:41Z</time>
      </trkpt>
      <trkpt lat="44.47308" lon="6.54759">
        <ele>1682</ele>
        <time>2021-04-08T06:49:42Z</time>
      </trkpt>
      <trkpt lat="44.47308" lon="6.54759">
        <ele>1682</ele>
        <time>2021-04-08T06:49:43Z</time>
      </trkpt>
      <trkpt lat="44.47307" lon="6.54758">
        <ele>1682</ele>
        <time>2021-04-08T06:49:44Z</time>
      </trkpt>
      <trkpt lat="44.47306" lon="6.54758">
        <ele>1682</ele>
        <time>2021-04-08T06:49:45Z</time>
      </trkpt>
      <trkpt lat="44.47306" lon="6.54757">
        <ele>1682</ele>
        <time>2021-04-08T06:49:46Z</time>
      </trkpt>
      <trkpt lat="44.47305" lon="6.54756">
        <ele>1683</ele>
        <time>2021-04-08T06:49:47Z</time>
      </trkpt>
      <trkpt lat="44.47304" lon="6.54756">
        <ele>1683</ele>
        <time>2021-04-08T06:49:48Z</time>
      </trkpt>
      <trkpt lat="44.47304" lon="6.54756">
        <ele>1683</ele>
        <time>2021-04-08T06:49:49Z</time>
      </trkpt>
      <trkpt lat="44.47303" lon="6.54755">
        <ele>1683</ele>
        <time>2021-04-08T06:49:50Z</time>
      </trkpt>
      <trkpt lat="44.47303" lon="6.54754">
        <ele>1683</ele>
        <time>2021-04-08T06:49:51Z</time>
      </trkpt>
      <trkpt lat="44.47302" lon="6.54753">
        <ele>1684</ele>
        <time>2021-04-08T06:49:52Z</time>
      </trkpt>
      <trkpt lat="44.473" lon="6.54752">
        <ele>1684</ele>
        <time>2021-04-08T06:49:53Z</time>
      </trkpt>
      <trkpt lat="44.47299" lon="6.54752">
        <ele>1684</ele>
        <time>2021-04-08T06:49:54Z</time>
      </trkpt>
      <trkpt lat="44.47299" lon="6.54752">
        <ele>1684</ele>
        <time>2021-04-08T06:49:55Z</time>
      </trkpt>
      <trkpt lat="44.47298" lon="6.54752">
        <ele>1685</ele>
        <time>2021-04-08T06:49:56Z</time>
      </trkpt>
      <trkpt lat="44.47297" lon="6.54753">
        <ele>1685</ele>
        <time>2021-04-08T06:49:57Z</time>
      </trkpt>
      <trkpt lat="44.47297" lon="6.54752">
        <ele>1684</ele>
        <time>2021-04-08T06:49:58Z</time>
      </trkpt>
      <trkpt lat="44.47296" lon="6.54752">
        <ele>1684</ele>
        <time>2021-04-08T06:49:59Z</time>
      </trkpt>
      <trkpt lat="44.47296" lon="6.54752">
        <ele>1684</ele>
        <time>2021-04-08T06:50:00Z</time>
      </trkpt>
      <trkpt lat="44.47295" lon="6.54751">
        <ele>1684</ele>
        <time>2021-04-08T06:50:01Z</time>
      </trkpt>
      <trkpt lat="44.47294" lon="6.5475">
        <ele>1683</ele>
        <time>2021-04-08T06:50:02Z</time>
      </trkpt>
      <trkpt lat="44.47294" lon="6.54749">
        <ele>1683</ele>
        <time>2021-04-08T06:50:03Z</time>
      </trkpt>
      <trkpt lat="44.47293" lon="6.54749">
        <ele>1683</ele>
        <time>2021-04-08T06:50:04Z</time>
      </trkpt>
      <trkpt lat="44.47293" lon="6.54749">
        <ele>1683</ele>
        <time>2021-04-08T06:50:05Z</time>
      </trkpt>
      <trkpt lat="44.47292" lon="6.54748">
        <ele>1683</ele>
        <time>2021-04-08T06:50:06Z</time>
      </trkpt>
      <trkpt lat="44.47291" lon="6.54748">
        <ele>1683</ele>
        <time>2021-04-08T06:50:07Z</time>
      </trkpt>
      <trkpt lat="44.4729" lon="6.54748">
        <ele>1684</ele>
        <time>2021-04-08T06:50:08Z</time>
      </trkpt>
      <trkpt lat="44.47289" lon="6.54748">
        <ele>1684</ele>
        <time>2021-04-08T06:50:09Z</time>
      </trkpt>
      <trkpt lat="44.47288" lon="6.54747">
        <ele>1684</ele>
        <time>2021-04-08T06:50:10Z</time>
      </trkpt>
      <trkpt lat="44.47288" lon="6.54746">
        <ele>1684</ele>
        <time>2021-04-08T06:50:11Z</time>
      </trkpt>
      <trkpt lat="44.47287" lon="6.54746">
        <ele>1684</ele>
        <time>2021-04-08T06:50:12Z</time>
      </trkpt>
      <trkpt lat="44.47287" lon="6.54745">
        <ele>1684</ele>
        <time>2021-04-08T06:50:13Z</time>
      </trkpt>
      <trkpt lat="44.47285" lon="6.54745">
        <ele>1684</ele>
        <time>2021-04-08T06:50:14Z</time>
      </trkpt>
      <trkpt lat="44.47285" lon="6.54745">
        <ele>1684</ele>
        <time>2021-04-08T06:50:15Z</time>
      </trkpt>
      <trkpt lat="44.47284" lon="6.54745">
        <ele>1684</ele>
        <time>2021-04-08T06:50:16Z</time>
      </trkpt>
      <trkpt lat="44.47283" lon="6.54745">
        <ele>1684</ele>
        <time>2021-04-08T06:50:17Z</time>
      </trkpt>
      <trkpt lat="44.47282" lon="6.54745">
        <ele>1685</ele>
        <time>2021-04-08T06:50:18Z</time>
      </trkpt>
      <trkpt lat="44.47281" lon="6.54745">
        <ele>1685</ele>
        <time>2021-04-08T06:50:19Z</time>
      </trkpt>
      <trkpt lat="44.4728" lon="6.54745">
        <ele>1685</ele>
        <time>2021-04-08T06:50:20Z</time>
      </trkpt>
      <trkpt lat="44.47279" lon="6.54745">
        <ele>1685</ele>
        <time>2021-04-08T06:50:21Z</time>
      </trkpt>
      <trkpt lat="44.47278" lon="6.54745">
        <ele>1685</ele>
        <time>2021-04-08T06:50:22Z</time>
      </trkpt>
      <trkpt lat="44.47277" lon="6.54745">
        <ele>1685</ele>
        <time>2021-04-08T06:50:23Z</time>
      </trkpt>
      <trkpt lat="44.47276" lon="6.54746">
        <ele>1685</ele>
        <time>2021-04-08T06:50:24Z</time>
      </trkpt>
      <trkpt lat="44.47276" lon="6.54746">
        <ele>1685</ele>
        <time>2021-04-08T06:50:25Z</time>
      </trkpt>
      <trkpt lat="44.47275" lon="6.54747">
        <ele>1686</ele>
        <time>2021-04-08T06:50:26Z</time>
      </trkpt>
      <trkpt lat="44.47275" lon="6.54747">
        <ele>1686</ele>
        <time>2021-04-08T06:50:27Z</time>
      </trkpt>
      <trkpt lat="44.47274" lon="6.54748">
        <ele>1686</ele>
        <time>2021-04-08T06:50:28Z</time>
      </trkpt>
      <trkpt lat="44.47273" lon="6.54748">
        <ele>1686</ele>
        <time>2021-04-08T06:50:29Z</time>
      </trkpt>
      <trkpt lat="44.47272" lon="6.54749">
        <ele>1686</ele>
        <time>2021-04-08T06:50:30Z</time>
      </trkpt>
      <trkpt lat="44.47272" lon="6.5475">
        <ele>1686</ele>
        <time>2021-04-08T06:50:31Z</time>
      </trkpt>
      <trkpt lat="44.47272" lon="6.54751">
        <ele>1686</ele>
        <time>2021-04-08T06:50:32Z</time>
      </trkpt>
      <trkpt lat="44.47271" lon="6.54752">
        <ele>1686</ele>
        <time>2021-04-08T06:50:33Z</time>
      </trkpt>
      <trkpt lat="44.47271" lon="6.54752">
        <ele>1686</ele>
        <time>2021-04-08T06:50:34Z</time>
      </trkpt>
      <trkpt lat="44.47269" lon="6.54753">
        <ele>1687</ele>
        <time>2021-04-08T06:50:35Z</time>
      </trkpt>
      <trkpt lat="44.47269" lon="6.54754">
        <ele>1687</ele>
        <time>2021-04-08T06:50:36Z</time>
      </trkpt>
      <trkpt lat="44.47268" lon="6.54755">
        <ele>1687</ele>
        <time>2021-04-08T06:50:37Z</time>
      </trkpt>
      <trkpt lat="44.47267" lon="6.54756">
        <ele>1687</ele>
        <time>2021-04-08T06:50:38Z</time>
      </trkpt>
      <trkpt lat="44.47267" lon="6.54756">
        <ele>1688</ele>
        <time>2021-04-08T06:50:39Z</time>
      </trkpt>
      <trkpt lat="44.47266" lon="6.54757">
        <ele>1688</ele>
        <time>2021-04-08T06:50:40Z</time>
      </trkpt>
      <trkpt lat="44.47266" lon="6.54758">
        <ele>1688</ele>
        <time>2021-04-08T06:50:41Z</time>
      </trkpt>
      <trkpt lat="44.47266" lon="6.54759">
        <ele>1688</ele>
        <time>2021-04-08T06:50:42Z</time>
      </trkpt>
      <trkpt lat="44.47265" lon="6.54759">
        <ele>1688</ele>
        <time>2021-04-08T06:50:43Z</time>
      </trkpt>
      <trkpt lat="44.47265" lon="6.54759">
        <ele>1689</ele>
        <time>2021-04-08T06:50:44Z</time>
      </trkpt>
      <trkpt lat="44.47264" lon="6.5476">
        <ele>1689</ele>
        <time>2021-04-08T06:50:45Z</time>
      </trkpt>
      <trkpt lat="44.47263" lon="6.54761">
        <ele>1690</ele>
        <time>2021-04-08T06:50:46Z</time>
      </trkpt>
      <trkpt lat="44.47263" lon="6.54762">
        <ele>1690</ele>
        <time>2021-04-08T06:50:47Z</time>
      </trkpt>
      <trkpt lat="44.47262" lon="6.54762">
        <ele>1690</ele>
        <time>2021-04-08T06:50:48Z</time>
      </trkpt>
      <trkpt lat="44.47261" lon="6.54763">
        <ele>1690</ele>
        <time>2021-04-08T06:50:49Z</time>
      </trkpt>
      <trkpt lat="44.47261" lon="6.54764">
        <ele>1691</ele>
        <time>2021-04-08T06:50:50Z</time>
      </trkpt>
      <trkpt lat="44.4726" lon="6.54764">
        <ele>1691</ele>
        <time>2021-04-08T06:50:51Z</time>
      </trkpt>
      <trkpt lat="44.47259" lon="6.54765">
        <ele>1692</ele>
        <time>2021-04-08T06:50:52Z</time>
      </trkpt>
      <trkpt lat="44.47259" lon="6.54765">
        <ele>1692</ele>
        <time>2021-04-08T06:50:53Z</time>
      </trkpt>
      <trkpt lat="44.47258" lon="6.54766">
        <ele>1692</ele>
        <time>2021-04-08T06:50:54Z</time>
      </trkpt>
      <trkpt lat="44.47258" lon="6.54767">
        <ele>1692</ele>
        <time>2021-04-08T06:50:55Z</time>
      </trkpt>
      <trkpt lat="44.47257" lon="6.54767">
        <ele>1693</ele>
        <time>2021-04-08T06:50:56Z</time>
      </trkpt>
      <trkpt lat="44.47257" lon="6.54767">
        <ele>1693</ele>
        <time>2021-04-08T06:50:57Z</time>
      </trkpt>
      <trkpt lat="44.47256" lon="6.54767">
        <ele>1693</ele>
        <time>2021-04-08T06:50:58Z</time>
      </trkpt>
      <trkpt lat="44.47256" lon="6.54767">
        <ele>1693</ele>
        <time>2021-04-08T06:50:59Z</time>
      </trkpt>
      <trkpt lat="44.47255" lon="6.54767">
        <ele>1693</ele>
        <time>2021-04-08T06:51:00Z</time>
      </trkpt>
      <trkpt lat="44.47255" lon="6.54768">
        <ele>1694</ele>
        <time>2021-04-08T06:51:01Z</time>
      </trkpt>
      <trkpt lat="44.47254" lon="6.54768">
        <ele>1694</ele>
        <time>2021-04-08T06:51:02Z</time>
      </trkpt>
      <trkpt lat="44.47253" lon="6.54768">
        <ele>1694</ele>
        <time>2021-04-08T06:51:03Z</time>
      </trkpt>
      <trkpt lat="44.47252" lon="6.54768">
        <ele>1694</ele>
        <time>2021-04-08T06:51:04Z</time>
      </trkpt>
      <trkpt lat="44.47252" lon="6.54769">
        <ele>1694</ele>
        <time>2021-04-08T06:51:05Z</time>
      </trkpt>
      <trkpt lat="44.47251" lon="6.54769">
        <ele>1694</ele>
        <time>2021-04-08T06:51:06Z</time>
      </trkpt>
      <trkpt lat="44.4725" lon="6.5477">
        <ele>1694</ele>
        <time>2021-04-08T06:51:07Z</time>
      </trkpt>
      <trkpt lat="44.47249" lon="6.5477">
        <ele>1695</ele>
        <time>2021-04-08T06:51:08Z</time>
      </trkpt>
      <trkpt lat="44.47248" lon="6.54771">
        <ele>1695</ele>
        <time>2021-04-08T06:51:09Z</time>
      </trkpt>
      <trkpt lat="44.47248" lon="6.54771">
        <ele>1695</ele>
        <time>2021-04-08T06:51:10Z</time>
      </trkpt>
      <trkpt lat="44.47247" lon="6.54772">
        <ele>1695</ele>
        <time>2021-04-08T06:51:11Z</time>
      </trkpt>
      <trkpt lat="44.47246" lon="6.54772">
        <ele>1695</ele>
        <time>2021-04-08T06:51:12Z</time>
      </trkpt>
      <trkpt lat="44.47246" lon="6.54773">
        <ele>1695</ele>
        <time>2021-04-08T06:51:13Z</time>
      </trkpt>
      <trkpt lat="44.47245" lon="6.54774">
        <ele>1695</ele>
        <time>2021-04-08T06:51:14Z</time>
      </trkpt>
      <trkpt lat="44.47245" lon="6.54775">
        <ele>1695</ele>
        <time>2021-04-08T06:51:15Z</time>
      </trkpt>
      <trkpt lat="44.47244" lon="6.54775">
        <ele>1695</ele>
        <time>2021-04-08T06:51:16Z</time>
      </trkpt>
      <trkpt lat="44.47243" lon="6.54776">
        <ele>1695</ele>
        <time>2021-04-08T06:51:17Z</time>
      </trkpt>
      <trkpt lat="44.47242" lon="6.54777">
        <ele>1695</ele>
        <time>2021-04-08T06:51:18Z</time>
      </trkpt>
      <trkpt lat="44.47242" lon="6.54777">
        <ele>1695</ele>
        <time>2021-04-08T06:51:19Z</time>
      </trkpt>
      <trkpt lat="44.47241" lon="6.54778">
        <ele>1696</ele>
        <time>2021-04-08T06:51:20Z</time>
      </trkpt>
      <trkpt lat="44.47241" lon="6.54779">
        <ele>1696</ele>
        <time>2021-04-08T06:51:21Z</time>
      </trkpt>
      <trkpt lat="44.4724" lon="6.54779">
        <ele>1696</ele>
        <time>2021-04-08T06:51:22Z</time>
      </trkpt>
      <trkpt lat="44.4724" lon="6.5478">
        <ele>1696</ele>
        <time>2021-04-08T06:51:23Z</time>
      </trkpt>
      <trkpt lat="44.47239" lon="6.5478">
        <ele>1696</ele>
        <time>2021-04-08T06:51:24Z</time>
      </trkpt>
      <trkpt lat="44.47238" lon="6.5478">
        <ele>1696</ele>
        <time>2021-04-08T06:51:25Z</time>
      </trkpt>
      <trkpt lat="44.47237" lon="6.5478">
        <ele>1696</ele>
        <time>2021-04-08T06:51:26Z</time>
      </trkpt>
      <trkpt lat="44.47236" lon="6.5478">
        <ele>1695</ele>
        <time>2021-04-08T06:51:27Z</time>
      </trkpt>
      <trkpt lat="44.47235" lon="6.5478">
        <ele>1695</ele>
        <time>2021-04-08T06:51:28Z</time>
      </trkpt>
      <trkpt lat="44.47234" lon="6.5478">
        <ele>1695</ele>
        <time>2021-04-08T06:51:29Z</time>
      </trkpt>
      <trkpt lat="44.47233" lon="6.5478">
        <ele>1695</ele>
        <time>2021-04-08T06:51:30Z</time>
      </trkpt>
      <trkpt lat="44.47232" lon="6.5478">
        <ele>1695</ele>
        <time>2021-04-08T06:51:31Z</time>
      </trkpt>
      <trkpt lat="44.47231" lon="6.5478">
        <ele>1695</ele>
        <time>2021-04-08T06:51:32Z</time>
      </trkpt>
      <trkpt lat="44.4723" lon="6.54781">
        <ele>1695</ele>
        <time>2021-04-08T06:51:33Z</time>
      </trkpt>
      <trkpt lat="44.47229" lon="6.54781">
        <ele>1695</ele>
        <time>2021-04-08T06:51:34Z</time>
      </trkpt>
      <trkpt lat="44.47228" lon="6.54781">
        <ele>1695</ele>
        <time>2021-04-08T06:51:35Z</time>
      </trkpt>
      <trkpt lat="44.47227" lon="6.54781">
        <ele>1695</ele>
        <time>2021-04-08T06:51:36Z</time>
      </trkpt>
      <trkpt lat="44.47226" lon="6.54781">
        <ele>1695</ele>
        <time>2021-04-08T06:51:37Z</time>
      </trkpt>
      <trkpt lat="44.47225" lon="6.54781">
        <ele>1695</ele>
        <time>2021-04-08T06:51:38Z</time>
      </trkpt>
      <trkpt lat="44.47225" lon="6.54781">
        <ele>1695</ele>
        <time>2021-04-08T06:51:39Z</time>
      </trkpt>
      <trkpt lat="44.47224" lon="6.54781">
        <ele>1696</ele>
        <time>2021-04-08T06:51:40Z</time>
      </trkpt>
      <trkpt lat="44.47223" lon="6.54781">
        <ele>1696</ele>
        <time>2021-04-08T06:51:41Z</time>
      </trkpt>
      <trkpt lat="44.47222" lon="6.54781">
        <ele>1696</ele>
        <time>2021-04-08T06:51:42Z</time>
      </trkpt>
      <trkpt lat="44.47222" lon="6.54781">
        <ele>1696</ele>
        <time>2021-04-08T06:51:43Z</time>
      </trkpt>
      <trkpt lat="44.47221" lon="6.54781">
        <ele>1696</ele>
        <time>2021-04-08T06:51:44Z</time>
      </trkpt>
      <trkpt lat="44.4722" lon="6.54781">
        <ele>1697</ele>
        <time>2021-04-08T06:51:45Z</time>
      </trkpt>
      <trkpt lat="44.47219" lon="6.54781">
        <ele>1697</ele>
        <time>2021-04-08T06:51:46Z</time>
      </trkpt>
      <trkpt lat="44.47218" lon="6.54781">
        <ele>1697</ele>
        <time>2021-04-08T06:51:47Z</time>
      </trkpt>
      <trkpt lat="44.47218" lon="6.54782">
        <ele>1697</ele>
        <time>2021-04-08T06:51:48Z</time>
      </trkpt>
      <trkpt lat="44.47217" lon="6.54782">
        <ele>1697</ele>
        <time>2021-04-08T06:51:49Z</time>
      </trkpt>
      <trkpt lat="44.47217" lon="6.54782">
        <ele>1698</ele>
        <time>2021-04-08T06:51:50Z</time>
      </trkpt>
      <trkpt lat="44.47216" lon="6.54782">
        <ele>1698</ele>
        <time>2021-04-08T06:51:51Z</time>
      </trkpt>
      <trkpt lat="44.47215" lon="6.54782">
        <ele>1698</ele>
        <time>2021-04-08T06:51:52Z</time>
      </trkpt>
      <trkpt lat="44.47214" lon="6.54782">
        <ele>1699</ele>
        <time>2021-04-08T06:51:53Z</time>
      </trkpt>
      <trkpt lat="44.47214" lon="6.54782">
        <ele>1699</ele>
        <time>2021-04-08T06:51:54Z</time>
      </trkpt>
      <trkpt lat="44.47214" lon="6.54782">
        <ele>1699</ele>
        <time>2021-04-08T06:51:55Z</time>
      </trkpt>
      <trkpt lat="44.47213" lon="6.54782">
        <ele>1700</ele>
        <time>2021-04-08T06:51:56Z</time>
      </trkpt>
      <trkpt lat="44.47213" lon="6.54781">
        <ele>1700</ele>
        <time>2021-04-08T06:51:57Z</time>
      </trkpt>
      <trkpt lat="44.47213" lon="6.54781">
        <ele>1700</ele>
        <time>2021-04-08T06:51:58Z</time>
      </trkpt>
      <trkpt lat="44.47213" lon="6.5478">
        <ele>1701</ele>
        <time>2021-04-08T06:51:59Z</time>
      </trkpt>
      <trkpt lat="44.47213" lon="6.5478">
        <ele>1701</ele>
        <time>2021-04-08T06:52:00Z</time>
      </trkpt>
      <trkpt lat="44.47212" lon="6.5478">
        <ele>1701</ele>
        <time>2021-04-08T06:52:01Z</time>
      </trkpt>
      <trkpt lat="44.47211" lon="6.5478">
        <ele>1701</ele>
        <time>2021-04-08T06:52:02Z</time>
      </trkpt>
      <trkpt lat="44.4721" lon="6.5478">
        <ele>1701</ele>
        <time>2021-04-08T06:52:03Z</time>
      </trkpt>
      <trkpt lat="44.47209" lon="6.5478">
        <ele>1702</ele>
        <time>2021-04-08T06:52:04Z</time>
      </trkpt>
      <trkpt lat="44.47208" lon="6.5478">
        <ele>1702</ele>
        <time>2021-04-08T06:52:05Z</time>
      </trkpt>
      <trkpt lat="44.47208" lon="6.54779">
        <ele>1702</ele>
        <time>2021-04-08T06:52:06Z</time>
      </trkpt>
      <trkpt lat="44.47207" lon="6.54779">
        <ele>1702</ele>
        <time>2021-04-08T06:52:07Z</time>
      </trkpt>
      <trkpt lat="44.47206" lon="6.54778">
        <ele>1703</ele>
        <time>2021-04-08T06:52:08Z</time>
      </trkpt>
      <trkpt lat="44.47205" lon="6.54778">
        <ele>1703</ele>
        <time>2021-04-08T06:52:09Z</time>
      </trkpt>
      <trkpt lat="44.47204" lon="6.54778">
        <ele>1703</ele>
        <time>2021-04-08T06:52:10Z</time>
      </trkpt>
      <trkpt lat="44.47203" lon="6.54779">
        <ele>1703</ele>
        <time>2021-04-08T06:52:11Z</time>
      </trkpt>
      <trkpt lat="44.47201" lon="6.54779">
        <ele>1703</ele>
        <time>2021-04-08T06:52:12Z</time>
      </trkpt>
      <trkpt lat="44.47201" lon="6.5478">
        <ele>1703</ele>
        <time>2021-04-08T06:52:13Z</time>
      </trkpt>
      <trkpt lat="44.47201" lon="6.5478">
        <ele>1703</ele>
        <time>2021-04-08T06:52:14Z</time>
      </trkpt>
      <trkpt lat="44.472" lon="6.5478">
        <ele>1703</ele>
        <time>2021-04-08T06:52:15Z</time>
      </trkpt>
      <trkpt lat="44.472" lon="6.54781">
        <ele>1703</ele>
        <time>2021-04-08T06:52:16Z</time>
      </trkpt>
      <trkpt lat="44.47199" lon="6.54781">
        <ele>1703</ele>
        <time>2021-04-08T06:52:17Z</time>
      </trkpt>
      <trkpt lat="44.47198" lon="6.54781">
        <ele>1703</ele>
        <time>2021-04-08T06:52:18Z</time>
      </trkpt>
      <trkpt lat="44.47198" lon="6.54781">
        <ele>1704</ele>
        <time>2021-04-08T06:52:19Z</time>
      </trkpt>
      <trkpt lat="44.47197" lon="6.5478">
        <ele>1704</ele>
        <time>2021-04-08T06:52:20Z</time>
      </trkpt>
      <trkpt lat="44.47196" lon="6.5478">
        <ele>1704</ele>
        <time>2021-04-08T06:52:21Z</time>
      </trkpt>
      <trkpt lat="44.47195" lon="6.5478">
        <ele>1704</ele>
        <time>2021-04-08T06:52:22Z</time>
      </trkpt>
      <trkpt lat="44.47195" lon="6.5478">
        <ele>1705</ele>
        <time>2021-04-08T06:52:23Z</time>
      </trkpt>
      <trkpt lat="44.47194" lon="6.5478">
        <ele>1705</ele>
        <time>2021-04-08T06:52:24Z</time>
      </trkpt>
      <trkpt lat="44.47193" lon="6.5478">
        <ele>1705</ele>
        <time>2021-04-08T06:52:25Z</time>
      </trkpt>
      <trkpt lat="44.47193" lon="6.5478">
        <ele>1705</ele>
        <time>2021-04-08T06:52:26Z</time>
      </trkpt>
      <trkpt lat="44.47192" lon="6.5478">
        <ele>1705</ele>
        <time>2021-04-08T06:52:27Z</time>
      </trkpt>
      <trkpt lat="44.47191" lon="6.5478">
        <ele>1706</ele>
        <time>2021-04-08T06:52:28Z</time>
      </trkpt>
      <trkpt lat="44.47191" lon="6.5478">
        <ele>1707</ele>
        <time>2021-04-08T06:52:29Z</time>
      </trkpt>
      <trkpt lat="44.4719" lon="6.5478">
        <ele>1707</ele>
        <time>2021-04-08T06:52:30Z</time>
      </trkpt>
      <trkpt lat="44.47189" lon="6.54781">
        <ele>1707</ele>
        <time>2021-04-08T06:52:31Z</time>
      </trkpt>
      <trkpt lat="44.47189" lon="6.54781">
        <ele>1707</ele>
        <time>2021-04-08T06:52:32Z</time>
      </trkpt>
      <trkpt lat="44.47188" lon="6.54781">
        <ele>1708</ele>
        <time>2021-04-08T06:52:33Z</time>
      </trkpt>
      <trkpt lat="44.47188" lon="6.54781">
        <ele>1708</ele>
        <time>2021-04-08T06:52:34Z</time>
      </trkpt>
      <trkpt lat="44.47187" lon="6.5478">
        <ele>1709</ele>
        <time>2021-04-08T06:52:35Z</time>
      </trkpt>
      <trkpt lat="44.47186" lon="6.5478">
        <ele>1709</ele>
        <time>2021-04-08T06:52:36Z</time>
      </trkpt>
      <trkpt lat="44.47185" lon="6.5478">
        <ele>1709</ele>
        <time>2021-04-08T06:52:37Z</time>
      </trkpt>
      <trkpt lat="44.47184" lon="6.5478">
        <ele>1709</ele>
        <time>2021-04-08T06:52:38Z</time>
      </trkpt>
      <trkpt lat="44.47184" lon="6.5478">
        <ele>1710</ele>
        <time>2021-04-08T06:52:39Z</time>
      </trkpt>
      <trkpt lat="44.47183" lon="6.5478">
        <ele>1710</ele>
        <time>2021-04-08T06:52:40Z</time>
      </trkpt>
      <trkpt lat="44.47182" lon="6.5478">
        <ele>1711</ele>
        <time>2021-04-08T06:52:41Z</time>
      </trkpt>
      <trkpt lat="44.47182" lon="6.5478">
        <ele>1711</ele>
        <time>2021-04-08T06:52:42Z</time>
      </trkpt>
      <trkpt lat="44.47181" lon="6.54781">
        <ele>1711</ele>
        <time>2021-04-08T06:52:43Z</time>
      </trkpt>
      <trkpt lat="44.4718" lon="6.54781">
        <ele>1711</ele>
        <time>2021-04-08T06:52:44Z</time>
      </trkpt>
      <trkpt lat="44.4718" lon="6.54782">
        <ele>1712</ele>
        <time>2021-04-08T06:52:45Z</time>
      </trkpt>
      <trkpt lat="44.47179" lon="6.54782">
        <ele>1712</ele>
        <time>2021-04-08T06:52:46Z</time>
      </trkpt>
      <trkpt lat="44.47178" lon="6.54782">
        <ele>1712</ele>
        <time>2021-04-08T06:52:47Z</time>
      </trkpt>
      <trkpt lat="44.47177" lon="6.54782">
        <ele>1712</ele>
        <time>2021-04-08T06:52:48Z</time>
      </trkpt>
      <trkpt lat="44.47176" lon="6.54782">
        <ele>1713</ele>
        <time>2021-04-08T06:52:49Z</time>
      </trkpt>
      <trkpt lat="44.47175" lon="6.54782">
        <ele>1713</ele>
        <time>2021-04-08T06:52:50Z</time>
      </trkpt>
      <trkpt lat="44.47174" lon="6.54781">
        <ele>1713</ele>
        <time>2021-04-08T06:52:51Z</time>
      </trkpt>
      <trkpt lat="44.47173" lon="6.54781">
        <ele>1713</ele>
        <time>2021-04-08T06:52:52Z</time>
      </trkpt>
      <trkpt lat="44.47172" lon="6.54782">
        <ele>1713</ele>
        <time>2021-04-08T06:52:53Z</time>
      </trkpt>
      <trkpt lat="44.47171" lon="6.54782">
        <ele>1713</ele>
        <time>2021-04-08T06:52:54Z</time>
      </trkpt>
      <trkpt lat="44.47171" lon="6.54783">
        <ele>1713</ele>
        <time>2021-04-08T06:52:55Z</time>
      </trkpt>
      <trkpt lat="44.47171" lon="6.54784">
        <ele>1712</ele>
        <time>2021-04-08T06:52:56Z</time>
      </trkpt>
      <trkpt lat="44.47169" lon="6.54784">
        <ele>1711</ele>
        <time>2021-04-08T06:52:57Z</time>
      </trkpt>
      <trkpt lat="44.47168" lon="6.54784">
        <ele>1711</ele>
        <time>2021-04-08T06:52:58Z</time>
      </trkpt>
      <trkpt lat="44.47168" lon="6.54784">
        <ele>1711</ele>
        <time>2021-04-08T06:52:59Z</time>
      </trkpt>
      <trkpt lat="44.47167" lon="6.54784">
        <ele>1710</ele>
        <time>2021-04-08T06:53:00Z</time>
      </trkpt>
      <trkpt lat="44.47166" lon="6.54784">
        <ele>1710</ele>
        <time>2021-04-08T06:53:01Z</time>
      </trkpt>
      <trkpt lat="44.47165" lon="6.54784">
        <ele>1710</ele>
        <time>2021-04-08T06:53:02Z</time>
      </trkpt>
      <trkpt lat="44.47164" lon="6.54785">
        <ele>1709</ele>
        <time>2021-04-08T06:53:03Z</time>
      </trkpt>
      <trkpt lat="44.47163" lon="6.54785">
        <ele>1709</ele>
        <time>2021-04-08T06:53:04Z</time>
      </trkpt>
      <trkpt lat="44.47163" lon="6.54786">
        <ele>1709</ele>
        <time>2021-04-08T06:53:05Z</time>
      </trkpt>
      <trkpt lat="44.47161" lon="6.54786">
        <ele>1709</ele>
        <time>2021-04-08T06:53:06Z</time>
      </trkpt>
      <trkpt lat="44.47161" lon="6.54787">
        <ele>1708</ele>
        <time>2021-04-08T06:53:07Z</time>
      </trkpt>
      <trkpt lat="44.4716" lon="6.54787">
        <ele>1708</ele>
        <time>2021-04-08T06:53:08Z</time>
      </trkpt>
      <trkpt lat="44.47159" lon="6.54788">
        <ele>1708</ele>
        <time>2021-04-08T06:53:09Z</time>
      </trkpt>
      <trkpt lat="44.47159" lon="6.54789">
        <ele>1707</ele>
        <time>2021-04-08T06:53:10Z</time>
      </trkpt>
      <trkpt lat="44.47158" lon="6.54789">
        <ele>1707</ele>
        <time>2021-04-08T06:53:11Z</time>
      </trkpt>
      <trkpt lat="44.47156" lon="6.54789">
        <ele>1707</ele>
        <time>2021-04-08T06:53:12Z</time>
      </trkpt>
      <trkpt lat="44.47156" lon="6.5479">
        <ele>1707</ele>
        <time>2021-04-08T06:53:13Z</time>
      </trkpt>
      <trkpt lat="44.47155" lon="6.54791">
        <ele>1706</ele>
        <time>2021-04-08T06:53:14Z</time>
      </trkpt>
      <trkpt lat="44.47154" lon="6.54791">
        <ele>1706</ele>
        <time>2021-04-08T06:53:15Z</time>
      </trkpt>
      <trkpt lat="44.47153" lon="6.54791">
        <ele>1706</ele>
        <time>2021-04-08T06:53:16Z</time>
      </trkpt>
      <trkpt lat="44.47153" lon="6.54792">
        <ele>1705</ele>
        <time>2021-04-08T06:53:17Z</time>
      </trkpt>
      <trkpt lat="44.47152" lon="6.54792">
        <ele>1705</ele>
        <time>2021-04-08T06:53:18Z</time>
      </trkpt>
      <trkpt lat="44.4715" lon="6.54792">
        <ele>1705</ele>
        <time>2021-04-08T06:53:19Z</time>
      </trkpt>
      <trkpt lat="44.47149" lon="6.54792">
        <ele>1705</ele>
        <time>2021-04-08T06:53:20Z</time>
      </trkpt>
      <trkpt lat="44.47149" lon="6.54792">
        <ele>1705</ele>
        <time>2021-04-08T06:53:21Z</time>
      </trkpt>
      <trkpt lat="44.47148" lon="6.54792">
        <ele>1705</ele>
        <time>2021-04-08T06:53:22Z</time>
      </trkpt>
      <trkpt lat="44.47147" lon="6.54792">
        <ele>1705</ele>
        <time>2021-04-08T06:53:23Z</time>
      </trkpt>
      <trkpt lat="44.47146" lon="6.54792">
        <ele>1705</ele>
        <time>2021-04-08T06:53:24Z</time>
      </trkpt>
      <trkpt lat="44.47146" lon="6.54792">
        <ele>1705</ele>
        <time>2021-04-08T06:53:25Z</time>
      </trkpt>
      <trkpt lat="44.47146" lon="6.54792">
        <ele>1705</ele>
        <time>2021-04-08T06:53:26Z</time>
      </trkpt>
      <trkpt lat="44.47145" lon="6.54793">
        <ele>1706</ele>
        <time>2021-04-08T06:53:27Z</time>
      </trkpt>
      <trkpt lat="44.47144" lon="6.54794">
        <ele>1706</ele>
        <time>2021-04-08T06:53:28Z</time>
      </trkpt>
      <trkpt lat="44.47144" lon="6.54794">
        <ele>1707</ele>
        <time>2021-04-08T06:53:29Z</time>
      </trkpt>
      <trkpt lat="44.47143" lon="6.54795">
        <ele>1707</ele>
        <time>2021-04-08T06:53:30Z</time>
      </trkpt>
      <trkpt lat="44.47143" lon="6.54795">
        <ele>1707</ele>
        <time>2021-04-08T06:53:31Z</time>
      </trkpt>
      <trkpt lat="44.47142" lon="6.54796">
        <ele>1707</ele>
        <time>2021-04-08T06:53:32Z</time>
      </trkpt>
      <trkpt lat="44.47141" lon="6.54797">
        <ele>1707</ele>
        <time>2021-04-08T06:53:33Z</time>
      </trkpt>
      <trkpt lat="44.47141" lon="6.54797">
        <ele>1707</ele>
        <time>2021-04-08T06:53:34Z</time>
      </trkpt>
      <trkpt lat="44.4714" lon="6.54798">
        <ele>1707</ele>
        <time>2021-04-08T06:53:35Z</time>
      </trkpt>
      <trkpt lat="44.47139" lon="6.54798">
        <ele>1707</ele>
        <time>2021-04-08T06:53:36Z</time>
      </trkpt>
      <trkpt lat="44.47138" lon="6.54799">
        <ele>1707</ele>
        <time>2021-04-08T06:53:37Z</time>
      </trkpt>
      <trkpt lat="44.47138" lon="6.548">
        <ele>1707</ele>
        <time>2021-04-08T06:53:38Z</time>
      </trkpt>
      <trkpt lat="44.47137" lon="6.548">
        <ele>1707</ele>
        <time>2021-04-08T06:53:39Z</time>
      </trkpt>
      <trkpt lat="44.47136" lon="6.54801">
        <ele>1707</ele>
        <time>2021-04-08T06:53:40Z</time>
      </trkpt>
      <trkpt lat="44.47136" lon="6.54801">
        <ele>1707</ele>
        <time>2021-04-08T06:53:41Z</time>
      </trkpt>
      <trkpt lat="44.47134" lon="6.54801">
        <ele>1708</ele>
        <time>2021-04-08T06:53:42Z</time>
      </trkpt>
      <trkpt lat="44.47134" lon="6.54802">
        <ele>1708</ele>
        <time>2021-04-08T06:53:43Z</time>
      </trkpt>
      <trkpt lat="44.47132" lon="6.54801">
        <ele>1708</ele>
        <time>2021-04-08T06:53:44Z</time>
      </trkpt>
      <trkpt lat="44.47132" lon="6.54801">
        <ele>1708</ele>
        <time>2021-04-08T06:53:45Z</time>
      </trkpt>
      <trkpt lat="44.47131" lon="6.54802">
        <ele>1709</ele>
        <time>2021-04-08T06:53:46Z</time>
      </trkpt>
      <trkpt lat="44.4713" lon="6.54803">
        <ele>1709</ele>
        <time>2021-04-08T06:53:47Z</time>
      </trkpt>
      <trkpt lat="44.4713" lon="6.54803">
        <ele>1709</ele>
        <time>2021-04-08T06:53:48Z</time>
      </trkpt>
      <trkpt lat="44.47129" lon="6.54804">
        <ele>1709</ele>
        <time>2021-04-08T06:53:49Z</time>
      </trkpt>
      <trkpt lat="44.47128" lon="6.54804">
        <ele>1709</ele>
        <time>2021-04-08T06:53:50Z</time>
      </trkpt>
      <trkpt lat="44.47127" lon="6.54804">
        <ele>1709</ele>
        <time>2021-04-08T06:53:51Z</time>
      </trkpt>
      <trkpt lat="44.47127" lon="6.54804">
        <ele>1708</ele>
        <time>2021-04-08T06:53:52Z</time>
      </trkpt>
      <trkpt lat="44.47126" lon="6.54804">
        <ele>1709</ele>
        <time>2021-04-08T06:53:53Z</time>
      </trkpt>
      <trkpt lat="44.47125" lon="6.54804">
        <ele>1709</ele>
        <time>2021-04-08T06:53:54Z</time>
      </trkpt>
      <trkpt lat="44.47124" lon="6.54804">
        <ele>1709</ele>
        <time>2021-04-08T06:53:55Z</time>
      </trkpt>
      <trkpt lat="44.47123" lon="6.54804">
        <ele>1709</ele>
        <time>2021-04-08T06:53:56Z</time>
      </trkpt>
      <trkpt lat="44.47123" lon="6.54804">
        <ele>1710</ele>
        <time>2021-04-08T06:53:57Z</time>
      </trkpt>
      <trkpt lat="44.47122" lon="6.54804">
        <ele>1710</ele>
        <time>2021-04-08T06:53:58Z</time>
      </trkpt>
      <trkpt lat="44.47122" lon="6.54804">
        <ele>1710</ele>
        <time>2021-04-08T06:53:59Z</time>
      </trkpt>
      <trkpt lat="44.47121" lon="6.54804">
        <ele>1710</ele>
        <time>2021-04-08T06:54:00Z</time>
      </trkpt>
      <trkpt lat="44.4712" lon="6.54804">
        <ele>1710</ele>
        <time>2021-04-08T06:54:01Z</time>
      </trkpt>
      <trkpt lat="44.4712" lon="6.54804">
        <ele>1711</ele>
        <time>2021-04-08T06:54:02Z</time>
      </trkpt>
      <trkpt lat="44.47119" lon="6.54804">
        <ele>1711</ele>
        <time>2021-04-08T06:54:03Z</time>
      </trkpt>
      <trkpt lat="44.47118" lon="6.54804">
        <ele>1712</ele>
        <time>2021-04-08T06:54:04Z</time>
      </trkpt>
      <trkpt lat="44.47118" lon="6.54804">
        <ele>1712</ele>
        <time>2021-04-08T06:54:05Z</time>
      </trkpt>
      <trkpt lat="44.47117" lon="6.54804">
        <ele>1712</ele>
        <time>2021-04-08T06:54:06Z</time>
      </trkpt>
      <trkpt lat="44.47116" lon="6.54805">
        <ele>1713</ele>
        <time>2021-04-08T06:54:07Z</time>
      </trkpt>
      <trkpt lat="44.47115" lon="6.54805">
        <ele>1713</ele>
        <time>2021-04-08T06:54:08Z</time>
      </trkpt>
      <trkpt lat="44.47114" lon="6.54805">
        <ele>1713</ele>
        <time>2021-04-08T06:54:09Z</time>
      </trkpt>
      <trkpt lat="44.47114" lon="6.54806">
        <ele>1713</ele>
        <time>2021-04-08T06:54:10Z</time>
      </trkpt>
      <trkpt lat="44.47114" lon="6.54807">
        <ele>1713</ele>
        <time>2021-04-08T06:54:11Z</time>
      </trkpt>
      <trkpt lat="44.47113" lon="6.54808">
        <ele>1714</ele>
        <time>2021-04-08T06:54:12Z</time>
      </trkpt>
      <trkpt lat="44.47113" lon="6.54808">
        <ele>1714</ele>
        <time>2021-04-08T06:54:13Z</time>
      </trkpt>
      <trkpt lat="44.47112" lon="6.54808">
        <ele>1714</ele>
        <time>2021-04-08T06:54:14Z</time>
      </trkpt>
      <trkpt lat="44.47112" lon="6.54808">
        <ele>1714</ele>
        <time>2021-04-08T06:54:15Z</time>
      </trkpt>
      <trkpt lat="44.47111" lon="6.54808">
        <ele>1714</ele>
        <time>2021-04-08T06:54:16Z</time>
      </trkpt>
      <trkpt lat="44.47111" lon="6.54808">
        <ele>1715</ele>
        <time>2021-04-08T06:54:17Z</time>
      </trkpt>
      <trkpt lat="44.4711" lon="6.54809">
        <ele>1715</ele>
        <time>2021-04-08T06:54:18Z</time>
      </trkpt>
      <trkpt lat="44.4711" lon="6.54808">
        <ele>1715</ele>
        <time>2021-04-08T06:54:19Z</time>
      </trkpt>
      <trkpt lat="44.4711" lon="6.54808">
        <ele>1715</ele>
        <time>2021-04-08T06:54:20Z</time>
      </trkpt>
      <trkpt lat="44.47109" lon="6.54808">
        <ele>1715</ele>
        <time>2021-04-08T06:54:21Z</time>
      </trkpt>
      <trkpt lat="44.47108" lon="6.54809">
        <ele>1715</ele>
        <time>2021-04-08T06:54:22Z</time>
      </trkpt>
      <trkpt lat="44.47107" lon="6.54809">
        <ele>1716</ele>
        <time>2021-04-08T06:54:23Z</time>
      </trkpt>
      <trkpt lat="44.47106" lon="6.5481">
        <ele>1716</ele>
        <time>2021-04-08T06:54:24Z</time>
      </trkpt>
      <trkpt lat="44.47106" lon="6.5481">
        <ele>1716</ele>
        <time>2021-04-08T06:54:25Z</time>
      </trkpt>
      <trkpt lat="44.47105" lon="6.5481">
        <ele>1717</ele>
        <time>2021-04-08T06:54:26Z</time>
      </trkpt>
      <trkpt lat="44.47105" lon="6.5481">
        <ele>1717</ele>
        <time>2021-04-08T06:54:27Z</time>
      </trkpt>
      <trkpt lat="44.47104" lon="6.54811">
        <ele>1717</ele>
        <time>2021-04-08T06:54:28Z</time>
      </trkpt>
      <trkpt lat="44.47104" lon="6.54811">
        <ele>1717</ele>
        <time>2021-04-08T06:54:29Z</time>
      </trkpt>
      <trkpt lat="44.47102" lon="6.54812">
        <ele>1718</ele>
        <time>2021-04-08T06:54:30Z</time>
      </trkpt>
      <trkpt lat="44.47102" lon="6.54813">
        <ele>1718</ele>
        <time>2021-04-08T06:54:31Z</time>
      </trkpt>
      <trkpt lat="44.47101" lon="6.54813">
        <ele>1719</ele>
        <time>2021-04-08T06:54:32Z</time>
      </trkpt>
      <trkpt lat="44.471" lon="6.54813">
        <ele>1719</ele>
        <time>2021-04-08T06:54:33Z</time>
      </trkpt>
      <trkpt lat="44.47099" lon="6.54814">
        <ele>1720</ele>
        <time>2021-04-08T06:54:34Z</time>
      </trkpt>
      <trkpt lat="44.47098" lon="6.54814">
        <ele>1720</ele>
        <time>2021-04-08T06:54:35Z</time>
      </trkpt>
      <trkpt lat="44.47097" lon="6.54815">
        <ele>1720</ele>
        <time>2021-04-08T06:54:36Z</time>
      </trkpt>
      <trkpt lat="44.47096" lon="6.54815">
        <ele>1720</ele>
        <time>2021-04-08T06:54:37Z</time>
      </trkpt>
      <trkpt lat="44.47096" lon="6.54816">
        <ele>1721</ele>
        <time>2021-04-08T06:54:38Z</time>
      </trkpt>
      <trkpt lat="44.47095" lon="6.54816">
        <ele>1721</ele>
        <time>2021-04-08T06:54:39Z</time>
      </trkpt>
      <trkpt lat="44.47095" lon="6.54816">
        <ele>1721</ele>
        <time>2021-04-08T06:54:40Z</time>
      </trkpt>
      <trkpt lat="44.47094" lon="6.54816">
        <ele>1721</ele>
        <time>2021-04-08T06:54:41Z</time>
      </trkpt>
      <trkpt lat="44.47094" lon="6.54816">
        <ele>1722</ele>
        <time>2021-04-08T06:54:42Z</time>
      </trkpt>
      <trkpt lat="44.47093" lon="6.54817">
        <ele>1722</ele>
        <time>2021-04-08T06:54:43Z</time>
      </trkpt>
      <trkpt lat="44.47092" lon="6.54818">
        <ele>1722</ele>
        <time>2021-04-08T06:54:44Z</time>
      </trkpt>
      <trkpt lat="44.47092" lon="6.54819">
        <ele>1722</ele>
        <time>2021-04-08T06:54:45Z</time>
      </trkpt>
      <trkpt lat="44.47092" lon="6.54819">
        <ele>1723</ele>
        <time>2021-04-08T06:54:46Z</time>
      </trkpt>
      <trkpt lat="44.47091" lon="6.5482">
        <ele>1723</ele>
        <time>2021-04-08T06:54:47Z</time>
      </trkpt>
      <trkpt lat="44.47091" lon="6.5482">
        <ele>1723</ele>
        <time>2021-04-08T06:54:48Z</time>
      </trkpt>
      <trkpt lat="44.47091" lon="6.54821">
        <ele>1723</ele>
        <time>2021-04-08T06:54:49Z</time>
      </trkpt>
      <trkpt lat="44.4709" lon="6.54821">
        <ele>1723</ele>
        <time>2021-04-08T06:54:50Z</time>
      </trkpt>
      <trkpt lat="44.4709" lon="6.54822">
        <ele>1723</ele>
        <time>2021-04-08T06:54:51Z</time>
      </trkpt>
      <trkpt lat="44.47089" lon="6.54823">
        <ele>1724</ele>
        <time>2021-04-08T06:54:52Z</time>
      </trkpt>
      <trkpt lat="44.47088" lon="6.54824">
        <ele>1724</ele>
        <time>2021-04-08T06:54:53Z</time>
      </trkpt>
      <trkpt lat="44.47088" lon="6.54824">
        <ele>1724</ele>
        <time>2021-04-08T06:54:54Z</time>
      </trkpt>
      <trkpt lat="44.47087" lon="6.54826">
        <ele>1724</ele>
        <time>2021-04-08T06:54:55Z</time>
      </trkpt>
      <trkpt lat="44.47087" lon="6.54827">
        <ele>1724</ele>
        <time>2021-04-08T06:54:56Z</time>
      </trkpt>
      <trkpt lat="44.47086" lon="6.54828">
        <ele>1724</ele>
        <time>2021-04-08T06:54:57Z</time>
      </trkpt>
      <trkpt lat="44.47085" lon="6.54828">
        <ele>1725</ele>
        <time>2021-04-08T06:54:58Z</time>
      </trkpt>
      <trkpt lat="44.47084" lon="6.54829">
        <ele>1725</ele>
        <time>2021-04-08T06:54:59Z</time>
      </trkpt>
      <trkpt lat="44.47083" lon="6.54829">
        <ele>1725</ele>
        <time>2021-04-08T06:55:00Z</time>
      </trkpt>
      <trkpt lat="44.47082" lon="6.5483">
        <ele>1725</ele>
        <time>2021-04-08T06:55:01Z</time>
      </trkpt>
      <trkpt lat="44.47081" lon="6.5483">
        <ele>1725</ele>
        <time>2021-04-08T06:55:02Z</time>
      </trkpt>
      <trkpt lat="44.47081" lon="6.54831">
        <ele>1726</ele>
        <time>2021-04-08T06:55:03Z</time>
      </trkpt>
      <trkpt lat="44.47081" lon="6.54831">
        <ele>1726</ele>
        <time>2021-04-08T06:55:04Z</time>
      </trkpt>
      <trkpt lat="44.4708" lon="6.54831">
        <ele>1726</ele>
        <time>2021-04-08T06:55:05Z</time>
      </trkpt>
      <trkpt lat="44.4708" lon="6.54832">
        <ele>1726</ele>
        <time>2021-04-08T06:55:06Z</time>
      </trkpt>
      <trkpt lat="44.47079" lon="6.54833">
        <ele>1726</ele>
        <time>2021-04-08T06:55:07Z</time>
      </trkpt>
      <trkpt lat="44.47079" lon="6.54833">
        <ele>1726</ele>
        <time>2021-04-08T06:55:08Z</time>
      </trkpt>
      <trkpt lat="44.47078" lon="6.54834">
        <ele>1726</ele>
        <time>2021-04-08T06:55:09Z</time>
      </trkpt>
      <trkpt lat="44.47078" lon="6.54834">
        <ele>1727</ele>
        <time>2021-04-08T06:55:10Z</time>
      </trkpt>
      <trkpt lat="44.47077" lon="6.54834">
        <ele>1727</ele>
        <time>2021-04-08T06:55:11Z</time>
      </trkpt>
      <trkpt lat="44.47077" lon="6.54835">
        <ele>1727</ele>
        <time>2021-04-08T06:55:12Z</time>
      </trkpt>
      <trkpt lat="44.47076" lon="6.54836">
        <ele>1727</ele>
        <time>2021-04-08T06:55:13Z</time>
      </trkpt>
      <trkpt lat="44.47075" lon="6.54836">
        <ele>1727</ele>
        <time>2021-04-08T06:55:14Z</time>
      </trkpt>
      <trkpt lat="44.47074" lon="6.54837">
        <ele>1728</ele>
        <time>2021-04-08T06:55:15Z</time>
      </trkpt>
      <trkpt lat="44.47074" lon="6.54837">
        <ele>1728</ele>
        <time>2021-04-08T06:55:16Z</time>
      </trkpt>
      <trkpt lat="44.47073" lon="6.54838">
        <ele>1728</ele>
        <time>2021-04-08T06:55:17Z</time>
      </trkpt>
      <trkpt lat="44.47073" lon="6.54838">
        <ele>1728</ele>
        <time>2021-04-08T06:55:18Z</time>
      </trkpt>
      <trkpt lat="44.47072" lon="6.54838">
        <ele>1728</ele>
        <time>2021-04-08T06:55:19Z</time>
      </trkpt>
      <trkpt lat="44.47072" lon="6.54839">
        <ele>1728</ele>
        <time>2021-04-08T06:55:20Z</time>
      </trkpt>
      <trkpt lat="44.47071" lon="6.54841">
        <ele>1728</ele>
        <time>2021-04-08T06:55:21Z</time>
      </trkpt>
      <trkpt lat="44.4707" lon="6.54841">
        <ele>1728</ele>
        <time>2021-04-08T06:55:22Z</time>
      </trkpt>
      <trkpt lat="44.47069" lon="6.54842">
        <ele>1728</ele>
        <time>2021-04-08T06:55:23Z</time>
      </trkpt>
      <trkpt lat="44.47069" lon="6.54843">
        <ele>1728</ele>
        <time>2021-04-08T06:55:24Z</time>
      </trkpt>
      <trkpt lat="44.47068" lon="6.54843">
        <ele>1728</ele>
        <time>2021-04-08T06:55:25Z</time>
      </trkpt>
      <trkpt lat="44.47067" lon="6.54843">
        <ele>1729</ele>
        <time>2021-04-08T06:55:26Z</time>
      </trkpt>
      <trkpt lat="44.47066" lon="6.54845">
        <ele>1729</ele>
        <time>2021-04-08T06:55:27Z</time>
      </trkpt>
      <trkpt lat="44.47065" lon="6.54846">
        <ele>1729</ele>
        <time>2021-04-08T06:55:28Z</time>
      </trkpt>
      <trkpt lat="44.47065" lon="6.54846">
        <ele>1729</ele>
        <time>2021-04-08T06:55:29Z</time>
      </trkpt>
      <trkpt lat="44.47064" lon="6.54847">
        <ele>1729</ele>
        <time>2021-04-08T06:55:30Z</time>
      </trkpt>
      <trkpt lat="44.47063" lon="6.54848">
        <ele>1729</ele>
        <time>2021-04-08T06:55:31Z</time>
      </trkpt>
      <trkpt lat="44.47063" lon="6.54849">
        <ele>1729</ele>
        <time>2021-04-08T06:55:32Z</time>
      </trkpt>
      <trkpt lat="44.47062" lon="6.5485">
        <ele>1729</ele>
        <time>2021-04-08T06:55:33Z</time>
      </trkpt>
      <trkpt lat="44.47062" lon="6.54851">
        <ele>1729</ele>
        <time>2021-04-08T06:55:34Z</time>
      </trkpt>
      <trkpt lat="44.47061" lon="6.54852">
        <ele>1729</ele>
        <time>2021-04-08T06:55:35Z</time>
      </trkpt>
      <trkpt lat="44.4706" lon="6.54852">
        <ele>1730</ele>
        <time>2021-04-08T06:55:36Z</time>
      </trkpt>
      <trkpt lat="44.4706" lon="6.54853">
        <ele>1730</ele>
        <time>2021-04-08T06:55:37Z</time>
      </trkpt>
      <trkpt lat="44.47059" lon="6.54853">
        <ele>1730</ele>
        <time>2021-04-08T06:55:38Z</time>
      </trkpt>
      <trkpt lat="44.47058" lon="6.54854">
        <ele>1730</ele>
        <time>2021-04-08T06:55:39Z</time>
      </trkpt>
      <trkpt lat="44.47057" lon="6.54854">
        <ele>1730</ele>
        <time>2021-04-08T06:55:40Z</time>
      </trkpt>
      <trkpt lat="44.47056" lon="6.54854">
        <ele>1730</ele>
        <time>2021-04-08T06:55:41Z</time>
      </trkpt>
      <trkpt lat="44.47056" lon="6.54855">
        <ele>1730</ele>
        <time>2021-04-08T06:55:42Z</time>
      </trkpt>
      <trkpt lat="44.47055" lon="6.54856">
        <ele>1730</ele>
        <time>2021-04-08T06:55:43Z</time>
      </trkpt>
      <trkpt lat="44.47054" lon="6.54856">
        <ele>1730</ele>
        <time>2021-04-08T06:55:44Z</time>
      </trkpt>
      <trkpt lat="44.47054" lon="6.54857">
        <ele>1730</ele>
        <time>2021-04-08T06:55:45Z</time>
      </trkpt>
      <trkpt lat="44.47053" lon="6.54857">
        <ele>1731</ele>
        <time>2021-04-08T06:55:46Z</time>
      </trkpt>
      <trkpt lat="44.47053" lon="6.54858">
        <ele>1731</ele>
        <time>2021-04-08T06:55:47Z</time>
      </trkpt>
      <trkpt lat="44.47052" lon="6.54858">
        <ele>1731</ele>
        <time>2021-04-08T06:55:48Z</time>
      </trkpt>
      <trkpt lat="44.47051" lon="6.54858">
        <ele>1731</ele>
        <time>2021-04-08T06:55:49Z</time>
      </trkpt>
      <trkpt lat="44.4705" lon="6.54859">
        <ele>1731</ele>
        <time>2021-04-08T06:55:50Z</time>
      </trkpt>
      <trkpt lat="44.47049" lon="6.5486">
        <ele>1732</ele>
        <time>2021-04-08T06:55:51Z</time>
      </trkpt>
      <trkpt lat="44.47049" lon="6.54861">
        <ele>1732</ele>
        <time>2021-04-08T06:55:52Z</time>
      </trkpt>
      <trkpt lat="44.47048" lon="6.54862">
        <ele>1732</ele>
        <time>2021-04-08T06:55:53Z</time>
      </trkpt>
      <trkpt lat="44.47048" lon="6.54863">
        <ele>1732</ele>
        <time>2021-04-08T06:55:54Z</time>
      </trkpt>
      <trkpt lat="44.47047" lon="6.54862">
        <ele>1732</ele>
        <time>2021-04-08T06:55:55Z</time>
      </trkpt>
      <trkpt lat="44.47046" lon="6.54862">
        <ele>1733</ele>
        <time>2021-04-08T06:55:56Z</time>
      </trkpt>
      <trkpt lat="44.47045" lon="6.54863">
        <ele>1733</ele>
        <time>2021-04-08T06:55:57Z</time>
      </trkpt>
      <trkpt lat="44.47044" lon="6.54864">
        <ele>1733</ele>
        <time>2021-04-08T06:55:58Z</time>
      </trkpt>
      <trkpt lat="44.47043" lon="6.54864">
        <ele>1733</ele>
        <time>2021-04-08T06:55:59Z</time>
      </trkpt>
      <trkpt lat="44.47043" lon="6.54864">
        <ele>1733</ele>
        <time>2021-04-08T06:56:00Z</time>
      </trkpt>
      <trkpt lat="44.47042" lon="6.54865">
        <ele>1733</ele>
        <time>2021-04-08T06:56:01Z</time>
      </trkpt>
      <trkpt lat="44.47041" lon="6.54865">
        <ele>1733</ele>
        <time>2021-04-08T06:56:02Z</time>
      </trkpt>
      <trkpt lat="44.4704" lon="6.54866">
        <ele>1733</ele>
        <time>2021-04-08T06:56:03Z</time>
      </trkpt>
      <trkpt lat="44.47039" lon="6.54867">
        <ele>1733</ele>
        <time>2021-04-08T06:56:04Z</time>
      </trkpt>
      <trkpt lat="44.47038" lon="6.54867">
        <ele>1733</ele>
        <time>2021-04-08T06:56:05Z</time>
      </trkpt>
      <trkpt lat="44.47037" lon="6.54868">
        <ele>1733</ele>
        <time>2021-04-08T06:56:06Z</time>
      </trkpt>
      <trkpt lat="44.47036" lon="6.54868">
        <ele>1732</ele>
        <time>2021-04-08T06:56:07Z</time>
      </trkpt>
      <trkpt lat="44.47035" lon="6.54868">
        <ele>1732</ele>
        <time>2021-04-08T06:56:08Z</time>
      </trkpt>
      <trkpt lat="44.47034" lon="6.54868">
        <ele>1732</ele>
        <time>2021-04-08T06:56:09Z</time>
      </trkpt>
      <trkpt lat="44.47034" lon="6.54869">
        <ele>1732</ele>
        <time>2021-04-08T06:56:10Z</time>
      </trkpt>
      <trkpt lat="44.47032" lon="6.54869">
        <ele>1732</ele>
        <time>2021-04-08T06:56:11Z</time>
      </trkpt>
      <trkpt lat="44.47031" lon="6.54869">
        <ele>1731</ele>
        <time>2021-04-08T06:56:12Z</time>
      </trkpt>
      <trkpt lat="44.47031" lon="6.54869">
        <ele>1731</ele>
        <time>2021-04-08T06:56:13Z</time>
      </trkpt>
      <trkpt lat="44.4703" lon="6.54869">
        <ele>1732</ele>
        <time>2021-04-08T06:56:14Z</time>
      </trkpt>
      <trkpt lat="44.47029" lon="6.54868">
        <ele>1732</ele>
        <time>2021-04-08T06:56:15Z</time>
      </trkpt>
      <trkpt lat="44.47028" lon="6.54868">
        <ele>1733</ele>
        <time>2021-04-08T06:56:16Z</time>
      </trkpt>
      <trkpt lat="44.47028" lon="6.54869">
        <ele>1733</ele>
        <time>2021-04-08T06:56:17Z</time>
      </trkpt>
      <trkpt lat="44.47027" lon="6.54869">
        <ele>1734</ele>
        <time>2021-04-08T06:56:18Z</time>
      </trkpt>
      <trkpt lat="44.47026" lon="6.54869">
        <ele>1734</ele>
        <time>2021-04-08T06:56:19Z</time>
      </trkpt>
      <trkpt lat="44.47025" lon="6.54869">
        <ele>1735</ele>
        <time>2021-04-08T06:56:20Z</time>
      </trkpt>
      <trkpt lat="44.47025" lon="6.54868">
        <ele>1736</ele>
        <time>2021-04-08T06:56:21Z</time>
      </trkpt>
      <trkpt lat="44.47024" lon="6.54869">
        <ele>1736</ele>
        <time>2021-04-08T06:56:22Z</time>
      </trkpt>
      <trkpt lat="44.47024" lon="6.54869">
        <ele>1737</ele>
        <time>2021-04-08T06:56:23Z</time>
      </trkpt>
      <trkpt lat="44.47023" lon="6.54869">
        <ele>1737</ele>
        <time>2021-04-08T06:56:24Z</time>
      </trkpt>
      <trkpt lat="44.47022" lon="6.54869">
        <ele>1737</ele>
        <time>2021-04-08T06:56:25Z</time>
      </trkpt>
      <trkpt lat="44.47021" lon="6.54869">
        <ele>1738</ele>
        <time>2021-04-08T06:56:26Z</time>
      </trkpt>
      <trkpt lat="44.47021" lon="6.54869">
        <ele>1739</ele>
        <time>2021-04-08T06:56:27Z</time>
      </trkpt>
      <trkpt lat="44.47021" lon="6.54868">
        <ele>1739</ele>
        <time>2021-04-08T06:56:28Z</time>
      </trkpt>
      <trkpt lat="44.4702" lon="6.54868">
        <ele>1739</ele>
        <time>2021-04-08T06:56:29Z</time>
      </trkpt>
      <trkpt lat="44.47019" lon="6.54868">
        <ele>1739</ele>
        <time>2021-04-08T06:56:30Z</time>
      </trkpt>
      <trkpt lat="44.47019" lon="6.54868">
        <ele>1740</ele>
        <time>2021-04-08T06:56:31Z</time>
      </trkpt>
      <trkpt lat="44.47018" lon="6.54868">
        <ele>1740</ele>
        <time>2021-04-08T06:56:32Z</time>
      </trkpt>
      <trkpt lat="44.47017" lon="6.54867">
        <ele>1741</ele>
        <time>2021-04-08T06:56:33Z</time>
      </trkpt>
      <trkpt lat="44.47016" lon="6.54867">
        <ele>1741</ele>
        <time>2021-04-08T06:56:34Z</time>
      </trkpt>
      <trkpt lat="44.47015" lon="6.54867">
        <ele>1741</ele>
        <time>2021-04-08T06:56:35Z</time>
      </trkpt>
      <trkpt lat="44.47015" lon="6.54867">
        <ele>1742</ele>
        <time>2021-04-08T06:56:36Z</time>
      </trkpt>
      <trkpt lat="44.47014" lon="6.54867">
        <ele>1742</ele>
        <time>2021-04-08T06:56:37Z</time>
      </trkpt>
      <trkpt lat="44.47013" lon="6.54866">
        <ele>1742</ele>
        <time>2021-04-08T06:56:38Z</time>
      </trkpt>
      <trkpt lat="44.47012" lon="6.54866">
        <ele>1742</ele>
        <time>2021-04-08T06:56:39Z</time>
      </trkpt>
      <trkpt lat="44.47011" lon="6.54865">
        <ele>1743</ele>
        <time>2021-04-08T06:56:40Z</time>
      </trkpt>
      <trkpt lat="44.4701" lon="6.54864">
        <ele>1743</ele>
        <time>2021-04-08T06:56:41Z</time>
      </trkpt>
      <trkpt lat="44.47009" lon="6.54864">
        <ele>1743</ele>
        <time>2021-04-08T06:56:42Z</time>
      </trkpt>
      <trkpt lat="44.47008" lon="6.54864">
        <ele>1743</ele>
        <time>2021-04-08T06:56:43Z</time>
      </trkpt>
      <trkpt lat="44.47007" lon="6.54864">
        <ele>1743</ele>
        <time>2021-04-08T06:56:44Z</time>
      </trkpt>
      <trkpt lat="44.47006" lon="6.54864">
        <ele>1743</ele>
        <time>2021-04-08T06:56:45Z</time>
      </trkpt>
      <trkpt lat="44.47006" lon="6.54864">
        <ele>1743</ele>
        <time>2021-04-08T06:56:46Z</time>
      </trkpt>
      <trkpt lat="44.47005" lon="6.54864">
        <ele>1743</ele>
        <time>2021-04-08T06:56:47Z</time>
      </trkpt>
      <trkpt lat="44.47004" lon="6.54865">
        <ele>1744</ele>
        <time>2021-04-08T06:56:48Z</time>
      </trkpt>
      <trkpt lat="44.47004" lon="6.54865">
        <ele>1744</ele>
        <time>2021-04-08T06:56:49Z</time>
      </trkpt>
      <trkpt lat="44.47003" lon="6.54865">
        <ele>1744</ele>
        <time>2021-04-08T06:56:50Z</time>
      </trkpt>
      <trkpt lat="44.47002" lon="6.54865">
        <ele>1744</ele>
        <time>2021-04-08T06:56:51Z</time>
      </trkpt>
      <trkpt lat="44.47001" lon="6.54865">
        <ele>1744</ele>
        <time>2021-04-08T06:56:52Z</time>
      </trkpt>
      <trkpt lat="44.47" lon="6.54864">
        <ele>1744</ele>
        <time>2021-04-08T06:56:53Z</time>
      </trkpt>
      <trkpt lat="44.46999" lon="6.54864">
        <ele>1744</ele>
        <time>2021-04-08T06:56:54Z</time>
      </trkpt>
      <trkpt lat="44.46998" lon="6.54863">
        <ele>1744</ele>
        <time>2021-04-08T06:56:55Z</time>
      </trkpt>
      <trkpt lat="44.46997" lon="6.54863">
        <ele>1744</ele>
        <time>2021-04-08T06:56:56Z</time>
      </trkpt>
      <trkpt lat="44.46996" lon="6.54863">
        <ele>1744</ele>
        <time>2021-04-08T06:56:57Z</time>
      </trkpt>
      <trkpt lat="44.46995" lon="6.54863">
        <ele>1744</ele>
        <time>2021-04-08T06:56:58Z</time>
      </trkpt>
      <trkpt lat="44.46994" lon="6.54863">
        <ele>1744</ele>
        <time>2021-04-08T06:56:59Z</time>
      </trkpt>
      <trkpt lat="44.46993" lon="6.54863">
        <ele>1744</ele>
        <time>2021-04-08T06:57:00Z</time>
      </trkpt>
      <trkpt lat="44.46992" lon="6.54863">
        <ele>1744</ele>
        <time>2021-04-08T06:57:01Z</time>
      </trkpt>
      <trkpt lat="44.46991" lon="6.54863">
        <ele>1744</ele>
        <time>2021-04-08T06:57:02Z</time>
      </trkpt>
      <trkpt lat="44.4699" lon="6.54863">
        <ele>1744</ele>
        <time>2021-04-08T06:57:03Z</time>
      </trkpt>
      <trkpt lat="44.46989" lon="6.54863">
        <ele>1744</ele>
        <time>2021-04-08T06:57:04Z</time>
      </trkpt>
      <trkpt lat="44.46989" lon="6.54864">
        <ele>1744</ele>
        <time>2021-04-08T06:57:05Z</time>
      </trkpt>
      <trkpt lat="44.46988" lon="6.54864">
        <ele>1744</ele>
        <time>2021-04-08T06:57:06Z</time>
      </trkpt>
      <trkpt lat="44.46988" lon="6.54865">
        <ele>1744</ele>
        <time>2021-04-08T06:57:07Z</time>
      </trkpt>
      <trkpt lat="44.46987" lon="6.54864">
        <ele>1744</ele>
        <time>2021-04-08T06:57:08Z</time>
      </trkpt>
      <trkpt lat="44.46986" lon="6.54865">
        <ele>1744</ele>
        <time>2021-04-08T06:57:09Z</time>
      </trkpt>
      <trkpt lat="44.46985" lon="6.54865">
        <ele>1744</ele>
        <time>2021-04-08T06:57:10Z</time>
      </trkpt>
      <trkpt lat="44.46984" lon="6.54865">
        <ele>1744</ele>
        <time>2021-04-08T06:57:11Z</time>
      </trkpt>
      <trkpt lat="44.46983" lon="6.54866">
        <ele>1744</ele>
        <time>2021-04-08T06:57:12Z</time>
      </trkpt>
      <trkpt lat="44.46982" lon="6.54866">
        <ele>1744</ele>
        <time>2021-04-08T06:57:13Z</time>
      </trkpt>
      <trkpt lat="44.4698" lon="6.54866">
        <ele>1744</ele>
        <time>2021-04-08T06:57:14Z</time>
      </trkpt>
      <trkpt lat="44.46979" lon="6.54866">
        <ele>1745</ele>
        <time>2021-04-08T06:57:15Z</time>
      </trkpt>
      <trkpt lat="44.46978" lon="6.54867">
        <ele>1745</ele>
        <time>2021-04-08T06:57:16Z</time>
      </trkpt>
      <trkpt lat="44.46977" lon="6.54867">
        <ele>1745</ele>
        <time>2021-04-08T06:57:17Z</time>
      </trkpt>
      <trkpt lat="44.46976" lon="6.54868">
        <ele>1745</ele>
        <time>2021-04-08T06:57:18Z</time>
      </trkpt>
      <trkpt lat="44.46975" lon="6.54868">
        <ele>1745</ele>
        <time>2021-04-08T06:57:19Z</time>
      </trkpt>
      <trkpt lat="44.46974" lon="6.54868">
        <ele>1745</ele>
        <time>2021-04-08T06:57:20Z</time>
      </trkpt>
      <trkpt lat="44.46973" lon="6.54868">
        <ele>1745</ele>
        <time>2021-04-08T06:57:21Z</time>
      </trkpt>
      <trkpt lat="44.46972" lon="6.54868">
        <ele>1745</ele>
        <time>2021-04-08T06:57:22Z</time>
      </trkpt>
      <trkpt lat="44.46971" lon="6.54868">
        <ele>1745</ele>
        <time>2021-04-08T06:57:23Z</time>
      </trkpt>
      <trkpt lat="44.4697" lon="6.54868">
        <ele>1746</ele>
        <time>2021-04-08T06:57:24Z</time>
      </trkpt>
      <trkpt lat="44.46969" lon="6.54868">
        <ele>1746</ele>
        <time>2021-04-08T06:57:25Z</time>
      </trkpt>
      <trkpt lat="44.46968" lon="6.54867">
        <ele>1746</ele>
        <time>2021-04-08T06:57:26Z</time>
      </trkpt>
      <trkpt lat="44.46968" lon="6.54867">
        <ele>1746</ele>
        <time>2021-04-08T06:57:27Z</time>
      </trkpt>
      <trkpt lat="44.46967" lon="6.54867">
        <ele>1746</ele>
        <time>2021-04-08T06:57:28Z</time>
      </trkpt>
      <trkpt lat="44.46965" lon="6.54867">
        <ele>1746</ele>
        <time>2021-04-08T06:57:29Z</time>
      </trkpt>
      <trkpt lat="44.46965" lon="6.54867">
        <ele>1746</ele>
        <time>2021-04-08T06:57:30Z</time>
      </trkpt>
      <trkpt lat="44.46964" lon="6.54867">
        <ele>1746</ele>
        <time>2021-04-08T06:57:31Z</time>
      </trkpt>
      <trkpt lat="44.46964" lon="6.54866">
        <ele>1746</ele>
        <time>2021-04-08T06:57:32Z</time>
      </trkpt>
      <trkpt lat="44.46963" lon="6.54866">
        <ele>1746</ele>
        <time>2021-04-08T06:57:33Z</time>
      </trkpt>
      <trkpt lat="44.46962" lon="6.54866">
        <ele>1747</ele>
        <time>2021-04-08T06:57:34Z</time>
      </trkpt>
      <trkpt lat="44.46961" lon="6.54865">
        <ele>1747</ele>
        <time>2021-04-08T06:57:35Z</time>
      </trkpt>
      <trkpt lat="44.46961" lon="6.54865">
        <ele>1747</ele>
        <time>2021-04-08T06:57:36Z</time>
      </trkpt>
      <trkpt lat="44.4696" lon="6.54865">
        <ele>1747</ele>
        <time>2021-04-08T06:57:37Z</time>
      </trkpt>
      <trkpt lat="44.4696" lon="6.54864">
        <ele>1747</ele>
        <time>2021-04-08T06:57:38Z</time>
      </trkpt>
      <trkpt lat="44.46959" lon="6.54864">
        <ele>1747</ele>
        <time>2021-04-08T06:57:39Z</time>
      </trkpt>
      <trkpt lat="44.46959" lon="6.54864">
        <ele>1748</ele>
        <time>2021-04-08T06:57:40Z</time>
      </trkpt>
      <trkpt lat="44.46958" lon="6.54864">
        <ele>1748</ele>
        <time>2021-04-08T06:57:41Z</time>
      </trkpt>
      <trkpt lat="44.46958" lon="6.54864">
        <ele>1748</ele>
        <time>2021-04-08T06:57:42Z</time>
      </trkpt>
      <trkpt lat="44.46957" lon="6.54865">
        <ele>1748</ele>
        <time>2021-04-08T06:57:43Z</time>
      </trkpt>
      <trkpt lat="44.46956" lon="6.54865">
        <ele>1748</ele>
        <time>2021-04-08T06:57:44Z</time>
      </trkpt>
      <trkpt lat="44.46956" lon="6.54866">
        <ele>1748</ele>
        <time>2021-04-08T06:57:45Z</time>
      </trkpt>
      <trkpt lat="44.46956" lon="6.54866">
        <ele>1748</ele>
        <time>2021-04-08T06:57:46Z</time>
      </trkpt>
      <trkpt lat="44.46955" lon="6.54866">
        <ele>1749</ele>
        <time>2021-04-08T06:57:47Z</time>
      </trkpt>
      <trkpt lat="44.46953" lon="6.54865">
        <ele>1749</ele>
        <time>2021-04-08T06:57:48Z</time>
      </trkpt>
      <trkpt lat="44.46953" lon="6.54865">
        <ele>1749</ele>
        <time>2021-04-08T06:57:49Z</time>
      </trkpt>
      <trkpt lat="44.46952" lon="6.54865">
        <ele>1749</ele>
        <time>2021-04-08T06:57:50Z</time>
      </trkpt>
      <trkpt lat="44.46951" lon="6.54865">
        <ele>1749</ele>
        <time>2021-04-08T06:57:51Z</time>
      </trkpt>
      <trkpt lat="44.4695" lon="6.54865">
        <ele>1749</ele>
        <time>2021-04-08T06:57:52Z</time>
      </trkpt>
      <trkpt lat="44.46949" lon="6.54864">
        <ele>1749</ele>
        <time>2021-04-08T06:57:53Z</time>
      </trkpt>
      <trkpt lat="44.46948" lon="6.54865">
        <ele>1749</ele>
        <time>2021-04-08T06:57:54Z</time>
      </trkpt>
      <trkpt lat="44.46947" lon="6.54864">
        <ele>1749</ele>
        <time>2021-04-08T06:57:55Z</time>
      </trkpt>
      <trkpt lat="44.46946" lon="6.54864">
        <ele>1749</ele>
        <time>2021-04-08T06:57:56Z</time>
      </trkpt>
      <trkpt lat="44.46945" lon="6.54865">
        <ele>1749</ele>
        <time>2021-04-08T06:57:57Z</time>
      </trkpt>
      <trkpt lat="44.46944" lon="6.54865">
        <ele>1748</ele>
        <time>2021-04-08T06:57:58Z</time>
      </trkpt>
      <trkpt lat="44.46944" lon="6.54865">
        <ele>1748</ele>
        <time>2021-04-08T06:57:59Z</time>
      </trkpt>
      <trkpt lat="44.46943" lon="6.54866">
        <ele>1748</ele>
        <time>2021-04-08T06:58:00Z</time>
      </trkpt>
      <trkpt lat="44.46942" lon="6.54866">
        <ele>1748</ele>
        <time>2021-04-08T06:58:01Z</time>
      </trkpt>
      <trkpt lat="44.46941" lon="6.54866">
        <ele>1748</ele>
        <time>2021-04-08T06:58:02Z</time>
      </trkpt>
      <trkpt lat="44.4694" lon="6.54866">
        <ele>1748</ele>
        <time>2021-04-08T06:58:03Z</time>
      </trkpt>
      <trkpt lat="44.46939" lon="6.54866">
        <ele>1748</ele>
        <time>2021-04-08T06:58:04Z</time>
      </trkpt>
      <trkpt lat="44.46938" lon="6.54866">
        <ele>1748</ele>
        <time>2021-04-08T06:58:05Z</time>
      </trkpt>
      <trkpt lat="44.46938" lon="6.54866">
        <ele>1748</ele>
        <time>2021-04-08T06:58:06Z</time>
      </trkpt>
      <trkpt lat="44.46937" lon="6.54867">
        <ele>1747</ele>
        <time>2021-04-08T06:58:07Z</time>
      </trkpt>
      <trkpt lat="44.46936" lon="6.54867">
        <ele>1747</ele>
        <time>2021-04-08T06:58:08Z</time>
      </trkpt>
      <trkpt lat="44.46936" lon="6.54867">
        <ele>1747</ele>
        <time>2021-04-08T06:58:09Z</time>
      </trkpt>
      <trkpt lat="44.46935" lon="6.54867">
        <ele>1747</ele>
        <time>2021-04-08T06:58:10Z</time>
      </trkpt>
      <trkpt lat="44.46934" lon="6.54867">
        <ele>1747</ele>
        <time>2021-04-08T06:58:11Z</time>
      </trkpt>
      <trkpt lat="44.46933" lon="6.54867">
        <ele>1747</ele>
        <time>2021-04-08T06:58:12Z</time>
      </trkpt>
      <trkpt lat="44.46932" lon="6.54868">
        <ele>1747</ele>
        <time>2021-04-08T06:58:13Z</time>
      </trkpt>
      <trkpt lat="44.46931" lon="6.54868">
        <ele>1747</ele>
        <time>2021-04-08T06:58:14Z</time>
      </trkpt>
      <trkpt lat="44.46931" lon="6.54869">
        <ele>1747</ele>
        <time>2021-04-08T06:58:15Z</time>
      </trkpt>
      <trkpt lat="44.4693" lon="6.54869">
        <ele>1746</ele>
        <time>2021-04-08T06:58:16Z</time>
      </trkpt>
      <trkpt lat="44.46929" lon="6.54869">
        <ele>1746</ele>
        <time>2021-04-08T06:58:17Z</time>
      </trkpt>
      <trkpt lat="44.46928" lon="6.54869">
        <ele>1746</ele>
        <time>2021-04-08T06:58:18Z</time>
      </trkpt>
      <trkpt lat="44.46927" lon="6.54869">
        <ele>1746</ele>
        <time>2021-04-08T06:58:19Z</time>
      </trkpt>
      <trkpt lat="44.46927" lon="6.5487">
        <ele>1746</ele>
        <time>2021-04-08T06:58:20Z</time>
      </trkpt>
      <trkpt lat="44.46926" lon="6.5487">
        <ele>1746</ele>
        <time>2021-04-08T06:58:21Z</time>
      </trkpt>
      <trkpt lat="44.46925" lon="6.54871">
        <ele>1746</ele>
        <time>2021-04-08T06:58:22Z</time>
      </trkpt>
      <trkpt lat="44.46925" lon="6.54871">
        <ele>1746</ele>
        <time>2021-04-08T06:58:23Z</time>
      </trkpt>
      <trkpt lat="44.46924" lon="6.54872">
        <ele>1746</ele>
        <time>2021-04-08T06:58:24Z</time>
      </trkpt>
      <trkpt lat="44.46923" lon="6.54872">
        <ele>1746</ele>
        <time>2021-04-08T06:58:25Z</time>
      </trkpt>
      <trkpt lat="44.46922" lon="6.54872">
        <ele>1746</ele>
        <time>2021-04-08T06:58:26Z</time>
      </trkpt>
      <trkpt lat="44.46922" lon="6.54873">
        <ele>1746</ele>
        <time>2021-04-08T06:58:27Z</time>
      </trkpt>
      <trkpt lat="44.46921" lon="6.54874">
        <ele>1746</ele>
        <time>2021-04-08T06:58:28Z</time>
      </trkpt>
      <trkpt lat="44.4692" lon="6.54875">
        <ele>1746</ele>
        <time>2021-04-08T06:58:29Z</time>
      </trkpt>
      <trkpt lat="44.4692" lon="6.54876">
        <ele>1746</ele>
        <time>2021-04-08T06:58:30Z</time>
      </trkpt>
      <trkpt lat="44.46919" lon="6.54876">
        <ele>1746</ele>
        <time>2021-04-08T06:58:31Z</time>
      </trkpt>
      <trkpt lat="44.46919" lon="6.54877">
        <ele>1747</ele>
        <time>2021-04-08T06:58:32Z</time>
      </trkpt>
      <trkpt lat="44.46918" lon="6.54878">
        <ele>1747</ele>
        <time>2021-04-08T06:58:33Z</time>
      </trkpt>
      <trkpt lat="44.46917" lon="6.54878">
        <ele>1747</ele>
        <time>2021-04-08T06:58:34Z</time>
      </trkpt>
      <trkpt lat="44.46917" lon="6.54879">
        <ele>1747</ele>
        <time>2021-04-08T06:58:35Z</time>
      </trkpt>
      <trkpt lat="44.46916" lon="6.54879">
        <ele>1747</ele>
        <time>2021-04-08T06:58:36Z</time>
      </trkpt>
      <trkpt lat="44.46915" lon="6.54879">
        <ele>1747</ele>
        <time>2021-04-08T06:58:37Z</time>
      </trkpt>
      <trkpt lat="44.46914" lon="6.5488">
        <ele>1747</ele>
        <time>2021-04-08T06:58:38Z</time>
      </trkpt>
      <trkpt lat="44.46913" lon="6.5488">
        <ele>1747</ele>
        <time>2021-04-08T06:58:39Z</time>
      </trkpt>
      <trkpt lat="44.46911" lon="6.5488">
        <ele>1748</ele>
        <time>2021-04-08T06:58:40Z</time>
      </trkpt>
      <trkpt lat="44.4691" lon="6.54881">
        <ele>1748</ele>
        <time>2021-04-08T06:58:41Z</time>
      </trkpt>
      <trkpt lat="44.4691" lon="6.54882">
        <ele>1748</ele>
        <time>2021-04-08T06:58:42Z</time>
      </trkpt>
      <trkpt lat="44.46909" lon="6.54882">
        <ele>1748</ele>
        <time>2021-04-08T06:58:43Z</time>
      </trkpt>
      <trkpt lat="44.46908" lon="6.54883">
        <ele>1748</ele>
        <time>2021-04-08T06:58:44Z</time>
      </trkpt>
      <trkpt lat="44.46908" lon="6.54883">
        <ele>1748</ele>
        <time>2021-04-08T06:58:45Z</time>
      </trkpt>
      <trkpt lat="44.46907" lon="6.54884">
        <ele>1747</ele>
        <time>2021-04-08T06:58:46Z</time>
      </trkpt>
      <trkpt lat="44.46906" lon="6.54884">
        <ele>1747</ele>
        <time>2021-04-08T06:58:47Z</time>
      </trkpt>
      <trkpt lat="44.46905" lon="6.54885">
        <ele>1747</ele>
        <time>2021-04-08T06:58:48Z</time>
      </trkpt>
      <trkpt lat="44.46905" lon="6.54886">
        <ele>1747</ele>
        <time>2021-04-08T06:58:49Z</time>
      </trkpt>
      <trkpt lat="44.46904" lon="6.54886">
        <ele>1747</ele>
        <time>2021-04-08T06:58:50Z</time>
      </trkpt>
      <trkpt lat="44.46903" lon="6.54887">
        <ele>1748</ele>
        <time>2021-04-08T06:58:51Z</time>
      </trkpt>
      <trkpt lat="44.46902" lon="6.54888">
        <ele>1748</ele>
        <time>2021-04-08T06:58:52Z</time>
      </trkpt>
      <trkpt lat="44.46902" lon="6.54888">
        <ele>1748</ele>
        <time>2021-04-08T06:58:53Z</time>
      </trkpt>
      <trkpt lat="44.46902" lon="6.54889">
        <ele>1748</ele>
        <time>2021-04-08T06:58:54Z</time>
      </trkpt>
      <trkpt lat="44.46901" lon="6.54889">
        <ele>1748</ele>
        <time>2021-04-08T06:58:55Z</time>
      </trkpt>
      <trkpt lat="44.469" lon="6.5489">
        <ele>1748</ele>
        <time>2021-04-08T06:58:56Z</time>
      </trkpt>
      <trkpt lat="44.469" lon="6.54891">
        <ele>1748</ele>
        <time>2021-04-08T06:58:57Z</time>
      </trkpt>
      <trkpt lat="44.46899" lon="6.54891">
        <ele>1748</ele>
        <time>2021-04-08T06:58:58Z</time>
      </trkpt>
      <trkpt lat="44.46899" lon="6.54892">
        <ele>1748</ele>
        <time>2021-04-08T06:58:59Z</time>
      </trkpt>
      <trkpt lat="44.46898" lon="6.54892">
        <ele>1748</ele>
        <time>2021-04-08T06:59:00Z</time>
      </trkpt>
      <trkpt lat="44.46897" lon="6.54892">
        <ele>1748</ele>
        <time>2021-04-08T06:59:01Z</time>
      </trkpt>
      <trkpt lat="44.46896" lon="6.54892">
        <ele>1749</ele>
        <time>2021-04-08T06:59:02Z</time>
      </trkpt>
      <trkpt lat="44.46895" lon="6.54892">
        <ele>1749</ele>
        <time>2021-04-08T06:59:03Z</time>
      </trkpt>
      <trkpt lat="44.46894" lon="6.54892">
        <ele>1749</ele>
        <time>2021-04-08T06:59:04Z</time>
      </trkpt>
      <trkpt lat="44.46894" lon="6.54892">
        <ele>1750</ele>
        <time>2021-04-08T06:59:05Z</time>
      </trkpt>
      <trkpt lat="44.46893" lon="6.54893">
        <ele>1750</ele>
        <time>2021-04-08T06:59:06Z</time>
      </trkpt>
      <trkpt lat="44.46893" lon="6.54892">
        <ele>1750</ele>
        <time>2021-04-08T06:59:07Z</time>
      </trkpt>
      <trkpt lat="44.46893" lon="6.54893">
        <ele>1750</ele>
        <time>2021-04-08T06:59:08Z</time>
      </trkpt>
      <trkpt lat="44.46892" lon="6.54893">
        <ele>1750</ele>
        <time>2021-04-08T06:59:09Z</time>
      </trkpt>
      <trkpt lat="44.46892" lon="6.54893">
        <ele>1751</ele>
        <time>2021-04-08T06:59:10Z</time>
      </trkpt>
      <trkpt lat="44.46891" lon="6.54893">
        <ele>1751</ele>
        <time>2021-04-08T06:59:11Z</time>
      </trkpt>
      <trkpt lat="44.46891" lon="6.54894">
        <ele>1751</ele>
        <time>2021-04-08T06:59:12Z</time>
      </trkpt>
      <trkpt lat="44.4689" lon="6.54894">
        <ele>1751</ele>
        <time>2021-04-08T06:59:13Z</time>
      </trkpt>
      <trkpt lat="44.4689" lon="6.54895">
        <ele>1751</ele>
        <time>2021-04-08T06:59:14Z</time>
      </trkpt>
      <trkpt lat="44.4689" lon="6.54895">
        <ele>1752</ele>
        <time>2021-04-08T06:59:15Z</time>
      </trkpt>
      <trkpt lat="44.4689" lon="6.54895">
        <ele>1752</ele>
        <time>2021-04-08T06:59:16Z</time>
      </trkpt>
      <trkpt lat="44.4689" lon="6.54895">
        <ele>1752</ele>
        <time>2021-04-08T06:59:17Z</time>
      </trkpt>
      <trkpt lat="44.4689" lon="6.54895">
        <ele>1752</ele>
        <time>2021-04-08T06:59:18Z</time>
      </trkpt>
      <trkpt lat="44.46889" lon="6.54896">
        <ele>1752</ele>
        <time>2021-04-08T06:59:19Z</time>
      </trkpt>
      <trkpt lat="44.46889" lon="6.54897">
        <ele>1752</ele>
        <time>2021-04-08T06:59:20Z</time>
      </trkpt>
      <trkpt lat="44.46889" lon="6.54898">
        <ele>1752</ele>
        <time>2021-04-08T06:59:21Z</time>
      </trkpt>
      <trkpt lat="44.46888" lon="6.54898">
        <ele>1753</ele>
        <time>2021-04-08T06:59:22Z</time>
      </trkpt>
      <trkpt lat="44.46887" lon="6.54899">
        <ele>1753</ele>
        <time>2021-04-08T06:59:23Z</time>
      </trkpt>
      <trkpt lat="44.46886" lon="6.549">
        <ele>1753</ele>
        <time>2021-04-08T06:59:24Z</time>
      </trkpt>
      <trkpt lat="44.46885" lon="6.54901">
        <ele>1753</ele>
        <time>2021-04-08T06:59:25Z</time>
      </trkpt>
      <trkpt lat="44.46885" lon="6.54902">
        <ele>1754</ele>
        <time>2021-04-08T06:59:26Z</time>
      </trkpt>
      <trkpt lat="44.46884" lon="6.54903">
        <ele>1754</ele>
        <time>2021-04-08T06:59:27Z</time>
      </trkpt>
      <trkpt lat="44.46884" lon="6.54903">
        <ele>1754</ele>
        <time>2021-04-08T06:59:28Z</time>
      </trkpt>
      <trkpt lat="44.46883" lon="6.54904">
        <ele>1754</ele>
        <time>2021-04-08T06:59:29Z</time>
      </trkpt>
      <trkpt lat="44.46883" lon="6.54906">
        <ele>1754</ele>
        <time>2021-04-08T06:59:30Z</time>
      </trkpt>
      <trkpt lat="44.46883" lon="6.54906">
        <ele>1755</ele>
        <time>2021-04-08T06:59:31Z</time>
      </trkpt>
      <trkpt lat="44.46882" lon="6.54907">
        <ele>1755</ele>
        <time>2021-04-08T06:59:32Z</time>
      </trkpt>
      <trkpt lat="44.46881" lon="6.54907">
        <ele>1755</ele>
        <time>2021-04-08T06:59:33Z</time>
      </trkpt>
      <trkpt lat="44.46881" lon="6.54908">
        <ele>1755</ele>
        <time>2021-04-08T06:59:34Z</time>
      </trkpt>
      <trkpt lat="44.4688" lon="6.54908">
        <ele>1755</ele>
        <time>2021-04-08T06:59:35Z</time>
      </trkpt>
      <trkpt lat="44.46879" lon="6.54909">
        <ele>1756</ele>
        <time>2021-04-08T06:59:36Z</time>
      </trkpt>
      <trkpt lat="44.46879" lon="6.54909">
        <ele>1756</ele>
        <time>2021-04-08T06:59:37Z</time>
      </trkpt>
      <trkpt lat="44.46878" lon="6.5491">
        <ele>1756</ele>
        <time>2021-04-08T06:59:38Z</time>
      </trkpt>
      <trkpt lat="44.46878" lon="6.5491">
        <ele>1756</ele>
        <time>2021-04-08T06:59:39Z</time>
      </trkpt>
      <trkpt lat="44.46877" lon="6.5491">
        <ele>1756</ele>
        <time>2021-04-08T06:59:40Z</time>
      </trkpt>
      <trkpt lat="44.46876" lon="6.54911">
        <ele>1756</ele>
        <time>2021-04-08T06:59:41Z</time>
      </trkpt>
      <trkpt lat="44.46876" lon="6.54912">
        <ele>1757</ele>
        <time>2021-04-08T06:59:42Z</time>
      </trkpt>
      <trkpt lat="44.46875" lon="6.54912">
        <ele>1757</ele>
        <time>2021-04-08T06:59:43Z</time>
      </trkpt>
      <trkpt lat="44.46875" lon="6.54913">
        <ele>1757</ele>
        <time>2021-04-08T06:59:44Z</time>
      </trkpt>
      <trkpt lat="44.46875" lon="6.54914">
        <ele>1758</ele>
        <time>2021-04-08T06:59:45Z</time>
      </trkpt>
      <trkpt lat="44.46874" lon="6.54914">
        <ele>1758</ele>
        <time>2021-04-08T06:59:46Z</time>
      </trkpt>
      <trkpt lat="44.46873" lon="6.54915">
        <ele>1758</ele>
        <time>2021-04-08T06:59:47Z</time>
      </trkpt>
      <trkpt lat="44.46872" lon="6.54914">
        <ele>1758</ele>
        <time>2021-04-08T06:59:48Z</time>
      </trkpt>
      <trkpt lat="44.46872" lon="6.54915">
        <ele>1759</ele>
        <time>2021-04-08T06:59:49Z</time>
      </trkpt>
      <trkpt lat="44.46871" lon="6.54915">
        <ele>1759</ele>
        <time>2021-04-08T06:59:50Z</time>
      </trkpt>
      <trkpt lat="44.4687" lon="6.54914">
        <ele>1759</ele>
        <time>2021-04-08T06:59:51Z</time>
      </trkpt>
      <trkpt lat="44.46869" lon="6.54915">
        <ele>1759</ele>
        <time>2021-04-08T06:59:52Z</time>
      </trkpt>
      <trkpt lat="44.46868" lon="6.54914">
        <ele>1760</ele>
        <time>2021-04-08T06:59:53Z</time>
      </trkpt>
      <trkpt lat="44.46867" lon="6.54915">
        <ele>1760</ele>
        <time>2021-04-08T06:59:54Z</time>
      </trkpt>
      <trkpt lat="44.46867" lon="6.54915">
        <ele>1760</ele>
        <time>2021-04-08T06:59:55Z</time>
      </trkpt>
      <trkpt lat="44.46866" lon="6.54915">
        <ele>1760</ele>
        <time>2021-04-08T06:59:56Z</time>
      </trkpt>
      <trkpt lat="44.46866" lon="6.54915">
        <ele>1760</ele>
        <time>2021-04-08T06:59:57Z</time>
      </trkpt>
      <trkpt lat="44.46865" lon="6.54916">
        <ele>1761</ele>
        <time>2021-04-08T06:59:58Z</time>
      </trkpt>
      <trkpt lat="44.46864" lon="6.54916">
        <ele>1761</ele>
        <time>2021-04-08T06:59:59Z</time>
      </trkpt>
      <trkpt lat="44.46864" lon="6.54917">
        <ele>1761</ele>
        <time>2021-04-08T07:00:00Z</time>
      </trkpt>
      <trkpt lat="44.46863" lon="6.54918">
        <ele>1761</ele>
        <time>2021-04-08T07:00:01Z</time>
      </trkpt>
      <trkpt lat="44.46863" lon="6.54918">
        <ele>1761</ele>
        <time>2021-04-08T07:00:02Z</time>
      </trkpt>
      <trkpt lat="44.46861" lon="6.54919">
        <ele>1762</ele>
        <time>2021-04-08T07:00:03Z</time>
      </trkpt>
      <trkpt lat="44.46861" lon="6.5492">
        <ele>1762</ele>
        <time>2021-04-08T07:00:04Z</time>
      </trkpt>
      <trkpt lat="44.4686" lon="6.54921">
        <ele>1762</ele>
        <time>2021-04-08T07:00:05Z</time>
      </trkpt>
      <trkpt lat="44.46859" lon="6.54921">
        <ele>1762</ele>
        <time>2021-04-08T07:00:06Z</time>
      </trkpt>
      <trkpt lat="44.46859" lon="6.54922">
        <ele>1763</ele>
        <time>2021-04-08T07:00:07Z</time>
      </trkpt>
      <trkpt lat="44.46858" lon="6.54923">
        <ele>1763</ele>
        <time>2021-04-08T07:00:08Z</time>
      </trkpt>
      <trkpt lat="44.46857" lon="6.54924">
        <ele>1763</ele>
        <time>2021-04-08T07:00:09Z</time>
      </trkpt>
      <trkpt lat="44.46857" lon="6.54924">
        <ele>1763</ele>
        <time>2021-04-08T07:00:10Z</time>
      </trkpt>
      <trkpt lat="44.46857" lon="6.54925">
        <ele>1763</ele>
        <time>2021-04-08T07:00:11Z</time>
      </trkpt>
      <trkpt lat="44.46857" lon="6.54926">
        <ele>1763</ele>
        <time>2021-04-08T07:00:12Z</time>
      </trkpt>
      <trkpt lat="44.46857" lon="6.54928">
        <ele>1763</ele>
        <time>2021-04-08T07:00:13Z</time>
      </trkpt>
      <trkpt lat="44.46857" lon="6.54929">
        <ele>1763</ele>
        <time>2021-04-08T07:00:14Z</time>
      </trkpt>
      <trkpt lat="44.46856" lon="6.54929">
        <ele>1762</ele>
        <time>2021-04-08T07:00:15Z</time>
      </trkpt>
      <trkpt lat="44.46856" lon="6.5493">
        <ele>1762</ele>
        <time>2021-04-08T07:00:16Z</time>
      </trkpt>
      <trkpt lat="44.46855" lon="6.5493">
        <ele>1762</ele>
        <time>2021-04-08T07:00:17Z</time>
      </trkpt>
      <trkpt lat="44.46854" lon="6.5493">
        <ele>1762</ele>
        <time>2021-04-08T07:00:18Z</time>
      </trkpt>
      <trkpt lat="44.46854" lon="6.54931">
        <ele>1762</ele>
        <time>2021-04-08T07:00:19Z</time>
      </trkpt>
      <trkpt lat="44.46854" lon="6.54931">
        <ele>1762</ele>
        <time>2021-04-08T07:00:20Z</time>
      </trkpt>
      <trkpt lat="44.46853" lon="6.54932">
        <ele>1762</ele>
        <time>2021-04-08T07:00:21Z</time>
      </trkpt>
      <trkpt lat="44.46852" lon="6.54932">
        <ele>1762</ele>
        <time>2021-04-08T07:00:22Z</time>
      </trkpt>
      <trkpt lat="44.46852" lon="6.54933">
        <ele>1762</ele>
        <time>2021-04-08T07:00:23Z</time>
      </trkpt>
      <trkpt lat="44.46852" lon="6.54934">
        <ele>1762</ele>
        <time>2021-04-08T07:00:24Z</time>
      </trkpt>
      <trkpt lat="44.46851" lon="6.54934">
        <ele>1762</ele>
        <time>2021-04-08T07:00:25Z</time>
      </trkpt>
      <trkpt lat="44.4685" lon="6.54935">
        <ele>1762</ele>
        <time>2021-04-08T07:00:26Z</time>
      </trkpt>
      <trkpt lat="44.46849" lon="6.54935">
        <ele>1763</ele>
        <time>2021-04-08T07:00:27Z</time>
      </trkpt>
      <trkpt lat="44.46849" lon="6.54936">
        <ele>1763</ele>
        <time>2021-04-08T07:00:28Z</time>
      </trkpt>
      <trkpt lat="44.46848" lon="6.54936">
        <ele>1764</ele>
        <time>2021-04-08T07:00:29Z</time>
      </trkpt>
      <trkpt lat="44.46848" lon="6.54936">
        <ele>1764</ele>
        <time>2021-04-08T07:00:30Z</time>
      </trkpt>
      <trkpt lat="44.46847" lon="6.54936">
        <ele>1764</ele>
        <time>2021-04-08T07:00:31Z</time>
      </trkpt>
      <trkpt lat="44.46846" lon="6.54936">
        <ele>1765</ele>
        <time>2021-04-08T07:00:32Z</time>
      </trkpt>
      <trkpt lat="44.46846" lon="6.54935">
        <ele>1765</ele>
        <time>2021-04-08T07:00:33Z</time>
      </trkpt>
      <trkpt lat="44.46845" lon="6.54936">
        <ele>1766</ele>
        <time>2021-04-08T07:00:34Z</time>
      </trkpt>
      <trkpt lat="44.46844" lon="6.54936">
        <ele>1766</ele>
        <time>2021-04-08T07:00:35Z</time>
      </trkpt>
      <trkpt lat="44.46844" lon="6.54936">
        <ele>1767</ele>
        <time>2021-04-08T07:00:36Z</time>
      </trkpt>
      <trkpt lat="44.46843" lon="6.54936">
        <ele>1767</ele>
        <time>2021-04-08T07:00:37Z</time>
      </trkpt>
      <trkpt lat="44.46843" lon="6.54936">
        <ele>1767</ele>
        <time>2021-04-08T07:00:38Z</time>
      </trkpt>
      <trkpt lat="44.46842" lon="6.54936">
        <ele>1767</ele>
        <time>2021-04-08T07:00:39Z</time>
      </trkpt>
      <trkpt lat="44.46841" lon="6.54936">
        <ele>1768</ele>
        <time>2021-04-08T07:00:40Z</time>
      </trkpt>
      <trkpt lat="44.46841" lon="6.54936">
        <ele>1768</ele>
        <time>2021-04-08T07:00:41Z</time>
      </trkpt>
      <trkpt lat="44.4684" lon="6.54936">
        <ele>1769</ele>
        <time>2021-04-08T07:00:42Z</time>
      </trkpt>
      <trkpt lat="44.46839" lon="6.54936">
        <ele>1769</ele>
        <time>2021-04-08T07:00:43Z</time>
      </trkpt>
      <trkpt lat="44.46839" lon="6.54936">
        <ele>1769</ele>
        <time>2021-04-08T07:00:44Z</time>
      </trkpt>
      <trkpt lat="44.46838" lon="6.54937">
        <ele>1770</ele>
        <time>2021-04-08T07:00:45Z</time>
      </trkpt>
      <trkpt lat="44.46838" lon="6.54937">
        <ele>1770</ele>
        <time>2021-04-08T07:00:46Z</time>
      </trkpt>
      <trkpt lat="44.46837" lon="6.54937">
        <ele>1770</ele>
        <time>2021-04-08T07:00:47Z</time>
      </trkpt>
      <trkpt lat="44.46836" lon="6.54937">
        <ele>1771</ele>
        <time>2021-04-08T07:00:48Z</time>
      </trkpt>
      <trkpt lat="44.46836" lon="6.54937">
        <ele>1771</ele>
        <time>2021-04-08T07:00:49Z</time>
      </trkpt>
      <trkpt lat="44.46835" lon="6.54936">
        <ele>1771</ele>
        <time>2021-04-08T07:00:50Z</time>
      </trkpt>
      <trkpt lat="44.46835" lon="6.54936">
        <ele>1772</ele>
        <time>2021-04-08T07:00:51Z</time>
      </trkpt>
      <trkpt lat="44.46834" lon="6.54935">
        <ele>1772</ele>
        <time>2021-04-08T07:00:52Z</time>
      </trkpt>
      <trkpt lat="44.46834" lon="6.54935">
        <ele>1772</ele>
        <time>2021-04-08T07:00:53Z</time>
      </trkpt>
      <trkpt lat="44.46833" lon="6.54935">
        <ele>1772</ele>
        <time>2021-04-08T07:00:54Z</time>
      </trkpt>
      <trkpt lat="44.46833" lon="6.54935">
        <ele>1772</ele>
        <time>2021-04-08T07:00:55Z</time>
      </trkpt>
      <trkpt lat="44.46832" lon="6.54935">
        <ele>1772</ele>
        <time>2021-04-08T07:00:56Z</time>
      </trkpt>
      <trkpt lat="44.46831" lon="6.54934">
        <ele>1772</ele>
        <time>2021-04-08T07:00:57Z</time>
      </trkpt>
      <trkpt lat="44.46831" lon="6.54934">
        <ele>1772</ele>
        <time>2021-04-08T07:00:58Z</time>
      </trkpt>
      <trkpt lat="44.4683" lon="6.54934">
        <ele>1773</ele>
        <time>2021-04-08T07:00:59Z</time>
      </trkpt>
      <trkpt lat="44.4683" lon="6.54933">
        <ele>1773</ele>
        <time>2021-04-08T07:01:00Z</time>
      </trkpt>
      <trkpt lat="44.46829" lon="6.54933">
        <ele>1773</ele>
        <time>2021-04-08T07:01:01Z</time>
      </trkpt>
      <trkpt lat="44.46829" lon="6.54933">
        <ele>1773</ele>
        <time>2021-04-08T07:01:02Z</time>
      </trkpt>
      <trkpt lat="44.46828" lon="6.54933">
        <ele>1773</ele>
        <time>2021-04-08T07:01:03Z</time>
      </trkpt>
      <trkpt lat="44.46827" lon="6.54932">
        <ele>1773</ele>
        <time>2021-04-08T07:01:04Z</time>
      </trkpt>
      <trkpt lat="44.46827" lon="6.54932">
        <ele>1773</ele>
        <time>2021-04-08T07:01:05Z</time>
      </trkpt>
      <trkpt lat="44.46826" lon="6.54932">
        <ele>1773</ele>
        <time>2021-04-08T07:01:06Z</time>
      </trkpt>
      <trkpt lat="44.46825" lon="6.54932">
        <ele>1773</ele>
        <time>2021-04-08T07:01:07Z</time>
      </trkpt>
      <trkpt lat="44.46825" lon="6.54932">
        <ele>1774</ele>
        <time>2021-04-08T07:01:08Z</time>
      </trkpt>
      <trkpt lat="44.46824" lon="6.54933">
        <ele>1774</ele>
        <time>2021-04-08T07:01:09Z</time>
      </trkpt>
      <trkpt lat="44.46824" lon="6.54933">
        <ele>1774</ele>
        <time>2021-04-08T07:01:10Z</time>
      </trkpt>
      <trkpt lat="44.46824" lon="6.54934">
        <ele>1775</ele>
        <time>2021-04-08T07:01:11Z</time>
      </trkpt>
      <trkpt lat="44.46823" lon="6.54935">
        <ele>1775</ele>
        <time>2021-04-08T07:01:12Z</time>
      </trkpt>
      <trkpt lat="44.46823" lon="6.54936">
        <ele>1775</ele>
        <time>2021-04-08T07:01:13Z</time>
      </trkpt>
      <trkpt lat="44.46823" lon="6.54937">
        <ele>1775</ele>
        <time>2021-04-08T07:01:14Z</time>
      </trkpt>
      <trkpt lat="44.46822" lon="6.54938">
        <ele>1775</ele>
        <time>2021-04-08T07:01:15Z</time>
      </trkpt>
      <trkpt lat="44.46822" lon="6.54939">
        <ele>1775</ele>
        <time>2021-04-08T07:01:16Z</time>
      </trkpt>
      <trkpt lat="44.46821" lon="6.5494">
        <ele>1775</ele>
        <time>2021-04-08T07:01:17Z</time>
      </trkpt>
      <trkpt lat="44.4682" lon="6.54941">
        <ele>1775</ele>
        <time>2021-04-08T07:01:18Z</time>
      </trkpt>
      <trkpt lat="44.4682" lon="6.54941">
        <ele>1775</ele>
        <time>2021-04-08T07:01:19Z</time>
      </trkpt>
      <trkpt lat="44.46819" lon="6.54942">
        <ele>1775</ele>
        <time>2021-04-08T07:01:20Z</time>
      </trkpt>
      <trkpt lat="44.46819" lon="6.54943">
        <ele>1775</ele>
        <time>2021-04-08T07:01:21Z</time>
      </trkpt>
      <trkpt lat="44.46818" lon="6.54944">
        <ele>1775</ele>
        <time>2021-04-08T07:01:22Z</time>
      </trkpt>
      <trkpt lat="44.46818" lon="6.54944">
        <ele>1776</ele>
        <time>2021-04-08T07:01:23Z</time>
      </trkpt>
      <trkpt lat="44.46817" lon="6.54944">
        <ele>1776</ele>
        <time>2021-04-08T07:01:24Z</time>
      </trkpt>
      <trkpt lat="44.46817" lon="6.54945">
        <ele>1776</ele>
        <time>2021-04-08T07:01:25Z</time>
      </trkpt>
      <trkpt lat="44.46817" lon="6.54944">
        <ele>1776</ele>
        <time>2021-04-08T07:01:26Z</time>
      </trkpt>
      <trkpt lat="44.46817" lon="6.54944">
        <ele>1777</ele>
        <time>2021-04-08T07:01:27Z</time>
      </trkpt>
      <trkpt lat="44.46816" lon="6.54944">
        <ele>1777</ele>
        <time>2021-04-08T07:01:28Z</time>
      </trkpt>
      <trkpt lat="44.46816" lon="6.54944">
        <ele>1777</ele>
        <time>2021-04-08T07:01:29Z</time>
      </trkpt>
      <trkpt lat="44.46817" lon="6.54945">
        <ele>1777</ele>
        <time>2021-04-08T07:01:30Z</time>
      </trkpt>
      <trkpt lat="44.46816" lon="6.54945">
        <ele>1777</ele>
        <time>2021-04-08T07:01:31Z</time>
      </trkpt>
      <trkpt lat="44.46815" lon="6.54945">
        <ele>1778</ele>
        <time>2021-04-08T07:01:32Z</time>
      </trkpt>
      <trkpt lat="44.46815" lon="6.54946">
        <ele>1778</ele>
        <time>2021-04-08T07:01:33Z</time>
      </trkpt>
      <trkpt lat="44.46815" lon="6.54946">
        <ele>1779</ele>
        <time>2021-04-08T07:01:34Z</time>
      </trkpt>
      <trkpt lat="44.46814" lon="6.54947">
        <ele>1779</ele>
        <time>2021-04-08T07:01:35Z</time>
      </trkpt>
      <trkpt lat="44.46814" lon="6.54947">
        <ele>1779</ele>
        <time>2021-04-08T07:01:36Z</time>
      </trkpt>
      <trkpt lat="44.46813" lon="6.54948">
        <ele>1779</ele>
        <time>2021-04-08T07:01:37Z</time>
      </trkpt>
      <trkpt lat="44.46813" lon="6.54949">
        <ele>1780</ele>
        <time>2021-04-08T07:01:38Z</time>
      </trkpt>
      <trkpt lat="44.46813" lon="6.5495">
        <ele>1780</ele>
        <time>2021-04-08T07:01:39Z</time>
      </trkpt>
      <trkpt lat="44.46813" lon="6.54951">
        <ele>1780</ele>
        <time>2021-04-08T07:01:40Z</time>
      </trkpt>
      <trkpt lat="44.46812" lon="6.54952">
        <ele>1780</ele>
        <time>2021-04-08T07:01:41Z</time>
      </trkpt>
      <trkpt lat="44.46812" lon="6.54953">
        <ele>1780</ele>
        <time>2021-04-08T07:01:42Z</time>
      </trkpt>
      <trkpt lat="44.46813" lon="6.54955">
        <ele>1780</ele>
        <time>2021-04-08T07:01:43Z</time>
      </trkpt>
      <trkpt lat="44.46813" lon="6.54956">
        <ele>1780</ele>
        <time>2021-04-08T07:01:44Z</time>
      </trkpt>
      <trkpt lat="44.46814" lon="6.54957">
        <ele>1780</ele>
        <time>2021-04-08T07:01:45Z</time>
      </trkpt>
      <trkpt lat="44.46814" lon="6.54958">
        <ele>1781</ele>
        <time>2021-04-08T07:01:46Z</time>
      </trkpt>
      <trkpt lat="44.46814" lon="6.54959">
        <ele>1781</ele>
        <time>2021-04-08T07:01:47Z</time>
      </trkpt>
      <trkpt lat="44.46814" lon="6.54961">
        <ele>1781</ele>
        <time>2021-04-08T07:01:48Z</time>
      </trkpt>
      <trkpt lat="44.46814" lon="6.54962">
        <ele>1781</ele>
        <time>2021-04-08T07:01:49Z</time>
      </trkpt>
      <trkpt lat="44.46814" lon="6.54962">
        <ele>1781</ele>
        <time>2021-04-08T07:01:50Z</time>
      </trkpt>
      <trkpt lat="44.46815" lon="6.54963">
        <ele>1781</ele>
        <time>2021-04-08T07:01:51Z</time>
      </trkpt>
      <trkpt lat="44.46816" lon="6.54965">
        <ele>1781</ele>
        <time>2021-04-08T07:01:52Z</time>
      </trkpt>
      <trkpt lat="44.46817" lon="6.54965">
        <ele>1781</ele>
        <time>2021-04-08T07:01:53Z</time>
      </trkpt>
      <trkpt lat="44.46818" lon="6.54967">
        <ele>1781</ele>
        <time>2021-04-08T07:01:54Z</time>
      </trkpt>
      <trkpt lat="44.46818" lon="6.54968">
        <ele>1781</ele>
        <time>2021-04-08T07:01:55Z</time>
      </trkpt>
      <trkpt lat="44.46819" lon="6.5497">
        <ele>1782</ele>
        <time>2021-04-08T07:01:56Z</time>
      </trkpt>
      <trkpt lat="44.4682" lon="6.54971">
        <ele>1782</ele>
        <time>2021-04-08T07:01:57Z</time>
      </trkpt>
      <trkpt lat="44.4682" lon="6.54973">
        <ele>1782</ele>
        <time>2021-04-08T07:01:58Z</time>
      </trkpt>
      <trkpt lat="44.4682" lon="6.54974">
        <ele>1782</ele>
        <time>2021-04-08T07:01:59Z</time>
      </trkpt>
      <trkpt lat="44.4682" lon="6.54975">
        <ele>1783</ele>
        <time>2021-04-08T07:02:00Z</time>
      </trkpt>
      <trkpt lat="44.4682" lon="6.54976">
        <ele>1783</ele>
        <time>2021-04-08T07:02:01Z</time>
      </trkpt>
      <trkpt lat="44.4682" lon="6.54977">
        <ele>1784</ele>
        <time>2021-04-08T07:02:02Z</time>
      </trkpt>
      <trkpt lat="44.4682" lon="6.54977">
        <ele>1784</ele>
        <time>2021-04-08T07:02:03Z</time>
      </trkpt>
      <trkpt lat="44.46819" lon="6.54978">
        <ele>1784</ele>
        <time>2021-04-08T07:02:04Z</time>
      </trkpt>
      <trkpt lat="44.4682" lon="6.54979">
        <ele>1784</ele>
        <time>2021-04-08T07:02:05Z</time>
      </trkpt>
      <trkpt lat="44.46819" lon="6.54979">
        <ele>1784</ele>
        <time>2021-04-08T07:02:06Z</time>
      </trkpt>
      <trkpt lat="44.46819" lon="6.5498">
        <ele>1784</ele>
        <time>2021-04-08T07:02:07Z</time>
      </trkpt>
      <trkpt lat="44.46818" lon="6.54979">
        <ele>1785</ele>
        <time>2021-04-08T07:02:08Z</time>
      </trkpt>
      <trkpt lat="44.46818" lon="6.5498">
        <ele>1785</ele>
        <time>2021-04-08T07:02:09Z</time>
      </trkpt>
      <trkpt lat="44.46818" lon="6.5498">
        <ele>1785</ele>
        <time>2021-04-08T07:02:10Z</time>
      </trkpt>
      <trkpt lat="44.46817" lon="6.54979">
        <ele>1785</ele>
        <time>2021-04-08T07:02:11Z</time>
      </trkpt>
      <trkpt lat="44.46817" lon="6.5498">
        <ele>1785</ele>
        <time>2021-04-08T07:02:12Z</time>
      </trkpt>
      <trkpt lat="44.46816" lon="6.5498">
        <ele>1785</ele>
        <time>2021-04-08T07:02:13Z</time>
      </trkpt>
      <trkpt lat="44.46816" lon="6.5498">
        <ele>1785</ele>
        <time>2021-04-08T07:02:14Z</time>
      </trkpt>
      <trkpt lat="44.46816" lon="6.5498">
        <ele>1785</ele>
        <time>2021-04-08T07:02:15Z</time>
      </trkpt>
      <trkpt lat="44.46815" lon="6.54979">
        <ele>1785</ele>
        <time>2021-04-08T07:02:16Z</time>
      </trkpt>
      <trkpt lat="44.46815" lon="6.54979">
        <ele>1785</ele>
        <time>2021-04-08T07:02:17Z</time>
      </trkpt>
      <trkpt lat="44.46814" lon="6.54979">
        <ele>1784</ele>
        <time>2021-04-08T07:02:18Z</time>
      </trkpt>
      <trkpt lat="44.46814" lon="6.5498">
        <ele>1784</ele>
        <time>2021-04-08T07:02:19Z</time>
      </trkpt>
      <trkpt lat="44.46813" lon="6.5498">
        <ele>1784</ele>
        <time>2021-04-08T07:02:20Z</time>
      </trkpt>
      <trkpt lat="44.46813" lon="6.5498">
        <ele>1784</ele>
        <time>2021-04-08T07:02:21Z</time>
      </trkpt>
      <trkpt lat="44.46813" lon="6.5498">
        <ele>1784</ele>
        <time>2021-04-08T07:02:22Z</time>
      </trkpt>
      <trkpt lat="44.46813" lon="6.5498">
        <ele>1784</ele>
        <time>2021-04-08T07:02:23Z</time>
      </trkpt>
      <trkpt lat="44.46813" lon="6.5498">
        <ele>1784</ele>
        <time>2021-04-08T07:02:24Z</time>
      </trkpt>
      <trkpt lat="44.46813" lon="6.5498">
        <ele>1784</ele>
        <time>2021-04-08T07:02:25Z</time>
      </trkpt>
      <trkpt lat="44.46812" lon="6.5498">
        <ele>1784</ele>
        <time>2021-04-08T07:02:26Z</time>
      </trkpt>
      <trkpt lat="44.46811" lon="6.54979">
        <ele>1784</ele>
        <time>2021-04-08T07:02:27Z</time>
      </trkpt>
      <trkpt lat="44.4681" lon="6.54979">
        <ele>1784</ele>
        <time>2021-04-08T07:02:28Z</time>
      </trkpt>
      <trkpt lat="44.4681" lon="6.54977">
        <ele>1784</ele>
        <time>2021-04-08T07:02:29Z</time>
      </trkpt>
      <trkpt lat="44.46809" lon="6.54976">
        <ele>1784</ele>
        <time>2021-04-08T07:02:30Z</time>
      </trkpt>
      <trkpt lat="44.46809" lon="6.54975">
        <ele>1784</ele>
        <time>2021-04-08T07:02:31Z</time>
      </trkpt>
      <trkpt lat="44.46809" lon="6.54974">
        <ele>1784</ele>
        <time>2021-04-08T07:02:32Z</time>
      </trkpt>
      <trkpt lat="44.46808" lon="6.54974">
        <ele>1784</ele>
        <time>2021-04-08T07:02:33Z</time>
      </trkpt>
      <trkpt lat="44.46808" lon="6.54973">
        <ele>1784</ele>
        <time>2021-04-08T07:02:34Z</time>
      </trkpt>
      <trkpt lat="44.46808" lon="6.54973">
        <ele>1785</ele>
        <time>2021-04-08T07:02:35Z</time>
      </trkpt>
      <trkpt lat="44.46807" lon="6.54973">
        <ele>1785</ele>
        <time>2021-04-08T07:02:36Z</time>
      </trkpt>
      <trkpt lat="44.46807" lon="6.54972">
        <ele>1785</ele>
        <time>2021-04-08T07:02:37Z</time>
      </trkpt>
      <trkpt lat="44.46807" lon="6.54972">
        <ele>1785</ele>
        <time>2021-04-08T07:02:38Z</time>
      </trkpt>
      <trkpt lat="44.46806" lon="6.54972">
        <ele>1785</ele>
        <time>2021-04-08T07:02:39Z</time>
      </trkpt>
      <trkpt lat="44.46806" lon="6.54971">
        <ele>1785</ele>
        <time>2021-04-08T07:02:40Z</time>
      </trkpt>
      <trkpt lat="44.46805" lon="6.54971">
        <ele>1785</ele>
        <time>2021-04-08T07:02:41Z</time>
      </trkpt>
      <trkpt lat="44.46804" lon="6.5497">
        <ele>1785</ele>
        <time>2021-04-08T07:02:42Z</time>
      </trkpt>
      <trkpt lat="44.46804" lon="6.54971">
        <ele>1785</ele>
        <time>2021-04-08T07:02:43Z</time>
      </trkpt>
      <trkpt lat="44.46803" lon="6.5497">
        <ele>1785</ele>
        <time>2021-04-08T07:02:44Z</time>
      </trkpt>
      <trkpt lat="44.46802" lon="6.54971">
        <ele>1785</ele>
        <time>2021-04-08T07:02:45Z</time>
      </trkpt>
      <trkpt lat="44.46803" lon="6.54971">
        <ele>1785</ele>
        <time>2021-04-08T07:02:46Z</time>
      </trkpt>
      <trkpt lat="44.46803" lon="6.54973">
        <ele>1785</ele>
        <time>2021-04-08T07:02:47Z</time>
      </trkpt>
      <trkpt lat="44.46802" lon="6.54975">
        <ele>1785</ele>
        <time>2021-04-08T07:02:48Z</time>
      </trkpt>
      <trkpt lat="44.46802" lon="6.54976">
        <ele>1786</ele>
        <time>2021-04-08T07:02:49Z</time>
      </trkpt>
      <trkpt lat="44.46802" lon="6.54977">
        <ele>1786</ele>
        <time>2021-04-08T07:02:50Z</time>
      </trkpt>
      <trkpt lat="44.46802" lon="6.54977">
        <ele>1786</ele>
        <time>2021-04-08T07:02:51Z</time>
      </trkpt>
      <trkpt lat="44.46802" lon="6.54979">
        <ele>1786</ele>
        <time>2021-04-08T07:02:52Z</time>
      </trkpt>
      <trkpt lat="44.46802" lon="6.54979">
        <ele>1786</ele>
        <time>2021-04-08T07:02:53Z</time>
      </trkpt>
      <trkpt lat="44.46802" lon="6.5498">
        <ele>1786</ele>
        <time>2021-04-08T07:02:54Z</time>
      </trkpt>
      <trkpt lat="44.46802" lon="6.5498">
        <ele>1786</ele>
        <time>2021-04-08T07:02:55Z</time>
      </trkpt>
      <trkpt lat="44.46802" lon="6.54981">
        <ele>1786</ele>
        <time>2021-04-08T07:02:56Z</time>
      </trkpt>
      <trkpt lat="44.46802" lon="6.54981">
        <ele>1786</ele>
        <time>2021-04-08T07:02:57Z</time>
      </trkpt>
      <trkpt lat="44.46801" lon="6.54981">
        <ele>1786</ele>
        <time>2021-04-08T07:02:58Z</time>
      </trkpt>
      <trkpt lat="44.46801" lon="6.54981">
        <ele>1786</ele>
        <time>2021-04-08T07:02:59Z</time>
      </trkpt>
      <trkpt lat="44.468" lon="6.54981">
        <ele>1786</ele>
        <time>2021-04-08T07:03:00Z</time>
      </trkpt>
      <trkpt lat="44.468" lon="6.5498">
        <ele>1786</ele>
        <time>2021-04-08T07:03:01Z</time>
      </trkpt>
      <trkpt lat="44.46799" lon="6.5498">
        <ele>1785</ele>
        <time>2021-04-08T07:03:02Z</time>
      </trkpt>
      <trkpt lat="44.46799" lon="6.5498">
        <ele>1785</ele>
        <time>2021-04-08T07:03:03Z</time>
      </trkpt>
      <trkpt lat="44.46798" lon="6.5498">
        <ele>1785</ele>
        <time>2021-04-08T07:03:04Z</time>
      </trkpt>
      <trkpt lat="44.46797" lon="6.5498">
        <ele>1784</ele>
        <time>2021-04-08T07:03:05Z</time>
      </trkpt>
      <trkpt lat="44.46797" lon="6.5498">
        <ele>1784</ele>
        <time>2021-04-08T07:03:06Z</time>
      </trkpt>
      <trkpt lat="44.46796" lon="6.54979">
        <ele>1784</ele>
        <time>2021-04-08T07:03:07Z</time>
      </trkpt>
      <trkpt lat="44.46795" lon="6.54979">
        <ele>1783</ele>
        <time>2021-04-08T07:03:08Z</time>
      </trkpt>
      <trkpt lat="44.46795" lon="6.54978">
        <ele>1783</ele>
        <time>2021-04-08T07:03:09Z</time>
      </trkpt>
      <trkpt lat="44.46794" lon="6.54978">
        <ele>1783</ele>
        <time>2021-04-08T07:03:10Z</time>
      </trkpt>
      <trkpt lat="44.46794" lon="6.54977">
        <ele>1783</ele>
        <time>2021-04-08T07:03:11Z</time>
      </trkpt>
      <trkpt lat="44.46793" lon="6.54977">
        <ele>1782</ele>
        <time>2021-04-08T07:03:12Z</time>
      </trkpt>
      <trkpt lat="44.46793" lon="6.54976">
        <ele>1782</ele>
        <time>2021-04-08T07:03:13Z</time>
      </trkpt>
      <trkpt lat="44.46792" lon="6.54975">
        <ele>1782</ele>
        <time>2021-04-08T07:03:14Z</time>
      </trkpt>
      <trkpt lat="44.46791" lon="6.54974">
        <ele>1782</ele>
        <time>2021-04-08T07:03:15Z</time>
      </trkpt>
      <trkpt lat="44.4679" lon="6.54973">
        <ele>1781</ele>
        <time>2021-04-08T07:03:16Z</time>
      </trkpt>
      <trkpt lat="44.4679" lon="6.54972">
        <ele>1781</ele>
        <time>2021-04-08T07:03:17Z</time>
      </trkpt>
      <trkpt lat="44.4679" lon="6.54971">
        <ele>1781</ele>
        <time>2021-04-08T07:03:18Z</time>
      </trkpt>
      <trkpt lat="44.46789" lon="6.5497">
        <ele>1781</ele>
        <time>2021-04-08T07:03:19Z</time>
      </trkpt>
      <trkpt lat="44.46789" lon="6.5497">
        <ele>1781</ele>
        <time>2021-04-08T07:03:20Z</time>
      </trkpt>
      <trkpt lat="44.46789" lon="6.54969">
        <ele>1781</ele>
        <time>2021-04-08T07:03:21Z</time>
      </trkpt>
      <trkpt lat="44.46788" lon="6.54968">
        <ele>1781</ele>
        <time>2021-04-08T07:03:22Z</time>
      </trkpt>
      <trkpt lat="44.46788" lon="6.54968">
        <ele>1780</ele>
        <time>2021-04-08T07:03:23Z</time>
      </trkpt>
      <trkpt lat="44.46788" lon="6.54968">
        <ele>1780</ele>
        <time>2021-04-08T07:03:24Z</time>
      </trkpt>
      <trkpt lat="44.46787" lon="6.54967">
        <ele>1780</ele>
        <time>2021-04-08T07:03:25Z</time>
      </trkpt>
      <trkpt lat="44.46787" lon="6.54967">
        <ele>1780</ele>
        <time>2021-04-08T07:03:26Z</time>
      </trkpt>
      <trkpt lat="44.46786" lon="6.54966">
        <ele>1780</ele>
        <time>2021-04-08T07:03:27Z</time>
      </trkpt>
      <trkpt lat="44.46786" lon="6.54966">
        <ele>1781</ele>
        <time>2021-04-08T07:03:28Z</time>
      </trkpt>
      <trkpt lat="44.46785" lon="6.54966">
        <ele>1781</ele>
        <time>2021-04-08T07:03:29Z</time>
      </trkpt>
      <trkpt lat="44.46785" lon="6.54965">
        <ele>1781</ele>
        <time>2021-04-08T07:03:30Z</time>
      </trkpt>
      <trkpt lat="44.46784" lon="6.54966">
        <ele>1781</ele>
        <time>2021-04-08T07:03:31Z</time>
      </trkpt>
      <trkpt lat="44.46784" lon="6.54965">
        <ele>1781</ele>
        <time>2021-04-08T07:03:32Z</time>
      </trkpt>
      <trkpt lat="44.46784" lon="6.54965">
        <ele>1781</ele>
        <time>2021-04-08T07:03:33Z</time>
      </trkpt>
      <trkpt lat="44.46783" lon="6.54965">
        <ele>1781</ele>
        <time>2021-04-08T07:03:34Z</time>
      </trkpt>
      <trkpt lat="44.46783" lon="6.54964">
        <ele>1781</ele>
        <time>2021-04-08T07:03:35Z</time>
      </trkpt>
      <trkpt lat="44.46782" lon="6.54964">
        <ele>1781</ele>
        <time>2021-04-08T07:03:36Z</time>
      </trkpt>
      <trkpt lat="44.46782" lon="6.54964">
        <ele>1782</ele>
        <time>2021-04-08T07:03:37Z</time>
      </trkpt>
      <trkpt lat="44.46782" lon="6.54964">
        <ele>1782</ele>
        <time>2021-04-08T07:03:38Z</time>
      </trkpt>
      <trkpt lat="44.46782" lon="6.54964">
        <ele>1782</ele>
        <time>2021-04-08T07:03:39Z</time>
      </trkpt>
      <trkpt lat="44.46782" lon="6.54964">
        <ele>1782</ele>
        <time>2021-04-08T07:03:40Z</time>
      </trkpt>
      <trkpt lat="44.46782" lon="6.54964">
        <ele>1782</ele>
        <time>2021-04-08T07:03:41Z</time>
      </trkpt>
      <trkpt lat="44.46782" lon="6.54964">
        <ele>1782</ele>
        <time>2021-04-08T07:03:42Z</time>
      </trkpt>
      <trkpt lat="44.46781" lon="6.54964">
        <ele>1782</ele>
        <time>2021-04-08T07:03:43Z</time>
      </trkpt>
      <trkpt lat="44.46781" lon="6.54964">
        <ele>1782</ele>
        <time>2021-04-08T07:03:44Z</time>
      </trkpt>
      <trkpt lat="44.4678" lon="6.54963">
        <ele>1782</ele>
        <time>2021-04-08T07:03:45Z</time>
      </trkpt>
      <trkpt lat="44.4678" lon="6.54963">
        <ele>1782</ele>
        <time>2021-04-08T07:03:46Z</time>
      </trkpt>
      <trkpt lat="44.46783" lon="6.5496">
        <ele>1783</ele>
        <time>2021-04-08T07:03:47Z</time>
      </trkpt>
      <trkpt lat="44.46782" lon="6.5496">
        <ele>1783</ele>
        <time>2021-04-08T07:03:48Z</time>
      </trkpt>
      <trkpt lat="44.46782" lon="6.5496">
        <ele>1783</ele>
        <time>2021-04-08T07:03:49Z</time>
      </trkpt>
      <trkpt lat="44.46782" lon="6.5496">
        <ele>1784</ele>
        <time>2021-04-08T07:03:50Z</time>
      </trkpt>
      <trkpt lat="44.46782" lon="6.5496">
        <ele>1784</ele>
        <time>2021-04-08T07:03:51Z</time>
      </trkpt>
      <trkpt lat="44.46782" lon="6.5496">
        <ele>1784</ele>
        <time>2021-04-08T07:03:52Z</time>
      </trkpt>
      <trkpt lat="44.46782" lon="6.5496">
        <ele>1784</ele>
        <time>2021-04-08T07:03:53Z</time>
      </trkpt>
      <trkpt lat="44.46782" lon="6.5496">
        <ele>1787</ele>
        <time>2021-04-08T07:03:54Z</time>
      </trkpt>
      <trkpt lat="44.46782" lon="6.5496">
        <ele>1787</ele>
        <time>2021-04-08T07:03:55Z</time>
      </trkpt>
      <trkpt lat="44.46782" lon="6.5496">
        <ele>1788</ele>
        <time>2021-04-08T07:03:56Z</time>
      </trkpt>
      <trkpt lat="44.46782" lon="6.5496">
        <ele>1788</ele>
        <time>2021-04-08T07:03:57Z</time>
      </trkpt>
      <trkpt lat="44.4678" lon="6.54962">
        <ele>1788</ele>
        <time>2021-04-08T07:03:58Z</time>
      </trkpt>
      <trkpt lat="44.4678" lon="6.54963">
        <ele>1789</ele>
        <time>2021-04-08T07:03:59Z</time>
      </trkpt>
      <trkpt lat="44.46779" lon="6.54964">
        <ele>1789</ele>
        <time>2021-04-08T07:04:00Z</time>
      </trkpt>
      <trkpt lat="44.46778" lon="6.54966">
        <ele>1789</ele>
        <time>2021-04-08T07:04:01Z</time>
      </trkpt>
      <trkpt lat="44.46778" lon="6.54967">
        <ele>1790</ele>
        <time>2021-04-08T07:04:02Z</time>
      </trkpt>
      <trkpt lat="44.46777" lon="6.54968">
        <ele>1790</ele>
        <time>2021-04-08T07:04:03Z</time>
      </trkpt>
      <trkpt lat="44.46777" lon="6.54969">
        <ele>1790</ele>
        <time>2021-04-08T07:04:04Z</time>
      </trkpt>
      <trkpt lat="44.46777" lon="6.5497">
        <ele>1790</ele>
        <time>2021-04-08T07:04:05Z</time>
      </trkpt>
      <trkpt lat="44.46777" lon="6.54971">
        <ele>1790</ele>
        <time>2021-04-08T07:04:06Z</time>
      </trkpt>
      <trkpt lat="44.46777" lon="6.54972">
        <ele>1791</ele>
        <time>2021-04-08T07:04:07Z</time>
      </trkpt>
      <trkpt lat="44.46777" lon="6.54974">
        <ele>1791</ele>
        <time>2021-04-08T07:04:08Z</time>
      </trkpt>
      <trkpt lat="44.46777" lon="6.54975">
        <ele>1791</ele>
        <time>2021-04-08T07:04:09Z</time>
      </trkpt>
      <trkpt lat="44.46776" lon="6.54975">
        <ele>1791</ele>
        <time>2021-04-08T07:04:10Z</time>
      </trkpt>
      <trkpt lat="44.46776" lon="6.54976">
        <ele>1791</ele>
        <time>2021-04-08T07:04:11Z</time>
      </trkpt>
      <trkpt lat="44.46776" lon="6.54977">
        <ele>1792</ele>
        <time>2021-04-08T07:04:12Z</time>
      </trkpt>
      <trkpt lat="44.46776" lon="6.54978">
        <ele>1792</ele>
        <time>2021-04-08T07:04:13Z</time>
      </trkpt>
      <trkpt lat="44.46775" lon="6.54979">
        <ele>1792</ele>
        <time>2021-04-08T07:04:14Z</time>
      </trkpt>
      <trkpt lat="44.46776" lon="6.54979">
        <ele>1792</ele>
        <time>2021-04-08T07:04:15Z</time>
      </trkpt>
      <trkpt lat="44.46776" lon="6.5498">
        <ele>1792</ele>
        <time>2021-04-08T07:04:16Z</time>
      </trkpt>
      <trkpt lat="44.46776" lon="6.54981">
        <ele>1793</ele>
        <time>2021-04-08T07:04:17Z</time>
      </trkpt>
      <trkpt lat="44.46776" lon="6.54982">
        <ele>1793</ele>
        <time>2021-04-08T07:04:18Z</time>
      </trkpt>
      <trkpt lat="44.46775" lon="6.54983">
        <ele>1793</ele>
        <time>2021-04-08T07:04:19Z</time>
      </trkpt>
      <trkpt lat="44.46775" lon="6.54984">
        <ele>1794</ele>
        <time>2021-04-08T07:04:20Z</time>
      </trkpt>
      <trkpt lat="44.46775" lon="6.54985">
        <ele>1794</ele>
        <time>2021-04-08T07:04:21Z</time>
      </trkpt>
      <trkpt lat="44.46775" lon="6.54986">
        <ele>1794</ele>
        <time>2021-04-08T07:04:22Z</time>
      </trkpt>
      <trkpt lat="44.46775" lon="6.54986">
        <ele>1795</ele>
        <time>2021-04-08T07:04:23Z</time>
      </trkpt>
      <trkpt lat="44.46775" lon="6.54987">
        <ele>1795</ele>
        <time>2021-04-08T07:04:24Z</time>
      </trkpt>
      <trkpt lat="44.46775" lon="6.54987">
        <ele>1795</ele>
        <time>2021-04-08T07:04:25Z</time>
      </trkpt>
      <trkpt lat="44.46775" lon="6.54987">
        <ele>1795</ele>
        <time>2021-04-08T07:04:26Z</time>
      </trkpt>
      <trkpt lat="44.46775" lon="6.54987">
        <ele>1795</ele>
        <time>2021-04-08T07:04:27Z</time>
      </trkpt>
      <trkpt lat="44.46774" lon="6.54987">
        <ele>1796</ele>
        <time>2021-04-08T07:04:28Z</time>
      </trkpt>
      <trkpt lat="44.46774" lon="6.54986">
        <ele>1796</ele>
        <time>2021-04-08T07:04:29Z</time>
      </trkpt>
      <trkpt lat="44.46773" lon="6.54986">
        <ele>1796</ele>
        <time>2021-04-08T07:04:30Z</time>
      </trkpt>
      <trkpt lat="44.46773" lon="6.54985">
        <ele>1796</ele>
        <time>2021-04-08T07:04:31Z</time>
      </trkpt>
      <trkpt lat="44.46772" lon="6.54984">
        <ele>1796</ele>
        <time>2021-04-08T07:04:32Z</time>
      </trkpt>
      <trkpt lat="44.46772" lon="6.54983">
        <ele>1797</ele>
        <time>2021-04-08T07:04:33Z</time>
      </trkpt>
      <trkpt lat="44.46772" lon="6.54983">
        <ele>1798</ele>
        <time>2021-04-08T07:04:34Z</time>
      </trkpt>
      <trkpt lat="44.46772" lon="6.54982">
        <ele>1798</ele>
        <time>2021-04-08T07:04:35Z</time>
      </trkpt>
      <trkpt lat="44.46771" lon="6.54982">
        <ele>1798</ele>
        <time>2021-04-08T07:04:36Z</time>
      </trkpt>
      <trkpt lat="44.46771" lon="6.54981">
        <ele>1798</ele>
        <time>2021-04-08T07:04:37Z</time>
      </trkpt>
      <trkpt lat="44.46771" lon="6.54981">
        <ele>1798</ele>
        <time>2021-04-08T07:04:38Z</time>
      </trkpt>
      <trkpt lat="44.46771" lon="6.5498">
        <ele>1798</ele>
        <time>2021-04-08T07:04:39Z</time>
      </trkpt>
      <trkpt lat="44.4677" lon="6.5498">
        <ele>1799</ele>
        <time>2021-04-08T07:04:40Z</time>
      </trkpt>
      <trkpt lat="44.4677" lon="6.5498">
        <ele>1799</ele>
        <time>2021-04-08T07:04:41Z</time>
      </trkpt>
      <trkpt lat="44.46769" lon="6.54979">
        <ele>1799</ele>
        <time>2021-04-08T07:04:42Z</time>
      </trkpt>
      <trkpt lat="44.46768" lon="6.54978">
        <ele>1800</ele>
        <time>2021-04-08T07:04:43Z</time>
      </trkpt>
      <trkpt lat="44.46768" lon="6.54978">
        <ele>1800</ele>
        <time>2021-04-08T07:04:44Z</time>
      </trkpt>
      <trkpt lat="44.46767" lon="6.54977">
        <ele>1800</ele>
        <time>2021-04-08T07:04:45Z</time>
      </trkpt>
      <trkpt lat="44.46766" lon="6.54977">
        <ele>1800</ele>
        <time>2021-04-08T07:04:46Z</time>
      </trkpt>
      <trkpt lat="44.46766" lon="6.54977">
        <ele>1800</ele>
        <time>2021-04-08T07:04:47Z</time>
      </trkpt>
      <trkpt lat="44.46766" lon="6.54976">
        <ele>1800</ele>
        <time>2021-04-08T07:04:48Z</time>
      </trkpt>
      <trkpt lat="44.46765" lon="6.54975">
        <ele>1800</ele>
        <time>2021-04-08T07:04:49Z</time>
      </trkpt>
      <trkpt lat="44.46765" lon="6.54974">
        <ele>1800</ele>
        <time>2021-04-08T07:04:50Z</time>
      </trkpt>
      <trkpt lat="44.46764" lon="6.54974">
        <ele>1801</ele>
        <time>2021-04-08T07:04:51Z</time>
      </trkpt>
      <trkpt lat="44.46764" lon="6.54973">
        <ele>1801</ele>
        <time>2021-04-08T07:04:52Z</time>
      </trkpt>
      <trkpt lat="44.46763" lon="6.54973">
        <ele>1801</ele>
        <time>2021-04-08T07:04:53Z</time>
      </trkpt>
      <trkpt lat="44.46763" lon="6.54972">
        <ele>1801</ele>
        <time>2021-04-08T07:04:54Z</time>
      </trkpt>
      <trkpt lat="44.46762" lon="6.54972">
        <ele>1801</ele>
        <time>2021-04-08T07:04:55Z</time>
      </trkpt>
      <trkpt lat="44.46762" lon="6.54972">
        <ele>1801</ele>
        <time>2021-04-08T07:04:56Z</time>
      </trkpt>
      <trkpt lat="44.46761" lon="6.54972">
        <ele>1801</ele>
        <time>2021-04-08T07:04:57Z</time>
      </trkpt>
      <trkpt lat="44.46761" lon="6.54972">
        <ele>1801</ele>
        <time>2021-04-08T07:04:58Z</time>
      </trkpt>
      <trkpt lat="44.46761" lon="6.54972">
        <ele>1802</ele>
        <time>2021-04-08T07:04:59Z</time>
      </trkpt>
      <trkpt lat="44.4676" lon="6.54973">
        <ele>1802</ele>
        <time>2021-04-08T07:05:00Z</time>
      </trkpt>
      <trkpt lat="44.4676" lon="6.54972">
        <ele>1802</ele>
        <time>2021-04-08T07:05:01Z</time>
      </trkpt>
      <trkpt lat="44.46759" lon="6.54972">
        <ele>1802</ele>
        <time>2021-04-08T07:05:02Z</time>
      </trkpt>
      <trkpt lat="44.46758" lon="6.54971">
        <ele>1802</ele>
        <time>2021-04-08T07:05:03Z</time>
      </trkpt>
      <trkpt lat="44.46757" lon="6.54971">
        <ele>1802</ele>
        <time>2021-04-08T07:05:04Z</time>
      </trkpt>
      <trkpt lat="44.46756" lon="6.54971">
        <ele>1803</ele>
        <time>2021-04-08T07:05:05Z</time>
      </trkpt>
      <trkpt lat="44.46756" lon="6.54971">
        <ele>1803</ele>
        <time>2021-04-08T07:05:06Z</time>
      </trkpt>
      <trkpt lat="44.46756" lon="6.54971">
        <ele>1803</ele>
        <time>2021-04-08T07:05:07Z</time>
      </trkpt>
      <trkpt lat="44.46755" lon="6.54972">
        <ele>1803</ele>
        <time>2021-04-08T07:05:08Z</time>
      </trkpt>
      <trkpt lat="44.46755" lon="6.54973">
        <ele>1803</ele>
        <time>2021-04-08T07:05:09Z</time>
      </trkpt>
      <trkpt lat="44.46754" lon="6.54974">
        <ele>1803</ele>
        <time>2021-04-08T07:05:10Z</time>
      </trkpt>
      <trkpt lat="44.46754" lon="6.54974">
        <ele>1803</ele>
        <time>2021-04-08T07:05:11Z</time>
      </trkpt>
      <trkpt lat="44.46754" lon="6.54975">
        <ele>1804</ele>
        <time>2021-04-08T07:05:12Z</time>
      </trkpt>
      <trkpt lat="44.46753" lon="6.54977">
        <ele>1804</ele>
        <time>2021-04-08T07:05:13Z</time>
      </trkpt>
      <trkpt lat="44.46753" lon="6.54977">
        <ele>1804</ele>
        <time>2021-04-08T07:05:14Z</time>
      </trkpt>
      <trkpt lat="44.46753" lon="6.54978">
        <ele>1804</ele>
        <time>2021-04-08T07:05:15Z</time>
      </trkpt>
      <trkpt lat="44.46753" lon="6.54979">
        <ele>1804</ele>
        <time>2021-04-08T07:05:16Z</time>
      </trkpt>
      <trkpt lat="44.46753" lon="6.54979">
        <ele>1804</ele>
        <time>2021-04-08T07:05:17Z</time>
      </trkpt>
      <trkpt lat="44.46753" lon="6.54979">
        <ele>1804</ele>
        <time>2021-04-08T07:05:18Z</time>
      </trkpt>
      <trkpt lat="44.46753" lon="6.54979">
        <ele>1804</ele>
        <time>2021-04-08T07:05:19Z</time>
      </trkpt>
      <trkpt lat="44.46753" lon="6.5498">
        <ele>1804</ele>
        <time>2021-04-08T07:05:20Z</time>
      </trkpt>
      <trkpt lat="44.46753" lon="6.5498">
        <ele>1804</ele>
        <time>2021-04-08T07:05:21Z</time>
      </trkpt>
      <trkpt lat="44.46753" lon="6.54981">
        <ele>1804</ele>
        <time>2021-04-08T07:05:22Z</time>
      </trkpt>
      <trkpt lat="44.46753" lon="6.54981">
        <ele>1804</ele>
        <time>2021-04-08T07:05:23Z</time>
      </trkpt>
      <trkpt lat="44.46753" lon="6.54981">
        <ele>1804</ele>
        <time>2021-04-08T07:05:24Z</time>
      </trkpt>
      <trkpt lat="44.46753" lon="6.54981">
        <ele>1805</ele>
        <time>2021-04-08T07:05:25Z</time>
      </trkpt>
      <trkpt lat="44.46753" lon="6.54981">
        <ele>1805</ele>
        <time>2021-04-08T07:05:26Z</time>
      </trkpt>
      <trkpt lat="44.46753" lon="6.54981">
        <ele>1805</ele>
        <time>2021-04-08T07:05:27Z</time>
      </trkpt>
      <trkpt lat="44.46753" lon="6.54981">
        <ele>1805</ele>
        <time>2021-04-08T07:05:28Z</time>
      </trkpt>
      <trkpt lat="44.46753" lon="6.54981">
        <ele>1805</ele>
        <time>2021-04-08T07:05:29Z</time>
      </trkpt>
      <trkpt lat="44.46753" lon="6.54981">
        <ele>1805</ele>
        <time>2021-04-08T07:05:30Z</time>
      </trkpt>
      <trkpt lat="44.46753" lon="6.54981">
        <ele>1805</ele>
        <time>2021-04-08T07:05:31Z</time>
      </trkpt>
      <trkpt lat="44.46753" lon="6.54981">
        <ele>1805</ele>
        <time>2021-04-08T07:05:32Z</time>
      </trkpt>
      <trkpt lat="44.46753" lon="6.54981">
        <ele>1805</ele>
        <time>2021-04-08T07:05:33Z</time>
      </trkpt>
      <trkpt lat="44.46753" lon="6.54981">
        <ele>1805</ele>
        <time>2021-04-08T07:05:34Z</time>
      </trkpt>
      <trkpt lat="44.46754" lon="6.54982">
        <ele>1805</ele>
        <time>2021-04-08T07:05:35Z</time>
      </trkpt>
      <trkpt lat="44.46754" lon="6.54983">
        <ele>1805</ele>
        <time>2021-04-08T07:05:36Z</time>
      </trkpt>
      <trkpt lat="44.46753" lon="6.54984">
        <ele>1805</ele>
        <time>2021-04-08T07:05:37Z</time>
      </trkpt>
      <trkpt lat="44.46753" lon="6.54984">
        <ele>1805</ele>
        <time>2021-04-08T07:05:38Z</time>
      </trkpt>
      <trkpt lat="44.46754" lon="6.54986">
        <ele>1805</ele>
        <time>2021-04-08T07:05:39Z</time>
      </trkpt>
      <trkpt lat="44.46753" lon="6.54986">
        <ele>1806</ele>
        <time>2021-04-08T07:05:40Z</time>
      </trkpt>
      <trkpt lat="44.46753" lon="6.54987">
        <ele>1806</ele>
        <time>2021-04-08T07:05:41Z</time>
      </trkpt>
      <trkpt lat="44.46753" lon="6.54988">
        <ele>1807</ele>
        <time>2021-04-08T07:05:42Z</time>
      </trkpt>
      <trkpt lat="44.46753" lon="6.54989">
        <ele>1807</ele>
        <time>2021-04-08T07:05:43Z</time>
      </trkpt>
      <trkpt lat="44.46753" lon="6.54989">
        <ele>1807</ele>
        <time>2021-04-08T07:05:44Z</time>
      </trkpt>
      <trkpt lat="44.46753" lon="6.54991">
        <ele>1808</ele>
        <time>2021-04-08T07:05:45Z</time>
      </trkpt>
      <trkpt lat="44.46753" lon="6.54991">
        <ele>1808</ele>
        <time>2021-04-08T07:05:46Z</time>
      </trkpt>
      <trkpt lat="44.46754" lon="6.54992">
        <ele>1808</ele>
        <time>2021-04-08T07:05:47Z</time>
      </trkpt>
      <trkpt lat="44.46754" lon="6.54994">
        <ele>1808</ele>
        <time>2021-04-08T07:05:48Z</time>
      </trkpt>
      <trkpt lat="44.46754" lon="6.54995">
        <ele>1809</ele>
        <time>2021-04-08T07:05:49Z</time>
      </trkpt>
      <trkpt lat="44.46754" lon="6.54996">
        <ele>1809</ele>
        <time>2021-04-08T07:05:50Z</time>
      </trkpt>
      <trkpt lat="44.46754" lon="6.54996">
        <ele>1809</ele>
        <time>2021-04-08T07:05:51Z</time>
      </trkpt>
      <trkpt lat="44.46753" lon="6.54998">
        <ele>1810</ele>
        <time>2021-04-08T07:05:52Z</time>
      </trkpt>
      <trkpt lat="44.46753" lon="6.54998">
        <ele>1810</ele>
        <time>2021-04-08T07:05:53Z</time>
      </trkpt>
      <trkpt lat="44.46754" lon="6.54999">
        <ele>1810</ele>
        <time>2021-04-08T07:05:54Z</time>
      </trkpt>
      <trkpt lat="44.46754" lon="6.55">
        <ele>1811</ele>
        <time>2021-04-08T07:05:55Z</time>
      </trkpt>
      <trkpt lat="44.46754" lon="6.55001">
        <ele>1811</ele>
        <time>2021-04-08T07:05:56Z</time>
      </trkpt>
      <trkpt lat="44.46754" lon="6.55002">
        <ele>1811</ele>
        <time>2021-04-08T07:05:57Z</time>
      </trkpt>
      <trkpt lat="44.46754" lon="6.55002">
        <ele>1811</ele>
        <time>2021-04-08T07:05:58Z</time>
      </trkpt>
      <trkpt lat="44.46754" lon="6.55003">
        <ele>1811</ele>
        <time>2021-04-08T07:05:59Z</time>
      </trkpt>
      <trkpt lat="44.46754" lon="6.55005">
        <ele>1812</ele>
        <time>2021-04-08T07:06:00Z</time>
      </trkpt>
      <trkpt lat="44.46753" lon="6.55006">
        <ele>1812</ele>
        <time>2021-04-08T07:06:01Z</time>
      </trkpt>
      <trkpt lat="44.46753" lon="6.55007">
        <ele>1812</ele>
        <time>2021-04-08T07:06:02Z</time>
      </trkpt>
      <trkpt lat="44.46752" lon="6.55007">
        <ele>1813</ele>
        <time>2021-04-08T07:06:03Z</time>
      </trkpt>
      <trkpt lat="44.46752" lon="6.55007">
        <ele>1813</ele>
        <time>2021-04-08T07:06:04Z</time>
      </trkpt>
      <trkpt lat="44.46752" lon="6.55007">
        <ele>1813</ele>
        <time>2021-04-08T07:06:05Z</time>
      </trkpt>
      <trkpt lat="44.46751" lon="6.55006">
        <ele>1814</ele>
        <time>2021-04-08T07:06:06Z</time>
      </trkpt>
      <trkpt lat="44.4675" lon="6.55006">
        <ele>1814</ele>
        <time>2021-04-08T07:06:07Z</time>
      </trkpt>
      <trkpt lat="44.46749" lon="6.55005">
        <ele>1814</ele>
        <time>2021-04-08T07:06:08Z</time>
      </trkpt>
      <trkpt lat="44.46749" lon="6.55006">
        <ele>1814</ele>
        <time>2021-04-08T07:06:09Z</time>
      </trkpt>
      <trkpt lat="44.46749" lon="6.55005">
        <ele>1814</ele>
        <time>2021-04-08T07:06:10Z</time>
      </trkpt>
      <trkpt lat="44.46749" lon="6.55005">
        <ele>1814</ele>
        <time>2021-04-08T07:06:11Z</time>
      </trkpt>
      <trkpt lat="44.46748" lon="6.55004">
        <ele>1815</ele>
        <time>2021-04-08T07:06:12Z</time>
      </trkpt>
      <trkpt lat="44.46748" lon="6.55004">
        <ele>1815</ele>
        <time>2021-04-08T07:06:13Z</time>
      </trkpt>
      <trkpt lat="44.46748" lon="6.55004">
        <ele>1816</ele>
        <time>2021-04-08T07:06:14Z</time>
      </trkpt>
      <trkpt lat="44.46748" lon="6.55004">
        <ele>1816</ele>
        <time>2021-04-08T07:06:15Z</time>
      </trkpt>
      <trkpt lat="44.46747" lon="6.55003">
        <ele>1816</ele>
        <time>2021-04-08T07:06:16Z</time>
      </trkpt>
      <trkpt lat="44.46746" lon="6.55003">
        <ele>1816</ele>
        <time>2021-04-08T07:06:17Z</time>
      </trkpt>
      <trkpt lat="44.46746" lon="6.55003">
        <ele>1816</ele>
        <time>2021-04-08T07:06:18Z</time>
      </trkpt>
      <trkpt lat="44.46745" lon="6.55004">
        <ele>1816</ele>
        <time>2021-04-08T07:06:19Z</time>
      </trkpt>
      <trkpt lat="44.46745" lon="6.55004">
        <ele>1816</ele>
        <time>2021-04-08T07:06:20Z</time>
      </trkpt>
      <trkpt lat="44.46744" lon="6.55005">
        <ele>1816</ele>
        <time>2021-04-08T07:06:21Z</time>
      </trkpt>
      <trkpt lat="44.46744" lon="6.55006">
        <ele>1816</ele>
        <time>2021-04-08T07:06:22Z</time>
      </trkpt>
      <trkpt lat="44.46744" lon="6.55007">
        <ele>1816</ele>
        <time>2021-04-08T07:06:23Z</time>
      </trkpt>
      <trkpt lat="44.46745" lon="6.55008">
        <ele>1817</ele>
        <time>2021-04-08T07:06:24Z</time>
      </trkpt>
      <trkpt lat="44.46745" lon="6.55008">
        <ele>1817</ele>
        <time>2021-04-08T07:06:25Z</time>
      </trkpt>
      <trkpt lat="44.46745" lon="6.55009">
        <ele>1817</ele>
        <time>2021-04-08T07:06:26Z</time>
      </trkpt>
      <trkpt lat="44.46745" lon="6.5501">
        <ele>1817</ele>
        <time>2021-04-08T07:06:27Z</time>
      </trkpt>
      <trkpt lat="44.46745" lon="6.55011">
        <ele>1817</ele>
        <time>2021-04-08T07:06:28Z</time>
      </trkpt>
      <trkpt lat="44.46744" lon="6.55011">
        <ele>1817</ele>
        <time>2021-04-08T07:06:29Z</time>
      </trkpt>
      <trkpt lat="44.46744" lon="6.55012">
        <ele>1817</ele>
        <time>2021-04-08T07:06:30Z</time>
      </trkpt>
      <trkpt lat="44.46743" lon="6.55013">
        <ele>1817</ele>
        <time>2021-04-08T07:06:31Z</time>
      </trkpt>
      <trkpt lat="44.46743" lon="6.55013">
        <ele>1817</ele>
        <time>2021-04-08T07:06:32Z</time>
      </trkpt>
      <trkpt lat="44.46741" lon="6.55013">
        <ele>1817</ele>
        <time>2021-04-08T07:06:33Z</time>
      </trkpt>
      <trkpt lat="44.46741" lon="6.55013">
        <ele>1817</ele>
        <time>2021-04-08T07:06:34Z</time>
      </trkpt>
      <trkpt lat="44.4674" lon="6.55013">
        <ele>1817</ele>
        <time>2021-04-08T07:06:35Z</time>
      </trkpt>
      <trkpt lat="44.4674" lon="6.55013">
        <ele>1817</ele>
        <time>2021-04-08T07:06:36Z</time>
      </trkpt>
      <trkpt lat="44.46739" lon="6.55012">
        <ele>1817</ele>
        <time>2021-04-08T07:06:37Z</time>
      </trkpt>
      <trkpt lat="44.46738" lon="6.55012">
        <ele>1817</ele>
        <time>2021-04-08T07:06:38Z</time>
      </trkpt>
      <trkpt lat="44.46738" lon="6.55011">
        <ele>1817</ele>
        <time>2021-04-08T07:06:39Z</time>
      </trkpt>
      <trkpt lat="44.46738" lon="6.55011">
        <ele>1817</ele>
        <time>2021-04-08T07:06:40Z</time>
      </trkpt>
      <trkpt lat="44.46737" lon="6.5501">
        <ele>1817</ele>
        <time>2021-04-08T07:06:41Z</time>
      </trkpt>
      <trkpt lat="44.46737" lon="6.5501">
        <ele>1817</ele>
        <time>2021-04-08T07:06:42Z</time>
      </trkpt>
      <trkpt lat="44.46736" lon="6.55009">
        <ele>1817</ele>
        <time>2021-04-08T07:06:43Z</time>
      </trkpt>
      <trkpt lat="44.46736" lon="6.55009">
        <ele>1817</ele>
        <time>2021-04-08T07:06:44Z</time>
      </trkpt>
      <trkpt lat="44.46735" lon="6.55009">
        <ele>1817</ele>
        <time>2021-04-08T07:06:45Z</time>
      </trkpt>
      <trkpt lat="44.46734" lon="6.55009">
        <ele>1817</ele>
        <time>2021-04-08T07:06:46Z</time>
      </trkpt>
      <trkpt lat="44.46734" lon="6.5501">
        <ele>1817</ele>
        <time>2021-04-08T07:06:47Z</time>
      </trkpt>
      <trkpt lat="44.46733" lon="6.5501">
        <ele>1817</ele>
        <time>2021-04-08T07:06:48Z</time>
      </trkpt>
      <trkpt lat="44.46732" lon="6.55009">
        <ele>1817</ele>
        <time>2021-04-08T07:06:49Z</time>
      </trkpt>
      <trkpt lat="44.46731" lon="6.55009">
        <ele>1817</ele>
        <time>2021-04-08T07:06:50Z</time>
      </trkpt>
      <trkpt lat="44.46731" lon="6.55009">
        <ele>1818</ele>
        <time>2021-04-08T07:06:51Z</time>
      </trkpt>
      <trkpt lat="44.4673" lon="6.55009">
        <ele>1818</ele>
        <time>2021-04-08T07:06:52Z</time>
      </trkpt>
      <trkpt lat="44.4673" lon="6.55009">
        <ele>1818</ele>
        <time>2021-04-08T07:06:53Z</time>
      </trkpt>
      <trkpt lat="44.46729" lon="6.55008">
        <ele>1818</ele>
        <time>2021-04-08T07:06:54Z</time>
      </trkpt>
      <trkpt lat="44.46729" lon="6.55008">
        <ele>1818</ele>
        <time>2021-04-08T07:06:55Z</time>
      </trkpt>
      <trkpt lat="44.46728" lon="6.55007">
        <ele>1818</ele>
        <time>2021-04-08T07:06:56Z</time>
      </trkpt>
      <trkpt lat="44.46728" lon="6.55007">
        <ele>1818</ele>
        <time>2021-04-08T07:06:57Z</time>
      </trkpt>
      <trkpt lat="44.46727" lon="6.55007">
        <ele>1819</ele>
        <time>2021-04-08T07:06:58Z</time>
      </trkpt>
      <trkpt lat="44.46727" lon="6.55006">
        <ele>1819</ele>
        <time>2021-04-08T07:06:59Z</time>
      </trkpt>
      <trkpt lat="44.46726" lon="6.55005">
        <ele>1819</ele>
        <time>2021-04-08T07:07:00Z</time>
      </trkpt>
      <trkpt lat="44.46726" lon="6.55005">
        <ele>1820</ele>
        <time>2021-04-08T07:07:01Z</time>
      </trkpt>
      <trkpt lat="44.46725" lon="6.55005">
        <ele>1820</ele>
        <time>2021-04-08T07:07:02Z</time>
      </trkpt>
      <trkpt lat="44.46725" lon="6.55005">
        <ele>1820</ele>
        <time>2021-04-08T07:07:03Z</time>
      </trkpt>
      <trkpt lat="44.46725" lon="6.55005">
        <ele>1820</ele>
        <time>2021-04-08T07:07:04Z</time>
      </trkpt>
      <trkpt lat="44.46725" lon="6.55006">
        <ele>1820</ele>
        <time>2021-04-08T07:07:05Z</time>
      </trkpt>
      <trkpt lat="44.46725" lon="6.55007">
        <ele>1820</ele>
        <time>2021-04-08T07:07:06Z</time>
      </trkpt>
      <trkpt lat="44.46725" lon="6.55007">
        <ele>1821</ele>
        <time>2021-04-08T07:07:07Z</time>
      </trkpt>
      <trkpt lat="44.46725" lon="6.55007">
        <ele>1821</ele>
        <time>2021-04-08T07:07:08Z</time>
      </trkpt>
      <trkpt lat="44.46725" lon="6.55008">
        <ele>1821</ele>
        <time>2021-04-08T07:07:09Z</time>
      </trkpt>
      <trkpt lat="44.46725" lon="6.55009">
        <ele>1821</ele>
        <time>2021-04-08T07:07:10Z</time>
      </trkpt>
      <trkpt lat="44.46725" lon="6.5501">
        <ele>1821</ele>
        <time>2021-04-08T07:07:11Z</time>
      </trkpt>
      <trkpt lat="44.46725" lon="6.55011">
        <ele>1821</ele>
        <time>2021-04-08T07:07:12Z</time>
      </trkpt>
      <trkpt lat="44.46725" lon="6.55012">
        <ele>1821</ele>
        <time>2021-04-08T07:07:13Z</time>
      </trkpt>
      <trkpt lat="44.46725" lon="6.55013">
        <ele>1821</ele>
        <time>2021-04-08T07:07:14Z</time>
      </trkpt>
      <trkpt lat="44.46725" lon="6.55014">
        <ele>1821</ele>
        <time>2021-04-08T07:07:15Z</time>
      </trkpt>
      <trkpt lat="44.46725" lon="6.55014">
        <ele>1821</ele>
        <time>2021-04-08T07:07:16Z</time>
      </trkpt>
      <trkpt lat="44.46725" lon="6.55014">
        <ele>1821</ele>
        <time>2021-04-08T07:07:17Z</time>
      </trkpt>
      <trkpt lat="44.46725" lon="6.55015">
        <ele>1821</ele>
        <time>2021-04-08T07:07:18Z</time>
      </trkpt>
      <trkpt lat="44.46726" lon="6.55016">
        <ele>1821</ele>
        <time>2021-04-08T07:07:19Z</time>
      </trkpt>
      <trkpt lat="44.46725" lon="6.55016">
        <ele>1821</ele>
        <time>2021-04-08T07:07:20Z</time>
      </trkpt>
      <trkpt lat="44.46726" lon="6.55017">
        <ele>1821</ele>
        <time>2021-04-08T07:07:21Z</time>
      </trkpt>
      <trkpt lat="44.46726" lon="6.55017">
        <ele>1821</ele>
        <time>2021-04-08T07:07:22Z</time>
      </trkpt>
      <trkpt lat="44.46726" lon="6.55017">
        <ele>1821</ele>
        <time>2021-04-08T07:07:23Z</time>
      </trkpt>
      <trkpt lat="44.46726" lon="6.55017">
        <ele>1821</ele>
        <time>2021-04-08T07:07:24Z</time>
      </trkpt>
      <trkpt lat="44.46726" lon="6.55017">
        <ele>1821</ele>
        <time>2021-04-08T07:07:25Z</time>
      </trkpt>
      <trkpt lat="44.46726" lon="6.55017">
        <ele>1821</ele>
        <time>2021-04-08T07:07:26Z</time>
      </trkpt>
      <trkpt lat="44.46726" lon="6.55017">
        <ele>1821</ele>
        <time>2021-04-08T07:07:27Z</time>
      </trkpt>
      <trkpt lat="44.46726" lon="6.55017">
        <ele>1821</ele>
        <time>2021-04-08T07:07:28Z</time>
      </trkpt>
      <trkpt lat="44.46726" lon="6.55017">
        <ele>1821</ele>
        <time>2021-04-08T07:07:29Z</time>
      </trkpt>
      <trkpt lat="44.46726" lon="6.55017">
        <ele>1821</ele>
        <time>2021-04-08T07:07:30Z</time>
      </trkpt>
      <trkpt lat="44.46726" lon="6.55017">
        <ele>1821</ele>
        <time>2021-04-08T07:07:31Z</time>
      </trkpt>
      <trkpt lat="44.46726" lon="6.55017">
        <ele>1821</ele>
        <time>2021-04-08T07:07:32Z</time>
      </trkpt>
      <trkpt lat="44.46726" lon="6.55017">
        <ele>1821</ele>
        <time>2021-04-08T07:07:33Z</time>
      </trkpt>
      <trkpt lat="44.46726" lon="6.55017">
        <ele>1821</ele>
        <time>2021-04-08T07:07:34Z</time>
      </trkpt>
      <trkpt lat="44.46726" lon="6.55017">
        <ele>1821</ele>
        <time>2021-04-08T07:07:35Z</time>
      </trkpt>
      <trkpt lat="44.46726" lon="6.55017">
        <ele>1821</ele>
        <time>2021-04-08T07:07:36Z</time>
      </trkpt>
      <trkpt lat="44.46726" lon="6.55017">
        <ele>1821</ele>
        <time>2021-04-08T07:07:37Z</time>
      </trkpt>
      <trkpt lat="44.46726" lon="6.55017">
        <ele>1821</ele>
        <time>2021-04-08T07:07:38Z</time>
      </trkpt>
      <trkpt lat="44.46726" lon="6.55017">
        <ele>1821</ele>
        <time>2021-04-08T07:07:39Z</time>
      </trkpt>
      <trkpt lat="44.46726" lon="6.55017">
        <ele>1821</ele>
        <time>2021-04-08T07:07:40Z</time>
      </trkpt>
      <trkpt lat="44.46726" lon="6.55017">
        <ele>1821</ele>
        <time>2021-04-08T07:07:41Z</time>
      </trkpt>
      <trkpt lat="44.46726" lon="6.55017">
        <ele>1821</ele>
        <time>2021-04-08T07:07:42Z</time>
      </trkpt>
      <trkpt lat="44.46726" lon="6.55017">
        <ele>1821</ele>
        <time>2021-04-08T07:07:43Z</time>
      </trkpt>
      <trkpt lat="44.46726" lon="6.55017">
        <ele>1821</ele>
        <time>2021-04-08T07:07:44Z</time>
      </trkpt>
      <trkpt lat="44.46722" lon="6.55021">
        <ele>1822</ele>
        <time>2021-04-08T07:07:45Z</time>
      </trkpt>
      <trkpt lat="44.46721" lon="6.55021">
        <ele>1822</ele>
        <time>2021-04-08T07:07:46Z</time>
      </trkpt>
      <trkpt lat="44.46721" lon="6.5502">
        <ele>1822</ele>
        <time>2021-04-08T07:07:47Z</time>
      </trkpt>
      <trkpt lat="44.4672" lon="6.55019">
        <ele>1822</ele>
        <time>2021-04-08T07:07:48Z</time>
      </trkpt>
      <trkpt lat="44.46719" lon="6.55019">
        <ele>1823</ele>
        <time>2021-04-08T07:07:49Z</time>
      </trkpt>
      <trkpt lat="44.46718" lon="6.55019">
        <ele>1823</ele>
        <time>2021-04-08T07:07:50Z</time>
      </trkpt>
      <trkpt lat="44.46717" lon="6.55019">
        <ele>1823</ele>
        <time>2021-04-08T07:07:51Z</time>
      </trkpt>
      <trkpt lat="44.46717" lon="6.55018">
        <ele>1823</ele>
        <time>2021-04-08T07:07:52Z</time>
      </trkpt>
      <trkpt lat="44.46716" lon="6.55018">
        <ele>1824</ele>
        <time>2021-04-08T07:07:53Z</time>
      </trkpt>
      <trkpt lat="44.46716" lon="6.55019">
        <ele>1824</ele>
        <time>2021-04-08T07:07:54Z</time>
      </trkpt>
      <trkpt lat="44.46716" lon="6.55019">
        <ele>1824</ele>
        <time>2021-04-08T07:07:55Z</time>
      </trkpt>
      <trkpt lat="44.46716" lon="6.55019">
        <ele>1824</ele>
        <time>2021-04-08T07:07:56Z</time>
      </trkpt>
      <trkpt lat="44.46717" lon="6.55019">
        <ele>1824</ele>
        <time>2021-04-08T07:07:57Z</time>
      </trkpt>
      <trkpt lat="44.46717" lon="6.55018">
        <ele>1824</ele>
        <time>2021-04-08T07:07:58Z</time>
      </trkpt>
      <trkpt lat="44.46717" lon="6.55018">
        <ele>1824</ele>
        <time>2021-04-08T07:07:59Z</time>
      </trkpt>
      <trkpt lat="44.46717" lon="6.55017">
        <ele>1824</ele>
        <time>2021-04-08T07:08:00Z</time>
      </trkpt>
      <trkpt lat="44.46717" lon="6.55017">
        <ele>1824</ele>
        <time>2021-04-08T07:08:01Z</time>
      </trkpt>
      <trkpt lat="44.46716" lon="6.55017">
        <ele>1824</ele>
        <time>2021-04-08T07:08:02Z</time>
      </trkpt>
      <trkpt lat="44.46716" lon="6.55017">
        <ele>1824</ele>
        <time>2021-04-08T07:08:03Z</time>
      </trkpt>
      <trkpt lat="44.46716" lon="6.55017">
        <ele>1824</ele>
        <time>2021-04-08T07:08:04Z</time>
      </trkpt>
      <trkpt lat="44.46716" lon="6.55017">
        <ele>1824</ele>
        <time>2021-04-08T07:08:05Z</time>
      </trkpt>
      <trkpt lat="44.46716" lon="6.55017">
        <ele>1824</ele>
        <time>2021-04-08T07:08:06Z</time>
      </trkpt>
      <trkpt lat="44.46716" lon="6.55017">
        <ele>1824</ele>
        <time>2021-04-08T07:08:07Z</time>
      </trkpt>
      <trkpt lat="44.46716" lon="6.55017">
        <ele>1824</ele>
        <time>2021-04-08T07:08:08Z</time>
      </trkpt>
      <trkpt lat="44.46716" lon="6.55017">
        <ele>1824</ele>
        <time>2021-04-08T07:08:09Z</time>
      </trkpt>
      <trkpt lat="44.46716" lon="6.55017">
        <ele>1824</ele>
        <time>2021-04-08T07:08:10Z</time>
      </trkpt>
      <trkpt lat="44.46716" lon="6.55017">
        <ele>1825</ele>
        <time>2021-04-08T07:08:11Z</time>
      </trkpt>
      <trkpt lat="44.46714" lon="6.55016">
        <ele>1826</ele>
        <time>2021-04-08T07:08:12Z</time>
      </trkpt>
      <trkpt lat="44.46714" lon="6.55016">
        <ele>1826</ele>
        <time>2021-04-08T07:08:13Z</time>
      </trkpt>
      <trkpt lat="44.46713" lon="6.55015">
        <ele>1826</ele>
        <time>2021-04-08T07:08:14Z</time>
      </trkpt>
      <trkpt lat="44.46712" lon="6.55014">
        <ele>1826</ele>
        <time>2021-04-08T07:08:15Z</time>
      </trkpt>
      <trkpt lat="44.46711" lon="6.55012">
        <ele>1827</ele>
        <time>2021-04-08T07:08:16Z</time>
      </trkpt>
      <trkpt lat="44.4671" lon="6.55011">
        <ele>1827</ele>
        <time>2021-04-08T07:08:17Z</time>
      </trkpt>
      <trkpt lat="44.46709" lon="6.55011">
        <ele>1827</ele>
        <time>2021-04-08T07:08:18Z</time>
      </trkpt>
      <trkpt lat="44.46709" lon="6.55012">
        <ele>1827</ele>
        <time>2021-04-08T07:08:19Z</time>
      </trkpt>
      <trkpt lat="44.46709" lon="6.55012">
        <ele>1827</ele>
        <time>2021-04-08T07:08:20Z</time>
      </trkpt>
      <trkpt lat="44.46708" lon="6.55013">
        <ele>1828</ele>
        <time>2021-04-08T07:08:21Z</time>
      </trkpt>
      <trkpt lat="44.46709" lon="6.55013">
        <ele>1828</ele>
        <time>2021-04-08T07:08:22Z</time>
      </trkpt>
      <trkpt lat="44.46709" lon="6.55014">
        <ele>1828</ele>
        <time>2021-04-08T07:08:23Z</time>
      </trkpt>
      <trkpt lat="44.46709" lon="6.55014">
        <ele>1828</ele>
        <time>2021-04-08T07:08:24Z</time>
      </trkpt>
      <trkpt lat="44.46709" lon="6.55014">
        <ele>1828</ele>
        <time>2021-04-08T07:08:25Z</time>
      </trkpt>
      <trkpt lat="44.46708" lon="6.55014">
        <ele>1828</ele>
        <time>2021-04-08T07:08:26Z</time>
      </trkpt>
      <trkpt lat="44.46708" lon="6.55014">
        <ele>1828</ele>
        <time>2021-04-08T07:08:27Z</time>
      </trkpt>
      <trkpt lat="44.46708" lon="6.55014">
        <ele>1829</ele>
        <time>2021-04-08T07:08:28Z</time>
      </trkpt>
      <trkpt lat="44.46708" lon="6.55014">
        <ele>1829</ele>
        <time>2021-04-08T07:08:29Z</time>
      </trkpt>
      <trkpt lat="44.46708" lon="6.55014">
        <ele>1829</ele>
        <time>2021-04-08T07:08:30Z</time>
      </trkpt>
      <trkpt lat="44.46708" lon="6.55014">
        <ele>1829</ele>
        <time>2021-04-08T07:08:31Z</time>
      </trkpt>
      <trkpt lat="44.46708" lon="6.55014">
        <ele>1829</ele>
        <time>2021-04-08T07:08:32Z</time>
      </trkpt>
      <trkpt lat="44.46708" lon="6.55014">
        <ele>1829</ele>
        <time>2021-04-08T07:08:33Z</time>
      </trkpt>
      <trkpt lat="44.46708" lon="6.55014">
        <ele>1829</ele>
        <time>2021-04-08T07:08:34Z</time>
      </trkpt>
      <trkpt lat="44.46708" lon="6.55014">
        <ele>1829</ele>
        <time>2021-04-08T07:08:35Z</time>
      </trkpt>
      <trkpt lat="44.46708" lon="6.55014">
        <ele>1829</ele>
        <time>2021-04-08T07:08:36Z</time>
      </trkpt>
      <trkpt lat="44.46708" lon="6.55014">
        <ele>1829</ele>
        <time>2021-04-08T07:08:37Z</time>
      </trkpt>
      <trkpt lat="44.46708" lon="6.55014">
        <ele>1829</ele>
        <time>2021-04-08T07:08:38Z</time>
      </trkpt>
      <trkpt lat="44.46708" lon="6.55014">
        <ele>1829</ele>
        <time>2021-04-08T07:08:39Z</time>
      </trkpt>
      <trkpt lat="44.46708" lon="6.55014">
        <ele>1829</ele>
        <time>2021-04-08T07:08:40Z</time>
      </trkpt>
      <trkpt lat="44.46708" lon="6.55014">
        <ele>1829</ele>
        <time>2021-04-08T07:08:41Z</time>
      </trkpt>
      <trkpt lat="44.46708" lon="6.55014">
        <ele>1829</ele>
        <time>2021-04-08T07:08:42Z</time>
      </trkpt>
      <trkpt lat="44.46708" lon="6.55014">
        <ele>1829</ele>
        <time>2021-04-08T07:08:43Z</time>
      </trkpt>
      <trkpt lat="44.46708" lon="6.55014">
        <ele>1829</ele>
        <time>2021-04-08T07:08:44Z</time>
      </trkpt>
      <trkpt lat="44.46708" lon="6.55014">
        <ele>1829</ele>
        <time>2021-04-08T07:08:45Z</time>
      </trkpt>
      <trkpt lat="44.46708" lon="6.55014">
        <ele>1829</ele>
        <time>2021-04-08T07:08:46Z</time>
      </trkpt>
      <trkpt lat="44.46708" lon="6.55014">
        <ele>1829</ele>
        <time>2021-04-08T07:08:47Z</time>
      </trkpt>
      <trkpt lat="44.46708" lon="6.55014">
        <ele>1829</ele>
        <time>2021-04-08T07:08:48Z</time>
      </trkpt>
      <trkpt lat="44.46708" lon="6.55014">
        <ele>1829</ele>
        <time>2021-04-08T07:08:49Z</time>
      </trkpt>
      <trkpt lat="44.46708" lon="6.55014">
        <ele>1829</ele>
        <time>2021-04-08T07:08:50Z</time>
      </trkpt>
      <trkpt lat="44.46708" lon="6.55014">
        <ele>1829</ele>
        <time>2021-04-08T07:08:51Z</time>
      </trkpt>
      <trkpt lat="44.46708" lon="6.55014">
        <ele>1829</ele>
        <time>2021-04-08T07:08:52Z</time>
      </trkpt>
      <trkpt lat="44.46708" lon="6.55014">
        <ele>1829</ele>
        <time>2021-04-08T07:08:53Z</time>
      </trkpt>
      <trkpt lat="44.46708" lon="6.55014">
        <ele>1829</ele>
        <time>2021-04-08T07:08:54Z</time>
      </trkpt>
      <trkpt lat="44.46708" lon="6.55014">
        <ele>1829</ele>
        <time>2021-04-08T07:08:55Z</time>
      </trkpt>
      <trkpt lat="44.46708" lon="6.55014">
        <ele>1829</ele>
        <time>2021-04-08T07:08:56Z</time>
      </trkpt>
      <trkpt lat="44.46708" lon="6.55014">
        <ele>1829</ele>
        <time>2021-04-08T07:08:57Z</time>
      </trkpt>
      <trkpt lat="44.46708" lon="6.55014">
        <ele>1829</ele>
        <time>2021-04-08T07:08:58Z</time>
      </trkpt>
      <trkpt lat="44.46708" lon="6.55014">
        <ele>1829</ele>
        <time>2021-04-08T07:08:59Z</time>
      </trkpt>
      <trkpt lat="44.46708" lon="6.55014">
        <ele>1829</ele>
        <time>2021-04-08T07:09:00Z</time>
      </trkpt>
      <trkpt lat="44.46708" lon="6.55014">
        <ele>1829</ele>
        <time>2021-04-08T07:09:01Z</time>
      </trkpt>
      <trkpt lat="44.46708" lon="6.55014">
        <ele>1829</ele>
        <time>2021-04-08T07:09:02Z</time>
      </trkpt>
      <trkpt lat="44.46708" lon="6.55014">
        <ele>1829</ele>
        <time>2021-04-08T07:09:03Z</time>
      </trkpt>
      <trkpt lat="44.46708" lon="6.55014">
        <ele>1829</ele>
        <time>2021-04-08T07:09:04Z</time>
      </trkpt>
      <trkpt lat="44.46708" lon="6.55014">
        <ele>1829</ele>
        <time>2021-04-08T07:09:05Z</time>
      </trkpt>
      <trkpt lat="44.46708" lon="6.55014">
        <ele>1829</ele>
        <time>2021-04-08T07:09:06Z</time>
      </trkpt>
      <trkpt lat="44.46708" lon="6.55014">
        <ele>1829</ele>
        <time>2021-04-08T07:09:07Z</time>
      </trkpt>
      <trkpt lat="44.46708" lon="6.55014">
        <ele>1829</ele>
        <time>2021-04-08T07:09:08Z</time>
      </trkpt>
      <trkpt lat="44.46708" lon="6.55014">
        <ele>1829</ele>
        <time>2021-04-08T07:09:09Z</time>
      </trkpt>
      <trkpt lat="44.46708" lon="6.55014">
        <ele>1829</ele>
        <time>2021-04-08T07:09:10Z</time>
      </trkpt>
      <trkpt lat="44.46708" lon="6.55014">
        <ele>1829</ele>
        <time>2021-04-08T07:09:11Z</time>
      </trkpt>
      <trkpt lat="44.46708" lon="6.55014">
        <ele>1829</ele>
        <time>2021-04-08T07:09:12Z</time>
      </trkpt>
      <trkpt lat="44.46708" lon="6.55014">
        <ele>1829</ele>
        <time>2021-04-08T07:09:13Z</time>
      </trkpt>
      <trkpt lat="44.46708" lon="6.55014">
        <ele>1829</ele>
        <time>2021-04-08T07:09:14Z</time>
      </trkpt>
      <trkpt lat="44.46708" lon="6.55014">
        <ele>1829</ele>
        <time>2021-04-08T07:09:15Z</time>
      </trkpt>
      <trkpt lat="44.46708" lon="6.55014">
        <ele>1829</ele>
        <time>2021-04-08T07:09:16Z</time>
      </trkpt>
      <trkpt lat="44.46708" lon="6.55014">
        <ele>1829</ele>
        <time>2021-04-08T07:09:17Z</time>
      </trkpt>
      <trkpt lat="44.46708" lon="6.55014">
        <ele>1829</ele>
        <time>2021-04-08T07:09:18Z</time>
      </trkpt>
      <trkpt lat="44.46708" lon="6.55014">
        <ele>1829</ele>
        <time>2021-04-08T07:09:19Z</time>
      </trkpt>
      <trkpt lat="44.46708" lon="6.55014">
        <ele>1829</ele>
        <time>2021-04-08T07:09:20Z</time>
      </trkpt>
      <trkpt lat="44.46708" lon="6.55014">
        <ele>1829</ele>
        <time>2021-04-08T07:09:21Z</time>
      </trkpt>
      <trkpt lat="44.46708" lon="6.55014">
        <ele>1829</ele>
        <time>2021-04-08T07:09:22Z</time>
      </trkpt>
      <trkpt lat="44.46708" lon="6.55014">
        <ele>1829</ele>
        <time>2021-04-08T07:09:23Z</time>
      </trkpt>
      <trkpt lat="44.46708" lon="6.55014">
        <ele>1829</ele>
        <time>2021-04-08T07:09:24Z</time>
      </trkpt>
      <trkpt lat="44.46708" lon="6.55014">
        <ele>1829</ele>
        <time>2021-04-08T07:09:25Z</time>
      </trkpt>
      <trkpt lat="44.46708" lon="6.55014">
        <ele>1829</ele>
        <time>2021-04-08T07:09:26Z</time>
      </trkpt>
      <trkpt lat="44.46708" lon="6.55014">
        <ele>1829</ele>
        <time>2021-04-08T07:09:27Z</time>
      </trkpt>
      <trkpt lat="44.46708" lon="6.55014">
        <ele>1829</ele>
        <time>2021-04-08T07:09:28Z</time>
      </trkpt>
      <trkpt lat="44.46708" lon="6.55014">
        <ele>1829</ele>
        <time>2021-04-08T07:09:29Z</time>
      </trkpt>
      <trkpt lat="44.46708" lon="6.55014">
        <ele>1829</ele>
        <time>2021-04-08T07:09:30Z</time>
      </trkpt>
      <trkpt lat="44.46708" lon="6.55014">
        <ele>1829</ele>
        <time>2021-04-08T07:09:31Z</time>
      </trkpt>
      <trkpt lat="44.46708" lon="6.55014">
        <ele>1829</ele>
        <time>2021-04-08T07:09:32Z</time>
      </trkpt>
      <trkpt lat="44.46708" lon="6.55014">
        <ele>1829</ele>
        <time>2021-04-08T07:09:33Z</time>
      </trkpt>
      <trkpt lat="44.46708" lon="6.55014">
        <ele>1829</ele>
        <time>2021-04-08T07:09:34Z</time>
      </trkpt>
      <trkpt lat="44.46708" lon="6.55014">
        <ele>1829</ele>
        <time>2021-04-08T07:09:35Z</time>
      </trkpt>
      <trkpt lat="44.46708" lon="6.55014">
        <ele>1829</ele>
        <time>2021-04-08T07:09:36Z</time>
      </trkpt>
      <trkpt lat="44.46708" lon="6.55014">
        <ele>1829</ele>
        <time>2021-04-08T07:09:37Z</time>
      </trkpt>
      <trkpt lat="44.46708" lon="6.55014">
        <ele>1829</ele>
        <time>2021-04-08T07:09:38Z</time>
      </trkpt>
      <trkpt lat="44.46708" lon="6.55014">
        <ele>1829</ele>
        <time>2021-04-08T07:09:39Z</time>
      </trkpt>
      <trkpt lat="44.46708" lon="6.55014">
        <ele>1829</ele>
        <time>2021-04-08T07:09:40Z</time>
      </trkpt>
      <trkpt lat="44.46708" lon="6.55014">
        <ele>1829</ele>
        <time>2021-04-08T07:09:41Z</time>
      </trkpt>
      <trkpt lat="44.46709" lon="6.5502">
        <ele>1831</ele>
        <time>2021-04-08T07:09:42Z</time>
      </trkpt>
      <trkpt lat="44.4671" lon="6.55021">
        <ele>1832</ele>
        <time>2021-04-08T07:09:43Z</time>
      </trkpt>
      <trkpt lat="44.4671" lon="6.55022">
        <ele>1832</ele>
        <time>2021-04-08T07:09:44Z</time>
      </trkpt>
      <trkpt lat="44.4671" lon="6.55023">
        <ele>1832</ele>
        <time>2021-04-08T07:09:45Z</time>
      </trkpt>
      <trkpt lat="44.4671" lon="6.55024">
        <ele>1832</ele>
        <time>2021-04-08T07:09:46Z</time>
      </trkpt>
      <trkpt lat="44.4671" lon="6.55025">
        <ele>1833</ele>
        <time>2021-04-08T07:09:47Z</time>
      </trkpt>
      <trkpt lat="44.46709" lon="6.55026">
        <ele>1833</ele>
        <time>2021-04-08T07:09:48Z</time>
      </trkpt>
      <trkpt lat="44.46709" lon="6.55027">
        <ele>1834</ele>
        <time>2021-04-08T07:09:49Z</time>
      </trkpt>
      <trkpt lat="44.4671" lon="6.55027">
        <ele>1834</ele>
        <time>2021-04-08T07:09:50Z</time>
      </trkpt>
      <trkpt lat="44.4671" lon="6.55028">
        <ele>1834</ele>
        <time>2021-04-08T07:09:51Z</time>
      </trkpt>
      <trkpt lat="44.4671" lon="6.55029">
        <ele>1834</ele>
        <time>2021-04-08T07:09:52Z</time>
      </trkpt>
      <trkpt lat="44.4671" lon="6.5503">
        <ele>1834</ele>
        <time>2021-04-08T07:09:53Z</time>
      </trkpt>
      <trkpt lat="44.4671" lon="6.55031">
        <ele>1834</ele>
        <time>2021-04-08T07:09:54Z</time>
      </trkpt>
      <trkpt lat="44.4671" lon="6.55032">
        <ele>1834</ele>
        <time>2021-04-08T07:09:55Z</time>
      </trkpt>
      <trkpt lat="44.4671" lon="6.55033">
        <ele>1835</ele>
        <time>2021-04-08T07:09:56Z</time>
      </trkpt>
      <trkpt lat="44.4671" lon="6.55034">
        <ele>1835</ele>
        <time>2021-04-08T07:09:57Z</time>
      </trkpt>
      <trkpt lat="44.4671" lon="6.55035">
        <ele>1835</ele>
        <time>2021-04-08T07:09:58Z</time>
      </trkpt>
      <trkpt lat="44.46709" lon="6.55036">
        <ele>1835</ele>
        <time>2021-04-08T07:09:59Z</time>
      </trkpt>
      <trkpt lat="44.46708" lon="6.55037">
        <ele>1835</ele>
        <time>2021-04-08T07:10:00Z</time>
      </trkpt>
      <trkpt lat="44.46707" lon="6.55037">
        <ele>1836</ele>
        <time>2021-04-08T07:10:01Z</time>
      </trkpt>
      <trkpt lat="44.46707" lon="6.55038">
        <ele>1836</ele>
        <time>2021-04-08T07:10:02Z</time>
      </trkpt>
      <trkpt lat="44.46706" lon="6.55037">
        <ele>1836</ele>
        <time>2021-04-08T07:10:03Z</time>
      </trkpt>
      <trkpt lat="44.46705" lon="6.55037">
        <ele>1836</ele>
        <time>2021-04-08T07:10:04Z</time>
      </trkpt>
      <trkpt lat="44.46705" lon="6.55037">
        <ele>1836</ele>
        <time>2021-04-08T07:10:05Z</time>
      </trkpt>
      <trkpt lat="44.46704" lon="6.55036">
        <ele>1836</ele>
        <time>2021-04-08T07:10:06Z</time>
      </trkpt>
      <trkpt lat="44.46703" lon="6.55036">
        <ele>1836</ele>
        <time>2021-04-08T07:10:07Z</time>
      </trkpt>
      <trkpt lat="44.46702" lon="6.55036">
        <ele>1836</ele>
        <time>2021-04-08T07:10:08Z</time>
      </trkpt>
      <trkpt lat="44.46702" lon="6.55036">
        <ele>1836</ele>
        <time>2021-04-08T07:10:09Z</time>
      </trkpt>
      <trkpt lat="44.46701" lon="6.55036">
        <ele>1837</ele>
        <time>2021-04-08T07:10:10Z</time>
      </trkpt>
      <trkpt lat="44.467" lon="6.55036">
        <ele>1837</ele>
        <time>2021-04-08T07:10:11Z</time>
      </trkpt>
      <trkpt lat="44.46699" lon="6.55035">
        <ele>1837</ele>
        <time>2021-04-08T07:10:12Z</time>
      </trkpt>
      <trkpt lat="44.46699" lon="6.55035">
        <ele>1837</ele>
        <time>2021-04-08T07:10:13Z</time>
      </trkpt>
      <trkpt lat="44.46698" lon="6.55035">
        <ele>1837</ele>
        <time>2021-04-08T07:10:14Z</time>
      </trkpt>
      <trkpt lat="44.46698" lon="6.55035">
        <ele>1837</ele>
        <time>2021-04-08T07:10:15Z</time>
      </trkpt>
      <trkpt lat="44.46698" lon="6.55035">
        <ele>1837</ele>
        <time>2021-04-08T07:10:16Z</time>
      </trkpt>
      <trkpt lat="44.46698" lon="6.55035">
        <ele>1837</ele>
        <time>2021-04-08T07:10:17Z</time>
      </trkpt>
      <trkpt lat="44.46698" lon="6.55035">
        <ele>1837</ele>
        <time>2021-04-08T07:10:18Z</time>
      </trkpt>
      <trkpt lat="44.46698" lon="6.55035">
        <ele>1838</ele>
        <time>2021-04-08T07:10:19Z</time>
      </trkpt>
      <trkpt lat="44.46698" lon="6.55035">
        <ele>1838</ele>
        <time>2021-04-08T07:10:20Z</time>
      </trkpt>
      <trkpt lat="44.46697" lon="6.55034">
        <ele>1838</ele>
        <time>2021-04-08T07:10:21Z</time>
      </trkpt>
      <trkpt lat="44.46696" lon="6.55033">
        <ele>1838</ele>
        <time>2021-04-08T07:10:22Z</time>
      </trkpt>
      <trkpt lat="44.46696" lon="6.55032">
        <ele>1838</ele>
        <time>2021-04-08T07:10:23Z</time>
      </trkpt>
      <trkpt lat="44.46695" lon="6.55032">
        <ele>1839</ele>
        <time>2021-04-08T07:10:24Z</time>
      </trkpt>
      <trkpt lat="44.46695" lon="6.55031">
        <ele>1839</ele>
        <time>2021-04-08T07:10:25Z</time>
      </trkpt>
      <trkpt lat="44.46694" lon="6.5503">
        <ele>1839</ele>
        <time>2021-04-08T07:10:26Z</time>
      </trkpt>
      <trkpt lat="44.46694" lon="6.5503">
        <ele>1839</ele>
        <time>2021-04-08T07:10:27Z</time>
      </trkpt>
      <trkpt lat="44.46693" lon="6.55029">
        <ele>1840</ele>
        <time>2021-04-08T07:10:28Z</time>
      </trkpt>
      <trkpt lat="44.46693" lon="6.55029">
        <ele>1840</ele>
        <time>2021-04-08T07:10:29Z</time>
      </trkpt>
      <trkpt lat="44.46692" lon="6.55028">
        <ele>1840</ele>
        <time>2021-04-08T07:10:30Z</time>
      </trkpt>
      <trkpt lat="44.46692" lon="6.55028">
        <ele>1840</ele>
        <time>2021-04-08T07:10:31Z</time>
      </trkpt>
      <trkpt lat="44.46692" lon="6.55027">
        <ele>1840</ele>
        <time>2021-04-08T07:10:32Z</time>
      </trkpt>
      <trkpt lat="44.46692" lon="6.55027">
        <ele>1841</ele>
        <time>2021-04-08T07:10:33Z</time>
      </trkpt>
      <trkpt lat="44.46691" lon="6.55027">
        <ele>1841</ele>
        <time>2021-04-08T07:10:34Z</time>
      </trkpt>
      <trkpt lat="44.46691" lon="6.55027">
        <ele>1841</ele>
        <time>2021-04-08T07:10:35Z</time>
      </trkpt>
      <trkpt lat="44.46691" lon="6.55027">
        <ele>1841</ele>
        <time>2021-04-08T07:10:36Z</time>
      </trkpt>
      <trkpt lat="44.4669" lon="6.55027">
        <ele>1842</ele>
        <time>2021-04-08T07:10:37Z</time>
      </trkpt>
      <trkpt lat="44.4669" lon="6.55027">
        <ele>1842</ele>
        <time>2021-04-08T07:10:38Z</time>
      </trkpt>
      <trkpt lat="44.46689" lon="6.55026">
        <ele>1842</ele>
        <time>2021-04-08T07:10:39Z</time>
      </trkpt>
      <trkpt lat="44.46689" lon="6.55026">
        <ele>1843</ele>
        <time>2021-04-08T07:10:40Z</time>
      </trkpt>
      <trkpt lat="44.46689" lon="6.55025">
        <ele>1843</ele>
        <time>2021-04-08T07:10:41Z</time>
      </trkpt>
      <trkpt lat="44.46689" lon="6.55026">
        <ele>1843</ele>
        <time>2021-04-08T07:10:42Z</time>
      </trkpt>
      <trkpt lat="44.46689" lon="6.55026">
        <ele>1843</ele>
        <time>2021-04-08T07:10:43Z</time>
      </trkpt>
      <trkpt lat="44.46689" lon="6.55025">
        <ele>1843</ele>
        <time>2021-04-08T07:10:44Z</time>
      </trkpt>
      <trkpt lat="44.46689" lon="6.55025">
        <ele>1843</ele>
        <time>2021-04-08T07:10:45Z</time>
      </trkpt>
      <trkpt lat="44.46688" lon="6.55025">
        <ele>1843</ele>
        <time>2021-04-08T07:10:46Z</time>
      </trkpt>
      <trkpt lat="44.46688" lon="6.55025">
        <ele>1843</ele>
        <time>2021-04-08T07:10:47Z</time>
      </trkpt>
      <trkpt lat="44.46687" lon="6.55025">
        <ele>1843</ele>
        <time>2021-04-08T07:10:48Z</time>
      </trkpt>
      <trkpt lat="44.46687" lon="6.55025">
        <ele>1843</ele>
        <time>2021-04-08T07:10:49Z</time>
      </trkpt>
      <trkpt lat="44.46686" lon="6.55025">
        <ele>1843</ele>
        <time>2021-04-08T07:10:50Z</time>
      </trkpt>
      <trkpt lat="44.46685" lon="6.55025">
        <ele>1843</ele>
        <time>2021-04-08T07:10:51Z</time>
      </trkpt>
      <trkpt lat="44.46685" lon="6.55026">
        <ele>1843</ele>
        <time>2021-04-08T07:10:52Z</time>
      </trkpt>
      <trkpt lat="44.46684" lon="6.55026">
        <ele>1843</ele>
        <time>2021-04-08T07:10:53Z</time>
      </trkpt>
      <trkpt lat="44.46684" lon="6.55025">
        <ele>1843</ele>
        <time>2021-04-08T07:10:54Z</time>
      </trkpt>
      <trkpt lat="44.46683" lon="6.55025">
        <ele>1843</ele>
        <time>2021-04-08T07:10:55Z</time>
      </trkpt>
      <trkpt lat="44.46683" lon="6.55025">
        <ele>1843</ele>
        <time>2021-04-08T07:10:56Z</time>
      </trkpt>
      <trkpt lat="44.46682" lon="6.55024">
        <ele>1843</ele>
        <time>2021-04-08T07:10:57Z</time>
      </trkpt>
      <trkpt lat="44.46682" lon="6.55024">
        <ele>1843</ele>
        <time>2021-04-08T07:10:58Z</time>
      </trkpt>
      <trkpt lat="44.46681" lon="6.55024">
        <ele>1844</ele>
        <time>2021-04-08T07:10:59Z</time>
      </trkpt>
      <trkpt lat="44.46681" lon="6.55024">
        <ele>1844</ele>
        <time>2021-04-08T07:11:00Z</time>
      </trkpt>
      <trkpt lat="44.4668" lon="6.55024">
        <ele>1844</ele>
        <time>2021-04-08T07:11:01Z</time>
      </trkpt>
      <trkpt lat="44.46679" lon="6.55024">
        <ele>1844</ele>
        <time>2021-04-08T07:11:02Z</time>
      </trkpt>
      <trkpt lat="44.46678" lon="6.55024">
        <ele>1844</ele>
        <time>2021-04-08T07:11:03Z</time>
      </trkpt>
      <trkpt lat="44.46678" lon="6.55024">
        <ele>1844</ele>
        <time>2021-04-08T07:11:04Z</time>
      </trkpt>
      <trkpt lat="44.46677" lon="6.55024">
        <ele>1844</ele>
        <time>2021-04-08T07:11:05Z</time>
      </trkpt>
      <trkpt lat="44.46677" lon="6.55026">
        <ele>1844</ele>
        <time>2021-04-08T07:11:06Z</time>
      </trkpt>
      <trkpt lat="44.46677" lon="6.55026">
        <ele>1844</ele>
        <time>2021-04-08T07:11:07Z</time>
      </trkpt>
      <trkpt lat="44.46677" lon="6.55027">
        <ele>1844</ele>
        <time>2021-04-08T07:11:08Z</time>
      </trkpt>
      <trkpt lat="44.46677" lon="6.55028">
        <ele>1844</ele>
        <time>2021-04-08T07:11:09Z</time>
      </trkpt>
      <trkpt lat="44.46676" lon="6.55029">
        <ele>1844</ele>
        <time>2021-04-08T07:11:10Z</time>
      </trkpt>
      <trkpt lat="44.46676" lon="6.5503">
        <ele>1844</ele>
        <time>2021-04-08T07:11:11Z</time>
      </trkpt>
      <trkpt lat="44.46675" lon="6.55031">
        <ele>1844</ele>
        <time>2021-04-08T07:11:12Z</time>
      </trkpt>
      <trkpt lat="44.46674" lon="6.55031">
        <ele>1844</ele>
        <time>2021-04-08T07:11:13Z</time>
      </trkpt>
      <trkpt lat="44.46674" lon="6.55032">
        <ele>1844</ele>
        <time>2021-04-08T07:11:14Z</time>
      </trkpt>
      <trkpt lat="44.46674" lon="6.55033">
        <ele>1844</ele>
        <time>2021-04-08T07:11:15Z</time>
      </trkpt>
      <trkpt lat="44.46674" lon="6.55034">
        <ele>1844</ele>
        <time>2021-04-08T07:11:16Z</time>
      </trkpt>
      <trkpt lat="44.46674" lon="6.55034">
        <ele>1844</ele>
        <time>2021-04-08T07:11:17Z</time>
      </trkpt>
      <trkpt lat="44.46674" lon="6.55034">
        <ele>1844</ele>
        <time>2021-04-08T07:11:18Z</time>
      </trkpt>
      <trkpt lat="44.46673" lon="6.55035">
        <ele>1844</ele>
        <time>2021-04-08T07:11:19Z</time>
      </trkpt>
      <trkpt lat="44.46673" lon="6.55036">
        <ele>1844</ele>
        <time>2021-04-08T07:11:20Z</time>
      </trkpt>
      <trkpt lat="44.46673" lon="6.55036">
        <ele>1844</ele>
        <time>2021-04-08T07:11:21Z</time>
      </trkpt>
      <trkpt lat="44.46673" lon="6.55037">
        <ele>1844</ele>
        <time>2021-04-08T07:11:22Z</time>
      </trkpt>
      <trkpt lat="44.46673" lon="6.55038">
        <ele>1844</ele>
        <time>2021-04-08T07:11:23Z</time>
      </trkpt>
      <trkpt lat="44.46672" lon="6.55038">
        <ele>1844</ele>
        <time>2021-04-08T07:11:24Z</time>
      </trkpt>
      <trkpt lat="44.46672" lon="6.55039">
        <ele>1844</ele>
        <time>2021-04-08T07:11:25Z</time>
      </trkpt>
      <trkpt lat="44.46672" lon="6.5504">
        <ele>1844</ele>
        <time>2021-04-08T07:11:26Z</time>
      </trkpt>
      <trkpt lat="44.46672" lon="6.55041">
        <ele>1844</ele>
        <time>2021-04-08T07:11:27Z</time>
      </trkpt>
      <trkpt lat="44.46672" lon="6.55042">
        <ele>1844</ele>
        <time>2021-04-08T07:11:28Z</time>
      </trkpt>
      <trkpt lat="44.46671" lon="6.55043">
        <ele>1844</ele>
        <time>2021-04-08T07:11:29Z</time>
      </trkpt>
      <trkpt lat="44.46671" lon="6.55044">
        <ele>1844</ele>
        <time>2021-04-08T07:11:30Z</time>
      </trkpt>
      <trkpt lat="44.46671" lon="6.55045">
        <ele>1844</ele>
        <time>2021-04-08T07:11:31Z</time>
      </trkpt>
      <trkpt lat="44.4667" lon="6.55045">
        <ele>1844</ele>
        <time>2021-04-08T07:11:32Z</time>
      </trkpt>
      <trkpt lat="44.4667" lon="6.55046">
        <ele>1845</ele>
        <time>2021-04-08T07:11:33Z</time>
      </trkpt>
      <trkpt lat="44.4667" lon="6.55047">
        <ele>1845</ele>
        <time>2021-04-08T07:11:34Z</time>
      </trkpt>
      <trkpt lat="44.46669" lon="6.55048">
        <ele>1845</ele>
        <time>2021-04-08T07:11:35Z</time>
      </trkpt>
      <trkpt lat="44.46669" lon="6.55048">
        <ele>1845</ele>
        <time>2021-04-08T07:11:36Z</time>
      </trkpt>
      <trkpt lat="44.46669" lon="6.55048">
        <ele>1845</ele>
        <time>2021-04-08T07:11:37Z</time>
      </trkpt>
      <trkpt lat="44.46669" lon="6.55049">
        <ele>1845</ele>
        <time>2021-04-08T07:11:38Z</time>
      </trkpt>
      <trkpt lat="44.46668" lon="6.55048">
        <ele>1845</ele>
        <time>2021-04-08T07:11:39Z</time>
      </trkpt>
      <trkpt lat="44.46668" lon="6.55049">
        <ele>1846</ele>
        <time>2021-04-08T07:11:40Z</time>
      </trkpt>
      <trkpt lat="44.46668" lon="6.55048">
        <ele>1846</ele>
        <time>2021-04-08T07:11:41Z</time>
      </trkpt>
      <trkpt lat="44.46667" lon="6.55048">
        <ele>1846</ele>
        <time>2021-04-08T07:11:42Z</time>
      </trkpt>
      <trkpt lat="44.46667" lon="6.55048">
        <ele>1846</ele>
        <time>2021-04-08T07:11:43Z</time>
      </trkpt>
      <trkpt lat="44.46666" lon="6.55048">
        <ele>1846</ele>
        <time>2021-04-08T07:11:44Z</time>
      </trkpt>
      <trkpt lat="44.46666" lon="6.55047">
        <ele>1846</ele>
        <time>2021-04-08T07:11:45Z</time>
      </trkpt>
      <trkpt lat="44.46665" lon="6.55047">
        <ele>1846</ele>
        <time>2021-04-08T07:11:46Z</time>
      </trkpt>
      <trkpt lat="44.46665" lon="6.55047">
        <ele>1846</ele>
        <time>2021-04-08T07:11:47Z</time>
      </trkpt>
      <trkpt lat="44.46664" lon="6.55046">
        <ele>1847</ele>
        <time>2021-04-08T07:11:48Z</time>
      </trkpt>
      <trkpt lat="44.46663" lon="6.55046">
        <ele>1847</ele>
        <time>2021-04-08T07:11:49Z</time>
      </trkpt>
      <trkpt lat="44.46662" lon="6.55046">
        <ele>1847</ele>
        <time>2021-04-08T07:11:50Z</time>
      </trkpt>
      <trkpt lat="44.46662" lon="6.55046">
        <ele>1847</ele>
        <time>2021-04-08T07:11:51Z</time>
      </trkpt>
      <trkpt lat="44.46661" lon="6.55045">
        <ele>1847</ele>
        <time>2021-04-08T07:11:52Z</time>
      </trkpt>
      <trkpt lat="44.4666" lon="6.55045">
        <ele>1847</ele>
        <time>2021-04-08T07:11:53Z</time>
      </trkpt>
      <trkpt lat="44.46659" lon="6.55045">
        <ele>1847</ele>
        <time>2021-04-08T07:11:54Z</time>
      </trkpt>
      <trkpt lat="44.46659" lon="6.55045">
        <ele>1847</ele>
        <time>2021-04-08T07:11:55Z</time>
      </trkpt>
      <trkpt lat="44.46659" lon="6.55044">
        <ele>1848</ele>
        <time>2021-04-08T07:11:56Z</time>
      </trkpt>
      <trkpt lat="44.46658" lon="6.55044">
        <ele>1848</ele>
        <time>2021-04-08T07:11:57Z</time>
      </trkpt>
      <trkpt lat="44.46657" lon="6.55043">
        <ele>1848</ele>
        <time>2021-04-08T07:11:58Z</time>
      </trkpt>
      <trkpt lat="44.46657" lon="6.55042">
        <ele>1848</ele>
        <time>2021-04-08T07:11:59Z</time>
      </trkpt>
      <trkpt lat="44.46657" lon="6.55042">
        <ele>1848</ele>
        <time>2021-04-08T07:12:00Z</time>
      </trkpt>
      <trkpt lat="44.46656" lon="6.55042">
        <ele>1848</ele>
        <time>2021-04-08T07:12:01Z</time>
      </trkpt>
      <trkpt lat="44.46655" lon="6.55041">
        <ele>1849</ele>
        <time>2021-04-08T07:12:02Z</time>
      </trkpt>
      <trkpt lat="44.46654" lon="6.55041">
        <ele>1849</ele>
        <time>2021-04-08T07:12:03Z</time>
      </trkpt>
      <trkpt lat="44.46654" lon="6.55041">
        <ele>1849</ele>
        <time>2021-04-08T07:12:04Z</time>
      </trkpt>
      <trkpt lat="44.46653" lon="6.5504">
        <ele>1849</ele>
        <time>2021-04-08T07:12:05Z</time>
      </trkpt>
      <trkpt lat="44.46652" lon="6.55039">
        <ele>1849</ele>
        <time>2021-04-08T07:12:06Z</time>
      </trkpt>
      <trkpt lat="44.46651" lon="6.55039">
        <ele>1849</ele>
        <time>2021-04-08T07:12:07Z</time>
      </trkpt>
      <trkpt lat="44.46651" lon="6.55039">
        <ele>1849</ele>
        <time>2021-04-08T07:12:08Z</time>
      </trkpt>
      <trkpt lat="44.4665" lon="6.55039">
        <ele>1850</ele>
        <time>2021-04-08T07:12:09Z</time>
      </trkpt>
      <trkpt lat="44.4665" lon="6.55038">
        <ele>1850</ele>
        <time>2021-04-08T07:12:10Z</time>
      </trkpt>
      <trkpt lat="44.46649" lon="6.55038">
        <ele>1850</ele>
        <time>2021-04-08T07:12:11Z</time>
      </trkpt>
      <trkpt lat="44.46648" lon="6.55037">
        <ele>1850</ele>
        <time>2021-04-08T07:12:12Z</time>
      </trkpt>
      <trkpt lat="44.46648" lon="6.55036">
        <ele>1850</ele>
        <time>2021-04-08T07:12:13Z</time>
      </trkpt>
      <trkpt lat="44.46647" lon="6.55035">
        <ele>1850</ele>
        <time>2021-04-08T07:12:14Z</time>
      </trkpt>
      <trkpt lat="44.46646" lon="6.55034">
        <ele>1850</ele>
        <time>2021-04-08T07:12:15Z</time>
      </trkpt>
      <trkpt lat="44.46646" lon="6.55033">
        <ele>1850</ele>
        <time>2021-04-08T07:12:16Z</time>
      </trkpt>
      <trkpt lat="44.46645" lon="6.55032">
        <ele>1851</ele>
        <time>2021-04-08T07:12:17Z</time>
      </trkpt>
      <trkpt lat="44.46645" lon="6.55031">
        <ele>1851</ele>
        <time>2021-04-08T07:12:18Z</time>
      </trkpt>
      <trkpt lat="44.46645" lon="6.5503">
        <ele>1851</ele>
        <time>2021-04-08T07:12:19Z</time>
      </trkpt>
      <trkpt lat="44.46644" lon="6.5503">
        <ele>1851</ele>
        <time>2021-04-08T07:12:20Z</time>
      </trkpt>
      <trkpt lat="44.46644" lon="6.55029">
        <ele>1852</ele>
        <time>2021-04-08T07:12:21Z</time>
      </trkpt>
      <trkpt lat="44.46643" lon="6.55029">
        <ele>1852</ele>
        <time>2021-04-08T07:12:22Z</time>
      </trkpt>
      <trkpt lat="44.46643" lon="6.55027">
        <ele>1852</ele>
        <time>2021-04-08T07:12:23Z</time>
      </trkpt>
      <trkpt lat="44.46643" lon="6.55027">
        <ele>1852</ele>
        <time>2021-04-08T07:12:24Z</time>
      </trkpt>
      <trkpt lat="44.46642" lon="6.55026">
        <ele>1853</ele>
        <time>2021-04-08T07:12:25Z</time>
      </trkpt>
      <trkpt lat="44.46642" lon="6.55025">
        <ele>1853</ele>
        <time>2021-04-08T07:12:26Z</time>
      </trkpt>
      <trkpt lat="44.46641" lon="6.55024">
        <ele>1853</ele>
        <time>2021-04-08T07:12:27Z</time>
      </trkpt>
      <trkpt lat="44.46641" lon="6.55024">
        <ele>1853</ele>
        <time>2021-04-08T07:12:28Z</time>
      </trkpt>
      <trkpt lat="44.4664" lon="6.55024">
        <ele>1853</ele>
        <time>2021-04-08T07:12:29Z</time>
      </trkpt>
      <trkpt lat="44.4664" lon="6.55024">
        <ele>1853</ele>
        <time>2021-04-08T07:12:30Z</time>
      </trkpt>
      <trkpt lat="44.46639" lon="6.55023">
        <ele>1853</ele>
        <time>2021-04-08T07:12:31Z</time>
      </trkpt>
      <trkpt lat="44.46639" lon="6.55023">
        <ele>1853</ele>
        <time>2021-04-08T07:12:32Z</time>
      </trkpt>
      <trkpt lat="44.46638" lon="6.55022">
        <ele>1853</ele>
        <time>2021-04-08T07:12:33Z</time>
      </trkpt>
      <trkpt lat="44.46637" lon="6.55021">
        <ele>1854</ele>
        <time>2021-04-08T07:12:34Z</time>
      </trkpt>
      <trkpt lat="44.46637" lon="6.55021">
        <ele>1854</ele>
        <time>2021-04-08T07:12:35Z</time>
      </trkpt>
      <trkpt lat="44.46637" lon="6.5502">
        <ele>1854</ele>
        <time>2021-04-08T07:12:36Z</time>
      </trkpt>
      <trkpt lat="44.46636" lon="6.55019">
        <ele>1854</ele>
        <time>2021-04-08T07:12:37Z</time>
      </trkpt>
      <trkpt lat="44.46636" lon="6.55018">
        <ele>1854</ele>
        <time>2021-04-08T07:12:38Z</time>
      </trkpt>
      <trkpt lat="44.46636" lon="6.55017">
        <ele>1855</ele>
        <time>2021-04-08T07:12:39Z</time>
      </trkpt>
      <trkpt lat="44.46636" lon="6.55016">
        <ele>1855</ele>
        <time>2021-04-08T07:12:40Z</time>
      </trkpt>
      <trkpt lat="44.46635" lon="6.55015">
        <ele>1855</ele>
        <time>2021-04-08T07:12:41Z</time>
      </trkpt>
      <trkpt lat="44.46635" lon="6.55015">
        <ele>1855</ele>
        <time>2021-04-08T07:12:42Z</time>
      </trkpt>
      <trkpt lat="44.46635" lon="6.55014">
        <ele>1855</ele>
        <time>2021-04-08T07:12:43Z</time>
      </trkpt>
      <trkpt lat="44.46634" lon="6.55013">
        <ele>1855</ele>
        <time>2021-04-08T07:12:44Z</time>
      </trkpt>
      <trkpt lat="44.46634" lon="6.55013">
        <ele>1856</ele>
        <time>2021-04-08T07:12:45Z</time>
      </trkpt>
      <trkpt lat="44.46633" lon="6.55012">
        <ele>1856</ele>
        <time>2021-04-08T07:12:46Z</time>
      </trkpt>
      <trkpt lat="44.46633" lon="6.55011">
        <ele>1856</ele>
        <time>2021-04-08T07:12:47Z</time>
      </trkpt>
      <trkpt lat="44.46633" lon="6.5501">
        <ele>1856</ele>
        <time>2021-04-08T07:12:48Z</time>
      </trkpt>
      <trkpt lat="44.46632" lon="6.55009">
        <ele>1857</ele>
        <time>2021-04-08T07:12:49Z</time>
      </trkpt>
      <trkpt lat="44.46632" lon="6.55008">
        <ele>1857</ele>
        <time>2021-04-08T07:12:50Z</time>
      </trkpt>
      <trkpt lat="44.46631" lon="6.55008">
        <ele>1858</ele>
        <time>2021-04-08T07:12:51Z</time>
      </trkpt>
      <trkpt lat="44.46631" lon="6.55007">
        <ele>1858</ele>
        <time>2021-04-08T07:12:52Z</time>
      </trkpt>
      <trkpt lat="44.46631" lon="6.55006">
        <ele>1858</ele>
        <time>2021-04-08T07:12:53Z</time>
      </trkpt>
      <trkpt lat="44.46631" lon="6.55005">
        <ele>1858</ele>
        <time>2021-04-08T07:12:54Z</time>
      </trkpt>
      <trkpt lat="44.46631" lon="6.55004">
        <ele>1859</ele>
        <time>2021-04-08T07:12:55Z</time>
      </trkpt>
      <trkpt lat="44.4663" lon="6.55003">
        <ele>1859</ele>
        <time>2021-04-08T07:12:56Z</time>
      </trkpt>
      <trkpt lat="44.4663" lon="6.55002">
        <ele>1859</ele>
        <time>2021-04-08T07:12:57Z</time>
      </trkpt>
      <trkpt lat="44.4663" lon="6.55001">
        <ele>1859</ele>
        <time>2021-04-08T07:12:58Z</time>
      </trkpt>
      <trkpt lat="44.46629" lon="6.55">
        <ele>1860</ele>
        <time>2021-04-08T07:12:59Z</time>
      </trkpt>
      <trkpt lat="44.46629" lon="6.54999">
        <ele>1860</ele>
        <time>2021-04-08T07:13:00Z</time>
      </trkpt>
      <trkpt lat="44.46629" lon="6.54998">
        <ele>1860</ele>
        <time>2021-04-08T07:13:01Z</time>
      </trkpt>
      <trkpt lat="44.46629" lon="6.54997">
        <ele>1860</ele>
        <time>2021-04-08T07:13:02Z</time>
      </trkpt>
      <trkpt lat="44.46629" lon="6.54996">
        <ele>1860</ele>
        <time>2021-04-08T07:13:03Z</time>
      </trkpt>
      <trkpt lat="44.46628" lon="6.54995">
        <ele>1861</ele>
        <time>2021-04-08T07:13:04Z</time>
      </trkpt>
      <trkpt lat="44.46629" lon="6.54994">
        <ele>1861</ele>
        <time>2021-04-08T07:13:05Z</time>
      </trkpt>
      <trkpt lat="44.46628" lon="6.54993">
        <ele>1861</ele>
        <time>2021-04-08T07:13:06Z</time>
      </trkpt>
      <trkpt lat="44.46628" lon="6.54992">
        <ele>1861</ele>
        <time>2021-04-08T07:13:07Z</time>
      </trkpt>
      <trkpt lat="44.46628" lon="6.54991">
        <ele>1862</ele>
        <time>2021-04-08T07:13:08Z</time>
      </trkpt>
      <trkpt lat="44.46627" lon="6.5499">
        <ele>1862</ele>
        <time>2021-04-08T07:13:09Z</time>
      </trkpt>
      <trkpt lat="44.46627" lon="6.5499">
        <ele>1862</ele>
        <time>2021-04-08T07:13:10Z</time>
      </trkpt>
      <trkpt lat="44.46627" lon="6.54989">
        <ele>1862</ele>
        <time>2021-04-08T07:13:11Z</time>
      </trkpt>
      <trkpt lat="44.46626" lon="6.54988">
        <ele>1862</ele>
        <time>2021-04-08T07:13:12Z</time>
      </trkpt>
      <trkpt lat="44.46626" lon="6.54987">
        <ele>1862</ele>
        <time>2021-04-08T07:13:13Z</time>
      </trkpt>
      <trkpt lat="44.46626" lon="6.54986">
        <ele>1863</ele>
        <time>2021-04-08T07:13:14Z</time>
      </trkpt>
      <trkpt lat="44.46625" lon="6.54986">
        <ele>1863</ele>
        <time>2021-04-08T07:13:15Z</time>
      </trkpt>
      <trkpt lat="44.46625" lon="6.54985">
        <ele>1863</ele>
        <time>2021-04-08T07:13:16Z</time>
      </trkpt>
      <trkpt lat="44.46625" lon="6.54984">
        <ele>1863</ele>
        <time>2021-04-08T07:13:17Z</time>
      </trkpt>
      <trkpt lat="44.46624" lon="6.54984">
        <ele>1863</ele>
        <time>2021-04-08T07:13:18Z</time>
      </trkpt>
      <trkpt lat="44.46625" lon="6.54983">
        <ele>1863</ele>
        <time>2021-04-08T07:13:19Z</time>
      </trkpt>
      <trkpt lat="44.46624" lon="6.54982">
        <ele>1864</ele>
        <time>2021-04-08T07:13:20Z</time>
      </trkpt>
      <trkpt lat="44.46625" lon="6.54981">
        <ele>1864</ele>
        <time>2021-04-08T07:13:21Z</time>
      </trkpt>
      <trkpt lat="44.46625" lon="6.5498">
        <ele>1864</ele>
        <time>2021-04-08T07:13:22Z</time>
      </trkpt>
      <trkpt lat="44.46625" lon="6.54979">
        <ele>1864</ele>
        <time>2021-04-08T07:13:23Z</time>
      </trkpt>
      <trkpt lat="44.46625" lon="6.54979">
        <ele>1865</ele>
        <time>2021-04-08T07:13:24Z</time>
      </trkpt>
      <trkpt lat="44.46625" lon="6.54979">
        <ele>1865</ele>
        <time>2021-04-08T07:13:25Z</time>
      </trkpt>
      <trkpt lat="44.46625" lon="6.54978">
        <ele>1865</ele>
        <time>2021-04-08T07:13:26Z</time>
      </trkpt>
      <trkpt lat="44.46626" lon="6.54978">
        <ele>1865</ele>
        <time>2021-04-08T07:13:27Z</time>
      </trkpt>
      <trkpt lat="44.46625" lon="6.54978">
        <ele>1865</ele>
        <time>2021-04-08T07:13:28Z</time>
      </trkpt>
      <trkpt lat="44.46626" lon="6.54977">
        <ele>1865</ele>
        <time>2021-04-08T07:13:29Z</time>
      </trkpt>
      <trkpt lat="44.46626" lon="6.54976">
        <ele>1865</ele>
        <time>2021-04-08T07:13:30Z</time>
      </trkpt>
      <trkpt lat="44.46626" lon="6.54976">
        <ele>1866</ele>
        <time>2021-04-08T07:13:31Z</time>
      </trkpt>
      <trkpt lat="44.46626" lon="6.54975">
        <ele>1866</ele>
        <time>2021-04-08T07:13:32Z</time>
      </trkpt>
      <trkpt lat="44.46627" lon="6.54975">
        <ele>1866</ele>
        <time>2021-04-08T07:13:33Z</time>
      </trkpt>
      <trkpt lat="44.46627" lon="6.54974">
        <ele>1866</ele>
        <time>2021-04-08T07:13:34Z</time>
      </trkpt>
      <trkpt lat="44.46627" lon="6.54973">
        <ele>1866</ele>
        <time>2021-04-08T07:13:35Z</time>
      </trkpt>
      <trkpt lat="44.46627" lon="6.54973">
        <ele>1866</ele>
        <time>2021-04-08T07:13:36Z</time>
      </trkpt>
      <trkpt lat="44.46627" lon="6.54972">
        <ele>1867</ele>
        <time>2021-04-08T07:13:37Z</time>
      </trkpt>
      <trkpt lat="44.46627" lon="6.54971">
        <ele>1867</ele>
        <time>2021-04-08T07:13:38Z</time>
      </trkpt>
      <trkpt lat="44.46626" lon="6.54971">
        <ele>1867</ele>
        <time>2021-04-08T07:13:39Z</time>
      </trkpt>
      <trkpt lat="44.46625" lon="6.54971">
        <ele>1868</ele>
        <time>2021-04-08T07:13:40Z</time>
      </trkpt>
      <trkpt lat="44.46625" lon="6.54971">
        <ele>1868</ele>
        <time>2021-04-08T07:13:41Z</time>
      </trkpt>
      <trkpt lat="44.46624" lon="6.54971">
        <ele>1868</ele>
        <time>2021-04-08T07:13:42Z</time>
      </trkpt>
      <trkpt lat="44.46624" lon="6.54971">
        <ele>1868</ele>
        <time>2021-04-08T07:13:43Z</time>
      </trkpt>
      <trkpt lat="44.46624" lon="6.54971">
        <ele>1869</ele>
        <time>2021-04-08T07:13:44Z</time>
      </trkpt>
      <trkpt lat="44.46624" lon="6.54971">
        <ele>1869</ele>
        <time>2021-04-08T07:13:45Z</time>
      </trkpt>
      <trkpt lat="44.46623" lon="6.54971">
        <ele>1869</ele>
        <time>2021-04-08T07:13:46Z</time>
      </trkpt>
      <trkpt lat="44.46623" lon="6.54971">
        <ele>1869</ele>
        <time>2021-04-08T07:13:47Z</time>
      </trkpt>
      <trkpt lat="44.46623" lon="6.54971">
        <ele>1869</ele>
        <time>2021-04-08T07:13:48Z</time>
      </trkpt>
      <trkpt lat="44.46623" lon="6.54971">
        <ele>1869</ele>
        <time>2021-04-08T07:13:49Z</time>
      </trkpt>
      <trkpt lat="44.46623" lon="6.54971">
        <ele>1869</ele>
        <time>2021-04-08T07:13:50Z</time>
      </trkpt>
      <trkpt lat="44.46623" lon="6.54971">
        <ele>1869</ele>
        <time>2021-04-08T07:13:51Z</time>
      </trkpt>
      <trkpt lat="44.46623" lon="6.54971">
        <ele>1869</ele>
        <time>2021-04-08T07:13:52Z</time>
      </trkpt>
      <trkpt lat="44.46623" lon="6.54971">
        <ele>1869</ele>
        <time>2021-04-08T07:13:53Z</time>
      </trkpt>
      <trkpt lat="44.46623" lon="6.54971">
        <ele>1869</ele>
        <time>2021-04-08T07:13:54Z</time>
      </trkpt>
      <trkpt lat="44.46623" lon="6.54971">
        <ele>1869</ele>
        <time>2021-04-08T07:13:55Z</time>
      </trkpt>
      <trkpt lat="44.46623" lon="6.54971">
        <ele>1869</ele>
        <time>2021-04-08T07:13:56Z</time>
      </trkpt>
      <trkpt lat="44.46623" lon="6.54971">
        <ele>1869</ele>
        <time>2021-04-08T07:13:57Z</time>
      </trkpt>
      <trkpt lat="44.46623" lon="6.54971">
        <ele>1869</ele>
        <time>2021-04-08T07:13:58Z</time>
      </trkpt>
      <trkpt lat="44.46623" lon="6.54971">
        <ele>1869</ele>
        <time>2021-04-08T07:13:59Z</time>
      </trkpt>
      <trkpt lat="44.46623" lon="6.54971">
        <ele>1869</ele>
        <time>2021-04-08T07:14:00Z</time>
      </trkpt>
      <trkpt lat="44.46623" lon="6.54971">
        <ele>1869</ele>
        <time>2021-04-08T07:14:01Z</time>
      </trkpt>
      <trkpt lat="44.46623" lon="6.54971">
        <ele>1869</ele>
        <time>2021-04-08T07:14:02Z</time>
      </trkpt>
      <trkpt lat="44.46623" lon="6.54971">
        <ele>1869</ele>
        <time>2021-04-08T07:14:03Z</time>
      </trkpt>
      <trkpt lat="44.46623" lon="6.54971">
        <ele>1869</ele>
        <time>2021-04-08T07:14:04Z</time>
      </trkpt>
      <trkpt lat="44.46623" lon="6.54971">
        <ele>1869</ele>
        <time>2021-04-08T07:14:05Z</time>
      </trkpt>
      <trkpt lat="44.46623" lon="6.54971">
        <ele>1869</ele>
        <time>2021-04-08T07:14:06Z</time>
      </trkpt>
      <trkpt lat="44.46623" lon="6.54971">
        <ele>1869</ele>
        <time>2021-04-08T07:14:07Z</time>
      </trkpt>
      <trkpt lat="44.46623" lon="6.54971">
        <ele>1869</ele>
        <time>2021-04-08T07:14:08Z</time>
      </trkpt>
      <trkpt lat="44.46623" lon="6.54971">
        <ele>1869</ele>
        <time>2021-04-08T07:14:09Z</time>
      </trkpt>
      <trkpt lat="44.46623" lon="6.54971">
        <ele>1869</ele>
        <time>2021-04-08T07:14:10Z</time>
      </trkpt>
      <trkpt lat="44.46623" lon="6.54971">
        <ele>1869</ele>
        <time>2021-04-08T07:14:11Z</time>
      </trkpt>
      <trkpt lat="44.46623" lon="6.54971">
        <ele>1869</ele>
        <time>2021-04-08T07:14:12Z</time>
      </trkpt>
      <trkpt lat="44.46623" lon="6.54971">
        <ele>1869</ele>
        <time>2021-04-08T07:14:13Z</time>
      </trkpt>
      <trkpt lat="44.46623" lon="6.54971">
        <ele>1869</ele>
        <time>2021-04-08T07:14:14Z</time>
      </trkpt>
      <trkpt lat="44.46623" lon="6.54971">
        <ele>1869</ele>
        <time>2021-04-08T07:14:15Z</time>
      </trkpt>
      <trkpt lat="44.46623" lon="6.54971">
        <ele>1869</ele>
        <time>2021-04-08T07:14:16Z</time>
      </trkpt>
      <trkpt lat="44.46623" lon="6.54971">
        <ele>1869</ele>
        <time>2021-04-08T07:14:17Z</time>
      </trkpt>
      <trkpt lat="44.46623" lon="6.54971">
        <ele>1869</ele>
        <time>2021-04-08T07:14:18Z</time>
      </trkpt>
      <trkpt lat="44.46623" lon="6.54971">
        <ele>1869</ele>
        <time>2021-04-08T07:14:19Z</time>
      </trkpt>
      <trkpt lat="44.46623" lon="6.54971">
        <ele>1869</ele>
        <time>2021-04-08T07:14:20Z</time>
      </trkpt>
      <trkpt lat="44.46623" lon="6.54971">
        <ele>1869</ele>
        <time>2021-04-08T07:14:21Z</time>
      </trkpt>
      <trkpt lat="44.46623" lon="6.54971">
        <ele>1869</ele>
        <time>2021-04-08T07:14:22Z</time>
      </trkpt>
      <trkpt lat="44.46623" lon="6.54971">
        <ele>1869</ele>
        <time>2021-04-08T07:14:23Z</time>
      </trkpt>
      <trkpt lat="44.46623" lon="6.54971">
        <ele>1869</ele>
        <time>2021-04-08T07:14:24Z</time>
      </trkpt>
      <trkpt lat="44.46623" lon="6.54971">
        <ele>1869</ele>
        <time>2021-04-08T07:14:25Z</time>
      </trkpt>
      <trkpt lat="44.46623" lon="6.54971">
        <ele>1869</ele>
        <time>2021-04-08T07:14:26Z</time>
      </trkpt>
      <trkpt lat="44.46623" lon="6.54971">
        <ele>1869</ele>
        <time>2021-04-08T07:14:27Z</time>
      </trkpt>
      <trkpt lat="44.46623" lon="6.54971">
        <ele>1869</ele>
        <time>2021-04-08T07:14:28Z</time>
      </trkpt>
      <trkpt lat="44.46623" lon="6.54971">
        <ele>1869</ele>
        <time>2021-04-08T07:14:29Z</time>
      </trkpt>
      <trkpt lat="44.46623" lon="6.54971">
        <ele>1869</ele>
        <time>2021-04-08T07:14:30Z</time>
      </trkpt>
      <trkpt lat="44.46623" lon="6.54971">
        <ele>1869</ele>
        <time>2021-04-08T07:14:31Z</time>
      </trkpt>
      <trkpt lat="44.46623" lon="6.54971">
        <ele>1869</ele>
        <time>2021-04-08T07:14:32Z</time>
      </trkpt>
      <trkpt lat="44.46623" lon="6.54971">
        <ele>1869</ele>
        <time>2021-04-08T07:14:33Z</time>
      </trkpt>
      <trkpt lat="44.46623" lon="6.54971">
        <ele>1869</ele>
        <time>2021-04-08T07:14:34Z</time>
      </trkpt>
      <trkpt lat="44.46623" lon="6.54971">
        <ele>1869</ele>
        <time>2021-04-08T07:14:35Z</time>
      </trkpt>
      <trkpt lat="44.46623" lon="6.54971">
        <ele>1869</ele>
        <time>2021-04-08T07:14:36Z</time>
      </trkpt>
      <trkpt lat="44.46623" lon="6.54971">
        <ele>1869</ele>
        <time>2021-04-08T07:14:37Z</time>
      </trkpt>
      <trkpt lat="44.46623" lon="6.54971">
        <ele>1869</ele>
        <time>2021-04-08T07:14:38Z</time>
      </trkpt>
      <trkpt lat="44.46623" lon="6.54971">
        <ele>1869</ele>
        <time>2021-04-08T07:14:39Z</time>
      </trkpt>
      <trkpt lat="44.46623" lon="6.54971">
        <ele>1869</ele>
        <time>2021-04-08T07:14:40Z</time>
      </trkpt>
      <trkpt lat="44.46622" lon="6.54975">
        <ele>1870</ele>
        <time>2021-04-08T07:14:41Z</time>
      </trkpt>
      <trkpt lat="44.46622" lon="6.54976">
        <ele>1870</ele>
        <time>2021-04-08T07:14:42Z</time>
      </trkpt>
      <trkpt lat="44.46622" lon="6.54976">
        <ele>1870</ele>
        <time>2021-04-08T07:14:43Z</time>
      </trkpt>
      <trkpt lat="44.46622" lon="6.54977">
        <ele>1870</ele>
        <time>2021-04-08T07:14:44Z</time>
      </trkpt>
      <trkpt lat="44.46621" lon="6.54978">
        <ele>1870</ele>
        <time>2021-04-08T07:14:45Z</time>
      </trkpt>
      <trkpt lat="44.46621" lon="6.54978">
        <ele>1870</ele>
        <time>2021-04-08T07:14:46Z</time>
      </trkpt>
      <trkpt lat="44.46621" lon="6.54979">
        <ele>1870</ele>
        <time>2021-04-08T07:14:47Z</time>
      </trkpt>
      <trkpt lat="44.4662" lon="6.5498">
        <ele>1870</ele>
        <time>2021-04-08T07:14:48Z</time>
      </trkpt>
      <trkpt lat="44.46619" lon="6.5498">
        <ele>1870</ele>
        <time>2021-04-08T07:14:49Z</time>
      </trkpt>
      <trkpt lat="44.46618" lon="6.54981">
        <ele>1870</ele>
        <time>2021-04-08T07:14:50Z</time>
      </trkpt>
      <trkpt lat="44.46618" lon="6.54982">
        <ele>1870</ele>
        <time>2021-04-08T07:14:51Z</time>
      </trkpt>
      <trkpt lat="44.46617" lon="6.54983">
        <ele>1870</ele>
        <time>2021-04-08T07:14:52Z</time>
      </trkpt>
      <trkpt lat="44.46616" lon="6.54984">
        <ele>1871</ele>
        <time>2021-04-08T07:14:53Z</time>
      </trkpt>
      <trkpt lat="44.46615" lon="6.54984">
        <ele>1871</ele>
        <time>2021-04-08T07:14:54Z</time>
      </trkpt>
      <trkpt lat="44.46615" lon="6.54985">
        <ele>1871</ele>
        <time>2021-04-08T07:14:55Z</time>
      </trkpt>
      <trkpt lat="44.46615" lon="6.54986">
        <ele>1871</ele>
        <time>2021-04-08T07:14:56Z</time>
      </trkpt>
      <trkpt lat="44.46614" lon="6.54986">
        <ele>1871</ele>
        <time>2021-04-08T07:14:57Z</time>
      </trkpt>
      <trkpt lat="44.46614" lon="6.54987">
        <ele>1871</ele>
        <time>2021-04-08T07:14:58Z</time>
      </trkpt>
      <trkpt lat="44.46613" lon="6.54987">
        <ele>1871</ele>
        <time>2021-04-08T07:14:59Z</time>
      </trkpt>
      <trkpt lat="44.46613" lon="6.54988">
        <ele>1871</ele>
        <time>2021-04-08T07:15:00Z</time>
      </trkpt>
      <trkpt lat="44.46613" lon="6.54989">
        <ele>1871</ele>
        <time>2021-04-08T07:15:01Z</time>
      </trkpt>
      <trkpt lat="44.46612" lon="6.5499">
        <ele>1871</ele>
        <time>2021-04-08T07:15:02Z</time>
      </trkpt>
      <trkpt lat="44.46612" lon="6.54991">
        <ele>1871</ele>
        <time>2021-04-08T07:15:03Z</time>
      </trkpt>
      <trkpt lat="44.46612" lon="6.54992">
        <ele>1871</ele>
        <time>2021-04-08T07:15:04Z</time>
      </trkpt>
      <trkpt lat="44.46611" lon="6.54993">
        <ele>1871</ele>
        <time>2021-04-08T07:15:05Z</time>
      </trkpt>
      <trkpt lat="44.4661" lon="6.54994">
        <ele>1871</ele>
        <time>2021-04-08T07:15:06Z</time>
      </trkpt>
      <trkpt lat="44.46609" lon="6.54995">
        <ele>1871</ele>
        <time>2021-04-08T07:15:07Z</time>
      </trkpt>
      <trkpt lat="44.46608" lon="6.54996">
        <ele>1871</ele>
        <time>2021-04-08T07:15:08Z</time>
      </trkpt>
      <trkpt lat="44.46607" lon="6.54997">
        <ele>1871</ele>
        <time>2021-04-08T07:15:09Z</time>
      </trkpt>
      <trkpt lat="44.46607" lon="6.54998">
        <ele>1871</ele>
        <time>2021-04-08T07:15:10Z</time>
      </trkpt>
      <trkpt lat="44.46607" lon="6.54999">
        <ele>1871</ele>
        <time>2021-04-08T07:15:11Z</time>
      </trkpt>
      <trkpt lat="44.46606" lon="6.55">
        <ele>1871</ele>
        <time>2021-04-08T07:15:12Z</time>
      </trkpt>
      <trkpt lat="44.46606" lon="6.55001">
        <ele>1871</ele>
        <time>2021-04-08T07:15:13Z</time>
      </trkpt>
      <trkpt lat="44.46606" lon="6.55002">
        <ele>1871</ele>
        <time>2021-04-08T07:15:14Z</time>
      </trkpt>
      <trkpt lat="44.46606" lon="6.55003">
        <ele>1871</ele>
        <time>2021-04-08T07:15:15Z</time>
      </trkpt>
      <trkpt lat="44.46606" lon="6.55004">
        <ele>1872</ele>
        <time>2021-04-08T07:15:16Z</time>
      </trkpt>
      <trkpt lat="44.46605" lon="6.55004">
        <ele>1872</ele>
        <time>2021-04-08T07:15:17Z</time>
      </trkpt>
      <trkpt lat="44.46605" lon="6.55005">
        <ele>1872</ele>
        <time>2021-04-08T07:15:18Z</time>
      </trkpt>
      <trkpt lat="44.46605" lon="6.55006">
        <ele>1872</ele>
        <time>2021-04-08T07:15:19Z</time>
      </trkpt>
      <trkpt lat="44.46605" lon="6.55007">
        <ele>1872</ele>
        <time>2021-04-08T07:15:20Z</time>
      </trkpt>
      <trkpt lat="44.46605" lon="6.55008">
        <ele>1872</ele>
        <time>2021-04-08T07:15:21Z</time>
      </trkpt>
      <trkpt lat="44.46605" lon="6.55009">
        <ele>1873</ele>
        <time>2021-04-08T07:15:22Z</time>
      </trkpt>
      <trkpt lat="44.46605" lon="6.5501">
        <ele>1873</ele>
        <time>2021-04-08T07:15:23Z</time>
      </trkpt>
      <trkpt lat="44.46606" lon="6.55011">
        <ele>1873</ele>
        <time>2021-04-08T07:15:24Z</time>
      </trkpt>
      <trkpt lat="44.46606" lon="6.55012">
        <ele>1873</ele>
        <time>2021-04-08T07:15:25Z</time>
      </trkpt>
      <trkpt lat="44.46606" lon="6.55013">
        <ele>1873</ele>
        <time>2021-04-08T07:15:26Z</time>
      </trkpt>
      <trkpt lat="44.46606" lon="6.55014">
        <ele>1873</ele>
        <time>2021-04-08T07:15:27Z</time>
      </trkpt>
      <trkpt lat="44.46606" lon="6.55015">
        <ele>1874</ele>
        <time>2021-04-08T07:15:28Z</time>
      </trkpt>
      <trkpt lat="44.46607" lon="6.55016">
        <ele>1874</ele>
        <time>2021-04-08T07:15:29Z</time>
      </trkpt>
      <trkpt lat="44.46607" lon="6.55017">
        <ele>1874</ele>
        <time>2021-04-08T07:15:30Z</time>
      </trkpt>
      <trkpt lat="44.46607" lon="6.55019">
        <ele>1874</ele>
        <time>2021-04-08T07:15:31Z</time>
      </trkpt>
      <trkpt lat="44.46607" lon="6.5502">
        <ele>1875</ele>
        <time>2021-04-08T07:15:32Z</time>
      </trkpt>
      <trkpt lat="44.46607" lon="6.55021">
        <ele>1875</ele>
        <time>2021-04-08T07:15:33Z</time>
      </trkpt>
      <trkpt lat="44.46607" lon="6.55022">
        <ele>1875</ele>
        <time>2021-04-08T07:15:34Z</time>
      </trkpt>
      <trkpt lat="44.46607" lon="6.55023">
        <ele>1875</ele>
        <time>2021-04-08T07:15:35Z</time>
      </trkpt>
      <trkpt lat="44.46607" lon="6.55023">
        <ele>1875</ele>
        <time>2021-04-08T07:15:36Z</time>
      </trkpt>
      <trkpt lat="44.46607" lon="6.55024">
        <ele>1875</ele>
        <time>2021-04-08T07:15:37Z</time>
      </trkpt>
      <trkpt lat="44.46607" lon="6.55025">
        <ele>1875</ele>
        <time>2021-04-08T07:15:38Z</time>
      </trkpt>
      <trkpt lat="44.46606" lon="6.55027">
        <ele>1875</ele>
        <time>2021-04-08T07:15:39Z</time>
      </trkpt>
      <trkpt lat="44.46606" lon="6.55027">
        <ele>1876</ele>
        <time>2021-04-08T07:15:40Z</time>
      </trkpt>
      <trkpt lat="44.46605" lon="6.55028">
        <ele>1876</ele>
        <time>2021-04-08T07:15:41Z</time>
      </trkpt>
      <trkpt lat="44.46605" lon="6.55029">
        <ele>1876</ele>
        <time>2021-04-08T07:15:42Z</time>
      </trkpt>
      <trkpt lat="44.46604" lon="6.5503">
        <ele>1876</ele>
        <time>2021-04-08T07:15:43Z</time>
      </trkpt>
      <trkpt lat="44.46604" lon="6.55031">
        <ele>1876</ele>
        <time>2021-04-08T07:15:44Z</time>
      </trkpt>
      <trkpt lat="44.46603" lon="6.55032">
        <ele>1877</ele>
        <time>2021-04-08T07:15:45Z</time>
      </trkpt>
      <trkpt lat="44.46602" lon="6.55032">
        <ele>1877</ele>
        <time>2021-04-08T07:15:46Z</time>
      </trkpt>
      <trkpt lat="44.46602" lon="6.55033">
        <ele>1877</ele>
        <time>2021-04-08T07:15:47Z</time>
      </trkpt>
      <trkpt lat="44.46602" lon="6.55034">
        <ele>1877</ele>
        <time>2021-04-08T07:15:48Z</time>
      </trkpt>
      <trkpt lat="44.46601" lon="6.55034">
        <ele>1877</ele>
        <time>2021-04-08T07:15:49Z</time>
      </trkpt>
      <trkpt lat="44.466" lon="6.55034">
        <ele>1877</ele>
        <time>2021-04-08T07:15:50Z</time>
      </trkpt>
      <trkpt lat="44.466" lon="6.55034">
        <ele>1877</ele>
        <time>2021-04-08T07:15:51Z</time>
      </trkpt>
      <trkpt lat="44.46599" lon="6.55034">
        <ele>1878</ele>
        <time>2021-04-08T07:15:52Z</time>
      </trkpt>
      <trkpt lat="44.46598" lon="6.55034">
        <ele>1878</ele>
        <time>2021-04-08T07:15:53Z</time>
      </trkpt>
      <trkpt lat="44.46598" lon="6.55033">
        <ele>1878</ele>
        <time>2021-04-08T07:15:54Z</time>
      </trkpt>
      <trkpt lat="44.46597" lon="6.55032">
        <ele>1879</ele>
        <time>2021-04-08T07:15:55Z</time>
      </trkpt>
      <trkpt lat="44.46597" lon="6.55032">
        <ele>1880</ele>
        <time>2021-04-08T07:15:56Z</time>
      </trkpt>
      <trkpt lat="44.46596" lon="6.5503">
        <ele>1880</ele>
        <time>2021-04-08T07:15:57Z</time>
      </trkpt>
      <trkpt lat="44.46596" lon="6.55029">
        <ele>1881</ele>
        <time>2021-04-08T07:15:58Z</time>
      </trkpt>
      <trkpt lat="44.46596" lon="6.55028">
        <ele>1882</ele>
        <time>2021-04-08T07:15:59Z</time>
      </trkpt>
      <trkpt lat="44.46596" lon="6.55027">
        <ele>1882</ele>
        <time>2021-04-08T07:16:00Z</time>
      </trkpt>
      <trkpt lat="44.46596" lon="6.55027">
        <ele>1882</ele>
        <time>2021-04-08T07:16:01Z</time>
      </trkpt>
      <trkpt lat="44.46596" lon="6.55027">
        <ele>1882</ele>
        <time>2021-04-08T07:16:02Z</time>
      </trkpt>
      <trkpt lat="44.46596" lon="6.55025">
        <ele>1882</ele>
        <time>2021-04-08T07:16:03Z</time>
      </trkpt>
      <trkpt lat="44.46596" lon="6.55024">
        <ele>1882</ele>
        <time>2021-04-08T07:16:04Z</time>
      </trkpt>
      <trkpt lat="44.46596" lon="6.55023">
        <ele>1883</ele>
        <time>2021-04-08T07:16:05Z</time>
      </trkpt>
      <trkpt lat="44.46596" lon="6.55022">
        <ele>1883</ele>
        <time>2021-04-08T07:16:06Z</time>
      </trkpt>
      <trkpt lat="44.46596" lon="6.55021">
        <ele>1883</ele>
        <time>2021-04-08T07:16:07Z</time>
      </trkpt>
      <trkpt lat="44.46596" lon="6.5502">
        <ele>1883</ele>
        <time>2021-04-08T07:16:08Z</time>
      </trkpt>
      <trkpt lat="44.46595" lon="6.55019">
        <ele>1883</ele>
        <time>2021-04-08T07:16:09Z</time>
      </trkpt>
      <trkpt lat="44.46595" lon="6.55018">
        <ele>1884</ele>
        <time>2021-04-08T07:16:10Z</time>
      </trkpt>
      <trkpt lat="44.46595" lon="6.55017">
        <ele>1884</ele>
        <time>2021-04-08T07:16:11Z</time>
      </trkpt>
      <trkpt lat="44.46594" lon="6.55016">
        <ele>1884</ele>
        <time>2021-04-08T07:16:12Z</time>
      </trkpt>
      <trkpt lat="44.46594" lon="6.55016">
        <ele>1884</ele>
        <time>2021-04-08T07:16:13Z</time>
      </trkpt>
      <trkpt lat="44.46594" lon="6.55015">
        <ele>1885</ele>
        <time>2021-04-08T07:16:14Z</time>
      </trkpt>
      <trkpt lat="44.46594" lon="6.55014">
        <ele>1885</ele>
        <time>2021-04-08T07:16:15Z</time>
      </trkpt>
      <trkpt lat="44.46594" lon="6.55013">
        <ele>1885</ele>
        <time>2021-04-08T07:16:16Z</time>
      </trkpt>
      <trkpt lat="44.46594" lon="6.55011">
        <ele>1885</ele>
        <time>2021-04-08T07:16:17Z</time>
      </trkpt>
      <trkpt lat="44.46594" lon="6.55011">
        <ele>1886</ele>
        <time>2021-04-08T07:16:18Z</time>
      </trkpt>
      <trkpt lat="44.46593" lon="6.5501">
        <ele>1886</ele>
        <time>2021-04-08T07:16:19Z</time>
      </trkpt>
      <trkpt lat="44.46593" lon="6.55009">
        <ele>1886</ele>
        <time>2021-04-08T07:16:20Z</time>
      </trkpt>
      <trkpt lat="44.46593" lon="6.55008">
        <ele>1886</ele>
        <time>2021-04-08T07:16:21Z</time>
      </trkpt>
      <trkpt lat="44.46593" lon="6.55007">
        <ele>1887</ele>
        <time>2021-04-08T07:16:22Z</time>
      </trkpt>
      <trkpt lat="44.46593" lon="6.55005">
        <ele>1887</ele>
        <time>2021-04-08T07:16:23Z</time>
      </trkpt>
      <trkpt lat="44.46593" lon="6.55005">
        <ele>1887</ele>
        <time>2021-04-08T07:16:24Z</time>
      </trkpt>
      <trkpt lat="44.46593" lon="6.55004">
        <ele>1887</ele>
        <time>2021-04-08T07:16:25Z</time>
      </trkpt>
      <trkpt lat="44.46593" lon="6.55003">
        <ele>1887</ele>
        <time>2021-04-08T07:16:26Z</time>
      </trkpt>
      <trkpt lat="44.46593" lon="6.55001">
        <ele>1887</ele>
        <time>2021-04-08T07:16:27Z</time>
      </trkpt>
      <trkpt lat="44.46593" lon="6.55">
        <ele>1887</ele>
        <time>2021-04-08T07:16:28Z</time>
      </trkpt>
      <trkpt lat="44.46592" lon="6.54999">
        <ele>1888</ele>
        <time>2021-04-08T07:16:29Z</time>
      </trkpt>
      <trkpt lat="44.46592" lon="6.54998">
        <ele>1888</ele>
        <time>2021-04-08T07:16:30Z</time>
      </trkpt>
      <trkpt lat="44.46592" lon="6.54997">
        <ele>1888</ele>
        <time>2021-04-08T07:16:31Z</time>
      </trkpt>
      <trkpt lat="44.46591" lon="6.54996">
        <ele>1888</ele>
        <time>2021-04-08T07:16:32Z</time>
      </trkpt>
      <trkpt lat="44.46591" lon="6.54995">
        <ele>1888</ele>
        <time>2021-04-08T07:16:33Z</time>
      </trkpt>
      <trkpt lat="44.46591" lon="6.54993">
        <ele>1888</ele>
        <time>2021-04-08T07:16:34Z</time>
      </trkpt>
      <trkpt lat="44.46591" lon="6.54992">
        <ele>1888</ele>
        <time>2021-04-08T07:16:35Z</time>
      </trkpt>
      <trkpt lat="44.46591" lon="6.54991">
        <ele>1888</ele>
        <time>2021-04-08T07:16:36Z</time>
      </trkpt>
      <trkpt lat="44.4659" lon="6.5499">
        <ele>1888</ele>
        <time>2021-04-08T07:16:37Z</time>
      </trkpt>
      <trkpt lat="44.4659" lon="6.5499">
        <ele>1888</ele>
        <time>2021-04-08T07:16:38Z</time>
      </trkpt>
      <trkpt lat="44.4659" lon="6.54989">
        <ele>1888</ele>
        <time>2021-04-08T07:16:39Z</time>
      </trkpt>
      <trkpt lat="44.46589" lon="6.54988">
        <ele>1889</ele>
        <time>2021-04-08T07:16:40Z</time>
      </trkpt>
      <trkpt lat="44.46589" lon="6.54987">
        <ele>1889</ele>
        <time>2021-04-08T07:16:41Z</time>
      </trkpt>
      <trkpt lat="44.46588" lon="6.54986">
        <ele>1889</ele>
        <time>2021-04-08T07:16:42Z</time>
      </trkpt>
      <trkpt lat="44.46588" lon="6.54985">
        <ele>1889</ele>
        <time>2021-04-08T07:16:43Z</time>
      </trkpt>
      <trkpt lat="44.46588" lon="6.54984">
        <ele>1889</ele>
        <time>2021-04-08T07:16:44Z</time>
      </trkpt>
      <trkpt lat="44.46587" lon="6.54983">
        <ele>1889</ele>
        <time>2021-04-08T07:16:45Z</time>
      </trkpt>
      <trkpt lat="44.46587" lon="6.54982">
        <ele>1890</ele>
        <time>2021-04-08T07:16:46Z</time>
      </trkpt>
      <trkpt lat="44.46586" lon="6.5498">
        <ele>1890</ele>
        <time>2021-04-08T07:16:47Z</time>
      </trkpt>
      <trkpt lat="44.46585" lon="6.54979">
        <ele>1890</ele>
        <time>2021-04-08T07:16:48Z</time>
      </trkpt>
      <trkpt lat="44.46585" lon="6.54977">
        <ele>1890</ele>
        <time>2021-04-08T07:16:49Z</time>
      </trkpt>
      <trkpt lat="44.46585" lon="6.54977">
        <ele>1890</ele>
        <time>2021-04-08T07:16:50Z</time>
      </trkpt>
      <trkpt lat="44.46585" lon="6.54976">
        <ele>1890</ele>
        <time>2021-04-08T07:16:51Z</time>
      </trkpt>
      <trkpt lat="44.46584" lon="6.54975">
        <ele>1890</ele>
        <time>2021-04-08T07:16:52Z</time>
      </trkpt>
      <trkpt lat="44.46584" lon="6.54974">
        <ele>1891</ele>
        <time>2021-04-08T07:16:53Z</time>
      </trkpt>
      <trkpt lat="44.46584" lon="6.54973">
        <ele>1891</ele>
        <time>2021-04-08T07:16:54Z</time>
      </trkpt>
      <trkpt lat="44.46584" lon="6.54972">
        <ele>1891</ele>
        <time>2021-04-08T07:16:55Z</time>
      </trkpt>
      <trkpt lat="44.46584" lon="6.54971">
        <ele>1891</ele>
        <time>2021-04-08T07:16:56Z</time>
      </trkpt>
      <trkpt lat="44.46584" lon="6.5497">
        <ele>1891</ele>
        <time>2021-04-08T07:16:57Z</time>
      </trkpt>
      <trkpt lat="44.46584" lon="6.54969">
        <ele>1891</ele>
        <time>2021-04-08T07:16:58Z</time>
      </trkpt>
      <trkpt lat="44.46584" lon="6.54968">
        <ele>1891</ele>
        <time>2021-04-08T07:16:59Z</time>
      </trkpt>
      <trkpt lat="44.46584" lon="6.54966">
        <ele>1891</ele>
        <time>2021-04-08T07:17:00Z</time>
      </trkpt>
      <trkpt lat="44.46584" lon="6.54965">
        <ele>1891</ele>
        <time>2021-04-08T07:17:01Z</time>
      </trkpt>
      <trkpt lat="44.46584" lon="6.54964">
        <ele>1891</ele>
        <time>2021-04-08T07:17:02Z</time>
      </trkpt>
      <trkpt lat="44.46584" lon="6.54962">
        <ele>1891</ele>
        <time>2021-04-08T07:17:03Z</time>
      </trkpt>
      <trkpt lat="44.46584" lon="6.54961">
        <ele>1891</ele>
        <time>2021-04-08T07:17:04Z</time>
      </trkpt>
      <trkpt lat="44.46583" lon="6.5496">
        <ele>1891</ele>
        <time>2021-04-08T07:17:05Z</time>
      </trkpt>
      <trkpt lat="44.46582" lon="6.54959">
        <ele>1891</ele>
        <time>2021-04-08T07:17:06Z</time>
      </trkpt>
      <trkpt lat="44.46582" lon="6.54959">
        <ele>1891</ele>
        <time>2021-04-08T07:17:07Z</time>
      </trkpt>
      <trkpt lat="44.46582" lon="6.54958">
        <ele>1891</ele>
        <time>2021-04-08T07:17:08Z</time>
      </trkpt>
      <trkpt lat="44.46582" lon="6.54957">
        <ele>1891</ele>
        <time>2021-04-08T07:17:09Z</time>
      </trkpt>
      <trkpt lat="44.46582" lon="6.54957">
        <ele>1891</ele>
        <time>2021-04-08T07:17:10Z</time>
      </trkpt>
      <trkpt lat="44.46582" lon="6.54956">
        <ele>1891</ele>
        <time>2021-04-08T07:17:11Z</time>
      </trkpt>
      <trkpt lat="44.46581" lon="6.54955">
        <ele>1891</ele>
        <time>2021-04-08T07:17:12Z</time>
      </trkpt>
      <trkpt lat="44.46581" lon="6.54954">
        <ele>1892</ele>
        <time>2021-04-08T07:17:13Z</time>
      </trkpt>
      <trkpt lat="44.4658" lon="6.54953">
        <ele>1892</ele>
        <time>2021-04-08T07:17:14Z</time>
      </trkpt>
      <trkpt lat="44.46579" lon="6.54952">
        <ele>1892</ele>
        <time>2021-04-08T07:17:15Z</time>
      </trkpt>
      <trkpt lat="44.46579" lon="6.54951">
        <ele>1892</ele>
        <time>2021-04-08T07:17:16Z</time>
      </trkpt>
      <trkpt lat="44.46578" lon="6.5495">
        <ele>1892</ele>
        <time>2021-04-08T07:17:17Z</time>
      </trkpt>
      <trkpt lat="44.46579" lon="6.54949">
        <ele>1892</ele>
        <time>2021-04-08T07:17:18Z</time>
      </trkpt>
      <trkpt lat="44.46578" lon="6.54947">
        <ele>1892</ele>
        <time>2021-04-08T07:17:19Z</time>
      </trkpt>
      <trkpt lat="44.46579" lon="6.54946">
        <ele>1892</ele>
        <time>2021-04-08T07:17:20Z</time>
      </trkpt>
      <trkpt lat="44.46579" lon="6.54945">
        <ele>1892</ele>
        <time>2021-04-08T07:17:21Z</time>
      </trkpt>
      <trkpt lat="44.46579" lon="6.54944">
        <ele>1892</ele>
        <time>2021-04-08T07:17:22Z</time>
      </trkpt>
      <trkpt lat="44.46579" lon="6.54943">
        <ele>1892</ele>
        <time>2021-04-08T07:17:23Z</time>
      </trkpt>
      <trkpt lat="44.46579" lon="6.54942">
        <ele>1892</ele>
        <time>2021-04-08T07:17:24Z</time>
      </trkpt>
      <trkpt lat="44.46579" lon="6.54941">
        <ele>1892</ele>
        <time>2021-04-08T07:17:25Z</time>
      </trkpt>
      <trkpt lat="44.4658" lon="6.5494">
        <ele>1892</ele>
        <time>2021-04-08T07:17:26Z</time>
      </trkpt>
      <trkpt lat="44.4658" lon="6.5494">
        <ele>1892</ele>
        <time>2021-04-08T07:17:27Z</time>
      </trkpt>
      <trkpt lat="44.4658" lon="6.54939">
        <ele>1893</ele>
        <time>2021-04-08T07:17:28Z</time>
      </trkpt>
      <trkpt lat="44.46581" lon="6.54937">
        <ele>1893</ele>
        <time>2021-04-08T07:17:29Z</time>
      </trkpt>
      <trkpt lat="44.46581" lon="6.54937">
        <ele>1893</ele>
        <time>2021-04-08T07:17:30Z</time>
      </trkpt>
      <trkpt lat="44.46582" lon="6.54937">
        <ele>1893</ele>
        <time>2021-04-08T07:17:31Z</time>
      </trkpt>
      <trkpt lat="44.46582" lon="6.54937">
        <ele>1893</ele>
        <time>2021-04-08T07:17:32Z</time>
      </trkpt>
      <trkpt lat="44.46582" lon="6.54936">
        <ele>1893</ele>
        <time>2021-04-08T07:17:33Z</time>
      </trkpt>
      <trkpt lat="44.46582" lon="6.54935">
        <ele>1893</ele>
        <time>2021-04-08T07:17:34Z</time>
      </trkpt>
      <trkpt lat="44.46582" lon="6.54934">
        <ele>1893</ele>
        <time>2021-04-08T07:17:35Z</time>
      </trkpt>
      <trkpt lat="44.46582" lon="6.54933">
        <ele>1893</ele>
        <time>2021-04-08T07:17:36Z</time>
      </trkpt>
      <trkpt lat="44.46582" lon="6.54932">
        <ele>1893</ele>
        <time>2021-04-08T07:17:37Z</time>
      </trkpt>
      <trkpt lat="44.46582" lon="6.54931">
        <ele>1893</ele>
        <time>2021-04-08T07:17:38Z</time>
      </trkpt>
      <trkpt lat="44.46583" lon="6.54929">
        <ele>1893</ele>
        <time>2021-04-08T07:17:39Z</time>
      </trkpt>
      <trkpt lat="44.46583" lon="6.54928">
        <ele>1894</ele>
        <time>2021-04-08T07:17:40Z</time>
      </trkpt>
      <trkpt lat="44.46583" lon="6.54927">
        <ele>1894</ele>
        <time>2021-04-08T07:17:41Z</time>
      </trkpt>
      <trkpt lat="44.46583" lon="6.54926">
        <ele>1894</ele>
        <time>2021-04-08T07:17:42Z</time>
      </trkpt>
      <trkpt lat="44.46584" lon="6.54925">
        <ele>1894</ele>
        <time>2021-04-08T07:17:43Z</time>
      </trkpt>
      <trkpt lat="44.46584" lon="6.54924">
        <ele>1894</ele>
        <time>2021-04-08T07:17:44Z</time>
      </trkpt>
      <trkpt lat="44.46584" lon="6.54923">
        <ele>1894</ele>
        <time>2021-04-08T07:17:45Z</time>
      </trkpt>
      <trkpt lat="44.46584" lon="6.54922">
        <ele>1894</ele>
        <time>2021-04-08T07:17:46Z</time>
      </trkpt>
      <trkpt lat="44.46585" lon="6.54922">
        <ele>1895</ele>
        <time>2021-04-08T07:17:47Z</time>
      </trkpt>
      <trkpt lat="44.46585" lon="6.54921">
        <ele>1895</ele>
        <time>2021-04-08T07:17:48Z</time>
      </trkpt>
      <trkpt lat="44.46585" lon="6.5492">
        <ele>1895</ele>
        <time>2021-04-08T07:17:49Z</time>
      </trkpt>
      <trkpt lat="44.46585" lon="6.54918">
        <ele>1895</ele>
        <time>2021-04-08T07:17:50Z</time>
      </trkpt>
      <trkpt lat="44.46585" lon="6.54918">
        <ele>1895</ele>
        <time>2021-04-08T07:17:51Z</time>
      </trkpt>
      <trkpt lat="44.46585" lon="6.54917">
        <ele>1895</ele>
        <time>2021-04-08T07:17:52Z</time>
      </trkpt>
      <trkpt lat="44.46586" lon="6.54916">
        <ele>1896</ele>
        <time>2021-04-08T07:17:53Z</time>
      </trkpt>
      <trkpt lat="44.46585" lon="6.54915">
        <ele>1896</ele>
        <time>2021-04-08T07:17:54Z</time>
      </trkpt>
      <trkpt lat="44.46585" lon="6.54914">
        <ele>1896</ele>
        <time>2021-04-08T07:17:55Z</time>
      </trkpt>
      <trkpt lat="44.46585" lon="6.54913">
        <ele>1896</ele>
        <time>2021-04-08T07:17:56Z</time>
      </trkpt>
      <trkpt lat="44.46585" lon="6.54912">
        <ele>1895</ele>
        <time>2021-04-08T07:17:57Z</time>
      </trkpt>
      <trkpt lat="44.46585" lon="6.54911">
        <ele>1895</ele>
        <time>2021-04-08T07:17:58Z</time>
      </trkpt>
      <trkpt lat="44.46585" lon="6.5491">
        <ele>1895</ele>
        <time>2021-04-08T07:17:59Z</time>
      </trkpt>
      <trkpt lat="44.46585" lon="6.54909">
        <ele>1895</ele>
        <time>2021-04-08T07:18:00Z</time>
      </trkpt>
      <trkpt lat="44.46585" lon="6.54908">
        <ele>1895</ele>
        <time>2021-04-08T07:18:01Z</time>
      </trkpt>
      <trkpt lat="44.46585" lon="6.54907">
        <ele>1894</ele>
        <time>2021-04-08T07:18:02Z</time>
      </trkpt>
      <trkpt lat="44.46584" lon="6.54907">
        <ele>1894</ele>
        <time>2021-04-08T07:18:03Z</time>
      </trkpt>
      <trkpt lat="44.46582" lon="6.54906">
        <ele>1894</ele>
        <time>2021-04-08T07:18:04Z</time>
      </trkpt>
      <trkpt lat="44.46582" lon="6.54905">
        <ele>1894</ele>
        <time>2021-04-08T07:18:05Z</time>
      </trkpt>
      <trkpt lat="44.46581" lon="6.54904">
        <ele>1894</ele>
        <time>2021-04-08T07:18:06Z</time>
      </trkpt>
      <trkpt lat="44.46579" lon="6.54904">
        <ele>1894</ele>
        <time>2021-04-08T07:18:07Z</time>
      </trkpt>
      <trkpt lat="44.46578" lon="6.54903">
        <ele>1894</ele>
        <time>2021-04-08T07:18:08Z</time>
      </trkpt>
      <trkpt lat="44.46577" lon="6.54903">
        <ele>1894</ele>
        <time>2021-04-08T07:18:09Z</time>
      </trkpt>
      <trkpt lat="44.46576" lon="6.54903">
        <ele>1894</ele>
        <time>2021-04-08T07:18:10Z</time>
      </trkpt>
      <trkpt lat="44.46575" lon="6.54904">
        <ele>1894</ele>
        <time>2021-04-08T07:18:11Z</time>
      </trkpt>
      <trkpt lat="44.46575" lon="6.54904">
        <ele>1894</ele>
        <time>2021-04-08T07:18:12Z</time>
      </trkpt>
      <trkpt lat="44.46574" lon="6.54905">
        <ele>1894</ele>
        <time>2021-04-08T07:18:13Z</time>
      </trkpt>
      <trkpt lat="44.46574" lon="6.54905">
        <ele>1894</ele>
        <time>2021-04-08T07:18:14Z</time>
      </trkpt>
      <trkpt lat="44.46574" lon="6.54906">
        <ele>1894</ele>
        <time>2021-04-08T07:18:15Z</time>
      </trkpt>
      <trkpt lat="44.46574" lon="6.54907">
        <ele>1894</ele>
        <time>2021-04-08T07:18:16Z</time>
      </trkpt>
      <trkpt lat="44.46574" lon="6.54908">
        <ele>1894</ele>
        <time>2021-04-08T07:18:17Z</time>
      </trkpt>
      <trkpt lat="44.46574" lon="6.54908">
        <ele>1894</ele>
        <time>2021-04-08T07:18:18Z</time>
      </trkpt>
      <trkpt lat="44.46573" lon="6.5491">
        <ele>1894</ele>
        <time>2021-04-08T07:18:19Z</time>
      </trkpt>
      <trkpt lat="44.46572" lon="6.54911">
        <ele>1895</ele>
        <time>2021-04-08T07:18:20Z</time>
      </trkpt>
      <trkpt lat="44.46572" lon="6.54912">
        <ele>1895</ele>
        <time>2021-04-08T07:18:21Z</time>
      </trkpt>
      <trkpt lat="44.46572" lon="6.54913">
        <ele>1895</ele>
        <time>2021-04-08T07:18:22Z</time>
      </trkpt>
      <trkpt lat="44.46571" lon="6.54914">
        <ele>1896</ele>
        <time>2021-04-08T07:18:23Z</time>
      </trkpt>
      <trkpt lat="44.4657" lon="6.54914">
        <ele>1897</ele>
        <time>2021-04-08T07:18:24Z</time>
      </trkpt>
      <trkpt lat="44.4657" lon="6.54914">
        <ele>1897</ele>
        <time>2021-04-08T07:18:25Z</time>
      </trkpt>
      <trkpt lat="44.4657" lon="6.54915">
        <ele>1897</ele>
        <time>2021-04-08T07:18:26Z</time>
      </trkpt>
      <trkpt lat="44.46569" lon="6.54916">
        <ele>1898</ele>
        <time>2021-04-08T07:18:27Z</time>
      </trkpt>
      <trkpt lat="44.46569" lon="6.54916">
        <ele>1898</ele>
        <time>2021-04-08T07:18:28Z</time>
      </trkpt>
      <trkpt lat="44.46569" lon="6.54917">
        <ele>1899</ele>
        <time>2021-04-08T07:18:29Z</time>
      </trkpt>
      <trkpt lat="44.46568" lon="6.54918">
        <ele>1900</ele>
        <time>2021-04-08T07:18:30Z</time>
      </trkpt>
      <trkpt lat="44.46568" lon="6.54919">
        <ele>1900</ele>
        <time>2021-04-08T07:18:31Z</time>
      </trkpt>
      <trkpt lat="44.46568" lon="6.54919">
        <ele>1900</ele>
        <time>2021-04-08T07:18:32Z</time>
      </trkpt>
      <trkpt lat="44.46567" lon="6.5492">
        <ele>1901</ele>
        <time>2021-04-08T07:18:33Z</time>
      </trkpt>
      <trkpt lat="44.46567" lon="6.5492">
        <ele>1901</ele>
        <time>2021-04-08T07:18:34Z</time>
      </trkpt>
      <trkpt lat="44.46566" lon="6.54921">
        <ele>1902</ele>
        <time>2021-04-08T07:18:35Z</time>
      </trkpt>
      <trkpt lat="44.46566" lon="6.54921">
        <ele>1902</ele>
        <time>2021-04-08T07:18:36Z</time>
      </trkpt>
      <trkpt lat="44.46565" lon="6.54921">
        <ele>1902</ele>
        <time>2021-04-08T07:18:37Z</time>
      </trkpt>
      <trkpt lat="44.46564" lon="6.54922">
        <ele>1902</ele>
        <time>2021-04-08T07:18:38Z</time>
      </trkpt>
      <trkpt lat="44.46564" lon="6.54922">
        <ele>1902</ele>
        <time>2021-04-08T07:18:39Z</time>
      </trkpt>
      <trkpt lat="44.46563" lon="6.54923">
        <ele>1903</ele>
        <time>2021-04-08T07:18:40Z</time>
      </trkpt>
      <trkpt lat="44.46562" lon="6.54923">
        <ele>1903</ele>
        <time>2021-04-08T07:18:41Z</time>
      </trkpt>
      <trkpt lat="44.46562" lon="6.54923">
        <ele>1903</ele>
        <time>2021-04-08T07:18:42Z</time>
      </trkpt>
      <trkpt lat="44.46562" lon="6.54923">
        <ele>1904</ele>
        <time>2021-04-08T07:18:43Z</time>
      </trkpt>
      <trkpt lat="44.46561" lon="6.54924">
        <ele>1904</ele>
        <time>2021-04-08T07:18:44Z</time>
      </trkpt>
      <trkpt lat="44.4656" lon="6.54924">
        <ele>1904</ele>
        <time>2021-04-08T07:18:45Z</time>
      </trkpt>
      <trkpt lat="44.4656" lon="6.54925">
        <ele>1904</ele>
        <time>2021-04-08T07:18:46Z</time>
      </trkpt>
      <trkpt lat="44.46559" lon="6.54926">
        <ele>1905</ele>
        <time>2021-04-08T07:18:47Z</time>
      </trkpt>
      <trkpt lat="44.46559" lon="6.54927">
        <ele>1905</ele>
        <time>2021-04-08T07:18:48Z</time>
      </trkpt>
      <trkpt lat="44.46558" lon="6.54927">
        <ele>1905</ele>
        <time>2021-04-08T07:18:49Z</time>
      </trkpt>
      <trkpt lat="44.46558" lon="6.54927">
        <ele>1905</ele>
        <time>2021-04-08T07:18:50Z</time>
      </trkpt>
      <trkpt lat="44.46557" lon="6.54928">
        <ele>1905</ele>
        <time>2021-04-08T07:18:51Z</time>
      </trkpt>
      <trkpt lat="44.46556" lon="6.54928">
        <ele>1906</ele>
        <time>2021-04-08T07:18:52Z</time>
      </trkpt>
      <trkpt lat="44.46555" lon="6.54929">
        <ele>1906</ele>
        <time>2021-04-08T07:18:53Z</time>
      </trkpt>
      <trkpt lat="44.46554" lon="6.5493">
        <ele>1906</ele>
        <time>2021-04-08T07:18:54Z</time>
      </trkpt>
      <trkpt lat="44.46553" lon="6.54931">
        <ele>1906</ele>
        <time>2021-04-08T07:18:55Z</time>
      </trkpt>
      <trkpt lat="44.46552" lon="6.54931">
        <ele>1906</ele>
        <time>2021-04-08T07:18:56Z</time>
      </trkpt>
      <trkpt lat="44.46552" lon="6.54932">
        <ele>1906</ele>
        <time>2021-04-08T07:18:57Z</time>
      </trkpt>
      <trkpt lat="44.46552" lon="6.54932">
        <ele>1907</ele>
        <time>2021-04-08T07:18:58Z</time>
      </trkpt>
      <trkpt lat="44.46551" lon="6.54933">
        <ele>1907</ele>
        <time>2021-04-08T07:18:59Z</time>
      </trkpt>
      <trkpt lat="44.46551" lon="6.54933">
        <ele>1907</ele>
        <time>2021-04-08T07:19:00Z</time>
      </trkpt>
      <trkpt lat="44.46551" lon="6.54934">
        <ele>1907</ele>
        <time>2021-04-08T07:19:01Z</time>
      </trkpt>
      <trkpt lat="44.4655" lon="6.54935">
        <ele>1907</ele>
        <time>2021-04-08T07:19:02Z</time>
      </trkpt>
      <trkpt lat="44.4655" lon="6.54936">
        <ele>1908</ele>
        <time>2021-04-08T07:19:03Z</time>
      </trkpt>
      <trkpt lat="44.4655" lon="6.54937">
        <ele>1908</ele>
        <time>2021-04-08T07:19:04Z</time>
      </trkpt>
      <trkpt lat="44.46549" lon="6.54937">
        <ele>1908</ele>
        <time>2021-04-08T07:19:05Z</time>
      </trkpt>
      <trkpt lat="44.46548" lon="6.54938">
        <ele>1908</ele>
        <time>2021-04-08T07:19:06Z</time>
      </trkpt>
      <trkpt lat="44.46548" lon="6.54938">
        <ele>1908</ele>
        <time>2021-04-08T07:19:07Z</time>
      </trkpt>
      <trkpt lat="44.46547" lon="6.54938">
        <ele>1908</ele>
        <time>2021-04-08T07:19:08Z</time>
      </trkpt>
      <trkpt lat="44.46547" lon="6.54939">
        <ele>1908</ele>
        <time>2021-04-08T07:19:09Z</time>
      </trkpt>
      <trkpt lat="44.46547" lon="6.5494">
        <ele>1908</ele>
        <time>2021-04-08T07:19:10Z</time>
      </trkpt>
      <trkpt lat="44.46547" lon="6.5494">
        <ele>1908</ele>
        <time>2021-04-08T07:19:11Z</time>
      </trkpt>
      <trkpt lat="44.46546" lon="6.54941">
        <ele>1909</ele>
        <time>2021-04-08T07:19:12Z</time>
      </trkpt>
      <trkpt lat="44.46546" lon="6.54941">
        <ele>1909</ele>
        <time>2021-04-08T07:19:13Z</time>
      </trkpt>
      <trkpt lat="44.46545" lon="6.54942">
        <ele>1909</ele>
        <time>2021-04-08T07:19:14Z</time>
      </trkpt>
      <trkpt lat="44.46545" lon="6.54943">
        <ele>1910</ele>
        <time>2021-04-08T07:19:15Z</time>
      </trkpt>
      <trkpt lat="44.46544" lon="6.54944">
        <ele>1910</ele>
        <time>2021-04-08T07:19:16Z</time>
      </trkpt>
      <trkpt lat="44.46543" lon="6.54944">
        <ele>1910</ele>
        <time>2021-04-08T07:19:17Z</time>
      </trkpt>
      <trkpt lat="44.46543" lon="6.54945">
        <ele>1910</ele>
        <time>2021-04-08T07:19:18Z</time>
      </trkpt>
      <trkpt lat="44.46543" lon="6.54946">
        <ele>1910</ele>
        <time>2021-04-08T07:19:19Z</time>
      </trkpt>
      <trkpt lat="44.46542" lon="6.54947">
        <ele>1910</ele>
        <time>2021-04-08T07:19:20Z</time>
      </trkpt>
      <trkpt lat="44.46541" lon="6.54948">
        <ele>1911</ele>
        <time>2021-04-08T07:19:21Z</time>
      </trkpt>
      <trkpt lat="44.46541" lon="6.54949">
        <ele>1911</ele>
        <time>2021-04-08T07:19:22Z</time>
      </trkpt>
      <trkpt lat="44.4654" lon="6.5495">
        <ele>1911</ele>
        <time>2021-04-08T07:19:23Z</time>
      </trkpt>
      <trkpt lat="44.4654" lon="6.54951">
        <ele>1911</ele>
        <time>2021-04-08T07:19:24Z</time>
      </trkpt>
      <trkpt lat="44.46539" lon="6.54952">
        <ele>1911</ele>
        <time>2021-04-08T07:19:25Z</time>
      </trkpt>
      <trkpt lat="44.46539" lon="6.54953">
        <ele>1911</ele>
        <time>2021-04-08T07:19:26Z</time>
      </trkpt>
      <trkpt lat="44.46538" lon="6.54953">
        <ele>1911</ele>
        <time>2021-04-08T07:19:27Z</time>
      </trkpt>
      <trkpt lat="44.46538" lon="6.54954">
        <ele>1911</ele>
        <time>2021-04-08T07:19:28Z</time>
      </trkpt>
      <trkpt lat="44.46539" lon="6.54955">
        <ele>1911</ele>
        <time>2021-04-08T07:19:29Z</time>
      </trkpt>
      <trkpt lat="44.46539" lon="6.54956">
        <ele>1911</ele>
        <time>2021-04-08T07:19:30Z</time>
      </trkpt>
      <trkpt lat="44.46538" lon="6.54957">
        <ele>1911</ele>
        <time>2021-04-08T07:19:31Z</time>
      </trkpt>
      <trkpt lat="44.46538" lon="6.54957">
        <ele>1911</ele>
        <time>2021-04-08T07:19:32Z</time>
      </trkpt>
      <trkpt lat="44.46538" lon="6.54958">
        <ele>1911</ele>
        <time>2021-04-08T07:19:33Z</time>
      </trkpt>
      <trkpt lat="44.46538" lon="6.54959">
        <ele>1911</ele>
        <time>2021-04-08T07:19:34Z</time>
      </trkpt>
      <trkpt lat="44.46538" lon="6.5496">
        <ele>1911</ele>
        <time>2021-04-08T07:19:35Z</time>
      </trkpt>
      <trkpt lat="44.46538" lon="6.54962">
        <ele>1911</ele>
        <time>2021-04-08T07:19:36Z</time>
      </trkpt>
      <trkpt lat="44.46537" lon="6.54963">
        <ele>1911</ele>
        <time>2021-04-08T07:19:37Z</time>
      </trkpt>
      <trkpt lat="44.46537" lon="6.54964">
        <ele>1911</ele>
        <time>2021-04-08T07:19:38Z</time>
      </trkpt>
      <trkpt lat="44.46536" lon="6.54965">
        <ele>1911</ele>
        <time>2021-04-08T07:19:39Z</time>
      </trkpt>
      <trkpt lat="44.46536" lon="6.54966">
        <ele>1911</ele>
        <time>2021-04-08T07:19:40Z</time>
      </trkpt>
      <trkpt lat="44.46536" lon="6.54967">
        <ele>1911</ele>
        <time>2021-04-08T07:19:41Z</time>
      </trkpt>
      <trkpt lat="44.46536" lon="6.54968">
        <ele>1911</ele>
        <time>2021-04-08T07:19:42Z</time>
      </trkpt>
      <trkpt lat="44.46535" lon="6.54968">
        <ele>1911</ele>
        <time>2021-04-08T07:19:43Z</time>
      </trkpt>
      <trkpt lat="44.46535" lon="6.54969">
        <ele>1911</ele>
        <time>2021-04-08T07:19:44Z</time>
      </trkpt>
      <trkpt lat="44.46534" lon="6.5497">
        <ele>1912</ele>
        <time>2021-04-08T07:19:45Z</time>
      </trkpt>
      <trkpt lat="44.46534" lon="6.54971">
        <ele>1912</ele>
        <time>2021-04-08T07:19:46Z</time>
      </trkpt>
      <trkpt lat="44.46534" lon="6.54972">
        <ele>1912</ele>
        <time>2021-04-08T07:19:47Z</time>
      </trkpt>
      <trkpt lat="44.46534" lon="6.54973">
        <ele>1912</ele>
        <time>2021-04-08T07:19:48Z</time>
      </trkpt>
      <trkpt lat="44.46534" lon="6.54973">
        <ele>1912</ele>
        <time>2021-04-08T07:19:49Z</time>
      </trkpt>
      <trkpt lat="44.46533" lon="6.54974">
        <ele>1912</ele>
        <time>2021-04-08T07:19:50Z</time>
      </trkpt>
      <trkpt lat="44.46533" lon="6.54975">
        <ele>1912</ele>
        <time>2021-04-08T07:19:51Z</time>
      </trkpt>
      <trkpt lat="44.46533" lon="6.54976">
        <ele>1912</ele>
        <time>2021-04-08T07:19:52Z</time>
      </trkpt>
      <trkpt lat="44.46534" lon="6.54976">
        <ele>1912</ele>
        <time>2021-04-08T07:19:53Z</time>
      </trkpt>
      <trkpt lat="44.46534" lon="6.54977">
        <ele>1912</ele>
        <time>2021-04-08T07:19:54Z</time>
      </trkpt>
      <trkpt lat="44.46534" lon="6.54978">
        <ele>1912</ele>
        <time>2021-04-08T07:19:55Z</time>
      </trkpt>
      <trkpt lat="44.46534" lon="6.54979">
        <ele>1912</ele>
        <time>2021-04-08T07:19:56Z</time>
      </trkpt>
      <trkpt lat="44.46534" lon="6.5498">
        <ele>1912</ele>
        <time>2021-04-08T07:19:57Z</time>
      </trkpt>
      <trkpt lat="44.46534" lon="6.54981">
        <ele>1912</ele>
        <time>2021-04-08T07:19:58Z</time>
      </trkpt>
      <trkpt lat="44.46534" lon="6.54982">
        <ele>1912</ele>
        <time>2021-04-08T07:19:59Z</time>
      </trkpt>
      <trkpt lat="44.46534" lon="6.54983">
        <ele>1912</ele>
        <time>2021-04-08T07:20:00Z</time>
      </trkpt>
      <trkpt lat="44.46534" lon="6.54984">
        <ele>1912</ele>
        <time>2021-04-08T07:20:01Z</time>
      </trkpt>
      <trkpt lat="44.46534" lon="6.54985">
        <ele>1913</ele>
        <time>2021-04-08T07:20:02Z</time>
      </trkpt>
      <trkpt lat="44.46534" lon="6.54987">
        <ele>1913</ele>
        <time>2021-04-08T07:20:03Z</time>
      </trkpt>
      <trkpt lat="44.46534" lon="6.54988">
        <ele>1913</ele>
        <time>2021-04-08T07:20:04Z</time>
      </trkpt>
      <trkpt lat="44.46534" lon="6.54989">
        <ele>1913</ele>
        <time>2021-04-08T07:20:05Z</time>
      </trkpt>
      <trkpt lat="44.46534" lon="6.5499">
        <ele>1914</ele>
        <time>2021-04-08T07:20:06Z</time>
      </trkpt>
      <trkpt lat="44.46534" lon="6.54991">
        <ele>1914</ele>
        <time>2021-04-08T07:20:07Z</time>
      </trkpt>
      <trkpt lat="44.46534" lon="6.54992">
        <ele>1914</ele>
        <time>2021-04-08T07:20:08Z</time>
      </trkpt>
      <trkpt lat="44.46534" lon="6.54993">
        <ele>1914</ele>
        <time>2021-04-08T07:20:09Z</time>
      </trkpt>
      <trkpt lat="44.46535" lon="6.54994">
        <ele>1914</ele>
        <time>2021-04-08T07:20:10Z</time>
      </trkpt>
      <trkpt lat="44.46535" lon="6.54994">
        <ele>1914</ele>
        <time>2021-04-08T07:20:11Z</time>
      </trkpt>
      <trkpt lat="44.46535" lon="6.54995">
        <ele>1914</ele>
        <time>2021-04-08T07:20:12Z</time>
      </trkpt>
      <trkpt lat="44.46535" lon="6.54996">
        <ele>1914</ele>
        <time>2021-04-08T07:20:13Z</time>
      </trkpt>
      <trkpt lat="44.46535" lon="6.54998">
        <ele>1914</ele>
        <time>2021-04-08T07:20:14Z</time>
      </trkpt>
      <trkpt lat="44.46535" lon="6.54999">
        <ele>1914</ele>
        <time>2021-04-08T07:20:15Z</time>
      </trkpt>
      <trkpt lat="44.46534" lon="6.55">
        <ele>1914</ele>
        <time>2021-04-08T07:20:16Z</time>
      </trkpt>
      <trkpt lat="44.46534" lon="6.55001">
        <ele>1914</ele>
        <time>2021-04-08T07:20:17Z</time>
      </trkpt>
      <trkpt lat="44.46534" lon="6.55002">
        <ele>1914</ele>
        <time>2021-04-08T07:20:18Z</time>
      </trkpt>
      <trkpt lat="44.46534" lon="6.55003">
        <ele>1914</ele>
        <time>2021-04-08T07:20:19Z</time>
      </trkpt>
      <trkpt lat="44.46533" lon="6.55004">
        <ele>1914</ele>
        <time>2021-04-08T07:20:20Z</time>
      </trkpt>
      <trkpt lat="44.46532" lon="6.55006">
        <ele>1914</ele>
        <time>2021-04-08T07:20:21Z</time>
      </trkpt>
      <trkpt lat="44.46532" lon="6.55007">
        <ele>1914</ele>
        <time>2021-04-08T07:20:22Z</time>
      </trkpt>
      <trkpt lat="44.46531" lon="6.55008">
        <ele>1914</ele>
        <time>2021-04-08T07:20:23Z</time>
      </trkpt>
      <trkpt lat="44.46531" lon="6.55008">
        <ele>1915</ele>
        <time>2021-04-08T07:20:24Z</time>
      </trkpt>
      <trkpt lat="44.46531" lon="6.55009">
        <ele>1915</ele>
        <time>2021-04-08T07:20:25Z</time>
      </trkpt>
      <trkpt lat="44.46531" lon="6.5501">
        <ele>1915</ele>
        <time>2021-04-08T07:20:26Z</time>
      </trkpt>
      <trkpt lat="44.46531" lon="6.55011">
        <ele>1915</ele>
        <time>2021-04-08T07:20:27Z</time>
      </trkpt>
      <trkpt lat="44.46531" lon="6.55012">
        <ele>1915</ele>
        <time>2021-04-08T07:20:28Z</time>
      </trkpt>
      <trkpt lat="44.46531" lon="6.55013">
        <ele>1915</ele>
        <time>2021-04-08T07:20:29Z</time>
      </trkpt>
      <trkpt lat="44.4653" lon="6.55014">
        <ele>1915</ele>
        <time>2021-04-08T07:20:30Z</time>
      </trkpt>
      <trkpt lat="44.4653" lon="6.55014">
        <ele>1915</ele>
        <time>2021-04-08T07:20:31Z</time>
      </trkpt>
      <trkpt lat="44.4653" lon="6.55015">
        <ele>1915</ele>
        <time>2021-04-08T07:20:32Z</time>
      </trkpt>
      <trkpt lat="44.46529" lon="6.55016">
        <ele>1915</ele>
        <time>2021-04-08T07:20:33Z</time>
      </trkpt>
      <trkpt lat="44.46529" lon="6.55017">
        <ele>1915</ele>
        <time>2021-04-08T07:20:34Z</time>
      </trkpt>
      <trkpt lat="44.46529" lon="6.55017">
        <ele>1915</ele>
        <time>2021-04-08T07:20:35Z</time>
      </trkpt>
      <trkpt lat="44.46529" lon="6.55018">
        <ele>1915</ele>
        <time>2021-04-08T07:20:36Z</time>
      </trkpt>
      <trkpt lat="44.4653" lon="6.55019">
        <ele>1915</ele>
        <time>2021-04-08T07:20:37Z</time>
      </trkpt>
      <trkpt lat="44.4653" lon="6.5502">
        <ele>1915</ele>
        <time>2021-04-08T07:20:38Z</time>
      </trkpt>
      <trkpt lat="44.4653" lon="6.55021">
        <ele>1916</ele>
        <time>2021-04-08T07:20:39Z</time>
      </trkpt>
      <trkpt lat="44.4653" lon="6.55022">
        <ele>1916</ele>
        <time>2021-04-08T07:20:40Z</time>
      </trkpt>
      <trkpt lat="44.4653" lon="6.55023">
        <ele>1916</ele>
        <time>2021-04-08T07:20:41Z</time>
      </trkpt>
      <trkpt lat="44.4653" lon="6.55024">
        <ele>1916</ele>
        <time>2021-04-08T07:20:42Z</time>
      </trkpt>
      <trkpt lat="44.4653" lon="6.55025">
        <ele>1916</ele>
        <time>2021-04-08T07:20:43Z</time>
      </trkpt>
      <trkpt lat="44.4653" lon="6.55026">
        <ele>1917</ele>
        <time>2021-04-08T07:20:44Z</time>
      </trkpt>
      <trkpt lat="44.46529" lon="6.55027">
        <ele>1917</ele>
        <time>2021-04-08T07:20:45Z</time>
      </trkpt>
      <trkpt lat="44.46529" lon="6.55028">
        <ele>1917</ele>
        <time>2021-04-08T07:20:46Z</time>
      </trkpt>
      <trkpt lat="44.46529" lon="6.5503">
        <ele>1918</ele>
        <time>2021-04-08T07:20:47Z</time>
      </trkpt>
      <trkpt lat="44.46529" lon="6.5503">
        <ele>1918</ele>
        <time>2021-04-08T07:20:48Z</time>
      </trkpt>
      <trkpt lat="44.46529" lon="6.55031">
        <ele>1918</ele>
        <time>2021-04-08T07:20:49Z</time>
      </trkpt>
      <trkpt lat="44.46529" lon="6.55032">
        <ele>1918</ele>
        <time>2021-04-08T07:20:50Z</time>
      </trkpt>
      <trkpt lat="44.46529" lon="6.55033">
        <ele>1919</ele>
        <time>2021-04-08T07:20:51Z</time>
      </trkpt>
      <trkpt lat="44.46529" lon="6.55033">
        <ele>1919</ele>
        <time>2021-04-08T07:20:52Z</time>
      </trkpt>
      <trkpt lat="44.46529" lon="6.55034">
        <ele>1919</ele>
        <time>2021-04-08T07:20:53Z</time>
      </trkpt>
      <trkpt lat="44.46529" lon="6.55035">
        <ele>1920</ele>
        <time>2021-04-08T07:20:54Z</time>
      </trkpt>
      <trkpt lat="44.46529" lon="6.55036">
        <ele>1921</ele>
        <time>2021-04-08T07:20:55Z</time>
      </trkpt>
      <trkpt lat="44.46529" lon="6.55037">
        <ele>1921</ele>
        <time>2021-04-08T07:20:56Z</time>
      </trkpt>
      <trkpt lat="44.46528" lon="6.55038">
        <ele>1921</ele>
        <time>2021-04-08T07:20:57Z</time>
      </trkpt>
      <trkpt lat="44.46528" lon="6.55039">
        <ele>1922</ele>
        <time>2021-04-08T07:20:58Z</time>
      </trkpt>
      <trkpt lat="44.46528" lon="6.55041">
        <ele>1922</ele>
        <time>2021-04-08T07:20:59Z</time>
      </trkpt>
      <trkpt lat="44.46528" lon="6.55042">
        <ele>1922</ele>
        <time>2021-04-08T07:21:00Z</time>
      </trkpt>
      <trkpt lat="44.46528" lon="6.55043">
        <ele>1922</ele>
        <time>2021-04-08T07:21:01Z</time>
      </trkpt>
      <trkpt lat="44.46527" lon="6.55044">
        <ele>1922</ele>
        <time>2021-04-08T07:21:02Z</time>
      </trkpt>
      <trkpt lat="44.46527" lon="6.55044">
        <ele>1922</ele>
        <time>2021-04-08T07:21:03Z</time>
      </trkpt>
      <trkpt lat="44.46526" lon="6.55046">
        <ele>1922</ele>
        <time>2021-04-08T07:21:04Z</time>
      </trkpt>
      <trkpt lat="44.46526" lon="6.55047">
        <ele>1922</ele>
        <time>2021-04-08T07:21:05Z</time>
      </trkpt>
      <trkpt lat="44.46526" lon="6.55048">
        <ele>1922</ele>
        <time>2021-04-08T07:21:06Z</time>
      </trkpt>
      <trkpt lat="44.46526" lon="6.55049">
        <ele>1922</ele>
        <time>2021-04-08T07:21:07Z</time>
      </trkpt>
      <trkpt lat="44.46525" lon="6.5505">
        <ele>1922</ele>
        <time>2021-04-08T07:21:08Z</time>
      </trkpt>
      <trkpt lat="44.46525" lon="6.5505">
        <ele>1922</ele>
        <time>2021-04-08T07:21:09Z</time>
      </trkpt>
      <trkpt lat="44.46525" lon="6.55051">
        <ele>1922</ele>
        <time>2021-04-08T07:21:10Z</time>
      </trkpt>
      <trkpt lat="44.46525" lon="6.55052">
        <ele>1922</ele>
        <time>2021-04-08T07:21:11Z</time>
      </trkpt>
      <trkpt lat="44.46525" lon="6.55052">
        <ele>1922</ele>
        <time>2021-04-08T07:21:12Z</time>
      </trkpt>
      <trkpt lat="44.46525" lon="6.55053">
        <ele>1923</ele>
        <time>2021-04-08T07:21:13Z</time>
      </trkpt>
      <trkpt lat="44.46525" lon="6.55054">
        <ele>1923</ele>
        <time>2021-04-08T07:21:14Z</time>
      </trkpt>
      <trkpt lat="44.46525" lon="6.55055">
        <ele>1923</ele>
        <time>2021-04-08T07:21:15Z</time>
      </trkpt>
      <trkpt lat="44.46524" lon="6.55055">
        <ele>1923</ele>
        <time>2021-04-08T07:21:16Z</time>
      </trkpt>
      <trkpt lat="44.46524" lon="6.55056">
        <ele>1924</ele>
        <time>2021-04-08T07:21:17Z</time>
      </trkpt>
      <trkpt lat="44.46524" lon="6.55057">
        <ele>1924</ele>
        <time>2021-04-08T07:21:18Z</time>
      </trkpt>
      <trkpt lat="44.46523" lon="6.55057">
        <ele>1924</ele>
        <time>2021-04-08T07:21:19Z</time>
      </trkpt>
      <trkpt lat="44.46523" lon="6.55058">
        <ele>1924</ele>
        <time>2021-04-08T07:21:20Z</time>
      </trkpt>
      <trkpt lat="44.46523" lon="6.55059">
        <ele>1925</ele>
        <time>2021-04-08T07:21:21Z</time>
      </trkpt>
      <trkpt lat="44.46522" lon="6.5506">
        <ele>1925</ele>
        <time>2021-04-08T07:21:22Z</time>
      </trkpt>
      <trkpt lat="44.46522" lon="6.55062">
        <ele>1925</ele>
        <time>2021-04-08T07:21:23Z</time>
      </trkpt>
      <trkpt lat="44.46522" lon="6.55063">
        <ele>1925</ele>
        <time>2021-04-08T07:21:24Z</time>
      </trkpt>
      <trkpt lat="44.46522" lon="6.55064">
        <ele>1926</ele>
        <time>2021-04-08T07:21:25Z</time>
      </trkpt>
      <trkpt lat="44.46521" lon="6.55065">
        <ele>1926</ele>
        <time>2021-04-08T07:21:26Z</time>
      </trkpt>
      <trkpt lat="44.46521" lon="6.55065">
        <ele>1926</ele>
        <time>2021-04-08T07:21:27Z</time>
      </trkpt>
      <trkpt lat="44.46521" lon="6.55066">
        <ele>1926</ele>
        <time>2021-04-08T07:21:28Z</time>
      </trkpt>
      <trkpt lat="44.46521" lon="6.55067">
        <ele>1927</ele>
        <time>2021-04-08T07:21:29Z</time>
      </trkpt>
      <trkpt lat="44.46521" lon="6.55068">
        <ele>1927</ele>
        <time>2021-04-08T07:21:30Z</time>
      </trkpt>
      <trkpt lat="44.46521" lon="6.55069">
        <ele>1928</ele>
        <time>2021-04-08T07:21:31Z</time>
      </trkpt>
      <trkpt lat="44.46521" lon="6.55069">
        <ele>1928</ele>
        <time>2021-04-08T07:21:32Z</time>
      </trkpt>
      <trkpt lat="44.4652" lon="6.55071">
        <ele>1929</ele>
        <time>2021-04-08T07:21:33Z</time>
      </trkpt>
      <trkpt lat="44.4652" lon="6.55072">
        <ele>1929</ele>
        <time>2021-04-08T07:21:34Z</time>
      </trkpt>
      <trkpt lat="44.4652" lon="6.55072">
        <ele>1929</ele>
        <time>2021-04-08T07:21:35Z</time>
      </trkpt>
      <trkpt lat="44.4652" lon="6.55073">
        <ele>1930</ele>
        <time>2021-04-08T07:21:36Z</time>
      </trkpt>
      <trkpt lat="44.4652" lon="6.55074">
        <ele>1930</ele>
        <time>2021-04-08T07:21:37Z</time>
      </trkpt>
      <trkpt lat="44.4652" lon="6.55075">
        <ele>1931</ele>
        <time>2021-04-08T07:21:38Z</time>
      </trkpt>
      <trkpt lat="44.46519" lon="6.55076">
        <ele>1931</ele>
        <time>2021-04-08T07:21:39Z</time>
      </trkpt>
      <trkpt lat="44.46519" lon="6.55078">
        <ele>1931</ele>
        <time>2021-04-08T07:21:40Z</time>
      </trkpt>
      <trkpt lat="44.4652" lon="6.55078">
        <ele>1931</ele>
        <time>2021-04-08T07:21:41Z</time>
      </trkpt>
      <trkpt lat="44.46519" lon="6.55079">
        <ele>1931</ele>
        <time>2021-04-08T07:21:42Z</time>
      </trkpt>
      <trkpt lat="44.46519" lon="6.5508">
        <ele>1931</ele>
        <time>2021-04-08T07:21:43Z</time>
      </trkpt>
      <trkpt lat="44.46519" lon="6.55081">
        <ele>1931</ele>
        <time>2021-04-08T07:21:44Z</time>
      </trkpt>
      <trkpt lat="44.46519" lon="6.55082">
        <ele>1931</ele>
        <time>2021-04-08T07:21:45Z</time>
      </trkpt>
      <trkpt lat="44.46519" lon="6.55083">
        <ele>1931</ele>
        <time>2021-04-08T07:21:46Z</time>
      </trkpt>
      <trkpt lat="44.46519" lon="6.55083">
        <ele>1931</ele>
        <time>2021-04-08T07:21:47Z</time>
      </trkpt>
      <trkpt lat="44.46519" lon="6.55084">
        <ele>1931</ele>
        <time>2021-04-08T07:21:48Z</time>
      </trkpt>
      <trkpt lat="44.46519" lon="6.55084">
        <ele>1931</ele>
        <time>2021-04-08T07:21:49Z</time>
      </trkpt>
      <trkpt lat="44.46519" lon="6.55084">
        <ele>1931</ele>
        <time>2021-04-08T07:21:50Z</time>
      </trkpt>
      <trkpt lat="44.46519" lon="6.55084">
        <ele>1931</ele>
        <time>2021-04-08T07:21:51Z</time>
      </trkpt>
      <trkpt lat="44.46519" lon="6.55085">
        <ele>1932</ele>
        <time>2021-04-08T07:21:52Z</time>
      </trkpt>
      <trkpt lat="44.46518" lon="6.55085">
        <ele>1932</ele>
        <time>2021-04-08T07:21:53Z</time>
      </trkpt>
      <trkpt lat="44.46518" lon="6.55087">
        <ele>1932</ele>
        <time>2021-04-08T07:21:54Z</time>
      </trkpt>
      <trkpt lat="44.46518" lon="6.55088">
        <ele>1932</ele>
        <time>2021-04-08T07:21:55Z</time>
      </trkpt>
      <trkpt lat="44.46518" lon="6.55089">
        <ele>1932</ele>
        <time>2021-04-08T07:21:56Z</time>
      </trkpt>
      <trkpt lat="44.46518" lon="6.5509">
        <ele>1932</ele>
        <time>2021-04-08T07:21:57Z</time>
      </trkpt>
      <trkpt lat="44.46519" lon="6.5509">
        <ele>1932</ele>
        <time>2021-04-08T07:21:58Z</time>
      </trkpt>
      <trkpt lat="44.46519" lon="6.55091">
        <ele>1933</ele>
        <time>2021-04-08T07:21:59Z</time>
      </trkpt>
      <trkpt lat="44.46519" lon="6.55092">
        <ele>1933</ele>
        <time>2021-04-08T07:22:00Z</time>
      </trkpt>
      <trkpt lat="44.46518" lon="6.55094">
        <ele>1933</ele>
        <time>2021-04-08T07:22:01Z</time>
      </trkpt>
      <trkpt lat="44.46518" lon="6.55094">
        <ele>1933</ele>
        <time>2021-04-08T07:22:02Z</time>
      </trkpt>
      <trkpt lat="44.46518" lon="6.55095">
        <ele>1933</ele>
        <time>2021-04-08T07:22:03Z</time>
      </trkpt>
      <trkpt lat="44.46518" lon="6.55096">
        <ele>1934</ele>
        <time>2021-04-08T07:22:04Z</time>
      </trkpt>
      <trkpt lat="44.46518" lon="6.55097">
        <ele>1934</ele>
        <time>2021-04-08T07:22:05Z</time>
      </trkpt>
      <trkpt lat="44.46518" lon="6.55097">
        <ele>1934</ele>
        <time>2021-04-08T07:22:06Z</time>
      </trkpt>
      <trkpt lat="44.46518" lon="6.55098">
        <ele>1934</ele>
        <time>2021-04-08T07:22:07Z</time>
      </trkpt>
      <trkpt lat="44.46518" lon="6.55098">
        <ele>1934</ele>
        <time>2021-04-08T07:22:08Z</time>
      </trkpt>
      <trkpt lat="44.46517" lon="6.551">
        <ele>1934</ele>
        <time>2021-04-08T07:22:09Z</time>
      </trkpt>
      <trkpt lat="44.46517" lon="6.55101">
        <ele>1934</ele>
        <time>2021-04-08T07:22:10Z</time>
      </trkpt>
      <trkpt lat="44.46517" lon="6.55102">
        <ele>1934</ele>
        <time>2021-04-08T07:22:11Z</time>
      </trkpt>
      <trkpt lat="44.46517" lon="6.55103">
        <ele>1934</ele>
        <time>2021-04-08T07:22:12Z</time>
      </trkpt>
      <trkpt lat="44.46517" lon="6.55104">
        <ele>1934</ele>
        <time>2021-04-08T07:22:13Z</time>
      </trkpt>
      <trkpt lat="44.46517" lon="6.55105">
        <ele>1934</ele>
        <time>2021-04-08T07:22:14Z</time>
      </trkpt>
      <trkpt lat="44.46517" lon="6.55106">
        <ele>1934</ele>
        <time>2021-04-08T07:22:15Z</time>
      </trkpt>
      <trkpt lat="44.46518" lon="6.55106">
        <ele>1934</ele>
        <time>2021-04-08T07:22:16Z</time>
      </trkpt>
      <trkpt lat="44.46518" lon="6.55107">
        <ele>1934</ele>
        <time>2021-04-08T07:22:17Z</time>
      </trkpt>
      <trkpt lat="44.46518" lon="6.55108">
        <ele>1934</ele>
        <time>2021-04-08T07:22:18Z</time>
      </trkpt>
      <trkpt lat="44.46518" lon="6.55109">
        <ele>1934</ele>
        <time>2021-04-08T07:22:19Z</time>
      </trkpt>
      <trkpt lat="44.46519" lon="6.5511">
        <ele>1935</ele>
        <time>2021-04-08T07:22:20Z</time>
      </trkpt>
      <trkpt lat="44.46519" lon="6.55111">
        <ele>1935</ele>
        <time>2021-04-08T07:22:21Z</time>
      </trkpt>
      <trkpt lat="44.46518" lon="6.55113">
        <ele>1935</ele>
        <time>2021-04-08T07:22:22Z</time>
      </trkpt>
      <trkpt lat="44.46519" lon="6.55113">
        <ele>1935</ele>
        <time>2021-04-08T07:22:23Z</time>
      </trkpt>
      <trkpt lat="44.46518" lon="6.55114">
        <ele>1935</ele>
        <time>2021-04-08T07:22:24Z</time>
      </trkpt>
      <trkpt lat="44.46518" lon="6.55115">
        <ele>1935</ele>
        <time>2021-04-08T07:22:25Z</time>
      </trkpt>
      <trkpt lat="44.46517" lon="6.55115">
        <ele>1935</ele>
        <time>2021-04-08T07:22:26Z</time>
      </trkpt>
      <trkpt lat="44.46517" lon="6.55116">
        <ele>1935</ele>
        <time>2021-04-08T07:22:27Z</time>
      </trkpt>
      <trkpt lat="44.46517" lon="6.55117">
        <ele>1935</ele>
        <time>2021-04-08T07:22:28Z</time>
      </trkpt>
      <trkpt lat="44.46517" lon="6.55119">
        <ele>1936</ele>
        <time>2021-04-08T07:22:29Z</time>
      </trkpt>
      <trkpt lat="44.46517" lon="6.5512">
        <ele>1936</ele>
        <time>2021-04-08T07:22:30Z</time>
      </trkpt>
      <trkpt lat="44.46518" lon="6.55121">
        <ele>1936</ele>
        <time>2021-04-08T07:22:31Z</time>
      </trkpt>
      <trkpt lat="44.46518" lon="6.55122">
        <ele>1936</ele>
        <time>2021-04-08T07:22:32Z</time>
      </trkpt>
      <trkpt lat="44.46518" lon="6.55123">
        <ele>1937</ele>
        <time>2021-04-08T07:22:33Z</time>
      </trkpt>
      <trkpt lat="44.46519" lon="6.55124">
        <ele>1937</ele>
        <time>2021-04-08T07:22:34Z</time>
      </trkpt>
      <trkpt lat="44.46519" lon="6.55125">
        <ele>1937</ele>
        <time>2021-04-08T07:22:35Z</time>
      </trkpt>
      <trkpt lat="44.46519" lon="6.55126">
        <ele>1938</ele>
        <time>2021-04-08T07:22:36Z</time>
      </trkpt>
      <trkpt lat="44.46519" lon="6.55127">
        <ele>1938</ele>
        <time>2021-04-08T07:22:37Z</time>
      </trkpt>
      <trkpt lat="44.46519" lon="6.55127">
        <ele>1938</ele>
        <time>2021-04-08T07:22:38Z</time>
      </trkpt>
      <trkpt lat="44.46519" lon="6.55127">
        <ele>1938</ele>
        <time>2021-04-08T07:22:39Z</time>
      </trkpt>
      <trkpt lat="44.46519" lon="6.55128">
        <ele>1938</ele>
        <time>2021-04-08T07:22:40Z</time>
      </trkpt>
      <trkpt lat="44.46518" lon="6.55129">
        <ele>1939</ele>
        <time>2021-04-08T07:22:41Z</time>
      </trkpt>
      <trkpt lat="44.46517" lon="6.55129">
        <ele>1939</ele>
        <time>2021-04-08T07:22:42Z</time>
      </trkpt>
      <trkpt lat="44.46516" lon="6.5513">
        <ele>1940</ele>
        <time>2021-04-08T07:22:43Z</time>
      </trkpt>
      <trkpt lat="44.46516" lon="6.55131">
        <ele>1940</ele>
        <time>2021-04-08T07:22:44Z</time>
      </trkpt>
      <trkpt lat="44.46515" lon="6.55133">
        <ele>1940</ele>
        <time>2021-04-08T07:22:45Z</time>
      </trkpt>
      <trkpt lat="44.46515" lon="6.55134">
        <ele>1940</ele>
        <time>2021-04-08T07:22:46Z</time>
      </trkpt>
      <trkpt lat="44.46514" lon="6.55135">
        <ele>1941</ele>
        <time>2021-04-08T07:22:47Z</time>
      </trkpt>
      <trkpt lat="44.46514" lon="6.55136">
        <ele>1941</ele>
        <time>2021-04-08T07:22:48Z</time>
      </trkpt>
      <trkpt lat="44.46513" lon="6.55138">
        <ele>1942</ele>
        <time>2021-04-08T07:22:49Z</time>
      </trkpt>
      <trkpt lat="44.46513" lon="6.55138">
        <ele>1942</ele>
        <time>2021-04-08T07:22:50Z</time>
      </trkpt>
      <trkpt lat="44.46513" lon="6.5514">
        <ele>1942</ele>
        <time>2021-04-08T07:22:51Z</time>
      </trkpt>
      <trkpt lat="44.46513" lon="6.5514">
        <ele>1942</ele>
        <time>2021-04-08T07:22:52Z</time>
      </trkpt>
      <trkpt lat="44.46512" lon="6.55141">
        <ele>1943</ele>
        <time>2021-04-08T07:22:53Z</time>
      </trkpt>
      <trkpt lat="44.46512" lon="6.55141">
        <ele>1943</ele>
        <time>2021-04-08T07:22:54Z</time>
      </trkpt>
      <trkpt lat="44.46512" lon="6.55142">
        <ele>1943</ele>
        <time>2021-04-08T07:22:55Z</time>
      </trkpt>
      <trkpt lat="44.46512" lon="6.55142">
        <ele>1944</ele>
        <time>2021-04-08T07:22:56Z</time>
      </trkpt>
      <trkpt lat="44.46512" lon="6.55143">
        <ele>1944</ele>
        <time>2021-04-08T07:22:57Z</time>
      </trkpt>
      <trkpt lat="44.46511" lon="6.55144">
        <ele>1944</ele>
        <time>2021-04-08T07:22:58Z</time>
      </trkpt>
      <trkpt lat="44.46511" lon="6.55144">
        <ele>1944</ele>
        <time>2021-04-08T07:22:59Z</time>
      </trkpt>
      <trkpt lat="44.4651" lon="6.55145">
        <ele>1944</ele>
        <time>2021-04-08T07:23:00Z</time>
      </trkpt>
      <trkpt lat="44.46509" lon="6.55145">
        <ele>1944</ele>
        <time>2021-04-08T07:23:01Z</time>
      </trkpt>
      <trkpt lat="44.46509" lon="6.55146">
        <ele>1944</ele>
        <time>2021-04-08T07:23:02Z</time>
      </trkpt>
      <trkpt lat="44.46508" lon="6.55147">
        <ele>1944</ele>
        <time>2021-04-08T07:23:03Z</time>
      </trkpt>
      <trkpt lat="44.46508" lon="6.55148">
        <ele>1944</ele>
        <time>2021-04-08T07:23:04Z</time>
      </trkpt>
      <trkpt lat="44.46507" lon="6.55149">
        <ele>1944</ele>
        <time>2021-04-08T07:23:05Z</time>
      </trkpt>
      <trkpt lat="44.46506" lon="6.55149">
        <ele>1944</ele>
        <time>2021-04-08T07:23:06Z</time>
      </trkpt>
      <trkpt lat="44.46506" lon="6.55149">
        <ele>1944</ele>
        <time>2021-04-08T07:23:07Z</time>
      </trkpt>
      <trkpt lat="44.46505" lon="6.5515">
        <ele>1944</ele>
        <time>2021-04-08T07:23:08Z</time>
      </trkpt>
      <trkpt lat="44.46504" lon="6.5515">
        <ele>1944</ele>
        <time>2021-04-08T07:23:09Z</time>
      </trkpt>
      <trkpt lat="44.46504" lon="6.55151">
        <ele>1944</ele>
        <time>2021-04-08T07:23:10Z</time>
      </trkpt>
      <trkpt lat="44.46503" lon="6.55152">
        <ele>1945</ele>
        <time>2021-04-08T07:23:11Z</time>
      </trkpt>
      <trkpt lat="44.46503" lon="6.55153">
        <ele>1945</ele>
        <time>2021-04-08T07:23:12Z</time>
      </trkpt>
      <trkpt lat="44.46502" lon="6.55153">
        <ele>1945</ele>
        <time>2021-04-08T07:23:13Z</time>
      </trkpt>
      <trkpt lat="44.46502" lon="6.55154">
        <ele>1945</ele>
        <time>2021-04-08T07:23:14Z</time>
      </trkpt>
      <trkpt lat="44.46501" lon="6.55154">
        <ele>1945</ele>
        <time>2021-04-08T07:23:15Z</time>
      </trkpt>
      <trkpt lat="44.46501" lon="6.55155">
        <ele>1945</ele>
        <time>2021-04-08T07:23:16Z</time>
      </trkpt>
      <trkpt lat="44.46501" lon="6.55154">
        <ele>1945</ele>
        <time>2021-04-08T07:23:17Z</time>
      </trkpt>
      <trkpt lat="44.46501" lon="6.55155">
        <ele>1945</ele>
        <time>2021-04-08T07:23:18Z</time>
      </trkpt>
      <trkpt lat="44.46501" lon="6.55155">
        <ele>1945</ele>
        <time>2021-04-08T07:23:19Z</time>
      </trkpt>
      <trkpt lat="44.46501" lon="6.55155">
        <ele>1945</ele>
        <time>2021-04-08T07:23:20Z</time>
      </trkpt>
      <trkpt lat="44.46501" lon="6.55155">
        <ele>1946</ele>
        <time>2021-04-08T07:23:21Z</time>
      </trkpt>
      <trkpt lat="44.46501" lon="6.55155">
        <ele>1946</ele>
        <time>2021-04-08T07:23:22Z</time>
      </trkpt>
      <trkpt lat="44.465" lon="6.55155">
        <ele>1946</ele>
        <time>2021-04-08T07:23:23Z</time>
      </trkpt>
      <trkpt lat="44.465" lon="6.55155">
        <ele>1946</ele>
        <time>2021-04-08T07:23:24Z</time>
      </trkpt>
      <trkpt lat="44.465" lon="6.55155">
        <ele>1946</ele>
        <time>2021-04-08T07:23:25Z</time>
      </trkpt>
      <trkpt lat="44.465" lon="6.55155">
        <ele>1946</ele>
        <time>2021-04-08T07:23:26Z</time>
      </trkpt>
      <trkpt lat="44.465" lon="6.55155">
        <ele>1946</ele>
        <time>2021-04-08T07:23:27Z</time>
      </trkpt>
      <trkpt lat="44.465" lon="6.55155">
        <ele>1946</ele>
        <time>2021-04-08T07:23:28Z</time>
      </trkpt>
      <trkpt lat="44.465" lon="6.55155">
        <ele>1946</ele>
        <time>2021-04-08T07:23:29Z</time>
      </trkpt>
      <trkpt lat="44.465" lon="6.55155">
        <ele>1946</ele>
        <time>2021-04-08T07:23:30Z</time>
      </trkpt>
      <trkpt lat="44.465" lon="6.55155">
        <ele>1946</ele>
        <time>2021-04-08T07:23:31Z</time>
      </trkpt>
      <trkpt lat="44.465" lon="6.55155">
        <ele>1946</ele>
        <time>2021-04-08T07:23:32Z</time>
      </trkpt>
      <trkpt lat="44.465" lon="6.55155">
        <ele>1946</ele>
        <time>2021-04-08T07:23:33Z</time>
      </trkpt>
      <trkpt lat="44.465" lon="6.55158">
        <ele>1946</ele>
        <time>2021-04-08T07:23:34Z</time>
      </trkpt>
      <trkpt lat="44.46499" lon="6.55159">
        <ele>1946</ele>
        <time>2021-04-08T07:23:35Z</time>
      </trkpt>
      <trkpt lat="44.46499" lon="6.55159">
        <ele>1946</ele>
        <time>2021-04-08T07:23:36Z</time>
      </trkpt>
      <trkpt lat="44.46498" lon="6.55161">
        <ele>1946</ele>
        <time>2021-04-08T07:23:37Z</time>
      </trkpt>
      <trkpt lat="44.46498" lon="6.55162">
        <ele>1947</ele>
        <time>2021-04-08T07:23:38Z</time>
      </trkpt>
      <trkpt lat="44.46498" lon="6.55163">
        <ele>1947</ele>
        <time>2021-04-08T07:23:39Z</time>
      </trkpt>
      <trkpt lat="44.46498" lon="6.55163">
        <ele>1947</ele>
        <time>2021-04-08T07:23:40Z</time>
      </trkpt>
      <trkpt lat="44.46498" lon="6.55165">
        <ele>1947</ele>
        <time>2021-04-08T07:23:41Z</time>
      </trkpt>
      <trkpt lat="44.46498" lon="6.55166">
        <ele>1947</ele>
        <time>2021-04-08T07:23:42Z</time>
      </trkpt>
      <trkpt lat="44.46498" lon="6.55168">
        <ele>1947</ele>
        <time>2021-04-08T07:23:43Z</time>
      </trkpt>
      <trkpt lat="44.46498" lon="6.55169">
        <ele>1947</ele>
        <time>2021-04-08T07:23:44Z</time>
      </trkpt>
      <trkpt lat="44.46498" lon="6.5517">
        <ele>1948</ele>
        <time>2021-04-08T07:23:45Z</time>
      </trkpt>
      <trkpt lat="44.46498" lon="6.55172">
        <ele>1948</ele>
        <time>2021-04-08T07:23:46Z</time>
      </trkpt>
      <trkpt lat="44.46498" lon="6.55173">
        <ele>1948</ele>
        <time>2021-04-08T07:23:47Z</time>
      </trkpt>
      <trkpt lat="44.46498" lon="6.55174">
        <ele>1948</ele>
        <time>2021-04-08T07:23:48Z</time>
      </trkpt>
      <trkpt lat="44.46497" lon="6.55175">
        <ele>1948</ele>
        <time>2021-04-08T07:23:49Z</time>
      </trkpt>
      <trkpt lat="44.46497" lon="6.55175">
        <ele>1948</ele>
        <time>2021-04-08T07:23:50Z</time>
      </trkpt>
      <trkpt lat="44.46496" lon="6.55176">
        <ele>1948</ele>
        <time>2021-04-08T07:23:51Z</time>
      </trkpt>
      <trkpt lat="44.46496" lon="6.55176">
        <ele>1948</ele>
        <time>2021-04-08T07:23:52Z</time>
      </trkpt>
      <trkpt lat="44.46495" lon="6.55177">
        <ele>1948</ele>
        <time>2021-04-08T07:23:53Z</time>
      </trkpt>
      <trkpt lat="44.46495" lon="6.55178">
        <ele>1948</ele>
        <time>2021-04-08T07:23:54Z</time>
      </trkpt>
      <trkpt lat="44.46495" lon="6.55179">
        <ele>1949</ele>
        <time>2021-04-08T07:23:55Z</time>
      </trkpt>
      <trkpt lat="44.46494" lon="6.5518">
        <ele>1949</ele>
        <time>2021-04-08T07:23:56Z</time>
      </trkpt>
      <trkpt lat="44.46494" lon="6.55181">
        <ele>1949</ele>
        <time>2021-04-08T07:23:57Z</time>
      </trkpt>
      <trkpt lat="44.46494" lon="6.55181">
        <ele>1949</ele>
        <time>2021-04-08T07:23:58Z</time>
      </trkpt>
      <trkpt lat="44.46493" lon="6.55182">
        <ele>1949</ele>
        <time>2021-04-08T07:23:59Z</time>
      </trkpt>
      <trkpt lat="44.46493" lon="6.55183">
        <ele>1950</ele>
        <time>2021-04-08T07:24:00Z</time>
      </trkpt>
      <trkpt lat="44.46492" lon="6.55184">
        <ele>1950</ele>
        <time>2021-04-08T07:24:01Z</time>
      </trkpt>
      <trkpt lat="44.46492" lon="6.55185">
        <ele>1950</ele>
        <time>2021-04-08T07:24:02Z</time>
      </trkpt>
      <trkpt lat="44.46492" lon="6.55186">
        <ele>1951</ele>
        <time>2021-04-08T07:24:03Z</time>
      </trkpt>
      <trkpt lat="44.46492" lon="6.55186">
        <ele>1951</ele>
        <time>2021-04-08T07:24:04Z</time>
      </trkpt>
      <trkpt lat="44.46491" lon="6.55187">
        <ele>1951</ele>
        <time>2021-04-08T07:24:05Z</time>
      </trkpt>
      <trkpt lat="44.46491" lon="6.55188">
        <ele>1951</ele>
        <time>2021-04-08T07:24:06Z</time>
      </trkpt>
      <trkpt lat="44.46491" lon="6.55189">
        <ele>1951</ele>
        <time>2021-04-08T07:24:07Z</time>
      </trkpt>
      <trkpt lat="44.4649" lon="6.5519">
        <ele>1952</ele>
        <time>2021-04-08T07:24:08Z</time>
      </trkpt>
      <trkpt lat="44.4649" lon="6.55191">
        <ele>1952</ele>
        <time>2021-04-08T07:24:09Z</time>
      </trkpt>
      <trkpt lat="44.4649" lon="6.55192">
        <ele>1952</ele>
        <time>2021-04-08T07:24:10Z</time>
      </trkpt>
      <trkpt lat="44.4649" lon="6.55193">
        <ele>1952</ele>
        <time>2021-04-08T07:24:11Z</time>
      </trkpt>
      <trkpt lat="44.4649" lon="6.55194">
        <ele>1952</ele>
        <time>2021-04-08T07:24:12Z</time>
      </trkpt>
      <trkpt lat="44.46489" lon="6.55195">
        <ele>1952</ele>
        <time>2021-04-08T07:24:13Z</time>
      </trkpt>
      <trkpt lat="44.46489" lon="6.55196">
        <ele>1952</ele>
        <time>2021-04-08T07:24:14Z</time>
      </trkpt>
      <trkpt lat="44.46489" lon="6.55197">
        <ele>1952</ele>
        <time>2021-04-08T07:24:15Z</time>
      </trkpt>
      <trkpt lat="44.46489" lon="6.55199">
        <ele>1952</ele>
        <time>2021-04-08T07:24:16Z</time>
      </trkpt>
      <trkpt lat="44.46489" lon="6.55199">
        <ele>1953</ele>
        <time>2021-04-08T07:24:17Z</time>
      </trkpt>
      <trkpt lat="44.46488" lon="6.552">
        <ele>1953</ele>
        <time>2021-04-08T07:24:18Z</time>
      </trkpt>
      <trkpt lat="44.46488" lon="6.55201">
        <ele>1953</ele>
        <time>2021-04-08T07:24:19Z</time>
      </trkpt>
      <trkpt lat="44.46487" lon="6.55202">
        <ele>1953</ele>
        <time>2021-04-08T07:24:20Z</time>
      </trkpt>
      <trkpt lat="44.46487" lon="6.55202">
        <ele>1953</ele>
        <time>2021-04-08T07:24:21Z</time>
      </trkpt>
      <trkpt lat="44.46487" lon="6.55203">
        <ele>1953</ele>
        <time>2021-04-08T07:24:22Z</time>
      </trkpt>
      <trkpt lat="44.46486" lon="6.55204">
        <ele>1953</ele>
        <time>2021-04-08T07:24:23Z</time>
      </trkpt>
      <trkpt lat="44.46486" lon="6.55204">
        <ele>1954</ele>
        <time>2021-04-08T07:24:24Z</time>
      </trkpt>
      <trkpt lat="44.46485" lon="6.55205">
        <ele>1954</ele>
        <time>2021-04-08T07:24:25Z</time>
      </trkpt>
      <trkpt lat="44.46485" lon="6.55206">
        <ele>1954</ele>
        <time>2021-04-08T07:24:26Z</time>
      </trkpt>
      <trkpt lat="44.46485" lon="6.55207">
        <ele>1954</ele>
        <time>2021-04-08T07:24:27Z</time>
      </trkpt>
      <trkpt lat="44.46484" lon="6.55207">
        <ele>1954</ele>
        <time>2021-04-08T07:24:28Z</time>
      </trkpt>
      <trkpt lat="44.46484" lon="6.55208">
        <ele>1954</ele>
        <time>2021-04-08T07:24:29Z</time>
      </trkpt>
      <trkpt lat="44.46484" lon="6.55209">
        <ele>1955</ele>
        <time>2021-04-08T07:24:30Z</time>
      </trkpt>
      <trkpt lat="44.46484" lon="6.5521">
        <ele>1955</ele>
        <time>2021-04-08T07:24:31Z</time>
      </trkpt>
      <trkpt lat="44.46484" lon="6.55211">
        <ele>1955</ele>
        <time>2021-04-08T07:24:32Z</time>
      </trkpt>
      <trkpt lat="44.46484" lon="6.55213">
        <ele>1955</ele>
        <time>2021-04-08T07:24:33Z</time>
      </trkpt>
      <trkpt lat="44.46483" lon="6.55213">
        <ele>1955</ele>
        <time>2021-04-08T07:24:34Z</time>
      </trkpt>
      <trkpt lat="44.46483" lon="6.55214">
        <ele>1955</ele>
        <time>2021-04-08T07:24:35Z</time>
      </trkpt>
      <trkpt lat="44.46483" lon="6.55215">
        <ele>1956</ele>
        <time>2021-04-08T07:24:36Z</time>
      </trkpt>
      <trkpt lat="44.46483" lon="6.55216">
        <ele>1956</ele>
        <time>2021-04-08T07:24:37Z</time>
      </trkpt>
      <trkpt lat="44.46483" lon="6.55217">
        <ele>1956</ele>
        <time>2021-04-08T07:24:38Z</time>
      </trkpt>
      <trkpt lat="44.46483" lon="6.55218">
        <ele>1956</ele>
        <time>2021-04-08T07:24:39Z</time>
      </trkpt>
      <trkpt lat="44.46483" lon="6.55218">
        <ele>1956</ele>
        <time>2021-04-08T07:24:40Z</time>
      </trkpt>
      <trkpt lat="44.46483" lon="6.55219">
        <ele>1956</ele>
        <time>2021-04-08T07:24:41Z</time>
      </trkpt>
      <trkpt lat="44.46483" lon="6.5522">
        <ele>1956</ele>
        <time>2021-04-08T07:24:42Z</time>
      </trkpt>
      <trkpt lat="44.46483" lon="6.55221">
        <ele>1957</ele>
        <time>2021-04-08T07:24:43Z</time>
      </trkpt>
      <trkpt lat="44.46483" lon="6.55222">
        <ele>1957</ele>
        <time>2021-04-08T07:24:44Z</time>
      </trkpt>
      <trkpt lat="44.46483" lon="6.55223">
        <ele>1957</ele>
        <time>2021-04-08T07:24:45Z</time>
      </trkpt>
      <trkpt lat="44.46482" lon="6.55224">
        <ele>1957</ele>
        <time>2021-04-08T07:24:46Z</time>
      </trkpt>
      <trkpt lat="44.46482" lon="6.55225">
        <ele>1957</ele>
        <time>2021-04-08T07:24:47Z</time>
      </trkpt>
      <trkpt lat="44.46482" lon="6.55226">
        <ele>1957</ele>
        <time>2021-04-08T07:24:48Z</time>
      </trkpt>
      <trkpt lat="44.46482" lon="6.55227">
        <ele>1957</ele>
        <time>2021-04-08T07:24:49Z</time>
      </trkpt>
      <trkpt lat="44.46482" lon="6.55227">
        <ele>1957</ele>
        <time>2021-04-08T07:24:50Z</time>
      </trkpt>
      <trkpt lat="44.46482" lon="6.55227">
        <ele>1957</ele>
        <time>2021-04-08T07:24:51Z</time>
      </trkpt>
      <trkpt lat="44.46482" lon="6.55228">
        <ele>1957</ele>
        <time>2021-04-08T07:24:52Z</time>
      </trkpt>
      <trkpt lat="44.46482" lon="6.55229">
        <ele>1957</ele>
        <time>2021-04-08T07:24:53Z</time>
      </trkpt>
      <trkpt lat="44.46482" lon="6.5523">
        <ele>1957</ele>
        <time>2021-04-08T07:24:54Z</time>
      </trkpt>
      <trkpt lat="44.46482" lon="6.5523">
        <ele>1957</ele>
        <time>2021-04-08T07:24:55Z</time>
      </trkpt>
      <trkpt lat="44.46481" lon="6.55231">
        <ele>1957</ele>
        <time>2021-04-08T07:24:56Z</time>
      </trkpt>
      <trkpt lat="44.46481" lon="6.55232">
        <ele>1957</ele>
        <time>2021-04-08T07:24:57Z</time>
      </trkpt>
      <trkpt lat="44.46481" lon="6.55233">
        <ele>1957</ele>
        <time>2021-04-08T07:24:58Z</time>
      </trkpt>
      <trkpt lat="44.46481" lon="6.55234">
        <ele>1957</ele>
        <time>2021-04-08T07:24:59Z</time>
      </trkpt>
      <trkpt lat="44.46481" lon="6.55235">
        <ele>1957</ele>
        <time>2021-04-08T07:25:00Z</time>
      </trkpt>
      <trkpt lat="44.4648" lon="6.55235">
        <ele>1957</ele>
        <time>2021-04-08T07:25:01Z</time>
      </trkpt>
      <trkpt lat="44.4648" lon="6.55237">
        <ele>1958</ele>
        <time>2021-04-08T07:25:02Z</time>
      </trkpt>
      <trkpt lat="44.4648" lon="6.55237">
        <ele>1958</ele>
        <time>2021-04-08T07:25:03Z</time>
      </trkpt>
      <trkpt lat="44.4648" lon="6.55238">
        <ele>1959</ele>
        <time>2021-04-08T07:25:04Z</time>
      </trkpt>
      <trkpt lat="44.4648" lon="6.55238">
        <ele>1959</ele>
        <time>2021-04-08T07:25:05Z</time>
      </trkpt>
      <trkpt lat="44.4648" lon="6.55239">
        <ele>1959</ele>
        <time>2021-04-08T07:25:06Z</time>
      </trkpt>
      <trkpt lat="44.4648" lon="6.5524">
        <ele>1959</ele>
        <time>2021-04-08T07:25:07Z</time>
      </trkpt>
      <trkpt lat="44.4648" lon="6.5524">
        <ele>1959</ele>
        <time>2021-04-08T07:25:08Z</time>
      </trkpt>
      <trkpt lat="44.4648" lon="6.55241">
        <ele>1959</ele>
        <time>2021-04-08T07:25:09Z</time>
      </trkpt>
      <trkpt lat="44.4648" lon="6.55242">
        <ele>1960</ele>
        <time>2021-04-08T07:25:10Z</time>
      </trkpt>
      <trkpt lat="44.4648" lon="6.55243">
        <ele>1960</ele>
        <time>2021-04-08T07:25:11Z</time>
      </trkpt>
      <trkpt lat="44.4648" lon="6.55244">
        <ele>1960</ele>
        <time>2021-04-08T07:25:12Z</time>
      </trkpt>
      <trkpt lat="44.4648" lon="6.55244">
        <ele>1960</ele>
        <time>2021-04-08T07:25:13Z</time>
      </trkpt>
      <trkpt lat="44.46481" lon="6.55245">
        <ele>1960</ele>
        <time>2021-04-08T07:25:14Z</time>
      </trkpt>
      <trkpt lat="44.46481" lon="6.55246">
        <ele>1960</ele>
        <time>2021-04-08T07:25:15Z</time>
      </trkpt>
      <trkpt lat="44.46482" lon="6.55246">
        <ele>1961</ele>
        <time>2021-04-08T07:25:16Z</time>
      </trkpt>
      <trkpt lat="44.46482" lon="6.55248">
        <ele>1961</ele>
        <time>2021-04-08T07:25:17Z</time>
      </trkpt>
      <trkpt lat="44.46482" lon="6.55249">
        <ele>1961</ele>
        <time>2021-04-08T07:25:18Z</time>
      </trkpt>
      <trkpt lat="44.46482" lon="6.55251">
        <ele>1961</ele>
        <time>2021-04-08T07:25:19Z</time>
      </trkpt>
      <trkpt lat="44.46482" lon="6.55253">
        <ele>1961</ele>
        <time>2021-04-08T07:25:20Z</time>
      </trkpt>
      <trkpt lat="44.46481" lon="6.55254">
        <ele>1962</ele>
        <time>2021-04-08T07:25:21Z</time>
      </trkpt>
      <trkpt lat="44.4648" lon="6.55255">
        <ele>1962</ele>
        <time>2021-04-08T07:25:22Z</time>
      </trkpt>
      <trkpt lat="44.4648" lon="6.55255">
        <ele>1962</ele>
        <time>2021-04-08T07:25:23Z</time>
      </trkpt>
      <trkpt lat="44.4648" lon="6.55257">
        <ele>1962</ele>
        <time>2021-04-08T07:25:24Z</time>
      </trkpt>
      <trkpt lat="44.4648" lon="6.55259">
        <ele>1962</ele>
        <time>2021-04-08T07:25:25Z</time>
      </trkpt>
      <trkpt lat="44.4648" lon="6.55261">
        <ele>1963</ele>
        <time>2021-04-08T07:25:26Z</time>
      </trkpt>
      <trkpt lat="44.4648" lon="6.55262">
        <ele>1963</ele>
        <time>2021-04-08T07:25:27Z</time>
      </trkpt>
      <trkpt lat="44.4648" lon="6.55263">
        <ele>1963</ele>
        <time>2021-04-08T07:25:28Z</time>
      </trkpt>
      <trkpt lat="44.4648" lon="6.55264">
        <ele>1963</ele>
        <time>2021-04-08T07:25:29Z</time>
      </trkpt>
      <trkpt lat="44.4648" lon="6.55264">
        <ele>1963</ele>
        <time>2021-04-08T07:25:30Z</time>
      </trkpt>
      <trkpt lat="44.46481" lon="6.55266">
        <ele>1964</ele>
        <time>2021-04-08T07:25:31Z</time>
      </trkpt>
      <trkpt lat="44.46481" lon="6.55267">
        <ele>1964</ele>
        <time>2021-04-08T07:25:32Z</time>
      </trkpt>
      <trkpt lat="44.46481" lon="6.55268">
        <ele>1964</ele>
        <time>2021-04-08T07:25:33Z</time>
      </trkpt>
      <trkpt lat="44.46481" lon="6.55269">
        <ele>1964</ele>
        <time>2021-04-08T07:25:34Z</time>
      </trkpt>
      <trkpt lat="44.46482" lon="6.5527">
        <ele>1964</ele>
        <time>2021-04-08T07:25:35Z</time>
      </trkpt>
      <trkpt lat="44.46482" lon="6.5527">
        <ele>1964</ele>
        <time>2021-04-08T07:25:36Z</time>
      </trkpt>
      <trkpt lat="44.46482" lon="6.55271">
        <ele>1964</ele>
        <time>2021-04-08T07:25:37Z</time>
      </trkpt>
      <trkpt lat="44.46482" lon="6.55272">
        <ele>1964</ele>
        <time>2021-04-08T07:25:38Z</time>
      </trkpt>
      <trkpt lat="44.46482" lon="6.55273">
        <ele>1965</ele>
        <time>2021-04-08T07:25:39Z</time>
      </trkpt>
      <trkpt lat="44.46482" lon="6.55273">
        <ele>1965</ele>
        <time>2021-04-08T07:25:40Z</time>
      </trkpt>
      <trkpt lat="44.46482" lon="6.55273">
        <ele>1965</ele>
        <time>2021-04-08T07:25:41Z</time>
      </trkpt>
      <trkpt lat="44.46482" lon="6.55273">
        <ele>1965</ele>
        <time>2021-04-08T07:25:42Z</time>
      </trkpt>
      <trkpt lat="44.46482" lon="6.55273">
        <ele>1965</ele>
        <time>2021-04-08T07:25:43Z</time>
      </trkpt>
      <trkpt lat="44.46482" lon="6.55273">
        <ele>1965</ele>
        <time>2021-04-08T07:25:44Z</time>
      </trkpt>
      <trkpt lat="44.46482" lon="6.55273">
        <ele>1966</ele>
        <time>2021-04-08T07:25:45Z</time>
      </trkpt>
      <trkpt lat="44.46482" lon="6.55274">
        <ele>1966</ele>
        <time>2021-04-08T07:25:46Z</time>
      </trkpt>
      <trkpt lat="44.46482" lon="6.55274">
        <ele>1966</ele>
        <time>2021-04-08T07:25:47Z</time>
      </trkpt>
      <trkpt lat="44.46482" lon="6.55274">
        <ele>1966</ele>
        <time>2021-04-08T07:25:48Z</time>
      </trkpt>
      <trkpt lat="44.46482" lon="6.55277">
        <ele>1967</ele>
        <time>2021-04-08T07:25:49Z</time>
      </trkpt>
      <trkpt lat="44.46482" lon="6.55279">
        <ele>1967</ele>
        <time>2021-04-08T07:25:50Z</time>
      </trkpt>
      <trkpt lat="44.46482" lon="6.5528">
        <ele>1967</ele>
        <time>2021-04-08T07:25:51Z</time>
      </trkpt>
      <trkpt lat="44.46482" lon="6.55281">
        <ele>1967</ele>
        <time>2021-04-08T07:25:52Z</time>
      </trkpt>
      <trkpt lat="44.46481" lon="6.55282">
        <ele>1968</ele>
        <time>2021-04-08T07:25:53Z</time>
      </trkpt>
      <trkpt lat="44.46481" lon="6.55282">
        <ele>1968</ele>
        <time>2021-04-08T07:25:54Z</time>
      </trkpt>
      <trkpt lat="44.4648" lon="6.55284">
        <ele>1968</ele>
        <time>2021-04-08T07:25:55Z</time>
      </trkpt>
      <trkpt lat="44.4648" lon="6.55285">
        <ele>1968</ele>
        <time>2021-04-08T07:25:56Z</time>
      </trkpt>
      <trkpt lat="44.4648" lon="6.55285">
        <ele>1969</ele>
        <time>2021-04-08T07:25:57Z</time>
      </trkpt>
      <trkpt lat="44.46479" lon="6.55286">
        <ele>1969</ele>
        <time>2021-04-08T07:25:58Z</time>
      </trkpt>
      <trkpt lat="44.46479" lon="6.55287">
        <ele>1969</ele>
        <time>2021-04-08T07:25:59Z</time>
      </trkpt>
      <trkpt lat="44.46478" lon="6.55287">
        <ele>1969</ele>
        <time>2021-04-08T07:26:00Z</time>
      </trkpt>
      <trkpt lat="44.46477" lon="6.55288">
        <ele>1969</ele>
        <time>2021-04-08T07:26:01Z</time>
      </trkpt>
      <trkpt lat="44.46477" lon="6.55288">
        <ele>1970</ele>
        <time>2021-04-08T07:26:02Z</time>
      </trkpt>
      <trkpt lat="44.46476" lon="6.55288">
        <ele>1970</ele>
        <time>2021-04-08T07:26:03Z</time>
      </trkpt>
      <trkpt lat="44.46475" lon="6.55289">
        <ele>1970</ele>
        <time>2021-04-08T07:26:04Z</time>
      </trkpt>
      <trkpt lat="44.46475" lon="6.55289">
        <ele>1970</ele>
        <time>2021-04-08T07:26:05Z</time>
      </trkpt>
      <trkpt lat="44.46474" lon="6.5529">
        <ele>1970</ele>
        <time>2021-04-08T07:26:06Z</time>
      </trkpt>
      <trkpt lat="44.46474" lon="6.5529">
        <ele>1971</ele>
        <time>2021-04-08T07:26:07Z</time>
      </trkpt>
      <trkpt lat="44.46473" lon="6.5529">
        <ele>1971</ele>
        <time>2021-04-08T07:26:08Z</time>
      </trkpt>
      <trkpt lat="44.46472" lon="6.55291">
        <ele>1971</ele>
        <time>2021-04-08T07:26:09Z</time>
      </trkpt>
      <trkpt lat="44.46471" lon="6.5529">
        <ele>1971</ele>
        <time>2021-04-08T07:26:10Z</time>
      </trkpt>
      <trkpt lat="44.4647" lon="6.5529">
        <ele>1971</ele>
        <time>2021-04-08T07:26:11Z</time>
      </trkpt>
      <trkpt lat="44.4647" lon="6.5529">
        <ele>1971</ele>
        <time>2021-04-08T07:26:12Z</time>
      </trkpt>
      <trkpt lat="44.46468" lon="6.55289">
        <ele>1971</ele>
        <time>2021-04-08T07:26:13Z</time>
      </trkpt>
      <trkpt lat="44.46468" lon="6.55289">
        <ele>1971</ele>
        <time>2021-04-08T07:26:14Z</time>
      </trkpt>
      <trkpt lat="44.46467" lon="6.55288">
        <ele>1971</ele>
        <time>2021-04-08T07:26:15Z</time>
      </trkpt>
      <trkpt lat="44.46465" lon="6.55289">
        <ele>1971</ele>
        <time>2021-04-08T07:26:16Z</time>
      </trkpt>
      <trkpt lat="44.46465" lon="6.55289">
        <ele>1971</ele>
        <time>2021-04-08T07:26:17Z</time>
      </trkpt>
      <trkpt lat="44.46464" lon="6.55289">
        <ele>1971</ele>
        <time>2021-04-08T07:26:18Z</time>
      </trkpt>
      <trkpt lat="44.46464" lon="6.55289">
        <ele>1971</ele>
        <time>2021-04-08T07:26:19Z</time>
      </trkpt>
      <trkpt lat="44.46463" lon="6.5529">
        <ele>1971</ele>
        <time>2021-04-08T07:26:20Z</time>
      </trkpt>
      <trkpt lat="44.46462" lon="6.5529">
        <ele>1971</ele>
        <time>2021-04-08T07:26:21Z</time>
      </trkpt>
      <trkpt lat="44.46462" lon="6.55291">
        <ele>1971</ele>
        <time>2021-04-08T07:26:22Z</time>
      </trkpt>
      <trkpt lat="44.46462" lon="6.55292">
        <ele>1971</ele>
        <time>2021-04-08T07:26:23Z</time>
      </trkpt>
      <trkpt lat="44.46461" lon="6.55292">
        <ele>1971</ele>
        <time>2021-04-08T07:26:24Z</time>
      </trkpt>
      <trkpt lat="44.46461" lon="6.55293">
        <ele>1972</ele>
        <time>2021-04-08T07:26:25Z</time>
      </trkpt>
      <trkpt lat="44.46461" lon="6.55294">
        <ele>1972</ele>
        <time>2021-04-08T07:26:26Z</time>
      </trkpt>
      <trkpt lat="44.46461" lon="6.55295">
        <ele>1972</ele>
        <time>2021-04-08T07:26:27Z</time>
      </trkpt>
      <trkpt lat="44.4646" lon="6.55296">
        <ele>1972</ele>
        <time>2021-04-08T07:26:28Z</time>
      </trkpt>
      <trkpt lat="44.46459" lon="6.55296">
        <ele>1972</ele>
        <time>2021-04-08T07:26:29Z</time>
      </trkpt>
      <trkpt lat="44.46459" lon="6.55297">
        <ele>1972</ele>
        <time>2021-04-08T07:26:30Z</time>
      </trkpt>
      <trkpt lat="44.46458" lon="6.55298">
        <ele>1972</ele>
        <time>2021-04-08T07:26:31Z</time>
      </trkpt>
      <trkpt lat="44.46458" lon="6.55299">
        <ele>1972</ele>
        <time>2021-04-08T07:26:32Z</time>
      </trkpt>
      <trkpt lat="44.46457" lon="6.553">
        <ele>1972</ele>
        <time>2021-04-08T07:26:33Z</time>
      </trkpt>
      <trkpt lat="44.46457" lon="6.55301">
        <ele>1972</ele>
        <time>2021-04-08T07:26:34Z</time>
      </trkpt>
      <trkpt lat="44.46456" lon="6.55302">
        <ele>1972</ele>
        <time>2021-04-08T07:26:35Z</time>
      </trkpt>
      <trkpt lat="44.46456" lon="6.55303">
        <ele>1972</ele>
        <time>2021-04-08T07:26:36Z</time>
      </trkpt>
      <trkpt lat="44.46456" lon="6.55304">
        <ele>1973</ele>
        <time>2021-04-08T07:26:37Z</time>
      </trkpt>
      <trkpt lat="44.46455" lon="6.55304">
        <ele>1973</ele>
        <time>2021-04-08T07:26:38Z</time>
      </trkpt>
      <trkpt lat="44.46455" lon="6.55304">
        <ele>1973</ele>
        <time>2021-04-08T07:26:39Z</time>
      </trkpt>
      <trkpt lat="44.46454" lon="6.55305">
        <ele>1973</ele>
        <time>2021-04-08T07:26:40Z</time>
      </trkpt>
      <trkpt lat="44.46453" lon="6.55305">
        <ele>1973</ele>
        <time>2021-04-08T07:26:41Z</time>
      </trkpt>
      <trkpt lat="44.46453" lon="6.55306">
        <ele>1973</ele>
        <time>2021-04-08T07:26:42Z</time>
      </trkpt>
      <trkpt lat="44.46452" lon="6.55306">
        <ele>1974</ele>
        <time>2021-04-08T07:26:43Z</time>
      </trkpt>
      <trkpt lat="44.46452" lon="6.55307">
        <ele>1974</ele>
        <time>2021-04-08T07:26:44Z</time>
      </trkpt>
      <trkpt lat="44.46452" lon="6.55308">
        <ele>1974</ele>
        <time>2021-04-08T07:26:45Z</time>
      </trkpt>
      <trkpt lat="44.46452" lon="6.55309">
        <ele>1974</ele>
        <time>2021-04-08T07:26:46Z</time>
      </trkpt>
      <trkpt lat="44.46452" lon="6.5531">
        <ele>1974</ele>
        <time>2021-04-08T07:26:47Z</time>
      </trkpt>
      <trkpt lat="44.46451" lon="6.5531">
        <ele>1975</ele>
        <time>2021-04-08T07:26:48Z</time>
      </trkpt>
      <trkpt lat="44.4645" lon="6.55312">
        <ele>1975</ele>
        <time>2021-04-08T07:26:49Z</time>
      </trkpt>
      <trkpt lat="44.4645" lon="6.55312">
        <ele>1975</ele>
        <time>2021-04-08T07:26:50Z</time>
      </trkpt>
      <trkpt lat="44.4645" lon="6.55313">
        <ele>1975</ele>
        <time>2021-04-08T07:26:51Z</time>
      </trkpt>
      <trkpt lat="44.46449" lon="6.55313">
        <ele>1975</ele>
        <time>2021-04-08T07:26:52Z</time>
      </trkpt>
      <trkpt lat="44.46449" lon="6.55314">
        <ele>1976</ele>
        <time>2021-04-08T07:26:53Z</time>
      </trkpt>
      <trkpt lat="44.46448" lon="6.55315">
        <ele>1976</ele>
        <time>2021-04-08T07:26:54Z</time>
      </trkpt>
      <trkpt lat="44.46448" lon="6.55316">
        <ele>1976</ele>
        <time>2021-04-08T07:26:55Z</time>
      </trkpt>
      <trkpt lat="44.46448" lon="6.55318">
        <ele>1976</ele>
        <time>2021-04-08T07:26:56Z</time>
      </trkpt>
      <trkpt lat="44.46448" lon="6.55319">
        <ele>1976</ele>
        <time>2021-04-08T07:26:57Z</time>
      </trkpt>
      <trkpt lat="44.46448" lon="6.5532">
        <ele>1977</ele>
        <time>2021-04-08T07:26:58Z</time>
      </trkpt>
      <trkpt lat="44.46448" lon="6.5532">
        <ele>1977</ele>
        <time>2021-04-08T07:26:59Z</time>
      </trkpt>
      <trkpt lat="44.46448" lon="6.55321">
        <ele>1977</ele>
        <time>2021-04-08T07:27:00Z</time>
      </trkpt>
      <trkpt lat="44.46448" lon="6.55322">
        <ele>1977</ele>
        <time>2021-04-08T07:27:01Z</time>
      </trkpt>
      <trkpt lat="44.46448" lon="6.55323">
        <ele>1977</ele>
        <time>2021-04-08T07:27:02Z</time>
      </trkpt>
      <trkpt lat="44.46447" lon="6.55324">
        <ele>1977</ele>
        <time>2021-04-08T07:27:03Z</time>
      </trkpt>
      <trkpt lat="44.46447" lon="6.55325">
        <ele>1978</ele>
        <time>2021-04-08T07:27:04Z</time>
      </trkpt>
      <trkpt lat="44.46447" lon="6.55326">
        <ele>1978</ele>
        <time>2021-04-08T07:27:05Z</time>
      </trkpt>
      <trkpt lat="44.46446" lon="6.55327">
        <ele>1978</ele>
        <time>2021-04-08T07:27:06Z</time>
      </trkpt>
      <trkpt lat="44.46446" lon="6.55328">
        <ele>1978</ele>
        <time>2021-04-08T07:27:07Z</time>
      </trkpt>
      <trkpt lat="44.46445" lon="6.55329">
        <ele>1979</ele>
        <time>2021-04-08T07:27:08Z</time>
      </trkpt>
      <trkpt lat="44.46444" lon="6.55329">
        <ele>1979</ele>
        <time>2021-04-08T07:27:09Z</time>
      </trkpt>
      <trkpt lat="44.46444" lon="6.5533">
        <ele>1979</ele>
        <time>2021-04-08T07:27:10Z</time>
      </trkpt>
      <trkpt lat="44.46444" lon="6.5533">
        <ele>1979</ele>
        <time>2021-04-08T07:27:11Z</time>
      </trkpt>
      <trkpt lat="44.46443" lon="6.55331">
        <ele>1979</ele>
        <time>2021-04-08T07:27:12Z</time>
      </trkpt>
      <trkpt lat="44.46443" lon="6.55332">
        <ele>1979</ele>
        <time>2021-04-08T07:27:13Z</time>
      </trkpt>
      <trkpt lat="44.46442" lon="6.55332">
        <ele>1979</ele>
        <time>2021-04-08T07:27:14Z</time>
      </trkpt>
      <trkpt lat="44.46442" lon="6.55332">
        <ele>1979</ele>
        <time>2021-04-08T07:27:15Z</time>
      </trkpt>
      <trkpt lat="44.46441" lon="6.55332">
        <ele>1979</ele>
        <time>2021-04-08T07:27:16Z</time>
      </trkpt>
      <trkpt lat="44.46441" lon="6.55332">
        <ele>1980</ele>
        <time>2021-04-08T07:27:17Z</time>
      </trkpt>
      <trkpt lat="44.46441" lon="6.55333">
        <ele>1980</ele>
        <time>2021-04-08T07:27:18Z</time>
      </trkpt>
      <trkpt lat="44.4644" lon="6.55333">
        <ele>1980</ele>
        <time>2021-04-08T07:27:19Z</time>
      </trkpt>
      <trkpt lat="44.4644" lon="6.55334">
        <ele>1980</ele>
        <time>2021-04-08T07:27:20Z</time>
      </trkpt>
      <trkpt lat="44.46439" lon="6.55335">
        <ele>1981</ele>
        <time>2021-04-08T07:27:21Z</time>
      </trkpt>
      <trkpt lat="44.46439" lon="6.55337">
        <ele>1981</ele>
        <time>2021-04-08T07:27:22Z</time>
      </trkpt>
      <trkpt lat="44.46439" lon="6.55338">
        <ele>1981</ele>
        <time>2021-04-08T07:27:23Z</time>
      </trkpt>
      <trkpt lat="44.46438" lon="6.55339">
        <ele>1981</ele>
        <time>2021-04-08T07:27:24Z</time>
      </trkpt>
      <trkpt lat="44.46438" lon="6.5534">
        <ele>1981</ele>
        <time>2021-04-08T07:27:25Z</time>
      </trkpt>
      <trkpt lat="44.46437" lon="6.5534">
        <ele>1981</ele>
        <time>2021-04-08T07:27:26Z</time>
      </trkpt>
      <trkpt lat="44.46436" lon="6.55341">
        <ele>1981</ele>
        <time>2021-04-08T07:27:27Z</time>
      </trkpt>
      <trkpt lat="44.46435" lon="6.55341">
        <ele>1981</ele>
        <time>2021-04-08T07:27:28Z</time>
      </trkpt>
      <trkpt lat="44.46435" lon="6.55341">
        <ele>1981</ele>
        <time>2021-04-08T07:27:29Z</time>
      </trkpt>
      <trkpt lat="44.46434" lon="6.55341">
        <ele>1981</ele>
        <time>2021-04-08T07:27:30Z</time>
      </trkpt>
      <trkpt lat="44.46433" lon="6.55341">
        <ele>1981</ele>
        <time>2021-04-08T07:27:31Z</time>
      </trkpt>
      <trkpt lat="44.46433" lon="6.55342">
        <ele>1981</ele>
        <time>2021-04-08T07:27:32Z</time>
      </trkpt>
      <trkpt lat="44.46432" lon="6.55342">
        <ele>1981</ele>
        <time>2021-04-08T07:27:33Z</time>
      </trkpt>
      <trkpt lat="44.46431" lon="6.55343">
        <ele>1981</ele>
        <time>2021-04-08T07:27:34Z</time>
      </trkpt>
      <trkpt lat="44.4643" lon="6.55343">
        <ele>1981</ele>
        <time>2021-04-08T07:27:35Z</time>
      </trkpt>
      <trkpt lat="44.46429" lon="6.55343">
        <ele>1981</ele>
        <time>2021-04-08T07:27:36Z</time>
      </trkpt>
      <trkpt lat="44.46429" lon="6.55344">
        <ele>1981</ele>
        <time>2021-04-08T07:27:37Z</time>
      </trkpt>
      <trkpt lat="44.46429" lon="6.55344">
        <ele>1980</ele>
        <time>2021-04-08T07:27:38Z</time>
      </trkpt>
      <trkpt lat="44.46429" lon="6.55345">
        <ele>1980</ele>
        <time>2021-04-08T07:27:39Z</time>
      </trkpt>
      <trkpt lat="44.46429" lon="6.55346">
        <ele>1980</ele>
        <time>2021-04-08T07:27:40Z</time>
      </trkpt>
      <trkpt lat="44.46428" lon="6.55347">
        <ele>1980</ele>
        <time>2021-04-08T07:27:41Z</time>
      </trkpt>
      <trkpt lat="44.46428" lon="6.55348">
        <ele>1980</ele>
        <time>2021-04-08T07:27:42Z</time>
      </trkpt>
      <trkpt lat="44.46428" lon="6.55349">
        <ele>1980</ele>
        <time>2021-04-08T07:27:43Z</time>
      </trkpt>
      <trkpt lat="44.46428" lon="6.5535">
        <ele>1980</ele>
        <time>2021-04-08T07:27:44Z</time>
      </trkpt>
      <trkpt lat="44.46428" lon="6.5535">
        <ele>1980</ele>
        <time>2021-04-08T07:27:45Z</time>
      </trkpt>
      <trkpt lat="44.46427" lon="6.55351">
        <ele>1980</ele>
        <time>2021-04-08T07:27:46Z</time>
      </trkpt>
      <trkpt lat="44.46427" lon="6.55352">
        <ele>1980</ele>
        <time>2021-04-08T07:27:47Z</time>
      </trkpt>
      <trkpt lat="44.46426" lon="6.55352">
        <ele>1980</ele>
        <time>2021-04-08T07:27:48Z</time>
      </trkpt>
      <trkpt lat="44.46426" lon="6.55352">
        <ele>1980</ele>
        <time>2021-04-08T07:27:49Z</time>
      </trkpt>
      <trkpt lat="44.46425" lon="6.55353">
        <ele>1980</ele>
        <time>2021-04-08T07:27:50Z</time>
      </trkpt>
      <trkpt lat="44.46424" lon="6.55354">
        <ele>1980</ele>
        <time>2021-04-08T07:27:51Z</time>
      </trkpt>
      <trkpt lat="44.46424" lon="6.55354">
        <ele>1981</ele>
        <time>2021-04-08T07:27:52Z</time>
      </trkpt>
      <trkpt lat="44.46423" lon="6.55356">
        <ele>1981</ele>
        <time>2021-04-08T07:27:53Z</time>
      </trkpt>
      <trkpt lat="44.46423" lon="6.55357">
        <ele>1981</ele>
        <time>2021-04-08T07:27:54Z</time>
      </trkpt>
      <trkpt lat="44.46422" lon="6.55357">
        <ele>1981</ele>
        <time>2021-04-08T07:27:55Z</time>
      </trkpt>
      <trkpt lat="44.46422" lon="6.55358">
        <ele>1982</ele>
        <time>2021-04-08T07:27:56Z</time>
      </trkpt>
      <trkpt lat="44.46421" lon="6.55358">
        <ele>1982</ele>
        <time>2021-04-08T07:27:57Z</time>
      </trkpt>
      <trkpt lat="44.4642" lon="6.55358">
        <ele>1982</ele>
        <time>2021-04-08T07:27:58Z</time>
      </trkpt>
      <trkpt lat="44.4642" lon="6.55359">
        <ele>1982</ele>
        <time>2021-04-08T07:27:59Z</time>
      </trkpt>
      <trkpt lat="44.46419" lon="6.55359">
        <ele>1983</ele>
        <time>2021-04-08T07:28:00Z</time>
      </trkpt>
      <trkpt lat="44.46419" lon="6.5536">
        <ele>1983</ele>
        <time>2021-04-08T07:28:01Z</time>
      </trkpt>
      <trkpt lat="44.46418" lon="6.55361">
        <ele>1983</ele>
        <time>2021-04-08T07:28:02Z</time>
      </trkpt>
      <trkpt lat="44.46418" lon="6.55361">
        <ele>1983</ele>
        <time>2021-04-08T07:28:03Z</time>
      </trkpt>
      <trkpt lat="44.46417" lon="6.55362">
        <ele>1983</ele>
        <time>2021-04-08T07:28:04Z</time>
      </trkpt>
      <trkpt lat="44.46417" lon="6.55363">
        <ele>1984</ele>
        <time>2021-04-08T07:28:05Z</time>
      </trkpt>
      <trkpt lat="44.46417" lon="6.55364">
        <ele>1984</ele>
        <time>2021-04-08T07:28:06Z</time>
      </trkpt>
      <trkpt lat="44.46417" lon="6.55365">
        <ele>1984</ele>
        <time>2021-04-08T07:28:07Z</time>
      </trkpt>
      <trkpt lat="44.46416" lon="6.55365">
        <ele>1984</ele>
        <time>2021-04-08T07:28:08Z</time>
      </trkpt>
      <trkpt lat="44.46416" lon="6.55367">
        <ele>1984</ele>
        <time>2021-04-08T07:28:09Z</time>
      </trkpt>
      <trkpt lat="44.46415" lon="6.55368">
        <ele>1985</ele>
        <time>2021-04-08T07:28:10Z</time>
      </trkpt>
      <trkpt lat="44.46414" lon="6.55369">
        <ele>1985</ele>
        <time>2021-04-08T07:28:11Z</time>
      </trkpt>
      <trkpt lat="44.46416" lon="6.55371">
        <ele>1986</ele>
        <time>2021-04-08T07:28:12Z</time>
      </trkpt>
      <trkpt lat="44.46415" lon="6.55371">
        <ele>1987</ele>
        <time>2021-04-08T07:28:13Z</time>
      </trkpt>
      <trkpt lat="44.46414" lon="6.55372">
        <ele>1988</ele>
        <time>2021-04-08T07:28:14Z</time>
      </trkpt>
      <trkpt lat="44.46413" lon="6.55372">
        <ele>1989</ele>
        <time>2021-04-08T07:28:15Z</time>
      </trkpt>
      <trkpt lat="44.46412" lon="6.55372">
        <ele>1989</ele>
        <time>2021-04-08T07:28:16Z</time>
      </trkpt>
      <trkpt lat="44.46411" lon="6.55373">
        <ele>1989</ele>
        <time>2021-04-08T07:28:17Z</time>
      </trkpt>
      <trkpt lat="44.46411" lon="6.55373">
        <ele>1990</ele>
        <time>2021-04-08T07:28:18Z</time>
      </trkpt>
      <trkpt lat="44.4641" lon="6.55374">
        <ele>1990</ele>
        <time>2021-04-08T07:28:19Z</time>
      </trkpt>
      <trkpt lat="44.46409" lon="6.55374">
        <ele>1990</ele>
        <time>2021-04-08T07:28:20Z</time>
      </trkpt>
      <trkpt lat="44.46408" lon="6.55374">
        <ele>1990</ele>
        <time>2021-04-08T07:28:21Z</time>
      </trkpt>
      <trkpt lat="44.46408" lon="6.55374">
        <ele>1990</ele>
        <time>2021-04-08T07:28:22Z</time>
      </trkpt>
      <trkpt lat="44.46408" lon="6.55375">
        <ele>1991</ele>
        <time>2021-04-08T07:28:23Z</time>
      </trkpt>
      <trkpt lat="44.46407" lon="6.55375">
        <ele>1991</ele>
        <time>2021-04-08T07:28:24Z</time>
      </trkpt>
      <trkpt lat="44.46407" lon="6.55376">
        <ele>1991</ele>
        <time>2021-04-08T07:28:25Z</time>
      </trkpt>
      <trkpt lat="44.46407" lon="6.55377">
        <ele>1991</ele>
        <time>2021-04-08T07:28:26Z</time>
      </trkpt>
      <trkpt lat="44.46406" lon="6.55378">
        <ele>1991</ele>
        <time>2021-04-08T07:28:27Z</time>
      </trkpt>
      <trkpt lat="44.46406" lon="6.55379">
        <ele>1992</ele>
        <time>2021-04-08T07:28:28Z</time>
      </trkpt>
      <trkpt lat="44.46405" lon="6.5538">
        <ele>1992</ele>
        <time>2021-04-08T07:28:29Z</time>
      </trkpt>
      <trkpt lat="44.46404" lon="6.5538">
        <ele>1992</ele>
        <time>2021-04-08T07:28:30Z</time>
      </trkpt>
      <trkpt lat="44.46403" lon="6.55381">
        <ele>1992</ele>
        <time>2021-04-08T07:28:31Z</time>
      </trkpt>
      <trkpt lat="44.46402" lon="6.55381">
        <ele>1992</ele>
        <time>2021-04-08T07:28:32Z</time>
      </trkpt>
      <trkpt lat="44.46402" lon="6.55381">
        <ele>1993</ele>
        <time>2021-04-08T07:28:33Z</time>
      </trkpt>
      <trkpt lat="44.46401" lon="6.55382">
        <ele>1993</ele>
        <time>2021-04-08T07:28:34Z</time>
      </trkpt>
      <trkpt lat="44.46401" lon="6.55383">
        <ele>1993</ele>
        <time>2021-04-08T07:28:35Z</time>
      </trkpt>
      <trkpt lat="44.464" lon="6.55383">
        <ele>1993</ele>
        <time>2021-04-08T07:28:36Z</time>
      </trkpt>
      <trkpt lat="44.46399" lon="6.55384">
        <ele>1993</ele>
        <time>2021-04-08T07:28:37Z</time>
      </trkpt>
      <trkpt lat="44.46399" lon="6.55385">
        <ele>1993</ele>
        <time>2021-04-08T07:28:38Z</time>
      </trkpt>
      <trkpt lat="44.46398" lon="6.55385">
        <ele>1993</ele>
        <time>2021-04-08T07:28:39Z</time>
      </trkpt>
      <trkpt lat="44.46398" lon="6.55385">
        <ele>1993</ele>
        <time>2021-04-08T07:28:40Z</time>
      </trkpt>
      <trkpt lat="44.46397" lon="6.55385">
        <ele>1993</ele>
        <time>2021-04-08T07:28:41Z</time>
      </trkpt>
      <trkpt lat="44.46396" lon="6.55386">
        <ele>1994</ele>
        <time>2021-04-08T07:28:42Z</time>
      </trkpt>
      <trkpt lat="44.46395" lon="6.55386">
        <ele>1994</ele>
        <time>2021-04-08T07:28:43Z</time>
      </trkpt>
      <trkpt lat="44.46395" lon="6.55386">
        <ele>1994</ele>
        <time>2021-04-08T07:28:44Z</time>
      </trkpt>
      <trkpt lat="44.46394" lon="6.55386">
        <ele>1994</ele>
        <time>2021-04-08T07:28:45Z</time>
      </trkpt>
      <trkpt lat="44.46393" lon="6.55386">
        <ele>1994</ele>
        <time>2021-04-08T07:28:46Z</time>
      </trkpt>
      <trkpt lat="44.46393" lon="6.55387">
        <ele>1994</ele>
        <time>2021-04-08T07:28:47Z</time>
      </trkpt>
      <trkpt lat="44.46393" lon="6.55387">
        <ele>1994</ele>
        <time>2021-04-08T07:28:48Z</time>
      </trkpt>
      <trkpt lat="44.46393" lon="6.55387">
        <ele>1994</ele>
        <time>2021-04-08T07:28:49Z</time>
      </trkpt>
      <trkpt lat="44.46393" lon="6.55388">
        <ele>1994</ele>
        <time>2021-04-08T07:28:50Z</time>
      </trkpt>
      <trkpt lat="44.46392" lon="6.55388">
        <ele>1995</ele>
        <time>2021-04-08T07:28:51Z</time>
      </trkpt>
      <trkpt lat="44.46392" lon="6.55388">
        <ele>1995</ele>
        <time>2021-04-08T07:28:52Z</time>
      </trkpt>
      <trkpt lat="44.46392" lon="6.55388">
        <ele>1995</ele>
        <time>2021-04-08T07:28:53Z</time>
      </trkpt>
      <trkpt lat="44.46391" lon="6.55388">
        <ele>1995</ele>
        <time>2021-04-08T07:28:54Z</time>
      </trkpt>
      <trkpt lat="44.46391" lon="6.55389">
        <ele>1995</ele>
        <time>2021-04-08T07:28:55Z</time>
      </trkpt>
      <trkpt lat="44.4639" lon="6.55389">
        <ele>1995</ele>
        <time>2021-04-08T07:28:56Z</time>
      </trkpt>
      <trkpt lat="44.4639" lon="6.5539">
        <ele>1995</ele>
        <time>2021-04-08T07:28:57Z</time>
      </trkpt>
      <trkpt lat="44.4639" lon="6.55391">
        <ele>1996</ele>
        <time>2021-04-08T07:28:58Z</time>
      </trkpt>
      <trkpt lat="44.4639" lon="6.55391">
        <ele>1996</ele>
        <time>2021-04-08T07:28:59Z</time>
      </trkpt>
      <trkpt lat="44.4639" lon="6.55392">
        <ele>1996</ele>
        <time>2021-04-08T07:29:00Z</time>
      </trkpt>
      <trkpt lat="44.46389" lon="6.55393">
        <ele>1996</ele>
        <time>2021-04-08T07:29:01Z</time>
      </trkpt>
      <trkpt lat="44.46389" lon="6.55394">
        <ele>1996</ele>
        <time>2021-04-08T07:29:02Z</time>
      </trkpt>
      <trkpt lat="44.46388" lon="6.55395">
        <ele>1996</ele>
        <time>2021-04-08T07:29:03Z</time>
      </trkpt>
      <trkpt lat="44.46388" lon="6.55396">
        <ele>1996</ele>
        <time>2021-04-08T07:29:04Z</time>
      </trkpt>
      <trkpt lat="44.46387" lon="6.55397">
        <ele>1997</ele>
        <time>2021-04-08T07:29:05Z</time>
      </trkpt>
      <trkpt lat="44.46387" lon="6.55398">
        <ele>1997</ele>
        <time>2021-04-08T07:29:06Z</time>
      </trkpt>
      <trkpt lat="44.46386" lon="6.55399">
        <ele>1997</ele>
        <time>2021-04-08T07:29:07Z</time>
      </trkpt>
      <trkpt lat="44.46386" lon="6.554">
        <ele>1997</ele>
        <time>2021-04-08T07:29:08Z</time>
      </trkpt>
      <trkpt lat="44.46385" lon="6.55402">
        <ele>1997</ele>
        <time>2021-04-08T07:29:09Z</time>
      </trkpt>
      <trkpt lat="44.46385" lon="6.55403">
        <ele>1997</ele>
        <time>2021-04-08T07:29:10Z</time>
      </trkpt>
      <trkpt lat="44.46385" lon="6.55403">
        <ele>1997</ele>
        <time>2021-04-08T07:29:11Z</time>
      </trkpt>
      <trkpt lat="44.46385" lon="6.55404">
        <ele>1997</ele>
        <time>2021-04-08T07:29:12Z</time>
      </trkpt>
      <trkpt lat="44.46385" lon="6.55405">
        <ele>1997</ele>
        <time>2021-04-08T07:29:13Z</time>
      </trkpt>
      <trkpt lat="44.46384" lon="6.55406">
        <ele>1997</ele>
        <time>2021-04-08T07:29:14Z</time>
      </trkpt>
      <trkpt lat="44.46384" lon="6.55408">
        <ele>1997</ele>
        <time>2021-04-08T07:29:15Z</time>
      </trkpt>
      <trkpt lat="44.46383" lon="6.55409">
        <ele>1998</ele>
        <time>2021-04-08T07:29:16Z</time>
      </trkpt>
      <trkpt lat="44.46383" lon="6.5541">
        <ele>1998</ele>
        <time>2021-04-08T07:29:17Z</time>
      </trkpt>
      <trkpt lat="44.46382" lon="6.55411">
        <ele>1998</ele>
        <time>2021-04-08T07:29:18Z</time>
      </trkpt>
      <trkpt lat="44.46382" lon="6.55411">
        <ele>1998</ele>
        <time>2021-04-08T07:29:19Z</time>
      </trkpt>
      <trkpt lat="44.46381" lon="6.55411">
        <ele>1998</ele>
        <time>2021-04-08T07:29:20Z</time>
      </trkpt>
      <trkpt lat="44.4638" lon="6.55412">
        <ele>1998</ele>
        <time>2021-04-08T07:29:21Z</time>
      </trkpt>
      <trkpt lat="44.4638" lon="6.55412">
        <ele>1998</ele>
        <time>2021-04-08T07:29:22Z</time>
      </trkpt>
      <trkpt lat="44.46379" lon="6.55413">
        <ele>1999</ele>
        <time>2021-04-08T07:29:23Z</time>
      </trkpt>
      <trkpt lat="44.46378" lon="6.55413">
        <ele>1999</ele>
        <time>2021-04-08T07:29:24Z</time>
      </trkpt>
      <trkpt lat="44.46377" lon="6.55414">
        <ele>1999</ele>
        <time>2021-04-08T07:29:25Z</time>
      </trkpt>
      <trkpt lat="44.46377" lon="6.55414">
        <ele>1999</ele>
        <time>2021-04-08T07:29:26Z</time>
      </trkpt>
      <trkpt lat="44.46376" lon="6.55415">
        <ele>1999</ele>
        <time>2021-04-08T07:29:27Z</time>
      </trkpt>
      <trkpt lat="44.46375" lon="6.55415">
        <ele>1999</ele>
        <time>2021-04-08T07:29:28Z</time>
      </trkpt>
      <trkpt lat="44.46375" lon="6.55415">
        <ele>1999</ele>
        <time>2021-04-08T07:29:29Z</time>
      </trkpt>
      <trkpt lat="44.46374" lon="6.55416">
        <ele>1999</ele>
        <time>2021-04-08T07:29:30Z</time>
      </trkpt>
      <trkpt lat="44.46374" lon="6.55417">
        <ele>1999</ele>
        <time>2021-04-08T07:29:31Z</time>
      </trkpt>
      <trkpt lat="44.46373" lon="6.55417">
        <ele>1999</ele>
        <time>2021-04-08T07:29:32Z</time>
      </trkpt>
      <trkpt lat="44.46373" lon="6.55418">
        <ele>1999</ele>
        <time>2021-04-08T07:29:33Z</time>
      </trkpt>
      <trkpt lat="44.46372" lon="6.55419">
        <ele>1999</ele>
        <time>2021-04-08T07:29:34Z</time>
      </trkpt>
      <trkpt lat="44.46372" lon="6.5542">
        <ele>2000</ele>
        <time>2021-04-08T07:29:35Z</time>
      </trkpt>
      <trkpt lat="44.46371" lon="6.55421">
        <ele>2000</ele>
        <time>2021-04-08T07:29:36Z</time>
      </trkpt>
      <trkpt lat="44.46371" lon="6.55422">
        <ele>2000</ele>
        <time>2021-04-08T07:29:37Z</time>
      </trkpt>
      <trkpt lat="44.4637" lon="6.55423">
        <ele>2000</ele>
        <time>2021-04-08T07:29:38Z</time>
      </trkpt>
      <trkpt lat="44.4637" lon="6.55423">
        <ele>2000</ele>
        <time>2021-04-08T07:29:39Z</time>
      </trkpt>
      <trkpt lat="44.46369" lon="6.55423">
        <ele>2000</ele>
        <time>2021-04-08T07:29:40Z</time>
      </trkpt>
      <trkpt lat="44.46368" lon="6.55424">
        <ele>2000</ele>
        <time>2021-04-08T07:29:41Z</time>
      </trkpt>
      <trkpt lat="44.46367" lon="6.55424">
        <ele>2000</ele>
        <time>2021-04-08T07:29:42Z</time>
      </trkpt>
      <trkpt lat="44.46367" lon="6.55425">
        <ele>2001</ele>
        <time>2021-04-08T07:29:43Z</time>
      </trkpt>
      <trkpt lat="44.46367" lon="6.55426">
        <ele>2001</ele>
        <time>2021-04-08T07:29:44Z</time>
      </trkpt>
      <trkpt lat="44.46365" lon="6.55426">
        <ele>2001</ele>
        <time>2021-04-08T07:29:45Z</time>
      </trkpt>
      <trkpt lat="44.46365" lon="6.55427">
        <ele>2001</ele>
        <time>2021-04-08T07:29:46Z</time>
      </trkpt>
      <trkpt lat="44.46364" lon="6.55427">
        <ele>2001</ele>
        <time>2021-04-08T07:29:47Z</time>
      </trkpt>
      <trkpt lat="44.46364" lon="6.55428">
        <ele>2001</ele>
        <time>2021-04-08T07:29:48Z</time>
      </trkpt>
      <trkpt lat="44.46363" lon="6.55429">
        <ele>2002</ele>
        <time>2021-04-08T07:29:49Z</time>
      </trkpt>
      <trkpt lat="44.46362" lon="6.5543">
        <ele>2002</ele>
        <time>2021-04-08T07:29:50Z</time>
      </trkpt>
      <trkpt lat="44.46362" lon="6.5543">
        <ele>2002</ele>
        <time>2021-04-08T07:29:51Z</time>
      </trkpt>
      <trkpt lat="44.46361" lon="6.55431">
        <ele>2002</ele>
        <time>2021-04-08T07:29:52Z</time>
      </trkpt>
      <trkpt lat="44.46361" lon="6.55432">
        <ele>2003</ele>
        <time>2021-04-08T07:29:53Z</time>
      </trkpt>
      <trkpt lat="44.4636" lon="6.55433">
        <ele>2003</ele>
        <time>2021-04-08T07:29:54Z</time>
      </trkpt>
      <trkpt lat="44.46359" lon="6.55433">
        <ele>2003</ele>
        <time>2021-04-08T07:29:55Z</time>
      </trkpt>
      <trkpt lat="44.46358" lon="6.55434">
        <ele>2003</ele>
        <time>2021-04-08T07:29:56Z</time>
      </trkpt>
      <trkpt lat="44.46358" lon="6.55435">
        <ele>2004</ele>
        <time>2021-04-08T07:29:57Z</time>
      </trkpt>
      <trkpt lat="44.46357" lon="6.55436">
        <ele>2004</ele>
        <time>2021-04-08T07:29:58Z</time>
      </trkpt>
      <trkpt lat="44.46357" lon="6.55436">
        <ele>2004</ele>
        <time>2021-04-08T07:29:59Z</time>
      </trkpt>
      <trkpt lat="44.46357" lon="6.55437">
        <ele>2004</ele>
        <time>2021-04-08T07:30:00Z</time>
      </trkpt>
      <trkpt lat="44.46357" lon="6.55437">
        <ele>2005</ele>
        <time>2021-04-08T07:30:01Z</time>
      </trkpt>
      <trkpt lat="44.46357" lon="6.55437">
        <ele>2005</ele>
        <time>2021-04-08T07:30:02Z</time>
      </trkpt>
      <trkpt lat="44.46357" lon="6.55437">
        <ele>2005</ele>
        <time>2021-04-08T07:30:03Z</time>
      </trkpt>
      <trkpt lat="44.46357" lon="6.55437">
        <ele>2005</ele>
        <time>2021-04-08T07:30:04Z</time>
      </trkpt>
      <trkpt lat="44.46357" lon="6.55437">
        <ele>2005</ele>
        <time>2021-04-08T07:30:05Z</time>
      </trkpt>
      <trkpt lat="44.46357" lon="6.55437">
        <ele>2005</ele>
        <time>2021-04-08T07:30:06Z</time>
      </trkpt>
      <trkpt lat="44.46357" lon="6.55437">
        <ele>2005</ele>
        <time>2021-04-08T07:30:07Z</time>
      </trkpt>
      <trkpt lat="44.46356" lon="6.55436">
        <ele>2005</ele>
        <time>2021-04-08T07:30:08Z</time>
      </trkpt>
      <trkpt lat="44.46356" lon="6.55436">
        <ele>2005</ele>
        <time>2021-04-08T07:30:09Z</time>
      </trkpt>
      <trkpt lat="44.46356" lon="6.55436">
        <ele>2005</ele>
        <time>2021-04-08T07:30:10Z</time>
      </trkpt>
      <trkpt lat="44.46356" lon="6.55436">
        <ele>2005</ele>
        <time>2021-04-08T07:30:11Z</time>
      </trkpt>
      <trkpt lat="44.46355" lon="6.55437">
        <ele>2006</ele>
        <time>2021-04-08T07:30:12Z</time>
      </trkpt>
      <trkpt lat="44.46354" lon="6.55437">
        <ele>2006</ele>
        <time>2021-04-08T07:30:13Z</time>
      </trkpt>
      <trkpt lat="44.46354" lon="6.55438">
        <ele>2006</ele>
        <time>2021-04-08T07:30:14Z</time>
      </trkpt>
      <trkpt lat="44.46354" lon="6.55438">
        <ele>2006</ele>
        <time>2021-04-08T07:30:15Z</time>
      </trkpt>
      <trkpt lat="44.46354" lon="6.55439">
        <ele>2006</ele>
        <time>2021-04-08T07:30:16Z</time>
      </trkpt>
      <trkpt lat="44.46353" lon="6.55439">
        <ele>2007</ele>
        <time>2021-04-08T07:30:17Z</time>
      </trkpt>
      <trkpt lat="44.46353" lon="6.55439">
        <ele>2007</ele>
        <time>2021-04-08T07:30:18Z</time>
      </trkpt>
      <trkpt lat="44.46352" lon="6.5544">
        <ele>2007</ele>
        <time>2021-04-08T07:30:19Z</time>
      </trkpt>
      <trkpt lat="44.46352" lon="6.5544">
        <ele>2007</ele>
        <time>2021-04-08T07:30:20Z</time>
      </trkpt>
      <trkpt lat="44.46352" lon="6.55441">
        <ele>2007</ele>
        <time>2021-04-08T07:30:21Z</time>
      </trkpt>
      <trkpt lat="44.46352" lon="6.55442">
        <ele>2007</ele>
        <time>2021-04-08T07:30:22Z</time>
      </trkpt>
      <trkpt lat="44.46352" lon="6.55443">
        <ele>2007</ele>
        <time>2021-04-08T07:30:23Z</time>
      </trkpt>
      <trkpt lat="44.46352" lon="6.55444">
        <ele>2007</ele>
        <time>2021-04-08T07:30:24Z</time>
      </trkpt>
      <trkpt lat="44.46352" lon="6.55445">
        <ele>2007</ele>
        <time>2021-04-08T07:30:25Z</time>
      </trkpt>
      <trkpt lat="44.46352" lon="6.55446">
        <ele>2007</ele>
        <time>2021-04-08T07:30:26Z</time>
      </trkpt>
      <trkpt lat="44.46352" lon="6.55448">
        <ele>2007</ele>
        <time>2021-04-08T07:30:27Z</time>
      </trkpt>
      <trkpt lat="44.46351" lon="6.55449">
        <ele>2008</ele>
        <time>2021-04-08T07:30:28Z</time>
      </trkpt>
      <trkpt lat="44.46351" lon="6.55451">
        <ele>2008</ele>
        <time>2021-04-08T07:30:29Z</time>
      </trkpt>
      <trkpt lat="44.46351" lon="6.55453">
        <ele>2008</ele>
        <time>2021-04-08T07:30:30Z</time>
      </trkpt>
      <trkpt lat="44.46351" lon="6.55454">
        <ele>2008</ele>
        <time>2021-04-08T07:30:31Z</time>
      </trkpt>
      <trkpt lat="44.4635" lon="6.55455">
        <ele>2008</ele>
        <time>2021-04-08T07:30:32Z</time>
      </trkpt>
      <trkpt lat="44.46349" lon="6.55456">
        <ele>2009</ele>
        <time>2021-04-08T07:30:33Z</time>
      </trkpt>
      <trkpt lat="44.46349" lon="6.55457">
        <ele>2009</ele>
        <time>2021-04-08T07:30:34Z</time>
      </trkpt>
      <trkpt lat="44.46348" lon="6.55458">
        <ele>2009</ele>
        <time>2021-04-08T07:30:35Z</time>
      </trkpt>
      <trkpt lat="44.46348" lon="6.55458">
        <ele>2009</ele>
        <time>2021-04-08T07:30:36Z</time>
      </trkpt>
      <trkpt lat="44.46348" lon="6.55459">
        <ele>2009</ele>
        <time>2021-04-08T07:30:37Z</time>
      </trkpt>
      <trkpt lat="44.46347" lon="6.5546">
        <ele>2009</ele>
        <time>2021-04-08T07:30:38Z</time>
      </trkpt>
      <trkpt lat="44.46347" lon="6.55461">
        <ele>2009</ele>
        <time>2021-04-08T07:30:39Z</time>
      </trkpt>
      <trkpt lat="44.46347" lon="6.55461">
        <ele>2009</ele>
        <time>2021-04-08T07:30:40Z</time>
      </trkpt>
      <trkpt lat="44.46346" lon="6.55462">
        <ele>2009</ele>
        <time>2021-04-08T07:30:41Z</time>
      </trkpt>
      <trkpt lat="44.46346" lon="6.55463">
        <ele>2009</ele>
        <time>2021-04-08T07:30:42Z</time>
      </trkpt>
      <trkpt lat="44.46346" lon="6.55464">
        <ele>2010</ele>
        <time>2021-04-08T07:30:43Z</time>
      </trkpt>
      <trkpt lat="44.46345" lon="6.55465">
        <ele>2010</ele>
        <time>2021-04-08T07:30:44Z</time>
      </trkpt>
      <trkpt lat="44.46345" lon="6.55465">
        <ele>2010</ele>
        <time>2021-04-08T07:30:45Z</time>
      </trkpt>
      <trkpt lat="44.46344" lon="6.55466">
        <ele>2010</ele>
        <time>2021-04-08T07:30:46Z</time>
      </trkpt>
      <trkpt lat="44.46344" lon="6.55467">
        <ele>2010</ele>
        <time>2021-04-08T07:30:47Z</time>
      </trkpt>
      <trkpt lat="44.46344" lon="6.55467">
        <ele>2010</ele>
        <time>2021-04-08T07:30:48Z</time>
      </trkpt>
      <trkpt lat="44.46343" lon="6.55467">
        <ele>2010</ele>
        <time>2021-04-08T07:30:49Z</time>
      </trkpt>
      <trkpt lat="44.46343" lon="6.55468">
        <ele>2010</ele>
        <time>2021-04-08T07:30:50Z</time>
      </trkpt>
      <trkpt lat="44.46342" lon="6.55468">
        <ele>2011</ele>
        <time>2021-04-08T07:30:51Z</time>
      </trkpt>
      <trkpt lat="44.46342" lon="6.55468">
        <ele>2011</ele>
        <time>2021-04-08T07:30:52Z</time>
      </trkpt>
      <trkpt lat="44.46342" lon="6.55468">
        <ele>2011</ele>
        <time>2021-04-08T07:30:53Z</time>
      </trkpt>
      <trkpt lat="44.46342" lon="6.55468">
        <ele>2011</ele>
        <time>2021-04-08T07:30:54Z</time>
      </trkpt>
      <trkpt lat="44.46342" lon="6.55468">
        <ele>2011</ele>
        <time>2021-04-08T07:30:55Z</time>
      </trkpt>
      <trkpt lat="44.46341" lon="6.55469">
        <ele>2011</ele>
        <time>2021-04-08T07:30:56Z</time>
      </trkpt>
      <trkpt lat="44.46341" lon="6.55469">
        <ele>2011</ele>
        <time>2021-04-08T07:30:57Z</time>
      </trkpt>
      <trkpt lat="44.4634" lon="6.5547">
        <ele>2011</ele>
        <time>2021-04-08T07:30:58Z</time>
      </trkpt>
      <trkpt lat="44.4634" lon="6.5547">
        <ele>2011</ele>
        <time>2021-04-08T07:30:59Z</time>
      </trkpt>
      <trkpt lat="44.46339" lon="6.55471">
        <ele>2011</ele>
        <time>2021-04-08T07:31:00Z</time>
      </trkpt>
      <trkpt lat="44.46338" lon="6.55472">
        <ele>2011</ele>
        <time>2021-04-08T07:31:01Z</time>
      </trkpt>
      <trkpt lat="44.46337" lon="6.55473">
        <ele>2011</ele>
        <time>2021-04-08T07:31:02Z</time>
      </trkpt>
      <trkpt lat="44.46337" lon="6.55473">
        <ele>2011</ele>
        <time>2021-04-08T07:31:03Z</time>
      </trkpt>
      <trkpt lat="44.46336" lon="6.55474">
        <ele>2011</ele>
        <time>2021-04-08T07:31:04Z</time>
      </trkpt>
      <trkpt lat="44.46336" lon="6.55475">
        <ele>2011</ele>
        <time>2021-04-08T07:31:05Z</time>
      </trkpt>
      <trkpt lat="44.46335" lon="6.55476">
        <ele>2011</ele>
        <time>2021-04-08T07:31:06Z</time>
      </trkpt>
      <trkpt lat="44.46334" lon="6.55477">
        <ele>2012</ele>
        <time>2021-04-08T07:31:07Z</time>
      </trkpt>
      <trkpt lat="44.46333" lon="6.55477">
        <ele>2012</ele>
        <time>2021-04-08T07:31:08Z</time>
      </trkpt>
      <trkpt lat="44.46333" lon="6.55477">
        <ele>2012</ele>
        <time>2021-04-08T07:31:09Z</time>
      </trkpt>
      <trkpt lat="44.46333" lon="6.55476">
        <ele>2012</ele>
        <time>2021-04-08T07:31:10Z</time>
      </trkpt>
      <trkpt lat="44.46333" lon="6.55476">
        <ele>2013</ele>
        <time>2021-04-08T07:31:11Z</time>
      </trkpt>
      <trkpt lat="44.46333" lon="6.55475">
        <ele>2013</ele>
        <time>2021-04-08T07:31:12Z</time>
      </trkpt>
      <trkpt lat="44.46333" lon="6.55475">
        <ele>2013</ele>
        <time>2021-04-08T07:31:13Z</time>
      </trkpt>
      <trkpt lat="44.46333" lon="6.55475">
        <ele>2013</ele>
        <time>2021-04-08T07:31:14Z</time>
      </trkpt>
      <trkpt lat="44.46333" lon="6.55476">
        <ele>2013</ele>
        <time>2021-04-08T07:31:15Z</time>
      </trkpt>
      <trkpt lat="44.46333" lon="6.55476">
        <ele>2013</ele>
        <time>2021-04-08T07:31:16Z</time>
      </trkpt>
      <trkpt lat="44.46332" lon="6.55477">
        <ele>2014</ele>
        <time>2021-04-08T07:31:17Z</time>
      </trkpt>
      <trkpt lat="44.46332" lon="6.55478">
        <ele>2014</ele>
        <time>2021-04-08T07:31:18Z</time>
      </trkpt>
      <trkpt lat="44.46332" lon="6.55478">
        <ele>2014</ele>
        <time>2021-04-08T07:31:19Z</time>
      </trkpt>
      <trkpt lat="44.46332" lon="6.55478">
        <ele>2014</ele>
        <time>2021-04-08T07:31:20Z</time>
      </trkpt>
      <trkpt lat="44.46332" lon="6.55478">
        <ele>2014</ele>
        <time>2021-04-08T07:31:21Z</time>
      </trkpt>
      <trkpt lat="44.46332" lon="6.55478">
        <ele>2014</ele>
        <time>2021-04-08T07:31:22Z</time>
      </trkpt>
      <trkpt lat="44.46332" lon="6.55478">
        <ele>2014</ele>
        <time>2021-04-08T07:31:23Z</time>
      </trkpt>
      <trkpt lat="44.46332" lon="6.55478">
        <ele>2014</ele>
        <time>2021-04-08T07:31:24Z</time>
      </trkpt>
      <trkpt lat="44.46332" lon="6.55478">
        <ele>2014</ele>
        <time>2021-04-08T07:31:25Z</time>
      </trkpt>
      <trkpt lat="44.46332" lon="6.55478">
        <ele>2014</ele>
        <time>2021-04-08T07:31:26Z</time>
      </trkpt>
      <trkpt lat="44.46332" lon="6.55478">
        <ele>2014</ele>
        <time>2021-04-08T07:31:27Z</time>
      </trkpt>
      <trkpt lat="44.46332" lon="6.5548">
        <ele>2014</ele>
        <time>2021-04-08T07:31:28Z</time>
      </trkpt>
      <trkpt lat="44.46332" lon="6.55481">
        <ele>2016</ele>
        <time>2021-04-08T07:31:29Z</time>
      </trkpt>
      <trkpt lat="44.46332" lon="6.55482">
        <ele>2016</ele>
        <time>2021-04-08T07:31:30Z</time>
      </trkpt>
      <trkpt lat="44.46332" lon="6.55482">
        <ele>2016</ele>
        <time>2021-04-08T07:31:31Z</time>
      </trkpt>
      <trkpt lat="44.46331" lon="6.55483">
        <ele>2016</ele>
        <time>2021-04-08T07:31:32Z</time>
      </trkpt>
      <trkpt lat="44.4633" lon="6.55484">
        <ele>2016</ele>
        <time>2021-04-08T07:31:33Z</time>
      </trkpt>
      <trkpt lat="44.46329" lon="6.55484">
        <ele>2016</ele>
        <time>2021-04-08T07:31:34Z</time>
      </trkpt>
      <trkpt lat="44.46328" lon="6.55484">
        <ele>2016</ele>
        <time>2021-04-08T07:31:35Z</time>
      </trkpt>
      <trkpt lat="44.46327" lon="6.55485">
        <ele>2016</ele>
        <time>2021-04-08T07:31:36Z</time>
      </trkpt>
      <trkpt lat="44.46327" lon="6.55486">
        <ele>2017</ele>
        <time>2021-04-08T07:31:37Z</time>
      </trkpt>
      <trkpt lat="44.46326" lon="6.55486">
        <ele>2017</ele>
        <time>2021-04-08T07:31:38Z</time>
      </trkpt>
      <trkpt lat="44.46326" lon="6.55487">
        <ele>2017</ele>
        <time>2021-04-08T07:31:39Z</time>
      </trkpt>
      <trkpt lat="44.46325" lon="6.55488">
        <ele>2017</ele>
        <time>2021-04-08T07:31:40Z</time>
      </trkpt>
      <trkpt lat="44.46325" lon="6.55488">
        <ele>2018</ele>
        <time>2021-04-08T07:31:41Z</time>
      </trkpt>
      <trkpt lat="44.46324" lon="6.55489">
        <ele>2018</ele>
        <time>2021-04-08T07:31:42Z</time>
      </trkpt>
      <trkpt lat="44.46324" lon="6.5549">
        <ele>2018</ele>
        <time>2021-04-08T07:31:43Z</time>
      </trkpt>
      <trkpt lat="44.46324" lon="6.55491">
        <ele>2018</ele>
        <time>2021-04-08T07:31:44Z</time>
      </trkpt>
      <trkpt lat="44.46323" lon="6.55491">
        <ele>2019</ele>
        <time>2021-04-08T07:31:45Z</time>
      </trkpt>
      <trkpt lat="44.46322" lon="6.55492">
        <ele>2019</ele>
        <time>2021-04-08T07:31:46Z</time>
      </trkpt>
      <trkpt lat="44.46322" lon="6.55493">
        <ele>2019</ele>
        <time>2021-04-08T07:31:47Z</time>
      </trkpt>
      <trkpt lat="44.46321" lon="6.55493">
        <ele>2020</ele>
        <time>2021-04-08T07:31:48Z</time>
      </trkpt>
      <trkpt lat="44.46321" lon="6.55493">
        <ele>2020</ele>
        <time>2021-04-08T07:31:49Z</time>
      </trkpt>
      <trkpt lat="44.4632" lon="6.55494">
        <ele>2020</ele>
        <time>2021-04-08T07:31:50Z</time>
      </trkpt>
      <trkpt lat="44.4632" lon="6.55494">
        <ele>2020</ele>
        <time>2021-04-08T07:31:51Z</time>
      </trkpt>
      <trkpt lat="44.4632" lon="6.55494">
        <ele>2020</ele>
        <time>2021-04-08T07:31:52Z</time>
      </trkpt>
      <trkpt lat="44.46319" lon="6.55495">
        <ele>2021</ele>
        <time>2021-04-08T07:31:53Z</time>
      </trkpt>
      <trkpt lat="44.46319" lon="6.55495">
        <ele>2021</ele>
        <time>2021-04-08T07:31:54Z</time>
      </trkpt>
      <trkpt lat="44.46318" lon="6.55495">
        <ele>2021</ele>
        <time>2021-04-08T07:31:55Z</time>
      </trkpt>
      <trkpt lat="44.46317" lon="6.55496">
        <ele>2021</ele>
        <time>2021-04-08T07:31:56Z</time>
      </trkpt>
      <trkpt lat="44.46316" lon="6.55496">
        <ele>2022</ele>
        <time>2021-04-08T07:31:57Z</time>
      </trkpt>
      <trkpt lat="44.46316" lon="6.55496">
        <ele>2022</ele>
        <time>2021-04-08T07:31:58Z</time>
      </trkpt>
      <trkpt lat="44.46315" lon="6.55497">
        <ele>2022</ele>
        <time>2021-04-08T07:31:59Z</time>
      </trkpt>
      <trkpt lat="44.46315" lon="6.55497">
        <ele>2022</ele>
        <time>2021-04-08T07:32:00Z</time>
      </trkpt>
      <trkpt lat="44.46314" lon="6.55497">
        <ele>2022</ele>
        <time>2021-04-08T07:32:01Z</time>
      </trkpt>
      <trkpt lat="44.46313" lon="6.55498">
        <ele>2022</ele>
        <time>2021-04-08T07:32:02Z</time>
      </trkpt>
      <trkpt lat="44.46312" lon="6.55498">
        <ele>2022</ele>
        <time>2021-04-08T07:32:03Z</time>
      </trkpt>
      <trkpt lat="44.46311" lon="6.55498">
        <ele>2022</ele>
        <time>2021-04-08T07:32:04Z</time>
      </trkpt>
      <trkpt lat="44.4631" lon="6.55499">
        <ele>2022</ele>
        <time>2021-04-08T07:32:05Z</time>
      </trkpt>
      <trkpt lat="44.46309" lon="6.555">
        <ele>2022</ele>
        <time>2021-04-08T07:32:06Z</time>
      </trkpt>
      <trkpt lat="44.46309" lon="6.555">
        <ele>2022</ele>
        <time>2021-04-08T07:32:07Z</time>
      </trkpt>
      <trkpt lat="44.46308" lon="6.555">
        <ele>2022</ele>
        <time>2021-04-08T07:32:08Z</time>
      </trkpt>
      <trkpt lat="44.46307" lon="6.55501">
        <ele>2021</ele>
        <time>2021-04-08T07:32:09Z</time>
      </trkpt>
      <trkpt lat="44.46306" lon="6.55501">
        <ele>2021</ele>
        <time>2021-04-08T07:32:10Z</time>
      </trkpt>
      <trkpt lat="44.46305" lon="6.55501">
        <ele>2021</ele>
        <time>2021-04-08T07:32:11Z</time>
      </trkpt>
      <trkpt lat="44.46304" lon="6.55502">
        <ele>2021</ele>
        <time>2021-04-08T07:32:12Z</time>
      </trkpt>
      <trkpt lat="44.46304" lon="6.55503">
        <ele>2021</ele>
        <time>2021-04-08T07:32:13Z</time>
      </trkpt>
      <trkpt lat="44.46303" lon="6.55503">
        <ele>2021</ele>
        <time>2021-04-08T07:32:14Z</time>
      </trkpt>
      <trkpt lat="44.46302" lon="6.55504">
        <ele>2021</ele>
        <time>2021-04-08T07:32:15Z</time>
      </trkpt>
      <trkpt lat="44.46302" lon="6.55504">
        <ele>2021</ele>
        <time>2021-04-08T07:32:16Z</time>
      </trkpt>
      <trkpt lat="44.46301" lon="6.55505">
        <ele>2021</ele>
        <time>2021-04-08T07:32:17Z</time>
      </trkpt>
      <trkpt lat="44.46301" lon="6.55505">
        <ele>2021</ele>
        <time>2021-04-08T07:32:18Z</time>
      </trkpt>
      <trkpt lat="44.463" lon="6.55505">
        <ele>2022</ele>
        <time>2021-04-08T07:32:19Z</time>
      </trkpt>
      <trkpt lat="44.463" lon="6.55505">
        <ele>2022</ele>
        <time>2021-04-08T07:32:20Z</time>
      </trkpt>
      <trkpt lat="44.463" lon="6.55505">
        <ele>2022</ele>
        <time>2021-04-08T07:32:21Z</time>
      </trkpt>
      <trkpt lat="44.463" lon="6.55505">
        <ele>2022</ele>
        <time>2021-04-08T07:32:22Z</time>
      </trkpt>
      <trkpt lat="44.463" lon="6.55505">
        <ele>2022</ele>
        <time>2021-04-08T07:32:23Z</time>
      </trkpt>
      <trkpt lat="44.46299" lon="6.55506">
        <ele>2022</ele>
        <time>2021-04-08T07:32:24Z</time>
      </trkpt>
      <trkpt lat="44.46298" lon="6.55507">
        <ele>2023</ele>
        <time>2021-04-08T07:32:25Z</time>
      </trkpt>
      <trkpt lat="44.46298" lon="6.55508">
        <ele>2023</ele>
        <time>2021-04-08T07:32:26Z</time>
      </trkpt>
      <trkpt lat="44.46298" lon="6.55509">
        <ele>2023</ele>
        <time>2021-04-08T07:32:27Z</time>
      </trkpt>
      <trkpt lat="44.46298" lon="6.55509">
        <ele>2024</ele>
        <time>2021-04-08T07:32:28Z</time>
      </trkpt>
      <trkpt lat="44.46297" lon="6.55509">
        <ele>2024</ele>
        <time>2021-04-08T07:32:29Z</time>
      </trkpt>
      <trkpt lat="44.46297" lon="6.5551">
        <ele>2024</ele>
        <time>2021-04-08T07:32:30Z</time>
      </trkpt>
      <trkpt lat="44.46296" lon="6.5551">
        <ele>2025</ele>
        <time>2021-04-08T07:32:31Z</time>
      </trkpt>
      <trkpt lat="44.46296" lon="6.55511">
        <ele>2025</ele>
        <time>2021-04-08T07:32:32Z</time>
      </trkpt>
      <trkpt lat="44.46295" lon="6.55511">
        <ele>2025</ele>
        <time>2021-04-08T07:32:33Z</time>
      </trkpt>
      <trkpt lat="44.46295" lon="6.55511">
        <ele>2025</ele>
        <time>2021-04-08T07:32:34Z</time>
      </trkpt>
      <trkpt lat="44.46295" lon="6.55511">
        <ele>2026</ele>
        <time>2021-04-08T07:32:35Z</time>
      </trkpt>
      <trkpt lat="44.46294" lon="6.55511">
        <ele>2026</ele>
        <time>2021-04-08T07:32:36Z</time>
      </trkpt>
      <trkpt lat="44.46295" lon="6.55512">
        <ele>2026</ele>
        <time>2021-04-08T07:32:37Z</time>
      </trkpt>
      <trkpt lat="44.46295" lon="6.55512">
        <ele>2026</ele>
        <time>2021-04-08T07:32:38Z</time>
      </trkpt>
      <trkpt lat="44.46295" lon="6.55512">
        <ele>2026</ele>
        <time>2021-04-08T07:32:39Z</time>
      </trkpt>
      <trkpt lat="44.46295" lon="6.55512">
        <ele>2026</ele>
        <time>2021-04-08T07:32:40Z</time>
      </trkpt>
      <trkpt lat="44.46295" lon="6.55513">
        <ele>2026</ele>
        <time>2021-04-08T07:32:41Z</time>
      </trkpt>
      <trkpt lat="44.46295" lon="6.55513">
        <ele>2027</ele>
        <time>2021-04-08T07:32:42Z</time>
      </trkpt>
      <trkpt lat="44.46295" lon="6.55513">
        <ele>2027</ele>
        <time>2021-04-08T07:32:43Z</time>
      </trkpt>
      <trkpt lat="44.46294" lon="6.55513">
        <ele>2027</ele>
        <time>2021-04-08T07:32:44Z</time>
      </trkpt>
      <trkpt lat="44.46294" lon="6.55513">
        <ele>2027</ele>
        <time>2021-04-08T07:32:45Z</time>
      </trkpt>
      <trkpt lat="44.46294" lon="6.55513">
        <ele>2028</ele>
        <time>2021-04-08T07:32:46Z</time>
      </trkpt>
      <trkpt lat="44.46294" lon="6.55513">
        <ele>2028</ele>
        <time>2021-04-08T07:32:47Z</time>
      </trkpt>
      <trkpt lat="44.46291" lon="6.55514">
        <ele>2028</ele>
        <time>2021-04-08T07:32:48Z</time>
      </trkpt>
      <trkpt lat="44.4629" lon="6.55515">
        <ele>2028</ele>
        <time>2021-04-08T07:32:49Z</time>
      </trkpt>
      <trkpt lat="44.4629" lon="6.55515">
        <ele>2028</ele>
        <time>2021-04-08T07:32:50Z</time>
      </trkpt>
      <trkpt lat="44.46289" lon="6.55516">
        <ele>2029</ele>
        <time>2021-04-08T07:32:51Z</time>
      </trkpt>
      <trkpt lat="44.46289" lon="6.55517">
        <ele>2029</ele>
        <time>2021-04-08T07:32:52Z</time>
      </trkpt>
      <trkpt lat="44.46288" lon="6.55518">
        <ele>2030</ele>
        <time>2021-04-08T07:32:53Z</time>
      </trkpt>
      <trkpt lat="44.46288" lon="6.55518">
        <ele>2030</ele>
        <time>2021-04-08T07:32:54Z</time>
      </trkpt>
      <trkpt lat="44.46288" lon="6.55519">
        <ele>2031</ele>
        <time>2021-04-08T07:32:55Z</time>
      </trkpt>
      <trkpt lat="44.46287" lon="6.55519">
        <ele>2031</ele>
        <time>2021-04-08T07:32:56Z</time>
      </trkpt>
      <trkpt lat="44.46286" lon="6.55519">
        <ele>2031</ele>
        <time>2021-04-08T07:32:57Z</time>
      </trkpt>
      <trkpt lat="44.46286" lon="6.5552">
        <ele>2031</ele>
        <time>2021-04-08T07:32:58Z</time>
      </trkpt>
      <trkpt lat="44.46285" lon="6.5552">
        <ele>2031</ele>
        <time>2021-04-08T07:32:59Z</time>
      </trkpt>
      <trkpt lat="44.46285" lon="6.5552">
        <ele>2031</ele>
        <time>2021-04-08T07:33:00Z</time>
      </trkpt>
      <trkpt lat="44.46285" lon="6.55521">
        <ele>2031</ele>
        <time>2021-04-08T07:33:01Z</time>
      </trkpt>
      <trkpt lat="44.46284" lon="6.55521">
        <ele>2031</ele>
        <time>2021-04-08T07:33:02Z</time>
      </trkpt>
      <trkpt lat="44.46283" lon="6.55521">
        <ele>2031</ele>
        <time>2021-04-08T07:33:03Z</time>
      </trkpt>
      <trkpt lat="44.46283" lon="6.55522">
        <ele>2031</ele>
        <time>2021-04-08T07:33:04Z</time>
      </trkpt>
      <trkpt lat="44.46282" lon="6.55522">
        <ele>2031</ele>
        <time>2021-04-08T07:33:05Z</time>
      </trkpt>
      <trkpt lat="44.46281" lon="6.55523">
        <ele>2032</ele>
        <time>2021-04-08T07:33:06Z</time>
      </trkpt>
      <trkpt lat="44.46281" lon="6.55524">
        <ele>2032</ele>
        <time>2021-04-08T07:33:07Z</time>
      </trkpt>
      <trkpt lat="44.4628" lon="6.55524">
        <ele>2032</ele>
        <time>2021-04-08T07:33:08Z</time>
      </trkpt>
      <trkpt lat="44.4628" lon="6.55524">
        <ele>2033</ele>
        <time>2021-04-08T07:33:09Z</time>
      </trkpt>
      <trkpt lat="44.4628" lon="6.55525">
        <ele>2033</ele>
        <time>2021-04-08T07:33:10Z</time>
      </trkpt>
      <trkpt lat="44.4628" lon="6.55525">
        <ele>2033</ele>
        <time>2021-04-08T07:33:11Z</time>
      </trkpt>
      <trkpt lat="44.4628" lon="6.55525">
        <ele>2033</ele>
        <time>2021-04-08T07:33:12Z</time>
      </trkpt>
      <trkpt lat="44.4628" lon="6.55525">
        <ele>2033</ele>
        <time>2021-04-08T07:33:13Z</time>
      </trkpt>
      <trkpt lat="44.4628" lon="6.55524">
        <ele>2033</ele>
        <time>2021-04-08T07:33:14Z</time>
      </trkpt>
      <trkpt lat="44.4628" lon="6.55524">
        <ele>2033</ele>
        <time>2021-04-08T07:33:15Z</time>
      </trkpt>
      <trkpt lat="44.46279" lon="6.55523">
        <ele>2033</ele>
        <time>2021-04-08T07:33:16Z</time>
      </trkpt>
      <trkpt lat="44.46279" lon="6.55523">
        <ele>2034</ele>
        <time>2021-04-08T07:33:17Z</time>
      </trkpt>
      <trkpt lat="44.46278" lon="6.55523">
        <ele>2034</ele>
        <time>2021-04-08T07:33:18Z</time>
      </trkpt>
      <trkpt lat="44.46278" lon="6.55524">
        <ele>2034</ele>
        <time>2021-04-08T07:33:19Z</time>
      </trkpt>
      <trkpt lat="44.46278" lon="6.55524">
        <ele>2034</ele>
        <time>2021-04-08T07:33:20Z</time>
      </trkpt>
      <trkpt lat="44.46278" lon="6.55525">
        <ele>2035</ele>
        <time>2021-04-08T07:33:21Z</time>
      </trkpt>
      <trkpt lat="44.46278" lon="6.55525">
        <ele>2035</ele>
        <time>2021-04-08T07:33:22Z</time>
      </trkpt>
      <trkpt lat="44.46278" lon="6.55525">
        <ele>2035</ele>
        <time>2021-04-08T07:33:23Z</time>
      </trkpt>
      <trkpt lat="44.46278" lon="6.55525">
        <ele>2035</ele>
        <time>2021-04-08T07:33:24Z</time>
      </trkpt>
      <trkpt lat="44.46278" lon="6.55525">
        <ele>2035</ele>
        <time>2021-04-08T07:33:25Z</time>
      </trkpt>
      <trkpt lat="44.46278" lon="6.55525">
        <ele>2035</ele>
        <time>2021-04-08T07:33:26Z</time>
      </trkpt>
      <trkpt lat="44.46278" lon="6.55525">
        <ele>2035</ele>
        <time>2021-04-08T07:33:27Z</time>
      </trkpt>
      <trkpt lat="44.46278" lon="6.55525">
        <ele>2035</ele>
        <time>2021-04-08T07:33:28Z</time>
      </trkpt>
      <trkpt lat="44.46278" lon="6.55525">
        <ele>2035</ele>
        <time>2021-04-08T07:33:29Z</time>
      </trkpt>
      <trkpt lat="44.46278" lon="6.55525">
        <ele>2035</ele>
        <time>2021-04-08T07:33:30Z</time>
      </trkpt>
      <trkpt lat="44.46278" lon="6.55525">
        <ele>2035</ele>
        <time>2021-04-08T07:33:31Z</time>
      </trkpt>
      <trkpt lat="44.46278" lon="6.55525">
        <ele>2035</ele>
        <time>2021-04-08T07:33:32Z</time>
      </trkpt>
      <trkpt lat="44.46278" lon="6.55525">
        <ele>2035</ele>
        <time>2021-04-08T07:33:33Z</time>
      </trkpt>
      <trkpt lat="44.46278" lon="6.55525">
        <ele>2035</ele>
        <time>2021-04-08T07:33:34Z</time>
      </trkpt>
      <trkpt lat="44.46278" lon="6.55525">
        <ele>2035</ele>
        <time>2021-04-08T07:33:35Z</time>
      </trkpt>
      <trkpt lat="44.46278" lon="6.55525">
        <ele>2035</ele>
        <time>2021-04-08T07:33:36Z</time>
      </trkpt>
      <trkpt lat="44.46278" lon="6.55525">
        <ele>2035</ele>
        <time>2021-04-08T07:33:37Z</time>
      </trkpt>
      <trkpt lat="44.46278" lon="6.55525">
        <ele>2035</ele>
        <time>2021-04-08T07:33:38Z</time>
      </trkpt>
      <trkpt lat="44.46278" lon="6.55525">
        <ele>2035</ele>
        <time>2021-04-08T07:33:39Z</time>
      </trkpt>
      <trkpt lat="44.46278" lon="6.55525">
        <ele>2035</ele>
        <time>2021-04-08T07:33:40Z</time>
      </trkpt>
      <trkpt lat="44.46278" lon="6.55525">
        <ele>2035</ele>
        <time>2021-04-08T07:33:41Z</time>
      </trkpt>
      <trkpt lat="44.46278" lon="6.55525">
        <ele>2035</ele>
        <time>2021-04-08T07:33:42Z</time>
      </trkpt>
      <trkpt lat="44.46278" lon="6.55525">
        <ele>2035</ele>
        <time>2021-04-08T07:33:43Z</time>
      </trkpt>
      <trkpt lat="44.46278" lon="6.55525">
        <ele>2035</ele>
        <time>2021-04-08T07:33:44Z</time>
      </trkpt>
      <trkpt lat="44.46278" lon="6.55525">
        <ele>2035</ele>
        <time>2021-04-08T07:33:45Z</time>
      </trkpt>
      <trkpt lat="44.46278" lon="6.55525">
        <ele>2035</ele>
        <time>2021-04-08T07:33:46Z</time>
      </trkpt>
      <trkpt lat="44.46278" lon="6.55525">
        <ele>2035</ele>
        <time>2021-04-08T07:33:47Z</time>
      </trkpt>
      <trkpt lat="44.46278" lon="6.55525">
        <ele>2035</ele>
        <time>2021-04-08T07:33:48Z</time>
      </trkpt>
      <trkpt lat="44.46278" lon="6.55525">
        <ele>2035</ele>
        <time>2021-04-08T07:33:49Z</time>
      </trkpt>
      <trkpt lat="44.46278" lon="6.55525">
        <ele>2035</ele>
        <time>2021-04-08T07:33:50Z</time>
      </trkpt>
      <trkpt lat="44.46278" lon="6.55525">
        <ele>2035</ele>
        <time>2021-04-08T07:33:51Z</time>
      </trkpt>
      <trkpt lat="44.46278" lon="6.55525">
        <ele>2035</ele>
        <time>2021-04-08T07:33:52Z</time>
      </trkpt>
      <trkpt lat="44.46278" lon="6.55525">
        <ele>2035</ele>
        <time>2021-04-08T07:33:53Z</time>
      </trkpt>
      <trkpt lat="44.46278" lon="6.55525">
        <ele>2035</ele>
        <time>2021-04-08T07:33:54Z</time>
      </trkpt>
      <trkpt lat="44.46278" lon="6.55525">
        <ele>2035</ele>
        <time>2021-04-08T07:33:55Z</time>
      </trkpt>
      <trkpt lat="44.46278" lon="6.55525">
        <ele>2035</ele>
        <time>2021-04-08T07:33:56Z</time>
      </trkpt>
      <trkpt lat="44.46278" lon="6.55525">
        <ele>2035</ele>
        <time>2021-04-08T07:33:57Z</time>
      </trkpt>
      <trkpt lat="44.46278" lon="6.55525">
        <ele>2035</ele>
        <time>2021-04-08T07:33:58Z</time>
      </trkpt>
      <trkpt lat="44.46278" lon="6.55525">
        <ele>2035</ele>
        <time>2021-04-08T07:33:59Z</time>
      </trkpt>
      <trkpt lat="44.46278" lon="6.55525">
        <ele>2035</ele>
        <time>2021-04-08T07:34:00Z</time>
      </trkpt>
      <trkpt lat="44.46278" lon="6.55525">
        <ele>2035</ele>
        <time>2021-04-08T07:34:01Z</time>
      </trkpt>
      <trkpt lat="44.46278" lon="6.55525">
        <ele>2035</ele>
        <time>2021-04-08T07:34:02Z</time>
      </trkpt>
      <trkpt lat="44.46278" lon="6.55525">
        <ele>2035</ele>
        <time>2021-04-08T07:34:03Z</time>
      </trkpt>
      <trkpt lat="44.46278" lon="6.55525">
        <ele>2035</ele>
        <time>2021-04-08T07:34:04Z</time>
      </trkpt>
      <trkpt lat="44.46278" lon="6.55525">
        <ele>2035</ele>
        <time>2021-04-08T07:34:05Z</time>
      </trkpt>
      <trkpt lat="44.46278" lon="6.55525">
        <ele>2035</ele>
        <time>2021-04-08T07:34:06Z</time>
      </trkpt>
      <trkpt lat="44.46278" lon="6.55525">
        <ele>2035</ele>
        <time>2021-04-08T07:34:07Z</time>
      </trkpt>
      <trkpt lat="44.46278" lon="6.55525">
        <ele>2035</ele>
        <time>2021-04-08T07:34:08Z</time>
      </trkpt>
      <trkpt lat="44.46278" lon="6.55525">
        <ele>2035</ele>
        <time>2021-04-08T07:34:09Z</time>
      </trkpt>
      <trkpt lat="44.46278" lon="6.55525">
        <ele>2035</ele>
        <time>2021-04-08T07:34:10Z</time>
      </trkpt>
      <trkpt lat="44.46278" lon="6.55525">
        <ele>2035</ele>
        <time>2021-04-08T07:34:11Z</time>
      </trkpt>
      <trkpt lat="44.46278" lon="6.55525">
        <ele>2035</ele>
        <time>2021-04-08T07:34:12Z</time>
      </trkpt>
      <trkpt lat="44.46278" lon="6.55525">
        <ele>2035</ele>
        <time>2021-04-08T07:34:13Z</time>
      </trkpt>
      <trkpt lat="44.46278" lon="6.55525">
        <ele>2035</ele>
        <time>2021-04-08T07:34:14Z</time>
      </trkpt>
      <trkpt lat="44.46278" lon="6.55525">
        <ele>2035</ele>
        <time>2021-04-08T07:34:15Z</time>
      </trkpt>
      <trkpt lat="44.46278" lon="6.55525">
        <ele>2035</ele>
        <time>2021-04-08T07:34:16Z</time>
      </trkpt>
      <trkpt lat="44.46278" lon="6.55525">
        <ele>2035</ele>
        <time>2021-04-08T07:34:17Z</time>
      </trkpt>
      <trkpt lat="44.46278" lon="6.55525">
        <ele>2035</ele>
        <time>2021-04-08T07:34:18Z</time>
      </trkpt>
      <trkpt lat="44.46278" lon="6.55525">
        <ele>2035</ele>
        <time>2021-04-08T07:34:19Z</time>
      </trkpt>
      <trkpt lat="44.46278" lon="6.55525">
        <ele>2035</ele>
        <time>2021-04-08T07:34:20Z</time>
      </trkpt>
      <trkpt lat="44.46278" lon="6.55525">
        <ele>2035</ele>
        <time>2021-04-08T07:34:21Z</time>
      </trkpt>
      <trkpt lat="44.46278" lon="6.55525">
        <ele>2035</ele>
        <time>2021-04-08T07:34:22Z</time>
      </trkpt>
      <trkpt lat="44.46278" lon="6.55525">
        <ele>2035</ele>
        <time>2021-04-08T07:34:23Z</time>
      </trkpt>
      <trkpt lat="44.46278" lon="6.55525">
        <ele>2035</ele>
        <time>2021-04-08T07:34:24Z</time>
      </trkpt>
      <trkpt lat="44.46278" lon="6.55525">
        <ele>2035</ele>
        <time>2021-04-08T07:34:25Z</time>
      </trkpt>
      <trkpt lat="44.46278" lon="6.55525">
        <ele>2035</ele>
        <time>2021-04-08T07:34:26Z</time>
      </trkpt>
      <trkpt lat="44.46278" lon="6.55525">
        <ele>2035</ele>
        <time>2021-04-08T07:34:27Z</time>
      </trkpt>
      <trkpt lat="44.46278" lon="6.55525">
        <ele>2035</ele>
        <time>2021-04-08T07:34:28Z</time>
      </trkpt>
      <trkpt lat="44.46278" lon="6.55525">
        <ele>2035</ele>
        <time>2021-04-08T07:34:29Z</time>
      </trkpt>
      <trkpt lat="44.46278" lon="6.55525">
        <ele>2035</ele>
        <time>2021-04-08T07:34:30Z</time>
      </trkpt>
      <trkpt lat="44.46278" lon="6.55525">
        <ele>2035</ele>
        <time>2021-04-08T07:34:31Z</time>
      </trkpt>
      <trkpt lat="44.46278" lon="6.55525">
        <ele>2035</ele>
        <time>2021-04-08T07:34:32Z</time>
      </trkpt>
      <trkpt lat="44.46278" lon="6.55525">
        <ele>2035</ele>
        <time>2021-04-08T07:34:33Z</time>
      </trkpt>
      <trkpt lat="44.46278" lon="6.55525">
        <ele>2035</ele>
        <time>2021-04-08T07:34:34Z</time>
      </trkpt>
      <trkpt lat="44.46278" lon="6.55525">
        <ele>2035</ele>
        <time>2021-04-08T07:34:35Z</time>
      </trkpt>
      <trkpt lat="44.46278" lon="6.55525">
        <ele>2035</ele>
        <time>2021-04-08T07:34:36Z</time>
      </trkpt>
      <trkpt lat="44.46278" lon="6.55525">
        <ele>2035</ele>
        <time>2021-04-08T07:34:37Z</time>
      </trkpt>
      <trkpt lat="44.4628" lon="6.55523">
        <ele>2037</ele>
        <time>2021-04-08T07:34:38Z</time>
      </trkpt>
      <trkpt lat="44.4628" lon="6.55522">
        <ele>2037</ele>
        <time>2021-04-08T07:34:39Z</time>
      </trkpt>
      <trkpt lat="44.4628" lon="6.55523">
        <ele>2038</ele>
        <time>2021-04-08T07:34:40Z</time>
      </trkpt>
      <trkpt lat="44.4628" lon="6.55523">
        <ele>2038</ele>
        <time>2021-04-08T07:34:41Z</time>
      </trkpt>
      <trkpt lat="44.4628" lon="6.55523">
        <ele>2038</ele>
        <time>2021-04-08T07:34:42Z</time>
      </trkpt>
      <trkpt lat="44.4628" lon="6.55523">
        <ele>2038</ele>
        <time>2021-04-08T07:34:43Z</time>
      </trkpt>
      <trkpt lat="44.4628" lon="6.55523">
        <ele>2038</ele>
        <time>2021-04-08T07:34:44Z</time>
      </trkpt>
      <trkpt lat="44.4628" lon="6.55523">
        <ele>2038</ele>
        <time>2021-04-08T07:34:45Z</time>
      </trkpt>
      <trkpt lat="44.4628" lon="6.55523">
        <ele>2038</ele>
        <time>2021-04-08T07:34:46Z</time>
      </trkpt>
      <trkpt lat="44.4628" lon="6.55523">
        <ele>2038</ele>
        <time>2021-04-08T07:34:47Z</time>
      </trkpt>
      <trkpt lat="44.4628" lon="6.55523">
        <ele>2038</ele>
        <time>2021-04-08T07:34:48Z</time>
      </trkpt>
      <trkpt lat="44.4628" lon="6.55523">
        <ele>2038</ele>
        <time>2021-04-08T07:34:49Z</time>
      </trkpt>
      <trkpt lat="44.4628" lon="6.55523">
        <ele>2038</ele>
        <time>2021-04-08T07:34:50Z</time>
      </trkpt>
      <trkpt lat="44.4628" lon="6.55523">
        <ele>2038</ele>
        <time>2021-04-08T07:34:51Z</time>
      </trkpt>
      <trkpt lat="44.4628" lon="6.55523">
        <ele>2038</ele>
        <time>2021-04-08T07:34:52Z</time>
      </trkpt>
      <trkpt lat="44.4628" lon="6.55523">
        <ele>2038</ele>
        <time>2021-04-08T07:34:53Z</time>
      </trkpt>
      <trkpt lat="44.4628" lon="6.55523">
        <ele>2038</ele>
        <time>2021-04-08T07:34:54Z</time>
      </trkpt>
      <trkpt lat="44.4628" lon="6.55523">
        <ele>2038</ele>
        <time>2021-04-08T07:34:55Z</time>
      </trkpt>
      <trkpt lat="44.4628" lon="6.55523">
        <ele>2038</ele>
        <time>2021-04-08T07:34:56Z</time>
      </trkpt>
      <trkpt lat="44.4628" lon="6.55523">
        <ele>2038</ele>
        <time>2021-04-08T07:34:57Z</time>
      </trkpt>
      <trkpt lat="44.4628" lon="6.55523">
        <ele>2038</ele>
        <time>2021-04-08T07:34:58Z</time>
      </trkpt>
      <trkpt lat="44.4628" lon="6.55523">
        <ele>2038</ele>
        <time>2021-04-08T07:34:59Z</time>
      </trkpt>
      <trkpt lat="44.4628" lon="6.55523">
        <ele>2038</ele>
        <time>2021-04-08T07:35:00Z</time>
      </trkpt>
      <trkpt lat="44.4628" lon="6.55523">
        <ele>2038</ele>
        <time>2021-04-08T07:35:01Z</time>
      </trkpt>
      <trkpt lat="44.4628" lon="6.55523">
        <ele>2038</ele>
        <time>2021-04-08T07:35:02Z</time>
      </trkpt>
      <trkpt lat="44.4628" lon="6.55523">
        <ele>2038</ele>
        <time>2021-04-08T07:35:03Z</time>
      </trkpt>
      <trkpt lat="44.4628" lon="6.55523">
        <ele>2038</ele>
        <time>2021-04-08T07:35:04Z</time>
      </trkpt>
      <trkpt lat="44.4628" lon="6.55523">
        <ele>2038</ele>
        <time>2021-04-08T07:35:05Z</time>
      </trkpt>
      <trkpt lat="44.4628" lon="6.55523">
        <ele>2038</ele>
        <time>2021-04-08T07:35:06Z</time>
      </trkpt>
      <trkpt lat="44.4628" lon="6.55523">
        <ele>2038</ele>
        <time>2021-04-08T07:35:07Z</time>
      </trkpt>
      <trkpt lat="44.4628" lon="6.55523">
        <ele>2038</ele>
        <time>2021-04-08T07:35:08Z</time>
      </trkpt>
      <trkpt lat="44.4628" lon="6.55523">
        <ele>2038</ele>
        <time>2021-04-08T07:35:09Z</time>
      </trkpt>
      <trkpt lat="44.4628" lon="6.55523">
        <ele>2038</ele>
        <time>2021-04-08T07:35:10Z</time>
      </trkpt>
      <trkpt lat="44.4628" lon="6.55523">
        <ele>2038</ele>
        <time>2021-04-08T07:35:11Z</time>
      </trkpt>
      <trkpt lat="44.4628" lon="6.55523">
        <ele>2038</ele>
        <time>2021-04-08T07:35:12Z</time>
      </trkpt>
      <trkpt lat="44.4628" lon="6.55523">
        <ele>2038</ele>
        <time>2021-04-08T07:35:13Z</time>
      </trkpt>
      <trkpt lat="44.4628" lon="6.55523">
        <ele>2038</ele>
        <time>2021-04-08T07:35:14Z</time>
      </trkpt>
      <trkpt lat="44.4628" lon="6.55523">
        <ele>2038</ele>
        <time>2021-04-08T07:35:15Z</time>
      </trkpt>
      <trkpt lat="44.4628" lon="6.55523">
        <ele>2038</ele>
        <time>2021-04-08T07:35:16Z</time>
      </trkpt>
      <trkpt lat="44.4628" lon="6.55523">
        <ele>2038</ele>
        <time>2021-04-08T07:35:17Z</time>
      </trkpt>
      <trkpt lat="44.4628" lon="6.55523">
        <ele>2038</ele>
        <time>2021-04-08T07:35:18Z</time>
      </trkpt>
      <trkpt lat="44.4628" lon="6.55523">
        <ele>2038</ele>
        <time>2021-04-08T07:35:19Z</time>
      </trkpt>
      <trkpt lat="44.4628" lon="6.55523">
        <ele>2038</ele>
        <time>2021-04-08T07:35:20Z</time>
      </trkpt>
      <trkpt lat="44.4628" lon="6.55523">
        <ele>2038</ele>
        <time>2021-04-08T07:35:21Z</time>
      </trkpt>
      <trkpt lat="44.4628" lon="6.55523">
        <ele>2038</ele>
        <time>2021-04-08T07:35:22Z</time>
      </trkpt>
      <trkpt lat="44.4628" lon="6.55523">
        <ele>2038</ele>
        <time>2021-04-08T07:35:23Z</time>
      </trkpt>
      <trkpt lat="44.4628" lon="6.55523">
        <ele>2038</ele>
        <time>2021-04-08T07:35:24Z</time>
      </trkpt>
      <trkpt lat="44.4628" lon="6.55523">
        <ele>2038</ele>
        <time>2021-04-08T07:35:25Z</time>
      </trkpt>
      <trkpt lat="44.4628" lon="6.55523">
        <ele>2038</ele>
        <time>2021-04-08T07:35:26Z</time>
      </trkpt>
      <trkpt lat="44.4628" lon="6.55523">
        <ele>2038</ele>
        <time>2021-04-08T07:35:27Z</time>
      </trkpt>
      <trkpt lat="44.4628" lon="6.55523">
        <ele>2038</ele>
        <time>2021-04-08T07:35:28Z</time>
      </trkpt>
      <trkpt lat="44.4628" lon="6.55523">
        <ele>2038</ele>
        <time>2021-04-08T07:35:29Z</time>
      </trkpt>
      <trkpt lat="44.4628" lon="6.55523">
        <ele>2038</ele>
        <time>2021-04-08T07:35:30Z</time>
      </trkpt>
      <trkpt lat="44.4628" lon="6.55523">
        <ele>2038</ele>
        <time>2021-04-08T07:35:31Z</time>
      </trkpt>
      <trkpt lat="44.4628" lon="6.55523">
        <ele>2038</ele>
        <time>2021-04-08T07:35:32Z</time>
      </trkpt>
      <trkpt lat="44.4628" lon="6.55523">
        <ele>2038</ele>
        <time>2021-04-08T07:35:33Z</time>
      </trkpt>
      <trkpt lat="44.4628" lon="6.55523">
        <ele>2038</ele>
        <time>2021-04-08T07:35:34Z</time>
      </trkpt>
      <trkpt lat="44.4628" lon="6.55523">
        <ele>2038</ele>
        <time>2021-04-08T07:35:35Z</time>
      </trkpt>
      <trkpt lat="44.4628" lon="6.55523">
        <ele>2038</ele>
        <time>2021-04-08T07:35:36Z</time>
      </trkpt>
      <trkpt lat="44.4628" lon="6.55523">
        <ele>2038</ele>
        <time>2021-04-08T07:35:37Z</time>
      </trkpt>
      <trkpt lat="44.4628" lon="6.55523">
        <ele>2038</ele>
        <time>2021-04-08T07:35:38Z</time>
      </trkpt>
      <trkpt lat="44.4628" lon="6.55523">
        <ele>2038</ele>
        <time>2021-04-08T07:35:39Z</time>
      </trkpt>
      <trkpt lat="44.4628" lon="6.55523">
        <ele>2038</ele>
        <time>2021-04-08T07:35:40Z</time>
      </trkpt>
      <trkpt lat="44.4628" lon="6.55523">
        <ele>2038</ele>
        <time>2021-04-08T07:35:41Z</time>
      </trkpt>
      <trkpt lat="44.4628" lon="6.55523">
        <ele>2038</ele>
        <time>2021-04-08T07:35:42Z</time>
      </trkpt>
      <trkpt lat="44.4628" lon="6.55523">
        <ele>2038</ele>
        <time>2021-04-08T07:35:43Z</time>
      </trkpt>
      <trkpt lat="44.4628" lon="6.55523">
        <ele>2038</ele>
        <time>2021-04-08T07:35:44Z</time>
      </trkpt>
      <trkpt lat="44.4628" lon="6.55523">
        <ele>2038</ele>
        <time>2021-04-08T07:35:45Z</time>
      </trkpt>
      <trkpt lat="44.4628" lon="6.55523">
        <ele>2038</ele>
        <time>2021-04-08T07:35:46Z</time>
      </trkpt>
      <trkpt lat="44.4628" lon="6.55523">
        <ele>2038</ele>
        <time>2021-04-08T07:35:47Z</time>
      </trkpt>
      <trkpt lat="44.4628" lon="6.55523">
        <ele>2038</ele>
        <time>2021-04-08T07:35:48Z</time>
      </trkpt>
      <trkpt lat="44.4628" lon="6.55523">
        <ele>2038</ele>
        <time>2021-04-08T07:35:49Z</time>
      </trkpt>
      <trkpt lat="44.4628" lon="6.55523">
        <ele>2038</ele>
        <time>2021-04-08T07:35:50Z</time>
      </trkpt>
      <trkpt lat="44.4628" lon="6.55523">
        <ele>2038</ele>
        <time>2021-04-08T07:35:51Z</time>
      </trkpt>
      <trkpt lat="44.4628" lon="6.55523">
        <ele>2038</ele>
        <time>2021-04-08T07:35:52Z</time>
      </trkpt>
      <trkpt lat="44.4628" lon="6.55523">
        <ele>2038</ele>
        <time>2021-04-08T07:35:53Z</time>
      </trkpt>
      <trkpt lat="44.4628" lon="6.55523">
        <ele>2038</ele>
        <time>2021-04-08T07:35:54Z</time>
      </trkpt>
      <trkpt lat="44.4628" lon="6.55523">
        <ele>2038</ele>
        <time>2021-04-08T07:35:55Z</time>
      </trkpt>
      <trkpt lat="44.4628" lon="6.55523">
        <ele>2038</ele>
        <time>2021-04-08T07:35:56Z</time>
      </trkpt>
      <trkpt lat="44.4628" lon="6.55523">
        <ele>2038</ele>
        <time>2021-04-08T07:35:57Z</time>
      </trkpt>
      <trkpt lat="44.4628" lon="6.55523">
        <ele>2038</ele>
        <time>2021-04-08T07:35:58Z</time>
      </trkpt>
      <trkpt lat="44.4628" lon="6.55523">
        <ele>2038</ele>
        <time>2021-04-08T07:35:59Z</time>
      </trkpt>
      <trkpt lat="44.4628" lon="6.55523">
        <ele>2038</ele>
        <time>2021-04-08T07:36:00Z</time>
      </trkpt>
      <trkpt lat="44.4628" lon="6.55523">
        <ele>2038</ele>
        <time>2021-04-08T07:36:01Z</time>
      </trkpt>
      <trkpt lat="44.4628" lon="6.55523">
        <ele>2038</ele>
        <time>2021-04-08T07:36:02Z</time>
      </trkpt>
      <trkpt lat="44.4628" lon="6.55523">
        <ele>2038</ele>
        <time>2021-04-08T07:36:03Z</time>
      </trkpt>
      <trkpt lat="44.4628" lon="6.55523">
        <ele>2038</ele>
        <time>2021-04-08T07:36:04Z</time>
      </trkpt>
      <trkpt lat="44.4628" lon="6.55523">
        <ele>2038</ele>
        <time>2021-04-08T07:36:05Z</time>
      </trkpt>
      <trkpt lat="44.4628" lon="6.55523">
        <ele>2038</ele>
        <time>2021-04-08T07:36:06Z</time>
      </trkpt>
      <trkpt lat="44.4628" lon="6.55523">
        <ele>2038</ele>
        <time>2021-04-08T07:36:07Z</time>
      </trkpt>
      <trkpt lat="44.4628" lon="6.55523">
        <ele>2038</ele>
        <time>2021-04-08T07:36:08Z</time>
      </trkpt>
      <trkpt lat="44.4628" lon="6.55523">
        <ele>2038</ele>
        <time>2021-04-08T07:36:09Z</time>
      </trkpt>
      <trkpt lat="44.4628" lon="6.55523">
        <ele>2038</ele>
        <time>2021-04-08T07:36:10Z</time>
      </trkpt>
      <trkpt lat="44.4628" lon="6.55523">
        <ele>2038</ele>
        <time>2021-04-08T07:36:11Z</time>
      </trkpt>
      <trkpt lat="44.4628" lon="6.55523">
        <ele>2038</ele>
        <time>2021-04-08T07:36:12Z</time>
      </trkpt>
      <trkpt lat="44.4628" lon="6.55523">
        <ele>2038</ele>
        <time>2021-04-08T07:36:13Z</time>
      </trkpt>
      <trkpt lat="44.4628" lon="6.55523">
        <ele>2038</ele>
        <time>2021-04-08T07:36:14Z</time>
      </trkpt>
      <trkpt lat="44.4628" lon="6.55523">
        <ele>2038</ele>
        <time>2021-04-08T07:36:15Z</time>
      </trkpt>
      <trkpt lat="44.4628" lon="6.55523">
        <ele>2038</ele>
        <time>2021-04-08T07:36:16Z</time>
      </trkpt>
      <trkpt lat="44.4628" lon="6.55523">
        <ele>2038</ele>
        <time>2021-04-08T07:36:17Z</time>
      </trkpt>
      <trkpt lat="44.4628" lon="6.55523">
        <ele>2038</ele>
        <time>2021-04-08T07:36:18Z</time>
      </trkpt>
      <trkpt lat="44.4628" lon="6.55523">
        <ele>2038</ele>
        <time>2021-04-08T07:36:19Z</time>
      </trkpt>
      <trkpt lat="44.4628" lon="6.55523">
        <ele>2038</ele>
        <time>2021-04-08T07:36:20Z</time>
      </trkpt>
      <trkpt lat="44.4628" lon="6.55523">
        <ele>2038</ele>
        <time>2021-04-08T07:36:21Z</time>
      </trkpt>
      <trkpt lat="44.4628" lon="6.55523">
        <ele>2038</ele>
        <time>2021-04-08T07:36:22Z</time>
      </trkpt>
      <trkpt lat="44.4628" lon="6.55523">
        <ele>2038</ele>
        <time>2021-04-08T07:36:23Z</time>
      </trkpt>
      <trkpt lat="44.46279" lon="6.55522">
        <ele>2038</ele>
        <time>2021-04-08T07:36:24Z</time>
      </trkpt>
      <trkpt lat="44.46279" lon="6.55522">
        <ele>2038</ele>
        <time>2021-04-08T07:36:25Z</time>
      </trkpt>
      <trkpt lat="44.46278" lon="6.55522">
        <ele>2038</ele>
        <time>2021-04-08T07:36:26Z</time>
      </trkpt>
      <trkpt lat="44.46278" lon="6.55522">
        <ele>2038</ele>
        <time>2021-04-08T07:36:27Z</time>
      </trkpt>
      <trkpt lat="44.46278" lon="6.55522">
        <ele>2038</ele>
        <time>2021-04-08T07:36:28Z</time>
      </trkpt>
      <trkpt lat="44.46278" lon="6.55522">
        <ele>2038</ele>
        <time>2021-04-08T07:36:29Z</time>
      </trkpt>
      <trkpt lat="44.46278" lon="6.55522">
        <ele>2038</ele>
        <time>2021-04-08T07:36:30Z</time>
      </trkpt>
      <trkpt lat="44.46278" lon="6.55522">
        <ele>2038</ele>
        <time>2021-04-08T07:36:31Z</time>
      </trkpt>
      <trkpt lat="44.46278" lon="6.55522">
        <ele>2038</ele>
        <time>2021-04-08T07:36:32Z</time>
      </trkpt>
      <trkpt lat="44.46278" lon="6.55522">
        <ele>2038</ele>
        <time>2021-04-08T07:36:33Z</time>
      </trkpt>
      <trkpt lat="44.46278" lon="6.55522">
        <ele>2038</ele>
        <time>2021-04-08T07:36:34Z</time>
      </trkpt>
      <trkpt lat="44.46278" lon="6.55522">
        <ele>2038</ele>
        <time>2021-04-08T07:36:35Z</time>
      </trkpt>
      <trkpt lat="44.46278" lon="6.55522">
        <ele>2038</ele>
        <time>2021-04-08T07:36:36Z</time>
      </trkpt>
      <trkpt lat="44.46278" lon="6.55522">
        <ele>2038</ele>
        <time>2021-04-08T07:36:37Z</time>
      </trkpt>
      <trkpt lat="44.46278" lon="6.55522">
        <ele>2038</ele>
        <time>2021-04-08T07:36:38Z</time>
      </trkpt>
      <trkpt lat="44.46278" lon="6.55522">
        <ele>2038</ele>
        <time>2021-04-08T07:36:39Z</time>
      </trkpt>
      <trkpt lat="44.46278" lon="6.55522">
        <ele>2038</ele>
        <time>2021-04-08T07:36:40Z</time>
      </trkpt>
      <trkpt lat="44.46278" lon="6.55522">
        <ele>2038</ele>
        <time>2021-04-08T07:36:41Z</time>
      </trkpt>
      <trkpt lat="44.46278" lon="6.55522">
        <ele>2038</ele>
        <time>2021-04-08T07:36:42Z</time>
      </trkpt>
      <trkpt lat="44.46278" lon="6.55522">
        <ele>2038</ele>
        <time>2021-04-08T07:36:43Z</time>
      </trkpt>
      <trkpt lat="44.46278" lon="6.55522">
        <ele>2038</ele>
        <time>2021-04-08T07:36:44Z</time>
      </trkpt>
      <trkpt lat="44.46277" lon="6.5552">
        <ele>2038</ele>
        <time>2021-04-08T07:36:45Z</time>
      </trkpt>
      <trkpt lat="44.46276" lon="6.5552">
        <ele>2038</ele>
        <time>2021-04-08T07:36:46Z</time>
      </trkpt>
      <trkpt lat="44.46276" lon="6.55519">
        <ele>2037</ele>
        <time>2021-04-08T07:36:47Z</time>
      </trkpt>
      <trkpt lat="44.46275" lon="6.55519">
        <ele>2037</ele>
        <time>2021-04-08T07:36:48Z</time>
      </trkpt>
      <trkpt lat="44.46274" lon="6.55517">
        <ele>2037</ele>
        <time>2021-04-08T07:36:49Z</time>
      </trkpt>
      <trkpt lat="44.46274" lon="6.55516">
        <ele>2037</ele>
        <time>2021-04-08T07:36:50Z</time>
      </trkpt>
      <trkpt lat="44.46273" lon="6.55515">
        <ele>2037</ele>
        <time>2021-04-08T07:36:51Z</time>
      </trkpt>
      <trkpt lat="44.46273" lon="6.55513">
        <ele>2037</ele>
        <time>2021-04-08T07:36:52Z</time>
      </trkpt>
      <trkpt lat="44.46272" lon="6.55511">
        <ele>2037</ele>
        <time>2021-04-08T07:36:53Z</time>
      </trkpt>
      <trkpt lat="44.46271" lon="6.5551">
        <ele>2037</ele>
        <time>2021-04-08T07:36:54Z</time>
      </trkpt>
      <trkpt lat="44.46271" lon="6.55509">
        <ele>2037</ele>
        <time>2021-04-08T07:36:55Z</time>
      </trkpt>
      <trkpt lat="44.46271" lon="6.55508">
        <ele>2037</ele>
        <time>2021-04-08T07:36:56Z</time>
      </trkpt>
      <trkpt lat="44.4627" lon="6.55508">
        <ele>2037</ele>
        <time>2021-04-08T07:36:57Z</time>
      </trkpt>
      <trkpt lat="44.46269" lon="6.55507">
        <ele>2037</ele>
        <time>2021-04-08T07:36:58Z</time>
      </trkpt>
      <trkpt lat="44.46268" lon="6.55506">
        <ele>2037</ele>
        <time>2021-04-08T07:36:59Z</time>
      </trkpt>
      <trkpt lat="44.46268" lon="6.55505">
        <ele>2037</ele>
        <time>2021-04-08T07:37:00Z</time>
      </trkpt>
      <trkpt lat="44.46267" lon="6.55504">
        <ele>2036</ele>
        <time>2021-04-08T07:37:01Z</time>
      </trkpt>
      <trkpt lat="44.46266" lon="6.55504">
        <ele>2036</ele>
        <time>2021-04-08T07:37:02Z</time>
      </trkpt>
      <trkpt lat="44.46266" lon="6.55503">
        <ele>2036</ele>
        <time>2021-04-08T07:37:03Z</time>
      </trkpt>
      <trkpt lat="44.46265" lon="6.55502">
        <ele>2036</ele>
        <time>2021-04-08T07:37:04Z</time>
      </trkpt>
      <trkpt lat="44.46264" lon="6.55501">
        <ele>2036</ele>
        <time>2021-04-08T07:37:05Z</time>
      </trkpt>
      <trkpt lat="44.46263" lon="6.555">
        <ele>2036</ele>
        <time>2021-04-08T07:37:06Z</time>
      </trkpt>
      <trkpt lat="44.46262" lon="6.55499">
        <ele>2036</ele>
        <time>2021-04-08T07:37:07Z</time>
      </trkpt>
      <trkpt lat="44.46262" lon="6.55498">
        <ele>2036</ele>
        <time>2021-04-08T07:37:08Z</time>
      </trkpt>
      <trkpt lat="44.46261" lon="6.55497">
        <ele>2036</ele>
        <time>2021-04-08T07:37:09Z</time>
      </trkpt>
      <trkpt lat="44.4626" lon="6.55495">
        <ele>2036</ele>
        <time>2021-04-08T07:37:10Z</time>
      </trkpt>
      <trkpt lat="44.46259" lon="6.55494">
        <ele>2037</ele>
        <time>2021-04-08T07:37:11Z</time>
      </trkpt>
      <trkpt lat="44.46259" lon="6.55494">
        <ele>2037</ele>
        <time>2021-04-08T07:37:12Z</time>
      </trkpt>
      <trkpt lat="44.46258" lon="6.55493">
        <ele>2037</ele>
        <time>2021-04-08T07:37:13Z</time>
      </trkpt>
      <trkpt lat="44.46258" lon="6.55492">
        <ele>2037</ele>
        <time>2021-04-08T07:37:14Z</time>
      </trkpt>
      <trkpt lat="44.46257" lon="6.55492">
        <ele>2037</ele>
        <time>2021-04-08T07:37:15Z</time>
      </trkpt>
      <trkpt lat="44.46256" lon="6.55491">
        <ele>2037</ele>
        <time>2021-04-08T07:37:16Z</time>
      </trkpt>
      <trkpt lat="44.46255" lon="6.5549">
        <ele>2038</ele>
        <time>2021-04-08T07:37:17Z</time>
      </trkpt>
      <trkpt lat="44.46254" lon="6.55489">
        <ele>2038</ele>
        <time>2021-04-08T07:37:18Z</time>
      </trkpt>
      <trkpt lat="44.46253" lon="6.55489">
        <ele>2038</ele>
        <time>2021-04-08T07:37:19Z</time>
      </trkpt>
      <trkpt lat="44.46253" lon="6.55488">
        <ele>2038</ele>
        <time>2021-04-08T07:37:20Z</time>
      </trkpt>
      <trkpt lat="44.46252" lon="6.55487">
        <ele>2038</ele>
        <time>2021-04-08T07:37:21Z</time>
      </trkpt>
      <trkpt lat="44.4625" lon="6.55486">
        <ele>2038</ele>
        <time>2021-04-08T07:37:22Z</time>
      </trkpt>
      <trkpt lat="44.46249" lon="6.55486">
        <ele>2038</ele>
        <time>2021-04-08T07:37:23Z</time>
      </trkpt>
      <trkpt lat="44.46248" lon="6.55485">
        <ele>2038</ele>
        <time>2021-04-08T07:37:24Z</time>
      </trkpt>
      <trkpt lat="44.46248" lon="6.55485">
        <ele>2038</ele>
        <time>2021-04-08T07:37:25Z</time>
      </trkpt>
      <trkpt lat="44.46247" lon="6.55484">
        <ele>2038</ele>
        <time>2021-04-08T07:37:26Z</time>
      </trkpt>
      <trkpt lat="44.46247" lon="6.55484">
        <ele>2038</ele>
        <time>2021-04-08T07:37:27Z</time>
      </trkpt>
      <trkpt lat="44.46247" lon="6.55483">
        <ele>2038</ele>
        <time>2021-04-08T07:37:28Z</time>
      </trkpt>
      <trkpt lat="44.46247" lon="6.55482">
        <ele>2038</ele>
        <time>2021-04-08T07:37:29Z</time>
      </trkpt>
      <trkpt lat="44.46246" lon="6.55481">
        <ele>2038</ele>
        <time>2021-04-08T07:37:30Z</time>
      </trkpt>
      <trkpt lat="44.46245" lon="6.5548">
        <ele>2038</ele>
        <time>2021-04-08T07:37:31Z</time>
      </trkpt>
      <trkpt lat="44.46244" lon="6.55479">
        <ele>2038</ele>
        <time>2021-04-08T07:37:32Z</time>
      </trkpt>
      <trkpt lat="44.46243" lon="6.55478">
        <ele>2038</ele>
        <time>2021-04-08T07:37:33Z</time>
      </trkpt>
      <trkpt lat="44.46242" lon="6.55478">
        <ele>2038</ele>
        <time>2021-04-08T07:37:34Z</time>
      </trkpt>
      <trkpt lat="44.46241" lon="6.55477">
        <ele>2038</ele>
        <time>2021-04-08T07:37:35Z</time>
      </trkpt>
      <trkpt lat="44.46241" lon="6.55477">
        <ele>2038</ele>
        <time>2021-04-08T07:37:36Z</time>
      </trkpt>
      <trkpt lat="44.4624" lon="6.55476">
        <ele>2039</ele>
        <time>2021-04-08T07:37:37Z</time>
      </trkpt>
      <trkpt lat="44.4624" lon="6.55476">
        <ele>2039</ele>
        <time>2021-04-08T07:37:38Z</time>
      </trkpt>
      <trkpt lat="44.46239" lon="6.55475">
        <ele>2039</ele>
        <time>2021-04-08T07:37:39Z</time>
      </trkpt>
      <trkpt lat="44.46237" lon="6.55475">
        <ele>2039</ele>
        <time>2021-04-08T07:37:40Z</time>
      </trkpt>
      <trkpt lat="44.46237" lon="6.55474">
        <ele>2039</ele>
        <time>2021-04-08T07:37:41Z</time>
      </trkpt>
      <trkpt lat="44.46236" lon="6.55474">
        <ele>2039</ele>
        <time>2021-04-08T07:37:42Z</time>
      </trkpt>
      <trkpt lat="44.46235" lon="6.55473">
        <ele>2039</ele>
        <time>2021-04-08T07:37:43Z</time>
      </trkpt>
      <trkpt lat="44.46234" lon="6.55473">
        <ele>2039</ele>
        <time>2021-04-08T07:37:44Z</time>
      </trkpt>
      <trkpt lat="44.46233" lon="6.55472">
        <ele>2039</ele>
        <time>2021-04-08T07:37:45Z</time>
      </trkpt>
      <trkpt lat="44.46233" lon="6.55471">
        <ele>2039</ele>
        <time>2021-04-08T07:37:46Z</time>
      </trkpt>
      <trkpt lat="44.46232" lon="6.5547">
        <ele>2039</ele>
        <time>2021-04-08T07:37:47Z</time>
      </trkpt>
      <trkpt lat="44.46232" lon="6.5547">
        <ele>2039</ele>
        <time>2021-04-08T07:37:48Z</time>
      </trkpt>
      <trkpt lat="44.46231" lon="6.55469">
        <ele>2039</ele>
        <time>2021-04-08T07:37:49Z</time>
      </trkpt>
      <trkpt lat="44.4623" lon="6.55469">
        <ele>2040</ele>
        <time>2021-04-08T07:37:50Z</time>
      </trkpt>
      <trkpt lat="44.46229" lon="6.55468">
        <ele>2040</ele>
        <time>2021-04-08T07:37:51Z</time>
      </trkpt>
      <trkpt lat="44.46228" lon="6.55468">
        <ele>2040</ele>
        <time>2021-04-08T07:37:52Z</time>
      </trkpt>
      <trkpt lat="44.46227" lon="6.55467">
        <ele>2041</ele>
        <time>2021-04-08T07:37:53Z</time>
      </trkpt>
      <trkpt lat="44.46226" lon="6.55467">
        <ele>2041</ele>
        <time>2021-04-08T07:37:54Z</time>
      </trkpt>
      <trkpt lat="44.46226" lon="6.55467">
        <ele>2041</ele>
        <time>2021-04-08T07:37:55Z</time>
      </trkpt>
      <trkpt lat="44.46225" lon="6.55467">
        <ele>2041</ele>
        <time>2021-04-08T07:37:56Z</time>
      </trkpt>
      <trkpt lat="44.46225" lon="6.55467">
        <ele>2041</ele>
        <time>2021-04-08T07:37:57Z</time>
      </trkpt>
      <trkpt lat="44.46224" lon="6.55467">
        <ele>2041</ele>
        <time>2021-04-08T07:37:58Z</time>
      </trkpt>
      <trkpt lat="44.46223" lon="6.55467">
        <ele>2041</ele>
        <time>2021-04-08T07:37:59Z</time>
      </trkpt>
      <trkpt lat="44.46222" lon="6.55466">
        <ele>2041</ele>
        <time>2021-04-08T07:38:00Z</time>
      </trkpt>
      <trkpt lat="44.46221" lon="6.55465">
        <ele>2041</ele>
        <time>2021-04-08T07:38:01Z</time>
      </trkpt>
      <trkpt lat="44.46219" lon="6.55465">
        <ele>2040</ele>
        <time>2021-04-08T07:38:02Z</time>
      </trkpt>
      <trkpt lat="44.46219" lon="6.55465">
        <ele>2040</ele>
        <time>2021-04-08T07:38:03Z</time>
      </trkpt>
      <trkpt lat="44.46218" lon="6.55465">
        <ele>2040</ele>
        <time>2021-04-08T07:38:04Z</time>
      </trkpt>
      <trkpt lat="44.46217" lon="6.55465">
        <ele>2040</ele>
        <time>2021-04-08T07:38:05Z</time>
      </trkpt>
      <trkpt lat="44.46216" lon="6.55465">
        <ele>2040</ele>
        <time>2021-04-08T07:38:06Z</time>
      </trkpt>
      <trkpt lat="44.46215" lon="6.55465">
        <ele>2040</ele>
        <time>2021-04-08T07:38:07Z</time>
      </trkpt>
      <trkpt lat="44.46215" lon="6.55465">
        <ele>2039</ele>
        <time>2021-04-08T07:38:08Z</time>
      </trkpt>
      <trkpt lat="44.46214" lon="6.55465">
        <ele>2039</ele>
        <time>2021-04-08T07:38:09Z</time>
      </trkpt>
      <trkpt lat="44.46213" lon="6.55465">
        <ele>2039</ele>
        <time>2021-04-08T07:38:10Z</time>
      </trkpt>
      <trkpt lat="44.46213" lon="6.55465">
        <ele>2039</ele>
        <time>2021-04-08T07:38:11Z</time>
      </trkpt>
      <trkpt lat="44.46212" lon="6.55465">
        <ele>2039</ele>
        <time>2021-04-08T07:38:12Z</time>
      </trkpt>
      <trkpt lat="44.46211" lon="6.55465">
        <ele>2039</ele>
        <time>2021-04-08T07:38:13Z</time>
      </trkpt>
      <trkpt lat="44.4621" lon="6.55465">
        <ele>2039</ele>
        <time>2021-04-08T07:38:14Z</time>
      </trkpt>
      <trkpt lat="44.46209" lon="6.55466">
        <ele>2039</ele>
        <time>2021-04-08T07:38:15Z</time>
      </trkpt>
      <trkpt lat="44.46208" lon="6.55466">
        <ele>2039</ele>
        <time>2021-04-08T07:38:16Z</time>
      </trkpt>
      <trkpt lat="44.46208" lon="6.55466">
        <ele>2039</ele>
        <time>2021-04-08T07:38:17Z</time>
      </trkpt>
      <trkpt lat="44.46207" lon="6.55466">
        <ele>2039</ele>
        <time>2021-04-08T07:38:18Z</time>
      </trkpt>
      <trkpt lat="44.46206" lon="6.55466">
        <ele>2039</ele>
        <time>2021-04-08T07:38:19Z</time>
      </trkpt>
      <trkpt lat="44.46205" lon="6.55467">
        <ele>2039</ele>
        <time>2021-04-08T07:38:20Z</time>
      </trkpt>
      <trkpt lat="44.46204" lon="6.55467">
        <ele>2039</ele>
        <time>2021-04-08T07:38:21Z</time>
      </trkpt>
      <trkpt lat="44.46203" lon="6.55467">
        <ele>2039</ele>
        <time>2021-04-08T07:38:22Z</time>
      </trkpt>
      <trkpt lat="44.46202" lon="6.55467">
        <ele>2039</ele>
        <time>2021-04-08T07:38:23Z</time>
      </trkpt>
      <trkpt lat="44.46201" lon="6.55467">
        <ele>2040</ele>
        <time>2021-04-08T07:38:24Z</time>
      </trkpt>
      <trkpt lat="44.462" lon="6.55467">
        <ele>2040</ele>
        <time>2021-04-08T07:38:25Z</time>
      </trkpt>
      <trkpt lat="44.46199" lon="6.55467">
        <ele>2040</ele>
        <time>2021-04-08T07:38:26Z</time>
      </trkpt>
      <trkpt lat="44.46197" lon="6.55467">
        <ele>2040</ele>
        <time>2021-04-08T07:38:27Z</time>
      </trkpt>
      <trkpt lat="44.46196" lon="6.55468">
        <ele>2040</ele>
        <time>2021-04-08T07:38:28Z</time>
      </trkpt>
      <trkpt lat="44.46195" lon="6.55468">
        <ele>2040</ele>
        <time>2021-04-08T07:38:29Z</time>
      </trkpt>
      <trkpt lat="44.46194" lon="6.55469">
        <ele>2040</ele>
        <time>2021-04-08T07:38:30Z</time>
      </trkpt>
      <trkpt lat="44.46193" lon="6.55469">
        <ele>2040</ele>
        <time>2021-04-08T07:38:31Z</time>
      </trkpt>
      <trkpt lat="44.46192" lon="6.5547">
        <ele>2040</ele>
        <time>2021-04-08T07:38:32Z</time>
      </trkpt>
      <trkpt lat="44.46191" lon="6.5547">
        <ele>2040</ele>
        <time>2021-04-08T07:38:33Z</time>
      </trkpt>
      <trkpt lat="44.4619" lon="6.5547">
        <ele>2040</ele>
        <time>2021-04-08T07:38:34Z</time>
      </trkpt>
      <trkpt lat="44.46189" lon="6.55471">
        <ele>2040</ele>
        <time>2021-04-08T07:38:35Z</time>
      </trkpt>
      <trkpt lat="44.46187" lon="6.55471">
        <ele>2040</ele>
        <time>2021-04-08T07:38:36Z</time>
      </trkpt>
      <trkpt lat="44.46187" lon="6.55472">
        <ele>2040</ele>
        <time>2021-04-08T07:38:37Z</time>
      </trkpt>
      <trkpt lat="44.46186" lon="6.55473">
        <ele>2040</ele>
        <time>2021-04-08T07:38:38Z</time>
      </trkpt>
      <trkpt lat="44.46185" lon="6.55474">
        <ele>2040</ele>
        <time>2021-04-08T07:38:39Z</time>
      </trkpt>
      <trkpt lat="44.46184" lon="6.55475">
        <ele>2041</ele>
        <time>2021-04-08T07:38:40Z</time>
      </trkpt>
      <trkpt lat="44.46183" lon="6.55475">
        <ele>2041</ele>
        <time>2021-04-08T07:38:41Z</time>
      </trkpt>
      <trkpt lat="44.46183" lon="6.55476">
        <ele>2041</ele>
        <time>2021-04-08T07:38:42Z</time>
      </trkpt>
      <trkpt lat="44.46182" lon="6.55476">
        <ele>2041</ele>
        <time>2021-04-08T07:38:43Z</time>
      </trkpt>
      <trkpt lat="44.46182" lon="6.55477">
        <ele>2041</ele>
        <time>2021-04-08T07:38:44Z</time>
      </trkpt>
      <trkpt lat="44.46181" lon="6.55477">
        <ele>2042</ele>
        <time>2021-04-08T07:38:45Z</time>
      </trkpt>
      <trkpt lat="44.4618" lon="6.55477">
        <ele>2042</ele>
        <time>2021-04-08T07:38:46Z</time>
      </trkpt>
      <trkpt lat="44.4618" lon="6.55478">
        <ele>2042</ele>
        <time>2021-04-08T07:38:47Z</time>
      </trkpt>
      <trkpt lat="44.46179" lon="6.55479">
        <ele>2042</ele>
        <time>2021-04-08T07:38:48Z</time>
      </trkpt>
      <trkpt lat="44.46178" lon="6.5548">
        <ele>2042</ele>
        <time>2021-04-08T07:38:49Z</time>
      </trkpt>
      <trkpt lat="44.46177" lon="6.55481">
        <ele>2043</ele>
        <time>2021-04-08T07:38:50Z</time>
      </trkpt>
      <trkpt lat="44.46177" lon="6.55481">
        <ele>2043</ele>
        <time>2021-04-08T07:38:51Z</time>
      </trkpt>
      <trkpt lat="44.46176" lon="6.55482">
        <ele>2043</ele>
        <time>2021-04-08T07:38:52Z</time>
      </trkpt>
      <trkpt lat="44.46175" lon="6.55482">
        <ele>2043</ele>
        <time>2021-04-08T07:38:53Z</time>
      </trkpt>
      <trkpt lat="44.46175" lon="6.55482">
        <ele>2043</ele>
        <time>2021-04-08T07:38:54Z</time>
      </trkpt>
      <trkpt lat="44.46174" lon="6.55483">
        <ele>2043</ele>
        <time>2021-04-08T07:38:55Z</time>
      </trkpt>
      <trkpt lat="44.46174" lon="6.55484">
        <ele>2044</ele>
        <time>2021-04-08T07:38:56Z</time>
      </trkpt>
      <trkpt lat="44.46173" lon="6.55485">
        <ele>2044</ele>
        <time>2021-04-08T07:38:57Z</time>
      </trkpt>
      <trkpt lat="44.46172" lon="6.55486">
        <ele>2044</ele>
        <time>2021-04-08T07:38:58Z</time>
      </trkpt>
      <trkpt lat="44.46172" lon="6.55486">
        <ele>2044</ele>
        <time>2021-04-08T07:38:59Z</time>
      </trkpt>
      <trkpt lat="44.46171" lon="6.55487">
        <ele>2044</ele>
        <time>2021-04-08T07:39:00Z</time>
      </trkpt>
      <trkpt lat="44.46171" lon="6.55488">
        <ele>2045</ele>
        <time>2021-04-08T07:39:01Z</time>
      </trkpt>
      <trkpt lat="44.4617" lon="6.55489">
        <ele>2045</ele>
        <time>2021-04-08T07:39:02Z</time>
      </trkpt>
      <trkpt lat="44.46169" lon="6.55489">
        <ele>2045</ele>
        <time>2021-04-08T07:39:03Z</time>
      </trkpt>
      <trkpt lat="44.46169" lon="6.55491">
        <ele>2045</ele>
        <time>2021-04-08T07:39:04Z</time>
      </trkpt>
      <trkpt lat="44.46168" lon="6.55491">
        <ele>2046</ele>
        <time>2021-04-08T07:39:05Z</time>
      </trkpt>
      <trkpt lat="44.46167" lon="6.55492">
        <ele>2046</ele>
        <time>2021-04-08T07:39:06Z</time>
      </trkpt>
      <trkpt lat="44.46166" lon="6.55493">
        <ele>2046</ele>
        <time>2021-04-08T07:39:07Z</time>
      </trkpt>
      <trkpt lat="44.46165" lon="6.55493">
        <ele>2046</ele>
        <time>2021-04-08T07:39:08Z</time>
      </trkpt>
      <trkpt lat="44.46165" lon="6.55494">
        <ele>2046</ele>
        <time>2021-04-08T07:39:09Z</time>
      </trkpt>
      <trkpt lat="44.46164" lon="6.55494">
        <ele>2046</ele>
        <time>2021-04-08T07:39:10Z</time>
      </trkpt>
      <trkpt lat="44.46163" lon="6.55495">
        <ele>2047</ele>
        <time>2021-04-08T07:39:11Z</time>
      </trkpt>
      <trkpt lat="44.46163" lon="6.55495">
        <ele>2047</ele>
        <time>2021-04-08T07:39:12Z</time>
      </trkpt>
      <trkpt lat="44.46163" lon="6.55496">
        <ele>2047</ele>
        <time>2021-04-08T07:39:13Z</time>
      </trkpt>
      <trkpt lat="44.46162" lon="6.55497">
        <ele>2047</ele>
        <time>2021-04-08T07:39:14Z</time>
      </trkpt>
      <trkpt lat="44.46161" lon="6.55497">
        <ele>2047</ele>
        <time>2021-04-08T07:39:15Z</time>
      </trkpt>
      <trkpt lat="44.4616" lon="6.55498">
        <ele>2047</ele>
        <time>2021-04-08T07:39:16Z</time>
      </trkpt>
      <trkpt lat="44.4616" lon="6.55498">
        <ele>2048</ele>
        <time>2021-04-08T07:39:17Z</time>
      </trkpt>
      <trkpt lat="44.46159" lon="6.55498">
        <ele>2048</ele>
        <time>2021-04-08T07:39:18Z</time>
      </trkpt>
      <trkpt lat="44.46158" lon="6.55499">
        <ele>2048</ele>
        <time>2021-04-08T07:39:19Z</time>
      </trkpt>
      <trkpt lat="44.46158" lon="6.555">
        <ele>2048</ele>
        <time>2021-04-08T07:39:20Z</time>
      </trkpt>
      <trkpt lat="44.46157" lon="6.555">
        <ele>2048</ele>
        <time>2021-04-08T07:39:21Z</time>
      </trkpt>
      <trkpt lat="44.46157" lon="6.55501">
        <ele>2048</ele>
        <time>2021-04-08T07:39:22Z</time>
      </trkpt>
      <trkpt lat="44.46156" lon="6.55501">
        <ele>2048</ele>
        <time>2021-04-08T07:39:23Z</time>
      </trkpt>
      <trkpt lat="44.46155" lon="6.55502">
        <ele>2048</ele>
        <time>2021-04-08T07:39:24Z</time>
      </trkpt>
      <trkpt lat="44.46155" lon="6.55502">
        <ele>2048</ele>
        <time>2021-04-08T07:39:25Z</time>
      </trkpt>
      <trkpt lat="44.46154" lon="6.55503">
        <ele>2048</ele>
        <time>2021-04-08T07:39:26Z</time>
      </trkpt>
      <trkpt lat="44.46154" lon="6.55503">
        <ele>2049</ele>
        <time>2021-04-08T07:39:27Z</time>
      </trkpt>
      <trkpt lat="44.46153" lon="6.55503">
        <ele>2049</ele>
        <time>2021-04-08T07:39:28Z</time>
      </trkpt>
      <trkpt lat="44.46152" lon="6.55504">
        <ele>2049</ele>
        <time>2021-04-08T07:39:29Z</time>
      </trkpt>
      <trkpt lat="44.46151" lon="6.55504">
        <ele>2049</ele>
        <time>2021-04-08T07:39:30Z</time>
      </trkpt>
      <trkpt lat="44.46151" lon="6.55505">
        <ele>2049</ele>
        <time>2021-04-08T07:39:31Z</time>
      </trkpt>
      <trkpt lat="44.4615" lon="6.55506">
        <ele>2049</ele>
        <time>2021-04-08T07:39:32Z</time>
      </trkpt>
      <trkpt lat="44.46148" lon="6.55507">
        <ele>2049</ele>
        <time>2021-04-08T07:39:33Z</time>
      </trkpt>
      <trkpt lat="44.46147" lon="6.55508">
        <ele>2049</ele>
        <time>2021-04-08T07:39:34Z</time>
      </trkpt>
      <trkpt lat="44.46146" lon="6.55508">
        <ele>2049</ele>
        <time>2021-04-08T07:39:35Z</time>
      </trkpt>
      <trkpt lat="44.46145" lon="6.55508">
        <ele>2049</ele>
        <time>2021-04-08T07:39:36Z</time>
      </trkpt>
      <trkpt lat="44.46144" lon="6.55509">
        <ele>2049</ele>
        <time>2021-04-08T07:39:37Z</time>
      </trkpt>
      <trkpt lat="44.46143" lon="6.55509">
        <ele>2049</ele>
        <time>2021-04-08T07:39:38Z</time>
      </trkpt>
      <trkpt lat="44.46142" lon="6.5551">
        <ele>2049</ele>
        <time>2021-04-08T07:39:39Z</time>
      </trkpt>
      <trkpt lat="44.46142" lon="6.5551">
        <ele>2049</ele>
        <time>2021-04-08T07:39:40Z</time>
      </trkpt>
      <trkpt lat="44.46141" lon="6.55511">
        <ele>2049</ele>
        <time>2021-04-08T07:39:41Z</time>
      </trkpt>
      <trkpt lat="44.4614" lon="6.55512">
        <ele>2049</ele>
        <time>2021-04-08T07:39:42Z</time>
      </trkpt>
      <trkpt lat="44.46139" lon="6.55512">
        <ele>2049</ele>
        <time>2021-04-08T07:39:43Z</time>
      </trkpt>
      <trkpt lat="44.46138" lon="6.55513">
        <ele>2048</ele>
        <time>2021-04-08T07:39:44Z</time>
      </trkpt>
      <trkpt lat="44.46137" lon="6.55513">
        <ele>2048</ele>
        <time>2021-04-08T07:39:45Z</time>
      </trkpt>
      <trkpt lat="44.46136" lon="6.55514">
        <ele>2048</ele>
        <time>2021-04-08T07:39:46Z</time>
      </trkpt>
      <trkpt lat="44.46136" lon="6.55514">
        <ele>2048</ele>
        <time>2021-04-08T07:39:47Z</time>
      </trkpt>
      <trkpt lat="44.46135" lon="6.55515">
        <ele>2048</ele>
        <time>2021-04-08T07:39:48Z</time>
      </trkpt>
      <trkpt lat="44.46134" lon="6.55515">
        <ele>2048</ele>
        <time>2021-04-08T07:39:49Z</time>
      </trkpt>
      <trkpt lat="44.46133" lon="6.55516">
        <ele>2049</ele>
        <time>2021-04-08T07:39:50Z</time>
      </trkpt>
      <trkpt lat="44.46133" lon="6.55517">
        <ele>2049</ele>
        <time>2021-04-08T07:39:51Z</time>
      </trkpt>
      <trkpt lat="44.46132" lon="6.55517">
        <ele>2049</ele>
        <time>2021-04-08T07:39:52Z</time>
      </trkpt>
      <trkpt lat="44.46131" lon="6.55518">
        <ele>2049</ele>
        <time>2021-04-08T07:39:53Z</time>
      </trkpt>
      <trkpt lat="44.4613" lon="6.55518">
        <ele>2049</ele>
        <time>2021-04-08T07:39:54Z</time>
      </trkpt>
      <trkpt lat="44.4613" lon="6.55519">
        <ele>2049</ele>
        <time>2021-04-08T07:39:55Z</time>
      </trkpt>
      <trkpt lat="44.46129" lon="6.55519">
        <ele>2050</ele>
        <time>2021-04-08T07:39:56Z</time>
      </trkpt>
      <trkpt lat="44.46128" lon="6.55519">
        <ele>2050</ele>
        <time>2021-04-08T07:39:57Z</time>
      </trkpt>
      <trkpt lat="44.46127" lon="6.5552">
        <ele>2050</ele>
        <time>2021-04-08T07:39:58Z</time>
      </trkpt>
      <trkpt lat="44.46126" lon="6.55521">
        <ele>2050</ele>
        <time>2021-04-08T07:39:59Z</time>
      </trkpt>
      <trkpt lat="44.46125" lon="6.55522">
        <ele>2050</ele>
        <time>2021-04-08T07:40:00Z</time>
      </trkpt>
      <trkpt lat="44.46125" lon="6.55523">
        <ele>2051</ele>
        <time>2021-04-08T07:40:01Z</time>
      </trkpt>
      <trkpt lat="44.46124" lon="6.55523">
        <ele>2051</ele>
        <time>2021-04-08T07:40:02Z</time>
      </trkpt>
      <trkpt lat="44.46123" lon="6.55524">
        <ele>2051</ele>
        <time>2021-04-08T07:40:03Z</time>
      </trkpt>
      <trkpt lat="44.46123" lon="6.55524">
        <ele>2051</ele>
        <time>2021-04-08T07:40:04Z</time>
      </trkpt>
      <trkpt lat="44.46122" lon="6.55525">
        <ele>2051</ele>
        <time>2021-04-08T07:40:05Z</time>
      </trkpt>
      <trkpt lat="44.46121" lon="6.55526">
        <ele>2051</ele>
        <time>2021-04-08T07:40:06Z</time>
      </trkpt>
      <trkpt lat="44.4612" lon="6.55527">
        <ele>2052</ele>
        <time>2021-04-08T07:40:07Z</time>
      </trkpt>
      <trkpt lat="44.46119" lon="6.55527">
        <ele>2052</ele>
        <time>2021-04-08T07:40:08Z</time>
      </trkpt>
      <trkpt lat="44.46118" lon="6.55528">
        <ele>2052</ele>
        <time>2021-04-08T07:40:09Z</time>
      </trkpt>
      <trkpt lat="44.46118" lon="6.55528">
        <ele>2052</ele>
        <time>2021-04-08T07:40:10Z</time>
      </trkpt>
      <trkpt lat="44.46117" lon="6.55528">
        <ele>2052</ele>
        <time>2021-04-08T07:40:11Z</time>
      </trkpt>
      <trkpt lat="44.46116" lon="6.55528">
        <ele>2052</ele>
        <time>2021-04-08T07:40:12Z</time>
      </trkpt>
      <trkpt lat="44.46115" lon="6.55528">
        <ele>2052</ele>
        <time>2021-04-08T07:40:13Z</time>
      </trkpt>
      <trkpt lat="44.46114" lon="6.55528">
        <ele>2052</ele>
        <time>2021-04-08T07:40:14Z</time>
      </trkpt>
      <trkpt lat="44.46114" lon="6.55529">
        <ele>2052</ele>
        <time>2021-04-08T07:40:15Z</time>
      </trkpt>
      <trkpt lat="44.46113" lon="6.55529">
        <ele>2052</ele>
        <time>2021-04-08T07:40:16Z</time>
      </trkpt>
      <trkpt lat="44.46112" lon="6.5553">
        <ele>2052</ele>
        <time>2021-04-08T07:40:17Z</time>
      </trkpt>
      <trkpt lat="44.46111" lon="6.5553">
        <ele>2052</ele>
        <time>2021-04-08T07:40:18Z</time>
      </trkpt>
      <trkpt lat="44.4611" lon="6.55531">
        <ele>2052</ele>
        <time>2021-04-08T07:40:19Z</time>
      </trkpt>
      <trkpt lat="44.46109" lon="6.55531">
        <ele>2052</ele>
        <time>2021-04-08T07:40:20Z</time>
      </trkpt>
      <trkpt lat="44.46108" lon="6.55532">
        <ele>2052</ele>
        <time>2021-04-08T07:40:21Z</time>
      </trkpt>
      <trkpt lat="44.46107" lon="6.55532">
        <ele>2052</ele>
        <time>2021-04-08T07:40:22Z</time>
      </trkpt>
      <trkpt lat="44.46106" lon="6.55532">
        <ele>2052</ele>
        <time>2021-04-08T07:40:23Z</time>
      </trkpt>
      <trkpt lat="44.46106" lon="6.55532">
        <ele>2052</ele>
        <time>2021-04-08T07:40:24Z</time>
      </trkpt>
      <trkpt lat="44.46105" lon="6.55532">
        <ele>2052</ele>
        <time>2021-04-08T07:40:25Z</time>
      </trkpt>
      <trkpt lat="44.46104" lon="6.55533">
        <ele>2052</ele>
        <time>2021-04-08T07:40:26Z</time>
      </trkpt>
      <trkpt lat="44.46103" lon="6.55533">
        <ele>2053</ele>
        <time>2021-04-08T07:40:27Z</time>
      </trkpt>
      <trkpt lat="44.46103" lon="6.55534">
        <ele>2053</ele>
        <time>2021-04-08T07:40:28Z</time>
      </trkpt>
      <trkpt lat="44.46102" lon="6.55534">
        <ele>2053</ele>
        <time>2021-04-08T07:40:29Z</time>
      </trkpt>
      <trkpt lat="44.46101" lon="6.55534">
        <ele>2053</ele>
        <time>2021-04-08T07:40:30Z</time>
      </trkpt>
      <trkpt lat="44.461" lon="6.55534">
        <ele>2052</ele>
        <time>2021-04-08T07:40:31Z</time>
      </trkpt>
      <trkpt lat="44.461" lon="6.55534">
        <ele>2052</ele>
        <time>2021-04-08T07:40:32Z</time>
      </trkpt>
      <trkpt lat="44.46099" lon="6.55534">
        <ele>2052</ele>
        <time>2021-04-08T07:40:33Z</time>
      </trkpt>
      <trkpt lat="44.46098" lon="6.55535">
        <ele>2052</ele>
        <time>2021-04-08T07:40:34Z</time>
      </trkpt>
      <trkpt lat="44.46098" lon="6.55535">
        <ele>2052</ele>
        <time>2021-04-08T07:40:35Z</time>
      </trkpt>
      <trkpt lat="44.46097" lon="6.55535">
        <ele>2052</ele>
        <time>2021-04-08T07:40:36Z</time>
      </trkpt>
      <trkpt lat="44.46096" lon="6.55536">
        <ele>2053</ele>
        <time>2021-04-08T07:40:37Z</time>
      </trkpt>
      <trkpt lat="44.46095" lon="6.55536">
        <ele>2053</ele>
        <time>2021-04-08T07:40:38Z</time>
      </trkpt>
      <trkpt lat="44.46094" lon="6.55536">
        <ele>2053</ele>
        <time>2021-04-08T07:40:39Z</time>
      </trkpt>
      <trkpt lat="44.46093" lon="6.55537">
        <ele>2053</ele>
        <time>2021-04-08T07:40:40Z</time>
      </trkpt>
      <trkpt lat="44.46092" lon="6.55536">
        <ele>2053</ele>
        <time>2021-04-08T07:40:41Z</time>
      </trkpt>
      <trkpt lat="44.46091" lon="6.55536">
        <ele>2053</ele>
        <time>2021-04-08T07:40:42Z</time>
      </trkpt>
      <trkpt lat="44.46091" lon="6.55536">
        <ele>2054</ele>
        <time>2021-04-08T07:40:43Z</time>
      </trkpt>
      <trkpt lat="44.4609" lon="6.55536">
        <ele>2054</ele>
        <time>2021-04-08T07:40:44Z</time>
      </trkpt>
      <trkpt lat="44.4609" lon="6.55537">
        <ele>2054</ele>
        <time>2021-04-08T07:40:45Z</time>
      </trkpt>
      <trkpt lat="44.4609" lon="6.55537">
        <ele>2054</ele>
        <time>2021-04-08T07:40:46Z</time>
      </trkpt>
      <trkpt lat="44.46089" lon="6.55538">
        <ele>2054</ele>
        <time>2021-04-08T07:40:47Z</time>
      </trkpt>
      <trkpt lat="44.46089" lon="6.55538">
        <ele>2054</ele>
        <time>2021-04-08T07:40:48Z</time>
      </trkpt>
      <trkpt lat="44.46088" lon="6.55539">
        <ele>2054</ele>
        <time>2021-04-08T07:40:49Z</time>
      </trkpt>
      <trkpt lat="44.46087" lon="6.55539">
        <ele>2054</ele>
        <time>2021-04-08T07:40:50Z</time>
      </trkpt>
      <trkpt lat="44.46087" lon="6.5554">
        <ele>2054</ele>
        <time>2021-04-08T07:40:51Z</time>
      </trkpt>
      <trkpt lat="44.46086" lon="6.5554">
        <ele>2054</ele>
        <time>2021-04-08T07:40:52Z</time>
      </trkpt>
      <trkpt lat="44.46086" lon="6.55541">
        <ele>2054</ele>
        <time>2021-04-08T07:40:53Z</time>
      </trkpt>
      <trkpt lat="44.46085" lon="6.55541">
        <ele>2054</ele>
        <time>2021-04-08T07:40:54Z</time>
      </trkpt>
      <trkpt lat="44.46085" lon="6.55541">
        <ele>2054</ele>
        <time>2021-04-08T07:40:55Z</time>
      </trkpt>
      <trkpt lat="44.46084" lon="6.55542">
        <ele>2055</ele>
        <time>2021-04-08T07:40:56Z</time>
      </trkpt>
      <trkpt lat="44.46084" lon="6.55542">
        <ele>2055</ele>
        <time>2021-04-08T07:40:57Z</time>
      </trkpt>
      <trkpt lat="44.46083" lon="6.55543">
        <ele>2055</ele>
        <time>2021-04-08T07:40:58Z</time>
      </trkpt>
      <trkpt lat="44.46083" lon="6.55543">
        <ele>2056</ele>
        <time>2021-04-08T07:40:59Z</time>
      </trkpt>
      <trkpt lat="44.46082" lon="6.55543">
        <ele>2056</ele>
        <time>2021-04-08T07:41:00Z</time>
      </trkpt>
      <trkpt lat="44.46081" lon="6.55544">
        <ele>2056</ele>
        <time>2021-04-08T07:41:01Z</time>
      </trkpt>
      <trkpt lat="44.4608" lon="6.55544">
        <ele>2056</ele>
        <time>2021-04-08T07:41:02Z</time>
      </trkpt>
      <trkpt lat="44.4608" lon="6.55544">
        <ele>2056</ele>
        <time>2021-04-08T07:41:03Z</time>
      </trkpt>
      <trkpt lat="44.46079" lon="6.55545">
        <ele>2057</ele>
        <time>2021-04-08T07:41:04Z</time>
      </trkpt>
      <trkpt lat="44.46078" lon="6.55546">
        <ele>2057</ele>
        <time>2021-04-08T07:41:05Z</time>
      </trkpt>
      <trkpt lat="44.46077" lon="6.55546">
        <ele>2057</ele>
        <time>2021-04-08T07:41:06Z</time>
      </trkpt>
      <trkpt lat="44.46077" lon="6.55546">
        <ele>2057</ele>
        <time>2021-04-08T07:41:07Z</time>
      </trkpt>
      <trkpt lat="44.46076" lon="6.55547">
        <ele>2057</ele>
        <time>2021-04-08T07:41:08Z</time>
      </trkpt>
      <trkpt lat="44.46075" lon="6.55548">
        <ele>2057</ele>
        <time>2021-04-08T07:41:09Z</time>
      </trkpt>
      <trkpt lat="44.46074" lon="6.55548">
        <ele>2057</ele>
        <time>2021-04-08T07:41:10Z</time>
      </trkpt>
      <trkpt lat="44.46074" lon="6.55549">
        <ele>2057</ele>
        <time>2021-04-08T07:41:11Z</time>
      </trkpt>
      <trkpt lat="44.46074" lon="6.5555">
        <ele>2057</ele>
        <time>2021-04-08T07:41:12Z</time>
      </trkpt>
      <trkpt lat="44.46073" lon="6.55551">
        <ele>2057</ele>
        <time>2021-04-08T07:41:13Z</time>
      </trkpt>
      <trkpt lat="44.46072" lon="6.55552">
        <ele>2057</ele>
        <time>2021-04-08T07:41:14Z</time>
      </trkpt>
      <trkpt lat="44.46072" lon="6.55553">
        <ele>2057</ele>
        <time>2021-04-08T07:41:15Z</time>
      </trkpt>
      <trkpt lat="44.46071" lon="6.55553">
        <ele>2057</ele>
        <time>2021-04-08T07:41:16Z</time>
      </trkpt>
      <trkpt lat="44.46071" lon="6.55554">
        <ele>2057</ele>
        <time>2021-04-08T07:41:17Z</time>
      </trkpt>
      <trkpt lat="44.4607" lon="6.55555">
        <ele>2057</ele>
        <time>2021-04-08T07:41:18Z</time>
      </trkpt>
      <trkpt lat="44.4607" lon="6.55556">
        <ele>2057</ele>
        <time>2021-04-08T07:41:19Z</time>
      </trkpt>
      <trkpt lat="44.46069" lon="6.55556">
        <ele>2057</ele>
        <time>2021-04-08T07:41:20Z</time>
      </trkpt>
      <trkpt lat="44.46068" lon="6.55557">
        <ele>2058</ele>
        <time>2021-04-08T07:41:21Z</time>
      </trkpt>
      <trkpt lat="44.46068" lon="6.55557">
        <ele>2058</ele>
        <time>2021-04-08T07:41:22Z</time>
      </trkpt>
      <trkpt lat="44.46067" lon="6.55558">
        <ele>2058</ele>
        <time>2021-04-08T07:41:23Z</time>
      </trkpt>
      <trkpt lat="44.46067" lon="6.55559">
        <ele>2058</ele>
        <time>2021-04-08T07:41:24Z</time>
      </trkpt>
      <trkpt lat="44.46066" lon="6.55559">
        <ele>2059</ele>
        <time>2021-04-08T07:41:25Z</time>
      </trkpt>
      <trkpt lat="44.46065" lon="6.5556">
        <ele>2059</ele>
        <time>2021-04-08T07:41:26Z</time>
      </trkpt>
      <trkpt lat="44.46064" lon="6.55561">
        <ele>2059</ele>
        <time>2021-04-08T07:41:27Z</time>
      </trkpt>
      <trkpt lat="44.46064" lon="6.55561">
        <ele>2059</ele>
        <time>2021-04-08T07:41:28Z</time>
      </trkpt>
      <trkpt lat="44.46063" lon="6.55561">
        <ele>2059</ele>
        <time>2021-04-08T07:41:29Z</time>
      </trkpt>
      <trkpt lat="44.46062" lon="6.55562">
        <ele>2060</ele>
        <time>2021-04-08T07:41:30Z</time>
      </trkpt>
      <trkpt lat="44.46061" lon="6.55562">
        <ele>2060</ele>
        <time>2021-04-08T07:41:31Z</time>
      </trkpt>
      <trkpt lat="44.4606" lon="6.55562">
        <ele>2060</ele>
        <time>2021-04-08T07:41:32Z</time>
      </trkpt>
      <trkpt lat="44.4606" lon="6.55563">
        <ele>2060</ele>
        <time>2021-04-08T07:41:33Z</time>
      </trkpt>
      <trkpt lat="44.46059" lon="6.55564">
        <ele>2060</ele>
        <time>2021-04-08T07:41:34Z</time>
      </trkpt>
      <trkpt lat="44.46058" lon="6.55564">
        <ele>2061</ele>
        <time>2021-04-08T07:41:35Z</time>
      </trkpt>
      <trkpt lat="44.46057" lon="6.55566">
        <ele>2061</ele>
        <time>2021-04-08T07:41:36Z</time>
      </trkpt>
      <trkpt lat="44.46056" lon="6.55567">
        <ele>2061</ele>
        <time>2021-04-08T07:41:37Z</time>
      </trkpt>
      <trkpt lat="44.46055" lon="6.55568">
        <ele>2061</ele>
        <time>2021-04-08T07:41:38Z</time>
      </trkpt>
      <trkpt lat="44.46054" lon="6.55569">
        <ele>2061</ele>
        <time>2021-04-08T07:41:39Z</time>
      </trkpt>
      <trkpt lat="44.46054" lon="6.5557">
        <ele>2062</ele>
        <time>2021-04-08T07:41:40Z</time>
      </trkpt>
      <trkpt lat="44.46054" lon="6.55571">
        <ele>2062</ele>
        <time>2021-04-08T07:41:41Z</time>
      </trkpt>
      <trkpt lat="44.46053" lon="6.55571">
        <ele>2062</ele>
        <time>2021-04-08T07:41:42Z</time>
      </trkpt>
      <trkpt lat="44.46053" lon="6.55572">
        <ele>2062</ele>
        <time>2021-04-08T07:41:43Z</time>
      </trkpt>
      <trkpt lat="44.46052" lon="6.55573">
        <ele>2062</ele>
        <time>2021-04-08T07:41:44Z</time>
      </trkpt>
      <trkpt lat="44.46051" lon="6.55574">
        <ele>2062</ele>
        <time>2021-04-08T07:41:45Z</time>
      </trkpt>
      <trkpt lat="44.46051" lon="6.55574">
        <ele>2062</ele>
        <time>2021-04-08T07:41:46Z</time>
      </trkpt>
      <trkpt lat="44.4605" lon="6.55575">
        <ele>2062</ele>
        <time>2021-04-08T07:41:47Z</time>
      </trkpt>
      <trkpt lat="44.4605" lon="6.55576">
        <ele>2062</ele>
        <time>2021-04-08T07:41:48Z</time>
      </trkpt>
      <trkpt lat="44.46049" lon="6.55576">
        <ele>2062</ele>
        <time>2021-04-08T07:41:49Z</time>
      </trkpt>
      <trkpt lat="44.46048" lon="6.55576">
        <ele>2063</ele>
        <time>2021-04-08T07:41:50Z</time>
      </trkpt>
      <trkpt lat="44.46047" lon="6.55577">
        <ele>2063</ele>
        <time>2021-04-08T07:41:51Z</time>
      </trkpt>
      <trkpt lat="44.46047" lon="6.55577">
        <ele>2063</ele>
        <time>2021-04-08T07:41:52Z</time>
      </trkpt>
      <trkpt lat="44.46046" lon="6.55578">
        <ele>2063</ele>
        <time>2021-04-08T07:41:53Z</time>
      </trkpt>
      <trkpt lat="44.46045" lon="6.55578">
        <ele>2063</ele>
        <time>2021-04-08T07:41:54Z</time>
      </trkpt>
      <trkpt lat="44.46044" lon="6.55579">
        <ele>2063</ele>
        <time>2021-04-08T07:41:55Z</time>
      </trkpt>
      <trkpt lat="44.46043" lon="6.55579">
        <ele>2063</ele>
        <time>2021-04-08T07:41:56Z</time>
      </trkpt>
      <trkpt lat="44.46042" lon="6.5558">
        <ele>2063</ele>
        <time>2021-04-08T07:41:57Z</time>
      </trkpt>
      <trkpt lat="44.46041" lon="6.5558">
        <ele>2063</ele>
        <time>2021-04-08T07:41:58Z</time>
      </trkpt>
      <trkpt lat="44.46041" lon="6.5558">
        <ele>2064</ele>
        <time>2021-04-08T07:41:59Z</time>
      </trkpt>
      <trkpt lat="44.46039" lon="6.5558">
        <ele>2064</ele>
        <time>2021-04-08T07:42:00Z</time>
      </trkpt>
      <trkpt lat="44.46039" lon="6.5558">
        <ele>2064</ele>
        <time>2021-04-08T07:42:01Z</time>
      </trkpt>
      <trkpt lat="44.46038" lon="6.5558">
        <ele>2064</ele>
        <time>2021-04-08T07:42:02Z</time>
      </trkpt>
      <trkpt lat="44.46038" lon="6.5558">
        <ele>2064</ele>
        <time>2021-04-08T07:42:03Z</time>
      </trkpt>
      <trkpt lat="44.46037" lon="6.5558">
        <ele>2064</ele>
        <time>2021-04-08T07:42:04Z</time>
      </trkpt>
      <trkpt lat="44.46036" lon="6.55581">
        <ele>2064</ele>
        <time>2021-04-08T07:42:05Z</time>
      </trkpt>
      <trkpt lat="44.46035" lon="6.55581">
        <ele>2064</ele>
        <time>2021-04-08T07:42:06Z</time>
      </trkpt>
      <trkpt lat="44.46034" lon="6.55581">
        <ele>2064</ele>
        <time>2021-04-08T07:42:07Z</time>
      </trkpt>
      <trkpt lat="44.46034" lon="6.55581">
        <ele>2065</ele>
        <time>2021-04-08T07:42:08Z</time>
      </trkpt>
      <trkpt lat="44.46033" lon="6.55581">
        <ele>2065</ele>
        <time>2021-04-08T07:42:09Z</time>
      </trkpt>
      <trkpt lat="44.46032" lon="6.55582">
        <ele>2065</ele>
        <time>2021-04-08T07:42:10Z</time>
      </trkpt>
      <trkpt lat="44.46031" lon="6.55582">
        <ele>2065</ele>
        <time>2021-04-08T07:42:11Z</time>
      </trkpt>
      <trkpt lat="44.4603" lon="6.55582">
        <ele>2065</ele>
        <time>2021-04-08T07:42:12Z</time>
      </trkpt>
      <trkpt lat="44.46029" lon="6.55582">
        <ele>2065</ele>
        <time>2021-04-08T07:42:13Z</time>
      </trkpt>
      <trkpt lat="44.46028" lon="6.55582">
        <ele>2065</ele>
        <time>2021-04-08T07:42:14Z</time>
      </trkpt>
      <trkpt lat="44.46027" lon="6.55582">
        <ele>2065</ele>
        <time>2021-04-08T07:42:15Z</time>
      </trkpt>
      <trkpt lat="44.46027" lon="6.55582">
        <ele>2065</ele>
        <time>2021-04-08T07:42:16Z</time>
      </trkpt>
      <trkpt lat="44.46026" lon="6.55583">
        <ele>2065</ele>
        <time>2021-04-08T07:42:17Z</time>
      </trkpt>
      <trkpt lat="44.46026" lon="6.55584">
        <ele>2065</ele>
        <time>2021-04-08T07:42:18Z</time>
      </trkpt>
      <trkpt lat="44.46025" lon="6.55584">
        <ele>2065</ele>
        <time>2021-04-08T07:42:19Z</time>
      </trkpt>
      <trkpt lat="44.46024" lon="6.55585">
        <ele>2065</ele>
        <time>2021-04-08T07:42:20Z</time>
      </trkpt>
      <trkpt lat="44.46023" lon="6.55585">
        <ele>2065</ele>
        <time>2021-04-08T07:42:21Z</time>
      </trkpt>
      <trkpt lat="44.46022" lon="6.55586">
        <ele>2065</ele>
        <time>2021-04-08T07:42:22Z</time>
      </trkpt>
      <trkpt lat="44.46021" lon="6.55587">
        <ele>2065</ele>
        <time>2021-04-08T07:42:23Z</time>
      </trkpt>
      <trkpt lat="44.46021" lon="6.55587">
        <ele>2065</ele>
        <time>2021-04-08T07:42:24Z</time>
      </trkpt>
      <trkpt lat="44.4602" lon="6.55588">
        <ele>2065</ele>
        <time>2021-04-08T07:42:25Z</time>
      </trkpt>
      <trkpt lat="44.46019" lon="6.55588">
        <ele>2065</ele>
        <time>2021-04-08T07:42:26Z</time>
      </trkpt>
      <trkpt lat="44.46019" lon="6.55588">
        <ele>2065</ele>
        <time>2021-04-08T07:42:27Z</time>
      </trkpt>
      <trkpt lat="44.46018" lon="6.55589">
        <ele>2065</ele>
        <time>2021-04-08T07:42:28Z</time>
      </trkpt>
      <trkpt lat="44.46018" lon="6.55589">
        <ele>2065</ele>
        <time>2021-04-08T07:42:29Z</time>
      </trkpt>
      <trkpt lat="44.46017" lon="6.55589">
        <ele>2066</ele>
        <time>2021-04-08T07:42:30Z</time>
      </trkpt>
      <trkpt lat="44.46017" lon="6.55589">
        <ele>2066</ele>
        <time>2021-04-08T07:42:31Z</time>
      </trkpt>
      <trkpt lat="44.46016" lon="6.55589">
        <ele>2066</ele>
        <time>2021-04-08T07:42:32Z</time>
      </trkpt>
      <trkpt lat="44.46015" lon="6.55589">
        <ele>2066</ele>
        <time>2021-04-08T07:42:33Z</time>
      </trkpt>
      <trkpt lat="44.46015" lon="6.55589">
        <ele>2066</ele>
        <time>2021-04-08T07:42:34Z</time>
      </trkpt>
      <trkpt lat="44.46014" lon="6.55589">
        <ele>2066</ele>
        <time>2021-04-08T07:42:35Z</time>
      </trkpt>
      <trkpt lat="44.46013" lon="6.5559">
        <ele>2067</ele>
        <time>2021-04-08T07:42:36Z</time>
      </trkpt>
      <trkpt lat="44.46013" lon="6.5559">
        <ele>2067</ele>
        <time>2021-04-08T07:42:37Z</time>
      </trkpt>
      <trkpt lat="44.46012" lon="6.5559">
        <ele>2067</ele>
        <time>2021-04-08T07:42:38Z</time>
      </trkpt>
      <trkpt lat="44.46012" lon="6.5559">
        <ele>2067</ele>
        <time>2021-04-08T07:42:39Z</time>
      </trkpt>
      <trkpt lat="44.46011" lon="6.55591">
        <ele>2067</ele>
        <time>2021-04-08T07:42:40Z</time>
      </trkpt>
      <trkpt lat="44.4601" lon="6.55591">
        <ele>2067</ele>
        <time>2021-04-08T07:42:41Z</time>
      </trkpt>
      <trkpt lat="44.4601" lon="6.55591">
        <ele>2067</ele>
        <time>2021-04-08T07:42:42Z</time>
      </trkpt>
      <trkpt lat="44.46009" lon="6.55591">
        <ele>2067</ele>
        <time>2021-04-08T07:42:43Z</time>
      </trkpt>
      <trkpt lat="44.46008" lon="6.55591">
        <ele>2067</ele>
        <time>2021-04-08T07:42:44Z</time>
      </trkpt>
      <trkpt lat="44.46008" lon="6.55591">
        <ele>2067</ele>
        <time>2021-04-08T07:42:45Z</time>
      </trkpt>
      <trkpt lat="44.46007" lon="6.5559">
        <ele>2067</ele>
        <time>2021-04-08T07:42:46Z</time>
      </trkpt>
      <trkpt lat="44.46007" lon="6.5559">
        <ele>2068</ele>
        <time>2021-04-08T07:42:47Z</time>
      </trkpt>
      <trkpt lat="44.46006" lon="6.55591">
        <ele>2068</ele>
        <time>2021-04-08T07:42:48Z</time>
      </trkpt>
      <trkpt lat="44.46006" lon="6.5559">
        <ele>2068</ele>
        <time>2021-04-08T07:42:49Z</time>
      </trkpt>
      <trkpt lat="44.46005" lon="6.5559">
        <ele>2068</ele>
        <time>2021-04-08T07:42:50Z</time>
      </trkpt>
      <trkpt lat="44.46004" lon="6.5559">
        <ele>2068</ele>
        <time>2021-04-08T07:42:51Z</time>
      </trkpt>
      <trkpt lat="44.46003" lon="6.5559">
        <ele>2069</ele>
        <time>2021-04-08T07:42:52Z</time>
      </trkpt>
      <trkpt lat="44.46002" lon="6.55589">
        <ele>2069</ele>
        <time>2021-04-08T07:42:53Z</time>
      </trkpt>
      <trkpt lat="44.46002" lon="6.55589">
        <ele>2069</ele>
        <time>2021-04-08T07:42:54Z</time>
      </trkpt>
      <trkpt lat="44.46001" lon="6.55589">
        <ele>2069</ele>
        <time>2021-04-08T07:42:55Z</time>
      </trkpt>
      <trkpt lat="44.46" lon="6.55589">
        <ele>2070</ele>
        <time>2021-04-08T07:42:56Z</time>
      </trkpt>
      <trkpt lat="44.45999" lon="6.55588">
        <ele>2070</ele>
        <time>2021-04-08T07:42:57Z</time>
      </trkpt>
      <trkpt lat="44.45998" lon="6.55588">
        <ele>2070</ele>
        <time>2021-04-08T07:42:58Z</time>
      </trkpt>
      <trkpt lat="44.45997" lon="6.55588">
        <ele>2070</ele>
        <time>2021-04-08T07:42:59Z</time>
      </trkpt>
      <trkpt lat="44.45996" lon="6.55588">
        <ele>2070</ele>
        <time>2021-04-08T07:43:00Z</time>
      </trkpt>
      <trkpt lat="44.45995" lon="6.55588">
        <ele>2070</ele>
        <time>2021-04-08T07:43:01Z</time>
      </trkpt>
      <trkpt lat="44.45994" lon="6.55587">
        <ele>2070</ele>
        <time>2021-04-08T07:43:02Z</time>
      </trkpt>
      <trkpt lat="44.45993" lon="6.55587">
        <ele>2070</ele>
        <time>2021-04-08T07:43:03Z</time>
      </trkpt>
      <trkpt lat="44.45992" lon="6.55587">
        <ele>2070</ele>
        <time>2021-04-08T07:43:04Z</time>
      </trkpt>
      <trkpt lat="44.45991" lon="6.55586">
        <ele>2070</ele>
        <time>2021-04-08T07:43:05Z</time>
      </trkpt>
      <trkpt lat="44.4599" lon="6.55586">
        <ele>2070</ele>
        <time>2021-04-08T07:43:06Z</time>
      </trkpt>
      <trkpt lat="44.45989" lon="6.55585">
        <ele>2070</ele>
        <time>2021-04-08T07:43:07Z</time>
      </trkpt>
      <trkpt lat="44.45987" lon="6.55585">
        <ele>2069</ele>
        <time>2021-04-08T07:43:08Z</time>
      </trkpt>
      <trkpt lat="44.45986" lon="6.55585">
        <ele>2069</ele>
        <time>2021-04-08T07:43:09Z</time>
      </trkpt>
      <trkpt lat="44.45984" lon="6.55585">
        <ele>2069</ele>
        <time>2021-04-08T07:43:10Z</time>
      </trkpt>
      <trkpt lat="44.45982" lon="6.55585">
        <ele>2069</ele>
        <time>2021-04-08T07:43:11Z</time>
      </trkpt>
      <trkpt lat="44.45981" lon="6.55585">
        <ele>2068</ele>
        <time>2021-04-08T07:43:12Z</time>
      </trkpt>
      <trkpt lat="44.45979" lon="6.55585">
        <ele>2068</ele>
        <time>2021-04-08T07:43:13Z</time>
      </trkpt>
      <trkpt lat="44.45977" lon="6.55585">
        <ele>2068</ele>
        <time>2021-04-08T07:43:14Z</time>
      </trkpt>
      <trkpt lat="44.45976" lon="6.55585">
        <ele>2068</ele>
        <time>2021-04-08T07:43:15Z</time>
      </trkpt>
      <trkpt lat="44.45975" lon="6.55585">
        <ele>2069</ele>
        <time>2021-04-08T07:43:16Z</time>
      </trkpt>
      <trkpt lat="44.45975" lon="6.55584">
        <ele>2069</ele>
        <time>2021-04-08T07:43:17Z</time>
      </trkpt>
      <trkpt lat="44.45974" lon="6.55584">
        <ele>2069</ele>
        <time>2021-04-08T07:43:18Z</time>
      </trkpt>
      <trkpt lat="44.45974" lon="6.55584">
        <ele>2069</ele>
        <time>2021-04-08T07:43:19Z</time>
      </trkpt>
      <trkpt lat="44.45974" lon="6.55584">
        <ele>2069</ele>
        <time>2021-04-08T07:43:20Z</time>
      </trkpt>
      <trkpt lat="44.45973" lon="6.55584">
        <ele>2069</ele>
        <time>2021-04-08T07:43:21Z</time>
      </trkpt>
      <trkpt lat="44.45972" lon="6.55584">
        <ele>2069</ele>
        <time>2021-04-08T07:43:22Z</time>
      </trkpt>
      <trkpt lat="44.45971" lon="6.55585">
        <ele>2069</ele>
        <time>2021-04-08T07:43:23Z</time>
      </trkpt>
      <trkpt lat="44.4597" lon="6.55585">
        <ele>2069</ele>
        <time>2021-04-08T07:43:24Z</time>
      </trkpt>
      <trkpt lat="44.45969" lon="6.55584">
        <ele>2069</ele>
        <time>2021-04-08T07:43:25Z</time>
      </trkpt>
      <trkpt lat="44.45968" lon="6.55584">
        <ele>2069</ele>
        <time>2021-04-08T07:43:26Z</time>
      </trkpt>
      <trkpt lat="44.45968" lon="6.55585">
        <ele>2069</ele>
        <time>2021-04-08T07:43:27Z</time>
      </trkpt>
      <trkpt lat="44.45967" lon="6.55585">
        <ele>2069</ele>
        <time>2021-04-08T07:43:28Z</time>
      </trkpt>
      <trkpt lat="44.45966" lon="6.55585">
        <ele>2069</ele>
        <time>2021-04-08T07:43:29Z</time>
      </trkpt>
      <trkpt lat="44.45964" lon="6.55585">
        <ele>2068</ele>
        <time>2021-04-08T07:43:30Z</time>
      </trkpt>
      <trkpt lat="44.45964" lon="6.55586">
        <ele>2068</ele>
        <time>2021-04-08T07:43:31Z</time>
      </trkpt>
      <trkpt lat="44.45962" lon="6.55586">
        <ele>2068</ele>
        <time>2021-04-08T07:43:32Z</time>
      </trkpt>
      <trkpt lat="44.45961" lon="6.55586">
        <ele>2068</ele>
        <time>2021-04-08T07:43:33Z</time>
      </trkpt>
      <trkpt lat="44.4596" lon="6.55587">
        <ele>2068</ele>
        <time>2021-04-08T07:43:34Z</time>
      </trkpt>
      <trkpt lat="44.45959" lon="6.55587">
        <ele>2069</ele>
        <time>2021-04-08T07:43:35Z</time>
      </trkpt>
      <trkpt lat="44.45958" lon="6.55587">
        <ele>2069</ele>
        <time>2021-04-08T07:43:36Z</time>
      </trkpt>
      <trkpt lat="44.45957" lon="6.55588">
        <ele>2069</ele>
        <time>2021-04-08T07:43:37Z</time>
      </trkpt>
      <trkpt lat="44.45956" lon="6.55588">
        <ele>2069</ele>
        <time>2021-04-08T07:43:38Z</time>
      </trkpt>
      <trkpt lat="44.45955" lon="6.55588">
        <ele>2069</ele>
        <time>2021-04-08T07:43:39Z</time>
      </trkpt>
      <trkpt lat="44.45954" lon="6.55588">
        <ele>2069</ele>
        <time>2021-04-08T07:43:40Z</time>
      </trkpt>
      <trkpt lat="44.45953" lon="6.55588">
        <ele>2069</ele>
        <time>2021-04-08T07:43:41Z</time>
      </trkpt>
      <trkpt lat="44.45952" lon="6.55588">
        <ele>2069</ele>
        <time>2021-04-08T07:43:42Z</time>
      </trkpt>
      <trkpt lat="44.45951" lon="6.55588">
        <ele>2069</ele>
        <time>2021-04-08T07:43:43Z</time>
      </trkpt>
      <trkpt lat="44.45951" lon="6.55587">
        <ele>2070</ele>
        <time>2021-04-08T07:43:44Z</time>
      </trkpt>
      <trkpt lat="44.4595" lon="6.55587">
        <ele>2070</ele>
        <time>2021-04-08T07:43:45Z</time>
      </trkpt>
      <trkpt lat="44.45949" lon="6.55587">
        <ele>2070</ele>
        <time>2021-04-08T07:43:46Z</time>
      </trkpt>
      <trkpt lat="44.45948" lon="6.55587">
        <ele>2070</ele>
        <time>2021-04-08T07:43:47Z</time>
      </trkpt>
      <trkpt lat="44.45948" lon="6.55587">
        <ele>2070</ele>
        <time>2021-04-08T07:43:48Z</time>
      </trkpt>
      <trkpt lat="44.45948" lon="6.55587">
        <ele>2070</ele>
        <time>2021-04-08T07:43:49Z</time>
      </trkpt>
      <trkpt lat="44.45947" lon="6.55587">
        <ele>2070</ele>
        <time>2021-04-08T07:43:50Z</time>
      </trkpt>
      <trkpt lat="44.45947" lon="6.55586">
        <ele>2071</ele>
        <time>2021-04-08T07:43:51Z</time>
      </trkpt>
      <trkpt lat="44.45946" lon="6.55586">
        <ele>2071</ele>
        <time>2021-04-08T07:43:52Z</time>
      </trkpt>
      <trkpt lat="44.45945" lon="6.55586">
        <ele>2071</ele>
        <time>2021-04-08T07:43:53Z</time>
      </trkpt>
      <trkpt lat="44.45945" lon="6.55586">
        <ele>2071</ele>
        <time>2021-04-08T07:43:54Z</time>
      </trkpt>
      <trkpt lat="44.45943" lon="6.55587">
        <ele>2071</ele>
        <time>2021-04-08T07:43:55Z</time>
      </trkpt>
      <trkpt lat="44.45942" lon="6.55587">
        <ele>2072</ele>
        <time>2021-04-08T07:43:56Z</time>
      </trkpt>
      <trkpt lat="44.45941" lon="6.55587">
        <ele>2072</ele>
        <time>2021-04-08T07:43:57Z</time>
      </trkpt>
      <trkpt lat="44.45941" lon="6.55588">
        <ele>2072</ele>
        <time>2021-04-08T07:43:58Z</time>
      </trkpt>
      <trkpt lat="44.4594" lon="6.55588">
        <ele>2072</ele>
        <time>2021-04-08T07:43:59Z</time>
      </trkpt>
      <trkpt lat="44.45939" lon="6.55588">
        <ele>2072</ele>
        <time>2021-04-08T07:44:00Z</time>
      </trkpt>
      <trkpt lat="44.45938" lon="6.55589">
        <ele>2072</ele>
        <time>2021-04-08T07:44:01Z</time>
      </trkpt>
      <trkpt lat="44.45937" lon="6.55589">
        <ele>2072</ele>
        <time>2021-04-08T07:44:02Z</time>
      </trkpt>
      <trkpt lat="44.45936" lon="6.5559">
        <ele>2073</ele>
        <time>2021-04-08T07:44:03Z</time>
      </trkpt>
      <trkpt lat="44.45935" lon="6.5559">
        <ele>2073</ele>
        <time>2021-04-08T07:44:04Z</time>
      </trkpt>
      <trkpt lat="44.45934" lon="6.55591">
        <ele>2073</ele>
        <time>2021-04-08T07:44:05Z</time>
      </trkpt>
      <trkpt lat="44.45933" lon="6.55592">
        <ele>2073</ele>
        <time>2021-04-08T07:44:06Z</time>
      </trkpt>
      <trkpt lat="44.45932" lon="6.55593">
        <ele>2073</ele>
        <time>2021-04-08T07:44:07Z</time>
      </trkpt>
      <trkpt lat="44.45932" lon="6.55593">
        <ele>2073</ele>
        <time>2021-04-08T07:44:08Z</time>
      </trkpt>
      <trkpt lat="44.45931" lon="6.55594">
        <ele>2073</ele>
        <time>2021-04-08T07:44:09Z</time>
      </trkpt>
      <trkpt lat="44.4593" lon="6.55594">
        <ele>2073</ele>
        <time>2021-04-08T07:44:10Z</time>
      </trkpt>
      <trkpt lat="44.4593" lon="6.55594">
        <ele>2073</ele>
        <time>2021-04-08T07:44:11Z</time>
      </trkpt>
      <trkpt lat="44.45929" lon="6.55595">
        <ele>2073</ele>
        <time>2021-04-08T07:44:12Z</time>
      </trkpt>
      <trkpt lat="44.45928" lon="6.55595">
        <ele>2073</ele>
        <time>2021-04-08T07:44:13Z</time>
      </trkpt>
      <trkpt lat="44.45927" lon="6.55596">
        <ele>2073</ele>
        <time>2021-04-08T07:44:14Z</time>
      </trkpt>
      <trkpt lat="44.45926" lon="6.55596">
        <ele>2073</ele>
        <time>2021-04-08T07:44:15Z</time>
      </trkpt>
      <trkpt lat="44.45925" lon="6.55597">
        <ele>2073</ele>
        <time>2021-04-08T07:44:16Z</time>
      </trkpt>
      <trkpt lat="44.45924" lon="6.55598">
        <ele>2073</ele>
        <time>2021-04-08T07:44:17Z</time>
      </trkpt>
      <trkpt lat="44.45923" lon="6.55599">
        <ele>2073</ele>
        <time>2021-04-08T07:44:18Z</time>
      </trkpt>
      <trkpt lat="44.45923" lon="6.55599">
        <ele>2073</ele>
        <time>2021-04-08T07:44:19Z</time>
      </trkpt>
      <trkpt lat="44.45922" lon="6.55599">
        <ele>2073</ele>
        <time>2021-04-08T07:44:20Z</time>
      </trkpt>
      <trkpt lat="44.45921" lon="6.556">
        <ele>2073</ele>
        <time>2021-04-08T07:44:21Z</time>
      </trkpt>
      <trkpt lat="44.4592" lon="6.55601">
        <ele>2073</ele>
        <time>2021-04-08T07:44:22Z</time>
      </trkpt>
      <trkpt lat="44.45919" lon="6.55601">
        <ele>2073</ele>
        <time>2021-04-08T07:44:23Z</time>
      </trkpt>
      <trkpt lat="44.45918" lon="6.55601">
        <ele>2073</ele>
        <time>2021-04-08T07:44:24Z</time>
      </trkpt>
      <trkpt lat="44.45918" lon="6.55602">
        <ele>2073</ele>
        <time>2021-04-08T07:44:25Z</time>
      </trkpt>
      <trkpt lat="44.45917" lon="6.55602">
        <ele>2073</ele>
        <time>2021-04-08T07:44:26Z</time>
      </trkpt>
      <trkpt lat="44.45916" lon="6.55603">
        <ele>2073</ele>
        <time>2021-04-08T07:44:27Z</time>
      </trkpt>
      <trkpt lat="44.45915" lon="6.55604">
        <ele>2073</ele>
        <time>2021-04-08T07:44:28Z</time>
      </trkpt>
      <trkpt lat="44.45915" lon="6.55605">
        <ele>2073</ele>
        <time>2021-04-08T07:44:29Z</time>
      </trkpt>
      <trkpt lat="44.45914" lon="6.55605">
        <ele>2073</ele>
        <time>2021-04-08T07:44:30Z</time>
      </trkpt>
      <trkpt lat="44.45913" lon="6.55606">
        <ele>2073</ele>
        <time>2021-04-08T07:44:31Z</time>
      </trkpt>
      <trkpt lat="44.45912" lon="6.55606">
        <ele>2074</ele>
        <time>2021-04-08T07:44:32Z</time>
      </trkpt>
      <trkpt lat="44.45911" lon="6.55606">
        <ele>2074</ele>
        <time>2021-04-08T07:44:33Z</time>
      </trkpt>
      <trkpt lat="44.4591" lon="6.55607">
        <ele>2074</ele>
        <time>2021-04-08T07:44:34Z</time>
      </trkpt>
      <trkpt lat="44.45909" lon="6.55607">
        <ele>2074</ele>
        <time>2021-04-08T07:44:35Z</time>
      </trkpt>
      <trkpt lat="44.45909" lon="6.55608">
        <ele>2074</ele>
        <time>2021-04-08T07:44:36Z</time>
      </trkpt>
      <trkpt lat="44.45908" lon="6.55608">
        <ele>2074</ele>
        <time>2021-04-08T07:44:37Z</time>
      </trkpt>
      <trkpt lat="44.45906" lon="6.55608">
        <ele>2074</ele>
        <time>2021-04-08T07:44:38Z</time>
      </trkpt>
      <trkpt lat="44.45906" lon="6.55609">
        <ele>2074</ele>
        <time>2021-04-08T07:44:39Z</time>
      </trkpt>
      <trkpt lat="44.45905" lon="6.55609">
        <ele>2074</ele>
        <time>2021-04-08T07:44:40Z</time>
      </trkpt>
      <trkpt lat="44.45904" lon="6.5561">
        <ele>2074</ele>
        <time>2021-04-08T07:44:41Z</time>
      </trkpt>
      <trkpt lat="44.45903" lon="6.5561">
        <ele>2073</ele>
        <time>2021-04-08T07:44:42Z</time>
      </trkpt>
      <trkpt lat="44.45902" lon="6.5561">
        <ele>2073</ele>
        <time>2021-04-08T07:44:43Z</time>
      </trkpt>
      <trkpt lat="44.45901" lon="6.5561">
        <ele>2073</ele>
        <time>2021-04-08T07:44:44Z</time>
      </trkpt>
      <trkpt lat="44.459" lon="6.5561">
        <ele>2073</ele>
        <time>2021-04-08T07:44:45Z</time>
      </trkpt>
      <trkpt lat="44.45899" lon="6.55611">
        <ele>2073</ele>
        <time>2021-04-08T07:44:46Z</time>
      </trkpt>
      <trkpt lat="44.45899" lon="6.55611">
        <ele>2073</ele>
        <time>2021-04-08T07:44:47Z</time>
      </trkpt>
      <trkpt lat="44.45898" lon="6.55612">
        <ele>2074</ele>
        <time>2021-04-08T07:44:48Z</time>
      </trkpt>
      <trkpt lat="44.45897" lon="6.55612">
        <ele>2074</ele>
        <time>2021-04-08T07:44:49Z</time>
      </trkpt>
      <trkpt lat="44.45895" lon="6.55612">
        <ele>2074</ele>
        <time>2021-04-08T07:44:50Z</time>
      </trkpt>
      <trkpt lat="44.45895" lon="6.55613">
        <ele>2075</ele>
        <time>2021-04-08T07:44:51Z</time>
      </trkpt>
      <trkpt lat="44.45894" lon="6.55613">
        <ele>2075</ele>
        <time>2021-04-08T07:44:52Z</time>
      </trkpt>
      <trkpt lat="44.45893" lon="6.55613">
        <ele>2075</ele>
        <time>2021-04-08T07:44:53Z</time>
      </trkpt>
      <trkpt lat="44.45893" lon="6.55614">
        <ele>2075</ele>
        <time>2021-04-08T07:44:54Z</time>
      </trkpt>
      <trkpt lat="44.45892" lon="6.55614">
        <ele>2075</ele>
        <time>2021-04-08T07:44:55Z</time>
      </trkpt>
      <trkpt lat="44.45891" lon="6.55615">
        <ele>2075</ele>
        <time>2021-04-08T07:44:56Z</time>
      </trkpt>
      <trkpt lat="44.4589" lon="6.55616">
        <ele>2075</ele>
        <time>2021-04-08T07:44:57Z</time>
      </trkpt>
      <trkpt lat="44.45889" lon="6.55616">
        <ele>2075</ele>
        <time>2021-04-08T07:44:58Z</time>
      </trkpt>
      <trkpt lat="44.45888" lon="6.55616">
        <ele>2075</ele>
        <time>2021-04-08T07:44:59Z</time>
      </trkpt>
      <trkpt lat="44.45888" lon="6.55617">
        <ele>2075</ele>
        <time>2021-04-08T07:45:00Z</time>
      </trkpt>
      <trkpt lat="44.45887" lon="6.55618">
        <ele>2075</ele>
        <time>2021-04-08T07:45:01Z</time>
      </trkpt>
      <trkpt lat="44.45886" lon="6.55618">
        <ele>2075</ele>
        <time>2021-04-08T07:45:02Z</time>
      </trkpt>
      <trkpt lat="44.45885" lon="6.55619">
        <ele>2075</ele>
        <time>2021-04-08T07:45:03Z</time>
      </trkpt>
      <trkpt lat="44.45885" lon="6.55619">
        <ele>2075</ele>
        <time>2021-04-08T07:45:04Z</time>
      </trkpt>
      <trkpt lat="44.45884" lon="6.5562">
        <ele>2075</ele>
        <time>2021-04-08T07:45:05Z</time>
      </trkpt>
      <trkpt lat="44.45883" lon="6.55621">
        <ele>2075</ele>
        <time>2021-04-08T07:45:06Z</time>
      </trkpt>
      <trkpt lat="44.45882" lon="6.55621">
        <ele>2075</ele>
        <time>2021-04-08T07:45:07Z</time>
      </trkpt>
      <trkpt lat="44.45882" lon="6.55622">
        <ele>2075</ele>
        <time>2021-04-08T07:45:08Z</time>
      </trkpt>
      <trkpt lat="44.45881" lon="6.55623">
        <ele>2075</ele>
        <time>2021-04-08T07:45:09Z</time>
      </trkpt>
      <trkpt lat="44.45879" lon="6.55623">
        <ele>2075</ele>
        <time>2021-04-08T07:45:10Z</time>
      </trkpt>
      <trkpt lat="44.45879" lon="6.55624">
        <ele>2075</ele>
        <time>2021-04-08T07:45:11Z</time>
      </trkpt>
      <trkpt lat="44.45878" lon="6.55626">
        <ele>2075</ele>
        <time>2021-04-08T07:45:12Z</time>
      </trkpt>
      <trkpt lat="44.45877" lon="6.55626">
        <ele>2075</ele>
        <time>2021-04-08T07:45:13Z</time>
      </trkpt>
      <trkpt lat="44.45877" lon="6.55627">
        <ele>2075</ele>
        <time>2021-04-08T07:45:14Z</time>
      </trkpt>
      <trkpt lat="44.45876" lon="6.55628">
        <ele>2075</ele>
        <time>2021-04-08T07:45:15Z</time>
      </trkpt>
      <trkpt lat="44.45875" lon="6.55629">
        <ele>2075</ele>
        <time>2021-04-08T07:45:16Z</time>
      </trkpt>
      <trkpt lat="44.45875" lon="6.55629">
        <ele>2075</ele>
        <time>2021-04-08T07:45:17Z</time>
      </trkpt>
      <trkpt lat="44.45874" lon="6.55629">
        <ele>2075</ele>
        <time>2021-04-08T07:45:18Z</time>
      </trkpt>
      <trkpt lat="44.45874" lon="6.5563">
        <ele>2075</ele>
        <time>2021-04-08T07:45:19Z</time>
      </trkpt>
      <trkpt lat="44.45873" lon="6.5563">
        <ele>2075</ele>
        <time>2021-04-08T07:45:20Z</time>
      </trkpt>
      <trkpt lat="44.45873" lon="6.5563">
        <ele>2075</ele>
        <time>2021-04-08T07:45:21Z</time>
      </trkpt>
      <trkpt lat="44.45871" lon="6.5563">
        <ele>2075</ele>
        <time>2021-04-08T07:45:22Z</time>
      </trkpt>
      <trkpt lat="44.45871" lon="6.55631">
        <ele>2075</ele>
        <time>2021-04-08T07:45:23Z</time>
      </trkpt>
      <trkpt lat="44.4587" lon="6.55631">
        <ele>2075</ele>
        <time>2021-04-08T07:45:24Z</time>
      </trkpt>
      <trkpt lat="44.4587" lon="6.55631">
        <ele>2075</ele>
        <time>2021-04-08T07:45:25Z</time>
      </trkpt>
      <trkpt lat="44.4587" lon="6.55632">
        <ele>2075</ele>
        <time>2021-04-08T07:45:26Z</time>
      </trkpt>
      <trkpt lat="44.4587" lon="6.55632">
        <ele>2075</ele>
        <time>2021-04-08T07:45:27Z</time>
      </trkpt>
      <trkpt lat="44.4587" lon="6.55632">
        <ele>2075</ele>
        <time>2021-04-08T07:45:28Z</time>
      </trkpt>
      <trkpt lat="44.4587" lon="6.55632">
        <ele>2075</ele>
        <time>2021-04-08T07:45:29Z</time>
      </trkpt>
      <trkpt lat="44.4587" lon="6.55631">
        <ele>2075</ele>
        <time>2021-04-08T07:45:30Z</time>
      </trkpt>
      <trkpt lat="44.4587" lon="6.55631">
        <ele>2075</ele>
        <time>2021-04-08T07:45:31Z</time>
      </trkpt>
      <trkpt lat="44.4587" lon="6.55631">
        <ele>2075</ele>
        <time>2021-04-08T07:45:32Z</time>
      </trkpt>
      <trkpt lat="44.4587" lon="6.55631">
        <ele>2075</ele>
        <time>2021-04-08T07:45:33Z</time>
      </trkpt>
      <trkpt lat="44.4587" lon="6.55631">
        <ele>2075</ele>
        <time>2021-04-08T07:45:34Z</time>
      </trkpt>
      <trkpt lat="44.4587" lon="6.55631">
        <ele>2075</ele>
        <time>2021-04-08T07:45:35Z</time>
      </trkpt>
      <trkpt lat="44.4587" lon="6.55631">
        <ele>2075</ele>
        <time>2021-04-08T07:45:36Z</time>
      </trkpt>
      <trkpt lat="44.4587" lon="6.55631">
        <ele>2075</ele>
        <time>2021-04-08T07:45:37Z</time>
      </trkpt>
      <trkpt lat="44.4587" lon="6.55631">
        <ele>2075</ele>
        <time>2021-04-08T07:45:38Z</time>
      </trkpt>
      <trkpt lat="44.4587" lon="6.55631">
        <ele>2075</ele>
        <time>2021-04-08T07:45:39Z</time>
      </trkpt>
      <trkpt lat="44.4587" lon="6.55631">
        <ele>2075</ele>
        <time>2021-04-08T07:45:40Z</time>
      </trkpt>
      <trkpt lat="44.45867" lon="6.55633">
        <ele>2076</ele>
        <time>2021-04-08T07:45:41Z</time>
      </trkpt>
      <trkpt lat="44.45866" lon="6.55633">
        <ele>2076</ele>
        <time>2021-04-08T07:45:42Z</time>
      </trkpt>
      <trkpt lat="44.45866" lon="6.55634">
        <ele>2076</ele>
        <time>2021-04-08T07:45:43Z</time>
      </trkpt>
      <trkpt lat="44.45865" lon="6.55634">
        <ele>2076</ele>
        <time>2021-04-08T07:45:44Z</time>
      </trkpt>
      <trkpt lat="44.45865" lon="6.55634">
        <ele>2076</ele>
        <time>2021-04-08T07:45:45Z</time>
      </trkpt>
      <trkpt lat="44.45864" lon="6.55635">
        <ele>2076</ele>
        <time>2021-04-08T07:45:46Z</time>
      </trkpt>
      <trkpt lat="44.45864" lon="6.55635">
        <ele>2076</ele>
        <time>2021-04-08T07:45:47Z</time>
      </trkpt>
      <trkpt lat="44.45864" lon="6.55635">
        <ele>2076</ele>
        <time>2021-04-08T07:45:48Z</time>
      </trkpt>
      <trkpt lat="44.45864" lon="6.55635">
        <ele>2076</ele>
        <time>2021-04-08T07:45:49Z</time>
      </trkpt>
      <trkpt lat="44.45863" lon="6.55635">
        <ele>2076</ele>
        <time>2021-04-08T07:45:50Z</time>
      </trkpt>
      <trkpt lat="44.45863" lon="6.55635">
        <ele>2076</ele>
        <time>2021-04-08T07:45:51Z</time>
      </trkpt>
      <trkpt lat="44.45862" lon="6.55636">
        <ele>2076</ele>
        <time>2021-04-08T07:45:52Z</time>
      </trkpt>
      <trkpt lat="44.45861" lon="6.55637">
        <ele>2076</ele>
        <time>2021-04-08T07:45:53Z</time>
      </trkpt>
      <trkpt lat="44.45861" lon="6.55637">
        <ele>2076</ele>
        <time>2021-04-08T07:45:54Z</time>
      </trkpt>
      <trkpt lat="44.4586" lon="6.55637">
        <ele>2076</ele>
        <time>2021-04-08T07:45:55Z</time>
      </trkpt>
      <trkpt lat="44.4586" lon="6.55638">
        <ele>2076</ele>
        <time>2021-04-08T07:45:56Z</time>
      </trkpt>
      <trkpt lat="44.4586" lon="6.55639">
        <ele>2076</ele>
        <time>2021-04-08T07:45:57Z</time>
      </trkpt>
      <trkpt lat="44.45859" lon="6.55639">
        <ele>2076</ele>
        <time>2021-04-08T07:45:58Z</time>
      </trkpt>
      <trkpt lat="44.45859" lon="6.5564">
        <ele>2076</ele>
        <time>2021-04-08T07:45:59Z</time>
      </trkpt>
      <trkpt lat="44.45858" lon="6.5564">
        <ele>2076</ele>
        <time>2021-04-08T07:46:00Z</time>
      </trkpt>
      <trkpt lat="44.45857" lon="6.5564">
        <ele>2076</ele>
        <time>2021-04-08T07:46:01Z</time>
      </trkpt>
      <trkpt lat="44.45857" lon="6.55641">
        <ele>2077</ele>
        <time>2021-04-08T07:46:02Z</time>
      </trkpt>
      <trkpt lat="44.45856" lon="6.55641">
        <ele>2077</ele>
        <time>2021-04-08T07:46:03Z</time>
      </trkpt>
      <trkpt lat="44.45855" lon="6.55641">
        <ele>2077</ele>
        <time>2021-04-08T07:46:04Z</time>
      </trkpt>
      <trkpt lat="44.45854" lon="6.55642">
        <ele>2077</ele>
        <time>2021-04-08T07:46:05Z</time>
      </trkpt>
      <trkpt lat="44.45853" lon="6.55642">
        <ele>2077</ele>
        <time>2021-04-08T07:46:06Z</time>
      </trkpt>
      <trkpt lat="44.45853" lon="6.55642">
        <ele>2077</ele>
        <time>2021-04-08T07:46:07Z</time>
      </trkpt>
      <trkpt lat="44.45852" lon="6.55643">
        <ele>2077</ele>
        <time>2021-04-08T07:46:08Z</time>
      </trkpt>
      <trkpt lat="44.45851" lon="6.55644">
        <ele>2077</ele>
        <time>2021-04-08T07:46:09Z</time>
      </trkpt>
      <trkpt lat="44.4585" lon="6.55644">
        <ele>2077</ele>
        <time>2021-04-08T07:46:10Z</time>
      </trkpt>
      <trkpt lat="44.45849" lon="6.55644">
        <ele>2077</ele>
        <time>2021-04-08T07:46:11Z</time>
      </trkpt>
      <trkpt lat="44.45849" lon="6.55645">
        <ele>2077</ele>
        <time>2021-04-08T07:46:12Z</time>
      </trkpt>
      <trkpt lat="44.45848" lon="6.55645">
        <ele>2077</ele>
        <time>2021-04-08T07:46:13Z</time>
      </trkpt>
      <trkpt lat="44.45847" lon="6.55646">
        <ele>2078</ele>
        <time>2021-04-08T07:46:14Z</time>
      </trkpt>
      <trkpt lat="44.45847" lon="6.55646">
        <ele>2078</ele>
        <time>2021-04-08T07:46:15Z</time>
      </trkpt>
      <trkpt lat="44.45846" lon="6.55646">
        <ele>2078</ele>
        <time>2021-04-08T07:46:16Z</time>
      </trkpt>
      <trkpt lat="44.45845" lon="6.55647">
        <ele>2078</ele>
        <time>2021-04-08T07:46:17Z</time>
      </trkpt>
      <trkpt lat="44.45845" lon="6.55648">
        <ele>2078</ele>
        <time>2021-04-08T07:46:18Z</time>
      </trkpt>
      <trkpt lat="44.45845" lon="6.55648">
        <ele>2078</ele>
        <time>2021-04-08T07:46:19Z</time>
      </trkpt>
      <trkpt lat="44.45844" lon="6.55648">
        <ele>2078</ele>
        <time>2021-04-08T07:46:20Z</time>
      </trkpt>
      <trkpt lat="44.45843" lon="6.55648">
        <ele>2078</ele>
        <time>2021-04-08T07:46:21Z</time>
      </trkpt>
      <trkpt lat="44.45842" lon="6.55648">
        <ele>2078</ele>
        <time>2021-04-08T07:46:22Z</time>
      </trkpt>
      <trkpt lat="44.45841" lon="6.55648">
        <ele>2078</ele>
        <time>2021-04-08T07:46:23Z</time>
      </trkpt>
      <trkpt lat="44.45841" lon="6.55648">
        <ele>2078</ele>
        <time>2021-04-08T07:46:24Z</time>
      </trkpt>
      <trkpt lat="44.4584" lon="6.55649">
        <ele>2078</ele>
        <time>2021-04-08T07:46:25Z</time>
      </trkpt>
      <trkpt lat="44.45839" lon="6.55649">
        <ele>2078</ele>
        <time>2021-04-08T07:46:26Z</time>
      </trkpt>
      <trkpt lat="44.45838" lon="6.55649">
        <ele>2078</ele>
        <time>2021-04-08T07:46:27Z</time>
      </trkpt>
      <trkpt lat="44.45837" lon="6.55649">
        <ele>2078</ele>
        <time>2021-04-08T07:46:28Z</time>
      </trkpt>
      <trkpt lat="44.45837" lon="6.55649">
        <ele>2078</ele>
        <time>2021-04-08T07:46:29Z</time>
      </trkpt>
      <trkpt lat="44.45836" lon="6.55649">
        <ele>2078</ele>
        <time>2021-04-08T07:46:30Z</time>
      </trkpt>
      <trkpt lat="44.45836" lon="6.55649">
        <ele>2078</ele>
        <time>2021-04-08T07:46:31Z</time>
      </trkpt>
      <trkpt lat="44.45835" lon="6.55649">
        <ele>2078</ele>
        <time>2021-04-08T07:46:32Z</time>
      </trkpt>
      <trkpt lat="44.45834" lon="6.5565">
        <ele>2079</ele>
        <time>2021-04-08T07:46:33Z</time>
      </trkpt>
      <trkpt lat="44.45834" lon="6.5565">
        <ele>2079</ele>
        <time>2021-04-08T07:46:34Z</time>
      </trkpt>
      <trkpt lat="44.45833" lon="6.5565">
        <ele>2079</ele>
        <time>2021-04-08T07:46:35Z</time>
      </trkpt>
      <trkpt lat="44.45832" lon="6.55649">
        <ele>2079</ele>
        <time>2021-04-08T07:46:36Z</time>
      </trkpt>
      <trkpt lat="44.45832" lon="6.55649">
        <ele>2079</ele>
        <time>2021-04-08T07:46:37Z</time>
      </trkpt>
      <trkpt lat="44.45831" lon="6.55649">
        <ele>2079</ele>
        <time>2021-04-08T07:46:38Z</time>
      </trkpt>
      <trkpt lat="44.4583" lon="6.55649">
        <ele>2079</ele>
        <time>2021-04-08T07:46:39Z</time>
      </trkpt>
      <trkpt lat="44.4583" lon="6.55649">
        <ele>2079</ele>
        <time>2021-04-08T07:46:40Z</time>
      </trkpt>
      <trkpt lat="44.45829" lon="6.55649">
        <ele>2079</ele>
        <time>2021-04-08T07:46:41Z</time>
      </trkpt>
      <trkpt lat="44.45828" lon="6.55649">
        <ele>2079</ele>
        <time>2021-04-08T07:46:42Z</time>
      </trkpt>
      <trkpt lat="44.45827" lon="6.5565">
        <ele>2079</ele>
        <time>2021-04-08T07:46:43Z</time>
      </trkpt>
      <trkpt lat="44.45827" lon="6.5565">
        <ele>2079</ele>
        <time>2021-04-08T07:46:44Z</time>
      </trkpt>
      <trkpt lat="44.45826" lon="6.5565">
        <ele>2079</ele>
        <time>2021-04-08T07:46:45Z</time>
      </trkpt>
      <trkpt lat="44.45825" lon="6.5565">
        <ele>2079</ele>
        <time>2021-04-08T07:46:46Z</time>
      </trkpt>
      <trkpt lat="44.45824" lon="6.55651">
        <ele>2079</ele>
        <time>2021-04-08T07:46:47Z</time>
      </trkpt>
      <trkpt lat="44.45823" lon="6.55651">
        <ele>2080</ele>
        <time>2021-04-08T07:46:48Z</time>
      </trkpt>
      <trkpt lat="44.45822" lon="6.55651">
        <ele>2080</ele>
        <time>2021-04-08T07:46:49Z</time>
      </trkpt>
      <trkpt lat="44.45822" lon="6.55652">
        <ele>2080</ele>
        <time>2021-04-08T07:46:50Z</time>
      </trkpt>
      <trkpt lat="44.45821" lon="6.55652">
        <ele>2081</ele>
        <time>2021-04-08T07:46:51Z</time>
      </trkpt>
      <trkpt lat="44.45821" lon="6.55653">
        <ele>2082</ele>
        <time>2021-04-08T07:46:52Z</time>
      </trkpt>
      <trkpt lat="44.4582" lon="6.55653">
        <ele>2082</ele>
        <time>2021-04-08T07:46:53Z</time>
      </trkpt>
      <trkpt lat="44.45819" lon="6.55654">
        <ele>2082</ele>
        <time>2021-04-08T07:46:54Z</time>
      </trkpt>
      <trkpt lat="44.45819" lon="6.55655">
        <ele>2083</ele>
        <time>2021-04-08T07:46:55Z</time>
      </trkpt>
      <trkpt lat="44.45818" lon="6.55655">
        <ele>2084</ele>
        <time>2021-04-08T07:46:56Z</time>
      </trkpt>
      <trkpt lat="44.45817" lon="6.55656">
        <ele>2084</ele>
        <time>2021-04-08T07:46:57Z</time>
      </trkpt>
      <trkpt lat="44.45817" lon="6.55657">
        <ele>2084</ele>
        <time>2021-04-08T07:46:58Z</time>
      </trkpt>
      <trkpt lat="44.45816" lon="6.55658">
        <ele>2085</ele>
        <time>2021-04-08T07:46:59Z</time>
      </trkpt>
      <trkpt lat="44.45816" lon="6.55658">
        <ele>2085</ele>
        <time>2021-04-08T07:47:00Z</time>
      </trkpt>
      <trkpt lat="44.45815" lon="6.55658">
        <ele>2086</ele>
        <time>2021-04-08T07:47:01Z</time>
      </trkpt>
      <trkpt lat="44.45814" lon="6.55659">
        <ele>2086</ele>
        <time>2021-04-08T07:47:02Z</time>
      </trkpt>
      <trkpt lat="44.45814" lon="6.55659">
        <ele>2086</ele>
        <time>2021-04-08T07:47:03Z</time>
      </trkpt>
      <trkpt lat="44.45813" lon="6.5566">
        <ele>2087</ele>
        <time>2021-04-08T07:47:04Z</time>
      </trkpt>
      <trkpt lat="44.45813" lon="6.5566">
        <ele>2087</ele>
        <time>2021-04-08T07:47:05Z</time>
      </trkpt>
      <trkpt lat="44.45812" lon="6.55661">
        <ele>2087</ele>
        <time>2021-04-08T07:47:06Z</time>
      </trkpt>
      <trkpt lat="44.45812" lon="6.55661">
        <ele>2088</ele>
        <time>2021-04-08T07:47:07Z</time>
      </trkpt>
      <trkpt lat="44.45811" lon="6.55661">
        <ele>2088</ele>
        <time>2021-04-08T07:47:08Z</time>
      </trkpt>
      <trkpt lat="44.4581" lon="6.55662">
        <ele>2089</ele>
        <time>2021-04-08T07:47:09Z</time>
      </trkpt>
      <trkpt lat="44.4581" lon="6.55662">
        <ele>2089</ele>
        <time>2021-04-08T07:47:10Z</time>
      </trkpt>
      <trkpt lat="44.4581" lon="6.55662">
        <ele>2089</ele>
        <time>2021-04-08T07:47:11Z</time>
      </trkpt>
      <trkpt lat="44.45809" lon="6.55663">
        <ele>2089</ele>
        <time>2021-04-08T07:47:12Z</time>
      </trkpt>
      <trkpt lat="44.45808" lon="6.55663">
        <ele>2089</ele>
        <time>2021-04-08T07:47:13Z</time>
      </trkpt>
      <trkpt lat="44.45808" lon="6.55663">
        <ele>2090</ele>
        <time>2021-04-08T07:47:14Z</time>
      </trkpt>
      <trkpt lat="44.45807" lon="6.55664">
        <ele>2090</ele>
        <time>2021-04-08T07:47:15Z</time>
      </trkpt>
      <trkpt lat="44.45807" lon="6.55665">
        <ele>2090</ele>
        <time>2021-04-08T07:47:16Z</time>
      </trkpt>
      <trkpt lat="44.45807" lon="6.55665">
        <ele>2090</ele>
        <time>2021-04-08T07:47:17Z</time>
      </trkpt>
      <trkpt lat="44.45806" lon="6.55665">
        <ele>2090</ele>
        <time>2021-04-08T07:47:18Z</time>
      </trkpt>
      <trkpt lat="44.45806" lon="6.55665">
        <ele>2091</ele>
        <time>2021-04-08T07:47:19Z</time>
      </trkpt>
      <trkpt lat="44.45805" lon="6.55666">
        <ele>2091</ele>
        <time>2021-04-08T07:47:20Z</time>
      </trkpt>
      <trkpt lat="44.45804" lon="6.55666">
        <ele>2091</ele>
        <time>2021-04-08T07:47:21Z</time>
      </trkpt>
      <trkpt lat="44.45804" lon="6.55667">
        <ele>2092</ele>
        <time>2021-04-08T07:47:22Z</time>
      </trkpt>
      <trkpt lat="44.45803" lon="6.55668">
        <ele>2092</ele>
        <time>2021-04-08T07:47:23Z</time>
      </trkpt>
      <trkpt lat="44.45802" lon="6.55668">
        <ele>2092</ele>
        <time>2021-04-08T07:47:24Z</time>
      </trkpt>
      <trkpt lat="44.45802" lon="6.55668">
        <ele>2092</ele>
        <time>2021-04-08T07:47:25Z</time>
      </trkpt>
      <trkpt lat="44.45802" lon="6.55669">
        <ele>2092</ele>
        <time>2021-04-08T07:47:26Z</time>
      </trkpt>
      <trkpt lat="44.45801" lon="6.55669">
        <ele>2093</ele>
        <time>2021-04-08T07:47:27Z</time>
      </trkpt>
      <trkpt lat="44.45801" lon="6.55669">
        <ele>2093</ele>
        <time>2021-04-08T07:47:28Z</time>
      </trkpt>
      <trkpt lat="44.458" lon="6.55669">
        <ele>2093</ele>
        <time>2021-04-08T07:47:29Z</time>
      </trkpt>
      <trkpt lat="44.45799" lon="6.5567">
        <ele>2094</ele>
        <time>2021-04-08T07:47:30Z</time>
      </trkpt>
      <trkpt lat="44.45798" lon="6.5567">
        <ele>2094</ele>
        <time>2021-04-08T07:47:31Z</time>
      </trkpt>
      <trkpt lat="44.45798" lon="6.55671">
        <ele>2094</ele>
        <time>2021-04-08T07:47:32Z</time>
      </trkpt>
      <trkpt lat="44.45798" lon="6.55671">
        <ele>2094</ele>
        <time>2021-04-08T07:47:33Z</time>
      </trkpt>
      <trkpt lat="44.45797" lon="6.55671">
        <ele>2094</ele>
        <time>2021-04-08T07:47:34Z</time>
      </trkpt>
      <trkpt lat="44.45796" lon="6.55672">
        <ele>2094</ele>
        <time>2021-04-08T07:47:35Z</time>
      </trkpt>
      <trkpt lat="44.45796" lon="6.55672">
        <ele>2094</ele>
        <time>2021-04-08T07:47:36Z</time>
      </trkpt>
      <trkpt lat="44.45795" lon="6.55673">
        <ele>2095</ele>
        <time>2021-04-08T07:47:37Z</time>
      </trkpt>
      <trkpt lat="44.45794" lon="6.55673">
        <ele>2095</ele>
        <time>2021-04-08T07:47:38Z</time>
      </trkpt>
      <trkpt lat="44.45794" lon="6.55674">
        <ele>2095</ele>
        <time>2021-04-08T07:47:39Z</time>
      </trkpt>
      <trkpt lat="44.45793" lon="6.55674">
        <ele>2095</ele>
        <time>2021-04-08T07:47:40Z</time>
      </trkpt>
      <trkpt lat="44.45792" lon="6.55675">
        <ele>2095</ele>
        <time>2021-04-08T07:47:41Z</time>
      </trkpt>
      <trkpt lat="44.45792" lon="6.55675">
        <ele>2095</ele>
        <time>2021-04-08T07:47:42Z</time>
      </trkpt>
      <trkpt lat="44.45792" lon="6.55675">
        <ele>2095</ele>
        <time>2021-04-08T07:47:43Z</time>
      </trkpt>
      <trkpt lat="44.45791" lon="6.55676">
        <ele>2095</ele>
        <time>2021-04-08T07:47:44Z</time>
      </trkpt>
      <trkpt lat="44.45791" lon="6.55677">
        <ele>2095</ele>
        <time>2021-04-08T07:47:45Z</time>
      </trkpt>
      <trkpt lat="44.45791" lon="6.55677">
        <ele>2095</ele>
        <time>2021-04-08T07:47:46Z</time>
      </trkpt>
      <trkpt lat="44.4579" lon="6.55677">
        <ele>2095</ele>
        <time>2021-04-08T07:47:47Z</time>
      </trkpt>
      <trkpt lat="44.45789" lon="6.55677">
        <ele>2096</ele>
        <time>2021-04-08T07:47:48Z</time>
      </trkpt>
      <trkpt lat="44.45789" lon="6.55677">
        <ele>2096</ele>
        <time>2021-04-08T07:47:49Z</time>
      </trkpt>
      <trkpt lat="44.45788" lon="6.55677">
        <ele>2096</ele>
        <time>2021-04-08T07:47:50Z</time>
      </trkpt>
      <trkpt lat="44.45787" lon="6.55677">
        <ele>2097</ele>
        <time>2021-04-08T07:47:51Z</time>
      </trkpt>
      <trkpt lat="44.45786" lon="6.55678">
        <ele>2097</ele>
        <time>2021-04-08T07:47:52Z</time>
      </trkpt>
      <trkpt lat="44.45786" lon="6.55678">
        <ele>2098</ele>
        <time>2021-04-08T07:47:53Z</time>
      </trkpt>
      <trkpt lat="44.45785" lon="6.55679">
        <ele>2098</ele>
        <time>2021-04-08T07:47:54Z</time>
      </trkpt>
      <trkpt lat="44.45784" lon="6.55679">
        <ele>2098</ele>
        <time>2021-04-08T07:47:55Z</time>
      </trkpt>
      <trkpt lat="44.45784" lon="6.5568">
        <ele>2098</ele>
        <time>2021-04-08T07:47:56Z</time>
      </trkpt>
      <trkpt lat="44.45783" lon="6.55681">
        <ele>2099</ele>
        <time>2021-04-08T07:47:57Z</time>
      </trkpt>
      <trkpt lat="44.45782" lon="6.55681">
        <ele>2100</ele>
        <time>2021-04-08T07:47:58Z</time>
      </trkpt>
      <trkpt lat="44.45782" lon="6.55681">
        <ele>2100</ele>
        <time>2021-04-08T07:47:59Z</time>
      </trkpt>
      <trkpt lat="44.45781" lon="6.55682">
        <ele>2100</ele>
        <time>2021-04-08T07:48:00Z</time>
      </trkpt>
      <trkpt lat="44.45781" lon="6.55683">
        <ele>2101</ele>
        <time>2021-04-08T07:48:01Z</time>
      </trkpt>
      <trkpt lat="44.4578" lon="6.55683">
        <ele>2101</ele>
        <time>2021-04-08T07:48:02Z</time>
      </trkpt>
      <trkpt lat="44.45779" lon="6.55683">
        <ele>2102</ele>
        <time>2021-04-08T07:48:03Z</time>
      </trkpt>
      <trkpt lat="44.45779" lon="6.55684">
        <ele>2102</ele>
        <time>2021-04-08T07:48:04Z</time>
      </trkpt>
      <trkpt lat="44.45778" lon="6.55684">
        <ele>2102</ele>
        <time>2021-04-08T07:48:05Z</time>
      </trkpt>
      <trkpt lat="44.45778" lon="6.55685">
        <ele>2102</ele>
        <time>2021-04-08T07:48:06Z</time>
      </trkpt>
      <trkpt lat="44.45778" lon="6.55685">
        <ele>2102</ele>
        <time>2021-04-08T07:48:07Z</time>
      </trkpt>
      <trkpt lat="44.45777" lon="6.55686">
        <ele>2103</ele>
        <time>2021-04-08T07:48:08Z</time>
      </trkpt>
      <trkpt lat="44.45777" lon="6.55686">
        <ele>2103</ele>
        <time>2021-04-08T07:48:09Z</time>
      </trkpt>
      <trkpt lat="44.45776" lon="6.55687">
        <ele>2103</ele>
        <time>2021-04-08T07:48:10Z</time>
      </trkpt>
      <trkpt lat="44.45776" lon="6.55688">
        <ele>2103</ele>
        <time>2021-04-08T07:48:11Z</time>
      </trkpt>
      <trkpt lat="44.45776" lon="6.55689">
        <ele>2104</ele>
        <time>2021-04-08T07:48:12Z</time>
      </trkpt>
      <trkpt lat="44.45775" lon="6.55689">
        <ele>2104</ele>
        <time>2021-04-08T07:48:13Z</time>
      </trkpt>
      <trkpt lat="44.45775" lon="6.5569">
        <ele>2104</ele>
        <time>2021-04-08T07:48:14Z</time>
      </trkpt>
      <trkpt lat="44.45775" lon="6.5569">
        <ele>2104</ele>
        <time>2021-04-08T07:48:15Z</time>
      </trkpt>
      <trkpt lat="44.45774" lon="6.55691">
        <ele>2104</ele>
        <time>2021-04-08T07:48:16Z</time>
      </trkpt>
      <trkpt lat="44.45773" lon="6.55691">
        <ele>2104</ele>
        <time>2021-04-08T07:48:17Z</time>
      </trkpt>
      <trkpt lat="44.45773" lon="6.55692">
        <ele>2104</ele>
        <time>2021-04-08T07:48:18Z</time>
      </trkpt>
      <trkpt lat="44.45773" lon="6.55692">
        <ele>2104</ele>
        <time>2021-04-08T07:48:19Z</time>
      </trkpt>
      <trkpt lat="44.45773" lon="6.55692">
        <ele>2104</ele>
        <time>2021-04-08T07:48:20Z</time>
      </trkpt>
      <trkpt lat="44.45772" lon="6.55692">
        <ele>2104</ele>
        <time>2021-04-08T07:48:21Z</time>
      </trkpt>
      <trkpt lat="44.45772" lon="6.55692">
        <ele>2104</ele>
        <time>2021-04-08T07:48:22Z</time>
      </trkpt>
      <trkpt lat="44.45772" lon="6.55692">
        <ele>2104</ele>
        <time>2021-04-08T07:48:23Z</time>
      </trkpt>
      <trkpt lat="44.45771" lon="6.55693">
        <ele>2104</ele>
        <time>2021-04-08T07:48:24Z</time>
      </trkpt>
      <trkpt lat="44.4577" lon="6.55694">
        <ele>2104</ele>
        <time>2021-04-08T07:48:25Z</time>
      </trkpt>
      <trkpt lat="44.4577" lon="6.55694">
        <ele>2104</ele>
        <time>2021-04-08T07:48:26Z</time>
      </trkpt>
      <trkpt lat="44.45769" lon="6.55695">
        <ele>2104</ele>
        <time>2021-04-08T07:48:27Z</time>
      </trkpt>
      <trkpt lat="44.45768" lon="6.55695">
        <ele>2104</ele>
        <time>2021-04-08T07:48:28Z</time>
      </trkpt>
      <trkpt lat="44.45768" lon="6.55696">
        <ele>2104</ele>
        <time>2021-04-08T07:48:29Z</time>
      </trkpt>
      <trkpt lat="44.45768" lon="6.55696">
        <ele>2104</ele>
        <time>2021-04-08T07:48:30Z</time>
      </trkpt>
      <trkpt lat="44.45768" lon="6.55697">
        <ele>2104</ele>
        <time>2021-04-08T07:48:31Z</time>
      </trkpt>
      <trkpt lat="44.45768" lon="6.55697">
        <ele>2104</ele>
        <time>2021-04-08T07:48:32Z</time>
      </trkpt>
      <trkpt lat="44.45768" lon="6.55699">
        <ele>2104</ele>
        <time>2021-04-08T07:48:33Z</time>
      </trkpt>
      <trkpt lat="44.45768" lon="6.557">
        <ele>2104</ele>
        <time>2021-04-08T07:48:34Z</time>
      </trkpt>
      <trkpt lat="44.45768" lon="6.557">
        <ele>2104</ele>
        <time>2021-04-08T07:48:35Z</time>
      </trkpt>
      <trkpt lat="44.45768" lon="6.55701">
        <ele>2104</ele>
        <time>2021-04-08T07:48:36Z</time>
      </trkpt>
      <trkpt lat="44.45768" lon="6.55702">
        <ele>2104</ele>
        <time>2021-04-08T07:48:37Z</time>
      </trkpt>
      <trkpt lat="44.45769" lon="6.55703">
        <ele>2104</ele>
        <time>2021-04-08T07:48:38Z</time>
      </trkpt>
      <trkpt lat="44.45769" lon="6.55704">
        <ele>2104</ele>
        <time>2021-04-08T07:48:39Z</time>
      </trkpt>
      <trkpt lat="44.45769" lon="6.55705">
        <ele>2104</ele>
        <time>2021-04-08T07:48:40Z</time>
      </trkpt>
      <trkpt lat="44.45769" lon="6.55707">
        <ele>2104</ele>
        <time>2021-04-08T07:48:41Z</time>
      </trkpt>
      <trkpt lat="44.45769" lon="6.55708">
        <ele>2104</ele>
        <time>2021-04-08T07:48:42Z</time>
      </trkpt>
      <trkpt lat="44.45769" lon="6.55708">
        <ele>2104</ele>
        <time>2021-04-08T07:48:43Z</time>
      </trkpt>
      <trkpt lat="44.4577" lon="6.55709">
        <ele>2104</ele>
        <time>2021-04-08T07:48:44Z</time>
      </trkpt>
      <trkpt lat="44.4577" lon="6.55711">
        <ele>2104</ele>
        <time>2021-04-08T07:48:45Z</time>
      </trkpt>
      <trkpt lat="44.4577" lon="6.55712">
        <ele>2104</ele>
        <time>2021-04-08T07:48:46Z</time>
      </trkpt>
      <trkpt lat="44.4577" lon="6.55713">
        <ele>2104</ele>
        <time>2021-04-08T07:48:47Z</time>
      </trkpt>
      <trkpt lat="44.45771" lon="6.55713">
        <ele>2104</ele>
        <time>2021-04-08T07:48:48Z</time>
      </trkpt>
      <trkpt lat="44.45771" lon="6.55715">
        <ele>2104</ele>
        <time>2021-04-08T07:48:49Z</time>
      </trkpt>
      <trkpt lat="44.45771" lon="6.55715">
        <ele>2104</ele>
        <time>2021-04-08T07:48:50Z</time>
      </trkpt>
      <trkpt lat="44.45771" lon="6.55716">
        <ele>2104</ele>
        <time>2021-04-08T07:48:51Z</time>
      </trkpt>
      <trkpt lat="44.4577" lon="6.55717">
        <ele>2104</ele>
        <time>2021-04-08T07:48:52Z</time>
      </trkpt>
      <trkpt lat="44.4577" lon="6.55718">
        <ele>2105</ele>
        <time>2021-04-08T07:48:53Z</time>
      </trkpt>
      <trkpt lat="44.4577" lon="6.55719">
        <ele>2105</ele>
        <time>2021-04-08T07:48:54Z</time>
      </trkpt>
      <trkpt lat="44.4577" lon="6.55721">
        <ele>2105</ele>
        <time>2021-04-08T07:48:55Z</time>
      </trkpt>
      <trkpt lat="44.4577" lon="6.55721">
        <ele>2106</ele>
        <time>2021-04-08T07:48:56Z</time>
      </trkpt>
      <trkpt lat="44.4577" lon="6.55722">
        <ele>2106</ele>
        <time>2021-04-08T07:48:57Z</time>
      </trkpt>
      <trkpt lat="44.4577" lon="6.55723">
        <ele>2106</ele>
        <time>2021-04-08T07:48:58Z</time>
      </trkpt>
      <trkpt lat="44.4577" lon="6.55724">
        <ele>2106</ele>
        <time>2021-04-08T07:48:59Z</time>
      </trkpt>
      <trkpt lat="44.4577" lon="6.55725">
        <ele>2107</ele>
        <time>2021-04-08T07:49:00Z</time>
      </trkpt>
      <trkpt lat="44.4577" lon="6.55726">
        <ele>2107</ele>
        <time>2021-04-08T07:49:01Z</time>
      </trkpt>
      <trkpt lat="44.4577" lon="6.55727">
        <ele>2108</ele>
        <time>2021-04-08T07:49:02Z</time>
      </trkpt>
      <trkpt lat="44.4577" lon="6.55728">
        <ele>2108</ele>
        <time>2021-04-08T07:49:03Z</time>
      </trkpt>
      <trkpt lat="44.4577" lon="6.55729">
        <ele>2108</ele>
        <time>2021-04-08T07:49:04Z</time>
      </trkpt>
      <trkpt lat="44.4577" lon="6.55729">
        <ele>2109</ele>
        <time>2021-04-08T07:49:05Z</time>
      </trkpt>
      <trkpt lat="44.4577" lon="6.5573">
        <ele>2109</ele>
        <time>2021-04-08T07:49:06Z</time>
      </trkpt>
      <trkpt lat="44.45771" lon="6.5573">
        <ele>2109</ele>
        <time>2021-04-08T07:49:07Z</time>
      </trkpt>
      <trkpt lat="44.45771" lon="6.5573">
        <ele>2109</ele>
        <time>2021-04-08T07:49:08Z</time>
      </trkpt>
      <trkpt lat="44.45771" lon="6.55731">
        <ele>2110</ele>
        <time>2021-04-08T07:49:09Z</time>
      </trkpt>
      <trkpt lat="44.45771" lon="6.55732">
        <ele>2110</ele>
        <time>2021-04-08T07:49:10Z</time>
      </trkpt>
      <trkpt lat="44.45771" lon="6.55733">
        <ele>2110</ele>
        <time>2021-04-08T07:49:11Z</time>
      </trkpt>
      <trkpt lat="44.45771" lon="6.55734">
        <ele>2111</ele>
        <time>2021-04-08T07:49:12Z</time>
      </trkpt>
      <trkpt lat="44.4577" lon="6.55735">
        <ele>2111</ele>
        <time>2021-04-08T07:49:13Z</time>
      </trkpt>
      <trkpt lat="44.4577" lon="6.55735">
        <ele>2111</ele>
        <time>2021-04-08T07:49:14Z</time>
      </trkpt>
      <trkpt lat="44.4577" lon="6.55737">
        <ele>2111</ele>
        <time>2021-04-08T07:49:15Z</time>
      </trkpt>
      <trkpt lat="44.4577" lon="6.55738">
        <ele>2112</ele>
        <time>2021-04-08T07:49:16Z</time>
      </trkpt>
      <trkpt lat="44.4577" lon="6.55738">
        <ele>2112</ele>
        <time>2021-04-08T07:49:17Z</time>
      </trkpt>
      <trkpt lat="44.45769" lon="6.55739">
        <ele>2112</ele>
        <time>2021-04-08T07:49:18Z</time>
      </trkpt>
      <trkpt lat="44.45769" lon="6.5574">
        <ele>2112</ele>
        <time>2021-04-08T07:49:19Z</time>
      </trkpt>
      <trkpt lat="44.45769" lon="6.55741">
        <ele>2112</ele>
        <time>2021-04-08T07:49:20Z</time>
      </trkpt>
      <trkpt lat="44.45769" lon="6.55742">
        <ele>2112</ele>
        <time>2021-04-08T07:49:21Z</time>
      </trkpt>
      <trkpt lat="44.45768" lon="6.55744">
        <ele>2113</ele>
        <time>2021-04-08T07:49:22Z</time>
      </trkpt>
      <trkpt lat="44.45768" lon="6.55744">
        <ele>2113</ele>
        <time>2021-04-08T07:49:23Z</time>
      </trkpt>
      <trkpt lat="44.45768" lon="6.55744">
        <ele>2113</ele>
        <time>2021-04-08T07:49:24Z</time>
      </trkpt>
      <trkpt lat="44.45768" lon="6.55745">
        <ele>2113</ele>
        <time>2021-04-08T07:49:25Z</time>
      </trkpt>
      <trkpt lat="44.45768" lon="6.55745">
        <ele>2113</ele>
        <time>2021-04-08T07:49:26Z</time>
      </trkpt>
      <trkpt lat="44.45767" lon="6.55744">
        <ele>2114</ele>
        <time>2021-04-08T07:49:27Z</time>
      </trkpt>
      <trkpt lat="44.45767" lon="6.55744">
        <ele>2114</ele>
        <time>2021-04-08T07:49:28Z</time>
      </trkpt>
      <trkpt lat="44.45766" lon="6.55744">
        <ele>2114</ele>
        <time>2021-04-08T07:49:29Z</time>
      </trkpt>
      <trkpt lat="44.45766" lon="6.55744">
        <ele>2115</ele>
        <time>2021-04-08T07:49:30Z</time>
      </trkpt>
      <trkpt lat="44.45766" lon="6.55744">
        <ele>2115</ele>
        <time>2021-04-08T07:49:31Z</time>
      </trkpt>
      <trkpt lat="44.45765" lon="6.55744">
        <ele>2115</ele>
        <time>2021-04-08T07:49:32Z</time>
      </trkpt>
      <trkpt lat="44.45765" lon="6.55745">
        <ele>2115</ele>
        <time>2021-04-08T07:49:33Z</time>
      </trkpt>
      <trkpt lat="44.45765" lon="6.55745">
        <ele>2116</ele>
        <time>2021-04-08T07:49:34Z</time>
      </trkpt>
      <trkpt lat="44.45765" lon="6.55746">
        <ele>2116</ele>
        <time>2021-04-08T07:49:35Z</time>
      </trkpt>
      <trkpt lat="44.45765" lon="6.55747">
        <ele>2116</ele>
        <time>2021-04-08T07:49:36Z</time>
      </trkpt>
      <trkpt lat="44.45765" lon="6.55748">
        <ele>2116</ele>
        <time>2021-04-08T07:49:37Z</time>
      </trkpt>
      <trkpt lat="44.45765" lon="6.55749">
        <ele>2117</ele>
        <time>2021-04-08T07:49:38Z</time>
      </trkpt>
      <trkpt lat="44.45765" lon="6.5575">
        <ele>2117</ele>
        <time>2021-04-08T07:49:39Z</time>
      </trkpt>
      <trkpt lat="44.45765" lon="6.55751">
        <ele>2117</ele>
        <time>2021-04-08T07:49:40Z</time>
      </trkpt>
      <trkpt lat="44.45765" lon="6.55752">
        <ele>2118</ele>
        <time>2021-04-08T07:49:41Z</time>
      </trkpt>
      <trkpt lat="44.45765" lon="6.55753">
        <ele>2118</ele>
        <time>2021-04-08T07:49:42Z</time>
      </trkpt>
      <trkpt lat="44.45765" lon="6.55754">
        <ele>2118</ele>
        <time>2021-04-08T07:49:43Z</time>
      </trkpt>
      <trkpt lat="44.45765" lon="6.55755">
        <ele>2118</ele>
        <time>2021-04-08T07:49:44Z</time>
      </trkpt>
      <trkpt lat="44.45765" lon="6.55756">
        <ele>2118</ele>
        <time>2021-04-08T07:49:45Z</time>
      </trkpt>
      <trkpt lat="44.45765" lon="6.55757">
        <ele>2119</ele>
        <time>2021-04-08T07:49:46Z</time>
      </trkpt>
      <trkpt lat="44.45765" lon="6.55758">
        <ele>2119</ele>
        <time>2021-04-08T07:49:47Z</time>
      </trkpt>
      <trkpt lat="44.45765" lon="6.55759">
        <ele>2119</ele>
        <time>2021-04-08T07:49:48Z</time>
      </trkpt>
      <trkpt lat="44.45765" lon="6.5576">
        <ele>2119</ele>
        <time>2021-04-08T07:49:49Z</time>
      </trkpt>
      <trkpt lat="44.45765" lon="6.55761">
        <ele>2119</ele>
        <time>2021-04-08T07:49:50Z</time>
      </trkpt>
      <trkpt lat="44.45765" lon="6.55762">
        <ele>2119</ele>
        <time>2021-04-08T07:49:51Z</time>
      </trkpt>
      <trkpt lat="44.45765" lon="6.55763">
        <ele>2119</ele>
        <time>2021-04-08T07:49:52Z</time>
      </trkpt>
      <trkpt lat="44.45765" lon="6.55764">
        <ele>2119</ele>
        <time>2021-04-08T07:49:53Z</time>
      </trkpt>
      <trkpt lat="44.45765" lon="6.55765">
        <ele>2119</ele>
        <time>2021-04-08T07:49:54Z</time>
      </trkpt>
      <trkpt lat="44.45765" lon="6.55766">
        <ele>2119</ele>
        <time>2021-04-08T07:49:55Z</time>
      </trkpt>
      <trkpt lat="44.45766" lon="6.55767">
        <ele>2119</ele>
        <time>2021-04-08T07:49:56Z</time>
      </trkpt>
      <trkpt lat="44.45766" lon="6.55768">
        <ele>2119</ele>
        <time>2021-04-08T07:49:57Z</time>
      </trkpt>
      <trkpt lat="44.45766" lon="6.55769">
        <ele>2119</ele>
        <time>2021-04-08T07:49:58Z</time>
      </trkpt>
      <trkpt lat="44.45766" lon="6.55769">
        <ele>2119</ele>
        <time>2021-04-08T07:49:59Z</time>
      </trkpt>
      <trkpt lat="44.45766" lon="6.55771">
        <ele>2119</ele>
        <time>2021-04-08T07:50:00Z</time>
      </trkpt>
      <trkpt lat="44.45765" lon="6.55772">
        <ele>2119</ele>
        <time>2021-04-08T07:50:01Z</time>
      </trkpt>
      <trkpt lat="44.45765" lon="6.55773">
        <ele>2119</ele>
        <time>2021-04-08T07:50:02Z</time>
      </trkpt>
      <trkpt lat="44.45764" lon="6.55774">
        <ele>2119</ele>
        <time>2021-04-08T07:50:03Z</time>
      </trkpt>
      <trkpt lat="44.45764" lon="6.55775">
        <ele>2119</ele>
        <time>2021-04-08T07:50:04Z</time>
      </trkpt>
      <trkpt lat="44.45763" lon="6.55776">
        <ele>2119</ele>
        <time>2021-04-08T07:50:05Z</time>
      </trkpt>
      <trkpt lat="44.45763" lon="6.55776">
        <ele>2119</ele>
        <time>2021-04-08T07:50:06Z</time>
      </trkpt>
      <trkpt lat="44.45763" lon="6.55777">
        <ele>2119</ele>
        <time>2021-04-08T07:50:07Z</time>
      </trkpt>
      <trkpt lat="44.45763" lon="6.55778">
        <ele>2119</ele>
        <time>2021-04-08T07:50:08Z</time>
      </trkpt>
      <trkpt lat="44.45762" lon="6.55778">
        <ele>2119</ele>
        <time>2021-04-08T07:50:09Z</time>
      </trkpt>
      <trkpt lat="44.45761" lon="6.55779">
        <ele>2119</ele>
        <time>2021-04-08T07:50:10Z</time>
      </trkpt>
      <trkpt lat="44.45761" lon="6.5578">
        <ele>2119</ele>
        <time>2021-04-08T07:50:11Z</time>
      </trkpt>
      <trkpt lat="44.4576" lon="6.5578">
        <ele>2119</ele>
        <time>2021-04-08T07:50:12Z</time>
      </trkpt>
      <trkpt lat="44.4576" lon="6.5578">
        <ele>2119</ele>
        <time>2021-04-08T07:50:13Z</time>
      </trkpt>
      <trkpt lat="44.4576" lon="6.55781">
        <ele>2119</ele>
        <time>2021-04-08T07:50:14Z</time>
      </trkpt>
      <trkpt lat="44.45759" lon="6.5578">
        <ele>2119</ele>
        <time>2021-04-08T07:50:15Z</time>
      </trkpt>
      <trkpt lat="44.45759" lon="6.5578">
        <ele>2119</ele>
        <time>2021-04-08T07:50:16Z</time>
      </trkpt>
      <trkpt lat="44.45759" lon="6.5578">
        <ele>2119</ele>
        <time>2021-04-08T07:50:17Z</time>
      </trkpt>
      <trkpt lat="44.45759" lon="6.55778">
        <ele>2119</ele>
        <time>2021-04-08T07:50:18Z</time>
      </trkpt>
      <trkpt lat="44.45758" lon="6.55777">
        <ele>2119</ele>
        <time>2021-04-08T07:50:19Z</time>
      </trkpt>
      <trkpt lat="44.45757" lon="6.55777">
        <ele>2119</ele>
        <time>2021-04-08T07:50:20Z</time>
      </trkpt>
      <trkpt lat="44.45757" lon="6.55776">
        <ele>2119</ele>
        <time>2021-04-08T07:50:21Z</time>
      </trkpt>
      <trkpt lat="44.45757" lon="6.55775">
        <ele>2119</ele>
        <time>2021-04-08T07:50:22Z</time>
      </trkpt>
      <trkpt lat="44.45756" lon="6.55775">
        <ele>2120</ele>
        <time>2021-04-08T07:50:23Z</time>
      </trkpt>
      <trkpt lat="44.45756" lon="6.55774">
        <ele>2120</ele>
        <time>2021-04-08T07:50:24Z</time>
      </trkpt>
      <trkpt lat="44.45756" lon="6.55773">
        <ele>2120</ele>
        <time>2021-04-08T07:50:25Z</time>
      </trkpt>
      <trkpt lat="44.45756" lon="6.55772">
        <ele>2120</ele>
        <time>2021-04-08T07:50:26Z</time>
      </trkpt>
      <trkpt lat="44.45755" lon="6.55772">
        <ele>2120</ele>
        <time>2021-04-08T07:50:27Z</time>
      </trkpt>
      <trkpt lat="44.45755" lon="6.55771">
        <ele>2120</ele>
        <time>2021-04-08T07:50:28Z</time>
      </trkpt>
      <trkpt lat="44.45754" lon="6.55771">
        <ele>2120</ele>
        <time>2021-04-08T07:50:29Z</time>
      </trkpt>
      <trkpt lat="44.45754" lon="6.55771">
        <ele>2120</ele>
        <time>2021-04-08T07:50:30Z</time>
      </trkpt>
      <trkpt lat="44.45754" lon="6.5577">
        <ele>2120</ele>
        <time>2021-04-08T07:50:31Z</time>
      </trkpt>
      <trkpt lat="44.45753" lon="6.55769">
        <ele>2120</ele>
        <time>2021-04-08T07:50:32Z</time>
      </trkpt>
      <trkpt lat="44.45753" lon="6.55769">
        <ele>2120</ele>
        <time>2021-04-08T07:50:33Z</time>
      </trkpt>
      <trkpt lat="44.45753" lon="6.55768">
        <ele>2121</ele>
        <time>2021-04-08T07:50:34Z</time>
      </trkpt>
      <trkpt lat="44.45752" lon="6.55768">
        <ele>2121</ele>
        <time>2021-04-08T07:50:35Z</time>
      </trkpt>
      <trkpt lat="44.45752" lon="6.55767">
        <ele>2121</ele>
        <time>2021-04-08T07:50:36Z</time>
      </trkpt>
      <trkpt lat="44.45752" lon="6.55767">
        <ele>2121</ele>
        <time>2021-04-08T07:50:37Z</time>
      </trkpt>
      <trkpt lat="44.45751" lon="6.55766">
        <ele>2121</ele>
        <time>2021-04-08T07:50:38Z</time>
      </trkpt>
      <trkpt lat="44.45751" lon="6.55766">
        <ele>2121</ele>
        <time>2021-04-08T07:50:39Z</time>
      </trkpt>
      <trkpt lat="44.45751" lon="6.55765">
        <ele>2122</ele>
        <time>2021-04-08T07:50:40Z</time>
      </trkpt>
      <trkpt lat="44.4575" lon="6.55765">
        <ele>2122</ele>
        <time>2021-04-08T07:50:41Z</time>
      </trkpt>
      <trkpt lat="44.4575" lon="6.55764">
        <ele>2122</ele>
        <time>2021-04-08T07:50:42Z</time>
      </trkpt>
      <trkpt lat="44.4575" lon="6.55763">
        <ele>2122</ele>
        <time>2021-04-08T07:50:43Z</time>
      </trkpt>
      <trkpt lat="44.45749" lon="6.55763">
        <ele>2122</ele>
        <time>2021-04-08T07:50:44Z</time>
      </trkpt>
      <trkpt lat="44.45749" lon="6.55762">
        <ele>2123</ele>
        <time>2021-04-08T07:50:45Z</time>
      </trkpt>
      <trkpt lat="44.45748" lon="6.55761">
        <ele>2123</ele>
        <time>2021-04-08T07:50:46Z</time>
      </trkpt>
      <trkpt lat="44.45748" lon="6.55761">
        <ele>2123</ele>
        <time>2021-04-08T07:50:47Z</time>
      </trkpt>
      <trkpt lat="44.45747" lon="6.5576">
        <ele>2123</ele>
        <time>2021-04-08T07:50:48Z</time>
      </trkpt>
      <trkpt lat="44.45746" lon="6.5576">
        <ele>2124</ele>
        <time>2021-04-08T07:50:49Z</time>
      </trkpt>
      <trkpt lat="44.45746" lon="6.55759">
        <ele>2124</ele>
        <time>2021-04-08T07:50:50Z</time>
      </trkpt>
      <trkpt lat="44.45746" lon="6.55759">
        <ele>2124</ele>
        <time>2021-04-08T07:50:51Z</time>
      </trkpt>
      <trkpt lat="44.45745" lon="6.55758">
        <ele>2124</ele>
        <time>2021-04-08T07:50:52Z</time>
      </trkpt>
      <trkpt lat="44.45745" lon="6.55758">
        <ele>2124</ele>
        <time>2021-04-08T07:50:53Z</time>
      </trkpt>
      <trkpt lat="44.45745" lon="6.55757">
        <ele>2124</ele>
        <time>2021-04-08T07:50:54Z</time>
      </trkpt>
      <trkpt lat="44.45744" lon="6.55757">
        <ele>2125</ele>
        <time>2021-04-08T07:50:55Z</time>
      </trkpt>
      <trkpt lat="44.45744" lon="6.55757">
        <ele>2125</ele>
        <time>2021-04-08T07:50:56Z</time>
      </trkpt>
      <trkpt lat="44.45744" lon="6.55757">
        <ele>2125</ele>
        <time>2021-04-08T07:50:57Z</time>
      </trkpt>
      <trkpt lat="44.45743" lon="6.55756">
        <ele>2125</ele>
        <time>2021-04-08T07:50:58Z</time>
      </trkpt>
      <trkpt lat="44.45743" lon="6.55756">
        <ele>2126</ele>
        <time>2021-04-08T07:50:59Z</time>
      </trkpt>
      <trkpt lat="44.45742" lon="6.55756">
        <ele>2126</ele>
        <time>2021-04-08T07:51:00Z</time>
      </trkpt>
      <trkpt lat="44.45742" lon="6.55756">
        <ele>2126</ele>
        <time>2021-04-08T07:51:01Z</time>
      </trkpt>
      <trkpt lat="44.45741" lon="6.55756">
        <ele>2126</ele>
        <time>2021-04-08T07:51:02Z</time>
      </trkpt>
      <trkpt lat="44.45741" lon="6.55756">
        <ele>2126</ele>
        <time>2021-04-08T07:51:03Z</time>
      </trkpt>
      <trkpt lat="44.45741" lon="6.55756">
        <ele>2127</ele>
        <time>2021-04-08T07:51:04Z</time>
      </trkpt>
      <trkpt lat="44.45741" lon="6.55756">
        <ele>2127</ele>
        <time>2021-04-08T07:51:05Z</time>
      </trkpt>
      <trkpt lat="44.45742" lon="6.55756">
        <ele>2127</ele>
        <time>2021-04-08T07:51:06Z</time>
      </trkpt>
      <trkpt lat="44.45742" lon="6.55756">
        <ele>2127</ele>
        <time>2021-04-08T07:51:07Z</time>
      </trkpt>
      <trkpt lat="44.45742" lon="6.55756">
        <ele>2127</ele>
        <time>2021-04-08T07:51:08Z</time>
      </trkpt>
      <trkpt lat="44.45742" lon="6.55756">
        <ele>2127</ele>
        <time>2021-04-08T07:51:09Z</time>
      </trkpt>
      <trkpt lat="44.45742" lon="6.55756">
        <ele>2127</ele>
        <time>2021-04-08T07:51:10Z</time>
      </trkpt>
      <trkpt lat="44.45742" lon="6.55756">
        <ele>2127</ele>
        <time>2021-04-08T07:51:11Z</time>
      </trkpt>
      <trkpt lat="44.45742" lon="6.55756">
        <ele>2127</ele>
        <time>2021-04-08T07:51:12Z</time>
      </trkpt>
      <trkpt lat="44.45742" lon="6.55756">
        <ele>2127</ele>
        <time>2021-04-08T07:51:13Z</time>
      </trkpt>
      <trkpt lat="44.45742" lon="6.55756">
        <ele>2127</ele>
        <time>2021-04-08T07:51:14Z</time>
      </trkpt>
      <trkpt lat="44.45742" lon="6.55756">
        <ele>2127</ele>
        <time>2021-04-08T07:51:15Z</time>
      </trkpt>
      <trkpt lat="44.45742" lon="6.55756">
        <ele>2127</ele>
        <time>2021-04-08T07:51:16Z</time>
      </trkpt>
      <trkpt lat="44.45742" lon="6.55756">
        <ele>2127</ele>
        <time>2021-04-08T07:51:17Z</time>
      </trkpt>
      <trkpt lat="44.45742" lon="6.55756">
        <ele>2127</ele>
        <time>2021-04-08T07:51:18Z</time>
      </trkpt>
      <trkpt lat="44.45742" lon="6.55756">
        <ele>2127</ele>
        <time>2021-04-08T07:51:19Z</time>
      </trkpt>
      <trkpt lat="44.45742" lon="6.55756">
        <ele>2127</ele>
        <time>2021-04-08T07:51:20Z</time>
      </trkpt>
      <trkpt lat="44.4574" lon="6.55753">
        <ele>2127</ele>
        <time>2021-04-08T07:51:21Z</time>
      </trkpt>
      <trkpt lat="44.4574" lon="6.55753">
        <ele>2127</ele>
        <time>2021-04-08T07:51:22Z</time>
      </trkpt>
      <trkpt lat="44.4574" lon="6.55752">
        <ele>2129</ele>
        <time>2021-04-08T07:51:23Z</time>
      </trkpt>
      <trkpt lat="44.45739" lon="6.55752">
        <ele>2129</ele>
        <time>2021-04-08T07:51:24Z</time>
      </trkpt>
      <trkpt lat="44.45739" lon="6.55752">
        <ele>2129</ele>
        <time>2021-04-08T07:51:25Z</time>
      </trkpt>
      <trkpt lat="44.45738" lon="6.55752">
        <ele>2130</ele>
        <time>2021-04-08T07:51:26Z</time>
      </trkpt>
      <trkpt lat="44.45738" lon="6.55752">
        <ele>2130</ele>
        <time>2021-04-08T07:51:27Z</time>
      </trkpt>
      <trkpt lat="44.45737" lon="6.55752">
        <ele>2130</ele>
        <time>2021-04-08T07:51:28Z</time>
      </trkpt>
      <trkpt lat="44.45736" lon="6.55752">
        <ele>2131</ele>
        <time>2021-04-08T07:51:29Z</time>
      </trkpt>
      <trkpt lat="44.45736" lon="6.55752">
        <ele>2131</ele>
        <time>2021-04-08T07:51:30Z</time>
      </trkpt>
      <trkpt lat="44.45735" lon="6.55751">
        <ele>2132</ele>
        <time>2021-04-08T07:51:31Z</time>
      </trkpt>
      <trkpt lat="44.45735" lon="6.55751">
        <ele>2132</ele>
        <time>2021-04-08T07:51:32Z</time>
      </trkpt>
      <trkpt lat="44.45734" lon="6.55751">
        <ele>2132</ele>
        <time>2021-04-08T07:51:33Z</time>
      </trkpt>
      <trkpt lat="44.45734" lon="6.5575">
        <ele>2133</ele>
        <time>2021-04-08T07:51:34Z</time>
      </trkpt>
      <trkpt lat="44.45733" lon="6.5575">
        <ele>2133</ele>
        <time>2021-04-08T07:51:35Z</time>
      </trkpt>
      <trkpt lat="44.45733" lon="6.5575">
        <ele>2133</ele>
        <time>2021-04-08T07:51:36Z</time>
      </trkpt>
      <trkpt lat="44.45733" lon="6.5575">
        <ele>2133</ele>
        <time>2021-04-08T07:51:37Z</time>
      </trkpt>
      <trkpt lat="44.45733" lon="6.5575">
        <ele>2133</ele>
        <time>2021-04-08T07:51:38Z</time>
      </trkpt>
      <trkpt lat="44.45733" lon="6.5575">
        <ele>2133</ele>
        <time>2021-04-08T07:51:39Z</time>
      </trkpt>
      <trkpt lat="44.45733" lon="6.5575">
        <ele>2133</ele>
        <time>2021-04-08T07:51:40Z</time>
      </trkpt>
      <trkpt lat="44.45733" lon="6.55749">
        <ele>2133</ele>
        <time>2021-04-08T07:51:41Z</time>
      </trkpt>
      <trkpt lat="44.45733" lon="6.55749">
        <ele>2133</ele>
        <time>2021-04-08T07:51:42Z</time>
      </trkpt>
      <trkpt lat="44.45733" lon="6.55749">
        <ele>2133</ele>
        <time>2021-04-08T07:51:43Z</time>
      </trkpt>
      <trkpt lat="44.45733" lon="6.55749">
        <ele>2133</ele>
        <time>2021-04-08T07:51:44Z</time>
      </trkpt>
      <trkpt lat="44.45733" lon="6.55749">
        <ele>2133</ele>
        <time>2021-04-08T07:51:45Z</time>
      </trkpt>
      <trkpt lat="44.45733" lon="6.55749">
        <ele>2133</ele>
        <time>2021-04-08T07:51:46Z</time>
      </trkpt>
      <trkpt lat="44.45733" lon="6.55749">
        <ele>2133</ele>
        <time>2021-04-08T07:51:47Z</time>
      </trkpt>
      <trkpt lat="44.45733" lon="6.55749">
        <ele>2133</ele>
        <time>2021-04-08T07:51:48Z</time>
      </trkpt>
      <trkpt lat="44.45733" lon="6.55749">
        <ele>2133</ele>
        <time>2021-04-08T07:51:49Z</time>
      </trkpt>
      <trkpt lat="44.45733" lon="6.55749">
        <ele>2133</ele>
        <time>2021-04-08T07:51:50Z</time>
      </trkpt>
      <trkpt lat="44.45733" lon="6.55749">
        <ele>2133</ele>
        <time>2021-04-08T07:51:51Z</time>
      </trkpt>
      <trkpt lat="44.45733" lon="6.55749">
        <ele>2133</ele>
        <time>2021-04-08T07:51:52Z</time>
      </trkpt>
      <trkpt lat="44.45733" lon="6.55749">
        <ele>2133</ele>
        <time>2021-04-08T07:51:53Z</time>
      </trkpt>
      <trkpt lat="44.45733" lon="6.55749">
        <ele>2133</ele>
        <time>2021-04-08T07:51:54Z</time>
      </trkpt>
      <trkpt lat="44.45733" lon="6.55749">
        <ele>2133</ele>
        <time>2021-04-08T07:51:55Z</time>
      </trkpt>
      <trkpt lat="44.45732" lon="6.5575">
        <ele>2133</ele>
        <time>2021-04-08T07:51:56Z</time>
      </trkpt>
      <trkpt lat="44.45732" lon="6.5575">
        <ele>2133</ele>
        <time>2021-04-08T07:51:57Z</time>
      </trkpt>
      <trkpt lat="44.45731" lon="6.5575">
        <ele>2134</ele>
        <time>2021-04-08T07:51:58Z</time>
      </trkpt>
      <trkpt lat="44.4573" lon="6.5575">
        <ele>2134</ele>
        <time>2021-04-08T07:51:59Z</time>
      </trkpt>
      <trkpt lat="44.45729" lon="6.55749">
        <ele>2134</ele>
        <time>2021-04-08T07:52:00Z</time>
      </trkpt>
      <trkpt lat="44.45729" lon="6.55748">
        <ele>2134</ele>
        <time>2021-04-08T07:52:01Z</time>
      </trkpt>
      <trkpt lat="44.45728" lon="6.55748">
        <ele>2135</ele>
        <time>2021-04-08T07:52:02Z</time>
      </trkpt>
      <trkpt lat="44.45727" lon="6.55747">
        <ele>2135</ele>
        <time>2021-04-08T07:52:03Z</time>
      </trkpt>
      <trkpt lat="44.45726" lon="6.55747">
        <ele>2135</ele>
        <time>2021-04-08T07:52:04Z</time>
      </trkpt>
      <trkpt lat="44.45725" lon="6.55747">
        <ele>2135</ele>
        <time>2021-04-08T07:52:05Z</time>
      </trkpt>
      <trkpt lat="44.45724" lon="6.55747">
        <ele>2135</ele>
        <time>2021-04-08T07:52:06Z</time>
      </trkpt>
      <trkpt lat="44.45724" lon="6.55747">
        <ele>2136</ele>
        <time>2021-04-08T07:52:07Z</time>
      </trkpt>
      <trkpt lat="44.45723" lon="6.55746">
        <ele>2136</ele>
        <time>2021-04-08T07:52:08Z</time>
      </trkpt>
      <trkpt lat="44.45722" lon="6.55746">
        <ele>2136</ele>
        <time>2021-04-08T07:52:09Z</time>
      </trkpt>
      <trkpt lat="44.45721" lon="6.55745">
        <ele>2136</ele>
        <time>2021-04-08T07:52:10Z</time>
      </trkpt>
      <trkpt lat="44.45721" lon="6.55745">
        <ele>2136</ele>
        <time>2021-04-08T07:52:11Z</time>
      </trkpt>
      <trkpt lat="44.4572" lon="6.55744">
        <ele>2136</ele>
        <time>2021-04-08T07:52:12Z</time>
      </trkpt>
      <trkpt lat="44.45719" lon="6.55744">
        <ele>2136</ele>
        <time>2021-04-08T07:52:13Z</time>
      </trkpt>
      <trkpt lat="44.45718" lon="6.55744">
        <ele>2136</ele>
        <time>2021-04-08T07:52:14Z</time>
      </trkpt>
      <trkpt lat="44.45718" lon="6.55744">
        <ele>2137</ele>
        <time>2021-04-08T07:52:15Z</time>
      </trkpt>
      <trkpt lat="44.45717" lon="6.55744">
        <ele>2137</ele>
        <time>2021-04-08T07:52:16Z</time>
      </trkpt>
      <trkpt lat="44.45717" lon="6.55745">
        <ele>2137</ele>
        <time>2021-04-08T07:52:17Z</time>
      </trkpt>
      <trkpt lat="44.45716" lon="6.55745">
        <ele>2137</ele>
        <time>2021-04-08T07:52:18Z</time>
      </trkpt>
      <trkpt lat="44.45716" lon="6.55746">
        <ele>2137</ele>
        <time>2021-04-08T07:52:19Z</time>
      </trkpt>
      <trkpt lat="44.45715" lon="6.55746">
        <ele>2137</ele>
        <time>2021-04-08T07:52:20Z</time>
      </trkpt>
      <trkpt lat="44.45715" lon="6.55747">
        <ele>2137</ele>
        <time>2021-04-08T07:52:21Z</time>
      </trkpt>
      <trkpt lat="44.45715" lon="6.55748">
        <ele>2138</ele>
        <time>2021-04-08T07:52:22Z</time>
      </trkpt>
      <trkpt lat="44.45714" lon="6.55749">
        <ele>2138</ele>
        <time>2021-04-08T07:52:23Z</time>
      </trkpt>
      <trkpt lat="44.45714" lon="6.5575">
        <ele>2138</ele>
        <time>2021-04-08T07:52:24Z</time>
      </trkpt>
      <trkpt lat="44.45714" lon="6.5575">
        <ele>2138</ele>
        <time>2021-04-08T07:52:25Z</time>
      </trkpt>
      <trkpt lat="44.45713" lon="6.55751">
        <ele>2138</ele>
        <time>2021-04-08T07:52:26Z</time>
      </trkpt>
      <trkpt lat="44.45713" lon="6.55752">
        <ele>2138</ele>
        <time>2021-04-08T07:52:27Z</time>
      </trkpt>
      <trkpt lat="44.45713" lon="6.55752">
        <ele>2139</ele>
        <time>2021-04-08T07:52:28Z</time>
      </trkpt>
      <trkpt lat="44.45713" lon="6.55753">
        <ele>2139</ele>
        <time>2021-04-08T07:52:29Z</time>
      </trkpt>
      <trkpt lat="44.45712" lon="6.55754">
        <ele>2139</ele>
        <time>2021-04-08T07:52:30Z</time>
      </trkpt>
      <trkpt lat="44.45712" lon="6.55755">
        <ele>2139</ele>
        <time>2021-04-08T07:52:31Z</time>
      </trkpt>
      <trkpt lat="44.45712" lon="6.55755">
        <ele>2140</ele>
        <time>2021-04-08T07:52:32Z</time>
      </trkpt>
      <trkpt lat="44.45711" lon="6.55756">
        <ele>2140</ele>
        <time>2021-04-08T07:52:33Z</time>
      </trkpt>
      <trkpt lat="44.45712" lon="6.55758">
        <ele>2140</ele>
        <time>2021-04-08T07:52:34Z</time>
      </trkpt>
      <trkpt lat="44.45712" lon="6.55759">
        <ele>2140</ele>
        <time>2021-04-08T07:52:35Z</time>
      </trkpt>
      <trkpt lat="44.45711" lon="6.5576">
        <ele>2140</ele>
        <time>2021-04-08T07:52:36Z</time>
      </trkpt>
      <trkpt lat="44.45712" lon="6.55761">
        <ele>2141</ele>
        <time>2021-04-08T07:52:37Z</time>
      </trkpt>
      <trkpt lat="44.45712" lon="6.55762">
        <ele>2141</ele>
        <time>2021-04-08T07:52:38Z</time>
      </trkpt>
      <trkpt lat="44.45712" lon="6.55762">
        <ele>2141</ele>
        <time>2021-04-08T07:52:39Z</time>
      </trkpt>
      <trkpt lat="44.45712" lon="6.55761">
        <ele>2141</ele>
        <time>2021-04-08T07:52:40Z</time>
      </trkpt>
      <trkpt lat="44.45712" lon="6.55761">
        <ele>2141</ele>
        <time>2021-04-08T07:52:41Z</time>
      </trkpt>
      <trkpt lat="44.45712" lon="6.55761">
        <ele>2141</ele>
        <time>2021-04-08T07:52:42Z</time>
      </trkpt>
      <trkpt lat="44.45712" lon="6.55761">
        <ele>2141</ele>
        <time>2021-04-08T07:52:43Z</time>
      </trkpt>
      <trkpt lat="44.45712" lon="6.55761">
        <ele>2141</ele>
        <time>2021-04-08T07:52:44Z</time>
      </trkpt>
      <trkpt lat="44.45712" lon="6.55761">
        <ele>2141</ele>
        <time>2021-04-08T07:52:45Z</time>
      </trkpt>
      <trkpt lat="44.45712" lon="6.55761">
        <ele>2141</ele>
        <time>2021-04-08T07:52:46Z</time>
      </trkpt>
      <trkpt lat="44.45712" lon="6.55761">
        <ele>2141</ele>
        <time>2021-04-08T07:52:47Z</time>
      </trkpt>
      <trkpt lat="44.45712" lon="6.55761">
        <ele>2141</ele>
        <time>2021-04-08T07:52:48Z</time>
      </trkpt>
      <trkpt lat="44.45712" lon="6.55761">
        <ele>2141</ele>
        <time>2021-04-08T07:52:49Z</time>
      </trkpt>
      <trkpt lat="44.45712" lon="6.55761">
        <ele>2141</ele>
        <time>2021-04-08T07:52:50Z</time>
      </trkpt>
      <trkpt lat="44.45712" lon="6.55761">
        <ele>2141</ele>
        <time>2021-04-08T07:52:51Z</time>
      </trkpt>
      <trkpt lat="44.45712" lon="6.55761">
        <ele>2141</ele>
        <time>2021-04-08T07:52:52Z</time>
      </trkpt>
      <trkpt lat="44.45712" lon="6.55761">
        <ele>2141</ele>
        <time>2021-04-08T07:52:53Z</time>
      </trkpt>
      <trkpt lat="44.45712" lon="6.55761">
        <ele>2141</ele>
        <time>2021-04-08T07:52:54Z</time>
      </trkpt>
      <trkpt lat="44.45712" lon="6.55761">
        <ele>2141</ele>
        <time>2021-04-08T07:52:55Z</time>
      </trkpt>
      <trkpt lat="44.45712" lon="6.55761">
        <ele>2141</ele>
        <time>2021-04-08T07:52:56Z</time>
      </trkpt>
      <trkpt lat="44.45712" lon="6.55761">
        <ele>2141</ele>
        <time>2021-04-08T07:52:57Z</time>
      </trkpt>
      <trkpt lat="44.45712" lon="6.55761">
        <ele>2141</ele>
        <time>2021-04-08T07:52:58Z</time>
      </trkpt>
      <trkpt lat="44.45712" lon="6.55763">
        <ele>2141</ele>
        <time>2021-04-08T07:52:59Z</time>
      </trkpt>
      <trkpt lat="44.45712" lon="6.55763">
        <ele>2141</ele>
        <time>2021-04-08T07:53:00Z</time>
      </trkpt>
      <trkpt lat="44.45712" lon="6.55764">
        <ele>2140</ele>
        <time>2021-04-08T07:53:01Z</time>
      </trkpt>
      <trkpt lat="44.45712" lon="6.55764">
        <ele>2140</ele>
        <time>2021-04-08T07:53:02Z</time>
      </trkpt>
      <trkpt lat="44.45712" lon="6.55764">
        <ele>2140</ele>
        <time>2021-04-08T07:53:03Z</time>
      </trkpt>
      <trkpt lat="44.45712" lon="6.55764">
        <ele>2140</ele>
        <time>2021-04-08T07:53:04Z</time>
      </trkpt>
      <trkpt lat="44.45712" lon="6.55764">
        <ele>2140</ele>
        <time>2021-04-08T07:53:05Z</time>
      </trkpt>
      <trkpt lat="44.45712" lon="6.55764">
        <ele>2140</ele>
        <time>2021-04-08T07:53:06Z</time>
      </trkpt>
      <trkpt lat="44.45712" lon="6.55764">
        <ele>2139</ele>
        <time>2021-04-08T07:53:07Z</time>
      </trkpt>
      <trkpt lat="44.45712" lon="6.55764">
        <ele>2139</ele>
        <time>2021-04-08T07:53:08Z</time>
      </trkpt>
      <trkpt lat="44.45712" lon="6.55764">
        <ele>2139</ele>
        <time>2021-04-08T07:53:09Z</time>
      </trkpt>
      <trkpt lat="44.45712" lon="6.55764">
        <ele>2139</ele>
        <time>2021-04-08T07:53:10Z</time>
      </trkpt>
      <trkpt lat="44.45712" lon="6.55764">
        <ele>2139</ele>
        <time>2021-04-08T07:53:11Z</time>
      </trkpt>
      <trkpt lat="44.45712" lon="6.55764">
        <ele>2139</ele>
        <time>2021-04-08T07:53:12Z</time>
      </trkpt>
      <trkpt lat="44.45712" lon="6.55764">
        <ele>2139</ele>
        <time>2021-04-08T07:53:13Z</time>
      </trkpt>
      <trkpt lat="44.45712" lon="6.55764">
        <ele>2139</ele>
        <time>2021-04-08T07:53:14Z</time>
      </trkpt>
      <trkpt lat="44.45712" lon="6.55764">
        <ele>2139</ele>
        <time>2021-04-08T07:53:15Z</time>
      </trkpt>
      <trkpt lat="44.45712" lon="6.55765">
        <ele>2139</ele>
        <time>2021-04-08T07:53:16Z</time>
      </trkpt>
      <trkpt lat="44.45712" lon="6.55765">
        <ele>2140</ele>
        <time>2021-04-08T07:53:17Z</time>
      </trkpt>
      <trkpt lat="44.45711" lon="6.55765">
        <ele>2140</ele>
        <time>2021-04-08T07:53:18Z</time>
      </trkpt>
      <trkpt lat="44.45711" lon="6.55765">
        <ele>2140</ele>
        <time>2021-04-08T07:53:19Z</time>
      </trkpt>
      <trkpt lat="44.45711" lon="6.55765">
        <ele>2140</ele>
        <time>2021-04-08T07:53:20Z</time>
      </trkpt>
      <trkpt lat="44.45711" lon="6.55765">
        <ele>2140</ele>
        <time>2021-04-08T07:53:21Z</time>
      </trkpt>
      <trkpt lat="44.4571" lon="6.55767">
        <ele>2140</ele>
        <time>2021-04-08T07:53:22Z</time>
      </trkpt>
      <trkpt lat="44.45709" lon="6.55768">
        <ele>2140</ele>
        <time>2021-04-08T07:53:23Z</time>
      </trkpt>
      <trkpt lat="44.45709" lon="6.55768">
        <ele>2140</ele>
        <time>2021-04-08T07:53:24Z</time>
      </trkpt>
      <trkpt lat="44.45708" lon="6.55769">
        <ele>2141</ele>
        <time>2021-04-08T07:53:25Z</time>
      </trkpt>
      <trkpt lat="44.45708" lon="6.55769">
        <ele>2141</ele>
        <time>2021-04-08T07:53:26Z</time>
      </trkpt>
      <trkpt lat="44.45708" lon="6.5577">
        <ele>2141</ele>
        <time>2021-04-08T07:53:27Z</time>
      </trkpt>
      <trkpt lat="44.45707" lon="6.5577">
        <ele>2141</ele>
        <time>2021-04-08T07:53:28Z</time>
      </trkpt>
      <trkpt lat="44.45706" lon="6.55771">
        <ele>2141</ele>
        <time>2021-04-08T07:53:29Z</time>
      </trkpt>
      <trkpt lat="44.45706" lon="6.55771">
        <ele>2141</ele>
        <time>2021-04-08T07:53:30Z</time>
      </trkpt>
      <trkpt lat="44.45706" lon="6.55772">
        <ele>2142</ele>
        <time>2021-04-08T07:53:31Z</time>
      </trkpt>
      <trkpt lat="44.45705" lon="6.55773">
        <ele>2142</ele>
        <time>2021-04-08T07:53:32Z</time>
      </trkpt>
      <trkpt lat="44.45704" lon="6.55773">
        <ele>2142</ele>
        <time>2021-04-08T07:53:33Z</time>
      </trkpt>
      <trkpt lat="44.45704" lon="6.55773">
        <ele>2142</ele>
        <time>2021-04-08T07:53:34Z</time>
      </trkpt>
      <trkpt lat="44.45703" lon="6.55773">
        <ele>2142</ele>
        <time>2021-04-08T07:53:35Z</time>
      </trkpt>
      <trkpt lat="44.45703" lon="6.55773">
        <ele>2142</ele>
        <time>2021-04-08T07:53:36Z</time>
      </trkpt>
      <trkpt lat="44.45702" lon="6.55773">
        <ele>2142</ele>
        <time>2021-04-08T07:53:37Z</time>
      </trkpt>
      <trkpt lat="44.45702" lon="6.55773">
        <ele>2142</ele>
        <time>2021-04-08T07:53:38Z</time>
      </trkpt>
      <trkpt lat="44.45701" lon="6.55773">
        <ele>2142</ele>
        <time>2021-04-08T07:53:39Z</time>
      </trkpt>
      <trkpt lat="44.457" lon="6.55773">
        <ele>2142</ele>
        <time>2021-04-08T07:53:40Z</time>
      </trkpt>
      <trkpt lat="44.457" lon="6.55773">
        <ele>2143</ele>
        <time>2021-04-08T07:53:41Z</time>
      </trkpt>
      <trkpt lat="44.45699" lon="6.55773">
        <ele>2143</ele>
        <time>2021-04-08T07:53:42Z</time>
      </trkpt>
      <trkpt lat="44.45698" lon="6.55774">
        <ele>2143</ele>
        <time>2021-04-08T07:53:43Z</time>
      </trkpt>
      <trkpt lat="44.45698" lon="6.55775">
        <ele>2143</ele>
        <time>2021-04-08T07:53:44Z</time>
      </trkpt>
      <trkpt lat="44.45697" lon="6.55775">
        <ele>2143</ele>
        <time>2021-04-08T07:53:45Z</time>
      </trkpt>
      <trkpt lat="44.45696" lon="6.55775">
        <ele>2144</ele>
        <time>2021-04-08T07:53:46Z</time>
      </trkpt>
      <trkpt lat="44.45695" lon="6.55776">
        <ele>2144</ele>
        <time>2021-04-08T07:53:47Z</time>
      </trkpt>
      <trkpt lat="44.45695" lon="6.55777">
        <ele>2144</ele>
        <time>2021-04-08T07:53:48Z</time>
      </trkpt>
      <trkpt lat="44.45694" lon="6.55777">
        <ele>2144</ele>
        <time>2021-04-08T07:53:49Z</time>
      </trkpt>
      <trkpt lat="44.45694" lon="6.55777">
        <ele>2144</ele>
        <time>2021-04-08T07:53:50Z</time>
      </trkpt>
      <trkpt lat="44.45694" lon="6.55778">
        <ele>2145</ele>
        <time>2021-04-08T07:53:51Z</time>
      </trkpt>
      <trkpt lat="44.45694" lon="6.55778">
        <ele>2145</ele>
        <time>2021-04-08T07:53:52Z</time>
      </trkpt>
      <trkpt lat="44.45693" lon="6.55778">
        <ele>2145</ele>
        <time>2021-04-08T07:53:53Z</time>
      </trkpt>
      <trkpt lat="44.45692" lon="6.55779">
        <ele>2145</ele>
        <time>2021-04-08T07:53:54Z</time>
      </trkpt>
      <trkpt lat="44.45692" lon="6.55779">
        <ele>2146</ele>
        <time>2021-04-08T07:53:55Z</time>
      </trkpt>
      <trkpt lat="44.45691" lon="6.55779">
        <ele>2146</ele>
        <time>2021-04-08T07:53:56Z</time>
      </trkpt>
      <trkpt lat="44.4569" lon="6.55779">
        <ele>2146</ele>
        <time>2021-04-08T07:53:57Z</time>
      </trkpt>
      <trkpt lat="44.45689" lon="6.55779">
        <ele>2146</ele>
        <time>2021-04-08T07:53:58Z</time>
      </trkpt>
      <trkpt lat="44.45688" lon="6.5578">
        <ele>2147</ele>
        <time>2021-04-08T07:53:59Z</time>
      </trkpt>
      <trkpt lat="44.45687" lon="6.5578">
        <ele>2147</ele>
        <time>2021-04-08T07:54:00Z</time>
      </trkpt>
      <trkpt lat="44.45686" lon="6.55781">
        <ele>2147</ele>
        <time>2021-04-08T07:54:01Z</time>
      </trkpt>
      <trkpt lat="44.45686" lon="6.55782">
        <ele>2148</ele>
        <time>2021-04-08T07:54:02Z</time>
      </trkpt>
      <trkpt lat="44.45685" lon="6.55783">
        <ele>2148</ele>
        <time>2021-04-08T07:54:03Z</time>
      </trkpt>
      <trkpt lat="44.45685" lon="6.55783">
        <ele>2148</ele>
        <time>2021-04-08T07:54:04Z</time>
      </trkpt>
      <trkpt lat="44.45684" lon="6.55783">
        <ele>2148</ele>
        <time>2021-04-08T07:54:05Z</time>
      </trkpt>
      <trkpt lat="44.45683" lon="6.55784">
        <ele>2148</ele>
        <time>2021-04-08T07:54:06Z</time>
      </trkpt>
      <trkpt lat="44.45683" lon="6.55784">
        <ele>2149</ele>
        <time>2021-04-08T07:54:07Z</time>
      </trkpt>
      <trkpt lat="44.45682" lon="6.55785">
        <ele>2149</ele>
        <time>2021-04-08T07:54:08Z</time>
      </trkpt>
      <trkpt lat="44.45682" lon="6.55785">
        <ele>2149</ele>
        <time>2021-04-08T07:54:09Z</time>
      </trkpt>
      <trkpt lat="44.45682" lon="6.55785">
        <ele>2150</ele>
        <time>2021-04-08T07:54:10Z</time>
      </trkpt>
      <trkpt lat="44.45681" lon="6.55785">
        <ele>2150</ele>
        <time>2021-04-08T07:54:11Z</time>
      </trkpt>
      <trkpt lat="44.4568" lon="6.55785">
        <ele>2150</ele>
        <time>2021-04-08T07:54:12Z</time>
      </trkpt>
      <trkpt lat="44.45679" lon="6.55786">
        <ele>2150</ele>
        <time>2021-04-08T07:54:13Z</time>
      </trkpt>
      <trkpt lat="44.45679" lon="6.55786">
        <ele>2150</ele>
        <time>2021-04-08T07:54:14Z</time>
      </trkpt>
      <trkpt lat="44.45679" lon="6.55786">
        <ele>2150</ele>
        <time>2021-04-08T07:54:15Z</time>
      </trkpt>
      <trkpt lat="44.45678" lon="6.55787">
        <ele>2150</ele>
        <time>2021-04-08T07:54:16Z</time>
      </trkpt>
      <trkpt lat="44.45678" lon="6.55787">
        <ele>2150</ele>
        <time>2021-04-08T07:54:17Z</time>
      </trkpt>
      <trkpt lat="44.45677" lon="6.55787">
        <ele>2151</ele>
        <time>2021-04-08T07:54:18Z</time>
      </trkpt>
      <trkpt lat="44.45676" lon="6.55787">
        <ele>2151</ele>
        <time>2021-04-08T07:54:19Z</time>
      </trkpt>
      <trkpt lat="44.45675" lon="6.55788">
        <ele>2151</ele>
        <time>2021-04-08T07:54:20Z</time>
      </trkpt>
      <trkpt lat="44.45674" lon="6.55788">
        <ele>2152</ele>
        <time>2021-04-08T07:54:21Z</time>
      </trkpt>
      <trkpt lat="44.45673" lon="6.55789">
        <ele>2152</ele>
        <time>2021-04-08T07:54:22Z</time>
      </trkpt>
      <trkpt lat="44.45673" lon="6.55789">
        <ele>2152</ele>
        <time>2021-04-08T07:54:23Z</time>
      </trkpt>
      <trkpt lat="44.45672" lon="6.55789">
        <ele>2152</ele>
        <time>2021-04-08T07:54:24Z</time>
      </trkpt>
      <trkpt lat="44.4567" lon="6.55789">
        <ele>2152</ele>
        <time>2021-04-08T07:54:25Z</time>
      </trkpt>
      <trkpt lat="44.4567" lon="6.5579">
        <ele>2152</ele>
        <time>2021-04-08T07:54:26Z</time>
      </trkpt>
      <trkpt lat="44.45669" lon="6.55791">
        <ele>2152</ele>
        <time>2021-04-08T07:54:27Z</time>
      </trkpt>
      <trkpt lat="44.45669" lon="6.55791">
        <ele>2152</ele>
        <time>2021-04-08T07:54:28Z</time>
      </trkpt>
      <trkpt lat="44.45668" lon="6.55791">
        <ele>2152</ele>
        <time>2021-04-08T07:54:29Z</time>
      </trkpt>
      <trkpt lat="44.45668" lon="6.55792">
        <ele>2152</ele>
        <time>2021-04-08T07:54:30Z</time>
      </trkpt>
      <trkpt lat="44.45667" lon="6.55792">
        <ele>2152</ele>
        <time>2021-04-08T07:54:31Z</time>
      </trkpt>
      <trkpt lat="44.45666" lon="6.55793">
        <ele>2152</ele>
        <time>2021-04-08T07:54:32Z</time>
      </trkpt>
      <trkpt lat="44.45665" lon="6.55793">
        <ele>2152</ele>
        <time>2021-04-08T07:54:33Z</time>
      </trkpt>
      <trkpt lat="44.45664" lon="6.55794">
        <ele>2152</ele>
        <time>2021-04-08T07:54:34Z</time>
      </trkpt>
      <trkpt lat="44.45664" lon="6.55794">
        <ele>2152</ele>
        <time>2021-04-08T07:54:35Z</time>
      </trkpt>
      <trkpt lat="44.45663" lon="6.55794">
        <ele>2152</ele>
        <time>2021-04-08T07:54:36Z</time>
      </trkpt>
      <trkpt lat="44.45663" lon="6.55795">
        <ele>2152</ele>
        <time>2021-04-08T07:54:37Z</time>
      </trkpt>
      <trkpt lat="44.45662" lon="6.55795">
        <ele>2152</ele>
        <time>2021-04-08T07:54:38Z</time>
      </trkpt>
      <trkpt lat="44.45661" lon="6.55795">
        <ele>2152</ele>
        <time>2021-04-08T07:54:39Z</time>
      </trkpt>
      <trkpt lat="44.45661" lon="6.55795">
        <ele>2152</ele>
        <time>2021-04-08T07:54:40Z</time>
      </trkpt>
      <trkpt lat="44.4566" lon="6.55796">
        <ele>2152</ele>
        <time>2021-04-08T07:54:41Z</time>
      </trkpt>
      <trkpt lat="44.45659" lon="6.55796">
        <ele>2152</ele>
        <time>2021-04-08T07:54:42Z</time>
      </trkpt>
      <trkpt lat="44.45658" lon="6.55797">
        <ele>2152</ele>
        <time>2021-04-08T07:54:43Z</time>
      </trkpt>
      <trkpt lat="44.45658" lon="6.55798">
        <ele>2152</ele>
        <time>2021-04-08T07:54:44Z</time>
      </trkpt>
      <trkpt lat="44.45657" lon="6.55798">
        <ele>2153</ele>
        <time>2021-04-08T07:54:45Z</time>
      </trkpt>
      <trkpt lat="44.45657" lon="6.55798">
        <ele>2153</ele>
        <time>2021-04-08T07:54:46Z</time>
      </trkpt>
      <trkpt lat="44.45656" lon="6.55799">
        <ele>2153</ele>
        <time>2021-04-08T07:54:47Z</time>
      </trkpt>
      <trkpt lat="44.45655" lon="6.55799">
        <ele>2153</ele>
        <time>2021-04-08T07:54:48Z</time>
      </trkpt>
      <trkpt lat="44.45655" lon="6.55799">
        <ele>2153</ele>
        <time>2021-04-08T07:54:49Z</time>
      </trkpt>
      <trkpt lat="44.45654" lon="6.558">
        <ele>2153</ele>
        <time>2021-04-08T07:54:50Z</time>
      </trkpt>
      <trkpt lat="44.45654" lon="6.558">
        <ele>2153</ele>
        <time>2021-04-08T07:54:51Z</time>
      </trkpt>
      <trkpt lat="44.45654" lon="6.55801">
        <ele>2153</ele>
        <time>2021-04-08T07:54:52Z</time>
      </trkpt>
      <trkpt lat="44.45654" lon="6.55802">
        <ele>2153</ele>
        <time>2021-04-08T07:54:53Z</time>
      </trkpt>
      <trkpt lat="44.45653" lon="6.55802">
        <ele>2153</ele>
        <time>2021-04-08T07:54:54Z</time>
      </trkpt>
      <trkpt lat="44.45652" lon="6.55803">
        <ele>2154</ele>
        <time>2021-04-08T07:54:55Z</time>
      </trkpt>
      <trkpt lat="44.45652" lon="6.55803">
        <ele>2154</ele>
        <time>2021-04-08T07:54:56Z</time>
      </trkpt>
      <trkpt lat="44.45652" lon="6.55803">
        <ele>2154</ele>
        <time>2021-04-08T07:54:57Z</time>
      </trkpt>
      <trkpt lat="44.45651" lon="6.55804">
        <ele>2154</ele>
        <time>2021-04-08T07:54:58Z</time>
      </trkpt>
      <trkpt lat="44.4565" lon="6.55805">
        <ele>2154</ele>
        <time>2021-04-08T07:54:59Z</time>
      </trkpt>
      <trkpt lat="44.45649" lon="6.55805">
        <ele>2154</ele>
        <time>2021-04-08T07:55:00Z</time>
      </trkpt>
      <trkpt lat="44.45648" lon="6.55806">
        <ele>2154</ele>
        <time>2021-04-08T07:55:01Z</time>
      </trkpt>
      <trkpt lat="44.45648" lon="6.55806">
        <ele>2155</ele>
        <time>2021-04-08T07:55:02Z</time>
      </trkpt>
      <trkpt lat="44.45648" lon="6.55806">
        <ele>2155</ele>
        <time>2021-04-08T07:55:03Z</time>
      </trkpt>
      <trkpt lat="44.45647" lon="6.55807">
        <ele>2155</ele>
        <time>2021-04-08T07:55:04Z</time>
      </trkpt>
      <trkpt lat="44.45647" lon="6.55807">
        <ele>2155</ele>
        <time>2021-04-08T07:55:05Z</time>
      </trkpt>
      <trkpt lat="44.45645" lon="6.55807">
        <ele>2155</ele>
        <time>2021-04-08T07:55:06Z</time>
      </trkpt>
      <trkpt lat="44.45645" lon="6.55808">
        <ele>2155</ele>
        <time>2021-04-08T07:55:07Z</time>
      </trkpt>
      <trkpt lat="44.45644" lon="6.55809">
        <ele>2156</ele>
        <time>2021-04-08T07:55:08Z</time>
      </trkpt>
      <trkpt lat="44.45644" lon="6.55809">
        <ele>2156</ele>
        <time>2021-04-08T07:55:09Z</time>
      </trkpt>
      <trkpt lat="44.45644" lon="6.55809">
        <ele>2156</ele>
        <time>2021-04-08T07:55:10Z</time>
      </trkpt>
      <trkpt lat="44.45643" lon="6.5581">
        <ele>2156</ele>
        <time>2021-04-08T07:55:11Z</time>
      </trkpt>
      <trkpt lat="44.45643" lon="6.5581">
        <ele>2156</ele>
        <time>2021-04-08T07:55:12Z</time>
      </trkpt>
      <trkpt lat="44.45643" lon="6.55811">
        <ele>2156</ele>
        <time>2021-04-08T07:55:13Z</time>
      </trkpt>
      <trkpt lat="44.45642" lon="6.55811">
        <ele>2157</ele>
        <time>2021-04-08T07:55:14Z</time>
      </trkpt>
      <trkpt lat="44.45641" lon="6.55812">
        <ele>2157</ele>
        <time>2021-04-08T07:55:15Z</time>
      </trkpt>
      <trkpt lat="44.45641" lon="6.55813">
        <ele>2157</ele>
        <time>2021-04-08T07:55:16Z</time>
      </trkpt>
      <trkpt lat="44.4564" lon="6.55814">
        <ele>2157</ele>
        <time>2021-04-08T07:55:17Z</time>
      </trkpt>
      <trkpt lat="44.4564" lon="6.55814">
        <ele>2157</ele>
        <time>2021-04-08T07:55:18Z</time>
      </trkpt>
      <trkpt lat="44.45639" lon="6.55815">
        <ele>2157</ele>
        <time>2021-04-08T07:55:19Z</time>
      </trkpt>
      <trkpt lat="44.45639" lon="6.55815">
        <ele>2157</ele>
        <time>2021-04-08T07:55:20Z</time>
      </trkpt>
      <trkpt lat="44.45639" lon="6.55816">
        <ele>2158</ele>
        <time>2021-04-08T07:55:21Z</time>
      </trkpt>
      <trkpt lat="44.45638" lon="6.55816">
        <ele>2158</ele>
        <time>2021-04-08T07:55:22Z</time>
      </trkpt>
      <trkpt lat="44.45637" lon="6.55817">
        <ele>2158</ele>
        <time>2021-04-08T07:55:23Z</time>
      </trkpt>
      <trkpt lat="44.45637" lon="6.55817">
        <ele>2158</ele>
        <time>2021-04-08T07:55:24Z</time>
      </trkpt>
      <trkpt lat="44.45637" lon="6.55817">
        <ele>2158</ele>
        <time>2021-04-08T07:55:25Z</time>
      </trkpt>
      <trkpt lat="44.45636" lon="6.55818">
        <ele>2158</ele>
        <time>2021-04-08T07:55:26Z</time>
      </trkpt>
      <trkpt lat="44.45636" lon="6.55818">
        <ele>2159</ele>
        <time>2021-04-08T07:55:27Z</time>
      </trkpt>
      <trkpt lat="44.45635" lon="6.55818">
        <ele>2159</ele>
        <time>2021-04-08T07:55:28Z</time>
      </trkpt>
      <trkpt lat="44.45634" lon="6.55819">
        <ele>2159</ele>
        <time>2021-04-08T07:55:29Z</time>
      </trkpt>
      <trkpt lat="44.45634" lon="6.5582">
        <ele>2160</ele>
        <time>2021-04-08T07:55:30Z</time>
      </trkpt>
      <trkpt lat="44.45633" lon="6.5582">
        <ele>2160</ele>
        <time>2021-04-08T07:55:31Z</time>
      </trkpt>
      <trkpt lat="44.45633" lon="6.55821">
        <ele>2160</ele>
        <time>2021-04-08T07:55:32Z</time>
      </trkpt>
      <trkpt lat="44.45632" lon="6.55822">
        <ele>2160</ele>
        <time>2021-04-08T07:55:33Z</time>
      </trkpt>
      <trkpt lat="44.45632" lon="6.55822">
        <ele>2160</ele>
        <time>2021-04-08T07:55:34Z</time>
      </trkpt>
      <trkpt lat="44.45632" lon="6.55823">
        <ele>2161</ele>
        <time>2021-04-08T07:55:35Z</time>
      </trkpt>
      <trkpt lat="44.45631" lon="6.55824">
        <ele>2161</ele>
        <time>2021-04-08T07:55:36Z</time>
      </trkpt>
      <trkpt lat="44.45631" lon="6.55824">
        <ele>2161</ele>
        <time>2021-04-08T07:55:37Z</time>
      </trkpt>
      <trkpt lat="44.45631" lon="6.55825">
        <ele>2161</ele>
        <time>2021-04-08T07:55:38Z</time>
      </trkpt>
      <trkpt lat="44.45631" lon="6.55825">
        <ele>2161</ele>
        <time>2021-04-08T07:55:39Z</time>
      </trkpt>
      <trkpt lat="44.4563" lon="6.55826">
        <ele>2161</ele>
        <time>2021-04-08T07:55:40Z</time>
      </trkpt>
      <trkpt lat="44.4563" lon="6.55827">
        <ele>2162</ele>
        <time>2021-04-08T07:55:41Z</time>
      </trkpt>
      <trkpt lat="44.45629" lon="6.55827">
        <ele>2162</ele>
        <time>2021-04-08T07:55:42Z</time>
      </trkpt>
      <trkpt lat="44.45629" lon="6.55828">
        <ele>2162</ele>
        <time>2021-04-08T07:55:43Z</time>
      </trkpt>
      <trkpt lat="44.45628" lon="6.55829">
        <ele>2162</ele>
        <time>2021-04-08T07:55:44Z</time>
      </trkpt>
      <trkpt lat="44.45628" lon="6.5583">
        <ele>2162</ele>
        <time>2021-04-08T07:55:45Z</time>
      </trkpt>
      <trkpt lat="44.45627" lon="6.55831">
        <ele>2162</ele>
        <time>2021-04-08T07:55:46Z</time>
      </trkpt>
      <trkpt lat="44.45627" lon="6.55831">
        <ele>2162</ele>
        <time>2021-04-08T07:55:47Z</time>
      </trkpt>
      <trkpt lat="44.45627" lon="6.55833">
        <ele>2162</ele>
        <time>2021-04-08T07:55:48Z</time>
      </trkpt>
      <trkpt lat="44.45626" lon="6.55834">
        <ele>2162</ele>
        <time>2021-04-08T07:55:49Z</time>
      </trkpt>
      <trkpt lat="44.45626" lon="6.55834">
        <ele>2162</ele>
        <time>2021-04-08T07:55:50Z</time>
      </trkpt>
      <trkpt lat="44.45625" lon="6.55835">
        <ele>2163</ele>
        <time>2021-04-08T07:55:51Z</time>
      </trkpt>
      <trkpt lat="44.45625" lon="6.55836">
        <ele>2163</ele>
        <time>2021-04-08T07:55:52Z</time>
      </trkpt>
      <trkpt lat="44.45625" lon="6.55836">
        <ele>2163</ele>
        <time>2021-04-08T07:55:53Z</time>
      </trkpt>
      <trkpt lat="44.45625" lon="6.55837">
        <ele>2163</ele>
        <time>2021-04-08T07:55:54Z</time>
      </trkpt>
      <trkpt lat="44.45624" lon="6.55838">
        <ele>2163</ele>
        <time>2021-04-08T07:55:55Z</time>
      </trkpt>
      <trkpt lat="44.45624" lon="6.55839">
        <ele>2163</ele>
        <time>2021-04-08T07:55:56Z</time>
      </trkpt>
      <trkpt lat="44.45623" lon="6.55839">
        <ele>2163</ele>
        <time>2021-04-08T07:55:57Z</time>
      </trkpt>
      <trkpt lat="44.45623" lon="6.5584">
        <ele>2163</ele>
        <time>2021-04-08T07:55:58Z</time>
      </trkpt>
      <trkpt lat="44.45623" lon="6.55841">
        <ele>2164</ele>
        <time>2021-04-08T07:55:59Z</time>
      </trkpt>
      <trkpt lat="44.45622" lon="6.55841">
        <ele>2164</ele>
        <time>2021-04-08T07:56:00Z</time>
      </trkpt>
      <trkpt lat="44.45622" lon="6.55842">
        <ele>2164</ele>
        <time>2021-04-08T07:56:01Z</time>
      </trkpt>
      <trkpt lat="44.45622" lon="6.55842">
        <ele>2164</ele>
        <time>2021-04-08T07:56:02Z</time>
      </trkpt>
      <trkpt lat="44.45621" lon="6.55843">
        <ele>2164</ele>
        <time>2021-04-08T07:56:03Z</time>
      </trkpt>
      <trkpt lat="44.45621" lon="6.55843">
        <ele>2164</ele>
        <time>2021-04-08T07:56:04Z</time>
      </trkpt>
      <trkpt lat="44.4562" lon="6.55844">
        <ele>2165</ele>
        <time>2021-04-08T07:56:05Z</time>
      </trkpt>
      <trkpt lat="44.4562" lon="6.55845">
        <ele>2165</ele>
        <time>2021-04-08T07:56:06Z</time>
      </trkpt>
      <trkpt lat="44.45619" lon="6.55846">
        <ele>2165</ele>
        <time>2021-04-08T07:56:07Z</time>
      </trkpt>
      <trkpt lat="44.45619" lon="6.55846">
        <ele>2165</ele>
        <time>2021-04-08T07:56:08Z</time>
      </trkpt>
      <trkpt lat="44.45618" lon="6.55847">
        <ele>2165</ele>
        <time>2021-04-08T07:56:09Z</time>
      </trkpt>
      <trkpt lat="44.45618" lon="6.55848">
        <ele>2165</ele>
        <time>2021-04-08T07:56:10Z</time>
      </trkpt>
      <trkpt lat="44.45617" lon="6.55848">
        <ele>2165</ele>
        <time>2021-04-08T07:56:11Z</time>
      </trkpt>
      <trkpt lat="44.45616" lon="6.55849">
        <ele>2166</ele>
        <time>2021-04-08T07:56:12Z</time>
      </trkpt>
      <trkpt lat="44.45616" lon="6.5585">
        <ele>2166</ele>
        <time>2021-04-08T07:56:13Z</time>
      </trkpt>
      <trkpt lat="44.45615" lon="6.55851">
        <ele>2166</ele>
        <time>2021-04-08T07:56:14Z</time>
      </trkpt>
      <trkpt lat="44.45615" lon="6.55852">
        <ele>2166</ele>
        <time>2021-04-08T07:56:15Z</time>
      </trkpt>
      <trkpt lat="44.45615" lon="6.55853">
        <ele>2167</ele>
        <time>2021-04-08T07:56:16Z</time>
      </trkpt>
      <trkpt lat="44.45614" lon="6.55854">
        <ele>2167</ele>
        <time>2021-04-08T07:56:17Z</time>
      </trkpt>
      <trkpt lat="44.45614" lon="6.55854">
        <ele>2167</ele>
        <time>2021-04-08T07:56:18Z</time>
      </trkpt>
      <trkpt lat="44.45613" lon="6.55855">
        <ele>2167</ele>
        <time>2021-04-08T07:56:19Z</time>
      </trkpt>
      <trkpt lat="44.45613" lon="6.55856">
        <ele>2168</ele>
        <time>2021-04-08T07:56:20Z</time>
      </trkpt>
      <trkpt lat="44.45612" lon="6.55857">
        <ele>2168</ele>
        <time>2021-04-08T07:56:21Z</time>
      </trkpt>
      <trkpt lat="44.45612" lon="6.55857">
        <ele>2168</ele>
        <time>2021-04-08T07:56:22Z</time>
      </trkpt>
      <trkpt lat="44.45611" lon="6.55858">
        <ele>2168</ele>
        <time>2021-04-08T07:56:23Z</time>
      </trkpt>
      <trkpt lat="44.4561" lon="6.55858">
        <ele>2168</ele>
        <time>2021-04-08T07:56:24Z</time>
      </trkpt>
      <trkpt lat="44.45609" lon="6.55858">
        <ele>2169</ele>
        <time>2021-04-08T07:56:25Z</time>
      </trkpt>
      <trkpt lat="44.45609" lon="6.55859">
        <ele>2169</ele>
        <time>2021-04-08T07:56:26Z</time>
      </trkpt>
      <trkpt lat="44.45608" lon="6.55859">
        <ele>2169</ele>
        <time>2021-04-08T07:56:27Z</time>
      </trkpt>
      <trkpt lat="44.45608" lon="6.55859">
        <ele>2169</ele>
        <time>2021-04-08T07:56:28Z</time>
      </trkpt>
      <trkpt lat="44.45608" lon="6.5586">
        <ele>2169</ele>
        <time>2021-04-08T07:56:29Z</time>
      </trkpt>
      <trkpt lat="44.45607" lon="6.55862">
        <ele>2170</ele>
        <time>2021-04-08T07:56:30Z</time>
      </trkpt>
      <trkpt lat="44.45607" lon="6.55862">
        <ele>2170</ele>
        <time>2021-04-08T07:56:31Z</time>
      </trkpt>
      <trkpt lat="44.45606" lon="6.55863">
        <ele>2170</ele>
        <time>2021-04-08T07:56:32Z</time>
      </trkpt>
      <trkpt lat="44.45606" lon="6.55864">
        <ele>2171</ele>
        <time>2021-04-08T07:56:33Z</time>
      </trkpt>
      <trkpt lat="44.45605" lon="6.55864">
        <ele>2171</ele>
        <time>2021-04-08T07:56:34Z</time>
      </trkpt>
      <trkpt lat="44.45605" lon="6.55865">
        <ele>2171</ele>
        <time>2021-04-08T07:56:35Z</time>
      </trkpt>
      <trkpt lat="44.45604" lon="6.55866">
        <ele>2172</ele>
        <time>2021-04-08T07:56:36Z</time>
      </trkpt>
      <trkpt lat="44.45604" lon="6.55866">
        <ele>2172</ele>
        <time>2021-04-08T07:56:37Z</time>
      </trkpt>
      <trkpt lat="44.45603" lon="6.55866">
        <ele>2172</ele>
        <time>2021-04-08T07:56:38Z</time>
      </trkpt>
      <trkpt lat="44.45603" lon="6.55866">
        <ele>2172</ele>
        <time>2021-04-08T07:56:39Z</time>
      </trkpt>
      <trkpt lat="44.45602" lon="6.55867">
        <ele>2172</ele>
        <time>2021-04-08T07:56:40Z</time>
      </trkpt>
      <trkpt lat="44.45601" lon="6.55867">
        <ele>2173</ele>
        <time>2021-04-08T07:56:41Z</time>
      </trkpt>
      <trkpt lat="44.45601" lon="6.55866">
        <ele>2173</ele>
        <time>2021-04-08T07:56:42Z</time>
      </trkpt>
      <trkpt lat="44.456" lon="6.55867">
        <ele>2173</ele>
        <time>2021-04-08T07:56:43Z</time>
      </trkpt>
      <trkpt lat="44.456" lon="6.55867">
        <ele>2173</ele>
        <time>2021-04-08T07:56:44Z</time>
      </trkpt>
      <trkpt lat="44.45599" lon="6.55867">
        <ele>2174</ele>
        <time>2021-04-08T07:56:45Z</time>
      </trkpt>
      <trkpt lat="44.45598" lon="6.55867">
        <ele>2174</ele>
        <time>2021-04-08T07:56:46Z</time>
      </trkpt>
      <trkpt lat="44.45597" lon="6.55868">
        <ele>2175</ele>
        <time>2021-04-08T07:56:47Z</time>
      </trkpt>
      <trkpt lat="44.45597" lon="6.55869">
        <ele>2176</ele>
        <time>2021-04-08T07:56:48Z</time>
      </trkpt>
      <trkpt lat="44.45596" lon="6.5587">
        <ele>2176</ele>
        <time>2021-04-08T07:56:49Z</time>
      </trkpt>
      <trkpt lat="44.45597" lon="6.5587">
        <ele>2177</ele>
        <time>2021-04-08T07:56:50Z</time>
      </trkpt>
      <trkpt lat="44.45596" lon="6.55871">
        <ele>2177</ele>
        <time>2021-04-08T07:56:51Z</time>
      </trkpt>
      <trkpt lat="44.45595" lon="6.55871">
        <ele>2178</ele>
        <time>2021-04-08T07:56:52Z</time>
      </trkpt>
      <trkpt lat="44.45595" lon="6.55872">
        <ele>2178</ele>
        <time>2021-04-08T07:56:53Z</time>
      </trkpt>
      <trkpt lat="44.45594" lon="6.55873">
        <ele>2178</ele>
        <time>2021-04-08T07:56:54Z</time>
      </trkpt>
      <trkpt lat="44.45593" lon="6.55873">
        <ele>2177</ele>
        <time>2021-04-08T07:56:55Z</time>
      </trkpt>
      <trkpt lat="44.45592" lon="6.55874">
        <ele>2177</ele>
        <time>2021-04-08T07:56:56Z</time>
      </trkpt>
      <trkpt lat="44.45592" lon="6.55874">
        <ele>2177</ele>
        <time>2021-04-08T07:56:57Z</time>
      </trkpt>
      <trkpt lat="44.45591" lon="6.55876">
        <ele>2177</ele>
        <time>2021-04-08T07:56:58Z</time>
      </trkpt>
      <trkpt lat="44.4559" lon="6.55876">
        <ele>2176</ele>
        <time>2021-04-08T07:56:59Z</time>
      </trkpt>
      <trkpt lat="44.45589" lon="6.55877">
        <ele>2176</ele>
        <time>2021-04-08T07:57:00Z</time>
      </trkpt>
      <trkpt lat="44.45589" lon="6.55877">
        <ele>2176</ele>
        <time>2021-04-08T07:57:01Z</time>
      </trkpt>
      <trkpt lat="44.45589" lon="6.55878">
        <ele>2176</ele>
        <time>2021-04-08T07:57:02Z</time>
      </trkpt>
      <trkpt lat="44.45588" lon="6.55879">
        <ele>2176</ele>
        <time>2021-04-08T07:57:03Z</time>
      </trkpt>
      <trkpt lat="44.45588" lon="6.55879">
        <ele>2175</ele>
        <time>2021-04-08T07:57:04Z</time>
      </trkpt>
      <trkpt lat="44.45587" lon="6.55879">
        <ele>2175</ele>
        <time>2021-04-08T07:57:05Z</time>
      </trkpt>
      <trkpt lat="44.45587" lon="6.5588">
        <ele>2175</ele>
        <time>2021-04-08T07:57:06Z</time>
      </trkpt>
      <trkpt lat="44.45586" lon="6.5588">
        <ele>2175</ele>
        <time>2021-04-08T07:57:07Z</time>
      </trkpt>
      <trkpt lat="44.45586" lon="6.5588">
        <ele>2175</ele>
        <time>2021-04-08T07:57:08Z</time>
      </trkpt>
      <trkpt lat="44.45586" lon="6.55881">
        <ele>2175</ele>
        <time>2021-04-08T07:57:09Z</time>
      </trkpt>
      <trkpt lat="44.45585" lon="6.55881">
        <ele>2175</ele>
        <time>2021-04-08T07:57:10Z</time>
      </trkpt>
      <trkpt lat="44.45585" lon="6.55881">
        <ele>2175</ele>
        <time>2021-04-08T07:57:11Z</time>
      </trkpt>
      <trkpt lat="44.45584" lon="6.55882">
        <ele>2175</ele>
        <time>2021-04-08T07:57:12Z</time>
      </trkpt>
      <trkpt lat="44.45583" lon="6.55883">
        <ele>2176</ele>
        <time>2021-04-08T07:57:13Z</time>
      </trkpt>
      <trkpt lat="44.45583" lon="6.55883">
        <ele>2176</ele>
        <time>2021-04-08T07:57:14Z</time>
      </trkpt>
      <trkpt lat="44.45583" lon="6.55883">
        <ele>2176</ele>
        <time>2021-04-08T07:57:15Z</time>
      </trkpt>
      <trkpt lat="44.45582" lon="6.55884">
        <ele>2176</ele>
        <time>2021-04-08T07:57:16Z</time>
      </trkpt>
      <trkpt lat="44.45581" lon="6.55885">
        <ele>2177</ele>
        <time>2021-04-08T07:57:17Z</time>
      </trkpt>
      <trkpt lat="44.4558" lon="6.55885">
        <ele>2177</ele>
        <time>2021-04-08T07:57:18Z</time>
      </trkpt>
      <trkpt lat="44.4558" lon="6.55885">
        <ele>2177</ele>
        <time>2021-04-08T07:57:19Z</time>
      </trkpt>
      <trkpt lat="44.45579" lon="6.55886">
        <ele>2177</ele>
        <time>2021-04-08T07:57:20Z</time>
      </trkpt>
      <trkpt lat="44.45579" lon="6.55886">
        <ele>2177</ele>
        <time>2021-04-08T07:57:21Z</time>
      </trkpt>
      <trkpt lat="44.45579" lon="6.55887">
        <ele>2177</ele>
        <time>2021-04-08T07:57:22Z</time>
      </trkpt>
      <trkpt lat="44.45579" lon="6.55887">
        <ele>2177</ele>
        <time>2021-04-08T07:57:23Z</time>
      </trkpt>
      <trkpt lat="44.45579" lon="6.55887">
        <ele>2177</ele>
        <time>2021-04-08T07:57:24Z</time>
      </trkpt>
      <trkpt lat="44.45579" lon="6.55887">
        <ele>2177</ele>
        <time>2021-04-08T07:57:25Z</time>
      </trkpt>
      <trkpt lat="44.45579" lon="6.55887">
        <ele>2177</ele>
        <time>2021-04-08T07:57:26Z</time>
      </trkpt>
      <trkpt lat="44.45578" lon="6.55887">
        <ele>2177</ele>
        <time>2021-04-08T07:57:27Z</time>
      </trkpt>
      <trkpt lat="44.45578" lon="6.55887">
        <ele>2177</ele>
        <time>2021-04-08T07:57:28Z</time>
      </trkpt>
      <trkpt lat="44.45578" lon="6.55887">
        <ele>2178</ele>
        <time>2021-04-08T07:57:29Z</time>
      </trkpt>
      <trkpt lat="44.45578" lon="6.55887">
        <ele>2178</ele>
        <time>2021-04-08T07:57:30Z</time>
      </trkpt>
      <trkpt lat="44.45578" lon="6.55887">
        <ele>2178</ele>
        <time>2021-04-08T07:57:31Z</time>
      </trkpt>
      <trkpt lat="44.45578" lon="6.55887">
        <ele>2178</ele>
        <time>2021-04-08T07:57:32Z</time>
      </trkpt>
      <trkpt lat="44.45578" lon="6.55887">
        <ele>2178</ele>
        <time>2021-04-08T07:57:33Z</time>
      </trkpt>
      <trkpt lat="44.45577" lon="6.55888">
        <ele>2178</ele>
        <time>2021-04-08T07:57:34Z</time>
      </trkpt>
      <trkpt lat="44.45576" lon="6.55889">
        <ele>2178</ele>
        <time>2021-04-08T07:57:35Z</time>
      </trkpt>
      <trkpt lat="44.45575" lon="6.5589">
        <ele>2178</ele>
        <time>2021-04-08T07:57:36Z</time>
      </trkpt>
      <trkpt lat="44.45574" lon="6.5589">
        <ele>2178</ele>
        <time>2021-04-08T07:57:37Z</time>
      </trkpt>
      <trkpt lat="44.45573" lon="6.5589">
        <ele>2178</ele>
        <time>2021-04-08T07:57:38Z</time>
      </trkpt>
      <trkpt lat="44.45573" lon="6.55891">
        <ele>2178</ele>
        <time>2021-04-08T07:57:39Z</time>
      </trkpt>
      <trkpt lat="44.45572" lon="6.5589">
        <ele>2178</ele>
        <time>2021-04-08T07:57:40Z</time>
      </trkpt>
      <trkpt lat="44.45572" lon="6.5589">
        <ele>2178</ele>
        <time>2021-04-08T07:57:41Z</time>
      </trkpt>
      <trkpt lat="44.45572" lon="6.55889">
        <ele>2178</ele>
        <time>2021-04-08T07:57:42Z</time>
      </trkpt>
      <trkpt lat="44.45571" lon="6.55889">
        <ele>2178</ele>
        <time>2021-04-08T07:57:43Z</time>
      </trkpt>
      <trkpt lat="44.45569" lon="6.55889">
        <ele>2178</ele>
        <time>2021-04-08T07:57:44Z</time>
      </trkpt>
      <trkpt lat="44.45568" lon="6.5589">
        <ele>2178</ele>
        <time>2021-04-08T07:57:45Z</time>
      </trkpt>
      <trkpt lat="44.45567" lon="6.5589">
        <ele>2177</ele>
        <time>2021-04-08T07:57:46Z</time>
      </trkpt>
      <trkpt lat="44.45566" lon="6.55891">
        <ele>2177</ele>
        <time>2021-04-08T07:57:47Z</time>
      </trkpt>
      <trkpt lat="44.45566" lon="6.55891">
        <ele>2178</ele>
        <time>2021-04-08T07:57:48Z</time>
      </trkpt>
      <trkpt lat="44.45566" lon="6.55891">
        <ele>2178</ele>
        <time>2021-04-08T07:57:49Z</time>
      </trkpt>
      <trkpt lat="44.45565" lon="6.55892">
        <ele>2178</ele>
        <time>2021-04-08T07:57:50Z</time>
      </trkpt>
      <trkpt lat="44.45565" lon="6.55893">
        <ele>2179</ele>
        <time>2021-04-08T07:57:51Z</time>
      </trkpt>
      <trkpt lat="44.45563" lon="6.55893">
        <ele>2179</ele>
        <time>2021-04-08T07:57:52Z</time>
      </trkpt>
      <trkpt lat="44.45562" lon="6.55894">
        <ele>2179</ele>
        <time>2021-04-08T07:57:53Z</time>
      </trkpt>
      <trkpt lat="44.45561" lon="6.55894">
        <ele>2179</ele>
        <time>2021-04-08T07:57:54Z</time>
      </trkpt>
      <trkpt lat="44.4556" lon="6.55894">
        <ele>2179</ele>
        <time>2021-04-08T07:57:55Z</time>
      </trkpt>
      <trkpt lat="44.4556" lon="6.55895">
        <ele>2179</ele>
        <time>2021-04-08T07:57:56Z</time>
      </trkpt>
      <trkpt lat="44.4556" lon="6.55895">
        <ele>2180</ele>
        <time>2021-04-08T07:57:57Z</time>
      </trkpt>
      <trkpt lat="44.45559" lon="6.55894">
        <ele>2180</ele>
        <time>2021-04-08T07:57:58Z</time>
      </trkpt>
      <trkpt lat="44.45558" lon="6.55894">
        <ele>2180</ele>
        <time>2021-04-08T07:57:59Z</time>
      </trkpt>
      <trkpt lat="44.45557" lon="6.55894">
        <ele>2181</ele>
        <time>2021-04-08T07:58:00Z</time>
      </trkpt>
      <trkpt lat="44.45556" lon="6.55894">
        <ele>2181</ele>
        <time>2021-04-08T07:58:01Z</time>
      </trkpt>
      <trkpt lat="44.45556" lon="6.55894">
        <ele>2181</ele>
        <time>2021-04-08T07:58:02Z</time>
      </trkpt>
      <trkpt lat="44.45555" lon="6.55894">
        <ele>2182</ele>
        <time>2021-04-08T07:58:03Z</time>
      </trkpt>
      <trkpt lat="44.45554" lon="6.55894">
        <ele>2182</ele>
        <time>2021-04-08T07:58:04Z</time>
      </trkpt>
      <trkpt lat="44.45553" lon="6.55894">
        <ele>2182</ele>
        <time>2021-04-08T07:58:05Z</time>
      </trkpt>
      <trkpt lat="44.45552" lon="6.55894">
        <ele>2182</ele>
        <time>2021-04-08T07:58:06Z</time>
      </trkpt>
      <trkpt lat="44.45551" lon="6.55894">
        <ele>2182</ele>
        <time>2021-04-08T07:58:07Z</time>
      </trkpt>
      <trkpt lat="44.4555" lon="6.55894">
        <ele>2182</ele>
        <time>2021-04-08T07:58:08Z</time>
      </trkpt>
      <trkpt lat="44.45548" lon="6.55895">
        <ele>2182</ele>
        <time>2021-04-08T07:58:09Z</time>
      </trkpt>
      <trkpt lat="44.45547" lon="6.55895">
        <ele>2182</ele>
        <time>2021-04-08T07:58:10Z</time>
      </trkpt>
      <trkpt lat="44.45546" lon="6.55895">
        <ele>2183</ele>
        <time>2021-04-08T07:58:11Z</time>
      </trkpt>
      <trkpt lat="44.45544" lon="6.55896">
        <ele>2182</ele>
        <time>2021-04-08T07:58:12Z</time>
      </trkpt>
      <trkpt lat="44.45543" lon="6.55896">
        <ele>2182</ele>
        <time>2021-04-08T07:58:13Z</time>
      </trkpt>
      <trkpt lat="44.45542" lon="6.55896">
        <ele>2182</ele>
        <time>2021-04-08T07:58:14Z</time>
      </trkpt>
      <trkpt lat="44.4554" lon="6.55896">
        <ele>2183</ele>
        <time>2021-04-08T07:58:15Z</time>
      </trkpt>
      <trkpt lat="44.4554" lon="6.55896">
        <ele>2183</ele>
        <time>2021-04-08T07:58:16Z</time>
      </trkpt>
      <trkpt lat="44.45538" lon="6.55896">
        <ele>2183</ele>
        <time>2021-04-08T07:58:17Z</time>
      </trkpt>
      <trkpt lat="44.45538" lon="6.55896">
        <ele>2183</ele>
        <time>2021-04-08T07:58:18Z</time>
      </trkpt>
      <trkpt lat="44.45537" lon="6.55895">
        <ele>2183</ele>
        <time>2021-04-08T07:58:19Z</time>
      </trkpt>
      <trkpt lat="44.45537" lon="6.55895">
        <ele>2184</ele>
        <time>2021-04-08T07:58:20Z</time>
      </trkpt>
      <trkpt lat="44.45536" lon="6.55895">
        <ele>2184</ele>
        <time>2021-04-08T07:58:21Z</time>
      </trkpt>
      <trkpt lat="44.45535" lon="6.55895">
        <ele>2184</ele>
        <time>2021-04-08T07:58:22Z</time>
      </trkpt>
      <trkpt lat="44.45534" lon="6.55895">
        <ele>2184</ele>
        <time>2021-04-08T07:58:23Z</time>
      </trkpt>
      <trkpt lat="44.45534" lon="6.55895">
        <ele>2184</ele>
        <time>2021-04-08T07:58:24Z</time>
      </trkpt>
      <trkpt lat="44.45532" lon="6.55895">
        <ele>2184</ele>
        <time>2021-04-08T07:58:26Z</time>
      </trkpt>
      <trkpt lat="44.45532" lon="6.55895">
        <ele>2184</ele>
        <time>2021-04-08T07:58:27Z</time>
      </trkpt>
      <trkpt lat="44.45532" lon="6.55895">
        <ele>2184</ele>
        <time>2021-04-08T07:58:28Z</time>
      </trkpt>
      <trkpt lat="44.45532" lon="6.55895">
        <ele>2184</ele>
        <time>2021-04-08T07:58:29Z</time>
      </trkpt>
      <trkpt lat="44.45532" lon="6.55895">
        <ele>2185</ele>
        <time>2021-04-08T07:58:30Z</time>
      </trkpt>
      <trkpt lat="44.45532" lon="6.55894">
        <ele>2185</ele>
        <time>2021-04-08T07:58:31Z</time>
      </trkpt>
      <trkpt lat="44.4553" lon="6.55893">
        <ele>2185</ele>
        <time>2021-04-08T07:58:32Z</time>
      </trkpt>
      <trkpt lat="44.45529" lon="6.55893">
        <ele>2185</ele>
        <time>2021-04-08T07:58:33Z</time>
      </trkpt>
      <trkpt lat="44.45528" lon="6.55893">
        <ele>2185</ele>
        <time>2021-04-08T07:58:34Z</time>
      </trkpt>
      <trkpt lat="44.45527" lon="6.55894">
        <ele>2185</ele>
        <time>2021-04-08T07:58:35Z</time>
      </trkpt>
      <trkpt lat="44.45526" lon="6.55896">
        <ele>2185</ele>
        <time>2021-04-08T07:58:36Z</time>
      </trkpt>
      <trkpt lat="44.45523" lon="6.55898">
        <ele>2184</ele>
        <time>2021-04-08T07:58:37Z</time>
      </trkpt>
      <trkpt lat="44.45521" lon="6.55899">
        <ele>2183</ele>
        <time>2021-04-08T07:58:38Z</time>
      </trkpt>
      <trkpt lat="44.45519" lon="6.55901">
        <ele>2181</ele>
        <time>2021-04-08T07:58:39Z</time>
      </trkpt>
      <trkpt lat="44.45516" lon="6.55904">
        <ele>2180</ele>
        <time>2021-04-08T07:58:40Z</time>
      </trkpt>
      <trkpt lat="44.45514" lon="6.55906">
        <ele>2179</ele>
        <time>2021-04-08T07:58:41Z</time>
      </trkpt>
      <trkpt lat="44.45512" lon="6.55907">
        <ele>2177</ele>
        <time>2021-04-08T07:58:42Z</time>
      </trkpt>
      <trkpt lat="44.45511" lon="6.55908">
        <ele>2176</ele>
        <time>2021-04-08T07:58:43Z</time>
      </trkpt>
      <trkpt lat="44.45509" lon="6.55908">
        <ele>2176</ele>
        <time>2021-04-08T07:58:44Z</time>
      </trkpt>
      <trkpt lat="44.45507" lon="6.55909">
        <ele>2176</ele>
        <time>2021-04-08T07:58:45Z</time>
      </trkpt>
      <trkpt lat="44.45506" lon="6.5591">
        <ele>2176</ele>
        <time>2021-04-08T07:58:46Z</time>
      </trkpt>
      <trkpt lat="44.45505" lon="6.55912">
        <ele>2176</ele>
        <time>2021-04-08T07:58:47Z</time>
      </trkpt>
      <trkpt lat="44.45505" lon="6.55913">
        <ele>2176</ele>
        <time>2021-04-08T07:58:48Z</time>
      </trkpt>
      <trkpt lat="44.45504" lon="6.55914">
        <ele>2177</ele>
        <time>2021-04-08T07:58:49Z</time>
      </trkpt>
      <trkpt lat="44.45504" lon="6.55915">
        <ele>2177</ele>
        <time>2021-04-08T07:58:50Z</time>
      </trkpt>
      <trkpt lat="44.45503" lon="6.55915">
        <ele>2177</ele>
        <time>2021-04-08T07:58:51Z</time>
      </trkpt>
      <trkpt lat="44.45502" lon="6.55916">
        <ele>2177</ele>
        <time>2021-04-08T07:58:52Z</time>
      </trkpt>
      <trkpt lat="44.45502" lon="6.55917">
        <ele>2177</ele>
        <time>2021-04-08T07:58:53Z</time>
      </trkpt>
      <trkpt lat="44.45501" lon="6.55917">
        <ele>2178</ele>
        <time>2021-04-08T07:58:54Z</time>
      </trkpt>
      <trkpt lat="44.45501" lon="6.55918">
        <ele>2178</ele>
        <time>2021-04-08T07:58:55Z</time>
      </trkpt>
      <trkpt lat="44.455" lon="6.55918">
        <ele>2178</ele>
        <time>2021-04-08T07:58:56Z</time>
      </trkpt>
      <trkpt lat="44.455" lon="6.55918">
        <ele>2178</ele>
        <time>2021-04-08T07:58:57Z</time>
      </trkpt>
      <trkpt lat="44.455" lon="6.55918">
        <ele>2179</ele>
        <time>2021-04-08T07:58:58Z</time>
      </trkpt>
      <trkpt lat="44.455" lon="6.55918">
        <ele>2179</ele>
        <time>2021-04-08T07:58:59Z</time>
      </trkpt>
      <trkpt lat="44.45499" lon="6.55918">
        <ele>2179</ele>
        <time>2021-04-08T07:59:00Z</time>
      </trkpt>
      <trkpt lat="44.45498" lon="6.55919">
        <ele>2180</ele>
        <time>2021-04-08T07:59:01Z</time>
      </trkpt>
      <trkpt lat="44.45498" lon="6.55919">
        <ele>2180</ele>
        <time>2021-04-08T07:59:02Z</time>
      </trkpt>
      <trkpt lat="44.45497" lon="6.5592">
        <ele>2180</ele>
        <time>2021-04-08T07:59:03Z</time>
      </trkpt>
      <trkpt lat="44.45496" lon="6.5592">
        <ele>2180</ele>
        <time>2021-04-08T07:59:04Z</time>
      </trkpt>
      <trkpt lat="44.45496" lon="6.5592">
        <ele>2180</ele>
        <time>2021-04-08T07:59:05Z</time>
      </trkpt>
      <trkpt lat="44.45495" lon="6.55921">
        <ele>2180</ele>
        <time>2021-04-08T07:59:06Z</time>
      </trkpt>
      <trkpt lat="44.45494" lon="6.55921">
        <ele>2180</ele>
        <time>2021-04-08T07:59:07Z</time>
      </trkpt>
      <trkpt lat="44.45494" lon="6.55922">
        <ele>2180</ele>
        <time>2021-04-08T07:59:08Z</time>
      </trkpt>
      <trkpt lat="44.45493" lon="6.55922">
        <ele>2180</ele>
        <time>2021-04-08T07:59:09Z</time>
      </trkpt>
      <trkpt lat="44.45493" lon="6.55923">
        <ele>2180</ele>
        <time>2021-04-08T07:59:10Z</time>
      </trkpt>
      <trkpt lat="44.45492" lon="6.55923">
        <ele>2180</ele>
        <time>2021-04-08T07:59:11Z</time>
      </trkpt>
      <trkpt lat="44.45491" lon="6.55922">
        <ele>2180</ele>
        <time>2021-04-08T07:59:12Z</time>
      </trkpt>
      <trkpt lat="44.4549" lon="6.55922">
        <ele>2180</ele>
        <time>2021-04-08T07:59:13Z</time>
      </trkpt>
      <trkpt lat="44.4549" lon="6.55922">
        <ele>2180</ele>
        <time>2021-04-08T07:59:14Z</time>
      </trkpt>
      <trkpt lat="44.45489" lon="6.55923">
        <ele>2180</ele>
        <time>2021-04-08T07:59:15Z</time>
      </trkpt>
      <trkpt lat="44.45489" lon="6.55923">
        <ele>2180</ele>
        <time>2021-04-08T07:59:16Z</time>
      </trkpt>
      <trkpt lat="44.45488" lon="6.55923">
        <ele>2180</ele>
        <time>2021-04-08T07:59:17Z</time>
      </trkpt>
      <trkpt lat="44.45487" lon="6.55923">
        <ele>2180</ele>
        <time>2021-04-08T07:59:18Z</time>
      </trkpt>
      <trkpt lat="44.45486" lon="6.55924">
        <ele>2180</ele>
        <time>2021-04-08T07:59:19Z</time>
      </trkpt>
      <trkpt lat="44.45486" lon="6.55924">
        <ele>2180</ele>
        <time>2021-04-08T07:59:20Z</time>
      </trkpt>
      <trkpt lat="44.45485" lon="6.55924">
        <ele>2180</ele>
        <time>2021-04-08T07:59:21Z</time>
      </trkpt>
      <trkpt lat="44.45484" lon="6.55925">
        <ele>2180</ele>
        <time>2021-04-08T07:59:22Z</time>
      </trkpt>
      <trkpt lat="44.45484" lon="6.55925">
        <ele>2180</ele>
        <time>2021-04-08T07:59:23Z</time>
      </trkpt>
      <trkpt lat="44.45483" lon="6.55926">
        <ele>2180</ele>
        <time>2021-04-08T07:59:24Z</time>
      </trkpt>
      <trkpt lat="44.45483" lon="6.55926">
        <ele>2180</ele>
        <time>2021-04-08T07:59:25Z</time>
      </trkpt>
      <trkpt lat="44.45482" lon="6.55927">
        <ele>2181</ele>
        <time>2021-04-08T07:59:26Z</time>
      </trkpt>
      <trkpt lat="44.45481" lon="6.55928">
        <ele>2181</ele>
        <time>2021-04-08T07:59:27Z</time>
      </trkpt>
      <trkpt lat="44.45481" lon="6.55928">
        <ele>2181</ele>
        <time>2021-04-08T07:59:28Z</time>
      </trkpt>
      <trkpt lat="44.4548" lon="6.55929">
        <ele>2181</ele>
        <time>2021-04-08T07:59:29Z</time>
      </trkpt>
      <trkpt lat="44.4548" lon="6.5593">
        <ele>2181</ele>
        <time>2021-04-08T07:59:30Z</time>
      </trkpt>
      <trkpt lat="44.45479" lon="6.5593">
        <ele>2181</ele>
        <time>2021-04-08T07:59:31Z</time>
      </trkpt>
      <trkpt lat="44.45479" lon="6.55931">
        <ele>2181</ele>
        <time>2021-04-08T07:59:32Z</time>
      </trkpt>
      <trkpt lat="44.45478" lon="6.55931">
        <ele>2181</ele>
        <time>2021-04-08T07:59:33Z</time>
      </trkpt>
      <trkpt lat="44.45476" lon="6.55932">
        <ele>2182</ele>
        <time>2021-04-08T07:59:35Z</time>
      </trkpt>
      <trkpt lat="44.45476" lon="6.55933">
        <ele>2182</ele>
        <time>2021-04-08T07:59:36Z</time>
      </trkpt>
      <trkpt lat="44.45475" lon="6.55934">
        <ele>2182</ele>
        <time>2021-04-08T07:59:37Z</time>
      </trkpt>
      <trkpt lat="44.45475" lon="6.55934">
        <ele>2183</ele>
        <time>2021-04-08T07:59:38Z</time>
      </trkpt>
      <trkpt lat="44.45475" lon="6.55935">
        <ele>2183</ele>
        <time>2021-04-08T07:59:39Z</time>
      </trkpt>
      <trkpt lat="44.45474" lon="6.55936">
        <ele>2184</ele>
        <time>2021-04-08T07:59:40Z</time>
      </trkpt>
      <trkpt lat="44.45474" lon="6.55936">
        <ele>2184</ele>
        <time>2021-04-08T07:59:41Z</time>
      </trkpt>
      <trkpt lat="44.45473" lon="6.55937">
        <ele>2184</ele>
        <time>2021-04-08T07:59:42Z</time>
      </trkpt>
      <trkpt lat="44.45472" lon="6.55937">
        <ele>2184</ele>
        <time>2021-04-08T07:59:43Z</time>
      </trkpt>
      <trkpt lat="44.45472" lon="6.55938">
        <ele>2184</ele>
        <time>2021-04-08T07:59:44Z</time>
      </trkpt>
      <trkpt lat="44.45471" lon="6.55939">
        <ele>2185</ele>
        <time>2021-04-08T07:59:45Z</time>
      </trkpt>
      <trkpt lat="44.4547" lon="6.55941">
        <ele>2185</ele>
        <time>2021-04-08T07:59:46Z</time>
      </trkpt>
      <trkpt lat="44.4547" lon="6.55942">
        <ele>2184</ele>
        <time>2021-04-08T07:59:47Z</time>
      </trkpt>
      <trkpt lat="44.45469" lon="6.55943">
        <ele>2184</ele>
        <time>2021-04-08T07:59:48Z</time>
      </trkpt>
      <trkpt lat="44.45469" lon="6.55944">
        <ele>2184</ele>
        <time>2021-04-08T07:59:49Z</time>
      </trkpt>
      <trkpt lat="44.45468" lon="6.55944">
        <ele>2184</ele>
        <time>2021-04-08T07:59:50Z</time>
      </trkpt>
      <trkpt lat="44.45467" lon="6.55944">
        <ele>2184</ele>
        <time>2021-04-08T07:59:51Z</time>
      </trkpt>
      <trkpt lat="44.45467" lon="6.55944">
        <ele>2184</ele>
        <time>2021-04-08T07:59:52Z</time>
      </trkpt>
      <trkpt lat="44.45466" lon="6.55946">
        <ele>2184</ele>
        <time>2021-04-08T07:59:53Z</time>
      </trkpt>
      <trkpt lat="44.45466" lon="6.55946">
        <ele>2184</ele>
        <time>2021-04-08T07:59:54Z</time>
      </trkpt>
      <trkpt lat="44.45465" lon="6.55947">
        <ele>2184</ele>
        <time>2021-04-08T07:59:55Z</time>
      </trkpt>
      <trkpt lat="44.45464" lon="6.55947">
        <ele>2184</ele>
        <time>2021-04-08T07:59:56Z</time>
      </trkpt>
      <trkpt lat="44.45463" lon="6.55948">
        <ele>2184</ele>
        <time>2021-04-08T07:59:57Z</time>
      </trkpt>
      <trkpt lat="44.45462" lon="6.55949">
        <ele>2184</ele>
        <time>2021-04-08T07:59:58Z</time>
      </trkpt>
      <trkpt lat="44.45461" lon="6.55949">
        <ele>2184</ele>
        <time>2021-04-08T07:59:59Z</time>
      </trkpt>
      <trkpt lat="44.45461" lon="6.5595">
        <ele>2184</ele>
        <time>2021-04-08T08:00:00Z</time>
      </trkpt>
      <trkpt lat="44.4546" lon="6.5595">
        <ele>2184</ele>
        <time>2021-04-08T08:00:01Z</time>
      </trkpt>
      <trkpt lat="44.4546" lon="6.55951">
        <ele>2184</ele>
        <time>2021-04-08T08:00:02Z</time>
      </trkpt>
      <trkpt lat="44.45459" lon="6.55951">
        <ele>2185</ele>
        <time>2021-04-08T08:00:03Z</time>
      </trkpt>
      <trkpt lat="44.45458" lon="6.55952">
        <ele>2185</ele>
        <time>2021-04-08T08:00:04Z</time>
      </trkpt>
      <trkpt lat="44.45458" lon="6.55953">
        <ele>2185</ele>
        <time>2021-04-08T08:00:05Z</time>
      </trkpt>
      <trkpt lat="44.45457" lon="6.55953">
        <ele>2186</ele>
        <time>2021-04-08T08:00:06Z</time>
      </trkpt>
      <trkpt lat="44.45457" lon="6.55954">
        <ele>2186</ele>
        <time>2021-04-08T08:00:07Z</time>
      </trkpt>
      <trkpt lat="44.45456" lon="6.55955">
        <ele>2186</ele>
        <time>2021-04-08T08:00:08Z</time>
      </trkpt>
      <trkpt lat="44.45456" lon="6.55955">
        <ele>2186</ele>
        <time>2021-04-08T08:00:09Z</time>
      </trkpt>
      <trkpt lat="44.45456" lon="6.55956">
        <ele>2186</ele>
        <time>2021-04-08T08:00:10Z</time>
      </trkpt>
      <trkpt lat="44.45456" lon="6.55957">
        <ele>2187</ele>
        <time>2021-04-08T08:00:11Z</time>
      </trkpt>
      <trkpt lat="44.45456" lon="6.55957">
        <ele>2187</ele>
        <time>2021-04-08T08:00:12Z</time>
      </trkpt>
      <trkpt lat="44.45456" lon="6.55958">
        <ele>2187</ele>
        <time>2021-04-08T08:00:13Z</time>
      </trkpt>
      <trkpt lat="44.45456" lon="6.55959">
        <ele>2187</ele>
        <time>2021-04-08T08:00:14Z</time>
      </trkpt>
      <trkpt lat="44.45457" lon="6.5596">
        <ele>2187</ele>
        <time>2021-04-08T08:00:15Z</time>
      </trkpt>
      <trkpt lat="44.45457" lon="6.5596">
        <ele>2187</ele>
        <time>2021-04-08T08:00:16Z</time>
      </trkpt>
      <trkpt lat="44.45457" lon="6.55961">
        <ele>2187</ele>
        <time>2021-04-08T08:00:17Z</time>
      </trkpt>
      <trkpt lat="44.45458" lon="6.55962">
        <ele>2187</ele>
        <time>2021-04-08T08:00:18Z</time>
      </trkpt>
      <trkpt lat="44.45458" lon="6.55962">
        <ele>2188</ele>
        <time>2021-04-08T08:00:19Z</time>
      </trkpt>
      <trkpt lat="44.45458" lon="6.55963">
        <ele>2188</ele>
        <time>2021-04-08T08:00:20Z</time>
      </trkpt>
      <trkpt lat="44.45459" lon="6.55964">
        <ele>2188</ele>
        <time>2021-04-08T08:00:21Z</time>
      </trkpt>
      <trkpt lat="44.45459" lon="6.55964">
        <ele>2188</ele>
        <time>2021-04-08T08:00:22Z</time>
      </trkpt>
      <trkpt lat="44.4546" lon="6.55965">
        <ele>2188</ele>
        <time>2021-04-08T08:00:23Z</time>
      </trkpt>
      <trkpt lat="44.4546" lon="6.55966">
        <ele>2188</ele>
        <time>2021-04-08T08:00:24Z</time>
      </trkpt>
      <trkpt lat="44.4546" lon="6.55966">
        <ele>2188</ele>
        <time>2021-04-08T08:00:25Z</time>
      </trkpt>
      <trkpt lat="44.4546" lon="6.55967">
        <ele>2188</ele>
        <time>2021-04-08T08:00:26Z</time>
      </trkpt>
      <trkpt lat="44.45461" lon="6.55968">
        <ele>2189</ele>
        <time>2021-04-08T08:00:27Z</time>
      </trkpt>
      <trkpt lat="44.45461" lon="6.55969">
        <ele>2189</ele>
        <time>2021-04-08T08:00:28Z</time>
      </trkpt>
      <trkpt lat="44.45462" lon="6.55969">
        <ele>2189</ele>
        <time>2021-04-08T08:00:29Z</time>
      </trkpt>
      <trkpt lat="44.45462" lon="6.5597">
        <ele>2190</ele>
        <time>2021-04-08T08:00:30Z</time>
      </trkpt>
      <trkpt lat="44.45463" lon="6.55971">
        <ele>2190</ele>
        <time>2021-04-08T08:00:31Z</time>
      </trkpt>
      <trkpt lat="44.45464" lon="6.55971">
        <ele>2191</ele>
        <time>2021-04-08T08:00:32Z</time>
      </trkpt>
      <trkpt lat="44.45464" lon="6.55972">
        <ele>2191</ele>
        <time>2021-04-08T08:00:33Z</time>
      </trkpt>
      <trkpt lat="44.45465" lon="6.55972">
        <ele>2191</ele>
        <time>2021-04-08T08:00:34Z</time>
      </trkpt>
      <trkpt lat="44.45465" lon="6.55972">
        <ele>2192</ele>
        <time>2021-04-08T08:00:35Z</time>
      </trkpt>
      <trkpt lat="44.45465" lon="6.55972">
        <ele>2192</ele>
        <time>2021-04-08T08:00:36Z</time>
      </trkpt>
      <trkpt lat="44.45466" lon="6.55972">
        <ele>2192</ele>
        <time>2021-04-08T08:00:37Z</time>
      </trkpt>
      <trkpt lat="44.45466" lon="6.55972">
        <ele>2192</ele>
        <time>2021-04-08T08:00:38Z</time>
      </trkpt>
      <trkpt lat="44.45467" lon="6.55973">
        <ele>2193</ele>
        <time>2021-04-08T08:00:39Z</time>
      </trkpt>
      <trkpt lat="44.45467" lon="6.55973">
        <ele>2193</ele>
        <time>2021-04-08T08:00:40Z</time>
      </trkpt>
      <trkpt lat="44.45467" lon="6.55973">
        <ele>2193</ele>
        <time>2021-04-08T08:00:41Z</time>
      </trkpt>
      <trkpt lat="44.45467" lon="6.55974">
        <ele>2194</ele>
        <time>2021-04-08T08:00:42Z</time>
      </trkpt>
      <trkpt lat="44.45468" lon="6.55974">
        <ele>2194</ele>
        <time>2021-04-08T08:00:43Z</time>
      </trkpt>
      <trkpt lat="44.45468" lon="6.55974">
        <ele>2194</ele>
        <time>2021-04-08T08:00:44Z</time>
      </trkpt>
      <trkpt lat="44.45469" lon="6.55975">
        <ele>2194</ele>
        <time>2021-04-08T08:00:45Z</time>
      </trkpt>
      <trkpt lat="44.45469" lon="6.55976">
        <ele>2194</ele>
        <time>2021-04-08T08:00:46Z</time>
      </trkpt>
      <trkpt lat="44.45469" lon="6.55976">
        <ele>2195</ele>
        <time>2021-04-08T08:00:47Z</time>
      </trkpt>
      <trkpt lat="44.45469" lon="6.55976">
        <ele>2195</ele>
        <time>2021-04-08T08:00:48Z</time>
      </trkpt>
      <trkpt lat="44.45469" lon="6.55976">
        <ele>2195</ele>
        <time>2021-04-08T08:00:49Z</time>
      </trkpt>
      <trkpt lat="44.45469" lon="6.55976">
        <ele>2196</ele>
        <time>2021-04-08T08:00:50Z</time>
      </trkpt>
      <trkpt lat="44.45469" lon="6.55976">
        <ele>2196</ele>
        <time>2021-04-08T08:00:51Z</time>
      </trkpt>
      <trkpt lat="44.45468" lon="6.55977">
        <ele>2196</ele>
        <time>2021-04-08T08:00:52Z</time>
      </trkpt>
      <trkpt lat="44.45468" lon="6.55977">
        <ele>2196</ele>
        <time>2021-04-08T08:00:53Z</time>
      </trkpt>
      <trkpt lat="44.45468" lon="6.55977">
        <ele>2196</ele>
        <time>2021-04-08T08:00:54Z</time>
      </trkpt>
      <trkpt lat="44.45468" lon="6.55978">
        <ele>2196</ele>
        <time>2021-04-08T08:00:55Z</time>
      </trkpt>
      <trkpt lat="44.45468" lon="6.55978">
        <ele>2196</ele>
        <time>2021-04-08T08:00:56Z</time>
      </trkpt>
      <trkpt lat="44.45468" lon="6.55978">
        <ele>2196</ele>
        <time>2021-04-08T08:00:57Z</time>
      </trkpt>
      <trkpt lat="44.45467" lon="6.55977">
        <ele>2196</ele>
        <time>2021-04-08T08:00:58Z</time>
      </trkpt>
      <trkpt lat="44.45467" lon="6.55977">
        <ele>2196</ele>
        <time>2021-04-08T08:00:59Z</time>
      </trkpt>
      <trkpt lat="44.45466" lon="6.55977">
        <ele>2196</ele>
        <time>2021-04-08T08:01:00Z</time>
      </trkpt>
      <trkpt lat="44.45465" lon="6.55977">
        <ele>2196</ele>
        <time>2021-04-08T08:01:01Z</time>
      </trkpt>
      <trkpt lat="44.45464" lon="6.55977">
        <ele>2196</ele>
        <time>2021-04-08T08:01:02Z</time>
      </trkpt>
      <trkpt lat="44.45464" lon="6.55977">
        <ele>2196</ele>
        <time>2021-04-08T08:01:03Z</time>
      </trkpt>
      <trkpt lat="44.45463" lon="6.55977">
        <ele>2196</ele>
        <time>2021-04-08T08:01:04Z</time>
      </trkpt>
      <trkpt lat="44.45462" lon="6.55977">
        <ele>2196</ele>
        <time>2021-04-08T08:01:05Z</time>
      </trkpt>
      <trkpt lat="44.45461" lon="6.55978">
        <ele>2197</ele>
        <time>2021-04-08T08:01:06Z</time>
      </trkpt>
      <trkpt lat="44.45461" lon="6.55978">
        <ele>2197</ele>
        <time>2021-04-08T08:01:07Z</time>
      </trkpt>
      <trkpt lat="44.45461" lon="6.55979">
        <ele>2197</ele>
        <time>2021-04-08T08:01:08Z</time>
      </trkpt>
      <trkpt lat="44.45461" lon="6.55979">
        <ele>2197</ele>
        <time>2021-04-08T08:01:09Z</time>
      </trkpt>
      <trkpt lat="44.45461" lon="6.5598">
        <ele>2197</ele>
        <time>2021-04-08T08:01:10Z</time>
      </trkpt>
      <trkpt lat="44.4546" lon="6.5598">
        <ele>2197</ele>
        <time>2021-04-08T08:01:11Z</time>
      </trkpt>
      <trkpt lat="44.4546" lon="6.55981">
        <ele>2197</ele>
        <time>2021-04-08T08:01:12Z</time>
      </trkpt>
      <trkpt lat="44.45459" lon="6.55981">
        <ele>2197</ele>
        <time>2021-04-08T08:01:13Z</time>
      </trkpt>
      <trkpt lat="44.45458" lon="6.55981">
        <ele>2197</ele>
        <time>2021-04-08T08:01:14Z</time>
      </trkpt>
      <trkpt lat="44.45457" lon="6.5598">
        <ele>2198</ele>
        <time>2021-04-08T08:01:15Z</time>
      </trkpt>
      <trkpt lat="44.45456" lon="6.5598">
        <ele>2198</ele>
        <time>2021-04-08T08:01:16Z</time>
      </trkpt>
      <trkpt lat="44.45455" lon="6.5598">
        <ele>2198</ele>
        <time>2021-04-08T08:01:17Z</time>
      </trkpt>
      <trkpt lat="44.45454" lon="6.55981">
        <ele>2198</ele>
        <time>2021-04-08T08:01:18Z</time>
      </trkpt>
      <trkpt lat="44.45454" lon="6.55981">
        <ele>2198</ele>
        <time>2021-04-08T08:01:19Z</time>
      </trkpt>
      <trkpt lat="44.45454" lon="6.55981">
        <ele>2198</ele>
        <time>2021-04-08T08:01:20Z</time>
      </trkpt>
      <trkpt lat="44.45453" lon="6.55981">
        <ele>2199</ele>
        <time>2021-04-08T08:01:21Z</time>
      </trkpt>
      <trkpt lat="44.45453" lon="6.55982">
        <ele>2199</ele>
        <time>2021-04-08T08:01:22Z</time>
      </trkpt>
      <trkpt lat="44.45452" lon="6.55982">
        <ele>2199</ele>
        <time>2021-04-08T08:01:23Z</time>
      </trkpt>
      <trkpt lat="44.45451" lon="6.55982">
        <ele>2199</ele>
        <time>2021-04-08T08:01:24Z</time>
      </trkpt>
      <trkpt lat="44.45451" lon="6.55982">
        <ele>2200</ele>
        <time>2021-04-08T08:01:25Z</time>
      </trkpt>
      <trkpt lat="44.4545" lon="6.55982">
        <ele>2200</ele>
        <time>2021-04-08T08:01:26Z</time>
      </trkpt>
      <trkpt lat="44.45449" lon="6.55982">
        <ele>2201</ele>
        <time>2021-04-08T08:01:27Z</time>
      </trkpt>
      <trkpt lat="44.45448" lon="6.55981">
        <ele>2201</ele>
        <time>2021-04-08T08:01:28Z</time>
      </trkpt>
      <trkpt lat="44.45448" lon="6.55981">
        <ele>2201</ele>
        <time>2021-04-08T08:01:29Z</time>
      </trkpt>
      <trkpt lat="44.45447" lon="6.55981">
        <ele>2202</ele>
        <time>2021-04-08T08:01:30Z</time>
      </trkpt>
      <trkpt lat="44.45446" lon="6.55981">
        <ele>2202</ele>
        <time>2021-04-08T08:01:31Z</time>
      </trkpt>
      <trkpt lat="44.45445" lon="6.55981">
        <ele>2202</ele>
        <time>2021-04-08T08:01:32Z</time>
      </trkpt>
      <trkpt lat="44.45444" lon="6.55981">
        <ele>2202</ele>
        <time>2021-04-08T08:01:33Z</time>
      </trkpt>
      <trkpt lat="44.45444" lon="6.55981">
        <ele>2203</ele>
        <time>2021-04-08T08:01:34Z</time>
      </trkpt>
      <trkpt lat="44.45443" lon="6.55981">
        <ele>2203</ele>
        <time>2021-04-08T08:01:35Z</time>
      </trkpt>
      <trkpt lat="44.45442" lon="6.55981">
        <ele>2203</ele>
        <time>2021-04-08T08:01:36Z</time>
      </trkpt>
      <trkpt lat="44.45442" lon="6.55982">
        <ele>2203</ele>
        <time>2021-04-08T08:01:37Z</time>
      </trkpt>
      <trkpt lat="44.45441" lon="6.55982">
        <ele>2204</ele>
        <time>2021-04-08T08:01:38Z</time>
      </trkpt>
      <trkpt lat="44.4544" lon="6.55983">
        <ele>2204</ele>
        <time>2021-04-08T08:01:39Z</time>
      </trkpt>
      <trkpt lat="44.4544" lon="6.55983">
        <ele>2204</ele>
        <time>2021-04-08T08:01:40Z</time>
      </trkpt>
      <trkpt lat="44.4544" lon="6.55984">
        <ele>2204</ele>
        <time>2021-04-08T08:01:41Z</time>
      </trkpt>
      <trkpt lat="44.45439" lon="6.55984">
        <ele>2204</ele>
        <time>2021-04-08T08:01:42Z</time>
      </trkpt>
      <trkpt lat="44.45439" lon="6.55985">
        <ele>2204</ele>
        <time>2021-04-08T08:01:43Z</time>
      </trkpt>
      <trkpt lat="44.45439" lon="6.55985">
        <ele>2205</ele>
        <time>2021-04-08T08:01:44Z</time>
      </trkpt>
      <trkpt lat="44.45438" lon="6.55986">
        <ele>2205</ele>
        <time>2021-04-08T08:01:45Z</time>
      </trkpt>
      <trkpt lat="44.45438" lon="6.55986">
        <ele>2205</ele>
        <time>2021-04-08T08:01:46Z</time>
      </trkpt>
      <trkpt lat="44.45438" lon="6.55987">
        <ele>2205</ele>
        <time>2021-04-08T08:01:47Z</time>
      </trkpt>
      <trkpt lat="44.45437" lon="6.55987">
        <ele>2205</ele>
        <time>2021-04-08T08:01:48Z</time>
      </trkpt>
      <trkpt lat="44.45437" lon="6.55988">
        <ele>2205</ele>
        <time>2021-04-08T08:01:49Z</time>
      </trkpt>
      <trkpt lat="44.45437" lon="6.55988">
        <ele>2205</ele>
        <time>2021-04-08T08:01:50Z</time>
      </trkpt>
      <trkpt lat="44.45437" lon="6.55989">
        <ele>2206</ele>
        <time>2021-04-08T08:01:51Z</time>
      </trkpt>
      <trkpt lat="44.45437" lon="6.5599">
        <ele>2206</ele>
        <time>2021-04-08T08:01:52Z</time>
      </trkpt>
      <trkpt lat="44.45436" lon="6.55992">
        <ele>2206</ele>
        <time>2021-04-08T08:01:53Z</time>
      </trkpt>
      <trkpt lat="44.45436" lon="6.55993">
        <ele>2206</ele>
        <time>2021-04-08T08:01:54Z</time>
      </trkpt>
      <trkpt lat="44.45435" lon="6.55994">
        <ele>2206</ele>
        <time>2021-04-08T08:01:55Z</time>
      </trkpt>
      <trkpt lat="44.45435" lon="6.55995">
        <ele>2206</ele>
        <time>2021-04-08T08:01:56Z</time>
      </trkpt>
      <trkpt lat="44.45434" lon="6.55996">
        <ele>2206</ele>
        <time>2021-04-08T08:01:57Z</time>
      </trkpt>
      <trkpt lat="44.45433" lon="6.55996">
        <ele>2206</ele>
        <time>2021-04-08T08:01:58Z</time>
      </trkpt>
      <trkpt lat="44.45432" lon="6.55997">
        <ele>2206</ele>
        <time>2021-04-08T08:01:59Z</time>
      </trkpt>
      <trkpt lat="44.45432" lon="6.55997">
        <ele>2206</ele>
        <time>2021-04-08T08:02:00Z</time>
      </trkpt>
      <trkpt lat="44.45431" lon="6.55998">
        <ele>2206</ele>
        <time>2021-04-08T08:02:01Z</time>
      </trkpt>
      <trkpt lat="44.45431" lon="6.55998">
        <ele>2206</ele>
        <time>2021-04-08T08:02:02Z</time>
      </trkpt>
      <trkpt lat="44.45431" lon="6.55998">
        <ele>2207</ele>
        <time>2021-04-08T08:02:03Z</time>
      </trkpt>
      <trkpt lat="44.4543" lon="6.55999">
        <ele>2207</ele>
        <time>2021-04-08T08:02:04Z</time>
      </trkpt>
      <trkpt lat="44.4543" lon="6.55999">
        <ele>2207</ele>
        <time>2021-04-08T08:02:05Z</time>
      </trkpt>
      <trkpt lat="44.4543" lon="6.55999">
        <ele>2207</ele>
        <time>2021-04-08T08:02:06Z</time>
      </trkpt>
      <trkpt lat="44.4543" lon="6.56">
        <ele>2207</ele>
        <time>2021-04-08T08:02:07Z</time>
      </trkpt>
      <trkpt lat="44.4543" lon="6.56002">
        <ele>2207</ele>
        <time>2021-04-08T08:02:08Z</time>
      </trkpt>
      <trkpt lat="44.4543" lon="6.56003">
        <ele>2207</ele>
        <time>2021-04-08T08:02:09Z</time>
      </trkpt>
      <trkpt lat="44.4543" lon="6.56004">
        <ele>2208</ele>
        <time>2021-04-08T08:02:10Z</time>
      </trkpt>
      <trkpt lat="44.4543" lon="6.56004">
        <ele>2208</ele>
        <time>2021-04-08T08:02:11Z</time>
      </trkpt>
      <trkpt lat="44.4543" lon="6.56005">
        <ele>2208</ele>
        <time>2021-04-08T08:02:12Z</time>
      </trkpt>
      <trkpt lat="44.4543" lon="6.56005">
        <ele>2209</ele>
        <time>2021-04-08T08:02:13Z</time>
      </trkpt>
      <trkpt lat="44.4543" lon="6.56006">
        <ele>2209</ele>
        <time>2021-04-08T08:02:14Z</time>
      </trkpt>
      <trkpt lat="44.4543" lon="6.56006">
        <ele>2209</ele>
        <time>2021-04-08T08:02:15Z</time>
      </trkpt>
      <trkpt lat="44.45429" lon="6.56007">
        <ele>2209</ele>
        <time>2021-04-08T08:02:16Z</time>
      </trkpt>
      <trkpt lat="44.45429" lon="6.56008">
        <ele>2210</ele>
        <time>2021-04-08T08:02:17Z</time>
      </trkpt>
      <trkpt lat="44.45429" lon="6.56009">
        <ele>2210</ele>
        <time>2021-04-08T08:02:18Z</time>
      </trkpt>
      <trkpt lat="44.45429" lon="6.5601">
        <ele>2210</ele>
        <time>2021-04-08T08:02:19Z</time>
      </trkpt>
      <trkpt lat="44.45428" lon="6.56011">
        <ele>2210</ele>
        <time>2021-04-08T08:02:20Z</time>
      </trkpt>
      <trkpt lat="44.45428" lon="6.56012">
        <ele>2211</ele>
        <time>2021-04-08T08:02:21Z</time>
      </trkpt>
      <trkpt lat="44.45428" lon="6.56013">
        <ele>2211</ele>
        <time>2021-04-08T08:02:22Z</time>
      </trkpt>
      <trkpt lat="44.45428" lon="6.56014">
        <ele>2211</ele>
        <time>2021-04-08T08:02:23Z</time>
      </trkpt>
      <trkpt lat="44.45429" lon="6.56015">
        <ele>2211</ele>
        <time>2021-04-08T08:02:24Z</time>
      </trkpt>
      <trkpt lat="44.45429" lon="6.56017">
        <ele>2211</ele>
        <time>2021-04-08T08:02:25Z</time>
      </trkpt>
      <trkpt lat="44.45428" lon="6.56018">
        <ele>2212</ele>
        <time>2021-04-08T08:02:26Z</time>
      </trkpt>
      <trkpt lat="44.45428" lon="6.56019">
        <ele>2212</ele>
        <time>2021-04-08T08:02:27Z</time>
      </trkpt>
      <trkpt lat="44.45427" lon="6.5602">
        <ele>2212</ele>
        <time>2021-04-08T08:02:28Z</time>
      </trkpt>
      <trkpt lat="44.45427" lon="6.56021">
        <ele>2212</ele>
        <time>2021-04-08T08:02:29Z</time>
      </trkpt>
      <trkpt lat="44.45426" lon="6.56022">
        <ele>2212</ele>
        <time>2021-04-08T08:02:30Z</time>
      </trkpt>
      <trkpt lat="44.45426" lon="6.56023">
        <ele>2212</ele>
        <time>2021-04-08T08:02:31Z</time>
      </trkpt>
      <trkpt lat="44.45425" lon="6.56024">
        <ele>2212</ele>
        <time>2021-04-08T08:02:32Z</time>
      </trkpt>
      <trkpt lat="44.45424" lon="6.56024">
        <ele>2212</ele>
        <time>2021-04-08T08:02:33Z</time>
      </trkpt>
      <trkpt lat="44.45423" lon="6.56026">
        <ele>2212</ele>
        <time>2021-04-08T08:02:34Z</time>
      </trkpt>
      <trkpt lat="44.45422" lon="6.56026">
        <ele>2212</ele>
        <time>2021-04-08T08:02:35Z</time>
      </trkpt>
      <trkpt lat="44.45422" lon="6.56026">
        <ele>2213</ele>
        <time>2021-04-08T08:02:36Z</time>
      </trkpt>
      <trkpt lat="44.45421" lon="6.56027">
        <ele>2213</ele>
        <time>2021-04-08T08:02:37Z</time>
      </trkpt>
      <trkpt lat="44.45421" lon="6.56027">
        <ele>2213</ele>
        <time>2021-04-08T08:02:38Z</time>
      </trkpt>
      <trkpt lat="44.4542" lon="6.56027">
        <ele>2213</ele>
        <time>2021-04-08T08:02:39Z</time>
      </trkpt>
      <trkpt lat="44.4542" lon="6.56028">
        <ele>2213</ele>
        <time>2021-04-08T08:02:40Z</time>
      </trkpt>
      <trkpt lat="44.45419" lon="6.56028">
        <ele>2214</ele>
        <time>2021-04-08T08:02:41Z</time>
      </trkpt>
      <trkpt lat="44.45418" lon="6.56028">
        <ele>2214</ele>
        <time>2021-04-08T08:02:42Z</time>
      </trkpt>
      <trkpt lat="44.45417" lon="6.56028">
        <ele>2214</ele>
        <time>2021-04-08T08:02:43Z</time>
      </trkpt>
      <trkpt lat="44.45416" lon="6.56029">
        <ele>2214</ele>
        <time>2021-04-08T08:02:44Z</time>
      </trkpt>
      <trkpt lat="44.45415" lon="6.56029">
        <ele>2215</ele>
        <time>2021-04-08T08:02:45Z</time>
      </trkpt>
      <trkpt lat="44.45414" lon="6.5603">
        <ele>2215</ele>
        <time>2021-04-08T08:02:46Z</time>
      </trkpt>
      <trkpt lat="44.45412" lon="6.5603">
        <ele>2215</ele>
        <time>2021-04-08T08:02:47Z</time>
      </trkpt>
      <trkpt lat="44.45411" lon="6.5603">
        <ele>2216</ele>
        <time>2021-04-08T08:02:48Z</time>
      </trkpt>
      <trkpt lat="44.4541" lon="6.5603">
        <ele>2216</ele>
        <time>2021-04-08T08:02:49Z</time>
      </trkpt>
      <trkpt lat="44.45409" lon="6.5603">
        <ele>2216</ele>
        <time>2021-04-08T08:02:50Z</time>
      </trkpt>
      <trkpt lat="44.45407" lon="6.5603">
        <ele>2216</ele>
        <time>2021-04-08T08:02:51Z</time>
      </trkpt>
      <trkpt lat="44.45406" lon="6.56031">
        <ele>2216</ele>
        <time>2021-04-08T08:02:52Z</time>
      </trkpt>
      <trkpt lat="44.45406" lon="6.56032">
        <ele>2217</ele>
        <time>2021-04-08T08:02:53Z</time>
      </trkpt>
      <trkpt lat="44.45406" lon="6.56033">
        <ele>2217</ele>
        <time>2021-04-08T08:02:54Z</time>
      </trkpt>
      <trkpt lat="44.45405" lon="6.56033">
        <ele>2217</ele>
        <time>2021-04-08T08:02:55Z</time>
      </trkpt>
      <trkpt lat="44.45406" lon="6.56034">
        <ele>2218</ele>
        <time>2021-04-08T08:02:56Z</time>
      </trkpt>
      <trkpt lat="44.45406" lon="6.56036">
        <ele>2218</ele>
        <time>2021-04-08T08:02:57Z</time>
      </trkpt>
      <trkpt lat="44.45406" lon="6.56037">
        <ele>2218</ele>
        <time>2021-04-08T08:02:58Z</time>
      </trkpt>
      <trkpt lat="44.45406" lon="6.56037">
        <ele>2218</ele>
        <time>2021-04-08T08:02:59Z</time>
      </trkpt>
      <trkpt lat="44.45406" lon="6.56038">
        <ele>2218</ele>
        <time>2021-04-08T08:03:00Z</time>
      </trkpt>
      <trkpt lat="44.45406" lon="6.56039">
        <ele>2218</ele>
        <time>2021-04-08T08:03:01Z</time>
      </trkpt>
      <trkpt lat="44.45405" lon="6.5604">
        <ele>2218</ele>
        <time>2021-04-08T08:03:02Z</time>
      </trkpt>
      <trkpt lat="44.45405" lon="6.5604">
        <ele>2218</ele>
        <time>2021-04-08T08:03:03Z</time>
      </trkpt>
      <trkpt lat="44.45404" lon="6.56041">
        <ele>2217</ele>
        <time>2021-04-08T08:03:04Z</time>
      </trkpt>
      <trkpt lat="44.45403" lon="6.56042">
        <ele>2217</ele>
        <time>2021-04-08T08:03:05Z</time>
      </trkpt>
      <trkpt lat="44.45403" lon="6.56042">
        <ele>2217</ele>
        <time>2021-04-08T08:03:06Z</time>
      </trkpt>
      <trkpt lat="44.45403" lon="6.56043">
        <ele>2217</ele>
        <time>2021-04-08T08:03:07Z</time>
      </trkpt>
      <trkpt lat="44.45403" lon="6.56043">
        <ele>2217</ele>
        <time>2021-04-08T08:03:08Z</time>
      </trkpt>
      <trkpt lat="44.45402" lon="6.56043">
        <ele>2217</ele>
        <time>2021-04-08T08:03:09Z</time>
      </trkpt>
      <trkpt lat="44.45401" lon="6.56043">
        <ele>2217</ele>
        <time>2021-04-08T08:03:10Z</time>
      </trkpt>
      <trkpt lat="44.45401" lon="6.56044">
        <ele>2217</ele>
        <time>2021-04-08T08:03:11Z</time>
      </trkpt>
      <trkpt lat="44.454" lon="6.56044">
        <ele>2217</ele>
        <time>2021-04-08T08:03:12Z</time>
      </trkpt>
      <trkpt lat="44.454" lon="6.56044">
        <ele>2217</ele>
        <time>2021-04-08T08:03:13Z</time>
      </trkpt>
      <trkpt lat="44.45399" lon="6.56045">
        <ele>2217</ele>
        <time>2021-04-08T08:03:14Z</time>
      </trkpt>
      <trkpt lat="44.45398" lon="6.56045">
        <ele>2217</ele>
        <time>2021-04-08T08:03:15Z</time>
      </trkpt>
      <trkpt lat="44.45397" lon="6.56046">
        <ele>2217</ele>
        <time>2021-04-08T08:03:16Z</time>
      </trkpt>
      <trkpt lat="44.45397" lon="6.56046">
        <ele>2217</ele>
        <time>2021-04-08T08:03:17Z</time>
      </trkpt>
      <trkpt lat="44.45397" lon="6.56047">
        <ele>2217</ele>
        <time>2021-04-08T08:03:18Z</time>
      </trkpt>
      <trkpt lat="44.45396" lon="6.56048">
        <ele>2217</ele>
        <time>2021-04-08T08:03:19Z</time>
      </trkpt>
      <trkpt lat="44.45395" lon="6.56049">
        <ele>2217</ele>
        <time>2021-04-08T08:03:20Z</time>
      </trkpt>
      <trkpt lat="44.45395" lon="6.56049">
        <ele>2217</ele>
        <time>2021-04-08T08:03:21Z</time>
      </trkpt>
      <trkpt lat="44.45394" lon="6.5605">
        <ele>2217</ele>
        <time>2021-04-08T08:03:22Z</time>
      </trkpt>
      <trkpt lat="44.45394" lon="6.56051">
        <ele>2217</ele>
        <time>2021-04-08T08:03:23Z</time>
      </trkpt>
      <trkpt lat="44.45392" lon="6.56052">
        <ele>2217</ele>
        <time>2021-04-08T08:03:24Z</time>
      </trkpt>
      <trkpt lat="44.45392" lon="6.56054">
        <ele>2217</ele>
        <time>2021-04-08T08:03:25Z</time>
      </trkpt>
      <trkpt lat="44.45391" lon="6.56055">
        <ele>2217</ele>
        <time>2021-04-08T08:03:26Z</time>
      </trkpt>
      <trkpt lat="44.4539" lon="6.56057">
        <ele>2216</ele>
        <time>2021-04-08T08:03:27Z</time>
      </trkpt>
      <trkpt lat="44.45389" lon="6.56059">
        <ele>2216</ele>
        <time>2021-04-08T08:03:28Z</time>
      </trkpt>
      <trkpt lat="44.45388" lon="6.5606">
        <ele>2216</ele>
        <time>2021-04-08T08:03:29Z</time>
      </trkpt>
      <trkpt lat="44.45386" lon="6.56061">
        <ele>2216</ele>
        <time>2021-04-08T08:03:30Z</time>
      </trkpt>
      <trkpt lat="44.45386" lon="6.56063">
        <ele>2216</ele>
        <time>2021-04-08T08:03:31Z</time>
      </trkpt>
      <trkpt lat="44.45385" lon="6.56064">
        <ele>2216</ele>
        <time>2021-04-08T08:03:32Z</time>
      </trkpt>
      <trkpt lat="44.45384" lon="6.56065">
        <ele>2216</ele>
        <time>2021-04-08T08:03:33Z</time>
      </trkpt>
      <trkpt lat="44.45384" lon="6.56066">
        <ele>2216</ele>
        <time>2021-04-08T08:03:34Z</time>
      </trkpt>
      <trkpt lat="44.45383" lon="6.56067">
        <ele>2215</ele>
        <time>2021-04-08T08:03:35Z</time>
      </trkpt>
      <trkpt lat="44.45382" lon="6.56068">
        <ele>2215</ele>
        <time>2021-04-08T08:03:36Z</time>
      </trkpt>
      <trkpt lat="44.45381" lon="6.56068">
        <ele>2215</ele>
        <time>2021-04-08T08:03:37Z</time>
      </trkpt>
      <trkpt lat="44.4538" lon="6.56069">
        <ele>2215</ele>
        <time>2021-04-08T08:03:38Z</time>
      </trkpt>
      <trkpt lat="44.4538" lon="6.5607">
        <ele>2215</ele>
        <time>2021-04-08T08:03:39Z</time>
      </trkpt>
      <trkpt lat="44.4538" lon="6.56071">
        <ele>2214</ele>
        <time>2021-04-08T08:03:40Z</time>
      </trkpt>
      <trkpt lat="44.45379" lon="6.56072">
        <ele>2214</ele>
        <time>2021-04-08T08:03:41Z</time>
      </trkpt>
      <trkpt lat="44.45378" lon="6.56072">
        <ele>2214</ele>
        <time>2021-04-08T08:03:42Z</time>
      </trkpt>
      <trkpt lat="44.45378" lon="6.56073">
        <ele>2214</ele>
        <time>2021-04-08T08:03:43Z</time>
      </trkpt>
      <trkpt lat="44.45378" lon="6.56073">
        <ele>2214</ele>
        <time>2021-04-08T08:03:44Z</time>
      </trkpt>
      <trkpt lat="44.45377" lon="6.56074">
        <ele>2214</ele>
        <time>2021-04-08T08:03:45Z</time>
      </trkpt>
      <trkpt lat="44.45376" lon="6.56074">
        <ele>2214</ele>
        <time>2021-04-08T08:03:46Z</time>
      </trkpt>
      <trkpt lat="44.45376" lon="6.56075">
        <ele>2214</ele>
        <time>2021-04-08T08:03:47Z</time>
      </trkpt>
      <trkpt lat="44.45375" lon="6.56076">
        <ele>2214</ele>
        <time>2021-04-08T08:03:48Z</time>
      </trkpt>
      <trkpt lat="44.45374" lon="6.56076">
        <ele>2214</ele>
        <time>2021-04-08T08:03:49Z</time>
      </trkpt>
      <trkpt lat="44.45374" lon="6.56077">
        <ele>2214</ele>
        <time>2021-04-08T08:03:50Z</time>
      </trkpt>
      <trkpt lat="44.45373" lon="6.56078">
        <ele>2214</ele>
        <time>2021-04-08T08:03:51Z</time>
      </trkpt>
      <trkpt lat="44.45372" lon="6.56078">
        <ele>2215</ele>
        <time>2021-04-08T08:03:52Z</time>
      </trkpt>
      <trkpt lat="44.45371" lon="6.56079">
        <ele>2217</ele>
        <time>2021-04-08T08:03:53Z</time>
      </trkpt>
      <trkpt lat="44.45371" lon="6.5608">
        <ele>2218</ele>
        <time>2021-04-08T08:03:54Z</time>
      </trkpt>
      <trkpt lat="44.45369" lon="6.5608">
        <ele>2217</ele>
        <time>2021-04-08T08:03:55Z</time>
      </trkpt>
      <trkpt lat="44.45368" lon="6.5608">
        <ele>2217</ele>
        <time>2021-04-08T08:03:56Z</time>
      </trkpt>
      <trkpt lat="44.45367" lon="6.56081">
        <ele>2216</ele>
        <time>2021-04-08T08:03:57Z</time>
      </trkpt>
      <trkpt lat="44.45367" lon="6.56082">
        <ele>2216</ele>
        <time>2021-04-08T08:03:58Z</time>
      </trkpt>
      <trkpt lat="44.45367" lon="6.56083">
        <ele>2216</ele>
        <time>2021-04-08T08:03:59Z</time>
      </trkpt>
      <trkpt lat="44.45367" lon="6.56084">
        <ele>2216</ele>
        <time>2021-04-08T08:04:00Z</time>
      </trkpt>
      <trkpt lat="44.45366" lon="6.56085">
        <ele>2216</ele>
        <time>2021-04-08T08:04:01Z</time>
      </trkpt>
      <trkpt lat="44.45366" lon="6.56086">
        <ele>2216</ele>
        <time>2021-04-08T08:04:02Z</time>
      </trkpt>
      <trkpt lat="44.45365" lon="6.56087">
        <ele>2216</ele>
        <time>2021-04-08T08:04:03Z</time>
      </trkpt>
      <trkpt lat="44.45364" lon="6.56089">
        <ele>2216</ele>
        <time>2021-04-08T08:04:04Z</time>
      </trkpt>
      <trkpt lat="44.45363" lon="6.56091">
        <ele>2216</ele>
        <time>2021-04-08T08:04:05Z</time>
      </trkpt>
      <trkpt lat="44.45363" lon="6.56092">
        <ele>2216</ele>
        <time>2021-04-08T08:04:06Z</time>
      </trkpt>
      <trkpt lat="44.45362" lon="6.56092">
        <ele>2216</ele>
        <time>2021-04-08T08:04:07Z</time>
      </trkpt>
      <trkpt lat="44.45361" lon="6.56094">
        <ele>2216</ele>
        <time>2021-04-08T08:04:08Z</time>
      </trkpt>
      <trkpt lat="44.4536" lon="6.56095">
        <ele>2216</ele>
        <time>2021-04-08T08:04:09Z</time>
      </trkpt>
      <trkpt lat="44.4536" lon="6.56095">
        <ele>2217</ele>
        <time>2021-04-08T08:04:10Z</time>
      </trkpt>
      <trkpt lat="44.45359" lon="6.56096">
        <ele>2217</ele>
        <time>2021-04-08T08:04:11Z</time>
      </trkpt>
      <trkpt lat="44.45359" lon="6.56096">
        <ele>2217</ele>
        <time>2021-04-08T08:04:12Z</time>
      </trkpt>
      <trkpt lat="44.45359" lon="6.56097">
        <ele>2217</ele>
        <time>2021-04-08T08:04:13Z</time>
      </trkpt>
      <trkpt lat="44.45358" lon="6.56098">
        <ele>2217</ele>
        <time>2021-04-08T08:04:14Z</time>
      </trkpt>
      <trkpt lat="44.45358" lon="6.56098">
        <ele>2217</ele>
        <time>2021-04-08T08:04:15Z</time>
      </trkpt>
      <trkpt lat="44.45358" lon="6.56098">
        <ele>2217</ele>
        <time>2021-04-08T08:04:16Z</time>
      </trkpt>
      <trkpt lat="44.45357" lon="6.56099">
        <ele>2218</ele>
        <time>2021-04-08T08:04:17Z</time>
      </trkpt>
      <trkpt lat="44.45357" lon="6.561">
        <ele>2218</ele>
        <time>2021-04-08T08:04:18Z</time>
      </trkpt>
      <trkpt lat="44.45356" lon="6.561">
        <ele>2219</ele>
        <time>2021-04-08T08:04:19Z</time>
      </trkpt>
      <trkpt lat="44.45356" lon="6.56101">
        <ele>2219</ele>
        <time>2021-04-08T08:04:20Z</time>
      </trkpt>
      <trkpt lat="44.45355" lon="6.56102">
        <ele>2219</ele>
        <time>2021-04-08T08:04:21Z</time>
      </trkpt>
      <trkpt lat="44.45355" lon="6.56102">
        <ele>2220</ele>
        <time>2021-04-08T08:04:22Z</time>
      </trkpt>
      <trkpt lat="44.45354" lon="6.56103">
        <ele>2220</ele>
        <time>2021-04-08T08:04:23Z</time>
      </trkpt>
      <trkpt lat="44.45353" lon="6.56103">
        <ele>2221</ele>
        <time>2021-04-08T08:04:24Z</time>
      </trkpt>
      <trkpt lat="44.45352" lon="6.56103">
        <ele>2221</ele>
        <time>2021-04-08T08:04:25Z</time>
      </trkpt>
      <trkpt lat="44.45351" lon="6.56103">
        <ele>2222</ele>
        <time>2021-04-08T08:04:26Z</time>
      </trkpt>
      <trkpt lat="44.45351" lon="6.56103">
        <ele>2222</ele>
        <time>2021-04-08T08:04:27Z</time>
      </trkpt>
      <trkpt lat="44.4535" lon="6.56104">
        <ele>2222</ele>
        <time>2021-04-08T08:04:28Z</time>
      </trkpt>
      <trkpt lat="44.45349" lon="6.56104">
        <ele>2223</ele>
        <time>2021-04-08T08:04:29Z</time>
      </trkpt>
      <trkpt lat="44.45349" lon="6.56105">
        <ele>2223</ele>
        <time>2021-04-08T08:04:30Z</time>
      </trkpt>
      <trkpt lat="44.45348" lon="6.56105">
        <ele>2224</ele>
        <time>2021-04-08T08:04:31Z</time>
      </trkpt>
      <trkpt lat="44.45347" lon="6.56106">
        <ele>2224</ele>
        <time>2021-04-08T08:04:32Z</time>
      </trkpt>
      <trkpt lat="44.45346" lon="6.56106">
        <ele>2225</ele>
        <time>2021-04-08T08:04:33Z</time>
      </trkpt>
      <trkpt lat="44.45345" lon="6.56107">
        <ele>2225</ele>
        <time>2021-04-08T08:04:34Z</time>
      </trkpt>
      <trkpt lat="44.45344" lon="6.56107">
        <ele>2226</ele>
        <time>2021-04-08T08:04:35Z</time>
      </trkpt>
      <trkpt lat="44.45344" lon="6.56108">
        <ele>2226</ele>
        <time>2021-04-08T08:04:36Z</time>
      </trkpt>
      <trkpt lat="44.45343" lon="6.56109">
        <ele>2226</ele>
        <time>2021-04-08T08:04:37Z</time>
      </trkpt>
      <trkpt lat="44.45343" lon="6.5611">
        <ele>2226</ele>
        <time>2021-04-08T08:04:38Z</time>
      </trkpt>
      <trkpt lat="44.45342" lon="6.56111">
        <ele>2227</ele>
        <time>2021-04-08T08:04:39Z</time>
      </trkpt>
      <trkpt lat="44.45342" lon="6.56113">
        <ele>2227</ele>
        <time>2021-04-08T08:04:40Z</time>
      </trkpt>
      <trkpt lat="44.45341" lon="6.56115">
        <ele>2227</ele>
        <time>2021-04-08T08:04:41Z</time>
      </trkpt>
      <trkpt lat="44.45341" lon="6.56117">
        <ele>2228</ele>
        <time>2021-04-08T08:04:42Z</time>
      </trkpt>
      <trkpt lat="44.4534" lon="6.56118">
        <ele>2228</ele>
        <time>2021-04-08T08:04:43Z</time>
      </trkpt>
      <trkpt lat="44.4534" lon="6.5612">
        <ele>2228</ele>
        <time>2021-04-08T08:04:44Z</time>
      </trkpt>
      <trkpt lat="44.45339" lon="6.56121">
        <ele>2228</ele>
        <time>2021-04-08T08:04:45Z</time>
      </trkpt>
      <trkpt lat="44.45339" lon="6.56122">
        <ele>2228</ele>
        <time>2021-04-08T08:04:46Z</time>
      </trkpt>
      <trkpt lat="44.45339" lon="6.56123">
        <ele>2228</ele>
        <time>2021-04-08T08:04:47Z</time>
      </trkpt>
      <trkpt lat="44.4534" lon="6.56125">
        <ele>2229</ele>
        <time>2021-04-08T08:04:48Z</time>
      </trkpt>
      <trkpt lat="44.45339" lon="6.56126">
        <ele>2229</ele>
        <time>2021-04-08T08:04:49Z</time>
      </trkpt>
      <trkpt lat="44.45339" lon="6.56127">
        <ele>2229</ele>
        <time>2021-04-08T08:04:50Z</time>
      </trkpt>
      <trkpt lat="44.45339" lon="6.56128">
        <ele>2229</ele>
        <time>2021-04-08T08:04:51Z</time>
      </trkpt>
      <trkpt lat="44.45339" lon="6.5613">
        <ele>2229</ele>
        <time>2021-04-08T08:04:52Z</time>
      </trkpt>
      <trkpt lat="44.45339" lon="6.56131">
        <ele>2230</ele>
        <time>2021-04-08T08:04:53Z</time>
      </trkpt>
      <trkpt lat="44.45339" lon="6.56132">
        <ele>2230</ele>
        <time>2021-04-08T08:04:54Z</time>
      </trkpt>
      <trkpt lat="44.45339" lon="6.56133">
        <ele>2230</ele>
        <time>2021-04-08T08:04:55Z</time>
      </trkpt>
      <trkpt lat="44.45338" lon="6.56134">
        <ele>2230</ele>
        <time>2021-04-08T08:04:56Z</time>
      </trkpt>
      <trkpt lat="44.45338" lon="6.56135">
        <ele>2230</ele>
        <time>2021-04-08T08:04:57Z</time>
      </trkpt>
      <trkpt lat="44.45338" lon="6.56136">
        <ele>2230</ele>
        <time>2021-04-08T08:04:58Z</time>
      </trkpt>
      <trkpt lat="44.45338" lon="6.56137">
        <ele>2231</ele>
        <time>2021-04-08T08:04:59Z</time>
      </trkpt>
      <trkpt lat="44.45338" lon="6.56138">
        <ele>2231</ele>
        <time>2021-04-08T08:05:00Z</time>
      </trkpt>
      <trkpt lat="44.45338" lon="6.56139">
        <ele>2231</ele>
        <time>2021-04-08T08:05:01Z</time>
      </trkpt>
      <trkpt lat="44.45338" lon="6.5614">
        <ele>2231</ele>
        <time>2021-04-08T08:05:02Z</time>
      </trkpt>
      <trkpt lat="44.45338" lon="6.56141">
        <ele>2231</ele>
        <time>2021-04-08T08:05:03Z</time>
      </trkpt>
      <trkpt lat="44.45338" lon="6.56143">
        <ele>2231</ele>
        <time>2021-04-08T08:05:04Z</time>
      </trkpt>
      <trkpt lat="44.45338" lon="6.56144">
        <ele>2232</ele>
        <time>2021-04-08T08:05:05Z</time>
      </trkpt>
      <trkpt lat="44.45338" lon="6.56144">
        <ele>2232</ele>
        <time>2021-04-08T08:05:06Z</time>
      </trkpt>
      <trkpt lat="44.45338" lon="6.56145">
        <ele>2232</ele>
        <time>2021-04-08T08:05:07Z</time>
      </trkpt>
      <trkpt lat="44.45338" lon="6.56147">
        <ele>2232</ele>
        <time>2021-04-08T08:05:08Z</time>
      </trkpt>
      <trkpt lat="44.45337" lon="6.56148">
        <ele>2232</ele>
        <time>2021-04-08T08:05:09Z</time>
      </trkpt>
      <trkpt lat="44.45337" lon="6.56149">
        <ele>2232</ele>
        <time>2021-04-08T08:05:10Z</time>
      </trkpt>
      <trkpt lat="44.45337" lon="6.5615">
        <ele>2231</ele>
        <time>2021-04-08T08:05:11Z</time>
      </trkpt>
      <trkpt lat="44.45336" lon="6.56151">
        <ele>2231</ele>
        <time>2021-04-08T08:05:12Z</time>
      </trkpt>
      <trkpt lat="44.45336" lon="6.56152">
        <ele>2231</ele>
        <time>2021-04-08T08:05:13Z</time>
      </trkpt>
      <trkpt lat="44.45336" lon="6.56153">
        <ele>2231</ele>
        <time>2021-04-08T08:05:14Z</time>
      </trkpt>
      <trkpt lat="44.45335" lon="6.56153">
        <ele>2231</ele>
        <time>2021-04-08T08:05:15Z</time>
      </trkpt>
      <trkpt lat="44.45334" lon="6.56154">
        <ele>2231</ele>
        <time>2021-04-08T08:05:16Z</time>
      </trkpt>
      <trkpt lat="44.45334" lon="6.56154">
        <ele>2231</ele>
        <time>2021-04-08T08:05:17Z</time>
      </trkpt>
      <trkpt lat="44.45333" lon="6.56155">
        <ele>2230</ele>
        <time>2021-04-08T08:05:18Z</time>
      </trkpt>
      <trkpt lat="44.45332" lon="6.56156">
        <ele>2230</ele>
        <time>2021-04-08T08:05:19Z</time>
      </trkpt>
      <trkpt lat="44.45332" lon="6.56157">
        <ele>2230</ele>
        <time>2021-04-08T08:05:20Z</time>
      </trkpt>
      <trkpt lat="44.45332" lon="6.56158">
        <ele>2230</ele>
        <time>2021-04-08T08:05:21Z</time>
      </trkpt>
      <trkpt lat="44.45331" lon="6.56158">
        <ele>2230</ele>
        <time>2021-04-08T08:05:22Z</time>
      </trkpt>
      <trkpt lat="44.45331" lon="6.56159">
        <ele>2229</ele>
        <time>2021-04-08T08:05:23Z</time>
      </trkpt>
      <trkpt lat="44.45331" lon="6.56159">
        <ele>2229</ele>
        <time>2021-04-08T08:05:24Z</time>
      </trkpt>
      <trkpt lat="44.45331" lon="6.5616">
        <ele>2229</ele>
        <time>2021-04-08T08:05:25Z</time>
      </trkpt>
      <trkpt lat="44.4533" lon="6.56161">
        <ele>2229</ele>
        <time>2021-04-08T08:05:26Z</time>
      </trkpt>
      <trkpt lat="44.4533" lon="6.56162">
        <ele>2229</ele>
        <time>2021-04-08T08:05:27Z</time>
      </trkpt>
      <trkpt lat="44.45329" lon="6.56162">
        <ele>2229</ele>
        <time>2021-04-08T08:05:28Z</time>
      </trkpt>
      <trkpt lat="44.45328" lon="6.56164">
        <ele>2229</ele>
        <time>2021-04-08T08:05:29Z</time>
      </trkpt>
      <trkpt lat="44.45328" lon="6.56164">
        <ele>2229</ele>
        <time>2021-04-08T08:05:30Z</time>
      </trkpt>
      <trkpt lat="44.45327" lon="6.56165">
        <ele>2228</ele>
        <time>2021-04-08T08:05:31Z</time>
      </trkpt>
      <trkpt lat="44.45327" lon="6.56166">
        <ele>2228</ele>
        <time>2021-04-08T08:05:32Z</time>
      </trkpt>
      <trkpt lat="44.45327" lon="6.56166">
        <ele>2228</ele>
        <time>2021-04-08T08:05:33Z</time>
      </trkpt>
      <trkpt lat="44.45327" lon="6.56167">
        <ele>2228</ele>
        <time>2021-04-08T08:05:34Z</time>
      </trkpt>
      <trkpt lat="44.45326" lon="6.56168">
        <ele>2228</ele>
        <time>2021-04-08T08:05:35Z</time>
      </trkpt>
      <trkpt lat="44.45325" lon="6.56168">
        <ele>2228</ele>
        <time>2021-04-08T08:05:36Z</time>
      </trkpt>
      <trkpt lat="44.45325" lon="6.56169">
        <ele>2228</ele>
        <time>2021-04-08T08:05:37Z</time>
      </trkpt>
      <trkpt lat="44.45324" lon="6.5617">
        <ele>2228</ele>
        <time>2021-04-08T08:05:38Z</time>
      </trkpt>
      <trkpt lat="44.45324" lon="6.56171">
        <ele>2228</ele>
        <time>2021-04-08T08:05:39Z</time>
      </trkpt>
      <trkpt lat="44.45324" lon="6.56172">
        <ele>2228</ele>
        <time>2021-04-08T08:05:40Z</time>
      </trkpt>
      <trkpt lat="44.45323" lon="6.56173">
        <ele>2227</ele>
        <time>2021-04-08T08:05:41Z</time>
      </trkpt>
      <trkpt lat="44.45323" lon="6.56174">
        <ele>2227</ele>
        <time>2021-04-08T08:05:42Z</time>
      </trkpt>
      <trkpt lat="44.45323" lon="6.56175">
        <ele>2227</ele>
        <time>2021-04-08T08:05:43Z</time>
      </trkpt>
      <trkpt lat="44.45322" lon="6.56176">
        <ele>2227</ele>
        <time>2021-04-08T08:05:44Z</time>
      </trkpt>
      <trkpt lat="44.45322" lon="6.56176">
        <ele>2227</ele>
        <time>2021-04-08T08:05:45Z</time>
      </trkpt>
      <trkpt lat="44.45321" lon="6.56177">
        <ele>2227</ele>
        <time>2021-04-08T08:05:46Z</time>
      </trkpt>
      <trkpt lat="44.45321" lon="6.56177">
        <ele>2227</ele>
        <time>2021-04-08T08:05:47Z</time>
      </trkpt>
      <trkpt lat="44.4532" lon="6.56178">
        <ele>2227</ele>
        <time>2021-04-08T08:05:48Z</time>
      </trkpt>
      <trkpt lat="44.4532" lon="6.56178">
        <ele>2227</ele>
        <time>2021-04-08T08:05:49Z</time>
      </trkpt>
      <trkpt lat="44.45319" lon="6.56178">
        <ele>2228</ele>
        <time>2021-04-08T08:05:50Z</time>
      </trkpt>
      <trkpt lat="44.45319" lon="6.56178">
        <ele>2228</ele>
        <time>2021-04-08T08:05:51Z</time>
      </trkpt>
      <trkpt lat="44.45318" lon="6.56178">
        <ele>2228</ele>
        <time>2021-04-08T08:05:52Z</time>
      </trkpt>
      <trkpt lat="44.45317" lon="6.56178">
        <ele>2227</ele>
        <time>2021-04-08T08:05:53Z</time>
      </trkpt>
      <trkpt lat="44.45317" lon="6.56179">
        <ele>2227</ele>
        <time>2021-04-08T08:05:54Z</time>
      </trkpt>
      <trkpt lat="44.45316" lon="6.56179">
        <ele>2227</ele>
        <time>2021-04-08T08:05:55Z</time>
      </trkpt>
      <trkpt lat="44.45316" lon="6.56179">
        <ele>2228</ele>
        <time>2021-04-08T08:05:56Z</time>
      </trkpt>
      <trkpt lat="44.45315" lon="6.56179">
        <ele>2228</ele>
        <time>2021-04-08T08:05:57Z</time>
      </trkpt>
      <trkpt lat="44.45315" lon="6.56179">
        <ele>2228</ele>
        <time>2021-04-08T08:05:58Z</time>
      </trkpt>
      <trkpt lat="44.45314" lon="6.5618">
        <ele>2228</ele>
        <time>2021-04-08T08:05:59Z</time>
      </trkpt>
      <trkpt lat="44.45313" lon="6.5618">
        <ele>2228</ele>
        <time>2021-04-08T08:06:00Z</time>
      </trkpt>
      <trkpt lat="44.45313" lon="6.56181">
        <ele>2228</ele>
        <time>2021-04-08T08:06:01Z</time>
      </trkpt>
      <trkpt lat="44.45313" lon="6.56181">
        <ele>2228</ele>
        <time>2021-04-08T08:06:02Z</time>
      </trkpt>
      <trkpt lat="44.45313" lon="6.56181">
        <ele>2228</ele>
        <time>2021-04-08T08:06:03Z</time>
      </trkpt>
      <trkpt lat="44.45313" lon="6.56182">
        <ele>2228</ele>
        <time>2021-04-08T08:06:04Z</time>
      </trkpt>
      <trkpt lat="44.45312" lon="6.56183">
        <ele>2228</ele>
        <time>2021-04-08T08:06:05Z</time>
      </trkpt>
      <trkpt lat="44.45311" lon="6.56184">
        <ele>2229</ele>
        <time>2021-04-08T08:06:06Z</time>
      </trkpt>
      <trkpt lat="44.45311" lon="6.56185">
        <ele>2229</ele>
        <time>2021-04-08T08:06:07Z</time>
      </trkpt>
      <trkpt lat="44.45311" lon="6.56185">
        <ele>2229</ele>
        <time>2021-04-08T08:06:08Z</time>
      </trkpt>
      <trkpt lat="44.4531" lon="6.56186">
        <ele>2229</ele>
        <time>2021-04-08T08:06:09Z</time>
      </trkpt>
      <trkpt lat="44.4531" lon="6.56187">
        <ele>2229</ele>
        <time>2021-04-08T08:06:10Z</time>
      </trkpt>
      <trkpt lat="44.45309" lon="6.56187">
        <ele>2229</ele>
        <time>2021-04-08T08:06:11Z</time>
      </trkpt>
      <trkpt lat="44.45308" lon="6.56188">
        <ele>2229</ele>
        <time>2021-04-08T08:06:12Z</time>
      </trkpt>
      <trkpt lat="44.45308" lon="6.56189">
        <ele>2230</ele>
        <time>2021-04-08T08:06:13Z</time>
      </trkpt>
      <trkpt lat="44.45308" lon="6.5619">
        <ele>2230</ele>
        <time>2021-04-08T08:06:14Z</time>
      </trkpt>
      <trkpt lat="44.45308" lon="6.5619">
        <ele>2230</ele>
        <time>2021-04-08T08:06:15Z</time>
      </trkpt>
      <trkpt lat="44.45308" lon="6.56192">
        <ele>2230</ele>
        <time>2021-04-08T08:06:16Z</time>
      </trkpt>
      <trkpt lat="44.45308" lon="6.56193">
        <ele>2230</ele>
        <time>2021-04-08T08:06:17Z</time>
      </trkpt>
      <trkpt lat="44.45308" lon="6.56194">
        <ele>2230</ele>
        <time>2021-04-08T08:06:18Z</time>
      </trkpt>
      <trkpt lat="44.45308" lon="6.56194">
        <ele>2230</ele>
        <time>2021-04-08T08:06:19Z</time>
      </trkpt>
      <trkpt lat="44.45308" lon="6.56196">
        <ele>2230</ele>
        <time>2021-04-08T08:06:20Z</time>
      </trkpt>
      <trkpt lat="44.45308" lon="6.56197">
        <ele>2230</ele>
        <time>2021-04-08T08:06:21Z</time>
      </trkpt>
      <trkpt lat="44.45309" lon="6.56197">
        <ele>2230</ele>
        <time>2021-04-08T08:06:22Z</time>
      </trkpt>
      <trkpt lat="44.45309" lon="6.56199">
        <ele>2230</ele>
        <time>2021-04-08T08:06:23Z</time>
      </trkpt>
      <trkpt lat="44.4531" lon="6.562">
        <ele>2230</ele>
        <time>2021-04-08T08:06:24Z</time>
      </trkpt>
      <trkpt lat="44.4531" lon="6.56201">
        <ele>2231</ele>
        <time>2021-04-08T08:06:25Z</time>
      </trkpt>
      <trkpt lat="44.45311" lon="6.56202">
        <ele>2231</ele>
        <time>2021-04-08T08:06:26Z</time>
      </trkpt>
      <trkpt lat="44.45311" lon="6.56202">
        <ele>2231</ele>
        <time>2021-04-08T08:06:27Z</time>
      </trkpt>
      <trkpt lat="44.45311" lon="6.56203">
        <ele>2231</ele>
        <time>2021-04-08T08:06:28Z</time>
      </trkpt>
      <trkpt lat="44.45312" lon="6.56204">
        <ele>2231</ele>
        <time>2021-04-08T08:06:29Z</time>
      </trkpt>
      <trkpt lat="44.45312" lon="6.56205">
        <ele>2231</ele>
        <time>2021-04-08T08:06:30Z</time>
      </trkpt>
      <trkpt lat="44.45312" lon="6.56206">
        <ele>2232</ele>
        <time>2021-04-08T08:06:31Z</time>
      </trkpt>
      <trkpt lat="44.45312" lon="6.56207">
        <ele>2232</ele>
        <time>2021-04-08T08:06:32Z</time>
      </trkpt>
      <trkpt lat="44.45312" lon="6.56208">
        <ele>2232</ele>
        <time>2021-04-08T08:06:33Z</time>
      </trkpt>
      <trkpt lat="44.45312" lon="6.56208">
        <ele>2232</ele>
        <time>2021-04-08T08:06:34Z</time>
      </trkpt>
      <trkpt lat="44.45312" lon="6.56209">
        <ele>2233</ele>
        <time>2021-04-08T08:06:35Z</time>
      </trkpt>
      <trkpt lat="44.45311" lon="6.5621">
        <ele>2233</ele>
        <time>2021-04-08T08:06:36Z</time>
      </trkpt>
      <trkpt lat="44.4531" lon="6.56211">
        <ele>2233</ele>
        <time>2021-04-08T08:06:37Z</time>
      </trkpt>
      <trkpt lat="44.45309" lon="6.56212">
        <ele>2234</ele>
        <time>2021-04-08T08:06:38Z</time>
      </trkpt>
      <trkpt lat="44.45309" lon="6.56212">
        <ele>2234</ele>
        <time>2021-04-08T08:06:39Z</time>
      </trkpt>
      <trkpt lat="44.45309" lon="6.56213">
        <ele>2234</ele>
        <time>2021-04-08T08:06:40Z</time>
      </trkpt>
      <trkpt lat="44.45308" lon="6.56214">
        <ele>2235</ele>
        <time>2021-04-08T08:06:41Z</time>
      </trkpt>
      <trkpt lat="44.45308" lon="6.56215">
        <ele>2235</ele>
        <time>2021-04-08T08:06:42Z</time>
      </trkpt>
      <trkpt lat="44.45308" lon="6.56216">
        <ele>2235</ele>
        <time>2021-04-08T08:06:43Z</time>
      </trkpt>
      <trkpt lat="44.45307" lon="6.56217">
        <ele>2235</ele>
        <time>2021-04-08T08:06:44Z</time>
      </trkpt>
      <trkpt lat="44.45307" lon="6.56218">
        <ele>2236</ele>
        <time>2021-04-08T08:06:45Z</time>
      </trkpt>
      <trkpt lat="44.45307" lon="6.56219">
        <ele>2236</ele>
        <time>2021-04-08T08:06:46Z</time>
      </trkpt>
      <trkpt lat="44.45307" lon="6.5622">
        <ele>2236</ele>
        <time>2021-04-08T08:06:47Z</time>
      </trkpt>
      <trkpt lat="44.45307" lon="6.56221">
        <ele>2236</ele>
        <time>2021-04-08T08:06:48Z</time>
      </trkpt>
      <trkpt lat="44.45306" lon="6.56222">
        <ele>2236</ele>
        <time>2021-04-08T08:06:49Z</time>
      </trkpt>
      <trkpt lat="44.45305" lon="6.56223">
        <ele>2237</ele>
        <time>2021-04-08T08:06:50Z</time>
      </trkpt>
      <trkpt lat="44.45305" lon="6.56224">
        <ele>2237</ele>
        <time>2021-04-08T08:06:51Z</time>
      </trkpt>
      <trkpt lat="44.45305" lon="6.56225">
        <ele>2237</ele>
        <time>2021-04-08T08:06:52Z</time>
      </trkpt>
      <trkpt lat="44.45304" lon="6.56225">
        <ele>2237</ele>
        <time>2021-04-08T08:06:53Z</time>
      </trkpt>
      <trkpt lat="44.45304" lon="6.56226">
        <ele>2237</ele>
        <time>2021-04-08T08:06:54Z</time>
      </trkpt>
      <trkpt lat="44.45304" lon="6.56227">
        <ele>2237</ele>
        <time>2021-04-08T08:06:55Z</time>
      </trkpt>
      <trkpt lat="44.45303" lon="6.56228">
        <ele>2238</ele>
        <time>2021-04-08T08:06:56Z</time>
      </trkpt>
      <trkpt lat="44.45303" lon="6.56229">
        <ele>2238</ele>
        <time>2021-04-08T08:06:57Z</time>
      </trkpt>
      <trkpt lat="44.45302" lon="6.5623">
        <ele>2238</ele>
        <time>2021-04-08T08:06:58Z</time>
      </trkpt>
      <trkpt lat="44.45301" lon="6.56231">
        <ele>2238</ele>
        <time>2021-04-08T08:06:59Z</time>
      </trkpt>
      <trkpt lat="44.45301" lon="6.56232">
        <ele>2238</ele>
        <time>2021-04-08T08:07:00Z</time>
      </trkpt>
      <trkpt lat="44.45301" lon="6.56233">
        <ele>2239</ele>
        <time>2021-04-08T08:07:01Z</time>
      </trkpt>
      <trkpt lat="44.453" lon="6.56234">
        <ele>2239</ele>
        <time>2021-04-08T08:07:02Z</time>
      </trkpt>
      <trkpt lat="44.453" lon="6.56235">
        <ele>2240</ele>
        <time>2021-04-08T08:07:03Z</time>
      </trkpt>
      <trkpt lat="44.453" lon="6.56236">
        <ele>2240</ele>
        <time>2021-04-08T08:07:04Z</time>
      </trkpt>
      <trkpt lat="44.45299" lon="6.56237">
        <ele>2240</ele>
        <time>2021-04-08T08:07:05Z</time>
      </trkpt>
      <trkpt lat="44.45299" lon="6.56239">
        <ele>2240</ele>
        <time>2021-04-08T08:07:06Z</time>
      </trkpt>
      <trkpt lat="44.45299" lon="6.56239">
        <ele>2241</ele>
        <time>2021-04-08T08:07:07Z</time>
      </trkpt>
      <trkpt lat="44.45299" lon="6.56239">
        <ele>2242</ele>
        <time>2021-04-08T08:07:08Z</time>
      </trkpt>
      <trkpt lat="44.45299" lon="6.5624">
        <ele>2242</ele>
        <time>2021-04-08T08:07:09Z</time>
      </trkpt>
      <trkpt lat="44.45298" lon="6.56241">
        <ele>2242</ele>
        <time>2021-04-08T08:07:10Z</time>
      </trkpt>
      <trkpt lat="44.45297" lon="6.56242">
        <ele>2242</ele>
        <time>2021-04-08T08:07:11Z</time>
      </trkpt>
      <trkpt lat="44.45297" lon="6.56243">
        <ele>2243</ele>
        <time>2021-04-08T08:07:12Z</time>
      </trkpt>
      <trkpt lat="44.45296" lon="6.56244">
        <ele>2243</ele>
        <time>2021-04-08T08:07:13Z</time>
      </trkpt>
      <trkpt lat="44.45296" lon="6.56244">
        <ele>2243</ele>
        <time>2021-04-08T08:07:14Z</time>
      </trkpt>
      <trkpt lat="44.45295" lon="6.56245">
        <ele>2243</ele>
        <time>2021-04-08T08:07:15Z</time>
      </trkpt>
      <trkpt lat="44.45295" lon="6.56246">
        <ele>2243</ele>
        <time>2021-04-08T08:07:16Z</time>
      </trkpt>
      <trkpt lat="44.45294" lon="6.56247">
        <ele>2243</ele>
        <time>2021-04-08T08:07:17Z</time>
      </trkpt>
      <trkpt lat="44.45294" lon="6.56248">
        <ele>2243</ele>
        <time>2021-04-08T08:07:18Z</time>
      </trkpt>
      <trkpt lat="44.45293" lon="6.56249">
        <ele>2243</ele>
        <time>2021-04-08T08:07:19Z</time>
      </trkpt>
      <trkpt lat="44.45293" lon="6.56249">
        <ele>2243</ele>
        <time>2021-04-08T08:07:20Z</time>
      </trkpt>
      <trkpt lat="44.45292" lon="6.56251">
        <ele>2243</ele>
        <time>2021-04-08T08:07:21Z</time>
      </trkpt>
      <trkpt lat="44.45291" lon="6.56252">
        <ele>2243</ele>
        <time>2021-04-08T08:07:22Z</time>
      </trkpt>
      <trkpt lat="44.4529" lon="6.56253">
        <ele>2242</ele>
        <time>2021-04-08T08:07:23Z</time>
      </trkpt>
      <trkpt lat="44.4529" lon="6.56254">
        <ele>2242</ele>
        <time>2021-04-08T08:07:24Z</time>
      </trkpt>
      <trkpt lat="44.45289" lon="6.56255">
        <ele>2242</ele>
        <time>2021-04-08T08:07:25Z</time>
      </trkpt>
      <trkpt lat="44.45288" lon="6.56257">
        <ele>2242</ele>
        <time>2021-04-08T08:07:26Z</time>
      </trkpt>
      <trkpt lat="44.45288" lon="6.56258">
        <ele>2242</ele>
        <time>2021-04-08T08:07:27Z</time>
      </trkpt>
      <trkpt lat="44.45287" lon="6.56258">
        <ele>2242</ele>
        <time>2021-04-08T08:07:28Z</time>
      </trkpt>
      <trkpt lat="44.45287" lon="6.56259">
        <ele>2242</ele>
        <time>2021-04-08T08:07:29Z</time>
      </trkpt>
      <trkpt lat="44.45286" lon="6.5626">
        <ele>2242</ele>
        <time>2021-04-08T08:07:30Z</time>
      </trkpt>
      <trkpt lat="44.45286" lon="6.56261">
        <ele>2242</ele>
        <time>2021-04-08T08:07:31Z</time>
      </trkpt>
      <trkpt lat="44.45285" lon="6.56262">
        <ele>2242</ele>
        <time>2021-04-08T08:07:32Z</time>
      </trkpt>
      <trkpt lat="44.45284" lon="6.56262">
        <ele>2242</ele>
        <time>2021-04-08T08:07:33Z</time>
      </trkpt>
      <trkpt lat="44.45283" lon="6.56263">
        <ele>2242</ele>
        <time>2021-04-08T08:07:34Z</time>
      </trkpt>
      <trkpt lat="44.45283" lon="6.56264">
        <ele>2242</ele>
        <time>2021-04-08T08:07:35Z</time>
      </trkpt>
      <trkpt lat="44.45282" lon="6.56264">
        <ele>2242</ele>
        <time>2021-04-08T08:07:36Z</time>
      </trkpt>
      <trkpt lat="44.45282" lon="6.56265">
        <ele>2242</ele>
        <time>2021-04-08T08:07:37Z</time>
      </trkpt>
      <trkpt lat="44.45281" lon="6.56265">
        <ele>2242</ele>
        <time>2021-04-08T08:07:38Z</time>
      </trkpt>
      <trkpt lat="44.4528" lon="6.56265">
        <ele>2242</ele>
        <time>2021-04-08T08:07:39Z</time>
      </trkpt>
      <trkpt lat="44.4528" lon="6.56266">
        <ele>2242</ele>
        <time>2021-04-08T08:07:40Z</time>
      </trkpt>
      <trkpt lat="44.4528" lon="6.56267">
        <ele>2242</ele>
        <time>2021-04-08T08:07:41Z</time>
      </trkpt>
      <trkpt lat="44.45281" lon="6.56268">
        <ele>2242</ele>
        <time>2021-04-08T08:07:42Z</time>
      </trkpt>
      <trkpt lat="44.45281" lon="6.56269">
        <ele>2242</ele>
        <time>2021-04-08T08:07:43Z</time>
      </trkpt>
      <trkpt lat="44.45281" lon="6.5627">
        <ele>2242</ele>
        <time>2021-04-08T08:07:44Z</time>
      </trkpt>
      <trkpt lat="44.45281" lon="6.56271">
        <ele>2242</ele>
        <time>2021-04-08T08:07:45Z</time>
      </trkpt>
      <trkpt lat="44.45281" lon="6.56272">
        <ele>2242</ele>
        <time>2021-04-08T08:07:46Z</time>
      </trkpt>
      <trkpt lat="44.45281" lon="6.56273">
        <ele>2243</ele>
        <time>2021-04-08T08:07:47Z</time>
      </trkpt>
      <trkpt lat="44.45281" lon="6.56274">
        <ele>2243</ele>
        <time>2021-04-08T08:07:48Z</time>
      </trkpt>
      <trkpt lat="44.45281" lon="6.56275">
        <ele>2243</ele>
        <time>2021-04-08T08:07:49Z</time>
      </trkpt>
      <trkpt lat="44.45281" lon="6.56276">
        <ele>2243</ele>
        <time>2021-04-08T08:07:50Z</time>
      </trkpt>
      <trkpt lat="44.45281" lon="6.56277">
        <ele>2243</ele>
        <time>2021-04-08T08:07:51Z</time>
      </trkpt>
      <trkpt lat="44.45281" lon="6.56278">
        <ele>2243</ele>
        <time>2021-04-08T08:07:52Z</time>
      </trkpt>
      <trkpt lat="44.45281" lon="6.56279">
        <ele>2243</ele>
        <time>2021-04-08T08:07:53Z</time>
      </trkpt>
      <trkpt lat="44.45281" lon="6.5628">
        <ele>2243</ele>
        <time>2021-04-08T08:07:54Z</time>
      </trkpt>
      <trkpt lat="44.45281" lon="6.56281">
        <ele>2244</ele>
        <time>2021-04-08T08:07:55Z</time>
      </trkpt>
      <trkpt lat="44.45281" lon="6.56282">
        <ele>2244</ele>
        <time>2021-04-08T08:07:56Z</time>
      </trkpt>
      <trkpt lat="44.45281" lon="6.56282">
        <ele>2244</ele>
        <time>2021-04-08T08:07:57Z</time>
      </trkpt>
      <trkpt lat="44.45281" lon="6.56283">
        <ele>2244</ele>
        <time>2021-04-08T08:07:58Z</time>
      </trkpt>
      <trkpt lat="44.45281" lon="6.56283">
        <ele>2244</ele>
        <time>2021-04-08T08:07:59Z</time>
      </trkpt>
      <trkpt lat="44.4528" lon="6.56283">
        <ele>2244</ele>
        <time>2021-04-08T08:08:00Z</time>
      </trkpt>
      <trkpt lat="44.4528" lon="6.56283">
        <ele>2245</ele>
        <time>2021-04-08T08:08:01Z</time>
      </trkpt>
      <trkpt lat="44.4528" lon="6.56284">
        <ele>2245</ele>
        <time>2021-04-08T08:08:02Z</time>
      </trkpt>
      <trkpt lat="44.4528" lon="6.56285">
        <ele>2245</ele>
        <time>2021-04-08T08:08:03Z</time>
      </trkpt>
      <trkpt lat="44.45279" lon="6.56286">
        <ele>2246</ele>
        <time>2021-04-08T08:08:04Z</time>
      </trkpt>
      <trkpt lat="44.45279" lon="6.56287">
        <ele>2246</ele>
        <time>2021-04-08T08:08:05Z</time>
      </trkpt>
      <trkpt lat="44.45279" lon="6.56288">
        <ele>2246</ele>
        <time>2021-04-08T08:08:06Z</time>
      </trkpt>
      <trkpt lat="44.45279" lon="6.56289">
        <ele>2246</ele>
        <time>2021-04-08T08:08:07Z</time>
      </trkpt>
      <trkpt lat="44.45278" lon="6.5629">
        <ele>2246</ele>
        <time>2021-04-08T08:08:08Z</time>
      </trkpt>
      <trkpt lat="44.45278" lon="6.56291">
        <ele>2247</ele>
        <time>2021-04-08T08:08:09Z</time>
      </trkpt>
      <trkpt lat="44.45277" lon="6.56292">
        <ele>2247</ele>
        <time>2021-04-08T08:08:10Z</time>
      </trkpt>
      <trkpt lat="44.45277" lon="6.56294">
        <ele>2247</ele>
        <time>2021-04-08T08:08:11Z</time>
      </trkpt>
      <trkpt lat="44.45276" lon="6.56295">
        <ele>2247</ele>
        <time>2021-04-08T08:08:12Z</time>
      </trkpt>
      <trkpt lat="44.45275" lon="6.56296">
        <ele>2247</ele>
        <time>2021-04-08T08:08:13Z</time>
      </trkpt>
      <trkpt lat="44.45275" lon="6.56298">
        <ele>2247</ele>
        <time>2021-04-08T08:08:14Z</time>
      </trkpt>
      <trkpt lat="44.45274" lon="6.563">
        <ele>2247</ele>
        <time>2021-04-08T08:08:15Z</time>
      </trkpt>
      <trkpt lat="44.45273" lon="6.56303">
        <ele>2247</ele>
        <time>2021-04-08T08:08:16Z</time>
      </trkpt>
      <trkpt lat="44.45272" lon="6.56305">
        <ele>2248</ele>
        <time>2021-04-08T08:08:17Z</time>
      </trkpt>
      <trkpt lat="44.45272" lon="6.56306">
        <ele>2248</ele>
        <time>2021-04-08T08:08:18Z</time>
      </trkpt>
      <trkpt lat="44.45272" lon="6.56307">
        <ele>2249</ele>
        <time>2021-04-08T08:08:19Z</time>
      </trkpt>
      <trkpt lat="44.45272" lon="6.56308">
        <ele>2249</ele>
        <time>2021-04-08T08:08:20Z</time>
      </trkpt>
      <trkpt lat="44.45272" lon="6.5631">
        <ele>2250</ele>
        <time>2021-04-08T08:08:21Z</time>
      </trkpt>
      <trkpt lat="44.45272" lon="6.56311">
        <ele>2250</ele>
        <time>2021-04-08T08:08:22Z</time>
      </trkpt>
      <trkpt lat="44.45272" lon="6.56312">
        <ele>2250</ele>
        <time>2021-04-08T08:08:23Z</time>
      </trkpt>
      <trkpt lat="44.45272" lon="6.56314">
        <ele>2250</ele>
        <time>2021-04-08T08:08:24Z</time>
      </trkpt>
      <trkpt lat="44.45272" lon="6.56315">
        <ele>2250</ele>
        <time>2021-04-08T08:08:25Z</time>
      </trkpt>
      <trkpt lat="44.45272" lon="6.56317">
        <ele>2250</ele>
        <time>2021-04-08T08:08:26Z</time>
      </trkpt>
      <trkpt lat="44.45272" lon="6.56318">
        <ele>2250</ele>
        <time>2021-04-08T08:08:27Z</time>
      </trkpt>
      <trkpt lat="44.45272" lon="6.56319">
        <ele>2249</ele>
        <time>2021-04-08T08:08:28Z</time>
      </trkpt>
      <trkpt lat="44.45272" lon="6.56321">
        <ele>2249</ele>
        <time>2021-04-08T08:08:29Z</time>
      </trkpt>
      <trkpt lat="44.45272" lon="6.56322">
        <ele>2249</ele>
        <time>2021-04-08T08:08:30Z</time>
      </trkpt>
      <trkpt lat="44.45272" lon="6.56323">
        <ele>2249</ele>
        <time>2021-04-08T08:08:31Z</time>
      </trkpt>
      <trkpt lat="44.45272" lon="6.56323">
        <ele>2249</ele>
        <time>2021-04-08T08:08:32Z</time>
      </trkpt>
      <trkpt lat="44.45272" lon="6.56324">
        <ele>2249</ele>
        <time>2021-04-08T08:08:33Z</time>
      </trkpt>
      <trkpt lat="44.45271" lon="6.56326">
        <ele>2249</ele>
        <time>2021-04-08T08:08:34Z</time>
      </trkpt>
      <trkpt lat="44.45271" lon="6.56327">
        <ele>2249</ele>
        <time>2021-04-08T08:08:35Z</time>
      </trkpt>
      <trkpt lat="44.4527" lon="6.56328">
        <ele>2249</ele>
        <time>2021-04-08T08:08:36Z</time>
      </trkpt>
      <trkpt lat="44.4527" lon="6.56329">
        <ele>2249</ele>
        <time>2021-04-08T08:08:37Z</time>
      </trkpt>
      <trkpt lat="44.45269" lon="6.56331">
        <ele>2249</ele>
        <time>2021-04-08T08:08:38Z</time>
      </trkpt>
      <trkpt lat="44.45269" lon="6.56331">
        <ele>2250</ele>
        <time>2021-04-08T08:08:39Z</time>
      </trkpt>
      <trkpt lat="44.45269" lon="6.56332">
        <ele>2250</ele>
        <time>2021-04-08T08:08:40Z</time>
      </trkpt>
      <trkpt lat="44.45269" lon="6.56333">
        <ele>2251</ele>
        <time>2021-04-08T08:08:41Z</time>
      </trkpt>
      <trkpt lat="44.45269" lon="6.56334">
        <ele>2251</ele>
        <time>2021-04-08T08:08:42Z</time>
      </trkpt>
      <trkpt lat="44.45268" lon="6.56335">
        <ele>2251</ele>
        <time>2021-04-08T08:08:43Z</time>
      </trkpt>
      <trkpt lat="44.45269" lon="6.56336">
        <ele>2251</ele>
        <time>2021-04-08T08:08:44Z</time>
      </trkpt>
      <trkpt lat="44.45269" lon="6.56337">
        <ele>2252</ele>
        <time>2021-04-08T08:08:45Z</time>
      </trkpt>
      <trkpt lat="44.45269" lon="6.56338">
        <ele>2252</ele>
        <time>2021-04-08T08:08:46Z</time>
      </trkpt>
      <trkpt lat="44.4527" lon="6.56339">
        <ele>2252</ele>
        <time>2021-04-08T08:08:47Z</time>
      </trkpt>
      <trkpt lat="44.4527" lon="6.5634">
        <ele>2252</ele>
        <time>2021-04-08T08:08:48Z</time>
      </trkpt>
      <trkpt lat="44.45269" lon="6.56341">
        <ele>2253</ele>
        <time>2021-04-08T08:08:49Z</time>
      </trkpt>
      <trkpt lat="44.45269" lon="6.56342">
        <ele>2253</ele>
        <time>2021-04-08T08:08:50Z</time>
      </trkpt>
      <trkpt lat="44.45268" lon="6.56343">
        <ele>2253</ele>
        <time>2021-04-08T08:08:51Z</time>
      </trkpt>
      <trkpt lat="44.45267" lon="6.56343">
        <ele>2253</ele>
        <time>2021-04-08T08:08:52Z</time>
      </trkpt>
      <trkpt lat="44.45266" lon="6.56344">
        <ele>2253</ele>
        <time>2021-04-08T08:08:53Z</time>
      </trkpt>
      <trkpt lat="44.45266" lon="6.56345">
        <ele>2254</ele>
        <time>2021-04-08T08:08:54Z</time>
      </trkpt>
      <trkpt lat="44.45265" lon="6.56345">
        <ele>2254</ele>
        <time>2021-04-08T08:08:55Z</time>
      </trkpt>
      <trkpt lat="44.45265" lon="6.56345">
        <ele>2254</ele>
        <time>2021-04-08T08:08:56Z</time>
      </trkpt>
      <trkpt lat="44.45264" lon="6.56345">
        <ele>2254</ele>
        <time>2021-04-08T08:08:57Z</time>
      </trkpt>
      <trkpt lat="44.45263" lon="6.56346">
        <ele>2256</ele>
        <time>2021-04-08T08:08:58Z</time>
      </trkpt>
      <trkpt lat="44.45263" lon="6.56346">
        <ele>2256</ele>
        <time>2021-04-08T08:08:59Z</time>
      </trkpt>
      <trkpt lat="44.45262" lon="6.56346">
        <ele>2257</ele>
        <time>2021-04-08T08:09:00Z</time>
      </trkpt>
      <trkpt lat="44.45261" lon="6.56347">
        <ele>2257</ele>
        <time>2021-04-08T08:09:01Z</time>
      </trkpt>
      <trkpt lat="44.45261" lon="6.56347">
        <ele>2258</ele>
        <time>2021-04-08T08:09:02Z</time>
      </trkpt>
      <trkpt lat="44.4526" lon="6.56347">
        <ele>2258</ele>
        <time>2021-04-08T08:09:03Z</time>
      </trkpt>
      <trkpt lat="44.4526" lon="6.56348">
        <ele>2258</ele>
        <time>2021-04-08T08:09:04Z</time>
      </trkpt>
      <trkpt lat="44.4526" lon="6.56349">
        <ele>2258</ele>
        <time>2021-04-08T08:09:05Z</time>
      </trkpt>
      <trkpt lat="44.4526" lon="6.5635">
        <ele>2258</ele>
        <time>2021-04-08T08:09:06Z</time>
      </trkpt>
      <trkpt lat="44.45259" lon="6.56351">
        <ele>2259</ele>
        <time>2021-04-08T08:09:07Z</time>
      </trkpt>
      <trkpt lat="44.45259" lon="6.56352">
        <ele>2259</ele>
        <time>2021-04-08T08:09:08Z</time>
      </trkpt>
      <trkpt lat="44.45259" lon="6.56353">
        <ele>2259</ele>
        <time>2021-04-08T08:09:09Z</time>
      </trkpt>
      <trkpt lat="44.45258" lon="6.56354">
        <ele>2259</ele>
        <time>2021-04-08T08:09:10Z</time>
      </trkpt>
      <trkpt lat="44.45258" lon="6.56355">
        <ele>2260</ele>
        <time>2021-04-08T08:09:11Z</time>
      </trkpt>
      <trkpt lat="44.45257" lon="6.56356">
        <ele>2260</ele>
        <time>2021-04-08T08:09:12Z</time>
      </trkpt>
      <trkpt lat="44.45257" lon="6.56356">
        <ele>2260</ele>
        <time>2021-04-08T08:09:13Z</time>
      </trkpt>
      <trkpt lat="44.45257" lon="6.56357">
        <ele>2260</ele>
        <time>2021-04-08T08:09:14Z</time>
      </trkpt>
      <trkpt lat="44.45256" lon="6.56358">
        <ele>2261</ele>
        <time>2021-04-08T08:09:15Z</time>
      </trkpt>
      <trkpt lat="44.45255" lon="6.56359">
        <ele>2261</ele>
        <time>2021-04-08T08:09:16Z</time>
      </trkpt>
      <trkpt lat="44.45255" lon="6.5636">
        <ele>2261</ele>
        <time>2021-04-08T08:09:17Z</time>
      </trkpt>
      <trkpt lat="44.45255" lon="6.56361">
        <ele>2261</ele>
        <time>2021-04-08T08:09:18Z</time>
      </trkpt>
      <trkpt lat="44.45255" lon="6.56362">
        <ele>2261</ele>
        <time>2021-04-08T08:09:19Z</time>
      </trkpt>
      <trkpt lat="44.45254" lon="6.56363">
        <ele>2261</ele>
        <time>2021-04-08T08:09:20Z</time>
      </trkpt>
      <trkpt lat="44.45254" lon="6.56364">
        <ele>2261</ele>
        <time>2021-04-08T08:09:21Z</time>
      </trkpt>
      <trkpt lat="44.45254" lon="6.56365">
        <ele>2261</ele>
        <time>2021-04-08T08:09:22Z</time>
      </trkpt>
      <trkpt lat="44.45253" lon="6.56366">
        <ele>2261</ele>
        <time>2021-04-08T08:09:23Z</time>
      </trkpt>
      <trkpt lat="44.45253" lon="6.56367">
        <ele>2261</ele>
        <time>2021-04-08T08:09:24Z</time>
      </trkpt>
      <trkpt lat="44.45253" lon="6.56368">
        <ele>2262</ele>
        <time>2021-04-08T08:09:25Z</time>
      </trkpt>
      <trkpt lat="44.45253" lon="6.56368">
        <ele>2262</ele>
        <time>2021-04-08T08:09:26Z</time>
      </trkpt>
      <trkpt lat="44.45253" lon="6.56369">
        <ele>2262</ele>
        <time>2021-04-08T08:09:27Z</time>
      </trkpt>
      <trkpt lat="44.45252" lon="6.5637">
        <ele>2262</ele>
        <time>2021-04-08T08:09:28Z</time>
      </trkpt>
      <trkpt lat="44.45253" lon="6.5637">
        <ele>2262</ele>
        <time>2021-04-08T08:09:29Z</time>
      </trkpt>
      <trkpt lat="44.45253" lon="6.56371">
        <ele>2262</ele>
        <time>2021-04-08T08:09:30Z</time>
      </trkpt>
      <trkpt lat="44.45253" lon="6.56372">
        <ele>2262</ele>
        <time>2021-04-08T08:09:31Z</time>
      </trkpt>
      <trkpt lat="44.45253" lon="6.56372">
        <ele>2262</ele>
        <time>2021-04-08T08:09:32Z</time>
      </trkpt>
      <trkpt lat="44.45253" lon="6.56373">
        <ele>2262</ele>
        <time>2021-04-08T08:09:33Z</time>
      </trkpt>
      <trkpt lat="44.45253" lon="6.56374">
        <ele>2262</ele>
        <time>2021-04-08T08:09:34Z</time>
      </trkpt>
      <trkpt lat="44.45253" lon="6.56375">
        <ele>2262</ele>
        <time>2021-04-08T08:09:35Z</time>
      </trkpt>
      <trkpt lat="44.45253" lon="6.56376">
        <ele>2262</ele>
        <time>2021-04-08T08:09:36Z</time>
      </trkpt>
      <trkpt lat="44.45253" lon="6.56377">
        <ele>2262</ele>
        <time>2021-04-08T08:09:37Z</time>
      </trkpt>
      <trkpt lat="44.45252" lon="6.56379">
        <ele>2262</ele>
        <time>2021-04-08T08:09:38Z</time>
      </trkpt>
      <trkpt lat="44.45252" lon="6.56379">
        <ele>2262</ele>
        <time>2021-04-08T08:09:39Z</time>
      </trkpt>
      <trkpt lat="44.45252" lon="6.56379">
        <ele>2262</ele>
        <time>2021-04-08T08:09:40Z</time>
      </trkpt>
      <trkpt lat="44.45251" lon="6.5638">
        <ele>2262</ele>
        <time>2021-04-08T08:09:41Z</time>
      </trkpt>
      <trkpt lat="44.45251" lon="6.56381">
        <ele>2262</ele>
        <time>2021-04-08T08:09:42Z</time>
      </trkpt>
      <trkpt lat="44.45251" lon="6.56383">
        <ele>2262</ele>
        <time>2021-04-08T08:09:43Z</time>
      </trkpt>
      <trkpt lat="44.4525" lon="6.56384">
        <ele>2262</ele>
        <time>2021-04-08T08:09:44Z</time>
      </trkpt>
      <trkpt lat="44.4525" lon="6.56386">
        <ele>2263</ele>
        <time>2021-04-08T08:09:45Z</time>
      </trkpt>
      <trkpt lat="44.4525" lon="6.56387">
        <ele>2263</ele>
        <time>2021-04-08T08:09:46Z</time>
      </trkpt>
      <trkpt lat="44.4525" lon="6.56388">
        <ele>2263</ele>
        <time>2021-04-08T08:09:47Z</time>
      </trkpt>
      <trkpt lat="44.4525" lon="6.56389">
        <ele>2263</ele>
        <time>2021-04-08T08:09:48Z</time>
      </trkpt>
      <trkpt lat="44.4525" lon="6.5639">
        <ele>2263</ele>
        <time>2021-04-08T08:09:49Z</time>
      </trkpt>
      <trkpt lat="44.45249" lon="6.56391">
        <ele>2263</ele>
        <time>2021-04-08T08:09:50Z</time>
      </trkpt>
      <trkpt lat="44.45248" lon="6.56392">
        <ele>2263</ele>
        <time>2021-04-08T08:09:51Z</time>
      </trkpt>
      <trkpt lat="44.45248" lon="6.56393">
        <ele>2264</ele>
        <time>2021-04-08T08:09:52Z</time>
      </trkpt>
      <trkpt lat="44.45248" lon="6.56394">
        <ele>2264</ele>
        <time>2021-04-08T08:09:53Z</time>
      </trkpt>
      <trkpt lat="44.45248" lon="6.56395">
        <ele>2264</ele>
        <time>2021-04-08T08:09:54Z</time>
      </trkpt>
      <trkpt lat="44.45248" lon="6.56396">
        <ele>2264</ele>
        <time>2021-04-08T08:09:55Z</time>
      </trkpt>
      <trkpt lat="44.45248" lon="6.56397">
        <ele>2264</ele>
        <time>2021-04-08T08:09:56Z</time>
      </trkpt>
      <trkpt lat="44.45248" lon="6.56399">
        <ele>2264</ele>
        <time>2021-04-08T08:09:57Z</time>
      </trkpt>
      <trkpt lat="44.45248" lon="6.564">
        <ele>2264</ele>
        <time>2021-04-08T08:09:58Z</time>
      </trkpt>
      <trkpt lat="44.45248" lon="6.56402">
        <ele>2264</ele>
        <time>2021-04-08T08:09:59Z</time>
      </trkpt>
      <trkpt lat="44.45248" lon="6.56403">
        <ele>2264</ele>
        <time>2021-04-08T08:10:00Z</time>
      </trkpt>
      <trkpt lat="44.45248" lon="6.56404">
        <ele>2264</ele>
        <time>2021-04-08T08:10:01Z</time>
      </trkpt>
      <trkpt lat="44.45247" lon="6.56406">
        <ele>2264</ele>
        <time>2021-04-08T08:10:02Z</time>
      </trkpt>
      <trkpt lat="44.45247" lon="6.56406">
        <ele>2264</ele>
        <time>2021-04-08T08:10:03Z</time>
      </trkpt>
      <trkpt lat="44.45246" lon="6.56408">
        <ele>2264</ele>
        <time>2021-04-08T08:10:04Z</time>
      </trkpt>
      <trkpt lat="44.45246" lon="6.56409">
        <ele>2264</ele>
        <time>2021-04-08T08:10:05Z</time>
      </trkpt>
      <trkpt lat="44.45245" lon="6.56409">
        <ele>2264</ele>
        <time>2021-04-08T08:10:06Z</time>
      </trkpt>
      <trkpt lat="44.45245" lon="6.56409">
        <ele>2264</ele>
        <time>2021-04-08T08:10:07Z</time>
      </trkpt>
      <trkpt lat="44.45245" lon="6.5641">
        <ele>2265</ele>
        <time>2021-04-08T08:10:08Z</time>
      </trkpt>
      <trkpt lat="44.45245" lon="6.56411">
        <ele>2265</ele>
        <time>2021-04-08T08:10:09Z</time>
      </trkpt>
      <trkpt lat="44.45245" lon="6.56412">
        <ele>2265</ele>
        <time>2021-04-08T08:10:10Z</time>
      </trkpt>
      <trkpt lat="44.45245" lon="6.56413">
        <ele>2265</ele>
        <time>2021-04-08T08:10:11Z</time>
      </trkpt>
      <trkpt lat="44.45245" lon="6.56414">
        <ele>2265</ele>
        <time>2021-04-08T08:10:12Z</time>
      </trkpt>
      <trkpt lat="44.45245" lon="6.56415">
        <ele>2265</ele>
        <time>2021-04-08T08:10:13Z</time>
      </trkpt>
      <trkpt lat="44.45245" lon="6.56416">
        <ele>2265</ele>
        <time>2021-04-08T08:10:14Z</time>
      </trkpt>
      <trkpt lat="44.45245" lon="6.56416">
        <ele>2266</ele>
        <time>2021-04-08T08:10:15Z</time>
      </trkpt>
      <trkpt lat="44.45245" lon="6.56417">
        <ele>2266</ele>
        <time>2021-04-08T08:10:16Z</time>
      </trkpt>
      <trkpt lat="44.45245" lon="6.56418">
        <ele>2266</ele>
        <time>2021-04-08T08:10:17Z</time>
      </trkpt>
      <trkpt lat="44.45245" lon="6.56419">
        <ele>2266</ele>
        <time>2021-04-08T08:10:18Z</time>
      </trkpt>
      <trkpt lat="44.45245" lon="6.5642">
        <ele>2266</ele>
        <time>2021-04-08T08:10:19Z</time>
      </trkpt>
      <trkpt lat="44.45245" lon="6.56422">
        <ele>2266</ele>
        <time>2021-04-08T08:10:20Z</time>
      </trkpt>
      <trkpt lat="44.45245" lon="6.56423">
        <ele>2267</ele>
        <time>2021-04-08T08:10:21Z</time>
      </trkpt>
      <trkpt lat="44.45245" lon="6.56424">
        <ele>2267</ele>
        <time>2021-04-08T08:10:22Z</time>
      </trkpt>
      <trkpt lat="44.45245" lon="6.56425">
        <ele>2267</ele>
        <time>2021-04-08T08:10:23Z</time>
      </trkpt>
      <trkpt lat="44.45246" lon="6.56425">
        <ele>2267</ele>
        <time>2021-04-08T08:10:24Z</time>
      </trkpt>
      <trkpt lat="44.45246" lon="6.56426">
        <ele>2267</ele>
        <time>2021-04-08T08:10:25Z</time>
      </trkpt>
      <trkpt lat="44.45246" lon="6.56427">
        <ele>2267</ele>
        <time>2021-04-08T08:10:26Z</time>
      </trkpt>
      <trkpt lat="44.45246" lon="6.56427">
        <ele>2267</ele>
        <time>2021-04-08T08:10:27Z</time>
      </trkpt>
      <trkpt lat="44.45245" lon="6.56428">
        <ele>2268</ele>
        <time>2021-04-08T08:10:28Z</time>
      </trkpt>
      <trkpt lat="44.45245" lon="6.56429">
        <ele>2268</ele>
        <time>2021-04-08T08:10:29Z</time>
      </trkpt>
      <trkpt lat="44.45245" lon="6.5643">
        <ele>2268</ele>
        <time>2021-04-08T08:10:30Z</time>
      </trkpt>
      <trkpt lat="44.45245" lon="6.56431">
        <ele>2268</ele>
        <time>2021-04-08T08:10:31Z</time>
      </trkpt>
      <trkpt lat="44.45245" lon="6.56431">
        <ele>2268</ele>
        <time>2021-04-08T08:10:32Z</time>
      </trkpt>
      <trkpt lat="44.45245" lon="6.56432">
        <ele>2268</ele>
        <time>2021-04-08T08:10:33Z</time>
      </trkpt>
      <trkpt lat="44.45245" lon="6.56433">
        <ele>2268</ele>
        <time>2021-04-08T08:10:34Z</time>
      </trkpt>
      <trkpt lat="44.45245" lon="6.56434">
        <ele>2269</ele>
        <time>2021-04-08T08:10:35Z</time>
      </trkpt>
      <trkpt lat="44.45245" lon="6.56434">
        <ele>2269</ele>
        <time>2021-04-08T08:10:36Z</time>
      </trkpt>
      <trkpt lat="44.45245" lon="6.56435">
        <ele>2269</ele>
        <time>2021-04-08T08:10:37Z</time>
      </trkpt>
      <trkpt lat="44.45245" lon="6.56436">
        <ele>2269</ele>
        <time>2021-04-08T08:10:38Z</time>
      </trkpt>
      <trkpt lat="44.45245" lon="6.56437">
        <ele>2269</ele>
        <time>2021-04-08T08:10:39Z</time>
      </trkpt>
      <trkpt lat="44.45245" lon="6.56437">
        <ele>2269</ele>
        <time>2021-04-08T08:10:40Z</time>
      </trkpt>
      <trkpt lat="44.45245" lon="6.56438">
        <ele>2270</ele>
        <time>2021-04-08T08:10:41Z</time>
      </trkpt>
      <trkpt lat="44.45245" lon="6.56439">
        <ele>2270</ele>
        <time>2021-04-08T08:10:42Z</time>
      </trkpt>
      <trkpt lat="44.45245" lon="6.5644">
        <ele>2270</ele>
        <time>2021-04-08T08:10:43Z</time>
      </trkpt>
      <trkpt lat="44.45245" lon="6.56441">
        <ele>2271</ele>
        <time>2021-04-08T08:10:44Z</time>
      </trkpt>
      <trkpt lat="44.45245" lon="6.56442">
        <ele>2271</ele>
        <time>2021-04-08T08:10:45Z</time>
      </trkpt>
      <trkpt lat="44.45245" lon="6.56443">
        <ele>2271</ele>
        <time>2021-04-08T08:10:46Z</time>
      </trkpt>
      <trkpt lat="44.45245" lon="6.56443">
        <ele>2272</ele>
        <time>2021-04-08T08:10:47Z</time>
      </trkpt>
      <trkpt lat="44.45245" lon="6.56444">
        <ele>2272</ele>
        <time>2021-04-08T08:10:48Z</time>
      </trkpt>
      <trkpt lat="44.45245" lon="6.56444">
        <ele>2272</ele>
        <time>2021-04-08T08:10:49Z</time>
      </trkpt>
      <trkpt lat="44.45244" lon="6.56445">
        <ele>2272</ele>
        <time>2021-04-08T08:10:50Z</time>
      </trkpt>
      <trkpt lat="44.45244" lon="6.56444">
        <ele>2272</ele>
        <time>2021-04-08T08:10:51Z</time>
      </trkpt>
      <trkpt lat="44.45244" lon="6.56445">
        <ele>2272</ele>
        <time>2021-04-08T08:10:52Z</time>
      </trkpt>
      <trkpt lat="44.45244" lon="6.56445">
        <ele>2272</ele>
        <time>2021-04-08T08:10:53Z</time>
      </trkpt>
      <trkpt lat="44.45244" lon="6.56445">
        <ele>2272</ele>
        <time>2021-04-08T08:10:54Z</time>
      </trkpt>
      <trkpt lat="44.45244" lon="6.56445">
        <ele>2273</ele>
        <time>2021-04-08T08:10:55Z</time>
      </trkpt>
      <trkpt lat="44.45244" lon="6.56445">
        <ele>2273</ele>
        <time>2021-04-08T08:10:56Z</time>
      </trkpt>
      <trkpt lat="44.45244" lon="6.56445">
        <ele>2273</ele>
        <time>2021-04-08T08:10:57Z</time>
      </trkpt>
      <trkpt lat="44.45244" lon="6.56445">
        <ele>2273</ele>
        <time>2021-04-08T08:10:58Z</time>
      </trkpt>
      <trkpt lat="44.45244" lon="6.56445">
        <ele>2273</ele>
        <time>2021-04-08T08:10:59Z</time>
      </trkpt>
      <trkpt lat="44.45244" lon="6.56445">
        <ele>2273</ele>
        <time>2021-04-08T08:11:00Z</time>
      </trkpt>
      <trkpt lat="44.45244" lon="6.56445">
        <ele>2273</ele>
        <time>2021-04-08T08:11:01Z</time>
      </trkpt>
      <trkpt lat="44.45244" lon="6.56445">
        <ele>2273</ele>
        <time>2021-04-08T08:11:02Z</time>
      </trkpt>
      <trkpt lat="44.45244" lon="6.56445">
        <ele>2273</ele>
        <time>2021-04-08T08:11:03Z</time>
      </trkpt>
      <trkpt lat="44.45244" lon="6.56445">
        <ele>2273</ele>
        <time>2021-04-08T08:11:04Z</time>
      </trkpt>
      <trkpt lat="44.45244" lon="6.56445">
        <ele>2273</ele>
        <time>2021-04-08T08:11:05Z</time>
      </trkpt>
      <trkpt lat="44.45244" lon="6.56445">
        <ele>2273</ele>
        <time>2021-04-08T08:11:06Z</time>
      </trkpt>
      <trkpt lat="44.45244" lon="6.56445">
        <ele>2273</ele>
        <time>2021-04-08T08:11:07Z</time>
      </trkpt>
      <trkpt lat="44.45244" lon="6.56445">
        <ele>2273</ele>
        <time>2021-04-08T08:11:08Z</time>
      </trkpt>
      <trkpt lat="44.45244" lon="6.56445">
        <ele>2273</ele>
        <time>2021-04-08T08:11:09Z</time>
      </trkpt>
      <trkpt lat="44.45244" lon="6.56445">
        <ele>2273</ele>
        <time>2021-04-08T08:11:10Z</time>
      </trkpt>
      <trkpt lat="44.45244" lon="6.56445">
        <ele>2273</ele>
        <time>2021-04-08T08:11:11Z</time>
      </trkpt>
      <trkpt lat="44.45244" lon="6.56445">
        <ele>2273</ele>
        <time>2021-04-08T08:11:12Z</time>
      </trkpt>
      <trkpt lat="44.45244" lon="6.56445">
        <ele>2273</ele>
        <time>2021-04-08T08:11:13Z</time>
      </trkpt>
      <trkpt lat="44.45244" lon="6.56445">
        <ele>2273</ele>
        <time>2021-04-08T08:11:14Z</time>
      </trkpt>
      <trkpt lat="44.45244" lon="6.56445">
        <ele>2273</ele>
        <time>2021-04-08T08:11:15Z</time>
      </trkpt>
      <trkpt lat="44.45244" lon="6.56445">
        <ele>2273</ele>
        <time>2021-04-08T08:11:16Z</time>
      </trkpt>
      <trkpt lat="44.45244" lon="6.56445">
        <ele>2273</ele>
        <time>2021-04-08T08:11:17Z</time>
      </trkpt>
      <trkpt lat="44.45244" lon="6.56445">
        <ele>2273</ele>
        <time>2021-04-08T08:11:18Z</time>
      </trkpt>
      <trkpt lat="44.45244" lon="6.56445">
        <ele>2273</ele>
        <time>2021-04-08T08:11:19Z</time>
      </trkpt>
      <trkpt lat="44.45244" lon="6.56445">
        <ele>2273</ele>
        <time>2021-04-08T08:11:20Z</time>
      </trkpt>
      <trkpt lat="44.45244" lon="6.56445">
        <ele>2273</ele>
        <time>2021-04-08T08:11:21Z</time>
      </trkpt>
      <trkpt lat="44.45244" lon="6.56445">
        <ele>2273</ele>
        <time>2021-04-08T08:11:22Z</time>
      </trkpt>
      <trkpt lat="44.45244" lon="6.56445">
        <ele>2273</ele>
        <time>2021-04-08T08:11:23Z</time>
      </trkpt>
      <trkpt lat="44.45244" lon="6.56445">
        <ele>2273</ele>
        <time>2021-04-08T08:11:24Z</time>
      </trkpt>
      <trkpt lat="44.45244" lon="6.56445">
        <ele>2273</ele>
        <time>2021-04-08T08:11:25Z</time>
      </trkpt>
      <trkpt lat="44.45244" lon="6.56445">
        <ele>2273</ele>
        <time>2021-04-08T08:11:26Z</time>
      </trkpt>
      <trkpt lat="44.45244" lon="6.56445">
        <ele>2273</ele>
        <time>2021-04-08T08:11:27Z</time>
      </trkpt>
      <trkpt lat="44.45244" lon="6.56445">
        <ele>2273</ele>
        <time>2021-04-08T08:11:28Z</time>
      </trkpt>
      <trkpt lat="44.45244" lon="6.56445">
        <ele>2273</ele>
        <time>2021-04-08T08:11:29Z</time>
      </trkpt>
      <trkpt lat="44.45244" lon="6.56445">
        <ele>2273</ele>
        <time>2021-04-08T08:11:30Z</time>
      </trkpt>
      <trkpt lat="44.45244" lon="6.56445">
        <ele>2273</ele>
        <time>2021-04-08T08:11:31Z</time>
      </trkpt>
      <trkpt lat="44.45244" lon="6.56445">
        <ele>2273</ele>
        <time>2021-04-08T08:11:32Z</time>
      </trkpt>
      <trkpt lat="44.45244" lon="6.56445">
        <ele>2273</ele>
        <time>2021-04-08T08:11:33Z</time>
      </trkpt>
      <trkpt lat="44.45244" lon="6.56445">
        <ele>2273</ele>
        <time>2021-04-08T08:11:34Z</time>
      </trkpt>
      <trkpt lat="44.45244" lon="6.56445">
        <ele>2273</ele>
        <time>2021-04-08T08:11:35Z</time>
      </trkpt>
      <trkpt lat="44.45244" lon="6.56445">
        <ele>2273</ele>
        <time>2021-04-08T08:11:36Z</time>
      </trkpt>
      <trkpt lat="44.45244" lon="6.56445">
        <ele>2273</ele>
        <time>2021-04-08T08:11:37Z</time>
      </trkpt>
      <trkpt lat="44.45244" lon="6.56445">
        <ele>2273</ele>
        <time>2021-04-08T08:11:38Z</time>
      </trkpt>
      <trkpt lat="44.45244" lon="6.56444">
        <ele>2273</ele>
        <time>2021-04-08T08:11:39Z</time>
      </trkpt>
      <trkpt lat="44.45243" lon="6.56444">
        <ele>2273</ele>
        <time>2021-04-08T08:11:40Z</time>
      </trkpt>
      <trkpt lat="44.45243" lon="6.56444">
        <ele>2273</ele>
        <time>2021-04-08T08:11:41Z</time>
      </trkpt>
      <trkpt lat="44.45244" lon="6.56444">
        <ele>2273</ele>
        <time>2021-04-08T08:11:42Z</time>
      </trkpt>
      <trkpt lat="44.45244" lon="6.56444">
        <ele>2273</ele>
        <time>2021-04-08T08:11:43Z</time>
      </trkpt>
      <trkpt lat="44.45244" lon="6.56444">
        <ele>2273</ele>
        <time>2021-04-08T08:11:44Z</time>
      </trkpt>
      <trkpt lat="44.45244" lon="6.56444">
        <ele>2273</ele>
        <time>2021-04-08T08:11:45Z</time>
      </trkpt>
      <trkpt lat="44.45244" lon="6.56444">
        <ele>2273</ele>
        <time>2021-04-08T08:11:46Z</time>
      </trkpt>
      <trkpt lat="44.45244" lon="6.56444">
        <ele>2273</ele>
        <time>2021-04-08T08:11:47Z</time>
      </trkpt>
      <trkpt lat="44.45244" lon="6.56444">
        <ele>2273</ele>
        <time>2021-04-08T08:11:48Z</time>
      </trkpt>
      <trkpt lat="44.45244" lon="6.56444">
        <ele>2273</ele>
        <time>2021-04-08T08:11:49Z</time>
      </trkpt>
      <trkpt lat="44.45244" lon="6.56444">
        <ele>2273</ele>
        <time>2021-04-08T08:11:50Z</time>
      </trkpt>
      <trkpt lat="44.45244" lon="6.56444">
        <ele>2273</ele>
        <time>2021-04-08T08:11:51Z</time>
      </trkpt>
      <trkpt lat="44.45244" lon="6.56444">
        <ele>2273</ele>
        <time>2021-04-08T08:11:52Z</time>
      </trkpt>
      <trkpt lat="44.45244" lon="6.56444">
        <ele>2273</ele>
        <time>2021-04-08T08:11:53Z</time>
      </trkpt>
      <trkpt lat="44.45244" lon="6.56444">
        <ele>2273</ele>
        <time>2021-04-08T08:11:54Z</time>
      </trkpt>
      <trkpt lat="44.45244" lon="6.56444">
        <ele>2273</ele>
        <time>2021-04-08T08:11:55Z</time>
      </trkpt>
      <trkpt lat="44.45244" lon="6.56444">
        <ele>2273</ele>
        <time>2021-04-08T08:11:56Z</time>
      </trkpt>
      <trkpt lat="44.45244" lon="6.56444">
        <ele>2274</ele>
        <time>2021-04-08T08:11:57Z</time>
      </trkpt>
      <trkpt lat="44.45244" lon="6.56444">
        <ele>2274</ele>
        <time>2021-04-08T08:11:58Z</time>
      </trkpt>
      <trkpt lat="44.45244" lon="6.56444">
        <ele>2274</ele>
        <time>2021-04-08T08:11:59Z</time>
      </trkpt>
      <trkpt lat="44.45244" lon="6.56444">
        <ele>2274</ele>
        <time>2021-04-08T08:12:00Z</time>
      </trkpt>
      <trkpt lat="44.45244" lon="6.56444">
        <ele>2274</ele>
        <time>2021-04-08T08:12:01Z</time>
      </trkpt>
      <trkpt lat="44.45244" lon="6.56444">
        <ele>2274</ele>
        <time>2021-04-08T08:12:02Z</time>
      </trkpt>
      <trkpt lat="44.45241" lon="6.56447">
        <ele>2275</ele>
        <time>2021-04-08T08:12:03Z</time>
      </trkpt>
      <trkpt lat="44.4524" lon="6.56447">
        <ele>2275</ele>
        <time>2021-04-08T08:12:04Z</time>
      </trkpt>
      <trkpt lat="44.45239" lon="6.56447">
        <ele>2275</ele>
        <time>2021-04-08T08:12:05Z</time>
      </trkpt>
      <trkpt lat="44.45239" lon="6.56447">
        <ele>2275</ele>
        <time>2021-04-08T08:12:06Z</time>
      </trkpt>
      <trkpt lat="44.45238" lon="6.56447">
        <ele>2275</ele>
        <time>2021-04-08T08:12:07Z</time>
      </trkpt>
      <trkpt lat="44.45237" lon="6.56447">
        <ele>2276</ele>
        <time>2021-04-08T08:12:08Z</time>
      </trkpt>
      <trkpt lat="44.45236" lon="6.56447">
        <ele>2276</ele>
        <time>2021-04-08T08:12:09Z</time>
      </trkpt>
      <trkpt lat="44.45235" lon="6.56446">
        <ele>2276</ele>
        <time>2021-04-08T08:12:10Z</time>
      </trkpt>
      <trkpt lat="44.45235" lon="6.56446">
        <ele>2276</ele>
        <time>2021-04-08T08:12:11Z</time>
      </trkpt>
      <trkpt lat="44.45234" lon="6.56446">
        <ele>2276</ele>
        <time>2021-04-08T08:12:12Z</time>
      </trkpt>
      <trkpt lat="44.45233" lon="6.56446">
        <ele>2277</ele>
        <time>2021-04-08T08:12:13Z</time>
      </trkpt>
      <trkpt lat="44.45233" lon="6.56446">
        <ele>2277</ele>
        <time>2021-04-08T08:12:14Z</time>
      </trkpt>
      <trkpt lat="44.45233" lon="6.56446">
        <ele>2277</ele>
        <time>2021-04-08T08:12:15Z</time>
      </trkpt>
      <trkpt lat="44.45232" lon="6.56446">
        <ele>2277</ele>
        <time>2021-04-08T08:12:16Z</time>
      </trkpt>
      <trkpt lat="44.45232" lon="6.56446">
        <ele>2277</ele>
        <time>2021-04-08T08:12:17Z</time>
      </trkpt>
      <trkpt lat="44.45232" lon="6.56446">
        <ele>2278</ele>
        <time>2021-04-08T08:12:18Z</time>
      </trkpt>
      <trkpt lat="44.45231" lon="6.56446">
        <ele>2278</ele>
        <time>2021-04-08T08:12:19Z</time>
      </trkpt>
      <trkpt lat="44.45231" lon="6.56446">
        <ele>2279</ele>
        <time>2021-04-08T08:12:20Z</time>
      </trkpt>
      <trkpt lat="44.45231" lon="6.56448">
        <ele>2279</ele>
        <time>2021-04-08T08:12:21Z</time>
      </trkpt>
      <trkpt lat="44.45231" lon="6.56448">
        <ele>2279</ele>
        <time>2021-04-08T08:12:22Z</time>
      </trkpt>
      <trkpt lat="44.45231" lon="6.56449">
        <ele>2279</ele>
        <time>2021-04-08T08:12:23Z</time>
      </trkpt>
      <trkpt lat="44.4523" lon="6.5645">
        <ele>2280</ele>
        <time>2021-04-08T08:12:24Z</time>
      </trkpt>
      <trkpt lat="44.4523" lon="6.56451">
        <ele>2280</ele>
        <time>2021-04-08T08:12:25Z</time>
      </trkpt>
      <trkpt lat="44.4523" lon="6.56452">
        <ele>2280</ele>
        <time>2021-04-08T08:12:26Z</time>
      </trkpt>
      <trkpt lat="44.4523" lon="6.56453">
        <ele>2280</ele>
        <time>2021-04-08T08:12:27Z</time>
      </trkpt>
      <trkpt lat="44.45229" lon="6.56454">
        <ele>2280</ele>
        <time>2021-04-08T08:12:28Z</time>
      </trkpt>
      <trkpt lat="44.45229" lon="6.56455">
        <ele>2280</ele>
        <time>2021-04-08T08:12:29Z</time>
      </trkpt>
      <trkpt lat="44.45229" lon="6.56455">
        <ele>2280</ele>
        <time>2021-04-08T08:12:30Z</time>
      </trkpt>
      <trkpt lat="44.4523" lon="6.56456">
        <ele>2281</ele>
        <time>2021-04-08T08:12:31Z</time>
      </trkpt>
      <trkpt lat="44.4523" lon="6.56456">
        <ele>2281</ele>
        <time>2021-04-08T08:12:32Z</time>
      </trkpt>
      <trkpt lat="44.4523" lon="6.56457">
        <ele>2281</ele>
        <time>2021-04-08T08:12:33Z</time>
      </trkpt>
      <trkpt lat="44.4523" lon="6.56458">
        <ele>2281</ele>
        <time>2021-04-08T08:12:34Z</time>
      </trkpt>
      <trkpt lat="44.4523" lon="6.56458">
        <ele>2281</ele>
        <time>2021-04-08T08:12:35Z</time>
      </trkpt>
      <trkpt lat="44.45231" lon="6.56459">
        <ele>2281</ele>
        <time>2021-04-08T08:12:36Z</time>
      </trkpt>
      <trkpt lat="44.45231" lon="6.5646">
        <ele>2281</ele>
        <time>2021-04-08T08:12:37Z</time>
      </trkpt>
      <trkpt lat="44.45231" lon="6.5646">
        <ele>2281</ele>
        <time>2021-04-08T08:12:38Z</time>
      </trkpt>
      <trkpt lat="44.45232" lon="6.56461">
        <ele>2281</ele>
        <time>2021-04-08T08:12:39Z</time>
      </trkpt>
      <trkpt lat="44.45232" lon="6.56462">
        <ele>2282</ele>
        <time>2021-04-08T08:12:40Z</time>
      </trkpt>
      <trkpt lat="44.45232" lon="6.56463">
        <ele>2282</ele>
        <time>2021-04-08T08:12:41Z</time>
      </trkpt>
      <trkpt lat="44.45232" lon="6.56463">
        <ele>2282</ele>
        <time>2021-04-08T08:12:42Z</time>
      </trkpt>
      <trkpt lat="44.45233" lon="6.56464">
        <ele>2282</ele>
        <time>2021-04-08T08:12:43Z</time>
      </trkpt>
      <trkpt lat="44.45233" lon="6.56465">
        <ele>2282</ele>
        <time>2021-04-08T08:12:44Z</time>
      </trkpt>
      <trkpt lat="44.45233" lon="6.56465">
        <ele>2282</ele>
        <time>2021-04-08T08:12:45Z</time>
      </trkpt>
      <trkpt lat="44.45233" lon="6.56465">
        <ele>2283</ele>
        <time>2021-04-08T08:12:46Z</time>
      </trkpt>
      <trkpt lat="44.45234" lon="6.56465">
        <ele>2283</ele>
        <time>2021-04-08T08:12:47Z</time>
      </trkpt>
      <trkpt lat="44.45235" lon="6.56466">
        <ele>2283</ele>
        <time>2021-04-08T08:12:48Z</time>
      </trkpt>
      <trkpt lat="44.45236" lon="6.56467">
        <ele>2283</ele>
        <time>2021-04-08T08:12:49Z</time>
      </trkpt>
      <trkpt lat="44.45236" lon="6.56467">
        <ele>2283</ele>
        <time>2021-04-08T08:12:50Z</time>
      </trkpt>
      <trkpt lat="44.45236" lon="6.56467">
        <ele>2283</ele>
        <time>2021-04-08T08:12:51Z</time>
      </trkpt>
      <trkpt lat="44.45236" lon="6.56467">
        <ele>2283</ele>
        <time>2021-04-08T08:12:52Z</time>
      </trkpt>
      <trkpt lat="44.45236" lon="6.56468">
        <ele>2283</ele>
        <time>2021-04-08T08:12:53Z</time>
      </trkpt>
      <trkpt lat="44.45236" lon="6.56469">
        <ele>2283</ele>
        <time>2021-04-08T08:12:54Z</time>
      </trkpt>
      <trkpt lat="44.45236" lon="6.56468">
        <ele>2283</ele>
        <time>2021-04-08T08:12:55Z</time>
      </trkpt>
      <trkpt lat="44.45236" lon="6.56468">
        <ele>2283</ele>
        <time>2021-04-08T08:12:56Z</time>
      </trkpt>
      <trkpt lat="44.45236" lon="6.56468">
        <ele>2283</ele>
        <time>2021-04-08T08:12:57Z</time>
      </trkpt>
      <trkpt lat="44.45236" lon="6.56468">
        <ele>2283</ele>
        <time>2021-04-08T08:12:58Z</time>
      </trkpt>
      <trkpt lat="44.45236" lon="6.56468">
        <ele>2283</ele>
        <time>2021-04-08T08:12:59Z</time>
      </trkpt>
      <trkpt lat="44.45235" lon="6.56468">
        <ele>2283</ele>
        <time>2021-04-08T08:13:00Z</time>
      </trkpt>
      <trkpt lat="44.45235" lon="6.56468">
        <ele>2283</ele>
        <time>2021-04-08T08:13:01Z</time>
      </trkpt>
      <trkpt lat="44.45234" lon="6.56468">
        <ele>2283</ele>
        <time>2021-04-08T08:13:02Z</time>
      </trkpt>
      <trkpt lat="44.45233" lon="6.56468">
        <ele>2283</ele>
        <time>2021-04-08T08:13:03Z</time>
      </trkpt>
      <trkpt lat="44.45232" lon="6.56469">
        <ele>2283</ele>
        <time>2021-04-08T08:13:04Z</time>
      </trkpt>
      <trkpt lat="44.45231" lon="6.56469">
        <ele>2283</ele>
        <time>2021-04-08T08:13:05Z</time>
      </trkpt>
      <trkpt lat="44.4523" lon="6.56469">
        <ele>2283</ele>
        <time>2021-04-08T08:13:06Z</time>
      </trkpt>
      <trkpt lat="44.4523" lon="6.56469">
        <ele>2282</ele>
        <time>2021-04-08T08:13:07Z</time>
      </trkpt>
      <trkpt lat="44.45229" lon="6.56469">
        <ele>2282</ele>
        <time>2021-04-08T08:13:08Z</time>
      </trkpt>
      <trkpt lat="44.45229" lon="6.56469">
        <ele>2282</ele>
        <time>2021-04-08T08:13:09Z</time>
      </trkpt>
      <trkpt lat="44.45228" lon="6.56469">
        <ele>2282</ele>
        <time>2021-04-08T08:13:10Z</time>
      </trkpt>
      <trkpt lat="44.45228" lon="6.56469">
        <ele>2282</ele>
        <time>2021-04-08T08:13:11Z</time>
      </trkpt>
      <trkpt lat="44.45227" lon="6.56469">
        <ele>2282</ele>
        <time>2021-04-08T08:13:12Z</time>
      </trkpt>
      <trkpt lat="44.45227" lon="6.56468">
        <ele>2283</ele>
        <time>2021-04-08T08:13:13Z</time>
      </trkpt>
      <trkpt lat="44.45226" lon="6.56469">
        <ele>2283</ele>
        <time>2021-04-08T08:13:14Z</time>
      </trkpt>
      <trkpt lat="44.45225" lon="6.56469">
        <ele>2283</ele>
        <time>2021-04-08T08:13:15Z</time>
      </trkpt>
      <trkpt lat="44.45225" lon="6.5647">
        <ele>2283</ele>
        <time>2021-04-08T08:13:16Z</time>
      </trkpt>
      <trkpt lat="44.45224" lon="6.5647">
        <ele>2283</ele>
        <time>2021-04-08T08:13:17Z</time>
      </trkpt>
      <trkpt lat="44.45224" lon="6.5647">
        <ele>2283</ele>
        <time>2021-04-08T08:13:18Z</time>
      </trkpt>
      <trkpt lat="44.45223" lon="6.5647">
        <ele>2284</ele>
        <time>2021-04-08T08:13:19Z</time>
      </trkpt>
      <trkpt lat="44.45223" lon="6.5647">
        <ele>2284</ele>
        <time>2021-04-08T08:13:20Z</time>
      </trkpt>
      <trkpt lat="44.45223" lon="6.5647">
        <ele>2284</ele>
        <time>2021-04-08T08:13:21Z</time>
      </trkpt>
      <trkpt lat="44.45223" lon="6.5647">
        <ele>2284</ele>
        <time>2021-04-08T08:13:22Z</time>
      </trkpt>
      <trkpt lat="44.45222" lon="6.5647">
        <ele>2284</ele>
        <time>2021-04-08T08:13:23Z</time>
      </trkpt>
      <trkpt lat="44.45222" lon="6.5647">
        <ele>2284</ele>
        <time>2021-04-08T08:13:24Z</time>
      </trkpt>
      <trkpt lat="44.45221" lon="6.56469">
        <ele>2284</ele>
        <time>2021-04-08T08:13:25Z</time>
      </trkpt>
      <trkpt lat="44.45221" lon="6.56469">
        <ele>2285</ele>
        <time>2021-04-08T08:13:26Z</time>
      </trkpt>
      <trkpt lat="44.4522" lon="6.56469">
        <ele>2285</ele>
        <time>2021-04-08T08:13:27Z</time>
      </trkpt>
      <trkpt lat="44.45219" lon="6.56468">
        <ele>2285</ele>
        <time>2021-04-08T08:13:28Z</time>
      </trkpt>
      <trkpt lat="44.45219" lon="6.56468">
        <ele>2285</ele>
        <time>2021-04-08T08:13:29Z</time>
      </trkpt>
      <trkpt lat="44.45219" lon="6.56468">
        <ele>2286</ele>
        <time>2021-04-08T08:13:30Z</time>
      </trkpt>
      <trkpt lat="44.45218" lon="6.56468">
        <ele>2286</ele>
        <time>2021-04-08T08:13:31Z</time>
      </trkpt>
      <trkpt lat="44.45218" lon="6.56467">
        <ele>2286</ele>
        <time>2021-04-08T08:13:32Z</time>
      </trkpt>
      <trkpt lat="44.45217" lon="6.56467">
        <ele>2287</ele>
        <time>2021-04-08T08:13:33Z</time>
      </trkpt>
      <trkpt lat="44.45217" lon="6.56467">
        <ele>2287</ele>
        <time>2021-04-08T08:13:34Z</time>
      </trkpt>
      <trkpt lat="44.45216" lon="6.56467">
        <ele>2287</ele>
        <time>2021-04-08T08:13:35Z</time>
      </trkpt>
      <trkpt lat="44.45215" lon="6.56467">
        <ele>2287</ele>
        <time>2021-04-08T08:13:36Z</time>
      </trkpt>
      <trkpt lat="44.45215" lon="6.56467">
        <ele>2288</ele>
        <time>2021-04-08T08:13:37Z</time>
      </trkpt>
      <trkpt lat="44.45214" lon="6.56467">
        <ele>2288</ele>
        <time>2021-04-08T08:13:38Z</time>
      </trkpt>
      <trkpt lat="44.45214" lon="6.56467">
        <ele>2288</ele>
        <time>2021-04-08T08:13:39Z</time>
      </trkpt>
      <trkpt lat="44.45213" lon="6.56468">
        <ele>2288</ele>
        <time>2021-04-08T08:13:40Z</time>
      </trkpt>
      <trkpt lat="44.45213" lon="6.56468">
        <ele>2288</ele>
        <time>2021-04-08T08:13:41Z</time>
      </trkpt>
      <trkpt lat="44.45213" lon="6.56468">
        <ele>2288</ele>
        <time>2021-04-08T08:13:42Z</time>
      </trkpt>
      <trkpt lat="44.45213" lon="6.56468">
        <ele>2288</ele>
        <time>2021-04-08T08:13:43Z</time>
      </trkpt>
      <trkpt lat="44.45212" lon="6.56468">
        <ele>2288</ele>
        <time>2021-04-08T08:13:44Z</time>
      </trkpt>
      <trkpt lat="44.45212" lon="6.56469">
        <ele>2289</ele>
        <time>2021-04-08T08:13:45Z</time>
      </trkpt>
      <trkpt lat="44.45211" lon="6.56468">
        <ele>2290</ele>
        <time>2021-04-08T08:13:46Z</time>
      </trkpt>
      <trkpt lat="44.4521" lon="6.56468">
        <ele>2290</ele>
        <time>2021-04-08T08:13:47Z</time>
      </trkpt>
      <trkpt lat="44.45209" lon="6.56468">
        <ele>2290</ele>
        <time>2021-04-08T08:13:48Z</time>
      </trkpt>
      <trkpt lat="44.45209" lon="6.56467">
        <ele>2291</ele>
        <time>2021-04-08T08:13:49Z</time>
      </trkpt>
      <trkpt lat="44.45208" lon="6.56467">
        <ele>2291</ele>
        <time>2021-04-08T08:13:50Z</time>
      </trkpt>
      <trkpt lat="44.45207" lon="6.56467">
        <ele>2291</ele>
        <time>2021-04-08T08:13:51Z</time>
      </trkpt>
      <trkpt lat="44.45207" lon="6.56466">
        <ele>2291</ele>
        <time>2021-04-08T08:13:52Z</time>
      </trkpt>
      <trkpt lat="44.45206" lon="6.56466">
        <ele>2292</ele>
        <time>2021-04-08T08:13:53Z</time>
      </trkpt>
      <trkpt lat="44.45206" lon="6.56466">
        <ele>2292</ele>
        <time>2021-04-08T08:13:54Z</time>
      </trkpt>
      <trkpt lat="44.45205" lon="6.56466">
        <ele>2292</ele>
        <time>2021-04-08T08:13:55Z</time>
      </trkpt>
      <trkpt lat="44.45205" lon="6.56466">
        <ele>2292</ele>
        <time>2021-04-08T08:13:56Z</time>
      </trkpt>
      <trkpt lat="44.45205" lon="6.56466">
        <ele>2292</ele>
        <time>2021-04-08T08:13:57Z</time>
      </trkpt>
      <trkpt lat="44.45205" lon="6.56465">
        <ele>2292</ele>
        <time>2021-04-08T08:13:58Z</time>
      </trkpt>
      <trkpt lat="44.45204" lon="6.56465">
        <ele>2292</ele>
        <time>2021-04-08T08:13:59Z</time>
      </trkpt>
      <trkpt lat="44.45204" lon="6.56465">
        <ele>2292</ele>
        <time>2021-04-08T08:14:00Z</time>
      </trkpt>
      <trkpt lat="44.45203" lon="6.56465">
        <ele>2292</ele>
        <time>2021-04-08T08:14:01Z</time>
      </trkpt>
      <trkpt lat="44.45203" lon="6.56465">
        <ele>2292</ele>
        <time>2021-04-08T08:14:02Z</time>
      </trkpt>
      <trkpt lat="44.45203" lon="6.56466">
        <ele>2292</ele>
        <time>2021-04-08T08:14:03Z</time>
      </trkpt>
      <trkpt lat="44.45202" lon="6.56466">
        <ele>2292</ele>
        <time>2021-04-08T08:14:04Z</time>
      </trkpt>
      <trkpt lat="44.45202" lon="6.56467">
        <ele>2293</ele>
        <time>2021-04-08T08:14:05Z</time>
      </trkpt>
      <trkpt lat="44.45201" lon="6.56467">
        <ele>2293</ele>
        <time>2021-04-08T08:14:06Z</time>
      </trkpt>
      <trkpt lat="44.45201" lon="6.56468">
        <ele>2293</ele>
        <time>2021-04-08T08:14:07Z</time>
      </trkpt>
      <trkpt lat="44.45201" lon="6.56469">
        <ele>2293</ele>
        <time>2021-04-08T08:14:08Z</time>
      </trkpt>
      <trkpt lat="44.45201" lon="6.5647">
        <ele>2293</ele>
        <time>2021-04-08T08:14:09Z</time>
      </trkpt>
      <trkpt lat="44.45201" lon="6.56471">
        <ele>2293</ele>
        <time>2021-04-08T08:14:10Z</time>
      </trkpt>
      <trkpt lat="44.45201" lon="6.56473">
        <ele>2293</ele>
        <time>2021-04-08T08:14:11Z</time>
      </trkpt>
      <trkpt lat="44.45202" lon="6.56473">
        <ele>2293</ele>
        <time>2021-04-08T08:14:12Z</time>
      </trkpt>
      <trkpt lat="44.45202" lon="6.56473">
        <ele>2293</ele>
        <time>2021-04-08T08:14:13Z</time>
      </trkpt>
      <trkpt lat="44.45202" lon="6.56473">
        <ele>2293</ele>
        <time>2021-04-08T08:14:14Z</time>
      </trkpt>
      <trkpt lat="44.45203" lon="6.56474">
        <ele>2293</ele>
        <time>2021-04-08T08:14:15Z</time>
      </trkpt>
      <trkpt lat="44.45202" lon="6.56474">
        <ele>2293</ele>
        <time>2021-04-08T08:14:16Z</time>
      </trkpt>
      <trkpt lat="44.45202" lon="6.56474">
        <ele>2293</ele>
        <time>2021-04-08T08:14:17Z</time>
      </trkpt>
      <trkpt lat="44.45202" lon="6.56474">
        <ele>2293</ele>
        <time>2021-04-08T08:14:18Z</time>
      </trkpt>
      <trkpt lat="44.45202" lon="6.56474">
        <ele>2293</ele>
        <time>2021-04-08T08:14:19Z</time>
      </trkpt>
      <trkpt lat="44.45202" lon="6.56474">
        <ele>2293</ele>
        <time>2021-04-08T08:14:20Z</time>
      </trkpt>
      <trkpt lat="44.45202" lon="6.56474">
        <ele>2293</ele>
        <time>2021-04-08T08:14:21Z</time>
      </trkpt>
      <trkpt lat="44.45204" lon="6.56475">
        <ele>2293</ele>
        <time>2021-04-08T08:14:22Z</time>
      </trkpt>
      <trkpt lat="44.45204" lon="6.56476">
        <ele>2293</ele>
        <time>2021-04-08T08:14:23Z</time>
      </trkpt>
      <trkpt lat="44.45204" lon="6.56477">
        <ele>2293</ele>
        <time>2021-04-08T08:14:24Z</time>
      </trkpt>
      <trkpt lat="44.45205" lon="6.56478">
        <ele>2292</ele>
        <time>2021-04-08T08:14:25Z</time>
      </trkpt>
      <trkpt lat="44.45205" lon="6.56479">
        <ele>2292</ele>
        <time>2021-04-08T08:14:26Z</time>
      </trkpt>
      <trkpt lat="44.45205" lon="6.56481">
        <ele>2292</ele>
        <time>2021-04-08T08:14:27Z</time>
      </trkpt>
      <trkpt lat="44.45205" lon="6.56481">
        <ele>2292</ele>
        <time>2021-04-08T08:14:28Z</time>
      </trkpt>
      <trkpt lat="44.45205" lon="6.56482">
        <ele>2291</ele>
        <time>2021-04-08T08:14:29Z</time>
      </trkpt>
      <trkpt lat="44.45205" lon="6.56483">
        <ele>2291</ele>
        <time>2021-04-08T08:14:30Z</time>
      </trkpt>
      <trkpt lat="44.45205" lon="6.56483">
        <ele>2291</ele>
        <time>2021-04-08T08:14:31Z</time>
      </trkpt>
      <trkpt lat="44.45206" lon="6.56484">
        <ele>2291</ele>
        <time>2021-04-08T08:14:32Z</time>
      </trkpt>
      <trkpt lat="44.45206" lon="6.56485">
        <ele>2291</ele>
        <time>2021-04-08T08:14:33Z</time>
      </trkpt>
      <trkpt lat="44.45206" lon="6.56485">
        <ele>2291</ele>
        <time>2021-04-08T08:14:34Z</time>
      </trkpt>
      <trkpt lat="44.45206" lon="6.56485">
        <ele>2291</ele>
        <time>2021-04-08T08:14:35Z</time>
      </trkpt>
      <trkpt lat="44.45206" lon="6.56485">
        <ele>2291</ele>
        <time>2021-04-08T08:14:36Z</time>
      </trkpt>
      <trkpt lat="44.45206" lon="6.56486">
        <ele>2291</ele>
        <time>2021-04-08T08:14:37Z</time>
      </trkpt>
      <trkpt lat="44.45207" lon="6.56486">
        <ele>2291</ele>
        <time>2021-04-08T08:14:38Z</time>
      </trkpt>
      <trkpt lat="44.45207" lon="6.56487">
        <ele>2291</ele>
        <time>2021-04-08T08:14:39Z</time>
      </trkpt>
      <trkpt lat="44.45208" lon="6.56488">
        <ele>2291</ele>
        <time>2021-04-08T08:14:40Z</time>
      </trkpt>
      <trkpt lat="44.45208" lon="6.56489">
        <ele>2291</ele>
        <time>2021-04-08T08:14:41Z</time>
      </trkpt>
      <trkpt lat="44.45209" lon="6.5649">
        <ele>2291</ele>
        <time>2021-04-08T08:14:42Z</time>
      </trkpt>
      <trkpt lat="44.45209" lon="6.56491">
        <ele>2292</ele>
        <time>2021-04-08T08:14:43Z</time>
      </trkpt>
      <trkpt lat="44.45209" lon="6.56493">
        <ele>2292</ele>
        <time>2021-04-08T08:14:44Z</time>
      </trkpt>
      <trkpt lat="44.45209" lon="6.56493">
        <ele>2292</ele>
        <time>2021-04-08T08:14:45Z</time>
      </trkpt>
      <trkpt lat="44.45209" lon="6.56494">
        <ele>2292</ele>
        <time>2021-04-08T08:14:46Z</time>
      </trkpt>
      <trkpt lat="44.45209" lon="6.56495">
        <ele>2293</ele>
        <time>2021-04-08T08:14:47Z</time>
      </trkpt>
      <trkpt lat="44.45209" lon="6.56495">
        <ele>2293</ele>
        <time>2021-04-08T08:14:48Z</time>
      </trkpt>
      <trkpt lat="44.4521" lon="6.56495">
        <ele>2293</ele>
        <time>2021-04-08T08:14:49Z</time>
      </trkpt>
      <trkpt lat="44.4521" lon="6.56495">
        <ele>2293</ele>
        <time>2021-04-08T08:14:50Z</time>
      </trkpt>
      <trkpt lat="44.4521" lon="6.56495">
        <ele>2294</ele>
        <time>2021-04-08T08:14:51Z</time>
      </trkpt>
      <trkpt lat="44.4521" lon="6.56495">
        <ele>2294</ele>
        <time>2021-04-08T08:14:52Z</time>
      </trkpt>
      <trkpt lat="44.4521" lon="6.56495">
        <ele>2294</ele>
        <time>2021-04-08T08:14:53Z</time>
      </trkpt>
      <trkpt lat="44.4521" lon="6.56495">
        <ele>2294</ele>
        <time>2021-04-08T08:14:54Z</time>
      </trkpt>
      <trkpt lat="44.45211" lon="6.56496">
        <ele>2294</ele>
        <time>2021-04-08T08:14:55Z</time>
      </trkpt>
      <trkpt lat="44.45211" lon="6.56496">
        <ele>2294</ele>
        <time>2021-04-08T08:14:56Z</time>
      </trkpt>
      <trkpt lat="44.45212" lon="6.56497">
        <ele>2294</ele>
        <time>2021-04-08T08:14:57Z</time>
      </trkpt>
      <trkpt lat="44.45212" lon="6.56498">
        <ele>2295</ele>
        <time>2021-04-08T08:14:58Z</time>
      </trkpt>
      <trkpt lat="44.45212" lon="6.56498">
        <ele>2295</ele>
        <time>2021-04-08T08:14:59Z</time>
      </trkpt>
      <trkpt lat="44.45213" lon="6.56499">
        <ele>2296</ele>
        <time>2021-04-08T08:15:00Z</time>
      </trkpt>
      <trkpt lat="44.45213" lon="6.565">
        <ele>2296</ele>
        <time>2021-04-08T08:15:01Z</time>
      </trkpt>
      <trkpt lat="44.45214" lon="6.565">
        <ele>2296</ele>
        <time>2021-04-08T08:15:02Z</time>
      </trkpt>
      <trkpt lat="44.45214" lon="6.56501">
        <ele>2296</ele>
        <time>2021-04-08T08:15:03Z</time>
      </trkpt>
      <trkpt lat="44.45215" lon="6.56502">
        <ele>2296</ele>
        <time>2021-04-08T08:15:04Z</time>
      </trkpt>
      <trkpt lat="44.45215" lon="6.56503">
        <ele>2296</ele>
        <time>2021-04-08T08:15:05Z</time>
      </trkpt>
      <trkpt lat="44.45216" lon="6.56503">
        <ele>2296</ele>
        <time>2021-04-08T08:15:06Z</time>
      </trkpt>
      <trkpt lat="44.45217" lon="6.56504">
        <ele>2297</ele>
        <time>2021-04-08T08:15:07Z</time>
      </trkpt>
      <trkpt lat="44.45218" lon="6.56504">
        <ele>2297</ele>
        <time>2021-04-08T08:15:08Z</time>
      </trkpt>
      <trkpt lat="44.45218" lon="6.56505">
        <ele>2297</ele>
        <time>2021-04-08T08:15:09Z</time>
      </trkpt>
      <trkpt lat="44.45219" lon="6.56505">
        <ele>2297</ele>
        <time>2021-04-08T08:15:10Z</time>
      </trkpt>
      <trkpt lat="44.4522" lon="6.56506">
        <ele>2298</ele>
        <time>2021-04-08T08:15:11Z</time>
      </trkpt>
      <trkpt lat="44.45221" lon="6.56506">
        <ele>2298</ele>
        <time>2021-04-08T08:15:12Z</time>
      </trkpt>
      <trkpt lat="44.45221" lon="6.56507">
        <ele>2298</ele>
        <time>2021-04-08T08:15:13Z</time>
      </trkpt>
      <trkpt lat="44.45222" lon="6.56506">
        <ele>2298</ele>
        <time>2021-04-08T08:15:14Z</time>
      </trkpt>
      <trkpt lat="44.45222" lon="6.56506">
        <ele>2298</ele>
        <time>2021-04-08T08:15:15Z</time>
      </trkpt>
      <trkpt lat="44.45222" lon="6.56505">
        <ele>2298</ele>
        <time>2021-04-08T08:15:16Z</time>
      </trkpt>
      <trkpt lat="44.45221" lon="6.56506">
        <ele>2298</ele>
        <time>2021-04-08T08:15:17Z</time>
      </trkpt>
      <trkpt lat="44.4522" lon="6.56506">
        <ele>2298</ele>
        <time>2021-04-08T08:15:18Z</time>
      </trkpt>
      <trkpt lat="44.45219" lon="6.56506">
        <ele>2299</ele>
        <time>2021-04-08T08:15:19Z</time>
      </trkpt>
      <trkpt lat="44.45219" lon="6.56506">
        <ele>2299</ele>
        <time>2021-04-08T08:15:20Z</time>
      </trkpt>
      <trkpt lat="44.45218" lon="6.56506">
        <ele>2299</ele>
        <time>2021-04-08T08:15:21Z</time>
      </trkpt>
      <trkpt lat="44.45218" lon="6.56506">
        <ele>2300</ele>
        <time>2021-04-08T08:15:22Z</time>
      </trkpt>
      <trkpt lat="44.45218" lon="6.56506">
        <ele>2300</ele>
        <time>2021-04-08T08:15:23Z</time>
      </trkpt>
      <trkpt lat="44.45217" lon="6.56507">
        <ele>2300</ele>
        <time>2021-04-08T08:15:24Z</time>
      </trkpt>
      <trkpt lat="44.45217" lon="6.56507">
        <ele>2300</ele>
        <time>2021-04-08T08:15:25Z</time>
      </trkpt>
      <trkpt lat="44.45216" lon="6.56508">
        <ele>2300</ele>
        <time>2021-04-08T08:15:26Z</time>
      </trkpt>
      <trkpt lat="44.45215" lon="6.56508">
        <ele>2299</ele>
        <time>2021-04-08T08:15:27Z</time>
      </trkpt>
      <trkpt lat="44.45215" lon="6.56508">
        <ele>2299</ele>
        <time>2021-04-08T08:15:28Z</time>
      </trkpt>
      <trkpt lat="44.45214" lon="6.56508">
        <ele>2299</ele>
        <time>2021-04-08T08:15:29Z</time>
      </trkpt>
      <trkpt lat="44.45213" lon="6.56508">
        <ele>2299</ele>
        <time>2021-04-08T08:15:30Z</time>
      </trkpt>
      <trkpt lat="44.45212" lon="6.56508">
        <ele>2299</ele>
        <time>2021-04-08T08:15:31Z</time>
      </trkpt>
      <trkpt lat="44.45211" lon="6.56508">
        <ele>2299</ele>
        <time>2021-04-08T08:15:32Z</time>
      </trkpt>
      <trkpt lat="44.4521" lon="6.56508">
        <ele>2299</ele>
        <time>2021-04-08T08:15:33Z</time>
      </trkpt>
      <trkpt lat="44.4521" lon="6.56508">
        <ele>2299</ele>
        <time>2021-04-08T08:15:34Z</time>
      </trkpt>
      <trkpt lat="44.45209" lon="6.56508">
        <ele>2299</ele>
        <time>2021-04-08T08:15:35Z</time>
      </trkpt>
      <trkpt lat="44.45208" lon="6.56508">
        <ele>2299</ele>
        <time>2021-04-08T08:15:36Z</time>
      </trkpt>
      <trkpt lat="44.45207" lon="6.56508">
        <ele>2298</ele>
        <time>2021-04-08T08:15:37Z</time>
      </trkpt>
      <trkpt lat="44.45207" lon="6.56508">
        <ele>2298</ele>
        <time>2021-04-08T08:15:38Z</time>
      </trkpt>
      <trkpt lat="44.45206" lon="6.56508">
        <ele>2298</ele>
        <time>2021-04-08T08:15:39Z</time>
      </trkpt>
      <trkpt lat="44.45206" lon="6.56508">
        <ele>2298</ele>
        <time>2021-04-08T08:15:40Z</time>
      </trkpt>
      <trkpt lat="44.45205" lon="6.56508">
        <ele>2298</ele>
        <time>2021-04-08T08:15:41Z</time>
      </trkpt>
      <trkpt lat="44.45204" lon="6.56508">
        <ele>2298</ele>
        <time>2021-04-08T08:15:42Z</time>
      </trkpt>
      <trkpt lat="44.45204" lon="6.56508">
        <ele>2298</ele>
        <time>2021-04-08T08:15:43Z</time>
      </trkpt>
      <trkpt lat="44.45204" lon="6.56508">
        <ele>2298</ele>
        <time>2021-04-08T08:15:44Z</time>
      </trkpt>
      <trkpt lat="44.45204" lon="6.56508">
        <ele>2298</ele>
        <time>2021-04-08T08:15:45Z</time>
      </trkpt>
      <trkpt lat="44.45203" lon="6.56508">
        <ele>2298</ele>
        <time>2021-04-08T08:15:46Z</time>
      </trkpt>
      <trkpt lat="44.45203" lon="6.56508">
        <ele>2298</ele>
        <time>2021-04-08T08:15:47Z</time>
      </trkpt>
      <trkpt lat="44.45203" lon="6.56508">
        <ele>2298</ele>
        <time>2021-04-08T08:15:48Z</time>
      </trkpt>
      <trkpt lat="44.45202" lon="6.56508">
        <ele>2298</ele>
        <time>2021-04-08T08:15:49Z</time>
      </trkpt>
      <trkpt lat="44.45202" lon="6.56508">
        <ele>2298</ele>
        <time>2021-04-08T08:15:50Z</time>
      </trkpt>
      <trkpt lat="44.45202" lon="6.56509">
        <ele>2298</ele>
        <time>2021-04-08T08:15:51Z</time>
      </trkpt>
      <trkpt lat="44.45201" lon="6.56509">
        <ele>2299</ele>
        <time>2021-04-08T08:15:52Z</time>
      </trkpt>
      <trkpt lat="44.452" lon="6.5651">
        <ele>2299</ele>
        <time>2021-04-08T08:15:53Z</time>
      </trkpt>
      <trkpt lat="44.452" lon="6.5651">
        <ele>2299</ele>
        <time>2021-04-08T08:15:54Z</time>
      </trkpt>
      <trkpt lat="44.45199" lon="6.5651">
        <ele>2300</ele>
        <time>2021-04-08T08:15:55Z</time>
      </trkpt>
      <trkpt lat="44.45198" lon="6.5651">
        <ele>2300</ele>
        <time>2021-04-08T08:15:56Z</time>
      </trkpt>
      <trkpt lat="44.45198" lon="6.5651">
        <ele>2300</ele>
        <time>2021-04-08T08:15:57Z</time>
      </trkpt>
      <trkpt lat="44.45197" lon="6.5651">
        <ele>2300</ele>
        <time>2021-04-08T08:15:58Z</time>
      </trkpt>
      <trkpt lat="44.45197" lon="6.5651">
        <ele>2300</ele>
        <time>2021-04-08T08:15:59Z</time>
      </trkpt>
      <trkpt lat="44.45197" lon="6.56511">
        <ele>2301</ele>
        <time>2021-04-08T08:16:00Z</time>
      </trkpt>
      <trkpt lat="44.45196" lon="6.56511">
        <ele>2301</ele>
        <time>2021-04-08T08:16:01Z</time>
      </trkpt>
      <trkpt lat="44.45196" lon="6.56511">
        <ele>2301</ele>
        <time>2021-04-08T08:16:02Z</time>
      </trkpt>
      <trkpt lat="44.45195" lon="6.5651">
        <ele>2301</ele>
        <time>2021-04-08T08:16:03Z</time>
      </trkpt>
      <trkpt lat="44.45195" lon="6.5651">
        <ele>2301</ele>
        <time>2021-04-08T08:16:04Z</time>
      </trkpt>
      <trkpt lat="44.45194" lon="6.5651">
        <ele>2301</ele>
        <time>2021-04-08T08:16:05Z</time>
      </trkpt>
      <trkpt lat="44.45194" lon="6.5651">
        <ele>2302</ele>
        <time>2021-04-08T08:16:06Z</time>
      </trkpt>
      <trkpt lat="44.45193" lon="6.5651">
        <ele>2302</ele>
        <time>2021-04-08T08:16:07Z</time>
      </trkpt>
      <trkpt lat="44.45192" lon="6.5651">
        <ele>2303</ele>
        <time>2021-04-08T08:16:08Z</time>
      </trkpt>
      <trkpt lat="44.45191" lon="6.5651">
        <ele>2303</ele>
        <time>2021-04-08T08:16:09Z</time>
      </trkpt>
      <trkpt lat="44.45191" lon="6.5651">
        <ele>2303</ele>
        <time>2021-04-08T08:16:10Z</time>
      </trkpt>
      <trkpt lat="44.4519" lon="6.5651">
        <ele>2304</ele>
        <time>2021-04-08T08:16:11Z</time>
      </trkpt>
      <trkpt lat="44.4519" lon="6.56511">
        <ele>2304</ele>
        <time>2021-04-08T08:16:12Z</time>
      </trkpt>
      <trkpt lat="44.4519" lon="6.56511">
        <ele>2304</ele>
        <time>2021-04-08T08:16:13Z</time>
      </trkpt>
      <trkpt lat="44.45188" lon="6.56511">
        <ele>2304</ele>
        <time>2021-04-08T08:16:14Z</time>
      </trkpt>
      <trkpt lat="44.45188" lon="6.56512">
        <ele>2304</ele>
        <time>2021-04-08T08:16:15Z</time>
      </trkpt>
      <trkpt lat="44.45187" lon="6.56512">
        <ele>2305</ele>
        <time>2021-04-08T08:16:16Z</time>
      </trkpt>
      <trkpt lat="44.45187" lon="6.56513">
        <ele>2306</ele>
        <time>2021-04-08T08:16:17Z</time>
      </trkpt>
      <trkpt lat="44.45187" lon="6.56513">
        <ele>2306</ele>
        <time>2021-04-08T08:16:18Z</time>
      </trkpt>
      <trkpt lat="44.45187" lon="6.56513">
        <ele>2306</ele>
        <time>2021-04-08T08:16:19Z</time>
      </trkpt>
      <trkpt lat="44.45187" lon="6.56513">
        <ele>2306</ele>
        <time>2021-04-08T08:16:20Z</time>
      </trkpt>
      <trkpt lat="44.45187" lon="6.56513">
        <ele>2307</ele>
        <time>2021-04-08T08:16:21Z</time>
      </trkpt>
      <trkpt lat="44.45187" lon="6.56513">
        <ele>2307</ele>
        <time>2021-04-08T08:16:22Z</time>
      </trkpt>
      <trkpt lat="44.45187" lon="6.56513">
        <ele>2307</ele>
        <time>2021-04-08T08:16:23Z</time>
      </trkpt>
      <trkpt lat="44.45188" lon="6.56513">
        <ele>2307</ele>
        <time>2021-04-08T08:16:24Z</time>
      </trkpt>
      <trkpt lat="44.45188" lon="6.56514">
        <ele>2307</ele>
        <time>2021-04-08T08:16:25Z</time>
      </trkpt>
      <trkpt lat="44.45188" lon="6.56514">
        <ele>2307</ele>
        <time>2021-04-08T08:16:26Z</time>
      </trkpt>
      <trkpt lat="44.45188" lon="6.56515">
        <ele>2307</ele>
        <time>2021-04-08T08:16:27Z</time>
      </trkpt>
      <trkpt lat="44.45189" lon="6.56516">
        <ele>2307</ele>
        <time>2021-04-08T08:16:28Z</time>
      </trkpt>
      <trkpt lat="44.45189" lon="6.56516">
        <ele>2308</ele>
        <time>2021-04-08T08:16:29Z</time>
      </trkpt>
      <trkpt lat="44.4519" lon="6.56516">
        <ele>2308</ele>
        <time>2021-04-08T08:16:30Z</time>
      </trkpt>
      <trkpt lat="44.4519" lon="6.56517">
        <ele>2309</ele>
        <time>2021-04-08T08:16:31Z</time>
      </trkpt>
      <trkpt lat="44.45191" lon="6.56517">
        <ele>2309</ele>
        <time>2021-04-08T08:16:32Z</time>
      </trkpt>
      <trkpt lat="44.45191" lon="6.56517">
        <ele>2309</ele>
        <time>2021-04-08T08:16:33Z</time>
      </trkpt>
      <trkpt lat="44.45191" lon="6.56517">
        <ele>2309</ele>
        <time>2021-04-08T08:16:34Z</time>
      </trkpt>
      <trkpt lat="44.45192" lon="6.56518">
        <ele>2309</ele>
        <time>2021-04-08T08:16:35Z</time>
      </trkpt>
      <trkpt lat="44.45192" lon="6.56519">
        <ele>2310</ele>
        <time>2021-04-08T08:16:36Z</time>
      </trkpt>
      <trkpt lat="44.45193" lon="6.56519">
        <ele>2310</ele>
        <time>2021-04-08T08:16:37Z</time>
      </trkpt>
      <trkpt lat="44.45194" lon="6.5652">
        <ele>2310</ele>
        <time>2021-04-08T08:16:38Z</time>
      </trkpt>
      <trkpt lat="44.45195" lon="6.5652">
        <ele>2310</ele>
        <time>2021-04-08T08:16:39Z</time>
      </trkpt>
      <trkpt lat="44.45196" lon="6.56522">
        <ele>2310</ele>
        <time>2021-04-08T08:16:40Z</time>
      </trkpt>
      <trkpt lat="44.45196" lon="6.56523">
        <ele>2310</ele>
        <time>2021-04-08T08:16:41Z</time>
      </trkpt>
      <trkpt lat="44.45197" lon="6.56524">
        <ele>2310</ele>
        <time>2021-04-08T08:16:42Z</time>
      </trkpt>
      <trkpt lat="44.45197" lon="6.56525">
        <ele>2311</ele>
        <time>2021-04-08T08:16:43Z</time>
      </trkpt>
      <trkpt lat="44.45197" lon="6.56526">
        <ele>2311</ele>
        <time>2021-04-08T08:16:44Z</time>
      </trkpt>
      <trkpt lat="44.45197" lon="6.56526">
        <ele>2311</ele>
        <time>2021-04-08T08:16:45Z</time>
      </trkpt>
      <trkpt lat="44.45198" lon="6.56526">
        <ele>2311</ele>
        <time>2021-04-08T08:16:46Z</time>
      </trkpt>
      <trkpt lat="44.45199" lon="6.56526">
        <ele>2311</ele>
        <time>2021-04-08T08:16:47Z</time>
      </trkpt>
      <trkpt lat="44.45199" lon="6.56526">
        <ele>2311</ele>
        <time>2021-04-08T08:16:48Z</time>
      </trkpt>
      <trkpt lat="44.452" lon="6.56527">
        <ele>2312</ele>
        <time>2021-04-08T08:16:49Z</time>
      </trkpt>
      <trkpt lat="44.45201" lon="6.56528">
        <ele>2312</ele>
        <time>2021-04-08T08:16:50Z</time>
      </trkpt>
      <trkpt lat="44.45202" lon="6.56529">
        <ele>2312</ele>
        <time>2021-04-08T08:16:51Z</time>
      </trkpt>
      <trkpt lat="44.45202" lon="6.56531">
        <ele>2313</ele>
        <time>2021-04-08T08:16:52Z</time>
      </trkpt>
      <trkpt lat="44.45203" lon="6.56532">
        <ele>2313</ele>
        <time>2021-04-08T08:16:53Z</time>
      </trkpt>
      <trkpt lat="44.45203" lon="6.56532">
        <ele>2313</ele>
        <time>2021-04-08T08:16:54Z</time>
      </trkpt>
      <trkpt lat="44.45203" lon="6.56532">
        <ele>2313</ele>
        <time>2021-04-08T08:16:55Z</time>
      </trkpt>
      <trkpt lat="44.45204" lon="6.56532">
        <ele>2313</ele>
        <time>2021-04-08T08:16:56Z</time>
      </trkpt>
      <trkpt lat="44.45205" lon="6.56533">
        <ele>2313</ele>
        <time>2021-04-08T08:16:57Z</time>
      </trkpt>
      <trkpt lat="44.45206" lon="6.56534">
        <ele>2314</ele>
        <time>2021-04-08T08:16:58Z</time>
      </trkpt>
      <trkpt lat="44.45206" lon="6.56534">
        <ele>2314</ele>
        <time>2021-04-08T08:16:59Z</time>
      </trkpt>
      <trkpt lat="44.45207" lon="6.56535">
        <ele>2314</ele>
        <time>2021-04-08T08:17:00Z</time>
      </trkpt>
      <trkpt lat="44.45208" lon="6.56535">
        <ele>2314</ele>
        <time>2021-04-08T08:17:01Z</time>
      </trkpt>
      <trkpt lat="44.45209" lon="6.56535">
        <ele>2314</ele>
        <time>2021-04-08T08:17:02Z</time>
      </trkpt>
      <trkpt lat="44.45209" lon="6.56536">
        <ele>2314</ele>
        <time>2021-04-08T08:17:03Z</time>
      </trkpt>
      <trkpt lat="44.45209" lon="6.56536">
        <ele>2314</ele>
        <time>2021-04-08T08:17:04Z</time>
      </trkpt>
      <trkpt lat="44.45209" lon="6.56535">
        <ele>2314</ele>
        <time>2021-04-08T08:17:05Z</time>
      </trkpt>
      <trkpt lat="44.45209" lon="6.56535">
        <ele>2314</ele>
        <time>2021-04-08T08:17:06Z</time>
      </trkpt>
      <trkpt lat="44.45209" lon="6.56535">
        <ele>2314</ele>
        <time>2021-04-08T08:17:07Z</time>
      </trkpt>
      <trkpt lat="44.45209" lon="6.56535">
        <ele>2315</ele>
        <time>2021-04-08T08:17:08Z</time>
      </trkpt>
      <trkpt lat="44.45208" lon="6.56536">
        <ele>2315</ele>
        <time>2021-04-08T08:17:09Z</time>
      </trkpt>
      <trkpt lat="44.45207" lon="6.56537">
        <ele>2315</ele>
        <time>2021-04-08T08:17:10Z</time>
      </trkpt>
      <trkpt lat="44.45206" lon="6.56538">
        <ele>2315</ele>
        <time>2021-04-08T08:17:11Z</time>
      </trkpt>
      <trkpt lat="44.45206" lon="6.56538">
        <ele>2316</ele>
        <time>2021-04-08T08:17:12Z</time>
      </trkpt>
      <trkpt lat="44.45205" lon="6.56538">
        <ele>2316</ele>
        <time>2021-04-08T08:17:13Z</time>
      </trkpt>
      <trkpt lat="44.45204" lon="6.56538">
        <ele>2316</ele>
        <time>2021-04-08T08:17:14Z</time>
      </trkpt>
      <trkpt lat="44.45204" lon="6.56538">
        <ele>2317</ele>
        <time>2021-04-08T08:17:15Z</time>
      </trkpt>
      <trkpt lat="44.45204" lon="6.56539">
        <ele>2317</ele>
        <time>2021-04-08T08:17:16Z</time>
      </trkpt>
      <trkpt lat="44.45203" lon="6.56539">
        <ele>2317</ele>
        <time>2021-04-08T08:17:17Z</time>
      </trkpt>
      <trkpt lat="44.45203" lon="6.56539">
        <ele>2317</ele>
        <time>2021-04-08T08:17:18Z</time>
      </trkpt>
      <trkpt lat="44.45203" lon="6.5654">
        <ele>2317</ele>
        <time>2021-04-08T08:17:19Z</time>
      </trkpt>
      <trkpt lat="44.45202" lon="6.5654">
        <ele>2317</ele>
        <time>2021-04-08T08:17:20Z</time>
      </trkpt>
      <trkpt lat="44.45201" lon="6.5654">
        <ele>2317</ele>
        <time>2021-04-08T08:17:21Z</time>
      </trkpt>
      <trkpt lat="44.45201" lon="6.5654">
        <ele>2318</ele>
        <time>2021-04-08T08:17:22Z</time>
      </trkpt>
      <trkpt lat="44.452" lon="6.5654">
        <ele>2318</ele>
        <time>2021-04-08T08:17:23Z</time>
      </trkpt>
      <trkpt lat="44.45199" lon="6.56541">
        <ele>2318</ele>
        <time>2021-04-08T08:17:24Z</time>
      </trkpt>
      <trkpt lat="44.45199" lon="6.56541">
        <ele>2318</ele>
        <time>2021-04-08T08:17:25Z</time>
      </trkpt>
      <trkpt lat="44.45198" lon="6.56542">
        <ele>2319</ele>
        <time>2021-04-08T08:17:26Z</time>
      </trkpt>
      <trkpt lat="44.45197" lon="6.56542">
        <ele>2319</ele>
        <time>2021-04-08T08:17:27Z</time>
      </trkpt>
      <trkpt lat="44.45196" lon="6.56542">
        <ele>2320</ele>
        <time>2021-04-08T08:17:28Z</time>
      </trkpt>
      <trkpt lat="44.45196" lon="6.56542">
        <ele>2320</ele>
        <time>2021-04-08T08:17:29Z</time>
      </trkpt>
      <trkpt lat="44.45195" lon="6.56543">
        <ele>2321</ele>
        <time>2021-04-08T08:17:30Z</time>
      </trkpt>
      <trkpt lat="44.45194" lon="6.56543">
        <ele>2321</ele>
        <time>2021-04-08T08:17:31Z</time>
      </trkpt>
      <trkpt lat="44.45194" lon="6.56543">
        <ele>2322</ele>
        <time>2021-04-08T08:17:32Z</time>
      </trkpt>
      <trkpt lat="44.45194" lon="6.56543">
        <ele>2322</ele>
        <time>2021-04-08T08:17:33Z</time>
      </trkpt>
      <trkpt lat="44.45193" lon="6.56544">
        <ele>2322</ele>
        <time>2021-04-08T08:17:34Z</time>
      </trkpt>
      <trkpt lat="44.45193" lon="6.56544">
        <ele>2322</ele>
        <time>2021-04-08T08:17:35Z</time>
      </trkpt>
      <trkpt lat="44.45193" lon="6.56544">
        <ele>2322</ele>
        <time>2021-04-08T08:17:36Z</time>
      </trkpt>
      <trkpt lat="44.45192" lon="6.56544">
        <ele>2323</ele>
        <time>2021-04-08T08:17:37Z</time>
      </trkpt>
      <trkpt lat="44.45192" lon="6.56544">
        <ele>2323</ele>
        <time>2021-04-08T08:17:38Z</time>
      </trkpt>
      <trkpt lat="44.45191" lon="6.56545">
        <ele>2323</ele>
        <time>2021-04-08T08:17:39Z</time>
      </trkpt>
      <trkpt lat="44.4519" lon="6.56545">
        <ele>2324</ele>
        <time>2021-04-08T08:17:40Z</time>
      </trkpt>
      <trkpt lat="44.4519" lon="6.56545">
        <ele>2324</ele>
        <time>2021-04-08T08:17:41Z</time>
      </trkpt>
      <trkpt lat="44.45189" lon="6.56545">
        <ele>2324</ele>
        <time>2021-04-08T08:17:42Z</time>
      </trkpt>
      <trkpt lat="44.45188" lon="6.56545">
        <ele>2324</ele>
        <time>2021-04-08T08:17:43Z</time>
      </trkpt>
      <trkpt lat="44.45188" lon="6.56546">
        <ele>2325</ele>
        <time>2021-04-08T08:17:44Z</time>
      </trkpt>
      <trkpt lat="44.45187" lon="6.56546">
        <ele>2325</ele>
        <time>2021-04-08T08:17:45Z</time>
      </trkpt>
      <trkpt lat="44.45187" lon="6.56546">
        <ele>2325</ele>
        <time>2021-04-08T08:17:46Z</time>
      </trkpt>
      <trkpt lat="44.45186" lon="6.56546">
        <ele>2325</ele>
        <time>2021-04-08T08:17:47Z</time>
      </trkpt>
      <trkpt lat="44.45185" lon="6.56546">
        <ele>2326</ele>
        <time>2021-04-08T08:17:48Z</time>
      </trkpt>
      <trkpt lat="44.45185" lon="6.56546">
        <ele>2326</ele>
        <time>2021-04-08T08:17:49Z</time>
      </trkpt>
      <trkpt lat="44.45185" lon="6.56546">
        <ele>2326</ele>
        <time>2021-04-08T08:17:50Z</time>
      </trkpt>
      <trkpt lat="44.45184" lon="6.56547">
        <ele>2326</ele>
        <time>2021-04-08T08:17:51Z</time>
      </trkpt>
      <trkpt lat="44.45184" lon="6.56547">
        <ele>2326</ele>
        <time>2021-04-08T08:17:52Z</time>
      </trkpt>
      <trkpt lat="44.45183" lon="6.56547">
        <ele>2327</ele>
        <time>2021-04-08T08:17:53Z</time>
      </trkpt>
      <trkpt lat="44.45183" lon="6.56547">
        <ele>2327</ele>
        <time>2021-04-08T08:17:54Z</time>
      </trkpt>
      <trkpt lat="44.45182" lon="6.56547">
        <ele>2328</ele>
        <time>2021-04-08T08:17:55Z</time>
      </trkpt>
      <trkpt lat="44.45182" lon="6.56548">
        <ele>2328</ele>
        <time>2021-04-08T08:17:56Z</time>
      </trkpt>
      <trkpt lat="44.45181" lon="6.56548">
        <ele>2328</ele>
        <time>2021-04-08T08:17:57Z</time>
      </trkpt>
      <trkpt lat="44.45181" lon="6.56548">
        <ele>2328</ele>
        <time>2021-04-08T08:17:58Z</time>
      </trkpt>
      <trkpt lat="44.4518" lon="6.56549">
        <ele>2329</ele>
        <time>2021-04-08T08:17:59Z</time>
      </trkpt>
      <trkpt lat="44.4518" lon="6.56549">
        <ele>2329</ele>
        <time>2021-04-08T08:18:00Z</time>
      </trkpt>
      <trkpt lat="44.45179" lon="6.56549">
        <ele>2329</ele>
        <time>2021-04-08T08:18:01Z</time>
      </trkpt>
      <trkpt lat="44.45179" lon="6.56549">
        <ele>2329</ele>
        <time>2021-04-08T08:18:02Z</time>
      </trkpt>
      <trkpt lat="44.45179" lon="6.56549">
        <ele>2329</ele>
        <time>2021-04-08T08:18:03Z</time>
      </trkpt>
      <trkpt lat="44.45179" lon="6.56549">
        <ele>2329</ele>
        <time>2021-04-08T08:18:04Z</time>
      </trkpt>
      <trkpt lat="44.45179" lon="6.56549">
        <ele>2329</ele>
        <time>2021-04-08T08:18:05Z</time>
      </trkpt>
      <trkpt lat="44.45179" lon="6.5655">
        <ele>2330</ele>
        <time>2021-04-08T08:18:06Z</time>
      </trkpt>
      <trkpt lat="44.4518" lon="6.5655">
        <ele>2330</ele>
        <time>2021-04-08T08:18:07Z</time>
      </trkpt>
      <trkpt lat="44.4518" lon="6.5655">
        <ele>2330</ele>
        <time>2021-04-08T08:18:08Z</time>
      </trkpt>
      <trkpt lat="44.45181" lon="6.56551">
        <ele>2330</ele>
        <time>2021-04-08T08:18:09Z</time>
      </trkpt>
      <trkpt lat="44.45182" lon="6.56551">
        <ele>2330</ele>
        <time>2021-04-08T08:18:10Z</time>
      </trkpt>
      <trkpt lat="44.45183" lon="6.56552">
        <ele>2329</ele>
        <time>2021-04-08T08:18:11Z</time>
      </trkpt>
      <trkpt lat="44.45183" lon="6.56553">
        <ele>2329</ele>
        <time>2021-04-08T08:18:12Z</time>
      </trkpt>
      <trkpt lat="44.45184" lon="6.56553">
        <ele>2329</ele>
        <time>2021-04-08T08:18:13Z</time>
      </trkpt>
      <trkpt lat="44.45184" lon="6.56554">
        <ele>2329</ele>
        <time>2021-04-08T08:18:14Z</time>
      </trkpt>
      <trkpt lat="44.45185" lon="6.56554">
        <ele>2329</ele>
        <time>2021-04-08T08:18:15Z</time>
      </trkpt>
      <trkpt lat="44.45185" lon="6.56554">
        <ele>2329</ele>
        <time>2021-04-08T08:18:16Z</time>
      </trkpt>
      <trkpt lat="44.45185" lon="6.56555">
        <ele>2329</ele>
        <time>2021-04-08T08:18:17Z</time>
      </trkpt>
      <trkpt lat="44.45185" lon="6.56555">
        <ele>2329</ele>
        <time>2021-04-08T08:18:18Z</time>
      </trkpt>
      <trkpt lat="44.45186" lon="6.56556">
        <ele>2329</ele>
        <time>2021-04-08T08:18:19Z</time>
      </trkpt>
      <trkpt lat="44.45187" lon="6.56556">
        <ele>2329</ele>
        <time>2021-04-08T08:18:20Z</time>
      </trkpt>
      <trkpt lat="44.45188" lon="6.56557">
        <ele>2329</ele>
        <time>2021-04-08T08:18:21Z</time>
      </trkpt>
      <trkpt lat="44.45188" lon="6.56558">
        <ele>2328</ele>
        <time>2021-04-08T08:18:22Z</time>
      </trkpt>
      <trkpt lat="44.45189" lon="6.56559">
        <ele>2329</ele>
        <time>2021-04-08T08:18:23Z</time>
      </trkpt>
      <trkpt lat="44.45189" lon="6.56559">
        <ele>2329</ele>
        <time>2021-04-08T08:18:24Z</time>
      </trkpt>
      <trkpt lat="44.4519" lon="6.5656">
        <ele>2329</ele>
        <time>2021-04-08T08:18:25Z</time>
      </trkpt>
      <trkpt lat="44.4519" lon="6.5656">
        <ele>2329</ele>
        <time>2021-04-08T08:18:26Z</time>
      </trkpt>
      <trkpt lat="44.4519" lon="6.5656">
        <ele>2329</ele>
        <time>2021-04-08T08:18:27Z</time>
      </trkpt>
      <trkpt lat="44.45191" lon="6.5656">
        <ele>2329</ele>
        <time>2021-04-08T08:18:28Z</time>
      </trkpt>
      <trkpt lat="44.45191" lon="6.56561">
        <ele>2329</ele>
        <time>2021-04-08T08:18:29Z</time>
      </trkpt>
      <trkpt lat="44.45192" lon="6.56562">
        <ele>2329</ele>
        <time>2021-04-08T08:18:30Z</time>
      </trkpt>
      <trkpt lat="44.45192" lon="6.56563">
        <ele>2329</ele>
        <time>2021-04-08T08:18:31Z</time>
      </trkpt>
      <trkpt lat="44.45192" lon="6.56564">
        <ele>2329</ele>
        <time>2021-04-08T08:18:32Z</time>
      </trkpt>
      <trkpt lat="44.45193" lon="6.56564">
        <ele>2329</ele>
        <time>2021-04-08T08:18:33Z</time>
      </trkpt>
      <trkpt lat="44.45193" lon="6.56565">
        <ele>2330</ele>
        <time>2021-04-08T08:18:34Z</time>
      </trkpt>
      <trkpt lat="44.45194" lon="6.56566">
        <ele>2330</ele>
        <time>2021-04-08T08:18:35Z</time>
      </trkpt>
      <trkpt lat="44.45193" lon="6.56566">
        <ele>2331</ele>
        <time>2021-04-08T08:18:36Z</time>
      </trkpt>
      <trkpt lat="44.45192" lon="6.56567">
        <ele>2331</ele>
        <time>2021-04-08T08:18:37Z</time>
      </trkpt>
      <trkpt lat="44.45192" lon="6.56567">
        <ele>2331</ele>
        <time>2021-04-08T08:18:38Z</time>
      </trkpt>
      <trkpt lat="44.45191" lon="6.56568">
        <ele>2331</ele>
        <time>2021-04-08T08:18:39Z</time>
      </trkpt>
      <trkpt lat="44.45191" lon="6.56568">
        <ele>2331</ele>
        <time>2021-04-08T08:18:40Z</time>
      </trkpt>
      <trkpt lat="44.4519" lon="6.56568">
        <ele>2332</ele>
        <time>2021-04-08T08:18:41Z</time>
      </trkpt>
      <trkpt lat="44.45189" lon="6.56568">
        <ele>2332</ele>
        <time>2021-04-08T08:18:42Z</time>
      </trkpt>
      <trkpt lat="44.45189" lon="6.56568">
        <ele>2332</ele>
        <time>2021-04-08T08:18:43Z</time>
      </trkpt>
      <trkpt lat="44.45188" lon="6.56568">
        <ele>2333</ele>
        <time>2021-04-08T08:18:44Z</time>
      </trkpt>
      <trkpt lat="44.45187" lon="6.56568">
        <ele>2333</ele>
        <time>2021-04-08T08:18:45Z</time>
      </trkpt>
      <trkpt lat="44.45187" lon="6.56569">
        <ele>2334</ele>
        <time>2021-04-08T08:18:46Z</time>
      </trkpt>
      <trkpt lat="44.45186" lon="6.56569">
        <ele>2334</ele>
        <time>2021-04-08T08:18:47Z</time>
      </trkpt>
      <trkpt lat="44.45185" lon="6.56568">
        <ele>2335</ele>
        <time>2021-04-08T08:18:48Z</time>
      </trkpt>
      <trkpt lat="44.45185" lon="6.56568">
        <ele>2335</ele>
        <time>2021-04-08T08:18:49Z</time>
      </trkpt>
      <trkpt lat="44.45185" lon="6.56568">
        <ele>2335</ele>
        <time>2021-04-08T08:18:50Z</time>
      </trkpt>
      <trkpt lat="44.45184" lon="6.56569">
        <ele>2335</ele>
        <time>2021-04-08T08:18:51Z</time>
      </trkpt>
      <trkpt lat="44.45183" lon="6.56569">
        <ele>2337</ele>
        <time>2021-04-08T08:18:52Z</time>
      </trkpt>
      <trkpt lat="44.45183" lon="6.56569">
        <ele>2337</ele>
        <time>2021-04-08T08:18:53Z</time>
      </trkpt>
      <trkpt lat="44.45183" lon="6.56569">
        <ele>2337</ele>
        <time>2021-04-08T08:18:54Z</time>
      </trkpt>
      <trkpt lat="44.45182" lon="6.56569">
        <ele>2338</ele>
        <time>2021-04-08T08:18:55Z</time>
      </trkpt>
      <trkpt lat="44.45181" lon="6.56569">
        <ele>2338</ele>
        <time>2021-04-08T08:18:56Z</time>
      </trkpt>
      <trkpt lat="44.45181" lon="6.56569">
        <ele>2338</ele>
        <time>2021-04-08T08:18:57Z</time>
      </trkpt>
      <trkpt lat="44.4518" lon="6.56568">
        <ele>2339</ele>
        <time>2021-04-08T08:18:58Z</time>
      </trkpt>
      <trkpt lat="44.45179" lon="6.56568">
        <ele>2340</ele>
        <time>2021-04-08T08:18:59Z</time>
      </trkpt>
      <trkpt lat="44.45179" lon="6.56569">
        <ele>2340</ele>
        <time>2021-04-08T08:19:00Z</time>
      </trkpt>
      <trkpt lat="44.45179" lon="6.56569">
        <ele>2340</ele>
        <time>2021-04-08T08:19:01Z</time>
      </trkpt>
      <trkpt lat="44.45178" lon="6.56569">
        <ele>2340</ele>
        <time>2021-04-08T08:19:02Z</time>
      </trkpt>
      <trkpt lat="44.45178" lon="6.5657">
        <ele>2340</ele>
        <time>2021-04-08T08:19:03Z</time>
      </trkpt>
      <trkpt lat="44.45177" lon="6.5657">
        <ele>2341</ele>
        <time>2021-04-08T08:19:04Z</time>
      </trkpt>
      <trkpt lat="44.45176" lon="6.5657">
        <ele>2341</ele>
        <time>2021-04-08T08:19:05Z</time>
      </trkpt>
      <trkpt lat="44.45176" lon="6.5657">
        <ele>2341</ele>
        <time>2021-04-08T08:19:06Z</time>
      </trkpt>
      <trkpt lat="44.45175" lon="6.5657">
        <ele>2341</ele>
        <time>2021-04-08T08:19:07Z</time>
      </trkpt>
      <trkpt lat="44.45174" lon="6.5657">
        <ele>2342</ele>
        <time>2021-04-08T08:19:08Z</time>
      </trkpt>
      <trkpt lat="44.45174" lon="6.56571">
        <ele>2342</ele>
        <time>2021-04-08T08:19:09Z</time>
      </trkpt>
      <trkpt lat="44.45173" lon="6.56571">
        <ele>2342</ele>
        <time>2021-04-08T08:19:10Z</time>
      </trkpt>
      <trkpt lat="44.45173" lon="6.56571">
        <ele>2342</ele>
        <time>2021-04-08T08:19:11Z</time>
      </trkpt>
      <trkpt lat="44.45172" lon="6.56571">
        <ele>2342</ele>
        <time>2021-04-08T08:19:12Z</time>
      </trkpt>
      <trkpt lat="44.45172" lon="6.56571">
        <ele>2342</ele>
        <time>2021-04-08T08:19:13Z</time>
      </trkpt>
      <trkpt lat="44.45172" lon="6.56571">
        <ele>2342</ele>
        <time>2021-04-08T08:19:14Z</time>
      </trkpt>
      <trkpt lat="44.45172" lon="6.56571">
        <ele>2342</ele>
        <time>2021-04-08T08:19:15Z</time>
      </trkpt>
      <trkpt lat="44.45171" lon="6.56571">
        <ele>2343</ele>
        <time>2021-04-08T08:19:16Z</time>
      </trkpt>
      <trkpt lat="44.45171" lon="6.56572">
        <ele>2343</ele>
        <time>2021-04-08T08:19:17Z</time>
      </trkpt>
      <trkpt lat="44.4517" lon="6.56572">
        <ele>2343</ele>
        <time>2021-04-08T08:19:18Z</time>
      </trkpt>
      <trkpt lat="44.4517" lon="6.56571">
        <ele>2344</ele>
        <time>2021-04-08T08:19:19Z</time>
      </trkpt>
      <trkpt lat="44.4517" lon="6.56571">
        <ele>2344</ele>
        <time>2021-04-08T08:19:20Z</time>
      </trkpt>
      <trkpt lat="44.45169" lon="6.56571">
        <ele>2344</ele>
        <time>2021-04-08T08:19:21Z</time>
      </trkpt>
      <trkpt lat="44.45168" lon="6.56571">
        <ele>2344</ele>
        <time>2021-04-08T08:19:22Z</time>
      </trkpt>
      <trkpt lat="44.45168" lon="6.56571">
        <ele>2344</ele>
        <time>2021-04-08T08:19:23Z</time>
      </trkpt>
      <trkpt lat="44.45167" lon="6.56571">
        <ele>2345</ele>
        <time>2021-04-08T08:19:24Z</time>
      </trkpt>
      <trkpt lat="44.45167" lon="6.56571">
        <ele>2345</ele>
        <time>2021-04-08T08:19:25Z</time>
      </trkpt>
      <trkpt lat="44.45166" lon="6.56571">
        <ele>2345</ele>
        <time>2021-04-08T08:19:26Z</time>
      </trkpt>
      <trkpt lat="44.45166" lon="6.56571">
        <ele>2345</ele>
        <time>2021-04-08T08:19:27Z</time>
      </trkpt>
      <trkpt lat="44.45165" lon="6.56571">
        <ele>2345</ele>
        <time>2021-04-08T08:19:28Z</time>
      </trkpt>
      <trkpt lat="44.45164" lon="6.56571">
        <ele>2346</ele>
        <time>2021-04-08T08:19:29Z</time>
      </trkpt>
      <trkpt lat="44.45164" lon="6.5657">
        <ele>2346</ele>
        <time>2021-04-08T08:19:30Z</time>
      </trkpt>
      <trkpt lat="44.45163" lon="6.5657">
        <ele>2346</ele>
        <time>2021-04-08T08:19:31Z</time>
      </trkpt>
      <trkpt lat="44.45162" lon="6.5657">
        <ele>2346</ele>
        <time>2021-04-08T08:19:32Z</time>
      </trkpt>
      <trkpt lat="44.45161" lon="6.5657">
        <ele>2347</ele>
        <time>2021-04-08T08:19:33Z</time>
      </trkpt>
      <trkpt lat="44.45161" lon="6.5657">
        <ele>2347</ele>
        <time>2021-04-08T08:19:34Z</time>
      </trkpt>
      <trkpt lat="44.4516" lon="6.5657">
        <ele>2347</ele>
        <time>2021-04-08T08:19:35Z</time>
      </trkpt>
      <trkpt lat="44.4516" lon="6.5657">
        <ele>2347</ele>
        <time>2021-04-08T08:19:36Z</time>
      </trkpt>
      <trkpt lat="44.45159" lon="6.5657">
        <ele>2347</ele>
        <time>2021-04-08T08:19:37Z</time>
      </trkpt>
      <trkpt lat="44.45159" lon="6.56571">
        <ele>2347</ele>
        <time>2021-04-08T08:19:38Z</time>
      </trkpt>
      <trkpt lat="44.45158" lon="6.56571">
        <ele>2348</ele>
        <time>2021-04-08T08:19:39Z</time>
      </trkpt>
      <trkpt lat="44.45157" lon="6.56572">
        <ele>2348</ele>
        <time>2021-04-08T08:19:40Z</time>
      </trkpt>
      <trkpt lat="44.45157" lon="6.56572">
        <ele>2348</ele>
        <time>2021-04-08T08:19:41Z</time>
      </trkpt>
      <trkpt lat="44.45156" lon="6.56572">
        <ele>2348</ele>
        <time>2021-04-08T08:19:42Z</time>
      </trkpt>
      <trkpt lat="44.45156" lon="6.56573">
        <ele>2348</ele>
        <time>2021-04-08T08:19:43Z</time>
      </trkpt>
      <trkpt lat="44.45156" lon="6.56573">
        <ele>2348</ele>
        <time>2021-04-08T08:19:44Z</time>
      </trkpt>
      <trkpt lat="44.45155" lon="6.56574">
        <ele>2348</ele>
        <time>2021-04-08T08:19:45Z</time>
      </trkpt>
      <trkpt lat="44.45155" lon="6.56574">
        <ele>2348</ele>
        <time>2021-04-08T08:19:46Z</time>
      </trkpt>
      <trkpt lat="44.45155" lon="6.56575">
        <ele>2348</ele>
        <time>2021-04-08T08:19:47Z</time>
      </trkpt>
      <trkpt lat="44.45155" lon="6.56575">
        <ele>2348</ele>
        <time>2021-04-08T08:19:48Z</time>
      </trkpt>
      <trkpt lat="44.45155" lon="6.56575">
        <ele>2348</ele>
        <time>2021-04-08T08:19:49Z</time>
      </trkpt>
      <trkpt lat="44.45155" lon="6.56576">
        <ele>2348</ele>
        <time>2021-04-08T08:19:50Z</time>
      </trkpt>
      <trkpt lat="44.45155" lon="6.56576">
        <ele>2348</ele>
        <time>2021-04-08T08:19:51Z</time>
      </trkpt>
      <trkpt lat="44.45155" lon="6.56577">
        <ele>2348</ele>
        <time>2021-04-08T08:19:52Z</time>
      </trkpt>
      <trkpt lat="44.45154" lon="6.56577">
        <ele>2348</ele>
        <time>2021-04-08T08:19:53Z</time>
      </trkpt>
      <trkpt lat="44.45154" lon="6.56578">
        <ele>2348</ele>
        <time>2021-04-08T08:19:54Z</time>
      </trkpt>
      <trkpt lat="44.45154" lon="6.56578">
        <ele>2348</ele>
        <time>2021-04-08T08:19:55Z</time>
      </trkpt>
      <trkpt lat="44.45154" lon="6.56579">
        <ele>2348</ele>
        <time>2021-04-08T08:19:56Z</time>
      </trkpt>
      <trkpt lat="44.45153" lon="6.56579">
        <ele>2348</ele>
        <time>2021-04-08T08:19:57Z</time>
      </trkpt>
      <trkpt lat="44.45154" lon="6.5658">
        <ele>2348</ele>
        <time>2021-04-08T08:19:58Z</time>
      </trkpt>
      <trkpt lat="44.45154" lon="6.5658">
        <ele>2348</ele>
        <time>2021-04-08T08:19:59Z</time>
      </trkpt>
      <trkpt lat="44.45154" lon="6.5658">
        <ele>2348</ele>
        <time>2021-04-08T08:20:00Z</time>
      </trkpt>
      <trkpt lat="44.45154" lon="6.5658">
        <ele>2348</ele>
        <time>2021-04-08T08:20:01Z</time>
      </trkpt>
      <trkpt lat="44.45154" lon="6.5658">
        <ele>2348</ele>
        <time>2021-04-08T08:20:02Z</time>
      </trkpt>
      <trkpt lat="44.45153" lon="6.56581">
        <ele>2349</ele>
        <time>2021-04-08T08:20:03Z</time>
      </trkpt>
      <trkpt lat="44.45154" lon="6.56581">
        <ele>2349</ele>
        <time>2021-04-08T08:20:04Z</time>
      </trkpt>
      <trkpt lat="44.45154" lon="6.56581">
        <ele>2349</ele>
        <time>2021-04-08T08:20:05Z</time>
      </trkpt>
      <trkpt lat="44.45155" lon="6.56582">
        <ele>2349</ele>
        <time>2021-04-08T08:20:06Z</time>
      </trkpt>
      <trkpt lat="44.45155" lon="6.56582">
        <ele>2349</ele>
        <time>2021-04-08T08:20:07Z</time>
      </trkpt>
      <trkpt lat="44.45156" lon="6.56583">
        <ele>2349</ele>
        <time>2021-04-08T08:20:08Z</time>
      </trkpt>
      <trkpt lat="44.45156" lon="6.56584">
        <ele>2349</ele>
        <time>2021-04-08T08:20:09Z</time>
      </trkpt>
      <trkpt lat="44.45157" lon="6.56584">
        <ele>2349</ele>
        <time>2021-04-08T08:20:10Z</time>
      </trkpt>
      <trkpt lat="44.45158" lon="6.56585">
        <ele>2349</ele>
        <time>2021-04-08T08:20:11Z</time>
      </trkpt>
      <trkpt lat="44.45158" lon="6.56586">
        <ele>2349</ele>
        <time>2021-04-08T08:20:12Z</time>
      </trkpt>
      <trkpt lat="44.45159" lon="6.56587">
        <ele>2349</ele>
        <time>2021-04-08T08:20:13Z</time>
      </trkpt>
      <trkpt lat="44.4516" lon="6.56587">
        <ele>2349</ele>
        <time>2021-04-08T08:20:14Z</time>
      </trkpt>
      <trkpt lat="44.4516" lon="6.56588">
        <ele>2349</ele>
        <time>2021-04-08T08:20:15Z</time>
      </trkpt>
      <trkpt lat="44.4516" lon="6.56588">
        <ele>2349</ele>
        <time>2021-04-08T08:20:16Z</time>
      </trkpt>
      <trkpt lat="44.45161" lon="6.56588">
        <ele>2349</ele>
        <time>2021-04-08T08:20:17Z</time>
      </trkpt>
      <trkpt lat="44.45161" lon="6.56589">
        <ele>2349</ele>
        <time>2021-04-08T08:20:18Z</time>
      </trkpt>
      <trkpt lat="44.45162" lon="6.56589">
        <ele>2350</ele>
        <time>2021-04-08T08:20:19Z</time>
      </trkpt>
      <trkpt lat="44.45162" lon="6.56588">
        <ele>2350</ele>
        <time>2021-04-08T08:20:20Z</time>
      </trkpt>
      <trkpt lat="44.45163" lon="6.56588">
        <ele>2350</ele>
        <time>2021-04-08T08:20:21Z</time>
      </trkpt>
      <trkpt lat="44.45164" lon="6.56584">
        <ele>2347</ele>
        <time>2021-04-08T08:20:22Z</time>
      </trkpt>
      <trkpt lat="44.45165" lon="6.56585">
        <ele>2346</ele>
        <time>2021-04-08T08:20:23Z</time>
      </trkpt>
      <trkpt lat="44.45166" lon="6.56585">
        <ele>2346</ele>
        <time>2021-04-08T08:20:24Z</time>
      </trkpt>
      <trkpt lat="44.45166" lon="6.56586">
        <ele>2345</ele>
        <time>2021-04-08T08:20:25Z</time>
      </trkpt>
      <trkpt lat="44.45166" lon="6.56587">
        <ele>2345</ele>
        <time>2021-04-08T08:20:26Z</time>
      </trkpt>
      <trkpt lat="44.45167" lon="6.56588">
        <ele>2344</ele>
        <time>2021-04-08T08:20:27Z</time>
      </trkpt>
      <trkpt lat="44.45167" lon="6.5659">
        <ele>2344</ele>
        <time>2021-04-08T08:20:28Z</time>
      </trkpt>
      <trkpt lat="44.45167" lon="6.56592">
        <ele>2344</ele>
        <time>2021-04-08T08:20:29Z</time>
      </trkpt>
      <trkpt lat="44.45167" lon="6.56592">
        <ele>2344</ele>
        <time>2021-04-08T08:20:30Z</time>
      </trkpt>
      <trkpt lat="44.45167" lon="6.56593">
        <ele>2343</ele>
        <time>2021-04-08T08:20:31Z</time>
      </trkpt>
      <trkpt lat="44.45168" lon="6.56594">
        <ele>2343</ele>
        <time>2021-04-08T08:20:32Z</time>
      </trkpt>
      <trkpt lat="44.45168" lon="6.56596">
        <ele>2343</ele>
        <time>2021-04-08T08:20:33Z</time>
      </trkpt>
      <trkpt lat="44.45168" lon="6.56597">
        <ele>2343</ele>
        <time>2021-04-08T08:20:34Z</time>
      </trkpt>
      <trkpt lat="44.45167" lon="6.56598">
        <ele>2343</ele>
        <time>2021-04-08T08:20:35Z</time>
      </trkpt>
      <trkpt lat="44.45168" lon="6.56598">
        <ele>2343</ele>
        <time>2021-04-08T08:20:36Z</time>
      </trkpt>
      <trkpt lat="44.45167" lon="6.56599">
        <ele>2343</ele>
        <time>2021-04-08T08:20:37Z</time>
      </trkpt>
      <trkpt lat="44.45168" lon="6.566">
        <ele>2343</ele>
        <time>2021-04-08T08:20:38Z</time>
      </trkpt>
      <trkpt lat="44.45167" lon="6.56601">
        <ele>2343</ele>
        <time>2021-04-08T08:20:39Z</time>
      </trkpt>
      <trkpt lat="44.45167" lon="6.56602">
        <ele>2343</ele>
        <time>2021-04-08T08:20:40Z</time>
      </trkpt>
      <trkpt lat="44.45167" lon="6.56603">
        <ele>2343</ele>
        <time>2021-04-08T08:20:41Z</time>
      </trkpt>
      <trkpt lat="44.45167" lon="6.56604">
        <ele>2344</ele>
        <time>2021-04-08T08:20:42Z</time>
      </trkpt>
      <trkpt lat="44.45167" lon="6.56605">
        <ele>2345</ele>
        <time>2021-04-08T08:20:43Z</time>
      </trkpt>
      <trkpt lat="44.45167" lon="6.56606">
        <ele>2345</ele>
        <time>2021-04-08T08:20:44Z</time>
      </trkpt>
      <trkpt lat="44.45167" lon="6.56606">
        <ele>2345</ele>
        <time>2021-04-08T08:20:45Z</time>
      </trkpt>
      <trkpt lat="44.45168" lon="6.56607">
        <ele>2346</ele>
        <time>2021-04-08T08:20:46Z</time>
      </trkpt>
      <trkpt lat="44.45168" lon="6.56608">
        <ele>2347</ele>
        <time>2021-04-08T08:20:47Z</time>
      </trkpt>
      <trkpt lat="44.45169" lon="6.56609">
        <ele>2347</ele>
        <time>2021-04-08T08:20:48Z</time>
      </trkpt>
      <trkpt lat="44.45169" lon="6.56609">
        <ele>2348</ele>
        <time>2021-04-08T08:20:49Z</time>
      </trkpt>
      <trkpt lat="44.45169" lon="6.5661">
        <ele>2348</ele>
        <time>2021-04-08T08:20:50Z</time>
      </trkpt>
      <trkpt lat="44.4517" lon="6.5661">
        <ele>2348</ele>
        <time>2021-04-08T08:20:51Z</time>
      </trkpt>
      <trkpt lat="44.4517" lon="6.56611">
        <ele>2348</ele>
        <time>2021-04-08T08:20:52Z</time>
      </trkpt>
      <trkpt lat="44.4517" lon="6.56612">
        <ele>2349</ele>
        <time>2021-04-08T08:20:53Z</time>
      </trkpt>
      <trkpt lat="44.4517" lon="6.56613">
        <ele>2349</ele>
        <time>2021-04-08T08:20:54Z</time>
      </trkpt>
      <trkpt lat="44.4517" lon="6.56614">
        <ele>2350</ele>
        <time>2021-04-08T08:20:55Z</time>
      </trkpt>
      <trkpt lat="44.45169" lon="6.56614">
        <ele>2350</ele>
        <time>2021-04-08T08:20:56Z</time>
      </trkpt>
      <trkpt lat="44.45169" lon="6.56615">
        <ele>2350</ele>
        <time>2021-04-08T08:20:57Z</time>
      </trkpt>
      <trkpt lat="44.45168" lon="6.56615">
        <ele>2351</ele>
        <time>2021-04-08T08:20:58Z</time>
      </trkpt>
      <trkpt lat="44.45168" lon="6.56616">
        <ele>2351</ele>
        <time>2021-04-08T08:20:59Z</time>
      </trkpt>
      <trkpt lat="44.45167" lon="6.56616">
        <ele>2351</ele>
        <time>2021-04-08T08:21:00Z</time>
      </trkpt>
      <trkpt lat="44.45167" lon="6.56616">
        <ele>2352</ele>
        <time>2021-04-08T08:21:01Z</time>
      </trkpt>
      <trkpt lat="44.45166" lon="6.56617">
        <ele>2352</ele>
        <time>2021-04-08T08:21:02Z</time>
      </trkpt>
      <trkpt lat="44.45166" lon="6.56617">
        <ele>2352</ele>
        <time>2021-04-08T08:21:03Z</time>
      </trkpt>
      <trkpt lat="44.45165" lon="6.56618">
        <ele>2353</ele>
        <time>2021-04-08T08:21:04Z</time>
      </trkpt>
      <trkpt lat="44.45165" lon="6.56618">
        <ele>2354</ele>
        <time>2021-04-08T08:21:05Z</time>
      </trkpt>
      <trkpt lat="44.45164" lon="6.56619">
        <ele>2354</ele>
        <time>2021-04-08T08:21:06Z</time>
      </trkpt>
      <trkpt lat="44.45164" lon="6.56619">
        <ele>2354</ele>
        <time>2021-04-08T08:21:07Z</time>
      </trkpt>
      <trkpt lat="44.45164" lon="6.5662">
        <ele>2354</ele>
        <time>2021-04-08T08:21:08Z</time>
      </trkpt>
      <trkpt lat="44.45163" lon="6.56621">
        <ele>2356</ele>
        <time>2021-04-08T08:21:09Z</time>
      </trkpt>
      <trkpt lat="44.45163" lon="6.56622">
        <ele>2356</ele>
        <time>2021-04-08T08:21:10Z</time>
      </trkpt>
      <trkpt lat="44.45162" lon="6.56622">
        <ele>2357</ele>
        <time>2021-04-08T08:21:11Z</time>
      </trkpt>
      <trkpt lat="44.45162" lon="6.56622">
        <ele>2357</ele>
        <time>2021-04-08T08:21:12Z</time>
      </trkpt>
      <trkpt lat="44.45161" lon="6.56623">
        <ele>2357</ele>
        <time>2021-04-08T08:21:13Z</time>
      </trkpt>
      <trkpt lat="44.45161" lon="6.56623">
        <ele>2359</ele>
        <time>2021-04-08T08:21:14Z</time>
      </trkpt>
      <trkpt lat="44.45161" lon="6.56624">
        <ele>2359</ele>
        <time>2021-04-08T08:21:15Z</time>
      </trkpt>
      <trkpt lat="44.45161" lon="6.56624">
        <ele>2359</ele>
        <time>2021-04-08T08:21:16Z</time>
      </trkpt>
      <trkpt lat="44.45161" lon="6.56625">
        <ele>2359</ele>
        <time>2021-04-08T08:21:17Z</time>
      </trkpt>
      <trkpt lat="44.45161" lon="6.56626">
        <ele>2360</ele>
        <time>2021-04-08T08:21:18Z</time>
      </trkpt>
      <trkpt lat="44.45162" lon="6.56627">
        <ele>2360</ele>
        <time>2021-04-08T08:21:19Z</time>
      </trkpt>
      <trkpt lat="44.45161" lon="6.56628">
        <ele>2360</ele>
        <time>2021-04-08T08:21:20Z</time>
      </trkpt>
      <trkpt lat="44.45162" lon="6.5663">
        <ele>2360</ele>
        <time>2021-04-08T08:21:21Z</time>
      </trkpt>
      <trkpt lat="44.45161" lon="6.5663">
        <ele>2361</ele>
        <time>2021-04-08T08:21:22Z</time>
      </trkpt>
      <trkpt lat="44.4516" lon="6.56631">
        <ele>2361</ele>
        <time>2021-04-08T08:21:24Z</time>
      </trkpt>
      <trkpt lat="44.45159" lon="6.56632">
        <ele>2362</ele>
        <time>2021-04-08T08:21:25Z</time>
      </trkpt>
      <trkpt lat="44.45159" lon="6.56633">
        <ele>2362</ele>
        <time>2021-04-08T08:21:26Z</time>
      </trkpt>
      <trkpt lat="44.45159" lon="6.56634">
        <ele>2362</ele>
        <time>2021-04-08T08:21:27Z</time>
      </trkpt>
      <trkpt lat="44.45159" lon="6.56635">
        <ele>2363</ele>
        <time>2021-04-08T08:21:28Z</time>
      </trkpt>
      <trkpt lat="44.45159" lon="6.56637">
        <ele>2363</ele>
        <time>2021-04-08T08:21:29Z</time>
      </trkpt>
      <trkpt lat="44.45159" lon="6.56638">
        <ele>2363</ele>
        <time>2021-04-08T08:21:30Z</time>
      </trkpt>
      <trkpt lat="44.45159" lon="6.56638">
        <ele>2364</ele>
        <time>2021-04-08T08:21:31Z</time>
      </trkpt>
      <trkpt lat="44.45158" lon="6.56639">
        <ele>2364</ele>
        <time>2021-04-08T08:21:32Z</time>
      </trkpt>
      <trkpt lat="44.45159" lon="6.56639">
        <ele>2364</ele>
        <time>2021-04-08T08:21:33Z</time>
      </trkpt>
      <trkpt lat="44.45158" lon="6.5664">
        <ele>2364</ele>
        <time>2021-04-08T08:21:34Z</time>
      </trkpt>
      <trkpt lat="44.45158" lon="6.5664">
        <ele>2364</ele>
        <time>2021-04-08T08:21:35Z</time>
      </trkpt>
      <trkpt lat="44.45158" lon="6.5664">
        <ele>2365</ele>
        <time>2021-04-08T08:21:36Z</time>
      </trkpt>
      <trkpt lat="44.45157" lon="6.56641">
        <ele>2365</ele>
        <time>2021-04-08T08:21:37Z</time>
      </trkpt>
      <trkpt lat="44.45157" lon="6.56641">
        <ele>2365</ele>
        <time>2021-04-08T08:21:38Z</time>
      </trkpt>
      <trkpt lat="44.45156" lon="6.56642">
        <ele>2366</ele>
        <time>2021-04-08T08:21:39Z</time>
      </trkpt>
      <trkpt lat="44.45156" lon="6.56643">
        <ele>2366</ele>
        <time>2021-04-08T08:21:40Z</time>
      </trkpt>
      <trkpt lat="44.45155" lon="6.56643">
        <ele>2366</ele>
        <time>2021-04-08T08:21:41Z</time>
      </trkpt>
      <trkpt lat="44.45155" lon="6.56643">
        <ele>2367</ele>
        <time>2021-04-08T08:21:42Z</time>
      </trkpt>
      <trkpt lat="44.45154" lon="6.56644">
        <ele>2367</ele>
        <time>2021-04-08T08:21:43Z</time>
      </trkpt>
      <trkpt lat="44.45154" lon="6.56644">
        <ele>2367</ele>
        <time>2021-04-08T08:21:44Z</time>
      </trkpt>
      <trkpt lat="44.45154" lon="6.56644">
        <ele>2367</ele>
        <time>2021-04-08T08:21:45Z</time>
      </trkpt>
      <trkpt lat="44.45153" lon="6.56644">
        <ele>2367</ele>
        <time>2021-04-08T08:21:46Z</time>
      </trkpt>
      <trkpt lat="44.45153" lon="6.56645">
        <ele>2368</ele>
        <time>2021-04-08T08:21:47Z</time>
      </trkpt>
      <trkpt lat="44.45152" lon="6.56645">
        <ele>2368</ele>
        <time>2021-04-08T08:21:48Z</time>
      </trkpt>
      <trkpt lat="44.45152" lon="6.56646">
        <ele>2369</ele>
        <time>2021-04-08T08:21:49Z</time>
      </trkpt>
      <trkpt lat="44.45151" lon="6.56646">
        <ele>2369</ele>
        <time>2021-04-08T08:21:50Z</time>
      </trkpt>
      <trkpt lat="44.45151" lon="6.56646">
        <ele>2369</ele>
        <time>2021-04-08T08:21:51Z</time>
      </trkpt>
      <trkpt lat="44.45151" lon="6.56648">
        <ele>2369</ele>
        <time>2021-04-08T08:21:52Z</time>
      </trkpt>
      <trkpt lat="44.4515" lon="6.56648">
        <ele>2369</ele>
        <time>2021-04-08T08:21:53Z</time>
      </trkpt>
      <trkpt lat="44.4515" lon="6.56648">
        <ele>2370</ele>
        <time>2021-04-08T08:21:54Z</time>
      </trkpt>
      <trkpt lat="44.4515" lon="6.56649">
        <ele>2370</ele>
        <time>2021-04-08T08:21:55Z</time>
      </trkpt>
      <trkpt lat="44.4515" lon="6.5665">
        <ele>2370</ele>
        <time>2021-04-08T08:21:56Z</time>
      </trkpt>
      <trkpt lat="44.4515" lon="6.5665">
        <ele>2370</ele>
        <time>2021-04-08T08:21:57Z</time>
      </trkpt>
      <trkpt lat="44.4515" lon="6.56651">
        <ele>2371</ele>
        <time>2021-04-08T08:21:58Z</time>
      </trkpt>
      <trkpt lat="44.4515" lon="6.56651">
        <ele>2371</ele>
        <time>2021-04-08T08:21:59Z</time>
      </trkpt>
      <trkpt lat="44.45151" lon="6.56651">
        <ele>2371</ele>
        <time>2021-04-08T08:22:00Z</time>
      </trkpt>
      <trkpt lat="44.45151" lon="6.56651">
        <ele>2371</ele>
        <time>2021-04-08T08:22:01Z</time>
      </trkpt>
      <trkpt lat="44.45151" lon="6.56651">
        <ele>2371</ele>
        <time>2021-04-08T08:22:02Z</time>
      </trkpt>
      <trkpt lat="44.45151" lon="6.56651">
        <ele>2371</ele>
        <time>2021-04-08T08:22:03Z</time>
      </trkpt>
      <trkpt lat="44.45151" lon="6.56651">
        <ele>2371</ele>
        <time>2021-04-08T08:22:04Z</time>
      </trkpt>
      <trkpt lat="44.45151" lon="6.56651">
        <ele>2371</ele>
        <time>2021-04-08T08:22:05Z</time>
      </trkpt>
      <trkpt lat="44.45151" lon="6.56651">
        <ele>2371</ele>
        <time>2021-04-08T08:22:06Z</time>
      </trkpt>
      <trkpt lat="44.45151" lon="6.56651">
        <ele>2371</ele>
        <time>2021-04-08T08:22:07Z</time>
      </trkpt>
      <trkpt lat="44.45151" lon="6.56651">
        <ele>2371</ele>
        <time>2021-04-08T08:22:08Z</time>
      </trkpt>
      <trkpt lat="44.45151" lon="6.56651">
        <ele>2371</ele>
        <time>2021-04-08T08:22:09Z</time>
      </trkpt>
      <trkpt lat="44.45151" lon="6.56651">
        <ele>2371</ele>
        <time>2021-04-08T08:22:10Z</time>
      </trkpt>
      <trkpt lat="44.45151" lon="6.56651">
        <ele>2371</ele>
        <time>2021-04-08T08:22:11Z</time>
      </trkpt>
      <trkpt lat="44.45151" lon="6.56651">
        <ele>2371</ele>
        <time>2021-04-08T08:22:12Z</time>
      </trkpt>
      <trkpt lat="44.45151" lon="6.56651">
        <ele>2371</ele>
        <time>2021-04-08T08:22:13Z</time>
      </trkpt>
      <trkpt lat="44.45151" lon="6.56651">
        <ele>2371</ele>
        <time>2021-04-08T08:22:14Z</time>
      </trkpt>
      <trkpt lat="44.45151" lon="6.56651">
        <ele>2371</ele>
        <time>2021-04-08T08:22:15Z</time>
      </trkpt>
      <trkpt lat="44.45151" lon="6.56651">
        <ele>2371</ele>
        <time>2021-04-08T08:22:16Z</time>
      </trkpt>
      <trkpt lat="44.45151" lon="6.56651">
        <ele>2371</ele>
        <time>2021-04-08T08:22:17Z</time>
      </trkpt>
      <trkpt lat="44.45151" lon="6.56651">
        <ele>2371</ele>
        <time>2021-04-08T08:22:18Z</time>
      </trkpt>
      <trkpt lat="44.45151" lon="6.56651">
        <ele>2371</ele>
        <time>2021-04-08T08:22:19Z</time>
      </trkpt>
      <trkpt lat="44.45151" lon="6.56651">
        <ele>2371</ele>
        <time>2021-04-08T08:22:20Z</time>
      </trkpt>
      <trkpt lat="44.45151" lon="6.56651">
        <ele>2371</ele>
        <time>2021-04-08T08:22:21Z</time>
      </trkpt>
      <trkpt lat="44.45151" lon="6.56651">
        <ele>2371</ele>
        <time>2021-04-08T08:22:22Z</time>
      </trkpt>
      <trkpt lat="44.45151" lon="6.56651">
        <ele>2371</ele>
        <time>2021-04-08T08:22:23Z</time>
      </trkpt>
      <trkpt lat="44.45151" lon="6.56651">
        <ele>2371</ele>
        <time>2021-04-08T08:22:24Z</time>
      </trkpt>
      <trkpt lat="44.45151" lon="6.56651">
        <ele>2371</ele>
        <time>2021-04-08T08:22:25Z</time>
      </trkpt>
      <trkpt lat="44.45151" lon="6.56651">
        <ele>2371</ele>
        <time>2021-04-08T08:22:26Z</time>
      </trkpt>
      <trkpt lat="44.45151" lon="6.56651">
        <ele>2371</ele>
        <time>2021-04-08T08:22:27Z</time>
      </trkpt>
      <trkpt lat="44.45151" lon="6.56651">
        <ele>2371</ele>
        <time>2021-04-08T08:22:28Z</time>
      </trkpt>
      <trkpt lat="44.4515" lon="6.56652">
        <ele>2371</ele>
        <time>2021-04-08T08:22:29Z</time>
      </trkpt>
      <trkpt lat="44.4515" lon="6.56651">
        <ele>2371</ele>
        <time>2021-04-08T08:22:30Z</time>
      </trkpt>
      <trkpt lat="44.45151" lon="6.56651">
        <ele>2371</ele>
        <time>2021-04-08T08:22:31Z</time>
      </trkpt>
      <trkpt lat="44.45151" lon="6.5665">
        <ele>2371</ele>
        <time>2021-04-08T08:22:32Z</time>
      </trkpt>
      <trkpt lat="44.45151" lon="6.5665">
        <ele>2371</ele>
        <time>2021-04-08T08:22:33Z</time>
      </trkpt>
      <trkpt lat="44.45151" lon="6.5665">
        <ele>2371</ele>
        <time>2021-04-08T08:22:34Z</time>
      </trkpt>
      <trkpt lat="44.45151" lon="6.5665">
        <ele>2371</ele>
        <time>2021-04-08T08:22:35Z</time>
      </trkpt>
      <trkpt lat="44.45151" lon="6.5665">
        <ele>2371</ele>
        <time>2021-04-08T08:22:36Z</time>
      </trkpt>
      <trkpt lat="44.45151" lon="6.5665">
        <ele>2371</ele>
        <time>2021-04-08T08:22:37Z</time>
      </trkpt>
      <trkpt lat="44.45151" lon="6.5665">
        <ele>2371</ele>
        <time>2021-04-08T08:22:38Z</time>
      </trkpt>
      <trkpt lat="44.45151" lon="6.5665">
        <ele>2371</ele>
        <time>2021-04-08T08:22:39Z</time>
      </trkpt>
      <trkpt lat="44.45151" lon="6.5665">
        <ele>2371</ele>
        <time>2021-04-08T08:22:40Z</time>
      </trkpt>
      <trkpt lat="44.45151" lon="6.5665">
        <ele>2371</ele>
        <time>2021-04-08T08:22:41Z</time>
      </trkpt>
      <trkpt lat="44.45151" lon="6.5665">
        <ele>2371</ele>
        <time>2021-04-08T08:22:42Z</time>
      </trkpt>
      <trkpt lat="44.45151" lon="6.5665">
        <ele>2371</ele>
        <time>2021-04-08T08:22:43Z</time>
      </trkpt>
      <trkpt lat="44.45151" lon="6.5665">
        <ele>2371</ele>
        <time>2021-04-08T08:22:44Z</time>
      </trkpt>
      <trkpt lat="44.45151" lon="6.5665">
        <ele>2371</ele>
        <time>2021-04-08T08:22:45Z</time>
      </trkpt>
      <trkpt lat="44.45151" lon="6.5665">
        <ele>2371</ele>
        <time>2021-04-08T08:22:46Z</time>
      </trkpt>
      <trkpt lat="44.45151" lon="6.5665">
        <ele>2371</ele>
        <time>2021-04-08T08:22:47Z</time>
      </trkpt>
      <trkpt lat="44.45151" lon="6.5665">
        <ele>2371</ele>
        <time>2021-04-08T08:22:48Z</time>
      </trkpt>
      <trkpt lat="44.45152" lon="6.5665">
        <ele>2371</ele>
        <time>2021-04-08T08:22:49Z</time>
      </trkpt>
      <trkpt lat="44.45152" lon="6.56651">
        <ele>2371</ele>
        <time>2021-04-08T08:22:50Z</time>
      </trkpt>
      <trkpt lat="44.45153" lon="6.56651">
        <ele>2371</ele>
        <time>2021-04-08T08:22:51Z</time>
      </trkpt>
      <trkpt lat="44.45153" lon="6.56652">
        <ele>2371</ele>
        <time>2021-04-08T08:22:52Z</time>
      </trkpt>
      <trkpt lat="44.45153" lon="6.56652">
        <ele>2371</ele>
        <time>2021-04-08T08:22:53Z</time>
      </trkpt>
      <trkpt lat="44.45153" lon="6.56652">
        <ele>2371</ele>
        <time>2021-04-08T08:22:54Z</time>
      </trkpt>
      <trkpt lat="44.45153" lon="6.56652">
        <ele>2371</ele>
        <time>2021-04-08T08:22:55Z</time>
      </trkpt>
      <trkpt lat="44.45153" lon="6.56652">
        <ele>2371</ele>
        <time>2021-04-08T08:22:56Z</time>
      </trkpt>
      <trkpt lat="44.45153" lon="6.56652">
        <ele>2371</ele>
        <time>2021-04-08T08:22:57Z</time>
      </trkpt>
      <trkpt lat="44.45152" lon="6.56651">
        <ele>2371</ele>
        <time>2021-04-08T08:22:58Z</time>
      </trkpt>
      <trkpt lat="44.45152" lon="6.5665">
        <ele>2371</ele>
        <time>2021-04-08T08:22:59Z</time>
      </trkpt>
      <trkpt lat="44.45152" lon="6.5665">
        <ele>2371</ele>
        <time>2021-04-08T08:23:00Z</time>
      </trkpt>
      <trkpt lat="44.45152" lon="6.5665">
        <ele>2371</ele>
        <time>2021-04-08T08:23:01Z</time>
      </trkpt>
      <trkpt lat="44.45152" lon="6.5665">
        <ele>2371</ele>
        <time>2021-04-08T08:23:02Z</time>
      </trkpt>
      <trkpt lat="44.45152" lon="6.5665">
        <ele>2371</ele>
        <time>2021-04-08T08:23:03Z</time>
      </trkpt>
      <trkpt lat="44.45152" lon="6.5665">
        <ele>2371</ele>
        <time>2021-04-08T08:23:04Z</time>
      </trkpt>
      <trkpt lat="44.45152" lon="6.5665">
        <ele>2371</ele>
        <time>2021-04-08T08:23:05Z</time>
      </trkpt>
      <trkpt lat="44.45152" lon="6.5665">
        <ele>2371</ele>
        <time>2021-04-08T08:23:06Z</time>
      </trkpt>
      <trkpt lat="44.45152" lon="6.5665">
        <ele>2371</ele>
        <time>2021-04-08T08:23:07Z</time>
      </trkpt>
      <trkpt lat="44.45152" lon="6.5665">
        <ele>2371</ele>
        <time>2021-04-08T08:23:08Z</time>
      </trkpt>
      <trkpt lat="44.45152" lon="6.5665">
        <ele>2371</ele>
        <time>2021-04-08T08:23:09Z</time>
      </trkpt>
      <trkpt lat="44.45152" lon="6.5665">
        <ele>2371</ele>
        <time>2021-04-08T08:23:10Z</time>
      </trkpt>
      <trkpt lat="44.45152" lon="6.5665">
        <ele>2371</ele>
        <time>2021-04-08T08:23:11Z</time>
      </trkpt>
      <trkpt lat="44.45152" lon="6.5665">
        <ele>2371</ele>
        <time>2021-04-08T08:23:12Z</time>
      </trkpt>
      <trkpt lat="44.45152" lon="6.5665">
        <ele>2371</ele>
        <time>2021-04-08T08:23:13Z</time>
      </trkpt>
      <trkpt lat="44.45152" lon="6.5665">
        <ele>2371</ele>
        <time>2021-04-08T08:23:14Z</time>
      </trkpt>
      <trkpt lat="44.45152" lon="6.5665">
        <ele>2371</ele>
        <time>2021-04-08T08:23:15Z</time>
      </trkpt>
      <trkpt lat="44.45152" lon="6.5665">
        <ele>2371</ele>
        <time>2021-04-08T08:23:16Z</time>
      </trkpt>
      <trkpt lat="44.45152" lon="6.5665">
        <ele>2371</ele>
        <time>2021-04-08T08:23:17Z</time>
      </trkpt>
      <trkpt lat="44.45152" lon="6.5665">
        <ele>2371</ele>
        <time>2021-04-08T08:23:18Z</time>
      </trkpt>
      <trkpt lat="44.45152" lon="6.5665">
        <ele>2371</ele>
        <time>2021-04-08T08:23:19Z</time>
      </trkpt>
      <trkpt lat="44.45152" lon="6.5665">
        <ele>2371</ele>
        <time>2021-04-08T08:23:20Z</time>
      </trkpt>
      <trkpt lat="44.45152" lon="6.5665">
        <ele>2371</ele>
        <time>2021-04-08T08:23:21Z</time>
      </trkpt>
      <trkpt lat="44.45152" lon="6.5665">
        <ele>2371</ele>
        <time>2021-04-08T08:23:22Z</time>
      </trkpt>
      <trkpt lat="44.45152" lon="6.5665">
        <ele>2371</ele>
        <time>2021-04-08T08:23:23Z</time>
      </trkpt>
      <trkpt lat="44.45152" lon="6.5665">
        <ele>2371</ele>
        <time>2021-04-08T08:23:24Z</time>
      </trkpt>
      <trkpt lat="44.45152" lon="6.5665">
        <ele>2371</ele>
        <time>2021-04-08T08:23:25Z</time>
      </trkpt>
      <trkpt lat="44.45152" lon="6.5665">
        <ele>2371</ele>
        <time>2021-04-08T08:23:26Z</time>
      </trkpt>
      <trkpt lat="44.45152" lon="6.5665">
        <ele>2371</ele>
        <time>2021-04-08T08:23:27Z</time>
      </trkpt>
      <trkpt lat="44.45152" lon="6.5665">
        <ele>2371</ele>
        <time>2021-04-08T08:23:28Z</time>
      </trkpt>
      <trkpt lat="44.45152" lon="6.5665">
        <ele>2371</ele>
        <time>2021-04-08T08:23:29Z</time>
      </trkpt>
      <trkpt lat="44.45152" lon="6.5665">
        <ele>2371</ele>
        <time>2021-04-08T08:23:30Z</time>
      </trkpt>
      <trkpt lat="44.45152" lon="6.5665">
        <ele>2371</ele>
        <time>2021-04-08T08:23:31Z</time>
      </trkpt>
      <trkpt lat="44.45152" lon="6.5665">
        <ele>2371</ele>
        <time>2021-04-08T08:23:32Z</time>
      </trkpt>
      <trkpt lat="44.45152" lon="6.5665">
        <ele>2371</ele>
        <time>2021-04-08T08:23:33Z</time>
      </trkpt>
      <trkpt lat="44.45152" lon="6.5665">
        <ele>2371</ele>
        <time>2021-04-08T08:23:34Z</time>
      </trkpt>
      <trkpt lat="44.45152" lon="6.5665">
        <ele>2371</ele>
        <time>2021-04-08T08:23:35Z</time>
      </trkpt>
      <trkpt lat="44.45152" lon="6.5665">
        <ele>2371</ele>
        <time>2021-04-08T08:23:36Z</time>
      </trkpt>
      <trkpt lat="44.45152" lon="6.5665">
        <ele>2371</ele>
        <time>2021-04-08T08:23:37Z</time>
      </trkpt>
      <trkpt lat="44.45152" lon="6.5665">
        <ele>2371</ele>
        <time>2021-04-08T08:23:38Z</time>
      </trkpt>
      <trkpt lat="44.45152" lon="6.5665">
        <ele>2371</ele>
        <time>2021-04-08T08:23:39Z</time>
      </trkpt>
      <trkpt lat="44.45152" lon="6.5665">
        <ele>2371</ele>
        <time>2021-04-08T08:23:40Z</time>
      </trkpt>
      <trkpt lat="44.45152" lon="6.5665">
        <ele>2371</ele>
        <time>2021-04-08T08:23:41Z</time>
      </trkpt>
      <trkpt lat="44.45152" lon="6.5665">
        <ele>2371</ele>
        <time>2021-04-08T08:23:42Z</time>
      </trkpt>
      <trkpt lat="44.45152" lon="6.5665">
        <ele>2371</ele>
        <time>2021-04-08T08:23:43Z</time>
      </trkpt>
      <trkpt lat="44.45151" lon="6.56652">
        <ele>2371</ele>
        <time>2021-04-08T08:23:44Z</time>
      </trkpt>
      <trkpt lat="44.45151" lon="6.56652">
        <ele>2371</ele>
        <time>2021-04-08T08:23:45Z</time>
      </trkpt>
      <trkpt lat="44.45151" lon="6.56652">
        <ele>2371</ele>
        <time>2021-04-08T08:23:46Z</time>
      </trkpt>
      <trkpt lat="44.45151" lon="6.56652">
        <ele>2371</ele>
        <time>2021-04-08T08:23:47Z</time>
      </trkpt>
      <trkpt lat="44.45151" lon="6.56652">
        <ele>2371</ele>
        <time>2021-04-08T08:23:48Z</time>
      </trkpt>
      <trkpt lat="44.45151" lon="6.56652">
        <ele>2371</ele>
        <time>2021-04-08T08:23:49Z</time>
      </trkpt>
      <trkpt lat="44.45151" lon="6.56652">
        <ele>2371</ele>
        <time>2021-04-08T08:23:50Z</time>
      </trkpt>
      <trkpt lat="44.45151" lon="6.56652">
        <ele>2371</ele>
        <time>2021-04-08T08:23:51Z</time>
      </trkpt>
      <trkpt lat="44.45151" lon="6.56652">
        <ele>2371</ele>
        <time>2021-04-08T08:23:52Z</time>
      </trkpt>
      <trkpt lat="44.45151" lon="6.56652">
        <ele>2371</ele>
        <time>2021-04-08T08:23:53Z</time>
      </trkpt>
      <trkpt lat="44.45151" lon="6.56652">
        <ele>2371</ele>
        <time>2021-04-08T08:23:54Z</time>
      </trkpt>
      <trkpt lat="44.45151" lon="6.56652">
        <ele>2371</ele>
        <time>2021-04-08T08:23:55Z</time>
      </trkpt>
      <trkpt lat="44.45151" lon="6.56652">
        <ele>2371</ele>
        <time>2021-04-08T08:23:56Z</time>
      </trkpt>
      <trkpt lat="44.45151" lon="6.56652">
        <ele>2371</ele>
        <time>2021-04-08T08:23:57Z</time>
      </trkpt>
      <trkpt lat="44.45151" lon="6.56652">
        <ele>2371</ele>
        <time>2021-04-08T08:23:58Z</time>
      </trkpt>
      <trkpt lat="44.45151" lon="6.56652">
        <ele>2371</ele>
        <time>2021-04-08T08:23:59Z</time>
      </trkpt>
      <trkpt lat="44.45151" lon="6.56652">
        <ele>2371</ele>
        <time>2021-04-08T08:24:00Z</time>
      </trkpt>
      <trkpt lat="44.45151" lon="6.56652">
        <ele>2371</ele>
        <time>2021-04-08T08:24:01Z</time>
      </trkpt>
      <trkpt lat="44.45151" lon="6.56652">
        <ele>2371</ele>
        <time>2021-04-08T08:24:02Z</time>
      </trkpt>
      <trkpt lat="44.45151" lon="6.56652">
        <ele>2371</ele>
        <time>2021-04-08T08:24:03Z</time>
      </trkpt>
      <trkpt lat="44.45151" lon="6.56652">
        <ele>2371</ele>
        <time>2021-04-08T08:24:04Z</time>
      </trkpt>
      <trkpt lat="44.45151" lon="6.56652">
        <ele>2371</ele>
        <time>2021-04-08T08:24:05Z</time>
      </trkpt>
      <trkpt lat="44.45151" lon="6.56652">
        <ele>2371</ele>
        <time>2021-04-08T08:24:06Z</time>
      </trkpt>
      <trkpt lat="44.45151" lon="6.56652">
        <ele>2371</ele>
        <time>2021-04-08T08:24:07Z</time>
      </trkpt>
      <trkpt lat="44.45151" lon="6.56652">
        <ele>2371</ele>
        <time>2021-04-08T08:24:08Z</time>
      </trkpt>
      <trkpt lat="44.45151" lon="6.56652">
        <ele>2371</ele>
        <time>2021-04-08T08:24:09Z</time>
      </trkpt>
      <trkpt lat="44.45151" lon="6.56652">
        <ele>2371</ele>
        <time>2021-04-08T08:24:10Z</time>
      </trkpt>
      <trkpt lat="44.45151" lon="6.56652">
        <ele>2371</ele>
        <time>2021-04-08T08:24:11Z</time>
      </trkpt>
      <trkpt lat="44.45151" lon="6.56652">
        <ele>2371</ele>
        <time>2021-04-08T08:24:12Z</time>
      </trkpt>
      <trkpt lat="44.45151" lon="6.56652">
        <ele>2371</ele>
        <time>2021-04-08T08:24:13Z</time>
      </trkpt>
      <trkpt lat="44.45151" lon="6.56652">
        <ele>2371</ele>
        <time>2021-04-08T08:24:14Z</time>
      </trkpt>
      <trkpt lat="44.45151" lon="6.56652">
        <ele>2371</ele>
        <time>2021-04-08T08:24:15Z</time>
      </trkpt>
      <trkpt lat="44.45151" lon="6.56652">
        <ele>2371</ele>
        <time>2021-04-08T08:24:16Z</time>
      </trkpt>
      <trkpt lat="44.45151" lon="6.56652">
        <ele>2371</ele>
        <time>2021-04-08T08:24:17Z</time>
      </trkpt>
      <trkpt lat="44.45151" lon="6.56652">
        <ele>2371</ele>
        <time>2021-04-08T08:24:18Z</time>
      </trkpt>
      <trkpt lat="44.45151" lon="6.56652">
        <ele>2371</ele>
        <time>2021-04-08T08:24:19Z</time>
      </trkpt>
      <trkpt lat="44.45151" lon="6.56652">
        <ele>2371</ele>
        <time>2021-04-08T08:24:20Z</time>
      </trkpt>
      <trkpt lat="44.45151" lon="6.56652">
        <ele>2371</ele>
        <time>2021-04-08T08:24:21Z</time>
      </trkpt>
      <trkpt lat="44.45151" lon="6.56652">
        <ele>2371</ele>
        <time>2021-04-08T08:24:22Z</time>
      </trkpt>
      <trkpt lat="44.45151" lon="6.56652">
        <ele>2371</ele>
        <time>2021-04-08T08:24:23Z</time>
      </trkpt>
      <trkpt lat="44.45151" lon="6.56652">
        <ele>2371</ele>
        <time>2021-04-08T08:24:24Z</time>
      </trkpt>
      <trkpt lat="44.45151" lon="6.56652">
        <ele>2371</ele>
        <time>2021-04-08T08:24:25Z</time>
      </trkpt>
      <trkpt lat="44.45151" lon="6.56652">
        <ele>2371</ele>
        <time>2021-04-08T08:24:26Z</time>
      </trkpt>
      <trkpt lat="44.45151" lon="6.56652">
        <ele>2371</ele>
        <time>2021-04-08T08:24:27Z</time>
      </trkpt>
      <trkpt lat="44.45151" lon="6.56652">
        <ele>2371</ele>
        <time>2021-04-08T08:24:28Z</time>
      </trkpt>
      <trkpt lat="44.45151" lon="6.56652">
        <ele>2371</ele>
        <time>2021-04-08T08:24:29Z</time>
      </trkpt>
      <trkpt lat="44.45151" lon="6.56652">
        <ele>2371</ele>
        <time>2021-04-08T08:24:30Z</time>
      </trkpt>
      <trkpt lat="44.45151" lon="6.56652">
        <ele>2371</ele>
        <time>2021-04-08T08:24:31Z</time>
      </trkpt>
      <trkpt lat="44.45151" lon="6.56652">
        <ele>2371</ele>
        <time>2021-04-08T08:24:32Z</time>
      </trkpt>
      <trkpt lat="44.45151" lon="6.56652">
        <ele>2371</ele>
        <time>2021-04-08T08:24:33Z</time>
      </trkpt>
      <trkpt lat="44.45151" lon="6.56652">
        <ele>2371</ele>
        <time>2021-04-08T08:24:34Z</time>
      </trkpt>
      <trkpt lat="44.45151" lon="6.56652">
        <ele>2371</ele>
        <time>2021-04-08T08:24:35Z</time>
      </trkpt>
      <trkpt lat="44.45151" lon="6.56652">
        <ele>2371</ele>
        <time>2021-04-08T08:24:36Z</time>
      </trkpt>
      <trkpt lat="44.45151" lon="6.56652">
        <ele>2371</ele>
        <time>2021-04-08T08:24:37Z</time>
      </trkpt>
      <trkpt lat="44.45151" lon="6.56652">
        <ele>2371</ele>
        <time>2021-04-08T08:24:38Z</time>
      </trkpt>
      <trkpt lat="44.45151" lon="6.56652">
        <ele>2371</ele>
        <time>2021-04-08T08:24:39Z</time>
      </trkpt>
      <trkpt lat="44.45151" lon="6.56652">
        <ele>2371</ele>
        <time>2021-04-08T08:24:40Z</time>
      </trkpt>
      <trkpt lat="44.45151" lon="6.56652">
        <ele>2371</ele>
        <time>2021-04-08T08:24:41Z</time>
      </trkpt>
      <trkpt lat="44.45151" lon="6.56652">
        <ele>2371</ele>
        <time>2021-04-08T08:24:42Z</time>
      </trkpt>
      <trkpt lat="44.45151" lon="6.56652">
        <ele>2371</ele>
        <time>2021-04-08T08:24:43Z</time>
      </trkpt>
      <trkpt lat="44.45151" lon="6.56652">
        <ele>2371</ele>
        <time>2021-04-08T08:24:44Z</time>
      </trkpt>
      <trkpt lat="44.45151" lon="6.56652">
        <ele>2371</ele>
        <time>2021-04-08T08:24:45Z</time>
      </trkpt>
      <trkpt lat="44.45151" lon="6.56652">
        <ele>2371</ele>
        <time>2021-04-08T08:24:46Z</time>
      </trkpt>
      <trkpt lat="44.45151" lon="6.56652">
        <ele>2371</ele>
        <time>2021-04-08T08:24:47Z</time>
      </trkpt>
      <trkpt lat="44.45151" lon="6.56652">
        <ele>2371</ele>
        <time>2021-04-08T08:24:48Z</time>
      </trkpt>
      <trkpt lat="44.45151" lon="6.56652">
        <ele>2371</ele>
        <time>2021-04-08T08:24:49Z</time>
      </trkpt>
      <trkpt lat="44.45151" lon="6.56652">
        <ele>2371</ele>
        <time>2021-04-08T08:24:50Z</time>
      </trkpt>
      <trkpt lat="44.45151" lon="6.56652">
        <ele>2371</ele>
        <time>2021-04-08T08:24:51Z</time>
      </trkpt>
      <trkpt lat="44.45151" lon="6.56652">
        <ele>2371</ele>
        <time>2021-04-08T08:24:52Z</time>
      </trkpt>
      <trkpt lat="44.45151" lon="6.56652">
        <ele>2371</ele>
        <time>2021-04-08T08:24:53Z</time>
      </trkpt>
      <trkpt lat="44.45151" lon="6.56652">
        <ele>2371</ele>
        <time>2021-04-08T08:24:54Z</time>
      </trkpt>
      <trkpt lat="44.45151" lon="6.56652">
        <ele>2371</ele>
        <time>2021-04-08T08:24:55Z</time>
      </trkpt>
      <trkpt lat="44.45151" lon="6.56652">
        <ele>2371</ele>
        <time>2021-04-08T08:24:56Z</time>
      </trkpt>
      <trkpt lat="44.45151" lon="6.56652">
        <ele>2371</ele>
        <time>2021-04-08T08:24:57Z</time>
      </trkpt>
      <trkpt lat="44.45151" lon="6.56652">
        <ele>2371</ele>
        <time>2021-04-08T08:24:58Z</time>
      </trkpt>
      <trkpt lat="44.45151" lon="6.56652">
        <ele>2371</ele>
        <time>2021-04-08T08:24:59Z</time>
      </trkpt>
      <trkpt lat="44.45151" lon="6.56652">
        <ele>2371</ele>
        <time>2021-04-08T08:25:00Z</time>
      </trkpt>
      <trkpt lat="44.45151" lon="6.56652">
        <ele>2371</ele>
        <time>2021-04-08T08:25:01Z</time>
      </trkpt>
      <trkpt lat="44.45151" lon="6.56652">
        <ele>2371</ele>
        <time>2021-04-08T08:25:02Z</time>
      </trkpt>
      <trkpt lat="44.45151" lon="6.56652">
        <ele>2371</ele>
        <time>2021-04-08T08:25:03Z</time>
      </trkpt>
      <trkpt lat="44.45151" lon="6.56652">
        <ele>2371</ele>
        <time>2021-04-08T08:25:04Z</time>
      </trkpt>
      <trkpt lat="44.45151" lon="6.56652">
        <ele>2371</ele>
        <time>2021-04-08T08:25:05Z</time>
      </trkpt>
      <trkpt lat="44.45151" lon="6.56652">
        <ele>2371</ele>
        <time>2021-04-08T08:25:06Z</time>
      </trkpt>
      <trkpt lat="44.45151" lon="6.56652">
        <ele>2371</ele>
        <time>2021-04-08T08:25:07Z</time>
      </trkpt>
      <trkpt lat="44.45151" lon="6.56652">
        <ele>2371</ele>
        <time>2021-04-08T08:25:08Z</time>
      </trkpt>
      <trkpt lat="44.45151" lon="6.56652">
        <ele>2371</ele>
        <time>2021-04-08T08:25:09Z</time>
      </trkpt>
      <trkpt lat="44.45151" lon="6.56652">
        <ele>2371</ele>
        <time>2021-04-08T08:25:10Z</time>
      </trkpt>
      <trkpt lat="44.45151" lon="6.56652">
        <ele>2371</ele>
        <time>2021-04-08T08:25:11Z</time>
      </trkpt>
      <trkpt lat="44.45151" lon="6.56652">
        <ele>2371</ele>
        <time>2021-04-08T08:25:12Z</time>
      </trkpt>
      <trkpt lat="44.45151" lon="6.56652">
        <ele>2371</ele>
        <time>2021-04-08T08:25:13Z</time>
      </trkpt>
      <trkpt lat="44.45151" lon="6.56652">
        <ele>2371</ele>
        <time>2021-04-08T08:25:14Z</time>
      </trkpt>
      <trkpt lat="44.45151" lon="6.56652">
        <ele>2371</ele>
        <time>2021-04-08T08:25:15Z</time>
      </trkpt>
      <trkpt lat="44.45151" lon="6.56652">
        <ele>2371</ele>
        <time>2021-04-08T08:25:16Z</time>
      </trkpt>
      <trkpt lat="44.45151" lon="6.56652">
        <ele>2371</ele>
        <time>2021-04-08T08:25:17Z</time>
      </trkpt>
      <trkpt lat="44.45151" lon="6.56652">
        <ele>2371</ele>
        <time>2021-04-08T08:25:18Z</time>
      </trkpt>
      <trkpt lat="44.45151" lon="6.56652">
        <ele>2371</ele>
        <time>2021-04-08T08:25:19Z</time>
      </trkpt>
      <trkpt lat="44.45151" lon="6.56652">
        <ele>2371</ele>
        <time>2021-04-08T08:25:20Z</time>
      </trkpt>
      <trkpt lat="44.45151" lon="6.56652">
        <ele>2371</ele>
        <time>2021-04-08T08:25:21Z</time>
      </trkpt>
      <trkpt lat="44.45151" lon="6.56652">
        <ele>2371</ele>
        <time>2021-04-08T08:25:22Z</time>
      </trkpt>
      <trkpt lat="44.45151" lon="6.56652">
        <ele>2371</ele>
        <time>2021-04-08T08:25:23Z</time>
      </trkpt>
      <trkpt lat="44.45151" lon="6.56652">
        <ele>2371</ele>
        <time>2021-04-08T08:25:24Z</time>
      </trkpt>
      <trkpt lat="44.45151" lon="6.56652">
        <ele>2371</ele>
        <time>2021-04-08T08:25:25Z</time>
      </trkpt>
      <trkpt lat="44.45151" lon="6.56652">
        <ele>2371</ele>
        <time>2021-04-08T08:25:26Z</time>
      </trkpt>
      <trkpt lat="44.45151" lon="6.56652">
        <ele>2371</ele>
        <time>2021-04-08T08:25:27Z</time>
      </trkpt>
      <trkpt lat="44.45151" lon="6.56652">
        <ele>2371</ele>
        <time>2021-04-08T08:25:28Z</time>
      </trkpt>
      <trkpt lat="44.45151" lon="6.56652">
        <ele>2371</ele>
        <time>2021-04-08T08:25:29Z</time>
      </trkpt>
      <trkpt lat="44.45151" lon="6.56652">
        <ele>2371</ele>
        <time>2021-04-08T08:25:30Z</time>
      </trkpt>
      <trkpt lat="44.45151" lon="6.56652">
        <ele>2371</ele>
        <time>2021-04-08T08:25:31Z</time>
      </trkpt>
      <trkpt lat="44.45151" lon="6.56652">
        <ele>2371</ele>
        <time>2021-04-08T08:25:32Z</time>
      </trkpt>
      <trkpt lat="44.45151" lon="6.56652">
        <ele>2371</ele>
        <time>2021-04-08T08:25:33Z</time>
      </trkpt>
      <trkpt lat="44.45151" lon="6.56652">
        <ele>2371</ele>
        <time>2021-04-08T08:25:34Z</time>
      </trkpt>
      <trkpt lat="44.45151" lon="6.56652">
        <ele>2371</ele>
        <time>2021-04-08T08:25:35Z</time>
      </trkpt>
      <trkpt lat="44.45151" lon="6.56652">
        <ele>2371</ele>
        <time>2021-04-08T08:25:36Z</time>
      </trkpt>
      <trkpt lat="44.45151" lon="6.56652">
        <ele>2371</ele>
        <time>2021-04-08T08:25:37Z</time>
      </trkpt>
      <trkpt lat="44.45151" lon="6.56652">
        <ele>2371</ele>
        <time>2021-04-08T08:25:38Z</time>
      </trkpt>
      <trkpt lat="44.45151" lon="6.56652">
        <ele>2371</ele>
        <time>2021-04-08T08:25:39Z</time>
      </trkpt>
      <trkpt lat="44.45151" lon="6.56652">
        <ele>2371</ele>
        <time>2021-04-08T08:25:40Z</time>
      </trkpt>
      <trkpt lat="44.45151" lon="6.56652">
        <ele>2371</ele>
        <time>2021-04-08T08:25:41Z</time>
      </trkpt>
      <trkpt lat="44.45151" lon="6.56652">
        <ele>2371</ele>
        <time>2021-04-08T08:25:42Z</time>
      </trkpt>
      <trkpt lat="44.45151" lon="6.56652">
        <ele>2371</ele>
        <time>2021-04-08T08:25:43Z</time>
      </trkpt>
      <trkpt lat="44.45151" lon="6.56652">
        <ele>2371</ele>
        <time>2021-04-08T08:25:44Z</time>
      </trkpt>
      <trkpt lat="44.45151" lon="6.56652">
        <ele>2371</ele>
        <time>2021-04-08T08:25:45Z</time>
      </trkpt>
      <trkpt lat="44.45151" lon="6.56652">
        <ele>2371</ele>
        <time>2021-04-08T08:25:46Z</time>
      </trkpt>
      <trkpt lat="44.45151" lon="6.56652">
        <ele>2371</ele>
        <time>2021-04-08T08:25:47Z</time>
      </trkpt>
      <trkpt lat="44.45151" lon="6.56652">
        <ele>2371</ele>
        <time>2021-04-08T08:25:48Z</time>
      </trkpt>
      <trkpt lat="44.45151" lon="6.56652">
        <ele>2371</ele>
        <time>2021-04-08T08:25:49Z</time>
      </trkpt>
      <trkpt lat="44.45151" lon="6.56652">
        <ele>2371</ele>
        <time>2021-04-08T08:25:50Z</time>
      </trkpt>
      <trkpt lat="44.45151" lon="6.56652">
        <ele>2371</ele>
        <time>2021-04-08T08:25:51Z</time>
      </trkpt>
      <trkpt lat="44.45151" lon="6.56652">
        <ele>2371</ele>
        <time>2021-04-08T08:25:52Z</time>
      </trkpt>
      <trkpt lat="44.45151" lon="6.56652">
        <ele>2371</ele>
        <time>2021-04-08T08:25:53Z</time>
      </trkpt>
      <trkpt lat="44.45151" lon="6.56652">
        <ele>2371</ele>
        <time>2021-04-08T08:25:54Z</time>
      </trkpt>
      <trkpt lat="44.45151" lon="6.56652">
        <ele>2371</ele>
        <time>2021-04-08T08:25:55Z</time>
      </trkpt>
      <trkpt lat="44.45151" lon="6.56652">
        <ele>2371</ele>
        <time>2021-04-08T08:25:56Z</time>
      </trkpt>
      <trkpt lat="44.45151" lon="6.56652">
        <ele>2371</ele>
        <time>2021-04-08T08:25:57Z</time>
      </trkpt>
      <trkpt lat="44.45151" lon="6.56652">
        <ele>2371</ele>
        <time>2021-04-08T08:25:58Z</time>
      </trkpt>
      <trkpt lat="44.45151" lon="6.56652">
        <ele>2371</ele>
        <time>2021-04-08T08:25:59Z</time>
      </trkpt>
      <trkpt lat="44.45151" lon="6.56652">
        <ele>2371</ele>
        <time>2021-04-08T08:26:00Z</time>
      </trkpt>
      <trkpt lat="44.45151" lon="6.56652">
        <ele>2371</ele>
        <time>2021-04-08T08:26:01Z</time>
      </trkpt>
      <trkpt lat="44.45151" lon="6.56652">
        <ele>2371</ele>
        <time>2021-04-08T08:26:02Z</time>
      </trkpt>
      <trkpt lat="44.45151" lon="6.56652">
        <ele>2371</ele>
        <time>2021-04-08T08:26:03Z</time>
      </trkpt>
      <trkpt lat="44.45151" lon="6.56652">
        <ele>2371</ele>
        <time>2021-04-08T08:26:04Z</time>
      </trkpt>
      <trkpt lat="44.45151" lon="6.56652">
        <ele>2371</ele>
        <time>2021-04-08T08:26:05Z</time>
      </trkpt>
      <trkpt lat="44.45151" lon="6.56652">
        <ele>2371</ele>
        <time>2021-04-08T08:26:06Z</time>
      </trkpt>
      <trkpt lat="44.45151" lon="6.56652">
        <ele>2371</ele>
        <time>2021-04-08T08:26:07Z</time>
      </trkpt>
      <trkpt lat="44.45151" lon="6.56652">
        <ele>2371</ele>
        <time>2021-04-08T08:26:08Z</time>
      </trkpt>
      <trkpt lat="44.45151" lon="6.56652">
        <ele>2371</ele>
        <time>2021-04-08T08:26:09Z</time>
      </trkpt>
      <trkpt lat="44.45151" lon="6.56652">
        <ele>2371</ele>
        <time>2021-04-08T08:26:10Z</time>
      </trkpt>
      <trkpt lat="44.45151" lon="6.56652">
        <ele>2371</ele>
        <time>2021-04-08T08:26:11Z</time>
      </trkpt>
      <trkpt lat="44.45151" lon="6.56652">
        <ele>2371</ele>
        <time>2021-04-08T08:26:12Z</time>
      </trkpt>
      <trkpt lat="44.45151" lon="6.56652">
        <ele>2371</ele>
        <time>2021-04-08T08:26:13Z</time>
      </trkpt>
      <trkpt lat="44.45151" lon="6.56652">
        <ele>2371</ele>
        <time>2021-04-08T08:26:14Z</time>
      </trkpt>
      <trkpt lat="44.45151" lon="6.56652">
        <ele>2371</ele>
        <time>2021-04-08T08:26:15Z</time>
      </trkpt>
      <trkpt lat="44.45151" lon="6.56652">
        <ele>2371</ele>
        <time>2021-04-08T08:26:16Z</time>
      </trkpt>
      <trkpt lat="44.45151" lon="6.56652">
        <ele>2371</ele>
        <time>2021-04-08T08:26:17Z</time>
      </trkpt>
      <trkpt lat="44.45151" lon="6.56652">
        <ele>2371</ele>
        <time>2021-04-08T08:26:18Z</time>
      </trkpt>
      <trkpt lat="44.45151" lon="6.56652">
        <ele>2371</ele>
        <time>2021-04-08T08:26:19Z</time>
      </trkpt>
      <trkpt lat="44.45151" lon="6.56652">
        <ele>2371</ele>
        <time>2021-04-08T08:26:20Z</time>
      </trkpt>
      <trkpt lat="44.45151" lon="6.56652">
        <ele>2371</ele>
        <time>2021-04-08T08:26:21Z</time>
      </trkpt>
      <trkpt lat="44.45151" lon="6.56652">
        <ele>2371</ele>
        <time>2021-04-08T08:26:22Z</time>
      </trkpt>
      <trkpt lat="44.45151" lon="6.56652">
        <ele>2371</ele>
        <time>2021-04-08T08:26:23Z</time>
      </trkpt>
      <trkpt lat="44.45151" lon="6.56652">
        <ele>2371</ele>
        <time>2021-04-08T08:26:24Z</time>
      </trkpt>
      <trkpt lat="44.45151" lon="6.56652">
        <ele>2371</ele>
        <time>2021-04-08T08:26:25Z</time>
      </trkpt>
      <trkpt lat="44.45151" lon="6.56652">
        <ele>2371</ele>
        <time>2021-04-08T08:26:26Z</time>
      </trkpt>
      <trkpt lat="44.45151" lon="6.56652">
        <ele>2371</ele>
        <time>2021-04-08T08:26:27Z</time>
      </trkpt>
      <trkpt lat="44.45151" lon="6.56652">
        <ele>2371</ele>
        <time>2021-04-08T08:26:28Z</time>
      </trkpt>
      <trkpt lat="44.45151" lon="6.56652">
        <ele>2371</ele>
        <time>2021-04-08T08:26:29Z</time>
      </trkpt>
      <trkpt lat="44.45151" lon="6.56652">
        <ele>2371</ele>
        <time>2021-04-08T08:26:30Z</time>
      </trkpt>
      <trkpt lat="44.45151" lon="6.56652">
        <ele>2371</ele>
        <time>2021-04-08T08:26:31Z</time>
      </trkpt>
      <trkpt lat="44.45151" lon="6.56652">
        <ele>2371</ele>
        <time>2021-04-08T08:26:32Z</time>
      </trkpt>
      <trkpt lat="44.45151" lon="6.56652">
        <ele>2371</ele>
        <time>2021-04-08T08:26:33Z</time>
      </trkpt>
      <trkpt lat="44.45151" lon="6.5665">
        <ele>2371</ele>
        <time>2021-04-08T08:26:34Z</time>
      </trkpt>
      <trkpt lat="44.45151" lon="6.56651">
        <ele>2371</ele>
        <time>2021-04-08T08:26:35Z</time>
      </trkpt>
      <trkpt lat="44.45151" lon="6.56651">
        <ele>2371</ele>
        <time>2021-04-08T08:26:36Z</time>
      </trkpt>
      <trkpt lat="44.45151" lon="6.56651">
        <ele>2371</ele>
        <time>2021-04-08T08:26:37Z</time>
      </trkpt>
      <trkpt lat="44.45151" lon="6.56651">
        <ele>2371</ele>
        <time>2021-04-08T08:26:38Z</time>
      </trkpt>
      <trkpt lat="44.45151" lon="6.56651">
        <ele>2372</ele>
        <time>2021-04-08T08:26:39Z</time>
      </trkpt>
      <trkpt lat="44.45151" lon="6.56651">
        <ele>2372</ele>
        <time>2021-04-08T08:26:40Z</time>
      </trkpt>
      <trkpt lat="44.45151" lon="6.56651">
        <ele>2372</ele>
        <time>2021-04-08T08:26:41Z</time>
      </trkpt>
      <trkpt lat="44.45151" lon="6.56651">
        <ele>2372</ele>
        <time>2021-04-08T08:26:42Z</time>
      </trkpt>
      <trkpt lat="44.45151" lon="6.56651">
        <ele>2372</ele>
        <time>2021-04-08T08:26:43Z</time>
      </trkpt>
      <trkpt lat="44.45151" lon="6.56651">
        <ele>2372</ele>
        <time>2021-04-08T08:26:44Z</time>
      </trkpt>
      <trkpt lat="44.45151" lon="6.56651">
        <ele>2372</ele>
        <time>2021-04-08T08:26:45Z</time>
      </trkpt>
      <trkpt lat="44.45151" lon="6.56651">
        <ele>2372</ele>
        <time>2021-04-08T08:26:46Z</time>
      </trkpt>
      <trkpt lat="44.45151" lon="6.56651">
        <ele>2372</ele>
        <time>2021-04-08T08:26:47Z</time>
      </trkpt>
      <trkpt lat="44.45151" lon="6.56651">
        <ele>2372</ele>
        <time>2021-04-08T08:26:48Z</time>
      </trkpt>
      <trkpt lat="44.45151" lon="6.56651">
        <ele>2372</ele>
        <time>2021-04-08T08:26:49Z</time>
      </trkpt>
      <trkpt lat="44.45151" lon="6.56651">
        <ele>2372</ele>
        <time>2021-04-08T08:26:50Z</time>
      </trkpt>
      <trkpt lat="44.45151" lon="6.56651">
        <ele>2372</ele>
        <time>2021-04-08T08:26:51Z</time>
      </trkpt>
      <trkpt lat="44.45151" lon="6.56651">
        <ele>2372</ele>
        <time>2021-04-08T08:26:52Z</time>
      </trkpt>
      <trkpt lat="44.45151" lon="6.56651">
        <ele>2372</ele>
        <time>2021-04-08T08:26:53Z</time>
      </trkpt>
      <trkpt lat="44.45151" lon="6.56651">
        <ele>2372</ele>
        <time>2021-04-08T08:26:54Z</time>
      </trkpt>
      <trkpt lat="44.45151" lon="6.56651">
        <ele>2372</ele>
        <time>2021-04-08T08:26:55Z</time>
      </trkpt>
      <trkpt lat="44.45151" lon="6.56651">
        <ele>2372</ele>
        <time>2021-04-08T08:26:56Z</time>
      </trkpt>
      <trkpt lat="44.45151" lon="6.56651">
        <ele>2372</ele>
        <time>2021-04-08T08:26:57Z</time>
      </trkpt>
      <trkpt lat="44.45151" lon="6.56651">
        <ele>2372</ele>
        <time>2021-04-08T08:26:58Z</time>
      </trkpt>
      <trkpt lat="44.45151" lon="6.56651">
        <ele>2372</ele>
        <time>2021-04-08T08:26:59Z</time>
      </trkpt>
      <trkpt lat="44.45151" lon="6.56651">
        <ele>2372</ele>
        <time>2021-04-08T08:27:00Z</time>
      </trkpt>
      <trkpt lat="44.45151" lon="6.56651">
        <ele>2372</ele>
        <time>2021-04-08T08:27:01Z</time>
      </trkpt>
      <trkpt lat="44.45151" lon="6.56651">
        <ele>2372</ele>
        <time>2021-04-08T08:27:02Z</time>
      </trkpt>
      <trkpt lat="44.45151" lon="6.56651">
        <ele>2372</ele>
        <time>2021-04-08T08:27:03Z</time>
      </trkpt>
      <trkpt lat="44.45151" lon="6.56651">
        <ele>2372</ele>
        <time>2021-04-08T08:27:04Z</time>
      </trkpt>
      <trkpt lat="44.45151" lon="6.56652">
        <ele>2372</ele>
        <time>2021-04-08T08:27:05Z</time>
      </trkpt>
      <trkpt lat="44.45151" lon="6.56652">
        <ele>2372</ele>
        <time>2021-04-08T08:27:06Z</time>
      </trkpt>
      <trkpt lat="44.45151" lon="6.56652">
        <ele>2372</ele>
        <time>2021-04-08T08:27:07Z</time>
      </trkpt>
      <trkpt lat="44.45151" lon="6.56652">
        <ele>2372</ele>
        <time>2021-04-08T08:27:08Z</time>
      </trkpt>
      <trkpt lat="44.45151" lon="6.56652">
        <ele>2372</ele>
        <time>2021-04-08T08:27:09Z</time>
      </trkpt>
      <trkpt lat="44.45151" lon="6.56652">
        <ele>2372</ele>
        <time>2021-04-08T08:27:10Z</time>
      </trkpt>
      <trkpt lat="44.45151" lon="6.56652">
        <ele>2372</ele>
        <time>2021-04-08T08:27:11Z</time>
      </trkpt>
      <trkpt lat="44.45151" lon="6.56652">
        <ele>2372</ele>
        <time>2021-04-08T08:27:12Z</time>
      </trkpt>
      <trkpt lat="44.45151" lon="6.56652">
        <ele>2372</ele>
        <time>2021-04-08T08:27:13Z</time>
      </trkpt>
      <trkpt lat="44.45151" lon="6.56652">
        <ele>2372</ele>
        <time>2021-04-08T08:27:14Z</time>
      </trkpt>
      <trkpt lat="44.45151" lon="6.56652">
        <ele>2372</ele>
        <time>2021-04-08T08:27:15Z</time>
      </trkpt>
      <trkpt lat="44.45151" lon="6.56652">
        <ele>2372</ele>
        <time>2021-04-08T08:27:16Z</time>
      </trkpt>
      <trkpt lat="44.45151" lon="6.56652">
        <ele>2372</ele>
        <time>2021-04-08T08:27:17Z</time>
      </trkpt>
      <trkpt lat="44.45151" lon="6.56652">
        <ele>2372</ele>
        <time>2021-04-08T08:27:18Z</time>
      </trkpt>
      <trkpt lat="44.45151" lon="6.56652">
        <ele>2372</ele>
        <time>2021-04-08T08:27:19Z</time>
      </trkpt>
      <trkpt lat="44.45151" lon="6.56652">
        <ele>2372</ele>
        <time>2021-04-08T08:27:20Z</time>
      </trkpt>
      <trkpt lat="44.45151" lon="6.56652">
        <ele>2372</ele>
        <time>2021-04-08T08:27:21Z</time>
      </trkpt>
      <trkpt lat="44.45151" lon="6.56652">
        <ele>2372</ele>
        <time>2021-04-08T08:27:22Z</time>
      </trkpt>
      <trkpt lat="44.45151" lon="6.56652">
        <ele>2372</ele>
        <time>2021-04-08T08:27:23Z</time>
      </trkpt>
      <trkpt lat="44.45151" lon="6.56652">
        <ele>2372</ele>
        <time>2021-04-08T08:27:24Z</time>
      </trkpt>
      <trkpt lat="44.45151" lon="6.56652">
        <ele>2372</ele>
        <time>2021-04-08T08:27:25Z</time>
      </trkpt>
      <trkpt lat="44.45151" lon="6.56652">
        <ele>2373</ele>
        <time>2021-04-08T08:27:26Z</time>
      </trkpt>
      <trkpt lat="44.45151" lon="6.56652">
        <ele>2373</ele>
        <time>2021-04-08T08:27:27Z</time>
      </trkpt>
      <trkpt lat="44.45151" lon="6.56652">
        <ele>2373</ele>
        <time>2021-04-08T08:27:28Z</time>
      </trkpt>
      <trkpt lat="44.45151" lon="6.56652">
        <ele>2373</ele>
        <time>2021-04-08T08:27:29Z</time>
      </trkpt>
      <trkpt lat="44.45151" lon="6.56652">
        <ele>2373</ele>
        <time>2021-04-08T08:27:30Z</time>
      </trkpt>
      <trkpt lat="44.45151" lon="6.56652">
        <ele>2373</ele>
        <time>2021-04-08T08:27:31Z</time>
      </trkpt>
      <trkpt lat="44.45151" lon="6.56652">
        <ele>2373</ele>
        <time>2021-04-08T08:27:32Z</time>
      </trkpt>
      <trkpt lat="44.45151" lon="6.56652">
        <ele>2373</ele>
        <time>2021-04-08T08:27:33Z</time>
      </trkpt>
      <trkpt lat="44.45151" lon="6.56652">
        <ele>2373</ele>
        <time>2021-04-08T08:27:34Z</time>
      </trkpt>
      <trkpt lat="44.45151" lon="6.56652">
        <ele>2373</ele>
        <time>2021-04-08T08:27:35Z</time>
      </trkpt>
      <trkpt lat="44.45151" lon="6.56652">
        <ele>2373</ele>
        <time>2021-04-08T08:27:36Z</time>
      </trkpt>
      <trkpt lat="44.45151" lon="6.56652">
        <ele>2373</ele>
        <time>2021-04-08T08:27:37Z</time>
      </trkpt>
      <trkpt lat="44.45151" lon="6.56652">
        <ele>2373</ele>
        <time>2021-04-08T08:27:38Z</time>
      </trkpt>
      <trkpt lat="44.45151" lon="6.56652">
        <ele>2373</ele>
        <time>2021-04-08T08:27:39Z</time>
      </trkpt>
      <trkpt lat="44.45151" lon="6.56652">
        <ele>2373</ele>
        <time>2021-04-08T08:27:40Z</time>
      </trkpt>
      <trkpt lat="44.45151" lon="6.56652">
        <ele>2373</ele>
        <time>2021-04-08T08:27:41Z</time>
      </trkpt>
      <trkpt lat="44.45151" lon="6.56652">
        <ele>2373</ele>
        <time>2021-04-08T08:27:42Z</time>
      </trkpt>
      <trkpt lat="44.45151" lon="6.56652">
        <ele>2373</ele>
        <time>2021-04-08T08:27:43Z</time>
      </trkpt>
      <trkpt lat="44.45151" lon="6.56652">
        <ele>2373</ele>
        <time>2021-04-08T08:27:44Z</time>
      </trkpt>
      <trkpt lat="44.45151" lon="6.56652">
        <ele>2373</ele>
        <time>2021-04-08T08:27:45Z</time>
      </trkpt>
      <trkpt lat="44.45151" lon="6.56652">
        <ele>2373</ele>
        <time>2021-04-08T08:27:46Z</time>
      </trkpt>
      <trkpt lat="44.45151" lon="6.56652">
        <ele>2373</ele>
        <time>2021-04-08T08:27:47Z</time>
      </trkpt>
      <trkpt lat="44.45151" lon="6.56652">
        <ele>2373</ele>
        <time>2021-04-08T08:27:48Z</time>
      </trkpt>
      <trkpt lat="44.45151" lon="6.56652">
        <ele>2373</ele>
        <time>2021-04-08T08:27:49Z</time>
      </trkpt>
      <trkpt lat="44.45151" lon="6.56652">
        <ele>2373</ele>
        <time>2021-04-08T08:27:50Z</time>
      </trkpt>
      <trkpt lat="44.45151" lon="6.56652">
        <ele>2373</ele>
        <time>2021-04-08T08:27:51Z</time>
      </trkpt>
      <trkpt lat="44.45151" lon="6.56652">
        <ele>2373</ele>
        <time>2021-04-08T08:27:52Z</time>
      </trkpt>
      <trkpt lat="44.45151" lon="6.56652">
        <ele>2373</ele>
        <time>2021-04-08T08:27:53Z</time>
      </trkpt>
      <trkpt lat="44.45151" lon="6.56652">
        <ele>2373</ele>
        <time>2021-04-08T08:27:54Z</time>
      </trkpt>
      <trkpt lat="44.45151" lon="6.56652">
        <ele>2373</ele>
        <time>2021-04-08T08:27:55Z</time>
      </trkpt>
      <trkpt lat="44.45151" lon="6.56652">
        <ele>2373</ele>
        <time>2021-04-08T08:27:56Z</time>
      </trkpt>
      <trkpt lat="44.45151" lon="6.56652">
        <ele>2373</ele>
        <time>2021-04-08T08:27:57Z</time>
      </trkpt>
      <trkpt lat="44.45151" lon="6.56652">
        <ele>2373</ele>
        <time>2021-04-08T08:27:58Z</time>
      </trkpt>
      <trkpt lat="44.45151" lon="6.56652">
        <ele>2373</ele>
        <time>2021-04-08T08:27:59Z</time>
      </trkpt>
      <trkpt lat="44.45151" lon="6.56652">
        <ele>2373</ele>
        <time>2021-04-08T08:28:00Z</time>
      </trkpt>
      <trkpt lat="44.45151" lon="6.56652">
        <ele>2373</ele>
        <time>2021-04-08T08:28:01Z</time>
      </trkpt>
      <trkpt lat="44.45151" lon="6.56652">
        <ele>2373</ele>
        <time>2021-04-08T08:28:02Z</time>
      </trkpt>
      <trkpt lat="44.45151" lon="6.56652">
        <ele>2373</ele>
        <time>2021-04-08T08:28:03Z</time>
      </trkpt>
      <trkpt lat="44.45151" lon="6.56653">
        <ele>2373</ele>
        <time>2021-04-08T08:28:04Z</time>
      </trkpt>
      <trkpt lat="44.45151" lon="6.56654">
        <ele>2377</ele>
        <time>2021-04-08T08:28:05Z</time>
      </trkpt>
      <trkpt lat="44.45151" lon="6.56654">
        <ele>2378</ele>
        <time>2021-04-08T08:28:06Z</time>
      </trkpt>
      <trkpt lat="44.45151" lon="6.56654">
        <ele>2378</ele>
        <time>2021-04-08T08:28:07Z</time>
      </trkpt>
      <trkpt lat="44.45151" lon="6.56654">
        <ele>2379</ele>
        <time>2021-04-08T08:28:08Z</time>
      </trkpt>
      <trkpt lat="44.45151" lon="6.56654">
        <ele>2379</ele>
        <time>2021-04-08T08:28:09Z</time>
      </trkpt>
      <trkpt lat="44.45151" lon="6.56654">
        <ele>2379</ele>
        <time>2021-04-08T08:28:10Z</time>
      </trkpt>
      <trkpt lat="44.45151" lon="6.56654">
        <ele>2379</ele>
        <time>2021-04-08T08:28:11Z</time>
      </trkpt>
      <trkpt lat="44.45151" lon="6.56654">
        <ele>2379</ele>
        <time>2021-04-08T08:28:12Z</time>
      </trkpt>
      <trkpt lat="44.45151" lon="6.56654">
        <ele>2379</ele>
        <time>2021-04-08T08:28:13Z</time>
      </trkpt>
      <trkpt lat="44.45151" lon="6.56654">
        <ele>2379</ele>
        <time>2021-04-08T08:28:14Z</time>
      </trkpt>
      <trkpt lat="44.45151" lon="6.56654">
        <ele>2379</ele>
        <time>2021-04-08T08:28:15Z</time>
      </trkpt>
      <trkpt lat="44.45151" lon="6.56654">
        <ele>2379</ele>
        <time>2021-04-08T08:28:16Z</time>
      </trkpt>
      <trkpt lat="44.45151" lon="6.56654">
        <ele>2379</ele>
        <time>2021-04-08T08:28:17Z</time>
      </trkpt>
      <trkpt lat="44.45151" lon="6.56654">
        <ele>2379</ele>
        <time>2021-04-08T08:28:18Z</time>
      </trkpt>
      <trkpt lat="44.45151" lon="6.56654">
        <ele>2379</ele>
        <time>2021-04-08T08:28:19Z</time>
      </trkpt>
      <trkpt lat="44.45151" lon="6.56654">
        <ele>2379</ele>
        <time>2021-04-08T08:28:20Z</time>
      </trkpt>
      <trkpt lat="44.45151" lon="6.56654">
        <ele>2379</ele>
        <time>2021-04-08T08:28:21Z</time>
      </trkpt>
      <trkpt lat="44.45151" lon="6.56654">
        <ele>2379</ele>
        <time>2021-04-08T08:28:22Z</time>
      </trkpt>
      <trkpt lat="44.45151" lon="6.56654">
        <ele>2379</ele>
        <time>2021-04-08T08:28:23Z</time>
      </trkpt>
      <trkpt lat="44.45151" lon="6.56654">
        <ele>2379</ele>
        <time>2021-04-08T08:28:24Z</time>
      </trkpt>
      <trkpt lat="44.45151" lon="6.56654">
        <ele>2379</ele>
        <time>2021-04-08T08:28:25Z</time>
      </trkpt>
      <trkpt lat="44.45151" lon="6.56654">
        <ele>2379</ele>
        <time>2021-04-08T08:28:26Z</time>
      </trkpt>
      <trkpt lat="44.45151" lon="6.56654">
        <ele>2379</ele>
        <time>2021-04-08T08:28:27Z</time>
      </trkpt>
      <trkpt lat="44.45151" lon="6.56654">
        <ele>2379</ele>
        <time>2021-04-08T08:28:28Z</time>
      </trkpt>
      <trkpt lat="44.45151" lon="6.56654">
        <ele>2379</ele>
        <time>2021-04-08T08:28:29Z</time>
      </trkpt>
      <trkpt lat="44.45151" lon="6.56654">
        <ele>2379</ele>
        <time>2021-04-08T08:28:30Z</time>
      </trkpt>
      <trkpt lat="44.45151" lon="6.56654">
        <ele>2379</ele>
        <time>2021-04-08T08:28:31Z</time>
      </trkpt>
      <trkpt lat="44.45151" lon="6.56654">
        <ele>2379</ele>
        <time>2021-04-08T08:28:32Z</time>
      </trkpt>
      <trkpt lat="44.45151" lon="6.56654">
        <ele>2379</ele>
        <time>2021-04-08T08:28:33Z</time>
      </trkpt>
      <trkpt lat="44.45151" lon="6.56654">
        <ele>2379</ele>
        <time>2021-04-08T08:28:34Z</time>
      </trkpt>
      <trkpt lat="44.45151" lon="6.56654">
        <ele>2379</ele>
        <time>2021-04-08T08:28:35Z</time>
      </trkpt>
      <trkpt lat="44.45151" lon="6.56654">
        <ele>2379</ele>
        <time>2021-04-08T08:28:36Z</time>
      </trkpt>
      <trkpt lat="44.45151" lon="6.56654">
        <ele>2379</ele>
        <time>2021-04-08T08:28:37Z</time>
      </trkpt>
      <trkpt lat="44.45151" lon="6.56654">
        <ele>2379</ele>
        <time>2021-04-08T08:28:38Z</time>
      </trkpt>
      <trkpt lat="44.45151" lon="6.56654">
        <ele>2379</ele>
        <time>2021-04-08T08:28:39Z</time>
      </trkpt>
      <trkpt lat="44.45151" lon="6.56654">
        <ele>2379</ele>
        <time>2021-04-08T08:28:40Z</time>
      </trkpt>
      <trkpt lat="44.45151" lon="6.56654">
        <ele>2379</ele>
        <time>2021-04-08T08:28:41Z</time>
      </trkpt>
      <trkpt lat="44.45151" lon="6.56654">
        <ele>2379</ele>
        <time>2021-04-08T08:28:42Z</time>
      </trkpt>
      <trkpt lat="44.45151" lon="6.56654">
        <ele>2379</ele>
        <time>2021-04-08T08:28:43Z</time>
      </trkpt>
      <trkpt lat="44.45151" lon="6.56654">
        <ele>2379</ele>
        <time>2021-04-08T08:28:44Z</time>
      </trkpt>
      <trkpt lat="44.45151" lon="6.56654">
        <ele>2379</ele>
        <time>2021-04-08T08:28:45Z</time>
      </trkpt>
      <trkpt lat="44.45151" lon="6.56654">
        <ele>2379</ele>
        <time>2021-04-08T08:28:46Z</time>
      </trkpt>
      <trkpt lat="44.45151" lon="6.56654">
        <ele>2379</ele>
        <time>2021-04-08T08:28:47Z</time>
      </trkpt>
      <trkpt lat="44.45151" lon="6.56654">
        <ele>2379</ele>
        <time>2021-04-08T08:28:48Z</time>
      </trkpt>
      <trkpt lat="44.45151" lon="6.56654">
        <ele>2379</ele>
        <time>2021-04-08T08:28:49Z</time>
      </trkpt>
      <trkpt lat="44.45151" lon="6.56654">
        <ele>2379</ele>
        <time>2021-04-08T08:28:50Z</time>
      </trkpt>
      <trkpt lat="44.45151" lon="6.56654">
        <ele>2379</ele>
        <time>2021-04-08T08:28:51Z</time>
      </trkpt>
      <trkpt lat="44.45151" lon="6.56654">
        <ele>2379</ele>
        <time>2021-04-08T08:28:52Z</time>
      </trkpt>
      <trkpt lat="44.45151" lon="6.56654">
        <ele>2379</ele>
        <time>2021-04-08T08:28:53Z</time>
      </trkpt>
      <trkpt lat="44.45151" lon="6.56654">
        <ele>2379</ele>
        <time>2021-04-08T08:28:54Z</time>
      </trkpt>
      <trkpt lat="44.45151" lon="6.56654">
        <ele>2379</ele>
        <time>2021-04-08T08:28:55Z</time>
      </trkpt>
      <trkpt lat="44.45151" lon="6.56654">
        <ele>2379</ele>
        <time>2021-04-08T08:28:56Z</time>
      </trkpt>
      <trkpt lat="44.45151" lon="6.56654">
        <ele>2379</ele>
        <time>2021-04-08T08:28:57Z</time>
      </trkpt>
      <trkpt lat="44.45151" lon="6.56654">
        <ele>2379</ele>
        <time>2021-04-08T08:28:58Z</time>
      </trkpt>
      <trkpt lat="44.45151" lon="6.56654">
        <ele>2379</ele>
        <time>2021-04-08T08:28:59Z</time>
      </trkpt>
      <trkpt lat="44.45151" lon="6.56654">
        <ele>2379</ele>
        <time>2021-04-08T08:29:00Z</time>
      </trkpt>
      <trkpt lat="44.45151" lon="6.56654">
        <ele>2379</ele>
        <time>2021-04-08T08:29:01Z</time>
      </trkpt>
      <trkpt lat="44.45151" lon="6.56654">
        <ele>2379</ele>
        <time>2021-04-08T08:29:02Z</time>
      </trkpt>
      <trkpt lat="44.45151" lon="6.56654">
        <ele>2379</ele>
        <time>2021-04-08T08:29:03Z</time>
      </trkpt>
      <trkpt lat="44.45151" lon="6.56654">
        <ele>2379</ele>
        <time>2021-04-08T08:29:04Z</time>
      </trkpt>
      <trkpt lat="44.45151" lon="6.56654">
        <ele>2379</ele>
        <time>2021-04-08T08:29:05Z</time>
      </trkpt>
      <trkpt lat="44.45151" lon="6.56654">
        <ele>2379</ele>
        <time>2021-04-08T08:29:06Z</time>
      </trkpt>
      <trkpt lat="44.45151" lon="6.56654">
        <ele>2379</ele>
        <time>2021-04-08T08:29:07Z</time>
      </trkpt>
      <trkpt lat="44.45151" lon="6.56654">
        <ele>2379</ele>
        <time>2021-04-08T08:29:08Z</time>
      </trkpt>
      <trkpt lat="44.45151" lon="6.56654">
        <ele>2379</ele>
        <time>2021-04-08T08:29:09Z</time>
      </trkpt>
      <trkpt lat="44.45151" lon="6.56654">
        <ele>2379</ele>
        <time>2021-04-08T08:29:10Z</time>
      </trkpt>
      <trkpt lat="44.45151" lon="6.56654">
        <ele>2379</ele>
        <time>2021-04-08T08:29:11Z</time>
      </trkpt>
      <trkpt lat="44.45151" lon="6.56654">
        <ele>2379</ele>
        <time>2021-04-08T08:29:12Z</time>
      </trkpt>
      <trkpt lat="44.45151" lon="6.56654">
        <ele>2379</ele>
        <time>2021-04-08T08:29:13Z</time>
      </trkpt>
      <trkpt lat="44.45151" lon="6.56654">
        <ele>2379</ele>
        <time>2021-04-08T08:29:14Z</time>
      </trkpt>
      <trkpt lat="44.45151" lon="6.56654">
        <ele>2379</ele>
        <time>2021-04-08T08:29:15Z</time>
      </trkpt>
      <trkpt lat="44.45151" lon="6.56654">
        <ele>2379</ele>
        <time>2021-04-08T08:29:16Z</time>
      </trkpt>
      <trkpt lat="44.45151" lon="6.56654">
        <ele>2379</ele>
        <time>2021-04-08T08:29:17Z</time>
      </trkpt>
      <trkpt lat="44.45151" lon="6.56654">
        <ele>2379</ele>
        <time>2021-04-08T08:29:18Z</time>
      </trkpt>
      <trkpt lat="44.45151" lon="6.56654">
        <ele>2379</ele>
        <time>2021-04-08T08:29:19Z</time>
      </trkpt>
      <trkpt lat="44.45151" lon="6.56654">
        <ele>2379</ele>
        <time>2021-04-08T08:29:20Z</time>
      </trkpt>
      <trkpt lat="44.45151" lon="6.56654">
        <ele>2379</ele>
        <time>2021-04-08T08:29:21Z</time>
      </trkpt>
      <trkpt lat="44.45151" lon="6.56654">
        <ele>2379</ele>
        <time>2021-04-08T08:29:22Z</time>
      </trkpt>
      <trkpt lat="44.45151" lon="6.56654">
        <ele>2379</ele>
        <time>2021-04-08T08:29:23Z</time>
      </trkpt>
      <trkpt lat="44.45151" lon="6.56654">
        <ele>2379</ele>
        <time>2021-04-08T08:29:24Z</time>
      </trkpt>
      <trkpt lat="44.45151" lon="6.56654">
        <ele>2379</ele>
        <time>2021-04-08T08:29:25Z</time>
      </trkpt>
      <trkpt lat="44.45151" lon="6.56654">
        <ele>2379</ele>
        <time>2021-04-08T08:29:26Z</time>
      </trkpt>
      <trkpt lat="44.45151" lon="6.56654">
        <ele>2379</ele>
        <time>2021-04-08T08:29:27Z</time>
      </trkpt>
      <trkpt lat="44.45151" lon="6.56654">
        <ele>2379</ele>
        <time>2021-04-08T08:29:28Z</time>
      </trkpt>
      <trkpt lat="44.45151" lon="6.56654">
        <ele>2379</ele>
        <time>2021-04-08T08:29:29Z</time>
      </trkpt>
      <trkpt lat="44.45151" lon="6.56654">
        <ele>2379</ele>
        <time>2021-04-08T08:29:30Z</time>
      </trkpt>
      <trkpt lat="44.45151" lon="6.56654">
        <ele>2379</ele>
        <time>2021-04-08T08:29:31Z</time>
      </trkpt>
      <trkpt lat="44.45151" lon="6.56654">
        <ele>2379</ele>
        <time>2021-04-08T08:29:32Z</time>
      </trkpt>
      <trkpt lat="44.45151" lon="6.56654">
        <ele>2379</ele>
        <time>2021-04-08T08:29:33Z</time>
      </trkpt>
      <trkpt lat="44.45151" lon="6.56654">
        <ele>2379</ele>
        <time>2021-04-08T08:29:34Z</time>
      </trkpt>
      <trkpt lat="44.45151" lon="6.56654">
        <ele>2379</ele>
        <time>2021-04-08T08:29:35Z</time>
      </trkpt>
      <trkpt lat="44.45151" lon="6.56654">
        <ele>2379</ele>
        <time>2021-04-08T08:29:36Z</time>
      </trkpt>
      <trkpt lat="44.45151" lon="6.56654">
        <ele>2379</ele>
        <time>2021-04-08T08:29:37Z</time>
      </trkpt>
      <trkpt lat="44.45151" lon="6.56654">
        <ele>2379</ele>
        <time>2021-04-08T08:29:38Z</time>
      </trkpt>
      <trkpt lat="44.45151" lon="6.56654">
        <ele>2379</ele>
        <time>2021-04-08T08:29:39Z</time>
      </trkpt>
      <trkpt lat="44.45151" lon="6.56654">
        <ele>2379</ele>
        <time>2021-04-08T08:29:40Z</time>
      </trkpt>
      <trkpt lat="44.45151" lon="6.56654">
        <ele>2379</ele>
        <time>2021-04-08T08:29:41Z</time>
      </trkpt>
      <trkpt lat="44.45151" lon="6.56654">
        <ele>2379</ele>
        <time>2021-04-08T08:29:42Z</time>
      </trkpt>
      <trkpt lat="44.45151" lon="6.56654">
        <ele>2379</ele>
        <time>2021-04-08T08:29:43Z</time>
      </trkpt>
      <trkpt lat="44.45151" lon="6.56654">
        <ele>2379</ele>
        <time>2021-04-08T08:29:44Z</time>
      </trkpt>
      <trkpt lat="44.45151" lon="6.56654">
        <ele>2379</ele>
        <time>2021-04-08T08:29:45Z</time>
      </trkpt>
      <trkpt lat="44.45151" lon="6.56654">
        <ele>2379</ele>
        <time>2021-04-08T08:29:46Z</time>
      </trkpt>
      <trkpt lat="44.45151" lon="6.56654">
        <ele>2379</ele>
        <time>2021-04-08T08:29:47Z</time>
      </trkpt>
      <trkpt lat="44.45151" lon="6.56654">
        <ele>2379</ele>
        <time>2021-04-08T08:29:48Z</time>
      </trkpt>
      <trkpt lat="44.45151" lon="6.56654">
        <ele>2379</ele>
        <time>2021-04-08T08:29:49Z</time>
      </trkpt>
      <trkpt lat="44.45151" lon="6.56654">
        <ele>2379</ele>
        <time>2021-04-08T08:29:50Z</time>
      </trkpt>
      <trkpt lat="44.45151" lon="6.56654">
        <ele>2379</ele>
        <time>2021-04-08T08:29:51Z</time>
      </trkpt>
      <trkpt lat="44.45151" lon="6.56654">
        <ele>2379</ele>
        <time>2021-04-08T08:29:52Z</time>
      </trkpt>
      <trkpt lat="44.45151" lon="6.56654">
        <ele>2379</ele>
        <time>2021-04-08T08:29:53Z</time>
      </trkpt>
      <trkpt lat="44.45151" lon="6.56654">
        <ele>2379</ele>
        <time>2021-04-08T08:29:54Z</time>
      </trkpt>
      <trkpt lat="44.45151" lon="6.56654">
        <ele>2379</ele>
        <time>2021-04-08T08:29:55Z</time>
      </trkpt>
      <trkpt lat="44.45151" lon="6.56654">
        <ele>2379</ele>
        <time>2021-04-08T08:29:56Z</time>
      </trkpt>
      <trkpt lat="44.45151" lon="6.56654">
        <ele>2379</ele>
        <time>2021-04-08T08:29:57Z</time>
      </trkpt>
      <trkpt lat="44.45151" lon="6.56654">
        <ele>2379</ele>
        <time>2021-04-08T08:29:58Z</time>
      </trkpt>
      <trkpt lat="44.45151" lon="6.56654">
        <ele>2379</ele>
        <time>2021-04-08T08:29:59Z</time>
      </trkpt>
      <trkpt lat="44.45151" lon="6.56654">
        <ele>2379</ele>
        <time>2021-04-08T08:30:00Z</time>
      </trkpt>
      <trkpt lat="44.45151" lon="6.56654">
        <ele>2379</ele>
        <time>2021-04-08T08:30:01Z</time>
      </trkpt>
      <trkpt lat="44.45151" lon="6.56654">
        <ele>2379</ele>
        <time>2021-04-08T08:30:02Z</time>
      </trkpt>
      <trkpt lat="44.45151" lon="6.56654">
        <ele>2379</ele>
        <time>2021-04-08T08:30:03Z</time>
      </trkpt>
      <trkpt lat="44.45151" lon="6.56654">
        <ele>2379</ele>
        <time>2021-04-08T08:30:04Z</time>
      </trkpt>
      <trkpt lat="44.45151" lon="6.56654">
        <ele>2379</ele>
        <time>2021-04-08T08:30:05Z</time>
      </trkpt>
      <trkpt lat="44.45151" lon="6.56654">
        <ele>2379</ele>
        <time>2021-04-08T08:30:06Z</time>
      </trkpt>
      <trkpt lat="44.45151" lon="6.56654">
        <ele>2379</ele>
        <time>2021-04-08T08:30:07Z</time>
      </trkpt>
      <trkpt lat="44.45151" lon="6.56654">
        <ele>2379</ele>
        <time>2021-04-08T08:30:08Z</time>
      </trkpt>
      <trkpt lat="44.45151" lon="6.56654">
        <ele>2379</ele>
        <time>2021-04-08T08:30:09Z</time>
      </trkpt>
      <trkpt lat="44.45151" lon="6.56654">
        <ele>2379</ele>
        <time>2021-04-08T08:30:10Z</time>
      </trkpt>
      <trkpt lat="44.45151" lon="6.56654">
        <ele>2379</ele>
        <time>2021-04-08T08:30:11Z</time>
      </trkpt>
      <trkpt lat="44.45151" lon="6.56654">
        <ele>2379</ele>
        <time>2021-04-08T08:30:12Z</time>
      </trkpt>
      <trkpt lat="44.45151" lon="6.56654">
        <ele>2379</ele>
        <time>2021-04-08T08:30:13Z</time>
      </trkpt>
      <trkpt lat="44.45151" lon="6.56654">
        <ele>2379</ele>
        <time>2021-04-08T08:30:14Z</time>
      </trkpt>
      <trkpt lat="44.45151" lon="6.56654">
        <ele>2379</ele>
        <time>2021-04-08T08:30:15Z</time>
      </trkpt>
      <trkpt lat="44.45151" lon="6.56654">
        <ele>2379</ele>
        <time>2021-04-08T08:30:16Z</time>
      </trkpt>
      <trkpt lat="44.45151" lon="6.56654">
        <ele>2379</ele>
        <time>2021-04-08T08:30:17Z</time>
      </trkpt>
      <trkpt lat="44.45151" lon="6.56654">
        <ele>2379</ele>
        <time>2021-04-08T08:30:18Z</time>
      </trkpt>
      <trkpt lat="44.45151" lon="6.56654">
        <ele>2379</ele>
        <time>2021-04-08T08:30:19Z</time>
      </trkpt>
      <trkpt lat="44.45151" lon="6.56654">
        <ele>2379</ele>
        <time>2021-04-08T08:30:20Z</time>
      </trkpt>
      <trkpt lat="44.45151" lon="6.56654">
        <ele>2379</ele>
        <time>2021-04-08T08:30:21Z</time>
      </trkpt>
      <trkpt lat="44.45151" lon="6.56654">
        <ele>2379</ele>
        <time>2021-04-08T08:30:22Z</time>
      </trkpt>
      <trkpt lat="44.45151" lon="6.56654">
        <ele>2379</ele>
        <time>2021-04-08T08:30:23Z</time>
      </trkpt>
      <trkpt lat="44.45151" lon="6.56654">
        <ele>2379</ele>
        <time>2021-04-08T08:30:24Z</time>
      </trkpt>
      <trkpt lat="44.45151" lon="6.56654">
        <ele>2379</ele>
        <time>2021-04-08T08:30:25Z</time>
      </trkpt>
      <trkpt lat="44.45151" lon="6.56654">
        <ele>2379</ele>
        <time>2021-04-08T08:30:26Z</time>
      </trkpt>
      <trkpt lat="44.45151" lon="6.56654">
        <ele>2379</ele>
        <time>2021-04-08T08:30:27Z</time>
      </trkpt>
      <trkpt lat="44.45151" lon="6.56654">
        <ele>2379</ele>
        <time>2021-04-08T08:30:28Z</time>
      </trkpt>
      <trkpt lat="44.45151" lon="6.56654">
        <ele>2379</ele>
        <time>2021-04-08T08:30:29Z</time>
      </trkpt>
      <trkpt lat="44.45151" lon="6.56654">
        <ele>2379</ele>
        <time>2021-04-08T08:30:30Z</time>
      </trkpt>
      <trkpt lat="44.45151" lon="6.56654">
        <ele>2379</ele>
        <time>2021-04-08T08:30:31Z</time>
      </trkpt>
      <trkpt lat="44.45151" lon="6.56654">
        <ele>2379</ele>
        <time>2021-04-08T08:30:32Z</time>
      </trkpt>
      <trkpt lat="44.45151" lon="6.56654">
        <ele>2379</ele>
        <time>2021-04-08T08:30:33Z</time>
      </trkpt>
      <trkpt lat="44.45151" lon="6.56654">
        <ele>2379</ele>
        <time>2021-04-08T08:30:34Z</time>
      </trkpt>
      <trkpt lat="44.45151" lon="6.56654">
        <ele>2379</ele>
        <time>2021-04-08T08:30:35Z</time>
      </trkpt>
      <trkpt lat="44.45151" lon="6.56654">
        <ele>2379</ele>
        <time>2021-04-08T08:30:36Z</time>
      </trkpt>
      <trkpt lat="44.45151" lon="6.56654">
        <ele>2379</ele>
        <time>2021-04-08T08:30:37Z</time>
      </trkpt>
      <trkpt lat="44.45151" lon="6.56654">
        <ele>2379</ele>
        <time>2021-04-08T08:30:38Z</time>
      </trkpt>
      <trkpt lat="44.45151" lon="6.56654">
        <ele>2379</ele>
        <time>2021-04-08T08:30:39Z</time>
      </trkpt>
      <trkpt lat="44.45151" lon="6.56654">
        <ele>2379</ele>
        <time>2021-04-08T08:30:40Z</time>
      </trkpt>
      <trkpt lat="44.45151" lon="6.56654">
        <ele>2379</ele>
        <time>2021-04-08T08:30:41Z</time>
      </trkpt>
      <trkpt lat="44.45151" lon="6.56654">
        <ele>2379</ele>
        <time>2021-04-08T08:30:42Z</time>
      </trkpt>
      <trkpt lat="44.45151" lon="6.56654">
        <ele>2379</ele>
        <time>2021-04-08T08:30:43Z</time>
      </trkpt>
      <trkpt lat="44.45151" lon="6.56654">
        <ele>2379</ele>
        <time>2021-04-08T08:30:44Z</time>
      </trkpt>
      <trkpt lat="44.45151" lon="6.56654">
        <ele>2379</ele>
        <time>2021-04-08T08:30:45Z</time>
      </trkpt>
      <trkpt lat="44.45151" lon="6.56654">
        <ele>2379</ele>
        <time>2021-04-08T08:30:46Z</time>
      </trkpt>
      <trkpt lat="44.45151" lon="6.56654">
        <ele>2379</ele>
        <time>2021-04-08T08:30:47Z</time>
      </trkpt>
      <trkpt lat="44.45151" lon="6.56654">
        <ele>2379</ele>
        <time>2021-04-08T08:30:48Z</time>
      </trkpt>
      <trkpt lat="44.45151" lon="6.56654">
        <ele>2379</ele>
        <time>2021-04-08T08:30:49Z</time>
      </trkpt>
      <trkpt lat="44.45151" lon="6.56654">
        <ele>2379</ele>
        <time>2021-04-08T08:30:50Z</time>
      </trkpt>
      <trkpt lat="44.45151" lon="6.56654">
        <ele>2379</ele>
        <time>2021-04-08T08:30:51Z</time>
      </trkpt>
      <trkpt lat="44.45151" lon="6.56654">
        <ele>2379</ele>
        <time>2021-04-08T08:30:52Z</time>
      </trkpt>
      <trkpt lat="44.45151" lon="6.56654">
        <ele>2379</ele>
        <time>2021-04-08T08:30:53Z</time>
      </trkpt>
      <trkpt lat="44.45149" lon="6.56655">
        <ele>2379</ele>
        <time>2021-04-08T08:30:54Z</time>
      </trkpt>
      <trkpt lat="44.45149" lon="6.56655">
        <ele>2379</ele>
        <time>2021-04-08T08:30:55Z</time>
      </trkpt>
      <trkpt lat="44.45148" lon="6.56655">
        <ele>2380</ele>
        <time>2021-04-08T08:30:56Z</time>
      </trkpt>
      <trkpt lat="44.45148" lon="6.56656">
        <ele>2381</ele>
        <time>2021-04-08T08:30:57Z</time>
      </trkpt>
      <trkpt lat="44.45147" lon="6.56657">
        <ele>2381</ele>
        <time>2021-04-08T08:30:58Z</time>
      </trkpt>
      <trkpt lat="44.45147" lon="6.56658">
        <ele>2381</ele>
        <time>2021-04-08T08:30:59Z</time>
      </trkpt>
      <trkpt lat="44.45146" lon="6.56658">
        <ele>2381</ele>
        <time>2021-04-08T08:31:00Z</time>
      </trkpt>
      <trkpt lat="44.45146" lon="6.56659">
        <ele>2381</ele>
        <time>2021-04-08T08:31:01Z</time>
      </trkpt>
      <trkpt lat="44.45145" lon="6.5666">
        <ele>2381</ele>
        <time>2021-04-08T08:31:02Z</time>
      </trkpt>
      <trkpt lat="44.45144" lon="6.5666">
        <ele>2381</ele>
        <time>2021-04-08T08:31:03Z</time>
      </trkpt>
      <trkpt lat="44.45144" lon="6.56661">
        <ele>2381</ele>
        <time>2021-04-08T08:31:04Z</time>
      </trkpt>
      <trkpt lat="44.45144" lon="6.56662">
        <ele>2381</ele>
        <time>2021-04-08T08:31:05Z</time>
      </trkpt>
      <trkpt lat="44.45143" lon="6.56662">
        <ele>2381</ele>
        <time>2021-04-08T08:31:06Z</time>
      </trkpt>
      <trkpt lat="44.45143" lon="6.56663">
        <ele>2381</ele>
        <time>2021-04-08T08:31:07Z</time>
      </trkpt>
      <trkpt lat="44.45143" lon="6.56664">
        <ele>2381</ele>
        <time>2021-04-08T08:31:08Z</time>
      </trkpt>
      <trkpt lat="44.45142" lon="6.56664">
        <ele>2381</ele>
        <time>2021-04-08T08:31:09Z</time>
      </trkpt>
      <trkpt lat="44.45142" lon="6.56664">
        <ele>2381</ele>
        <time>2021-04-08T08:31:10Z</time>
      </trkpt>
      <trkpt lat="44.45141" lon="6.56665">
        <ele>2381</ele>
        <time>2021-04-08T08:31:11Z</time>
      </trkpt>
      <trkpt lat="44.45141" lon="6.56665">
        <ele>2381</ele>
        <time>2021-04-08T08:31:12Z</time>
      </trkpt>
      <trkpt lat="44.45141" lon="6.56665">
        <ele>2380</ele>
        <time>2021-04-08T08:31:13Z</time>
      </trkpt>
      <trkpt lat="44.45141" lon="6.56666">
        <ele>2380</ele>
        <time>2021-04-08T08:31:14Z</time>
      </trkpt>
      <trkpt lat="44.45141" lon="6.56667">
        <ele>2380</ele>
        <time>2021-04-08T08:31:15Z</time>
      </trkpt>
      <trkpt lat="44.45141" lon="6.56667">
        <ele>2380</ele>
        <time>2021-04-08T08:31:16Z</time>
      </trkpt>
      <trkpt lat="44.45141" lon="6.56667">
        <ele>2380</ele>
        <time>2021-04-08T08:31:17Z</time>
      </trkpt>
      <trkpt lat="44.45141" lon="6.56668">
        <ele>2380</ele>
        <time>2021-04-08T08:31:18Z</time>
      </trkpt>
      <trkpt lat="44.45141" lon="6.56669">
        <ele>2380</ele>
        <time>2021-04-08T08:31:19Z</time>
      </trkpt>
      <trkpt lat="44.4514" lon="6.56669">
        <ele>2380</ele>
        <time>2021-04-08T08:31:20Z</time>
      </trkpt>
      <trkpt lat="44.4514" lon="6.56669">
        <ele>2380</ele>
        <time>2021-04-08T08:31:21Z</time>
      </trkpt>
      <trkpt lat="44.45139" lon="6.5667">
        <ele>2380</ele>
        <time>2021-04-08T08:31:22Z</time>
      </trkpt>
      <trkpt lat="44.45138" lon="6.5667">
        <ele>2380</ele>
        <time>2021-04-08T08:31:23Z</time>
      </trkpt>
      <trkpt lat="44.45138" lon="6.56671">
        <ele>2380</ele>
        <time>2021-04-08T08:31:24Z</time>
      </trkpt>
      <trkpt lat="44.45137" lon="6.56671">
        <ele>2380</ele>
        <time>2021-04-08T08:31:25Z</time>
      </trkpt>
      <trkpt lat="44.45136" lon="6.56671">
        <ele>2380</ele>
        <time>2021-04-08T08:31:26Z</time>
      </trkpt>
      <trkpt lat="44.45135" lon="6.56671">
        <ele>2380</ele>
        <time>2021-04-08T08:31:27Z</time>
      </trkpt>
      <trkpt lat="44.45135" lon="6.56672">
        <ele>2380</ele>
        <time>2021-04-08T08:31:28Z</time>
      </trkpt>
      <trkpt lat="44.45134" lon="6.56672">
        <ele>2379</ele>
        <time>2021-04-08T08:31:29Z</time>
      </trkpt>
      <trkpt lat="44.45134" lon="6.56672">
        <ele>2379</ele>
        <time>2021-04-08T08:31:30Z</time>
      </trkpt>
      <trkpt lat="44.45133" lon="6.56672">
        <ele>2379</ele>
        <time>2021-04-08T08:31:31Z</time>
      </trkpt>
      <trkpt lat="44.45133" lon="6.56673">
        <ele>2379</ele>
        <time>2021-04-08T08:31:32Z</time>
      </trkpt>
      <trkpt lat="44.45132" lon="6.56673">
        <ele>2379</ele>
        <time>2021-04-08T08:31:33Z</time>
      </trkpt>
      <trkpt lat="44.45131" lon="6.56673">
        <ele>2379</ele>
        <time>2021-04-08T08:31:34Z</time>
      </trkpt>
      <trkpt lat="44.45131" lon="6.56674">
        <ele>2379</ele>
        <time>2021-04-08T08:31:35Z</time>
      </trkpt>
      <trkpt lat="44.4513" lon="6.56674">
        <ele>2379</ele>
        <time>2021-04-08T08:31:36Z</time>
      </trkpt>
      <trkpt lat="44.4513" lon="6.56675">
        <ele>2379</ele>
        <time>2021-04-08T08:31:37Z</time>
      </trkpt>
      <trkpt lat="44.45129" lon="6.56675">
        <ele>2379</ele>
        <time>2021-04-08T08:31:38Z</time>
      </trkpt>
      <trkpt lat="44.45129" lon="6.56676">
        <ele>2379</ele>
        <time>2021-04-08T08:31:39Z</time>
      </trkpt>
      <trkpt lat="44.45129" lon="6.56676">
        <ele>2379</ele>
        <time>2021-04-08T08:31:40Z</time>
      </trkpt>
      <trkpt lat="44.45128" lon="6.56677">
        <ele>2379</ele>
        <time>2021-04-08T08:31:41Z</time>
      </trkpt>
      <trkpt lat="44.45128" lon="6.56677">
        <ele>2379</ele>
        <time>2021-04-08T08:31:42Z</time>
      </trkpt>
      <trkpt lat="44.45127" lon="6.56678">
        <ele>2379</ele>
        <time>2021-04-08T08:31:43Z</time>
      </trkpt>
      <trkpt lat="44.45127" lon="6.56678">
        <ele>2379</ele>
        <time>2021-04-08T08:31:44Z</time>
      </trkpt>
      <trkpt lat="44.45126" lon="6.56679">
        <ele>2379</ele>
        <time>2021-04-08T08:31:45Z</time>
      </trkpt>
      <trkpt lat="44.45126" lon="6.5668">
        <ele>2379</ele>
        <time>2021-04-08T08:31:46Z</time>
      </trkpt>
      <trkpt lat="44.45125" lon="6.56681">
        <ele>2379</ele>
        <time>2021-04-08T08:31:47Z</time>
      </trkpt>
      <trkpt lat="44.45125" lon="6.56682">
        <ele>2379</ele>
        <time>2021-04-08T08:31:48Z</time>
      </trkpt>
      <trkpt lat="44.45124" lon="6.56682">
        <ele>2379</ele>
        <time>2021-04-08T08:31:49Z</time>
      </trkpt>
      <trkpt lat="44.45125" lon="6.56683">
        <ele>2379</ele>
        <time>2021-04-08T08:31:50Z</time>
      </trkpt>
      <trkpt lat="44.45124" lon="6.56683">
        <ele>2379</ele>
        <time>2021-04-08T08:31:51Z</time>
      </trkpt>
      <trkpt lat="44.45124" lon="6.56684">
        <ele>2379</ele>
        <time>2021-04-08T08:31:52Z</time>
      </trkpt>
      <trkpt lat="44.45125" lon="6.56685">
        <ele>2379</ele>
        <time>2021-04-08T08:31:53Z</time>
      </trkpt>
      <trkpt lat="44.45125" lon="6.56686">
        <ele>2379</ele>
        <time>2021-04-08T08:31:54Z</time>
      </trkpt>
      <trkpt lat="44.45125" lon="6.56686">
        <ele>2379</ele>
        <time>2021-04-08T08:31:55Z</time>
      </trkpt>
      <trkpt lat="44.45126" lon="6.56686">
        <ele>2379</ele>
        <time>2021-04-08T08:31:56Z</time>
      </trkpt>
      <trkpt lat="44.45126" lon="6.56687">
        <ele>2380</ele>
        <time>2021-04-08T08:31:57Z</time>
      </trkpt>
      <trkpt lat="44.45126" lon="6.56687">
        <ele>2380</ele>
        <time>2021-04-08T08:31:58Z</time>
      </trkpt>
      <trkpt lat="44.45126" lon="6.56688">
        <ele>2380</ele>
        <time>2021-04-08T08:31:59Z</time>
      </trkpt>
      <trkpt lat="44.45126" lon="6.56689">
        <ele>2380</ele>
        <time>2021-04-08T08:32:00Z</time>
      </trkpt>
      <trkpt lat="44.45126" lon="6.56689">
        <ele>2380</ele>
        <time>2021-04-08T08:32:01Z</time>
      </trkpt>
      <trkpt lat="44.45126" lon="6.5669">
        <ele>2380</ele>
        <time>2021-04-08T08:32:02Z</time>
      </trkpt>
      <trkpt lat="44.45126" lon="6.56691">
        <ele>2380</ele>
        <time>2021-04-08T08:32:03Z</time>
      </trkpt>
      <trkpt lat="44.45126" lon="6.56692">
        <ele>2380</ele>
        <time>2021-04-08T08:32:04Z</time>
      </trkpt>
      <trkpt lat="44.45126" lon="6.56693">
        <ele>2380</ele>
        <time>2021-04-08T08:32:05Z</time>
      </trkpt>
      <trkpt lat="44.45125" lon="6.56694">
        <ele>2380</ele>
        <time>2021-04-08T08:32:06Z</time>
      </trkpt>
      <trkpt lat="44.45125" lon="6.56696">
        <ele>2380</ele>
        <time>2021-04-08T08:32:07Z</time>
      </trkpt>
      <trkpt lat="44.45125" lon="6.56697">
        <ele>2380</ele>
        <time>2021-04-08T08:32:08Z</time>
      </trkpt>
      <trkpt lat="44.45125" lon="6.56698">
        <ele>2380</ele>
        <time>2021-04-08T08:32:09Z</time>
      </trkpt>
      <trkpt lat="44.45124" lon="6.56699">
        <ele>2380</ele>
        <time>2021-04-08T08:32:10Z</time>
      </trkpt>
      <trkpt lat="44.45124" lon="6.567">
        <ele>2379</ele>
        <time>2021-04-08T08:32:11Z</time>
      </trkpt>
      <trkpt lat="44.45124" lon="6.56702">
        <ele>2379</ele>
        <time>2021-04-08T08:32:12Z</time>
      </trkpt>
      <trkpt lat="44.45123" lon="6.56704">
        <ele>2379</ele>
        <time>2021-04-08T08:32:13Z</time>
      </trkpt>
      <trkpt lat="44.45123" lon="6.56706">
        <ele>2379</ele>
        <time>2021-04-08T08:32:14Z</time>
      </trkpt>
      <trkpt lat="44.45122" lon="6.56708">
        <ele>2379</ele>
        <time>2021-04-08T08:32:15Z</time>
      </trkpt>
      <trkpt lat="44.45122" lon="6.5671">
        <ele>2379</ele>
        <time>2021-04-08T08:32:16Z</time>
      </trkpt>
      <trkpt lat="44.45121" lon="6.56711">
        <ele>2378</ele>
        <time>2021-04-08T08:32:17Z</time>
      </trkpt>
      <trkpt lat="44.4512" lon="6.56711">
        <ele>2378</ele>
        <time>2021-04-08T08:32:18Z</time>
      </trkpt>
      <trkpt lat="44.4512" lon="6.56713">
        <ele>2378</ele>
        <time>2021-04-08T08:32:19Z</time>
      </trkpt>
      <trkpt lat="44.45119" lon="6.56714">
        <ele>2378</ele>
        <time>2021-04-08T08:32:20Z</time>
      </trkpt>
      <trkpt lat="44.45119" lon="6.56715">
        <ele>2378</ele>
        <time>2021-04-08T08:32:21Z</time>
      </trkpt>
      <trkpt lat="44.45119" lon="6.56716">
        <ele>2378</ele>
        <time>2021-04-08T08:32:22Z</time>
      </trkpt>
      <trkpt lat="44.45119" lon="6.56717">
        <ele>2378</ele>
        <time>2021-04-08T08:32:23Z</time>
      </trkpt>
      <trkpt lat="44.45118" lon="6.56718">
        <ele>2378</ele>
        <time>2021-04-08T08:32:24Z</time>
      </trkpt>
      <trkpt lat="44.45118" lon="6.56719">
        <ele>2378</ele>
        <time>2021-04-08T08:32:25Z</time>
      </trkpt>
      <trkpt lat="44.45118" lon="6.5672">
        <ele>2378</ele>
        <time>2021-04-08T08:32:26Z</time>
      </trkpt>
      <trkpt lat="44.45118" lon="6.5672">
        <ele>2378</ele>
        <time>2021-04-08T08:32:27Z</time>
      </trkpt>
      <trkpt lat="44.45118" lon="6.56721">
        <ele>2378</ele>
        <time>2021-04-08T08:32:28Z</time>
      </trkpt>
      <trkpt lat="44.45118" lon="6.56722">
        <ele>2378</ele>
        <time>2021-04-08T08:32:29Z</time>
      </trkpt>
      <trkpt lat="44.45118" lon="6.56723">
        <ele>2379</ele>
        <time>2021-04-08T08:32:30Z</time>
      </trkpt>
      <trkpt lat="44.45117" lon="6.56724">
        <ele>2379</ele>
        <time>2021-04-08T08:32:31Z</time>
      </trkpt>
      <trkpt lat="44.45117" lon="6.56725">
        <ele>2379</ele>
        <time>2021-04-08T08:32:32Z</time>
      </trkpt>
      <trkpt lat="44.45117" lon="6.56726">
        <ele>2379</ele>
        <time>2021-04-08T08:32:33Z</time>
      </trkpt>
      <trkpt lat="44.45117" lon="6.56726">
        <ele>2379</ele>
        <time>2021-04-08T08:32:34Z</time>
      </trkpt>
      <trkpt lat="44.45116" lon="6.56727">
        <ele>2379</ele>
        <time>2021-04-08T08:32:35Z</time>
      </trkpt>
      <trkpt lat="44.45115" lon="6.56728">
        <ele>2380</ele>
        <time>2021-04-08T08:32:36Z</time>
      </trkpt>
      <trkpt lat="44.45115" lon="6.56729">
        <ele>2380</ele>
        <time>2021-04-08T08:32:37Z</time>
      </trkpt>
      <trkpt lat="44.45114" lon="6.56731">
        <ele>2380</ele>
        <time>2021-04-08T08:32:38Z</time>
      </trkpt>
      <trkpt lat="44.45113" lon="6.56731">
        <ele>2380</ele>
        <time>2021-04-08T08:32:39Z</time>
      </trkpt>
      <trkpt lat="44.45113" lon="6.56732">
        <ele>2379</ele>
        <time>2021-04-08T08:32:40Z</time>
      </trkpt>
      <trkpt lat="44.45113" lon="6.56734">
        <ele>2379</ele>
        <time>2021-04-08T08:32:41Z</time>
      </trkpt>
      <trkpt lat="44.45112" lon="6.56734">
        <ele>2379</ele>
        <time>2021-04-08T08:32:42Z</time>
      </trkpt>
      <trkpt lat="44.45111" lon="6.56736">
        <ele>2379</ele>
        <time>2021-04-08T08:32:43Z</time>
      </trkpt>
      <trkpt lat="44.45111" lon="6.56737">
        <ele>2379</ele>
        <time>2021-04-08T08:32:44Z</time>
      </trkpt>
      <trkpt lat="44.45111" lon="6.56738">
        <ele>2379</ele>
        <time>2021-04-08T08:32:45Z</time>
      </trkpt>
      <trkpt lat="44.4511" lon="6.56739">
        <ele>2379</ele>
        <time>2021-04-08T08:32:46Z</time>
      </trkpt>
      <trkpt lat="44.4511" lon="6.5674">
        <ele>2380</ele>
        <time>2021-04-08T08:32:47Z</time>
      </trkpt>
      <trkpt lat="44.4511" lon="6.56741">
        <ele>2380</ele>
        <time>2021-04-08T08:32:48Z</time>
      </trkpt>
      <trkpt lat="44.45109" lon="6.56742">
        <ele>2380</ele>
        <time>2021-04-08T08:32:49Z</time>
      </trkpt>
      <trkpt lat="44.45109" lon="6.56743">
        <ele>2380</ele>
        <time>2021-04-08T08:32:50Z</time>
      </trkpt>
      <trkpt lat="44.45108" lon="6.56743">
        <ele>2380</ele>
        <time>2021-04-08T08:32:51Z</time>
      </trkpt>
      <trkpt lat="44.45107" lon="6.56744">
        <ele>2381</ele>
        <time>2021-04-08T08:32:52Z</time>
      </trkpt>
      <trkpt lat="44.45107" lon="6.56744">
        <ele>2381</ele>
        <time>2021-04-08T08:32:53Z</time>
      </trkpt>
      <trkpt lat="44.45107" lon="6.56745">
        <ele>2381</ele>
        <time>2021-04-08T08:32:54Z</time>
      </trkpt>
      <trkpt lat="44.45106" lon="6.56745">
        <ele>2381</ele>
        <time>2021-04-08T08:32:55Z</time>
      </trkpt>
      <trkpt lat="44.45106" lon="6.56746">
        <ele>2381</ele>
        <time>2021-04-08T08:32:56Z</time>
      </trkpt>
      <trkpt lat="44.45105" lon="6.56746">
        <ele>2382</ele>
        <time>2021-04-08T08:32:57Z</time>
      </trkpt>
      <trkpt lat="44.45105" lon="6.56746">
        <ele>2382</ele>
        <time>2021-04-08T08:32:58Z</time>
      </trkpt>
      <trkpt lat="44.45105" lon="6.56746">
        <ele>2383</ele>
        <time>2021-04-08T08:32:59Z</time>
      </trkpt>
      <trkpt lat="44.45105" lon="6.56746">
        <ele>2383</ele>
        <time>2021-04-08T08:33:00Z</time>
      </trkpt>
      <trkpt lat="44.45105" lon="6.56746">
        <ele>2383</ele>
        <time>2021-04-08T08:33:01Z</time>
      </trkpt>
      <trkpt lat="44.45105" lon="6.56746">
        <ele>2383</ele>
        <time>2021-04-08T08:33:02Z</time>
      </trkpt>
      <trkpt lat="44.45105" lon="6.56746">
        <ele>2383</ele>
        <time>2021-04-08T08:33:03Z</time>
      </trkpt>
      <trkpt lat="44.45106" lon="6.56746">
        <ele>2384</ele>
        <time>2021-04-08T08:33:04Z</time>
      </trkpt>
      <trkpt lat="44.45106" lon="6.56747">
        <ele>2384</ele>
        <time>2021-04-08T08:33:05Z</time>
      </trkpt>
      <trkpt lat="44.45106" lon="6.56747">
        <ele>2384</ele>
        <time>2021-04-08T08:33:06Z</time>
      </trkpt>
      <trkpt lat="44.45106" lon="6.56747">
        <ele>2384</ele>
        <time>2021-04-08T08:33:07Z</time>
      </trkpt>
      <trkpt lat="44.45105" lon="6.56747">
        <ele>2384</ele>
        <time>2021-04-08T08:33:08Z</time>
      </trkpt>
      <trkpt lat="44.45105" lon="6.56747">
        <ele>2384</ele>
        <time>2021-04-08T08:33:09Z</time>
      </trkpt>
      <trkpt lat="44.45104" lon="6.56748">
        <ele>2384</ele>
        <time>2021-04-08T08:33:10Z</time>
      </trkpt>
      <trkpt lat="44.45103" lon="6.56748">
        <ele>2385</ele>
        <time>2021-04-08T08:33:11Z</time>
      </trkpt>
      <trkpt lat="44.45103" lon="6.56749">
        <ele>2385</ele>
        <time>2021-04-08T08:33:12Z</time>
      </trkpt>
      <trkpt lat="44.45102" lon="6.56749">
        <ele>2385</ele>
        <time>2021-04-08T08:33:13Z</time>
      </trkpt>
      <trkpt lat="44.45101" lon="6.56749">
        <ele>2385</ele>
        <time>2021-04-08T08:33:14Z</time>
      </trkpt>
      <trkpt lat="44.45101" lon="6.5675">
        <ele>2385</ele>
        <time>2021-04-08T08:33:15Z</time>
      </trkpt>
      <trkpt lat="44.45101" lon="6.5675">
        <ele>2386</ele>
        <time>2021-04-08T08:33:16Z</time>
      </trkpt>
      <trkpt lat="44.45101" lon="6.56751">
        <ele>2386</ele>
        <time>2021-04-08T08:33:17Z</time>
      </trkpt>
      <trkpt lat="44.45101" lon="6.56751">
        <ele>2386</ele>
        <time>2021-04-08T08:33:18Z</time>
      </trkpt>
      <trkpt lat="44.451" lon="6.56751">
        <ele>2386</ele>
        <time>2021-04-08T08:33:19Z</time>
      </trkpt>
      <trkpt lat="44.451" lon="6.56752">
        <ele>2386</ele>
        <time>2021-04-08T08:33:20Z</time>
      </trkpt>
      <trkpt lat="44.45099" lon="6.56753">
        <ele>2386</ele>
        <time>2021-04-08T08:33:21Z</time>
      </trkpt>
      <trkpt lat="44.45099" lon="6.56753">
        <ele>2386</ele>
        <time>2021-04-08T08:33:22Z</time>
      </trkpt>
      <trkpt lat="44.45098" lon="6.56754">
        <ele>2386</ele>
        <time>2021-04-08T08:33:23Z</time>
      </trkpt>
      <trkpt lat="44.45098" lon="6.56755">
        <ele>2386</ele>
        <time>2021-04-08T08:33:24Z</time>
      </trkpt>
      <trkpt lat="44.45097" lon="6.56756">
        <ele>2387</ele>
        <time>2021-04-08T08:33:25Z</time>
      </trkpt>
      <trkpt lat="44.45096" lon="6.56757">
        <ele>2387</ele>
        <time>2021-04-08T08:33:26Z</time>
      </trkpt>
      <trkpt lat="44.45095" lon="6.56757">
        <ele>2387</ele>
        <time>2021-04-08T08:33:27Z</time>
      </trkpt>
      <trkpt lat="44.45095" lon="6.56758">
        <ele>2387</ele>
        <time>2021-04-08T08:33:28Z</time>
      </trkpt>
      <trkpt lat="44.45095" lon="6.56758">
        <ele>2387</ele>
        <time>2021-04-08T08:33:29Z</time>
      </trkpt>
      <trkpt lat="44.45094" lon="6.56759">
        <ele>2387</ele>
        <time>2021-04-08T08:33:30Z</time>
      </trkpt>
      <trkpt lat="44.45093" lon="6.56759">
        <ele>2388</ele>
        <time>2021-04-08T08:33:31Z</time>
      </trkpt>
      <trkpt lat="44.45093" lon="6.5676">
        <ele>2388</ele>
        <time>2021-04-08T08:33:32Z</time>
      </trkpt>
      <trkpt lat="44.45093" lon="6.56761">
        <ele>2388</ele>
        <time>2021-04-08T08:33:33Z</time>
      </trkpt>
      <trkpt lat="44.45092" lon="6.56762">
        <ele>2388</ele>
        <time>2021-04-08T08:33:34Z</time>
      </trkpt>
      <trkpt lat="44.45092" lon="6.56762">
        <ele>2388</ele>
        <time>2021-04-08T08:33:35Z</time>
      </trkpt>
      <trkpt lat="44.45092" lon="6.56763">
        <ele>2388</ele>
        <time>2021-04-08T08:33:36Z</time>
      </trkpt>
      <trkpt lat="44.45092" lon="6.56763">
        <ele>2389</ele>
        <time>2021-04-08T08:33:37Z</time>
      </trkpt>
      <trkpt lat="44.45091" lon="6.56763">
        <ele>2389</ele>
        <time>2021-04-08T08:33:38Z</time>
      </trkpt>
      <trkpt lat="44.45091" lon="6.56763">
        <ele>2389</ele>
        <time>2021-04-08T08:33:39Z</time>
      </trkpt>
      <trkpt lat="44.45091" lon="6.56762">
        <ele>2389</ele>
        <time>2021-04-08T08:33:40Z</time>
      </trkpt>
      <trkpt lat="44.45092" lon="6.56762">
        <ele>2389</ele>
        <time>2021-04-08T08:33:41Z</time>
      </trkpt>
      <trkpt lat="44.45092" lon="6.56761">
        <ele>2389</ele>
        <time>2021-04-08T08:33:42Z</time>
      </trkpt>
      <trkpt lat="44.45092" lon="6.56761">
        <ele>2389</ele>
        <time>2021-04-08T08:33:43Z</time>
      </trkpt>
      <trkpt lat="44.45092" lon="6.56761">
        <ele>2389</ele>
        <time>2021-04-08T08:33:44Z</time>
      </trkpt>
      <trkpt lat="44.45092" lon="6.56761">
        <ele>2389</ele>
        <time>2021-04-08T08:33:45Z</time>
      </trkpt>
      <trkpt lat="44.45092" lon="6.56761">
        <ele>2389</ele>
        <time>2021-04-08T08:33:46Z</time>
      </trkpt>
      <trkpt lat="44.45092" lon="6.56761">
        <ele>2389</ele>
        <time>2021-04-08T08:33:47Z</time>
      </trkpt>
      <trkpt lat="44.45092" lon="6.56761">
        <ele>2389</ele>
        <time>2021-04-08T08:33:48Z</time>
      </trkpt>
      <trkpt lat="44.45093" lon="6.56762">
        <ele>2389</ele>
        <time>2021-04-08T08:33:49Z</time>
      </trkpt>
      <trkpt lat="44.45093" lon="6.56763">
        <ele>2389</ele>
        <time>2021-04-08T08:33:50Z</time>
      </trkpt>
      <trkpt lat="44.45093" lon="6.56764">
        <ele>2389</ele>
        <time>2021-04-08T08:33:51Z</time>
      </trkpt>
      <trkpt lat="44.45094" lon="6.56764">
        <ele>2389</ele>
        <time>2021-04-08T08:33:52Z</time>
      </trkpt>
      <trkpt lat="44.45094" lon="6.56765">
        <ele>2389</ele>
        <time>2021-04-08T08:33:53Z</time>
      </trkpt>
      <trkpt lat="44.45094" lon="6.56766">
        <ele>2389</ele>
        <time>2021-04-08T08:33:54Z</time>
      </trkpt>
      <trkpt lat="44.45095" lon="6.56767">
        <ele>2389</ele>
        <time>2021-04-08T08:33:55Z</time>
      </trkpt>
      <trkpt lat="44.45095" lon="6.56769">
        <ele>2389</ele>
        <time>2021-04-08T08:33:56Z</time>
      </trkpt>
      <trkpt lat="44.45095" lon="6.5677">
        <ele>2389</ele>
        <time>2021-04-08T08:33:57Z</time>
      </trkpt>
      <trkpt lat="44.45095" lon="6.5677">
        <ele>2389</ele>
        <time>2021-04-08T08:33:58Z</time>
      </trkpt>
      <trkpt lat="44.45096" lon="6.56771">
        <ele>2388</ele>
        <time>2021-04-08T08:33:59Z</time>
      </trkpt>
      <trkpt lat="44.45096" lon="6.56771">
        <ele>2388</ele>
        <time>2021-04-08T08:34:00Z</time>
      </trkpt>
      <trkpt lat="44.45096" lon="6.56772">
        <ele>2388</ele>
        <time>2021-04-08T08:34:01Z</time>
      </trkpt>
      <trkpt lat="44.45097" lon="6.56772">
        <ele>2388</ele>
        <time>2021-04-08T08:34:02Z</time>
      </trkpt>
      <trkpt lat="44.45098" lon="6.56773">
        <ele>2388</ele>
        <time>2021-04-08T08:34:03Z</time>
      </trkpt>
      <trkpt lat="44.45098" lon="6.56774">
        <ele>2388</ele>
        <time>2021-04-08T08:34:04Z</time>
      </trkpt>
      <trkpt lat="44.45099" lon="6.56775">
        <ele>2388</ele>
        <time>2021-04-08T08:34:05Z</time>
      </trkpt>
      <trkpt lat="44.45099" lon="6.56776">
        <ele>2388</ele>
        <time>2021-04-08T08:34:06Z</time>
      </trkpt>
      <trkpt lat="44.451" lon="6.56777">
        <ele>2388</ele>
        <time>2021-04-08T08:34:07Z</time>
      </trkpt>
      <trkpt lat="44.451" lon="6.56778">
        <ele>2388</ele>
        <time>2021-04-08T08:34:08Z</time>
      </trkpt>
      <trkpt lat="44.45101" lon="6.56779">
        <ele>2388</ele>
        <time>2021-04-08T08:34:09Z</time>
      </trkpt>
      <trkpt lat="44.45102" lon="6.56781">
        <ele>2388</ele>
        <time>2021-04-08T08:34:10Z</time>
      </trkpt>
      <trkpt lat="44.45102" lon="6.56781">
        <ele>2388</ele>
        <time>2021-04-08T08:34:11Z</time>
      </trkpt>
      <trkpt lat="44.45102" lon="6.56782">
        <ele>2389</ele>
        <time>2021-04-08T08:34:12Z</time>
      </trkpt>
      <trkpt lat="44.45102" lon="6.56782">
        <ele>2389</ele>
        <time>2021-04-08T08:34:13Z</time>
      </trkpt>
      <trkpt lat="44.45103" lon="6.56782">
        <ele>2389</ele>
        <time>2021-04-08T08:34:14Z</time>
      </trkpt>
      <trkpt lat="44.45102" lon="6.56782">
        <ele>2389</ele>
        <time>2021-04-08T08:34:15Z</time>
      </trkpt>
      <trkpt lat="44.45102" lon="6.56784">
        <ele>2390</ele>
        <time>2021-04-08T08:34:16Z</time>
      </trkpt>
      <trkpt lat="44.45101" lon="6.56784">
        <ele>2390</ele>
        <time>2021-04-08T08:34:17Z</time>
      </trkpt>
      <trkpt lat="44.451" lon="6.56785">
        <ele>2390</ele>
        <time>2021-04-08T08:34:18Z</time>
      </trkpt>
      <trkpt lat="44.45099" lon="6.56786">
        <ele>2391</ele>
        <time>2021-04-08T08:34:19Z</time>
      </trkpt>
      <trkpt lat="44.45098" lon="6.56786">
        <ele>2391</ele>
        <time>2021-04-08T08:34:20Z</time>
      </trkpt>
      <trkpt lat="44.45098" lon="6.56786">
        <ele>2391</ele>
        <time>2021-04-08T08:34:21Z</time>
      </trkpt>
      <trkpt lat="44.45098" lon="6.56787">
        <ele>2391</ele>
        <time>2021-04-08T08:34:22Z</time>
      </trkpt>
      <trkpt lat="44.45097" lon="6.56787">
        <ele>2392</ele>
        <time>2021-04-08T08:34:23Z</time>
      </trkpt>
      <trkpt lat="44.45097" lon="6.56787">
        <ele>2392</ele>
        <time>2021-04-08T08:34:24Z</time>
      </trkpt>
      <trkpt lat="44.45097" lon="6.56788">
        <ele>2392</ele>
        <time>2021-04-08T08:34:25Z</time>
      </trkpt>
      <trkpt lat="44.45097" lon="6.56788">
        <ele>2393</ele>
        <time>2021-04-08T08:34:26Z</time>
      </trkpt>
      <trkpt lat="44.45096" lon="6.56789">
        <ele>2393</ele>
        <time>2021-04-08T08:34:27Z</time>
      </trkpt>
      <trkpt lat="44.45096" lon="6.5679">
        <ele>2393</ele>
        <time>2021-04-08T08:34:28Z</time>
      </trkpt>
      <trkpt lat="44.45095" lon="6.5679">
        <ele>2393</ele>
        <time>2021-04-08T08:34:29Z</time>
      </trkpt>
      <trkpt lat="44.45094" lon="6.56791">
        <ele>2394</ele>
        <time>2021-04-08T08:34:30Z</time>
      </trkpt>
      <trkpt lat="44.45093" lon="6.56791">
        <ele>2394</ele>
        <time>2021-04-08T08:34:31Z</time>
      </trkpt>
      <trkpt lat="44.45092" lon="6.56791">
        <ele>2394</ele>
        <time>2021-04-08T08:34:32Z</time>
      </trkpt>
      <trkpt lat="44.45092" lon="6.56792">
        <ele>2394</ele>
        <time>2021-04-08T08:34:33Z</time>
      </trkpt>
      <trkpt lat="44.45091" lon="6.56792">
        <ele>2394</ele>
        <time>2021-04-08T08:34:34Z</time>
      </trkpt>
      <trkpt lat="44.45091" lon="6.56793">
        <ele>2395</ele>
        <time>2021-04-08T08:34:35Z</time>
      </trkpt>
      <trkpt lat="44.4509" lon="6.56793">
        <ele>2395</ele>
        <time>2021-04-08T08:34:36Z</time>
      </trkpt>
      <trkpt lat="44.45089" lon="6.56794">
        <ele>2396</ele>
        <time>2021-04-08T08:34:37Z</time>
      </trkpt>
      <trkpt lat="44.45089" lon="6.56794">
        <ele>2396</ele>
        <time>2021-04-08T08:34:38Z</time>
      </trkpt>
      <trkpt lat="44.45088" lon="6.56794">
        <ele>2396</ele>
        <time>2021-04-08T08:34:39Z</time>
      </trkpt>
      <trkpt lat="44.45088" lon="6.56795">
        <ele>2397</ele>
        <time>2021-04-08T08:34:40Z</time>
      </trkpt>
      <trkpt lat="44.45087" lon="6.56795">
        <ele>2397</ele>
        <time>2021-04-08T08:34:41Z</time>
      </trkpt>
      <trkpt lat="44.45086" lon="6.56795">
        <ele>2397</ele>
        <time>2021-04-08T08:34:42Z</time>
      </trkpt>
      <trkpt lat="44.45086" lon="6.56795">
        <ele>2397</ele>
        <time>2021-04-08T08:34:43Z</time>
      </trkpt>
      <trkpt lat="44.45086" lon="6.56796">
        <ele>2397</ele>
        <time>2021-04-08T08:34:44Z</time>
      </trkpt>
      <trkpt lat="44.45086" lon="6.56796">
        <ele>2397</ele>
        <time>2021-04-08T08:34:45Z</time>
      </trkpt>
      <trkpt lat="44.45086" lon="6.56797">
        <ele>2397</ele>
        <time>2021-04-08T08:34:46Z</time>
      </trkpt>
      <trkpt lat="44.45086" lon="6.56798">
        <ele>2398</ele>
        <time>2021-04-08T08:34:47Z</time>
      </trkpt>
      <trkpt lat="44.45085" lon="6.56798">
        <ele>2398</ele>
        <time>2021-04-08T08:34:48Z</time>
      </trkpt>
      <trkpt lat="44.45085" lon="6.56798">
        <ele>2398</ele>
        <time>2021-04-08T08:34:49Z</time>
      </trkpt>
      <trkpt lat="44.45084" lon="6.56798">
        <ele>2398</ele>
        <time>2021-04-08T08:34:50Z</time>
      </trkpt>
      <trkpt lat="44.45084" lon="6.56798">
        <ele>2398</ele>
        <time>2021-04-08T08:34:51Z</time>
      </trkpt>
      <trkpt lat="44.45083" lon="6.56798">
        <ele>2398</ele>
        <time>2021-04-08T08:34:52Z</time>
      </trkpt>
      <trkpt lat="44.45082" lon="6.56798">
        <ele>2398</ele>
        <time>2021-04-08T08:34:53Z</time>
      </trkpt>
      <trkpt lat="44.45082" lon="6.56798">
        <ele>2399</ele>
        <time>2021-04-08T08:34:54Z</time>
      </trkpt>
      <trkpt lat="44.45081" lon="6.56798">
        <ele>2399</ele>
        <time>2021-04-08T08:34:55Z</time>
      </trkpt>
      <trkpt lat="44.45081" lon="6.56799">
        <ele>2399</ele>
        <time>2021-04-08T08:34:56Z</time>
      </trkpt>
      <trkpt lat="44.4508" lon="6.56799">
        <ele>2399</ele>
        <time>2021-04-08T08:34:57Z</time>
      </trkpt>
      <trkpt lat="44.4508" lon="6.56799">
        <ele>2399</ele>
        <time>2021-04-08T08:34:58Z</time>
      </trkpt>
      <trkpt lat="44.4508" lon="6.568">
        <ele>2399</ele>
        <time>2021-04-08T08:34:59Z</time>
      </trkpt>
      <trkpt lat="44.45079" lon="6.568">
        <ele>2399</ele>
        <time>2021-04-08T08:35:00Z</time>
      </trkpt>
      <trkpt lat="44.45079" lon="6.56801">
        <ele>2400</ele>
        <time>2021-04-08T08:35:01Z</time>
      </trkpt>
      <trkpt lat="44.45078" lon="6.56802">
        <ele>2400</ele>
        <time>2021-04-08T08:35:02Z</time>
      </trkpt>
      <trkpt lat="44.45078" lon="6.56802">
        <ele>2400</ele>
        <time>2021-04-08T08:35:03Z</time>
      </trkpt>
      <trkpt lat="44.45078" lon="6.56802">
        <ele>2400</ele>
        <time>2021-04-08T08:35:04Z</time>
      </trkpt>
      <trkpt lat="44.45078" lon="6.56803">
        <ele>2401</ele>
        <time>2021-04-08T08:35:05Z</time>
      </trkpt>
      <trkpt lat="44.45078" lon="6.56804">
        <ele>2401</ele>
        <time>2021-04-08T08:35:06Z</time>
      </trkpt>
      <trkpt lat="44.45078" lon="6.56804">
        <ele>2401</ele>
        <time>2021-04-08T08:35:07Z</time>
      </trkpt>
      <trkpt lat="44.45078" lon="6.56805">
        <ele>2401</ele>
        <time>2021-04-08T08:35:08Z</time>
      </trkpt>
      <trkpt lat="44.45078" lon="6.56805">
        <ele>2401</ele>
        <time>2021-04-08T08:35:09Z</time>
      </trkpt>
      <trkpt lat="44.45078" lon="6.56806">
        <ele>2401</ele>
        <time>2021-04-08T08:35:10Z</time>
      </trkpt>
      <trkpt lat="44.45078" lon="6.56807">
        <ele>2401</ele>
        <time>2021-04-08T08:35:11Z</time>
      </trkpt>
      <trkpt lat="44.45079" lon="6.56808">
        <ele>2401</ele>
        <time>2021-04-08T08:35:12Z</time>
      </trkpt>
      <trkpt lat="44.4508" lon="6.56809">
        <ele>2401</ele>
        <time>2021-04-08T08:35:13Z</time>
      </trkpt>
      <trkpt lat="44.45081" lon="6.5681">
        <ele>2401</ele>
        <time>2021-04-08T08:35:14Z</time>
      </trkpt>
      <trkpt lat="44.45081" lon="6.56811">
        <ele>2401</ele>
        <time>2021-04-08T08:35:15Z</time>
      </trkpt>
      <trkpt lat="44.45081" lon="6.56812">
        <ele>2401</ele>
        <time>2021-04-08T08:35:16Z</time>
      </trkpt>
      <trkpt lat="44.45082" lon="6.56813">
        <ele>2401</ele>
        <time>2021-04-08T08:35:17Z</time>
      </trkpt>
      <trkpt lat="44.45082" lon="6.56814">
        <ele>2401</ele>
        <time>2021-04-08T08:35:18Z</time>
      </trkpt>
      <trkpt lat="44.45082" lon="6.56815">
        <ele>2401</ele>
        <time>2021-04-08T08:35:19Z</time>
      </trkpt>
      <trkpt lat="44.45082" lon="6.56816">
        <ele>2402</ele>
        <time>2021-04-08T08:35:20Z</time>
      </trkpt>
      <trkpt lat="44.45083" lon="6.56817">
        <ele>2402</ele>
        <time>2021-04-08T08:35:21Z</time>
      </trkpt>
      <trkpt lat="44.45083" lon="6.56817">
        <ele>2402</ele>
        <time>2021-04-08T08:35:22Z</time>
      </trkpt>
      <trkpt lat="44.45084" lon="6.56818">
        <ele>2402</ele>
        <time>2021-04-08T08:35:23Z</time>
      </trkpt>
      <trkpt lat="44.45084" lon="6.56818">
        <ele>2402</ele>
        <time>2021-04-08T08:35:24Z</time>
      </trkpt>
      <trkpt lat="44.45084" lon="6.56819">
        <ele>2402</ele>
        <time>2021-04-08T08:35:25Z</time>
      </trkpt>
      <trkpt lat="44.45084" lon="6.56819">
        <ele>2402</ele>
        <time>2021-04-08T08:35:26Z</time>
      </trkpt>
      <trkpt lat="44.45084" lon="6.5682">
        <ele>2402</ele>
        <time>2021-04-08T08:35:27Z</time>
      </trkpt>
      <trkpt lat="44.45084" lon="6.5682">
        <ele>2402</ele>
        <time>2021-04-08T08:35:28Z</time>
      </trkpt>
      <trkpt lat="44.45085" lon="6.56821">
        <ele>2403</ele>
        <time>2021-04-08T08:35:29Z</time>
      </trkpt>
      <trkpt lat="44.45085" lon="6.56821">
        <ele>2403</ele>
        <time>2021-04-08T08:35:30Z</time>
      </trkpt>
      <trkpt lat="44.45086" lon="6.56821">
        <ele>2403</ele>
        <time>2021-04-08T08:35:31Z</time>
      </trkpt>
      <trkpt lat="44.45086" lon="6.56821">
        <ele>2403</ele>
        <time>2021-04-08T08:35:32Z</time>
      </trkpt>
      <trkpt lat="44.45087" lon="6.56822">
        <ele>2403</ele>
        <time>2021-04-08T08:35:33Z</time>
      </trkpt>
      <trkpt lat="44.45087" lon="6.56822">
        <ele>2403</ele>
        <time>2021-04-08T08:35:34Z</time>
      </trkpt>
      <trkpt lat="44.45088" lon="6.56822">
        <ele>2403</ele>
        <time>2021-04-08T08:35:35Z</time>
      </trkpt>
      <trkpt lat="44.45088" lon="6.56823">
        <ele>2403</ele>
        <time>2021-04-08T08:35:36Z</time>
      </trkpt>
      <trkpt lat="44.45089" lon="6.56824">
        <ele>2403</ele>
        <time>2021-04-08T08:35:37Z</time>
      </trkpt>
      <trkpt lat="44.45089" lon="6.56824">
        <ele>2403</ele>
        <time>2021-04-08T08:35:38Z</time>
      </trkpt>
      <trkpt lat="44.45089" lon="6.56825">
        <ele>2403</ele>
        <time>2021-04-08T08:35:39Z</time>
      </trkpt>
      <trkpt lat="44.45089" lon="6.56825">
        <ele>2403</ele>
        <time>2021-04-08T08:35:40Z</time>
      </trkpt>
      <trkpt lat="44.4509" lon="6.56826">
        <ele>2404</ele>
        <time>2021-04-08T08:35:41Z</time>
      </trkpt>
      <trkpt lat="44.4509" lon="6.56827">
        <ele>2404</ele>
        <time>2021-04-08T08:35:42Z</time>
      </trkpt>
      <trkpt lat="44.4509" lon="6.56828">
        <ele>2404</ele>
        <time>2021-04-08T08:35:43Z</time>
      </trkpt>
      <trkpt lat="44.4509" lon="6.56829">
        <ele>2404</ele>
        <time>2021-04-08T08:35:44Z</time>
      </trkpt>
      <trkpt lat="44.4509" lon="6.5683">
        <ele>2405</ele>
        <time>2021-04-08T08:35:45Z</time>
      </trkpt>
      <trkpt lat="44.4509" lon="6.5683">
        <ele>2405</ele>
        <time>2021-04-08T08:35:46Z</time>
      </trkpt>
      <trkpt lat="44.45091" lon="6.56831">
        <ele>2405</ele>
        <time>2021-04-08T08:35:47Z</time>
      </trkpt>
      <trkpt lat="44.45091" lon="6.56831">
        <ele>2405</ele>
        <time>2021-04-08T08:35:48Z</time>
      </trkpt>
      <trkpt lat="44.45092" lon="6.56832">
        <ele>2405</ele>
        <time>2021-04-08T08:35:49Z</time>
      </trkpt>
      <trkpt lat="44.45092" lon="6.56833">
        <ele>2405</ele>
        <time>2021-04-08T08:35:50Z</time>
      </trkpt>
      <trkpt lat="44.45092" lon="6.56834">
        <ele>2405</ele>
        <time>2021-04-08T08:35:51Z</time>
      </trkpt>
      <trkpt lat="44.45093" lon="6.56835">
        <ele>2406</ele>
        <time>2021-04-08T08:35:52Z</time>
      </trkpt>
      <trkpt lat="44.45093" lon="6.56836">
        <ele>2406</ele>
        <time>2021-04-08T08:35:53Z</time>
      </trkpt>
      <trkpt lat="44.45094" lon="6.56837">
        <ele>2406</ele>
        <time>2021-04-08T08:35:54Z</time>
      </trkpt>
      <trkpt lat="44.45094" lon="6.56837">
        <ele>2406</ele>
        <time>2021-04-08T08:35:55Z</time>
      </trkpt>
      <trkpt lat="44.45094" lon="6.56838">
        <ele>2407</ele>
        <time>2021-04-08T08:35:56Z</time>
      </trkpt>
      <trkpt lat="44.45095" lon="6.56839">
        <ele>2408</ele>
        <time>2021-04-08T08:35:57Z</time>
      </trkpt>
      <trkpt lat="44.45095" lon="6.56839">
        <ele>2408</ele>
        <time>2021-04-08T08:35:58Z</time>
      </trkpt>
      <trkpt lat="44.45096" lon="6.5684">
        <ele>2408</ele>
        <time>2021-04-08T08:35:59Z</time>
      </trkpt>
      <trkpt lat="44.45096" lon="6.56841">
        <ele>2409</ele>
        <time>2021-04-08T08:36:00Z</time>
      </trkpt>
      <trkpt lat="44.45097" lon="6.56842">
        <ele>2409</ele>
        <time>2021-04-08T08:36:01Z</time>
      </trkpt>
      <trkpt lat="44.45097" lon="6.56842">
        <ele>2410</ele>
        <time>2021-04-08T08:36:02Z</time>
      </trkpt>
      <trkpt lat="44.45097" lon="6.56843">
        <ele>2410</ele>
        <time>2021-04-08T08:36:03Z</time>
      </trkpt>
      <trkpt lat="44.45098" lon="6.56844">
        <ele>2410</ele>
        <time>2021-04-08T08:36:04Z</time>
      </trkpt>
      <trkpt lat="44.45098" lon="6.56845">
        <ele>2410</ele>
        <time>2021-04-08T08:36:05Z</time>
      </trkpt>
      <trkpt lat="44.45099" lon="6.56846">
        <ele>2411</ele>
        <time>2021-04-08T08:36:06Z</time>
      </trkpt>
      <trkpt lat="44.451" lon="6.56847">
        <ele>2411</ele>
        <time>2021-04-08T08:36:07Z</time>
      </trkpt>
      <trkpt lat="44.45099" lon="6.56849">
        <ele>2412</ele>
        <time>2021-04-08T08:36:08Z</time>
      </trkpt>
      <trkpt lat="44.45099" lon="6.5685">
        <ele>2412</ele>
        <time>2021-04-08T08:36:09Z</time>
      </trkpt>
      <trkpt lat="44.45098" lon="6.56851">
        <ele>2412</ele>
        <time>2021-04-08T08:36:10Z</time>
      </trkpt>
      <trkpt lat="44.45098" lon="6.56851">
        <ele>2413</ele>
        <time>2021-04-08T08:36:11Z</time>
      </trkpt>
      <trkpt lat="44.45097" lon="6.56852">
        <ele>2413</ele>
        <time>2021-04-08T08:36:12Z</time>
      </trkpt>
      <trkpt lat="44.45097" lon="6.56852">
        <ele>2413</ele>
        <time>2021-04-08T08:36:13Z</time>
      </trkpt>
      <trkpt lat="44.45097" lon="6.56853">
        <ele>2413</ele>
        <time>2021-04-08T08:36:14Z</time>
      </trkpt>
      <trkpt lat="44.45097" lon="6.56853">
        <ele>2413</ele>
        <time>2021-04-08T08:36:15Z</time>
      </trkpt>
      <trkpt lat="44.45097" lon="6.56853">
        <ele>2414</ele>
        <time>2021-04-08T08:36:16Z</time>
      </trkpt>
      <trkpt lat="44.45096" lon="6.56854">
        <ele>2414</ele>
        <time>2021-04-08T08:36:17Z</time>
      </trkpt>
      <trkpt lat="44.45096" lon="6.56854">
        <ele>2414</ele>
        <time>2021-04-08T08:36:18Z</time>
      </trkpt>
      <trkpt lat="44.45096" lon="6.56854">
        <ele>2415</ele>
        <time>2021-04-08T08:36:19Z</time>
      </trkpt>
      <trkpt lat="44.45095" lon="6.56855">
        <ele>2415</ele>
        <time>2021-04-08T08:36:20Z</time>
      </trkpt>
      <trkpt lat="44.45094" lon="6.56855">
        <ele>2416</ele>
        <time>2021-04-08T08:36:21Z</time>
      </trkpt>
      <trkpt lat="44.45094" lon="6.56855">
        <ele>2416</ele>
        <time>2021-04-08T08:36:22Z</time>
      </trkpt>
      <trkpt lat="44.45094" lon="6.56855">
        <ele>2416</ele>
        <time>2021-04-08T08:36:23Z</time>
      </trkpt>
      <trkpt lat="44.45093" lon="6.56854">
        <ele>2416</ele>
        <time>2021-04-08T08:36:24Z</time>
      </trkpt>
      <trkpt lat="44.45093" lon="6.56855">
        <ele>2416</ele>
        <time>2021-04-08T08:36:25Z</time>
      </trkpt>
      <trkpt lat="44.45092" lon="6.56854">
        <ele>2416</ele>
        <time>2021-04-08T08:36:26Z</time>
      </trkpt>
      <trkpt lat="44.45092" lon="6.56855">
        <ele>2417</ele>
        <time>2021-04-08T08:36:27Z</time>
      </trkpt>
      <trkpt lat="44.45091" lon="6.56855">
        <ele>2417</ele>
        <time>2021-04-08T08:36:28Z</time>
      </trkpt>
      <trkpt lat="44.45091" lon="6.56856">
        <ele>2417</ele>
        <time>2021-04-08T08:36:29Z</time>
      </trkpt>
      <trkpt lat="44.45091" lon="6.56856">
        <ele>2417</ele>
        <time>2021-04-08T08:36:30Z</time>
      </trkpt>
      <trkpt lat="44.4509" lon="6.56857">
        <ele>2417</ele>
        <time>2021-04-08T08:36:31Z</time>
      </trkpt>
      <trkpt lat="44.4509" lon="6.56857">
        <ele>2417</ele>
        <time>2021-04-08T08:36:32Z</time>
      </trkpt>
      <trkpt lat="44.45089" lon="6.56857">
        <ele>2417</ele>
        <time>2021-04-08T08:36:33Z</time>
      </trkpt>
      <trkpt lat="44.45087" lon="6.56857">
        <ele>2417</ele>
        <time>2021-04-08T08:36:34Z</time>
      </trkpt>
      <trkpt lat="44.45086" lon="6.56858">
        <ele>2418</ele>
        <time>2021-04-08T08:36:35Z</time>
      </trkpt>
      <trkpt lat="44.45086" lon="6.56858">
        <ele>2418</ele>
        <time>2021-04-08T08:36:36Z</time>
      </trkpt>
      <trkpt lat="44.45086" lon="6.56859">
        <ele>2418</ele>
        <time>2021-04-08T08:36:37Z</time>
      </trkpt>
      <trkpt lat="44.45086" lon="6.5686">
        <ele>2418</ele>
        <time>2021-04-08T08:36:38Z</time>
      </trkpt>
      <trkpt lat="44.45086" lon="6.56861">
        <ele>2418</ele>
        <time>2021-04-08T08:36:39Z</time>
      </trkpt>
      <trkpt lat="44.45086" lon="6.56861">
        <ele>2418</ele>
        <time>2021-04-08T08:36:40Z</time>
      </trkpt>
      <trkpt lat="44.45086" lon="6.56861">
        <ele>2419</ele>
        <time>2021-04-08T08:36:41Z</time>
      </trkpt>
      <trkpt lat="44.45086" lon="6.56861">
        <ele>2419</ele>
        <time>2021-04-08T08:36:42Z</time>
      </trkpt>
      <trkpt lat="44.45086" lon="6.56862">
        <ele>2419</ele>
        <time>2021-04-08T08:36:43Z</time>
      </trkpt>
      <trkpt lat="44.45086" lon="6.56863">
        <ele>2419</ele>
        <time>2021-04-08T08:36:44Z</time>
      </trkpt>
      <trkpt lat="44.45087" lon="6.56864">
        <ele>2419</ele>
        <time>2021-04-08T08:36:45Z</time>
      </trkpt>
      <trkpt lat="44.45087" lon="6.56865">
        <ele>2419</ele>
        <time>2021-04-08T08:36:46Z</time>
      </trkpt>
      <trkpt lat="44.45087" lon="6.56865">
        <ele>2419</ele>
        <time>2021-04-08T08:36:47Z</time>
      </trkpt>
      <trkpt lat="44.45087" lon="6.56866">
        <ele>2419</ele>
        <time>2021-04-08T08:36:48Z</time>
      </trkpt>
      <trkpt lat="44.45088" lon="6.56867">
        <ele>2420</ele>
        <time>2021-04-08T08:36:49Z</time>
      </trkpt>
      <trkpt lat="44.45089" lon="6.56868">
        <ele>2420</ele>
        <time>2021-04-08T08:36:50Z</time>
      </trkpt>
      <trkpt lat="44.45089" lon="6.56868">
        <ele>2419</ele>
        <time>2021-04-08T08:36:51Z</time>
      </trkpt>
      <trkpt lat="44.45089" lon="6.56869">
        <ele>2419</ele>
        <time>2021-04-08T08:36:52Z</time>
      </trkpt>
      <trkpt lat="44.4509" lon="6.5687">
        <ele>2419</ele>
        <time>2021-04-08T08:36:53Z</time>
      </trkpt>
      <trkpt lat="44.4509" lon="6.56871">
        <ele>2419</ele>
        <time>2021-04-08T08:36:54Z</time>
      </trkpt>
      <trkpt lat="44.4509" lon="6.56871">
        <ele>2419</ele>
        <time>2021-04-08T08:36:55Z</time>
      </trkpt>
      <trkpt lat="44.45091" lon="6.56872">
        <ele>2419</ele>
        <time>2021-04-08T08:36:56Z</time>
      </trkpt>
      <trkpt lat="44.45091" lon="6.56873">
        <ele>2419</ele>
        <time>2021-04-08T08:36:57Z</time>
      </trkpt>
      <trkpt lat="44.45092" lon="6.56874">
        <ele>2419</ele>
        <time>2021-04-08T08:36:58Z</time>
      </trkpt>
      <trkpt lat="44.45092" lon="6.56875">
        <ele>2419</ele>
        <time>2021-04-08T08:36:59Z</time>
      </trkpt>
      <trkpt lat="44.45092" lon="6.56876">
        <ele>2420</ele>
        <time>2021-04-08T08:37:00Z</time>
      </trkpt>
      <trkpt lat="44.45091" lon="6.56877">
        <ele>2420</ele>
        <time>2021-04-08T08:37:01Z</time>
      </trkpt>
      <trkpt lat="44.45092" lon="6.56878">
        <ele>2421</ele>
        <time>2021-04-08T08:37:02Z</time>
      </trkpt>
      <trkpt lat="44.45092" lon="6.56879">
        <ele>2421</ele>
        <time>2021-04-08T08:37:03Z</time>
      </trkpt>
      <trkpt lat="44.45091" lon="6.5688">
        <ele>2421</ele>
        <time>2021-04-08T08:37:04Z</time>
      </trkpt>
      <trkpt lat="44.45092" lon="6.5688">
        <ele>2422</ele>
        <time>2021-04-08T08:37:05Z</time>
      </trkpt>
      <trkpt lat="44.45093" lon="6.56882">
        <ele>2422</ele>
        <time>2021-04-08T08:37:06Z</time>
      </trkpt>
      <trkpt lat="44.45093" lon="6.56883">
        <ele>2422</ele>
        <time>2021-04-08T08:37:07Z</time>
      </trkpt>
      <trkpt lat="44.45093" lon="6.56883">
        <ele>2422</ele>
        <time>2021-04-08T08:37:08Z</time>
      </trkpt>
      <trkpt lat="44.45093" lon="6.56884">
        <ele>2422</ele>
        <time>2021-04-08T08:37:09Z</time>
      </trkpt>
      <trkpt lat="44.45093" lon="6.56885">
        <ele>2422</ele>
        <time>2021-04-08T08:37:10Z</time>
      </trkpt>
      <trkpt lat="44.45094" lon="6.56886">
        <ele>2422</ele>
        <time>2021-04-08T08:37:11Z</time>
      </trkpt>
      <trkpt lat="44.45093" lon="6.56887">
        <ele>2423</ele>
        <time>2021-04-08T08:37:12Z</time>
      </trkpt>
      <trkpt lat="44.45094" lon="6.56888">
        <ele>2423</ele>
        <time>2021-04-08T08:37:13Z</time>
      </trkpt>
      <trkpt lat="44.45094" lon="6.56889">
        <ele>2423</ele>
        <time>2021-04-08T08:37:14Z</time>
      </trkpt>
      <trkpt lat="44.45094" lon="6.5689">
        <ele>2423</ele>
        <time>2021-04-08T08:37:15Z</time>
      </trkpt>
      <trkpt lat="44.45095" lon="6.56891">
        <ele>2423</ele>
        <time>2021-04-08T08:37:16Z</time>
      </trkpt>
      <trkpt lat="44.45095" lon="6.56892">
        <ele>2424</ele>
        <time>2021-04-08T08:37:17Z</time>
      </trkpt>
      <trkpt lat="44.45095" lon="6.56893">
        <ele>2424</ele>
        <time>2021-04-08T08:37:18Z</time>
      </trkpt>
      <trkpt lat="44.45095" lon="6.56893">
        <ele>2424</ele>
        <time>2021-04-08T08:37:19Z</time>
      </trkpt>
      <trkpt lat="44.45095" lon="6.56894">
        <ele>2424</ele>
        <time>2021-04-08T08:37:20Z</time>
      </trkpt>
      <trkpt lat="44.45095" lon="6.56894">
        <ele>2425</ele>
        <time>2021-04-08T08:37:21Z</time>
      </trkpt>
      <trkpt lat="44.45096" lon="6.56895">
        <ele>2425</ele>
        <time>2021-04-08T08:37:22Z</time>
      </trkpt>
      <trkpt lat="44.45096" lon="6.56896">
        <ele>2425</ele>
        <time>2021-04-08T08:37:23Z</time>
      </trkpt>
      <trkpt lat="44.45096" lon="6.56896">
        <ele>2425</ele>
        <time>2021-04-08T08:37:24Z</time>
      </trkpt>
      <trkpt lat="44.45096" lon="6.56897">
        <ele>2425</ele>
        <time>2021-04-08T08:37:25Z</time>
      </trkpt>
      <trkpt lat="44.45096" lon="6.56897">
        <ele>2425</ele>
        <time>2021-04-08T08:37:26Z</time>
      </trkpt>
      <trkpt lat="44.45096" lon="6.56898">
        <ele>2425</ele>
        <time>2021-04-08T08:37:27Z</time>
      </trkpt>
      <trkpt lat="44.45096" lon="6.56899">
        <ele>2425</ele>
        <time>2021-04-08T08:37:28Z</time>
      </trkpt>
      <trkpt lat="44.45097" lon="6.569">
        <ele>2426</ele>
        <time>2021-04-08T08:37:29Z</time>
      </trkpt>
      <trkpt lat="44.45097" lon="6.56901">
        <ele>2426</ele>
        <time>2021-04-08T08:37:30Z</time>
      </trkpt>
      <trkpt lat="44.45097" lon="6.56901">
        <ele>2426</ele>
        <time>2021-04-08T08:37:31Z</time>
      </trkpt>
      <trkpt lat="44.45097" lon="6.56902">
        <ele>2426</ele>
        <time>2021-04-08T08:37:32Z</time>
      </trkpt>
      <trkpt lat="44.45097" lon="6.56903">
        <ele>2426</ele>
        <time>2021-04-08T08:37:33Z</time>
      </trkpt>
      <trkpt lat="44.45097" lon="6.56904">
        <ele>2427</ele>
        <time>2021-04-08T08:37:34Z</time>
      </trkpt>
      <trkpt lat="44.45097" lon="6.56905">
        <ele>2427</ele>
        <time>2021-04-08T08:37:35Z</time>
      </trkpt>
      <trkpt lat="44.45097" lon="6.56906">
        <ele>2427</ele>
        <time>2021-04-08T08:37:36Z</time>
      </trkpt>
      <trkpt lat="44.45097" lon="6.56907">
        <ele>2427</ele>
        <time>2021-04-08T08:37:37Z</time>
      </trkpt>
      <trkpt lat="44.45098" lon="6.56908">
        <ele>2427</ele>
        <time>2021-04-08T08:37:38Z</time>
      </trkpt>
      <trkpt lat="44.45097" lon="6.56908">
        <ele>2427</ele>
        <time>2021-04-08T08:37:39Z</time>
      </trkpt>
      <trkpt lat="44.45097" lon="6.56909">
        <ele>2427</ele>
        <time>2021-04-08T08:37:40Z</time>
      </trkpt>
      <trkpt lat="44.45097" lon="6.5691">
        <ele>2427</ele>
        <time>2021-04-08T08:37:41Z</time>
      </trkpt>
      <trkpt lat="44.45097" lon="6.56911">
        <ele>2427</ele>
        <time>2021-04-08T08:37:42Z</time>
      </trkpt>
      <trkpt lat="44.45097" lon="6.56911">
        <ele>2427</ele>
        <time>2021-04-08T08:37:43Z</time>
      </trkpt>
      <trkpt lat="44.45097" lon="6.56912">
        <ele>2427</ele>
        <time>2021-04-08T08:37:44Z</time>
      </trkpt>
      <trkpt lat="44.45097" lon="6.56913">
        <ele>2427</ele>
        <time>2021-04-08T08:37:45Z</time>
      </trkpt>
      <trkpt lat="44.45097" lon="6.56914">
        <ele>2427</ele>
        <time>2021-04-08T08:37:46Z</time>
      </trkpt>
      <trkpt lat="44.45097" lon="6.56914">
        <ele>2427</ele>
        <time>2021-04-08T08:37:47Z</time>
      </trkpt>
      <trkpt lat="44.45096" lon="6.56916">
        <ele>2428</ele>
        <time>2021-04-08T08:37:48Z</time>
      </trkpt>
      <trkpt lat="44.45095" lon="6.56917">
        <ele>2428</ele>
        <time>2021-04-08T08:37:49Z</time>
      </trkpt>
      <trkpt lat="44.45095" lon="6.56918">
        <ele>2428</ele>
        <time>2021-04-08T08:37:50Z</time>
      </trkpt>
      <trkpt lat="44.45094" lon="6.56919">
        <ele>2428</ele>
        <time>2021-04-08T08:37:51Z</time>
      </trkpt>
      <trkpt lat="44.45094" lon="6.5692">
        <ele>2428</ele>
        <time>2021-04-08T08:37:52Z</time>
      </trkpt>
      <trkpt lat="44.45093" lon="6.5692">
        <ele>2429</ele>
        <time>2021-04-08T08:37:53Z</time>
      </trkpt>
      <trkpt lat="44.45093" lon="6.56921">
        <ele>2429</ele>
        <time>2021-04-08T08:37:54Z</time>
      </trkpt>
      <trkpt lat="44.45093" lon="6.56922">
        <ele>2429</ele>
        <time>2021-04-08T08:37:55Z</time>
      </trkpt>
      <trkpt lat="44.45093" lon="6.56922">
        <ele>2429</ele>
        <time>2021-04-08T08:37:56Z</time>
      </trkpt>
      <trkpt lat="44.45093" lon="6.56923">
        <ele>2429</ele>
        <time>2021-04-08T08:37:57Z</time>
      </trkpt>
      <trkpt lat="44.45093" lon="6.56923">
        <ele>2429</ele>
        <time>2021-04-08T08:37:58Z</time>
      </trkpt>
      <trkpt lat="44.45093" lon="6.56923">
        <ele>2429</ele>
        <time>2021-04-08T08:37:59Z</time>
      </trkpt>
      <trkpt lat="44.45094" lon="6.56924">
        <ele>2429</ele>
        <time>2021-04-08T08:38:00Z</time>
      </trkpt>
      <trkpt lat="44.45094" lon="6.56925">
        <ele>2429</ele>
        <time>2021-04-08T08:38:01Z</time>
      </trkpt>
      <trkpt lat="44.45094" lon="6.56925">
        <ele>2429</ele>
        <time>2021-04-08T08:38:02Z</time>
      </trkpt>
      <trkpt lat="44.45094" lon="6.56926">
        <ele>2429</ele>
        <time>2021-04-08T08:38:03Z</time>
      </trkpt>
      <trkpt lat="44.45094" lon="6.56926">
        <ele>2429</ele>
        <time>2021-04-08T08:38:04Z</time>
      </trkpt>
      <trkpt lat="44.45094" lon="6.56926">
        <ele>2429</ele>
        <time>2021-04-08T08:38:05Z</time>
      </trkpt>
      <trkpt lat="44.45094" lon="6.56927">
        <ele>2429</ele>
        <time>2021-04-08T08:38:06Z</time>
      </trkpt>
      <trkpt lat="44.45094" lon="6.56928">
        <ele>2429</ele>
        <time>2021-04-08T08:38:07Z</time>
      </trkpt>
      <trkpt lat="44.45094" lon="6.56929">
        <ele>2429</ele>
        <time>2021-04-08T08:38:08Z</time>
      </trkpt>
      <trkpt lat="44.45094" lon="6.5693">
        <ele>2429</ele>
        <time>2021-04-08T08:38:09Z</time>
      </trkpt>
      <trkpt lat="44.45093" lon="6.56931">
        <ele>2429</ele>
        <time>2021-04-08T08:38:10Z</time>
      </trkpt>
      <trkpt lat="44.45093" lon="6.56932">
        <ele>2429</ele>
        <time>2021-04-08T08:38:11Z</time>
      </trkpt>
      <trkpt lat="44.45093" lon="6.56932">
        <ele>2429</ele>
        <time>2021-04-08T08:38:12Z</time>
      </trkpt>
      <trkpt lat="44.45093" lon="6.56933">
        <ele>2429</ele>
        <time>2021-04-08T08:38:13Z</time>
      </trkpt>
      <trkpt lat="44.45093" lon="6.56934">
        <ele>2429</ele>
        <time>2021-04-08T08:38:14Z</time>
      </trkpt>
      <trkpt lat="44.45092" lon="6.56935">
        <ele>2429</ele>
        <time>2021-04-08T08:38:15Z</time>
      </trkpt>
      <trkpt lat="44.45092" lon="6.56936">
        <ele>2429</ele>
        <time>2021-04-08T08:38:16Z</time>
      </trkpt>
      <trkpt lat="44.45092" lon="6.56937">
        <ele>2429</ele>
        <time>2021-04-08T08:38:17Z</time>
      </trkpt>
      <trkpt lat="44.45092" lon="6.56938">
        <ele>2429</ele>
        <time>2021-04-08T08:38:18Z</time>
      </trkpt>
      <trkpt lat="44.45092" lon="6.56939">
        <ele>2429</ele>
        <time>2021-04-08T08:38:19Z</time>
      </trkpt>
      <trkpt lat="44.45092" lon="6.56939">
        <ele>2429</ele>
        <time>2021-04-08T08:38:20Z</time>
      </trkpt>
      <trkpt lat="44.45092" lon="6.5694">
        <ele>2429</ele>
        <time>2021-04-08T08:38:21Z</time>
      </trkpt>
      <trkpt lat="44.45091" lon="6.56941">
        <ele>2429</ele>
        <time>2021-04-08T08:38:22Z</time>
      </trkpt>
      <trkpt lat="44.45091" lon="6.56942">
        <ele>2429</ele>
        <time>2021-04-08T08:38:23Z</time>
      </trkpt>
      <trkpt lat="44.45091" lon="6.56943">
        <ele>2430</ele>
        <time>2021-04-08T08:38:24Z</time>
      </trkpt>
      <trkpt lat="44.4509" lon="6.56944">
        <ele>2430</ele>
        <time>2021-04-08T08:38:25Z</time>
      </trkpt>
      <trkpt lat="44.4509" lon="6.56945">
        <ele>2430</ele>
        <time>2021-04-08T08:38:26Z</time>
      </trkpt>
      <trkpt lat="44.45089" lon="6.56947">
        <ele>2430</ele>
        <time>2021-04-08T08:38:27Z</time>
      </trkpt>
      <trkpt lat="44.45088" lon="6.56948">
        <ele>2431</ele>
        <time>2021-04-08T08:38:28Z</time>
      </trkpt>
      <trkpt lat="44.45088" lon="6.56948">
        <ele>2431</ele>
        <time>2021-04-08T08:38:29Z</time>
      </trkpt>
      <trkpt lat="44.45088" lon="6.56949">
        <ele>2431</ele>
        <time>2021-04-08T08:38:30Z</time>
      </trkpt>
      <trkpt lat="44.45087" lon="6.5695">
        <ele>2431</ele>
        <time>2021-04-08T08:38:31Z</time>
      </trkpt>
      <trkpt lat="44.45087" lon="6.5695">
        <ele>2431</ele>
        <time>2021-04-08T08:38:32Z</time>
      </trkpt>
      <trkpt lat="44.45088" lon="6.56951">
        <ele>2432</ele>
        <time>2021-04-08T08:38:33Z</time>
      </trkpt>
      <trkpt lat="44.45088" lon="6.56951">
        <ele>2432</ele>
        <time>2021-04-08T08:38:34Z</time>
      </trkpt>
      <trkpt lat="44.45089" lon="6.56952">
        <ele>2432</ele>
        <time>2021-04-08T08:38:35Z</time>
      </trkpt>
      <trkpt lat="44.45089" lon="6.56952">
        <ele>2432</ele>
        <time>2021-04-08T08:38:36Z</time>
      </trkpt>
      <trkpt lat="44.45089" lon="6.56953">
        <ele>2433</ele>
        <time>2021-04-08T08:38:37Z</time>
      </trkpt>
      <trkpt lat="44.45089" lon="6.56953">
        <ele>2433</ele>
        <time>2021-04-08T08:38:38Z</time>
      </trkpt>
      <trkpt lat="44.45089" lon="6.56954">
        <ele>2433</ele>
        <time>2021-04-08T08:38:39Z</time>
      </trkpt>
      <trkpt lat="44.45089" lon="6.56955">
        <ele>2433</ele>
        <time>2021-04-08T08:38:40Z</time>
      </trkpt>
      <trkpt lat="44.45088" lon="6.56956">
        <ele>2433</ele>
        <time>2021-04-08T08:38:41Z</time>
      </trkpt>
      <trkpt lat="44.45088" lon="6.56957">
        <ele>2433</ele>
        <time>2021-04-08T08:38:42Z</time>
      </trkpt>
      <trkpt lat="44.45088" lon="6.56957">
        <ele>2433</ele>
        <time>2021-04-08T08:38:43Z</time>
      </trkpt>
      <trkpt lat="44.45088" lon="6.56958">
        <ele>2433</ele>
        <time>2021-04-08T08:38:44Z</time>
      </trkpt>
      <trkpt lat="44.45087" lon="6.56958">
        <ele>2433</ele>
        <time>2021-04-08T08:38:45Z</time>
      </trkpt>
      <trkpt lat="44.45088" lon="6.56958">
        <ele>2433</ele>
        <time>2021-04-08T08:38:46Z</time>
      </trkpt>
      <trkpt lat="44.45088" lon="6.56958">
        <ele>2433</ele>
        <time>2021-04-08T08:38:47Z</time>
      </trkpt>
      <trkpt lat="44.45088" lon="6.56958">
        <ele>2433</ele>
        <time>2021-04-08T08:38:48Z</time>
      </trkpt>
      <trkpt lat="44.45088" lon="6.56958">
        <ele>2433</ele>
        <time>2021-04-08T08:38:49Z</time>
      </trkpt>
      <trkpt lat="44.45088" lon="6.56958">
        <ele>2433</ele>
        <time>2021-04-08T08:38:50Z</time>
      </trkpt>
      <trkpt lat="44.45088" lon="6.56958">
        <ele>2433</ele>
        <time>2021-04-08T08:38:51Z</time>
      </trkpt>
      <trkpt lat="44.45088" lon="6.56958">
        <ele>2433</ele>
        <time>2021-04-08T08:38:52Z</time>
      </trkpt>
      <trkpt lat="44.45088" lon="6.56958">
        <ele>2433</ele>
        <time>2021-04-08T08:38:53Z</time>
      </trkpt>
      <trkpt lat="44.45087" lon="6.56963">
        <ele>2434</ele>
        <time>2021-04-08T08:38:54Z</time>
      </trkpt>
      <trkpt lat="44.45087" lon="6.56963">
        <ele>2434</ele>
        <time>2021-04-08T08:38:55Z</time>
      </trkpt>
      <trkpt lat="44.45087" lon="6.56965">
        <ele>2434</ele>
        <time>2021-04-08T08:38:56Z</time>
      </trkpt>
      <trkpt lat="44.45087" lon="6.56965">
        <ele>2435</ele>
        <time>2021-04-08T08:38:57Z</time>
      </trkpt>
      <trkpt lat="44.45087" lon="6.56967">
        <ele>2435</ele>
        <time>2021-04-08T08:38:58Z</time>
      </trkpt>
      <trkpt lat="44.45087" lon="6.56967">
        <ele>2435</ele>
        <time>2021-04-08T08:38:59Z</time>
      </trkpt>
      <trkpt lat="44.45087" lon="6.56968">
        <ele>2436</ele>
        <time>2021-04-08T08:39:00Z</time>
      </trkpt>
      <trkpt lat="44.45087" lon="6.56969">
        <ele>2436</ele>
        <time>2021-04-08T08:39:01Z</time>
      </trkpt>
      <trkpt lat="44.45087" lon="6.5697">
        <ele>2436</ele>
        <time>2021-04-08T08:39:02Z</time>
      </trkpt>
      <trkpt lat="44.45087" lon="6.56971">
        <ele>2436</ele>
        <time>2021-04-08T08:39:03Z</time>
      </trkpt>
      <trkpt lat="44.45087" lon="6.56971">
        <ele>2436</ele>
        <time>2021-04-08T08:39:04Z</time>
      </trkpt>
      <trkpt lat="44.45087" lon="6.56972">
        <ele>2437</ele>
        <time>2021-04-08T08:39:05Z</time>
      </trkpt>
      <trkpt lat="44.45087" lon="6.56973">
        <ele>2438</ele>
        <time>2021-04-08T08:39:06Z</time>
      </trkpt>
      <trkpt lat="44.45087" lon="6.56975">
        <ele>2438</ele>
        <time>2021-04-08T08:39:07Z</time>
      </trkpt>
      <trkpt lat="44.45087" lon="6.56976">
        <ele>2438</ele>
        <time>2021-04-08T08:39:08Z</time>
      </trkpt>
      <trkpt lat="44.45087" lon="6.56977">
        <ele>2439</ele>
        <time>2021-04-08T08:39:09Z</time>
      </trkpt>
      <trkpt lat="44.45087" lon="6.56978">
        <ele>2439</ele>
        <time>2021-04-08T08:39:10Z</time>
      </trkpt>
      <trkpt lat="44.45087" lon="6.56979">
        <ele>2439</ele>
        <time>2021-04-08T08:39:11Z</time>
      </trkpt>
      <trkpt lat="44.45087" lon="6.5698">
        <ele>2439</ele>
        <time>2021-04-08T08:39:12Z</time>
      </trkpt>
      <trkpt lat="44.45087" lon="6.5698">
        <ele>2439</ele>
        <time>2021-04-08T08:39:13Z</time>
      </trkpt>
      <trkpt lat="44.45087" lon="6.56982">
        <ele>2440</ele>
        <time>2021-04-08T08:39:14Z</time>
      </trkpt>
      <trkpt lat="44.45087" lon="6.56982">
        <ele>2440</ele>
        <time>2021-04-08T08:39:15Z</time>
      </trkpt>
      <trkpt lat="44.45088" lon="6.56983">
        <ele>2440</ele>
        <time>2021-04-08T08:39:16Z</time>
      </trkpt>
      <trkpt lat="44.45088" lon="6.56984">
        <ele>2440</ele>
        <time>2021-04-08T08:39:17Z</time>
      </trkpt>
      <trkpt lat="44.45088" lon="6.56985">
        <ele>2440</ele>
        <time>2021-04-08T08:39:18Z</time>
      </trkpt>
      <trkpt lat="44.45088" lon="6.56985">
        <ele>2440</ele>
        <time>2021-04-08T08:39:19Z</time>
      </trkpt>
      <trkpt lat="44.45087" lon="6.56986">
        <ele>2441</ele>
        <time>2021-04-08T08:39:20Z</time>
      </trkpt>
      <trkpt lat="44.45087" lon="6.56986">
        <ele>2441</ele>
        <time>2021-04-08T08:39:21Z</time>
      </trkpt>
      <trkpt lat="44.45086" lon="6.56986">
        <ele>2441</ele>
        <time>2021-04-08T08:39:22Z</time>
      </trkpt>
      <trkpt lat="44.45085" lon="6.56986">
        <ele>2442</ele>
        <time>2021-04-08T08:39:23Z</time>
      </trkpt>
      <trkpt lat="44.45085" lon="6.56985">
        <ele>2442</ele>
        <time>2021-04-08T08:39:24Z</time>
      </trkpt>
      <trkpt lat="44.45084" lon="6.56985">
        <ele>2442</ele>
        <time>2021-04-08T08:39:25Z</time>
      </trkpt>
      <trkpt lat="44.45084" lon="6.56985">
        <ele>2443</ele>
        <time>2021-04-08T08:39:26Z</time>
      </trkpt>
      <trkpt lat="44.45084" lon="6.56985">
        <ele>2443</ele>
        <time>2021-04-08T08:39:27Z</time>
      </trkpt>
      <trkpt lat="44.45083" lon="6.56984">
        <ele>2443</ele>
        <time>2021-04-08T08:39:28Z</time>
      </trkpt>
      <trkpt lat="44.45083" lon="6.56984">
        <ele>2443</ele>
        <time>2021-04-08T08:39:29Z</time>
      </trkpt>
      <trkpt lat="44.45082" lon="6.56983">
        <ele>2443</ele>
        <time>2021-04-08T08:39:30Z</time>
      </trkpt>
      <trkpt lat="44.45082" lon="6.56982">
        <ele>2443</ele>
        <time>2021-04-08T08:39:31Z</time>
      </trkpt>
      <trkpt lat="44.45081" lon="6.56982">
        <ele>2443</ele>
        <time>2021-04-08T08:39:32Z</time>
      </trkpt>
      <trkpt lat="44.45081" lon="6.56982">
        <ele>2444</ele>
        <time>2021-04-08T08:39:33Z</time>
      </trkpt>
      <trkpt lat="44.4508" lon="6.56982">
        <ele>2444</ele>
        <time>2021-04-08T08:39:34Z</time>
      </trkpt>
      <trkpt lat="44.45079" lon="6.56983">
        <ele>2444</ele>
        <time>2021-04-08T08:39:35Z</time>
      </trkpt>
      <trkpt lat="44.45079" lon="6.56983">
        <ele>2444</ele>
        <time>2021-04-08T08:39:36Z</time>
      </trkpt>
      <trkpt lat="44.45079" lon="6.56983">
        <ele>2444</ele>
        <time>2021-04-08T08:39:37Z</time>
      </trkpt>
      <trkpt lat="44.45078" lon="6.56983">
        <ele>2444</ele>
        <time>2021-04-08T08:39:38Z</time>
      </trkpt>
      <trkpt lat="44.45078" lon="6.56983">
        <ele>2445</ele>
        <time>2021-04-08T08:39:39Z</time>
      </trkpt>
      <trkpt lat="44.45077" lon="6.56984">
        <ele>2445</ele>
        <time>2021-04-08T08:39:40Z</time>
      </trkpt>
      <trkpt lat="44.45077" lon="6.56984">
        <ele>2445</ele>
        <time>2021-04-08T08:39:41Z</time>
      </trkpt>
      <trkpt lat="44.45077" lon="6.56984">
        <ele>2445</ele>
        <time>2021-04-08T08:39:42Z</time>
      </trkpt>
      <trkpt lat="44.45076" lon="6.56984">
        <ele>2445</ele>
        <time>2021-04-08T08:39:43Z</time>
      </trkpt>
      <trkpt lat="44.45076" lon="6.56984">
        <ele>2445</ele>
        <time>2021-04-08T08:39:44Z</time>
      </trkpt>
      <trkpt lat="44.45075" lon="6.56984">
        <ele>2445</ele>
        <time>2021-04-08T08:39:45Z</time>
      </trkpt>
      <trkpt lat="44.45074" lon="6.56983">
        <ele>2446</ele>
        <time>2021-04-08T08:39:46Z</time>
      </trkpt>
      <trkpt lat="44.45073" lon="6.56983">
        <ele>2446</ele>
        <time>2021-04-08T08:39:47Z</time>
      </trkpt>
      <trkpt lat="44.45072" lon="6.56983">
        <ele>2446</ele>
        <time>2021-04-08T08:39:48Z</time>
      </trkpt>
      <trkpt lat="44.45071" lon="6.56983">
        <ele>2447</ele>
        <time>2021-04-08T08:39:49Z</time>
      </trkpt>
      <trkpt lat="44.4507" lon="6.56983">
        <ele>2447</ele>
        <time>2021-04-08T08:39:50Z</time>
      </trkpt>
      <trkpt lat="44.45069" lon="6.56984">
        <ele>2447</ele>
        <time>2021-04-08T08:39:51Z</time>
      </trkpt>
      <trkpt lat="44.45069" lon="6.56984">
        <ele>2448</ele>
        <time>2021-04-08T08:39:52Z</time>
      </trkpt>
      <trkpt lat="44.45068" lon="6.56984">
        <ele>2448</ele>
        <time>2021-04-08T08:39:53Z</time>
      </trkpt>
      <trkpt lat="44.45068" lon="6.56984">
        <ele>2448</ele>
        <time>2021-04-08T08:39:54Z</time>
      </trkpt>
      <trkpt lat="44.45068" lon="6.56985">
        <ele>2448</ele>
        <time>2021-04-08T08:39:55Z</time>
      </trkpt>
      <trkpt lat="44.45068" lon="6.56985">
        <ele>2449</ele>
        <time>2021-04-08T08:39:56Z</time>
      </trkpt>
      <trkpt lat="44.45067" lon="6.56985">
        <ele>2449</ele>
        <time>2021-04-08T08:39:57Z</time>
      </trkpt>
      <trkpt lat="44.45067" lon="6.56986">
        <ele>2449</ele>
        <time>2021-04-08T08:39:58Z</time>
      </trkpt>
      <trkpt lat="44.45067" lon="6.56986">
        <ele>2449</ele>
        <time>2021-04-08T08:39:59Z</time>
      </trkpt>
      <trkpt lat="44.45067" lon="6.56986">
        <ele>2449</ele>
        <time>2021-04-08T08:40:00Z</time>
      </trkpt>
      <trkpt lat="44.45067" lon="6.56986">
        <ele>2449</ele>
        <time>2021-04-08T08:40:01Z</time>
      </trkpt>
      <trkpt lat="44.45067" lon="6.56987">
        <ele>2449</ele>
        <time>2021-04-08T08:40:02Z</time>
      </trkpt>
      <trkpt lat="44.45067" lon="6.56988">
        <ele>2450</ele>
        <time>2021-04-08T08:40:03Z</time>
      </trkpt>
      <trkpt lat="44.45068" lon="6.56988">
        <ele>2450</ele>
        <time>2021-04-08T08:40:04Z</time>
      </trkpt>
      <trkpt lat="44.45068" lon="6.5699">
        <ele>2450</ele>
        <time>2021-04-08T08:40:05Z</time>
      </trkpt>
      <trkpt lat="44.45068" lon="6.5699">
        <ele>2450</ele>
        <time>2021-04-08T08:40:06Z</time>
      </trkpt>
      <trkpt lat="44.45068" lon="6.56991">
        <ele>2450</ele>
        <time>2021-04-08T08:40:07Z</time>
      </trkpt>
      <trkpt lat="44.45068" lon="6.56993">
        <ele>2450</ele>
        <time>2021-04-08T08:40:08Z</time>
      </trkpt>
      <trkpt lat="44.45069" lon="6.56993">
        <ele>2450</ele>
        <time>2021-04-08T08:40:09Z</time>
      </trkpt>
      <trkpt lat="44.45069" lon="6.56995">
        <ele>2450</ele>
        <time>2021-04-08T08:40:10Z</time>
      </trkpt>
      <trkpt lat="44.45069" lon="6.56995">
        <ele>2450</ele>
        <time>2021-04-08T08:40:11Z</time>
      </trkpt>
      <trkpt lat="44.45069" lon="6.56996">
        <ele>2451</ele>
        <time>2021-04-08T08:40:12Z</time>
      </trkpt>
      <trkpt lat="44.45069" lon="6.56997">
        <ele>2451</ele>
        <time>2021-04-08T08:40:13Z</time>
      </trkpt>
      <trkpt lat="44.45069" lon="6.56998">
        <ele>2451</ele>
        <time>2021-04-08T08:40:14Z</time>
      </trkpt>
      <trkpt lat="44.45069" lon="6.56999">
        <ele>2451</ele>
        <time>2021-04-08T08:40:15Z</time>
      </trkpt>
      <trkpt lat="44.45069" lon="6.57">
        <ele>2451</ele>
        <time>2021-04-08T08:40:16Z</time>
      </trkpt>
      <trkpt lat="44.45069" lon="6.57001">
        <ele>2451</ele>
        <time>2021-04-08T08:40:17Z</time>
      </trkpt>
      <trkpt lat="44.45069" lon="6.57002">
        <ele>2451</ele>
        <time>2021-04-08T08:40:18Z</time>
      </trkpt>
      <trkpt lat="44.45069" lon="6.57003">
        <ele>2451</ele>
        <time>2021-04-08T08:40:19Z</time>
      </trkpt>
      <trkpt lat="44.45069" lon="6.57005">
        <ele>2451</ele>
        <time>2021-04-08T08:40:20Z</time>
      </trkpt>
      <trkpt lat="44.45069" lon="6.57006">
        <ele>2451</ele>
        <time>2021-04-08T08:40:21Z</time>
      </trkpt>
      <trkpt lat="44.45069" lon="6.57007">
        <ele>2451</ele>
        <time>2021-04-08T08:40:22Z</time>
      </trkpt>
      <trkpt lat="44.4507" lon="6.57008">
        <ele>2451</ele>
        <time>2021-04-08T08:40:23Z</time>
      </trkpt>
      <trkpt lat="44.4507" lon="6.57008">
        <ele>2451</ele>
        <time>2021-04-08T08:40:24Z</time>
      </trkpt>
      <trkpt lat="44.45071" lon="6.57009">
        <ele>2451</ele>
        <time>2021-04-08T08:40:25Z</time>
      </trkpt>
      <trkpt lat="44.45071" lon="6.57009">
        <ele>2451</ele>
        <time>2021-04-08T08:40:26Z</time>
      </trkpt>
      <trkpt lat="44.45071" lon="6.5701">
        <ele>2451</ele>
        <time>2021-04-08T08:40:27Z</time>
      </trkpt>
      <trkpt lat="44.45071" lon="6.57011">
        <ele>2451</ele>
        <time>2021-04-08T08:40:28Z</time>
      </trkpt>
      <trkpt lat="44.45071" lon="6.57012">
        <ele>2451</ele>
        <time>2021-04-08T08:40:29Z</time>
      </trkpt>
      <trkpt lat="44.45071" lon="6.57013">
        <ele>2452</ele>
        <time>2021-04-08T08:40:30Z</time>
      </trkpt>
      <trkpt lat="44.45071" lon="6.57014">
        <ele>2452</ele>
        <time>2021-04-08T08:40:31Z</time>
      </trkpt>
      <trkpt lat="44.45071" lon="6.57015">
        <ele>2452</ele>
        <time>2021-04-08T08:40:32Z</time>
      </trkpt>
      <trkpt lat="44.45071" lon="6.57015">
        <ele>2452</ele>
        <time>2021-04-08T08:40:33Z</time>
      </trkpt>
      <trkpt lat="44.45071" lon="6.57016">
        <ele>2452</ele>
        <time>2021-04-08T08:40:34Z</time>
      </trkpt>
      <trkpt lat="44.45071" lon="6.57016">
        <ele>2452</ele>
        <time>2021-04-08T08:40:35Z</time>
      </trkpt>
      <trkpt lat="44.45071" lon="6.57017">
        <ele>2452</ele>
        <time>2021-04-08T08:40:36Z</time>
      </trkpt>
      <trkpt lat="44.45071" lon="6.57018">
        <ele>2452</ele>
        <time>2021-04-08T08:40:37Z</time>
      </trkpt>
      <trkpt lat="44.45071" lon="6.57019">
        <ele>2453</ele>
        <time>2021-04-08T08:40:38Z</time>
      </trkpt>
      <trkpt lat="44.45071" lon="6.57019">
        <ele>2453</ele>
        <time>2021-04-08T08:40:39Z</time>
      </trkpt>
      <trkpt lat="44.45071" lon="6.57021">
        <ele>2453</ele>
        <time>2021-04-08T08:40:40Z</time>
      </trkpt>
      <trkpt lat="44.45071" lon="6.57022">
        <ele>2453</ele>
        <time>2021-04-08T08:40:41Z</time>
      </trkpt>
      <trkpt lat="44.45071" lon="6.57022">
        <ele>2453</ele>
        <time>2021-04-08T08:40:42Z</time>
      </trkpt>
      <trkpt lat="44.4507" lon="6.57024">
        <ele>2453</ele>
        <time>2021-04-08T08:40:43Z</time>
      </trkpt>
      <trkpt lat="44.45071" lon="6.57025">
        <ele>2454</ele>
        <time>2021-04-08T08:40:44Z</time>
      </trkpt>
      <trkpt lat="44.45071" lon="6.57025">
        <ele>2454</ele>
        <time>2021-04-08T08:40:45Z</time>
      </trkpt>
      <trkpt lat="44.45071" lon="6.57026">
        <ele>2454</ele>
        <time>2021-04-08T08:40:46Z</time>
      </trkpt>
      <trkpt lat="44.45071" lon="6.57027">
        <ele>2454</ele>
        <time>2021-04-08T08:40:47Z</time>
      </trkpt>
      <trkpt lat="44.45071" lon="6.57028">
        <ele>2454</ele>
        <time>2021-04-08T08:40:48Z</time>
      </trkpt>
      <trkpt lat="44.45071" lon="6.57028">
        <ele>2454</ele>
        <time>2021-04-08T08:40:49Z</time>
      </trkpt>
      <trkpt lat="44.45071" lon="6.57029">
        <ele>2454</ele>
        <time>2021-04-08T08:40:50Z</time>
      </trkpt>
      <trkpt lat="44.45071" lon="6.5703">
        <ele>2454</ele>
        <time>2021-04-08T08:40:51Z</time>
      </trkpt>
      <trkpt lat="44.45071" lon="6.57031">
        <ele>2454</ele>
        <time>2021-04-08T08:40:52Z</time>
      </trkpt>
      <trkpt lat="44.4507" lon="6.57032">
        <ele>2455</ele>
        <time>2021-04-08T08:40:53Z</time>
      </trkpt>
      <trkpt lat="44.45071" lon="6.57033">
        <ele>2455</ele>
        <time>2021-04-08T08:40:54Z</time>
      </trkpt>
      <trkpt lat="44.45071" lon="6.57033">
        <ele>2455</ele>
        <time>2021-04-08T08:40:55Z</time>
      </trkpt>
      <trkpt lat="44.45071" lon="6.57034">
        <ele>2455</ele>
        <time>2021-04-08T08:40:56Z</time>
      </trkpt>
      <trkpt lat="44.45071" lon="6.57034">
        <ele>2455</ele>
        <time>2021-04-08T08:40:57Z</time>
      </trkpt>
      <trkpt lat="44.45071" lon="6.57035">
        <ele>2455</ele>
        <time>2021-04-08T08:40:58Z</time>
      </trkpt>
      <trkpt lat="44.45071" lon="6.57036">
        <ele>2455</ele>
        <time>2021-04-08T08:40:59Z</time>
      </trkpt>
      <trkpt lat="44.45071" lon="6.57036">
        <ele>2455</ele>
        <time>2021-04-08T08:41:00Z</time>
      </trkpt>
      <trkpt lat="44.45071" lon="6.57037">
        <ele>2456</ele>
        <time>2021-04-08T08:41:01Z</time>
      </trkpt>
      <trkpt lat="44.45072" lon="6.57037">
        <ele>2456</ele>
        <time>2021-04-08T08:41:02Z</time>
      </trkpt>
      <trkpt lat="44.45072" lon="6.57038">
        <ele>2456</ele>
        <time>2021-04-08T08:41:03Z</time>
      </trkpt>
      <trkpt lat="44.45072" lon="6.57039">
        <ele>2456</ele>
        <time>2021-04-08T08:41:04Z</time>
      </trkpt>
      <trkpt lat="44.45072" lon="6.5704">
        <ele>2456</ele>
        <time>2021-04-08T08:41:05Z</time>
      </trkpt>
      <trkpt lat="44.45072" lon="6.57041">
        <ele>2456</ele>
        <time>2021-04-08T08:41:06Z</time>
      </trkpt>
      <trkpt lat="44.45072" lon="6.57042">
        <ele>2456</ele>
        <time>2021-04-08T08:41:07Z</time>
      </trkpt>
      <trkpt lat="44.45072" lon="6.57043">
        <ele>2456</ele>
        <time>2021-04-08T08:41:08Z</time>
      </trkpt>
      <trkpt lat="44.45072" lon="6.57043">
        <ele>2457</ele>
        <time>2021-04-08T08:41:09Z</time>
      </trkpt>
      <trkpt lat="44.45071" lon="6.57044">
        <ele>2457</ele>
        <time>2021-04-08T08:41:10Z</time>
      </trkpt>
      <trkpt lat="44.45071" lon="6.57045">
        <ele>2457</ele>
        <time>2021-04-08T08:41:11Z</time>
      </trkpt>
      <trkpt lat="44.45071" lon="6.57046">
        <ele>2457</ele>
        <time>2021-04-08T08:41:12Z</time>
      </trkpt>
      <trkpt lat="44.45071" lon="6.57047">
        <ele>2457</ele>
        <time>2021-04-08T08:41:13Z</time>
      </trkpt>
      <trkpt lat="44.4507" lon="6.57047">
        <ele>2457</ele>
        <time>2021-04-08T08:41:14Z</time>
      </trkpt>
      <trkpt lat="44.45071" lon="6.57048">
        <ele>2457</ele>
        <time>2021-04-08T08:41:15Z</time>
      </trkpt>
      <trkpt lat="44.4507" lon="6.57049">
        <ele>2457</ele>
        <time>2021-04-08T08:41:16Z</time>
      </trkpt>
      <trkpt lat="44.4507" lon="6.57049">
        <ele>2458</ele>
        <time>2021-04-08T08:41:17Z</time>
      </trkpt>
      <trkpt lat="44.45069" lon="6.57051">
        <ele>2458</ele>
        <time>2021-04-08T08:41:18Z</time>
      </trkpt>
      <trkpt lat="44.45069" lon="6.57052">
        <ele>2458</ele>
        <time>2021-04-08T08:41:19Z</time>
      </trkpt>
      <trkpt lat="44.45068" lon="6.57054">
        <ele>2458</ele>
        <time>2021-04-08T08:41:20Z</time>
      </trkpt>
      <trkpt lat="44.45068" lon="6.57054">
        <ele>2458</ele>
        <time>2021-04-08T08:41:21Z</time>
      </trkpt>
      <trkpt lat="44.45068" lon="6.57055">
        <ele>2458</ele>
        <time>2021-04-08T08:41:22Z</time>
      </trkpt>
      <trkpt lat="44.45069" lon="6.57056">
        <ele>2458</ele>
        <time>2021-04-08T08:41:23Z</time>
      </trkpt>
      <trkpt lat="44.45069" lon="6.57056">
        <ele>2458</ele>
        <time>2021-04-08T08:41:24Z</time>
      </trkpt>
      <trkpt lat="44.45069" lon="6.57057">
        <ele>2458</ele>
        <time>2021-04-08T08:41:25Z</time>
      </trkpt>
      <trkpt lat="44.45069" lon="6.57058">
        <ele>2458</ele>
        <time>2021-04-08T08:41:26Z</time>
      </trkpt>
      <trkpt lat="44.45069" lon="6.57058">
        <ele>2458</ele>
        <time>2021-04-08T08:41:27Z</time>
      </trkpt>
      <trkpt lat="44.45069" lon="6.57059">
        <ele>2458</ele>
        <time>2021-04-08T08:41:28Z</time>
      </trkpt>
      <trkpt lat="44.45069" lon="6.5706">
        <ele>2458</ele>
        <time>2021-04-08T08:41:29Z</time>
      </trkpt>
      <trkpt lat="44.45069" lon="6.57061">
        <ele>2458</ele>
        <time>2021-04-08T08:41:30Z</time>
      </trkpt>
      <trkpt lat="44.45069" lon="6.57062">
        <ele>2458</ele>
        <time>2021-04-08T08:41:31Z</time>
      </trkpt>
      <trkpt lat="44.4507" lon="6.57063">
        <ele>2458</ele>
        <time>2021-04-08T08:41:32Z</time>
      </trkpt>
      <trkpt lat="44.4507" lon="6.57063">
        <ele>2459</ele>
        <time>2021-04-08T08:41:33Z</time>
      </trkpt>
      <trkpt lat="44.4507" lon="6.57064">
        <ele>2459</ele>
        <time>2021-04-08T08:41:34Z</time>
      </trkpt>
      <trkpt lat="44.4507" lon="6.57065">
        <ele>2459</ele>
        <time>2021-04-08T08:41:35Z</time>
      </trkpt>
      <trkpt lat="44.45071" lon="6.57065">
        <ele>2459</ele>
        <time>2021-04-08T08:41:36Z</time>
      </trkpt>
      <trkpt lat="44.45071" lon="6.57066">
        <ele>2459</ele>
        <time>2021-04-08T08:41:37Z</time>
      </trkpt>
      <trkpt lat="44.45071" lon="6.57067">
        <ele>2459</ele>
        <time>2021-04-08T08:41:38Z</time>
      </trkpt>
      <trkpt lat="44.45071" lon="6.57067">
        <ele>2459</ele>
        <time>2021-04-08T08:41:39Z</time>
      </trkpt>
      <trkpt lat="44.45071" lon="6.57068">
        <ele>2459</ele>
        <time>2021-04-08T08:41:40Z</time>
      </trkpt>
      <trkpt lat="44.45072" lon="6.57069">
        <ele>2460</ele>
        <time>2021-04-08T08:41:41Z</time>
      </trkpt>
      <trkpt lat="44.45072" lon="6.57069">
        <ele>2460</ele>
        <time>2021-04-08T08:41:42Z</time>
      </trkpt>
      <trkpt lat="44.45072" lon="6.5707">
        <ele>2460</ele>
        <time>2021-04-08T08:41:43Z</time>
      </trkpt>
      <trkpt lat="44.45073" lon="6.57071">
        <ele>2460</ele>
        <time>2021-04-08T08:41:44Z</time>
      </trkpt>
      <trkpt lat="44.45073" lon="6.57071">
        <ele>2460</ele>
        <time>2021-04-08T08:41:45Z</time>
      </trkpt>
      <trkpt lat="44.45073" lon="6.57072">
        <ele>2461</ele>
        <time>2021-04-08T08:41:46Z</time>
      </trkpt>
      <trkpt lat="44.45074" lon="6.57073">
        <ele>2461</ele>
        <time>2021-04-08T08:41:47Z</time>
      </trkpt>
      <trkpt lat="44.45074" lon="6.57074">
        <ele>2461</ele>
        <time>2021-04-08T08:41:48Z</time>
      </trkpt>
      <trkpt lat="44.45075" lon="6.57075">
        <ele>2461</ele>
        <time>2021-04-08T08:41:49Z</time>
      </trkpt>
      <trkpt lat="44.45075" lon="6.57075">
        <ele>2461</ele>
        <time>2021-04-08T08:41:50Z</time>
      </trkpt>
      <trkpt lat="44.45075" lon="6.57076">
        <ele>2462</ele>
        <time>2021-04-08T08:41:51Z</time>
      </trkpt>
      <trkpt lat="44.45075" lon="6.57077">
        <ele>2462</ele>
        <time>2021-04-08T08:41:52Z</time>
      </trkpt>
      <trkpt lat="44.45076" lon="6.57077">
        <ele>2462</ele>
        <time>2021-04-08T08:41:53Z</time>
      </trkpt>
      <trkpt lat="44.45076" lon="6.57078">
        <ele>2462</ele>
        <time>2021-04-08T08:41:54Z</time>
      </trkpt>
      <trkpt lat="44.45077" lon="6.57079">
        <ele>2462</ele>
        <time>2021-04-08T08:41:55Z</time>
      </trkpt>
      <trkpt lat="44.45077" lon="6.57079">
        <ele>2462</ele>
        <time>2021-04-08T08:41:56Z</time>
      </trkpt>
      <trkpt lat="44.45078" lon="6.5708">
        <ele>2463</ele>
        <time>2021-04-08T08:41:57Z</time>
      </trkpt>
      <trkpt lat="44.45078" lon="6.5708">
        <ele>2463</ele>
        <time>2021-04-08T08:41:58Z</time>
      </trkpt>
      <trkpt lat="44.45079" lon="6.57081">
        <ele>2463</ele>
        <time>2021-04-08T08:41:59Z</time>
      </trkpt>
      <trkpt lat="44.45079" lon="6.57081">
        <ele>2463</ele>
        <time>2021-04-08T08:42:00Z</time>
      </trkpt>
      <trkpt lat="44.4508" lon="6.57082">
        <ele>2463</ele>
        <time>2021-04-08T08:42:01Z</time>
      </trkpt>
      <trkpt lat="44.4508" lon="6.57083">
        <ele>2464</ele>
        <time>2021-04-08T08:42:02Z</time>
      </trkpt>
      <trkpt lat="44.45081" lon="6.57084">
        <ele>2464</ele>
        <time>2021-04-08T08:42:03Z</time>
      </trkpt>
      <trkpt lat="44.45082" lon="6.57084">
        <ele>2464</ele>
        <time>2021-04-08T08:42:04Z</time>
      </trkpt>
      <trkpt lat="44.45082" lon="6.57085">
        <ele>2464</ele>
        <time>2021-04-08T08:42:05Z</time>
      </trkpt>
      <trkpt lat="44.45083" lon="6.57085">
        <ele>2465</ele>
        <time>2021-04-08T08:42:06Z</time>
      </trkpt>
      <trkpt lat="44.45083" lon="6.57085">
        <ele>2465</ele>
        <time>2021-04-08T08:42:07Z</time>
      </trkpt>
      <trkpt lat="44.45083" lon="6.57085">
        <ele>2465</ele>
        <time>2021-04-08T08:42:08Z</time>
      </trkpt>
      <trkpt lat="44.45084" lon="6.57085">
        <ele>2465</ele>
        <time>2021-04-08T08:42:09Z</time>
      </trkpt>
      <trkpt lat="44.45084" lon="6.57086">
        <ele>2465</ele>
        <time>2021-04-08T08:42:10Z</time>
      </trkpt>
      <trkpt lat="44.45084" lon="6.57086">
        <ele>2465</ele>
        <time>2021-04-08T08:42:11Z</time>
      </trkpt>
      <trkpt lat="44.45085" lon="6.57087">
        <ele>2466</ele>
        <time>2021-04-08T08:42:12Z</time>
      </trkpt>
      <trkpt lat="44.45086" lon="6.57087">
        <ele>2466</ele>
        <time>2021-04-08T08:42:13Z</time>
      </trkpt>
      <trkpt lat="44.45086" lon="6.57088">
        <ele>2466</ele>
        <time>2021-04-08T08:42:14Z</time>
      </trkpt>
      <trkpt lat="44.45087" lon="6.57088">
        <ele>2466</ele>
        <time>2021-04-08T08:42:15Z</time>
      </trkpt>
      <trkpt lat="44.45087" lon="6.57088">
        <ele>2466</ele>
        <time>2021-04-08T08:42:16Z</time>
      </trkpt>
      <trkpt lat="44.45087" lon="6.57089">
        <ele>2467</ele>
        <time>2021-04-08T08:42:17Z</time>
      </trkpt>
      <trkpt lat="44.45088" lon="6.5709">
        <ele>2467</ele>
        <time>2021-04-08T08:42:18Z</time>
      </trkpt>
      <trkpt lat="44.45088" lon="6.5709">
        <ele>2467</ele>
        <time>2021-04-08T08:42:19Z</time>
      </trkpt>
      <trkpt lat="44.45089" lon="6.57091">
        <ele>2467</ele>
        <time>2021-04-08T08:42:20Z</time>
      </trkpt>
      <trkpt lat="44.45089" lon="6.57092">
        <ele>2467</ele>
        <time>2021-04-08T08:42:21Z</time>
      </trkpt>
      <trkpt lat="44.45089" lon="6.57092">
        <ele>2467</ele>
        <time>2021-04-08T08:42:22Z</time>
      </trkpt>
      <trkpt lat="44.4509" lon="6.57093">
        <ele>2468</ele>
        <time>2021-04-08T08:42:23Z</time>
      </trkpt>
      <trkpt lat="44.4509" lon="6.57093">
        <ele>2468</ele>
        <time>2021-04-08T08:42:24Z</time>
      </trkpt>
      <trkpt lat="44.45091" lon="6.57093">
        <ele>2468</ele>
        <time>2021-04-08T08:42:25Z</time>
      </trkpt>
      <trkpt lat="44.45091" lon="6.57094">
        <ele>2468</ele>
        <time>2021-04-08T08:42:26Z</time>
      </trkpt>
      <trkpt lat="44.45092" lon="6.57094">
        <ele>2468</ele>
        <time>2021-04-08T08:42:27Z</time>
      </trkpt>
      <trkpt lat="44.45092" lon="6.57094">
        <ele>2468</ele>
        <time>2021-04-08T08:42:28Z</time>
      </trkpt>
      <trkpt lat="44.45092" lon="6.57095">
        <ele>2469</ele>
        <time>2021-04-08T08:42:29Z</time>
      </trkpt>
      <trkpt lat="44.45092" lon="6.57095">
        <ele>2469</ele>
        <time>2021-04-08T08:42:30Z</time>
      </trkpt>
      <trkpt lat="44.45092" lon="6.57096">
        <ele>2469</ele>
        <time>2021-04-08T08:42:31Z</time>
      </trkpt>
      <trkpt lat="44.45092" lon="6.57097">
        <ele>2470</ele>
        <time>2021-04-08T08:42:32Z</time>
      </trkpt>
      <trkpt lat="44.45092" lon="6.57098">
        <ele>2470</ele>
        <time>2021-04-08T08:42:33Z</time>
      </trkpt>
      <trkpt lat="44.45093" lon="6.57098">
        <ele>2470</ele>
        <time>2021-04-08T08:42:34Z</time>
      </trkpt>
      <trkpt lat="44.45093" lon="6.57098">
        <ele>2471</ele>
        <time>2021-04-08T08:42:35Z</time>
      </trkpt>
      <trkpt lat="44.45094" lon="6.57099">
        <ele>2471</ele>
        <time>2021-04-08T08:42:36Z</time>
      </trkpt>
      <trkpt lat="44.45094" lon="6.57099">
        <ele>2471</ele>
        <time>2021-04-08T08:42:37Z</time>
      </trkpt>
      <trkpt lat="44.45095" lon="6.57099">
        <ele>2472</ele>
        <time>2021-04-08T08:42:38Z</time>
      </trkpt>
      <trkpt lat="44.45095" lon="6.571">
        <ele>2473</ele>
        <time>2021-04-08T08:42:39Z</time>
      </trkpt>
      <trkpt lat="44.45095" lon="6.571">
        <ele>2473</ele>
        <time>2021-04-08T08:42:40Z</time>
      </trkpt>
      <trkpt lat="44.45096" lon="6.571">
        <ele>2473</ele>
        <time>2021-04-08T08:42:41Z</time>
      </trkpt>
      <trkpt lat="44.45096" lon="6.57101">
        <ele>2473</ele>
        <time>2021-04-08T08:42:42Z</time>
      </trkpt>
      <trkpt lat="44.45097" lon="6.57101">
        <ele>2474</ele>
        <time>2021-04-08T08:42:43Z</time>
      </trkpt>
      <trkpt lat="44.45097" lon="6.57102">
        <ele>2474</ele>
        <time>2021-04-08T08:42:44Z</time>
      </trkpt>
      <trkpt lat="44.45098" lon="6.57102">
        <ele>2474</ele>
        <time>2021-04-08T08:42:45Z</time>
      </trkpt>
      <trkpt lat="44.45098" lon="6.57103">
        <ele>2475</ele>
        <time>2021-04-08T08:42:46Z</time>
      </trkpt>
      <trkpt lat="44.45099" lon="6.57104">
        <ele>2475</ele>
        <time>2021-04-08T08:42:47Z</time>
      </trkpt>
      <trkpt lat="44.45099" lon="6.57105">
        <ele>2475</ele>
        <time>2021-04-08T08:42:48Z</time>
      </trkpt>
      <trkpt lat="44.451" lon="6.57105">
        <ele>2475</ele>
        <time>2021-04-08T08:42:49Z</time>
      </trkpt>
      <trkpt lat="44.451" lon="6.57105">
        <ele>2476</ele>
        <time>2021-04-08T08:42:50Z</time>
      </trkpt>
      <trkpt lat="44.451" lon="6.57105">
        <ele>2476</ele>
        <time>2021-04-08T08:42:51Z</time>
      </trkpt>
      <trkpt lat="44.451" lon="6.57105">
        <ele>2476</ele>
        <time>2021-04-08T08:42:52Z</time>
      </trkpt>
      <trkpt lat="44.451" lon="6.57105">
        <ele>2476</ele>
        <time>2021-04-08T08:42:53Z</time>
      </trkpt>
      <trkpt lat="44.451" lon="6.57105">
        <ele>2477</ele>
        <time>2021-04-08T08:42:54Z</time>
      </trkpt>
      <trkpt lat="44.451" lon="6.57105">
        <ele>2477</ele>
        <time>2021-04-08T08:42:55Z</time>
      </trkpt>
      <trkpt lat="44.451" lon="6.57105">
        <ele>2477</ele>
        <time>2021-04-08T08:42:56Z</time>
      </trkpt>
      <trkpt lat="44.451" lon="6.57105">
        <ele>2477</ele>
        <time>2021-04-08T08:42:57Z</time>
      </trkpt>
      <trkpt lat="44.45101" lon="6.57106">
        <ele>2478</ele>
        <time>2021-04-08T08:42:58Z</time>
      </trkpt>
      <trkpt lat="44.45101" lon="6.57107">
        <ele>2478</ele>
        <time>2021-04-08T08:42:59Z</time>
      </trkpt>
      <trkpt lat="44.45102" lon="6.57107">
        <ele>2478</ele>
        <time>2021-04-08T08:43:00Z</time>
      </trkpt>
      <trkpt lat="44.45102" lon="6.57108">
        <ele>2478</ele>
        <time>2021-04-08T08:43:01Z</time>
      </trkpt>
      <trkpt lat="44.45103" lon="6.57109">
        <ele>2478</ele>
        <time>2021-04-08T08:43:02Z</time>
      </trkpt>
      <trkpt lat="44.45103" lon="6.57109">
        <ele>2479</ele>
        <time>2021-04-08T08:43:03Z</time>
      </trkpt>
      <trkpt lat="44.45104" lon="6.5711">
        <ele>2479</ele>
        <time>2021-04-08T08:43:04Z</time>
      </trkpt>
      <trkpt lat="44.45104" lon="6.5711">
        <ele>2479</ele>
        <time>2021-04-08T08:43:05Z</time>
      </trkpt>
      <trkpt lat="44.45104" lon="6.57111">
        <ele>2479</ele>
        <time>2021-04-08T08:43:06Z</time>
      </trkpt>
      <trkpt lat="44.45104" lon="6.57111">
        <ele>2479</ele>
        <time>2021-04-08T08:43:07Z</time>
      </trkpt>
      <trkpt lat="44.45104" lon="6.57112">
        <ele>2479</ele>
        <time>2021-04-08T08:43:08Z</time>
      </trkpt>
      <trkpt lat="44.45104" lon="6.57112">
        <ele>2479</ele>
        <time>2021-04-08T08:43:09Z</time>
      </trkpt>
      <trkpt lat="44.45105" lon="6.57113">
        <ele>2479</ele>
        <time>2021-04-08T08:43:10Z</time>
      </trkpt>
      <trkpt lat="44.45105" lon="6.57113">
        <ele>2479</ele>
        <time>2021-04-08T08:43:11Z</time>
      </trkpt>
      <trkpt lat="44.45106" lon="6.57114">
        <ele>2480</ele>
        <time>2021-04-08T08:43:12Z</time>
      </trkpt>
      <trkpt lat="44.45107" lon="6.57114">
        <ele>2480</ele>
        <time>2021-04-08T08:43:13Z</time>
      </trkpt>
      <trkpt lat="44.45107" lon="6.57115">
        <ele>2480</ele>
        <time>2021-04-08T08:43:14Z</time>
      </trkpt>
      <trkpt lat="44.45108" lon="6.57115">
        <ele>2480</ele>
        <time>2021-04-08T08:43:15Z</time>
      </trkpt>
      <trkpt lat="44.45109" lon="6.57116">
        <ele>2480</ele>
        <time>2021-04-08T08:43:16Z</time>
      </trkpt>
      <trkpt lat="44.45109" lon="6.57117">
        <ele>2480</ele>
        <time>2021-04-08T08:43:17Z</time>
      </trkpt>
      <trkpt lat="44.4511" lon="6.57117">
        <ele>2480</ele>
        <time>2021-04-08T08:43:18Z</time>
      </trkpt>
      <trkpt lat="44.4511" lon="6.57119">
        <ele>2480</ele>
        <time>2021-04-08T08:43:19Z</time>
      </trkpt>
      <trkpt lat="44.4511" lon="6.5712">
        <ele>2480</ele>
        <time>2021-04-08T08:43:20Z</time>
      </trkpt>
      <trkpt lat="44.45111" lon="6.57121">
        <ele>2481</ele>
        <time>2021-04-08T08:43:21Z</time>
      </trkpt>
      <trkpt lat="44.45111" lon="6.57122">
        <ele>2481</ele>
        <time>2021-04-08T08:43:22Z</time>
      </trkpt>
      <trkpt lat="44.45111" lon="6.57123">
        <ele>2481</ele>
        <time>2021-04-08T08:43:23Z</time>
      </trkpt>
      <trkpt lat="44.45111" lon="6.57123">
        <ele>2481</ele>
        <time>2021-04-08T08:43:24Z</time>
      </trkpt>
      <trkpt lat="44.45111" lon="6.57124">
        <ele>2481</ele>
        <time>2021-04-08T08:43:25Z</time>
      </trkpt>
      <trkpt lat="44.45111" lon="6.57124">
        <ele>2482</ele>
        <time>2021-04-08T08:43:26Z</time>
      </trkpt>
      <trkpt lat="44.45111" lon="6.57125">
        <ele>2482</ele>
        <time>2021-04-08T08:43:27Z</time>
      </trkpt>
      <trkpt lat="44.45111" lon="6.57125">
        <ele>2482</ele>
        <time>2021-04-08T08:43:28Z</time>
      </trkpt>
      <trkpt lat="44.4511" lon="6.57126">
        <ele>2482</ele>
        <time>2021-04-08T08:43:29Z</time>
      </trkpt>
      <trkpt lat="44.4511" lon="6.57127">
        <ele>2482</ele>
        <time>2021-04-08T08:43:30Z</time>
      </trkpt>
      <trkpt lat="44.4511" lon="6.57128">
        <ele>2482</ele>
        <time>2021-04-08T08:43:31Z</time>
      </trkpt>
      <trkpt lat="44.4511" lon="6.57128">
        <ele>2482</ele>
        <time>2021-04-08T08:43:32Z</time>
      </trkpt>
      <trkpt lat="44.45109" lon="6.57129">
        <ele>2482</ele>
        <time>2021-04-08T08:43:33Z</time>
      </trkpt>
      <trkpt lat="44.45109" lon="6.5713">
        <ele>2482</ele>
        <time>2021-04-08T08:43:34Z</time>
      </trkpt>
      <trkpt lat="44.45109" lon="6.57131">
        <ele>2482</ele>
        <time>2021-04-08T08:43:35Z</time>
      </trkpt>
      <trkpt lat="44.45109" lon="6.57131">
        <ele>2482</ele>
        <time>2021-04-08T08:43:36Z</time>
      </trkpt>
      <trkpt lat="44.45108" lon="6.57132">
        <ele>2482</ele>
        <time>2021-04-08T08:43:37Z</time>
      </trkpt>
      <trkpt lat="44.45108" lon="6.57132">
        <ele>2482</ele>
        <time>2021-04-08T08:43:38Z</time>
      </trkpt>
      <trkpt lat="44.45108" lon="6.57133">
        <ele>2482</ele>
        <time>2021-04-08T08:43:39Z</time>
      </trkpt>
      <trkpt lat="44.45108" lon="6.57133">
        <ele>2483</ele>
        <time>2021-04-08T08:43:40Z</time>
      </trkpt>
      <trkpt lat="44.45107" lon="6.57134">
        <ele>2483</ele>
        <time>2021-04-08T08:43:41Z</time>
      </trkpt>
      <trkpt lat="44.45107" lon="6.57135">
        <ele>2483</ele>
        <time>2021-04-08T08:43:42Z</time>
      </trkpt>
      <trkpt lat="44.45106" lon="6.57135">
        <ele>2484</ele>
        <time>2021-04-08T08:43:43Z</time>
      </trkpt>
      <trkpt lat="44.45105" lon="6.57136">
        <ele>2484</ele>
        <time>2021-04-08T08:43:44Z</time>
      </trkpt>
      <trkpt lat="44.45105" lon="6.57138">
        <ele>2484</ele>
        <time>2021-04-08T08:43:45Z</time>
      </trkpt>
      <trkpt lat="44.45104" lon="6.57139">
        <ele>2484</ele>
        <time>2021-04-08T08:43:46Z</time>
      </trkpt>
      <trkpt lat="44.45103" lon="6.57141">
        <ele>2485</ele>
        <time>2021-04-08T08:43:47Z</time>
      </trkpt>
      <trkpt lat="44.45102" lon="6.57142">
        <ele>2485</ele>
        <time>2021-04-08T08:43:48Z</time>
      </trkpt>
      <trkpt lat="44.45102" lon="6.57142">
        <ele>2485</ele>
        <time>2021-04-08T08:43:49Z</time>
      </trkpt>
      <trkpt lat="44.45101" lon="6.57142">
        <ele>2485</ele>
        <time>2021-04-08T08:43:50Z</time>
      </trkpt>
      <trkpt lat="44.45101" lon="6.57143">
        <ele>2485</ele>
        <time>2021-04-08T08:43:51Z</time>
      </trkpt>
      <trkpt lat="44.45101" lon="6.57143">
        <ele>2485</ele>
        <time>2021-04-08T08:43:52Z</time>
      </trkpt>
      <trkpt lat="44.45101" lon="6.57143">
        <ele>2485</ele>
        <time>2021-04-08T08:43:53Z</time>
      </trkpt>
      <trkpt lat="44.451" lon="6.57143">
        <ele>2485</ele>
        <time>2021-04-08T08:43:54Z</time>
      </trkpt>
      <trkpt lat="44.451" lon="6.57143">
        <ele>2485</ele>
        <time>2021-04-08T08:43:55Z</time>
      </trkpt>
      <trkpt lat="44.45101" lon="6.57143">
        <ele>2486</ele>
        <time>2021-04-08T08:43:56Z</time>
      </trkpt>
      <trkpt lat="44.451" lon="6.57144">
        <ele>2486</ele>
        <time>2021-04-08T08:43:57Z</time>
      </trkpt>
      <trkpt lat="44.451" lon="6.57145">
        <ele>2486</ele>
        <time>2021-04-08T08:43:58Z</time>
      </trkpt>
      <trkpt lat="44.451" lon="6.57146">
        <ele>2486</ele>
        <time>2021-04-08T08:43:59Z</time>
      </trkpt>
      <trkpt lat="44.45099" lon="6.57147">
        <ele>2486</ele>
        <time>2021-04-08T08:44:00Z</time>
      </trkpt>
      <trkpt lat="44.451" lon="6.57147">
        <ele>2486</ele>
        <time>2021-04-08T08:44:01Z</time>
      </trkpt>
      <trkpt lat="44.451" lon="6.57147">
        <ele>2486</ele>
        <time>2021-04-08T08:44:02Z</time>
      </trkpt>
      <trkpt lat="44.451" lon="6.57147">
        <ele>2487</ele>
        <time>2021-04-08T08:44:03Z</time>
      </trkpt>
      <trkpt lat="44.451" lon="6.57148">
        <ele>2487</ele>
        <time>2021-04-08T08:44:04Z</time>
      </trkpt>
      <trkpt lat="44.451" lon="6.57148">
        <ele>2488</ele>
        <time>2021-04-08T08:44:05Z</time>
      </trkpt>
      <trkpt lat="44.451" lon="6.57149">
        <ele>2488</ele>
        <time>2021-04-08T08:44:06Z</time>
      </trkpt>
      <trkpt lat="44.451" lon="6.57149">
        <ele>2488</ele>
        <time>2021-04-08T08:44:07Z</time>
      </trkpt>
      <trkpt lat="44.451" lon="6.5715">
        <ele>2488</ele>
        <time>2021-04-08T08:44:08Z</time>
      </trkpt>
      <trkpt lat="44.451" lon="6.57151">
        <ele>2488</ele>
        <time>2021-04-08T08:44:09Z</time>
      </trkpt>
      <trkpt lat="44.451" lon="6.57152">
        <ele>2488</ele>
        <time>2021-04-08T08:44:10Z</time>
      </trkpt>
      <trkpt lat="44.451" lon="6.57153">
        <ele>2489</ele>
        <time>2021-04-08T08:44:11Z</time>
      </trkpt>
      <trkpt lat="44.451" lon="6.57154">
        <ele>2489</ele>
        <time>2021-04-08T08:44:12Z</time>
      </trkpt>
      <trkpt lat="44.45101" lon="6.57155">
        <ele>2489</ele>
        <time>2021-04-08T08:44:13Z</time>
      </trkpt>
      <trkpt lat="44.45101" lon="6.57156">
        <ele>2489</ele>
        <time>2021-04-08T08:44:14Z</time>
      </trkpt>
      <trkpt lat="44.45101" lon="6.57157">
        <ele>2489</ele>
        <time>2021-04-08T08:44:15Z</time>
      </trkpt>
      <trkpt lat="44.45101" lon="6.57157">
        <ele>2490</ele>
        <time>2021-04-08T08:44:16Z</time>
      </trkpt>
      <trkpt lat="44.45101" lon="6.57159">
        <ele>2490</ele>
        <time>2021-04-08T08:44:17Z</time>
      </trkpt>
      <trkpt lat="44.45102" lon="6.5716">
        <ele>2490</ele>
        <time>2021-04-08T08:44:18Z</time>
      </trkpt>
      <trkpt lat="44.45102" lon="6.5716">
        <ele>2490</ele>
        <time>2021-04-08T08:44:19Z</time>
      </trkpt>
      <trkpt lat="44.45101" lon="6.57161">
        <ele>2490</ele>
        <time>2021-04-08T08:44:20Z</time>
      </trkpt>
      <trkpt lat="44.45102" lon="6.57163">
        <ele>2490</ele>
        <time>2021-04-08T08:44:21Z</time>
      </trkpt>
      <trkpt lat="44.45102" lon="6.57164">
        <ele>2490</ele>
        <time>2021-04-08T08:44:22Z</time>
      </trkpt>
      <trkpt lat="44.45103" lon="6.57164">
        <ele>2490</ele>
        <time>2021-04-08T08:44:23Z</time>
      </trkpt>
      <trkpt lat="44.45103" lon="6.57165">
        <ele>2490</ele>
        <time>2021-04-08T08:44:24Z</time>
      </trkpt>
      <trkpt lat="44.45103" lon="6.57166">
        <ele>2490</ele>
        <time>2021-04-08T08:44:25Z</time>
      </trkpt>
      <trkpt lat="44.45104" lon="6.57167">
        <ele>2491</ele>
        <time>2021-04-08T08:44:26Z</time>
      </trkpt>
      <trkpt lat="44.45104" lon="6.57167">
        <ele>2491</ele>
        <time>2021-04-08T08:44:27Z</time>
      </trkpt>
      <trkpt lat="44.45104" lon="6.57168">
        <ele>2491</ele>
        <time>2021-04-08T08:44:28Z</time>
      </trkpt>
      <trkpt lat="44.45105" lon="6.57168">
        <ele>2491</ele>
        <time>2021-04-08T08:44:29Z</time>
      </trkpt>
      <trkpt lat="44.45105" lon="6.57169">
        <ele>2491</ele>
        <time>2021-04-08T08:44:30Z</time>
      </trkpt>
      <trkpt lat="44.45106" lon="6.5717">
        <ele>2491</ele>
        <time>2021-04-08T08:44:31Z</time>
      </trkpt>
      <trkpt lat="44.45107" lon="6.57171">
        <ele>2491</ele>
        <time>2021-04-08T08:44:32Z</time>
      </trkpt>
      <trkpt lat="44.45108" lon="6.57172">
        <ele>2491</ele>
        <time>2021-04-08T08:44:33Z</time>
      </trkpt>
      <trkpt lat="44.45108" lon="6.57173">
        <ele>2491</ele>
        <time>2021-04-08T08:44:34Z</time>
      </trkpt>
      <trkpt lat="44.45108" lon="6.57173">
        <ele>2491</ele>
        <time>2021-04-08T08:44:35Z</time>
      </trkpt>
      <trkpt lat="44.45108" lon="6.57174">
        <ele>2492</ele>
        <time>2021-04-08T08:44:36Z</time>
      </trkpt>
      <trkpt lat="44.45108" lon="6.57175">
        <ele>2492</ele>
        <time>2021-04-08T08:44:37Z</time>
      </trkpt>
      <trkpt lat="44.45107" lon="6.57176">
        <ele>2492</ele>
        <time>2021-04-08T08:44:38Z</time>
      </trkpt>
      <trkpt lat="44.45107" lon="6.57177">
        <ele>2492</ele>
        <time>2021-04-08T08:44:39Z</time>
      </trkpt>
      <trkpt lat="44.45107" lon="6.57178">
        <ele>2492</ele>
        <time>2021-04-08T08:44:40Z</time>
      </trkpt>
      <trkpt lat="44.45107" lon="6.57179">
        <ele>2492</ele>
        <time>2021-04-08T08:44:41Z</time>
      </trkpt>
      <trkpt lat="44.45107" lon="6.57179">
        <ele>2492</ele>
        <time>2021-04-08T08:44:42Z</time>
      </trkpt>
      <trkpt lat="44.45107" lon="6.57179">
        <ele>2492</ele>
        <time>2021-04-08T08:44:43Z</time>
      </trkpt>
      <trkpt lat="44.45107" lon="6.5718">
        <ele>2492</ele>
        <time>2021-04-08T08:44:44Z</time>
      </trkpt>
      <trkpt lat="44.45107" lon="6.57181">
        <ele>2492</ele>
        <time>2021-04-08T08:44:45Z</time>
      </trkpt>
      <trkpt lat="44.45107" lon="6.57182">
        <ele>2492</ele>
        <time>2021-04-08T08:44:46Z</time>
      </trkpt>
      <trkpt lat="44.45107" lon="6.57182">
        <ele>2492</ele>
        <time>2021-04-08T08:44:47Z</time>
      </trkpt>
      <trkpt lat="44.45108" lon="6.57183">
        <ele>2493</ele>
        <time>2021-04-08T08:44:48Z</time>
      </trkpt>
      <trkpt lat="44.45108" lon="6.57184">
        <ele>2493</ele>
        <time>2021-04-08T08:44:49Z</time>
      </trkpt>
      <trkpt lat="44.45108" lon="6.57185">
        <ele>2493</ele>
        <time>2021-04-08T08:44:50Z</time>
      </trkpt>
      <trkpt lat="44.45109" lon="6.57186">
        <ele>2493</ele>
        <time>2021-04-08T08:44:51Z</time>
      </trkpt>
      <trkpt lat="44.45108" lon="6.57187">
        <ele>2493</ele>
        <time>2021-04-08T08:44:52Z</time>
      </trkpt>
      <trkpt lat="44.45108" lon="6.57189">
        <ele>2493</ele>
        <time>2021-04-08T08:44:53Z</time>
      </trkpt>
      <trkpt lat="44.45107" lon="6.5719">
        <ele>2493</ele>
        <time>2021-04-08T08:44:54Z</time>
      </trkpt>
      <trkpt lat="44.45107" lon="6.57192">
        <ele>2494</ele>
        <time>2021-04-08T08:44:55Z</time>
      </trkpt>
      <trkpt lat="44.45106" lon="6.57193">
        <ele>2494</ele>
        <time>2021-04-08T08:44:56Z</time>
      </trkpt>
      <trkpt lat="44.45106" lon="6.57194">
        <ele>2494</ele>
        <time>2021-04-08T08:44:57Z</time>
      </trkpt>
      <trkpt lat="44.45106" lon="6.57194">
        <ele>2494</ele>
        <time>2021-04-08T08:44:58Z</time>
      </trkpt>
      <trkpt lat="44.45106" lon="6.57195">
        <ele>2494</ele>
        <time>2021-04-08T08:44:59Z</time>
      </trkpt>
      <trkpt lat="44.45106" lon="6.57195">
        <ele>2495</ele>
        <time>2021-04-08T08:45:00Z</time>
      </trkpt>
      <trkpt lat="44.45106" lon="6.57196">
        <ele>2495</ele>
        <time>2021-04-08T08:45:01Z</time>
      </trkpt>
      <trkpt lat="44.45107" lon="6.57196">
        <ele>2495</ele>
        <time>2021-04-08T08:45:02Z</time>
      </trkpt>
      <trkpt lat="44.45106" lon="6.57198">
        <ele>2495</ele>
        <time>2021-04-08T08:45:03Z</time>
      </trkpt>
      <trkpt lat="44.45106" lon="6.57199">
        <ele>2495</ele>
        <time>2021-04-08T08:45:04Z</time>
      </trkpt>
      <trkpt lat="44.45107" lon="6.57199">
        <ele>2495</ele>
        <time>2021-04-08T08:45:05Z</time>
      </trkpt>
      <trkpt lat="44.45107" lon="6.572">
        <ele>2496</ele>
        <time>2021-04-08T08:45:06Z</time>
      </trkpt>
      <trkpt lat="44.45106" lon="6.57201">
        <ele>2496</ele>
        <time>2021-04-08T08:45:07Z</time>
      </trkpt>
      <trkpt lat="44.45106" lon="6.57201">
        <ele>2496</ele>
        <time>2021-04-08T08:45:08Z</time>
      </trkpt>
      <trkpt lat="44.45106" lon="6.57202">
        <ele>2496</ele>
        <time>2021-04-08T08:45:09Z</time>
      </trkpt>
      <trkpt lat="44.45106" lon="6.57203">
        <ele>2496</ele>
        <time>2021-04-08T08:45:10Z</time>
      </trkpt>
      <trkpt lat="44.45106" lon="6.57203">
        <ele>2497</ele>
        <time>2021-04-08T08:45:11Z</time>
      </trkpt>
      <trkpt lat="44.45106" lon="6.57204">
        <ele>2497</ele>
        <time>2021-04-08T08:45:12Z</time>
      </trkpt>
      <trkpt lat="44.45107" lon="6.57204">
        <ele>2497</ele>
        <time>2021-04-08T08:45:13Z</time>
      </trkpt>
      <trkpt lat="44.45107" lon="6.57204">
        <ele>2497</ele>
        <time>2021-04-08T08:45:14Z</time>
      </trkpt>
      <trkpt lat="44.45107" lon="6.57204">
        <ele>2497</ele>
        <time>2021-04-08T08:45:15Z</time>
      </trkpt>
      <trkpt lat="44.45108" lon="6.57204">
        <ele>2498</ele>
        <time>2021-04-08T08:45:16Z</time>
      </trkpt>
      <trkpt lat="44.45108" lon="6.57204">
        <ele>2499</ele>
        <time>2021-04-08T08:45:17Z</time>
      </trkpt>
      <trkpt lat="44.45108" lon="6.57204">
        <ele>2499</ele>
        <time>2021-04-08T08:45:18Z</time>
      </trkpt>
      <trkpt lat="44.45108" lon="6.57204">
        <ele>2499</ele>
        <time>2021-04-08T08:45:19Z</time>
      </trkpt>
      <trkpt lat="44.45107" lon="6.57204">
        <ele>2499</ele>
        <time>2021-04-08T08:45:20Z</time>
      </trkpt>
      <trkpt lat="44.45108" lon="6.57204">
        <ele>2499</ele>
        <time>2021-04-08T08:45:21Z</time>
      </trkpt>
      <trkpt lat="44.45108" lon="6.57204">
        <ele>2499</ele>
        <time>2021-04-08T08:45:22Z</time>
      </trkpt>
      <trkpt lat="44.45108" lon="6.57204">
        <ele>2499</ele>
        <time>2021-04-08T08:45:23Z</time>
      </trkpt>
      <trkpt lat="44.45108" lon="6.57204">
        <ele>2499</ele>
        <time>2021-04-08T08:45:24Z</time>
      </trkpt>
      <trkpt lat="44.45108" lon="6.57204">
        <ele>2499</ele>
        <time>2021-04-08T08:45:25Z</time>
      </trkpt>
      <trkpt lat="44.45108" lon="6.57204">
        <ele>2500</ele>
        <time>2021-04-08T08:45:26Z</time>
      </trkpt>
      <trkpt lat="44.45108" lon="6.57204">
        <ele>2500</ele>
        <time>2021-04-08T08:45:27Z</time>
      </trkpt>
      <trkpt lat="44.45108" lon="6.57204">
        <ele>2500</ele>
        <time>2021-04-08T08:45:28Z</time>
      </trkpt>
      <trkpt lat="44.45108" lon="6.57204">
        <ele>2500</ele>
        <time>2021-04-08T08:45:29Z</time>
      </trkpt>
      <trkpt lat="44.45108" lon="6.57204">
        <ele>2500</ele>
        <time>2021-04-08T08:45:30Z</time>
      </trkpt>
      <trkpt lat="44.45108" lon="6.57204">
        <ele>2500</ele>
        <time>2021-04-08T08:45:31Z</time>
      </trkpt>
      <trkpt lat="44.45108" lon="6.57204">
        <ele>2500</ele>
        <time>2021-04-08T08:45:32Z</time>
      </trkpt>
      <trkpt lat="44.45108" lon="6.57204">
        <ele>2500</ele>
        <time>2021-04-08T08:45:33Z</time>
      </trkpt>
      <trkpt lat="44.45108" lon="6.57204">
        <ele>2500</ele>
        <time>2021-04-08T08:45:34Z</time>
      </trkpt>
      <trkpt lat="44.45108" lon="6.57204">
        <ele>2500</ele>
        <time>2021-04-08T08:45:35Z</time>
      </trkpt>
      <trkpt lat="44.45108" lon="6.57204">
        <ele>2500</ele>
        <time>2021-04-08T08:45:36Z</time>
      </trkpt>
      <trkpt lat="44.45108" lon="6.57204">
        <ele>2500</ele>
        <time>2021-04-08T08:45:37Z</time>
      </trkpt>
      <trkpt lat="44.45108" lon="6.57204">
        <ele>2500</ele>
        <time>2021-04-08T08:45:38Z</time>
      </trkpt>
      <trkpt lat="44.45108" lon="6.57204">
        <ele>2500</ele>
        <time>2021-04-08T08:45:39Z</time>
      </trkpt>
      <trkpt lat="44.45108" lon="6.57204">
        <ele>2500</ele>
        <time>2021-04-08T08:45:40Z</time>
      </trkpt>
      <trkpt lat="44.45108" lon="6.57204">
        <ele>2500</ele>
        <time>2021-04-08T08:45:41Z</time>
      </trkpt>
      <trkpt lat="44.45108" lon="6.57204">
        <ele>2500</ele>
        <time>2021-04-08T08:45:42Z</time>
      </trkpt>
      <trkpt lat="44.45108" lon="6.57204">
        <ele>2500</ele>
        <time>2021-04-08T08:45:43Z</time>
      </trkpt>
      <trkpt lat="44.45108" lon="6.57204">
        <ele>2500</ele>
        <time>2021-04-08T08:45:44Z</time>
      </trkpt>
      <trkpt lat="44.45108" lon="6.57204">
        <ele>2500</ele>
        <time>2021-04-08T08:45:45Z</time>
      </trkpt>
      <trkpt lat="44.45108" lon="6.57204">
        <ele>2500</ele>
        <time>2021-04-08T08:45:46Z</time>
      </trkpt>
      <trkpt lat="44.45108" lon="6.57204">
        <ele>2500</ele>
        <time>2021-04-08T08:45:47Z</time>
      </trkpt>
      <trkpt lat="44.45108" lon="6.57204">
        <ele>2500</ele>
        <time>2021-04-08T08:45:48Z</time>
      </trkpt>
      <trkpt lat="44.45108" lon="6.57204">
        <ele>2500</ele>
        <time>2021-04-08T08:45:49Z</time>
      </trkpt>
      <trkpt lat="44.45108" lon="6.57204">
        <ele>2500</ele>
        <time>2021-04-08T08:45:50Z</time>
      </trkpt>
      <trkpt lat="44.45108" lon="6.57204">
        <ele>2500</ele>
        <time>2021-04-08T08:45:51Z</time>
      </trkpt>
      <trkpt lat="44.45108" lon="6.57204">
        <ele>2500</ele>
        <time>2021-04-08T08:45:52Z</time>
      </trkpt>
      <trkpt lat="44.45108" lon="6.57204">
        <ele>2500</ele>
        <time>2021-04-08T08:45:53Z</time>
      </trkpt>
      <trkpt lat="44.45108" lon="6.57204">
        <ele>2500</ele>
        <time>2021-04-08T08:45:54Z</time>
      </trkpt>
      <trkpt lat="44.45108" lon="6.57204">
        <ele>2500</ele>
        <time>2021-04-08T08:45:55Z</time>
      </trkpt>
      <trkpt lat="44.45108" lon="6.57204">
        <ele>2500</ele>
        <time>2021-04-08T08:45:56Z</time>
      </trkpt>
      <trkpt lat="44.45108" lon="6.57204">
        <ele>2500</ele>
        <time>2021-04-08T08:45:57Z</time>
      </trkpt>
      <trkpt lat="44.45108" lon="6.57204">
        <ele>2500</ele>
        <time>2021-04-08T08:45:58Z</time>
      </trkpt>
      <trkpt lat="44.45108" lon="6.57204">
        <ele>2500</ele>
        <time>2021-04-08T08:45:59Z</time>
      </trkpt>
      <trkpt lat="44.45108" lon="6.57204">
        <ele>2500</ele>
        <time>2021-04-08T08:46:00Z</time>
      </trkpt>
      <trkpt lat="44.45108" lon="6.57204">
        <ele>2500</ele>
        <time>2021-04-08T08:46:01Z</time>
      </trkpt>
      <trkpt lat="44.45108" lon="6.57204">
        <ele>2500</ele>
        <time>2021-04-08T08:46:02Z</time>
      </trkpt>
      <trkpt lat="44.45108" lon="6.57204">
        <ele>2500</ele>
        <time>2021-04-08T08:46:03Z</time>
      </trkpt>
      <trkpt lat="44.45108" lon="6.57204">
        <ele>2500</ele>
        <time>2021-04-08T08:46:04Z</time>
      </trkpt>
      <trkpt lat="44.45108" lon="6.57204">
        <ele>2500</ele>
        <time>2021-04-08T08:46:05Z</time>
      </trkpt>
      <trkpt lat="44.45108" lon="6.57204">
        <ele>2500</ele>
        <time>2021-04-08T08:46:06Z</time>
      </trkpt>
      <trkpt lat="44.45108" lon="6.57204">
        <ele>2500</ele>
        <time>2021-04-08T08:46:07Z</time>
      </trkpt>
      <trkpt lat="44.45108" lon="6.57204">
        <ele>2500</ele>
        <time>2021-04-08T08:46:08Z</time>
      </trkpt>
      <trkpt lat="44.45108" lon="6.57204">
        <ele>2500</ele>
        <time>2021-04-08T08:46:09Z</time>
      </trkpt>
      <trkpt lat="44.45108" lon="6.57204">
        <ele>2500</ele>
        <time>2021-04-08T08:46:10Z</time>
      </trkpt>
      <trkpt lat="44.45108" lon="6.57204">
        <ele>2500</ele>
        <time>2021-04-08T08:46:11Z</time>
      </trkpt>
      <trkpt lat="44.45108" lon="6.57204">
        <ele>2500</ele>
        <time>2021-04-08T08:46:12Z</time>
      </trkpt>
      <trkpt lat="44.45108" lon="6.57204">
        <ele>2500</ele>
        <time>2021-04-08T08:46:13Z</time>
      </trkpt>
      <trkpt lat="44.45108" lon="6.57204">
        <ele>2500</ele>
        <time>2021-04-08T08:46:14Z</time>
      </trkpt>
      <trkpt lat="44.45108" lon="6.57204">
        <ele>2500</ele>
        <time>2021-04-08T08:46:15Z</time>
      </trkpt>
      <trkpt lat="44.45108" lon="6.57204">
        <ele>2500</ele>
        <time>2021-04-08T08:46:16Z</time>
      </trkpt>
      <trkpt lat="44.45108" lon="6.57204">
        <ele>2500</ele>
        <time>2021-04-08T08:46:17Z</time>
      </trkpt>
      <trkpt lat="44.45108" lon="6.57204">
        <ele>2500</ele>
        <time>2021-04-08T08:46:18Z</time>
      </trkpt>
      <trkpt lat="44.45108" lon="6.57204">
        <ele>2500</ele>
        <time>2021-04-08T08:46:19Z</time>
      </trkpt>
      <trkpt lat="44.45108" lon="6.57204">
        <ele>2500</ele>
        <time>2021-04-08T08:46:20Z</time>
      </trkpt>
      <trkpt lat="44.45108" lon="6.57204">
        <ele>2500</ele>
        <time>2021-04-08T08:46:21Z</time>
      </trkpt>
      <trkpt lat="44.45108" lon="6.57204">
        <ele>2500</ele>
        <time>2021-04-08T08:46:22Z</time>
      </trkpt>
      <trkpt lat="44.45108" lon="6.57204">
        <ele>2500</ele>
        <time>2021-04-08T08:46:23Z</time>
      </trkpt>
      <trkpt lat="44.45108" lon="6.57204">
        <ele>2500</ele>
        <time>2021-04-08T08:46:24Z</time>
      </trkpt>
      <trkpt lat="44.45108" lon="6.57204">
        <ele>2500</ele>
        <time>2021-04-08T08:46:25Z</time>
      </trkpt>
      <trkpt lat="44.45108" lon="6.57204">
        <ele>2500</ele>
        <time>2021-04-08T08:46:26Z</time>
      </trkpt>
      <trkpt lat="44.45108" lon="6.57204">
        <ele>2500</ele>
        <time>2021-04-08T08:46:27Z</time>
      </trkpt>
      <trkpt lat="44.45108" lon="6.57204">
        <ele>2500</ele>
        <time>2021-04-08T08:46:28Z</time>
      </trkpt>
      <trkpt lat="44.45108" lon="6.57204">
        <ele>2500</ele>
        <time>2021-04-08T08:46:29Z</time>
      </trkpt>
      <trkpt lat="44.45108" lon="6.57204">
        <ele>2500</ele>
        <time>2021-04-08T08:46:30Z</time>
      </trkpt>
      <trkpt lat="44.45108" lon="6.57204">
        <ele>2500</ele>
        <time>2021-04-08T08:46:31Z</time>
      </trkpt>
      <trkpt lat="44.45108" lon="6.57204">
        <ele>2500</ele>
        <time>2021-04-08T08:46:32Z</time>
      </trkpt>
      <trkpt lat="44.45108" lon="6.57204">
        <ele>2500</ele>
        <time>2021-04-08T08:46:33Z</time>
      </trkpt>
      <trkpt lat="44.45108" lon="6.57204">
        <ele>2500</ele>
        <time>2021-04-08T08:46:34Z</time>
      </trkpt>
      <trkpt lat="44.45108" lon="6.57204">
        <ele>2500</ele>
        <time>2021-04-08T08:46:35Z</time>
      </trkpt>
      <trkpt lat="44.45108" lon="6.57204">
        <ele>2500</ele>
        <time>2021-04-08T08:46:36Z</time>
      </trkpt>
      <trkpt lat="44.45108" lon="6.57204">
        <ele>2500</ele>
        <time>2021-04-08T08:46:37Z</time>
      </trkpt>
      <trkpt lat="44.45108" lon="6.57204">
        <ele>2500</ele>
        <time>2021-04-08T08:46:38Z</time>
      </trkpt>
      <trkpt lat="44.45108" lon="6.57204">
        <ele>2500</ele>
        <time>2021-04-08T08:46:39Z</time>
      </trkpt>
      <trkpt lat="44.45108" lon="6.57204">
        <ele>2500</ele>
        <time>2021-04-08T08:46:40Z</time>
      </trkpt>
      <trkpt lat="44.45108" lon="6.57204">
        <ele>2500</ele>
        <time>2021-04-08T08:46:41Z</time>
      </trkpt>
      <trkpt lat="44.45108" lon="6.57204">
        <ele>2500</ele>
        <time>2021-04-08T08:46:42Z</time>
      </trkpt>
      <trkpt lat="44.45108" lon="6.57204">
        <ele>2500</ele>
        <time>2021-04-08T08:46:43Z</time>
      </trkpt>
      <trkpt lat="44.45108" lon="6.57204">
        <ele>2500</ele>
        <time>2021-04-08T08:46:44Z</time>
      </trkpt>
      <trkpt lat="44.45108" lon="6.57204">
        <ele>2500</ele>
        <time>2021-04-08T08:46:45Z</time>
      </trkpt>
      <trkpt lat="44.45108" lon="6.57204">
        <ele>2500</ele>
        <time>2021-04-08T08:46:46Z</time>
      </trkpt>
      <trkpt lat="44.45108" lon="6.57204">
        <ele>2500</ele>
        <time>2021-04-08T08:46:47Z</time>
      </trkpt>
      <trkpt lat="44.45108" lon="6.57204">
        <ele>2500</ele>
        <time>2021-04-08T08:46:48Z</time>
      </trkpt>
      <trkpt lat="44.45108" lon="6.57204">
        <ele>2500</ele>
        <time>2021-04-08T08:46:49Z</time>
      </trkpt>
      <trkpt lat="44.45108" lon="6.57204">
        <ele>2500</ele>
        <time>2021-04-08T08:46:50Z</time>
      </trkpt>
      <trkpt lat="44.45108" lon="6.57204">
        <ele>2500</ele>
        <time>2021-04-08T08:46:51Z</time>
      </trkpt>
      <trkpt lat="44.45103" lon="6.57206">
        <ele>2501</ele>
        <time>2021-04-08T08:46:52Z</time>
      </trkpt>
      <trkpt lat="44.45103" lon="6.57207">
        <ele>2501</ele>
        <time>2021-04-08T08:46:53Z</time>
      </trkpt>
      <trkpt lat="44.45102" lon="6.57207">
        <ele>2501</ele>
        <time>2021-04-08T08:46:54Z</time>
      </trkpt>
      <trkpt lat="44.45102" lon="6.57208">
        <ele>2501</ele>
        <time>2021-04-08T08:46:55Z</time>
      </trkpt>
      <trkpt lat="44.45102" lon="6.57207">
        <ele>2501</ele>
        <time>2021-04-08T08:46:56Z</time>
      </trkpt>
      <trkpt lat="44.45101" lon="6.57208">
        <ele>2501</ele>
        <time>2021-04-08T08:46:57Z</time>
      </trkpt>
      <trkpt lat="44.45101" lon="6.57208">
        <ele>2502</ele>
        <time>2021-04-08T08:46:58Z</time>
      </trkpt>
      <trkpt lat="44.45101" lon="6.57208">
        <ele>2502</ele>
        <time>2021-04-08T08:46:59Z</time>
      </trkpt>
      <trkpt lat="44.45101" lon="6.57208">
        <ele>2502</ele>
        <time>2021-04-08T08:47:00Z</time>
      </trkpt>
      <trkpt lat="44.45101" lon="6.57208">
        <ele>2502</ele>
        <time>2021-04-08T08:47:01Z</time>
      </trkpt>
      <trkpt lat="44.45101" lon="6.57208">
        <ele>2502</ele>
        <time>2021-04-08T08:47:02Z</time>
      </trkpt>
      <trkpt lat="44.45101" lon="6.57208">
        <ele>2502</ele>
        <time>2021-04-08T08:47:03Z</time>
      </trkpt>
      <trkpt lat="44.45101" lon="6.57208">
        <ele>2502</ele>
        <time>2021-04-08T08:47:04Z</time>
      </trkpt>
      <trkpt lat="44.45103" lon="6.57204">
        <ele>2502</ele>
        <time>2021-04-08T08:47:05Z</time>
      </trkpt>
      <trkpt lat="44.45104" lon="6.57203">
        <ele>2502</ele>
        <time>2021-04-08T08:47:06Z</time>
      </trkpt>
      <trkpt lat="44.45104" lon="6.57203">
        <ele>2502</ele>
        <time>2021-04-08T08:47:07Z</time>
      </trkpt>
      <trkpt lat="44.45104" lon="6.57203">
        <ele>2502</ele>
        <time>2021-04-08T08:47:08Z</time>
      </trkpt>
      <trkpt lat="44.45104" lon="6.57203">
        <ele>2502</ele>
        <time>2021-04-08T08:47:09Z</time>
      </trkpt>
      <trkpt lat="44.45104" lon="6.57203">
        <ele>2502</ele>
        <time>2021-04-08T08:47:10Z</time>
      </trkpt>
      <trkpt lat="44.45104" lon="6.57203">
        <ele>2502</ele>
        <time>2021-04-08T08:47:11Z</time>
      </trkpt>
      <trkpt lat="44.45104" lon="6.57203">
        <ele>2502</ele>
        <time>2021-04-08T08:47:12Z</time>
      </trkpt>
      <trkpt lat="44.45104" lon="6.57203">
        <ele>2502</ele>
        <time>2021-04-08T08:47:13Z</time>
      </trkpt>
      <trkpt lat="44.45104" lon="6.57203">
        <ele>2502</ele>
        <time>2021-04-08T08:47:14Z</time>
      </trkpt>
      <trkpt lat="44.45104" lon="6.57203">
        <ele>2502</ele>
        <time>2021-04-08T08:47:15Z</time>
      </trkpt>
      <trkpt lat="44.45104" lon="6.57203">
        <ele>2502</ele>
        <time>2021-04-08T08:47:16Z</time>
      </trkpt>
      <trkpt lat="44.45104" lon="6.57203">
        <ele>2501</ele>
        <time>2021-04-08T08:47:17Z</time>
      </trkpt>
      <trkpt lat="44.45104" lon="6.57203">
        <ele>2501</ele>
        <time>2021-04-08T08:47:18Z</time>
      </trkpt>
      <trkpt lat="44.45106" lon="6.57204">
        <ele>2501</ele>
        <time>2021-04-08T08:47:19Z</time>
      </trkpt>
      <trkpt lat="44.45106" lon="6.57205">
        <ele>2501</ele>
        <time>2021-04-08T08:47:20Z</time>
      </trkpt>
      <trkpt lat="44.45105" lon="6.57205">
        <ele>2501</ele>
        <time>2021-04-08T08:47:21Z</time>
      </trkpt>
      <trkpt lat="44.45105" lon="6.57205">
        <ele>2501</ele>
        <time>2021-04-08T08:47:22Z</time>
      </trkpt>
      <trkpt lat="44.45105" lon="6.57205">
        <ele>2502</ele>
        <time>2021-04-08T08:47:23Z</time>
      </trkpt>
      <trkpt lat="44.45105" lon="6.57205">
        <ele>2502</ele>
        <time>2021-04-08T08:47:24Z</time>
      </trkpt>
      <trkpt lat="44.45106" lon="6.57205">
        <ele>2502</ele>
        <time>2021-04-08T08:47:25Z</time>
      </trkpt>
      <trkpt lat="44.45106" lon="6.57205">
        <ele>2502</ele>
        <time>2021-04-08T08:47:26Z</time>
      </trkpt>
      <trkpt lat="44.45106" lon="6.57205">
        <ele>2502</ele>
        <time>2021-04-08T08:47:27Z</time>
      </trkpt>
      <trkpt lat="44.45106" lon="6.57205">
        <ele>2502</ele>
        <time>2021-04-08T08:47:28Z</time>
      </trkpt>
      <trkpt lat="44.45106" lon="6.57205">
        <ele>2502</ele>
        <time>2021-04-08T08:47:29Z</time>
      </trkpt>
      <trkpt lat="44.45106" lon="6.57205">
        <ele>2502</ele>
        <time>2021-04-08T08:47:30Z</time>
      </trkpt>
      <trkpt lat="44.45106" lon="6.57205">
        <ele>2502</ele>
        <time>2021-04-08T08:47:31Z</time>
      </trkpt>
      <trkpt lat="44.45106" lon="6.57205">
        <ele>2502</ele>
        <time>2021-04-08T08:47:32Z</time>
      </trkpt>
      <trkpt lat="44.45106" lon="6.57205">
        <ele>2502</ele>
        <time>2021-04-08T08:47:33Z</time>
      </trkpt>
      <trkpt lat="44.45106" lon="6.57205">
        <ele>2502</ele>
        <time>2021-04-08T08:47:34Z</time>
      </trkpt>
      <trkpt lat="44.45106" lon="6.57205">
        <ele>2502</ele>
        <time>2021-04-08T08:47:35Z</time>
      </trkpt>
      <trkpt lat="44.45106" lon="6.57205">
        <ele>2502</ele>
        <time>2021-04-08T08:47:36Z</time>
      </trkpt>
      <trkpt lat="44.45106" lon="6.57205">
        <ele>2502</ele>
        <time>2021-04-08T08:47:37Z</time>
      </trkpt>
      <trkpt lat="44.45106" lon="6.57205">
        <ele>2502</ele>
        <time>2021-04-08T08:47:38Z</time>
      </trkpt>
      <trkpt lat="44.45106" lon="6.57205">
        <ele>2502</ele>
        <time>2021-04-08T08:47:39Z</time>
      </trkpt>
      <trkpt lat="44.45106" lon="6.57205">
        <ele>2502</ele>
        <time>2021-04-08T08:47:40Z</time>
      </trkpt>
      <trkpt lat="44.45106" lon="6.57205">
        <ele>2502</ele>
        <time>2021-04-08T08:47:41Z</time>
      </trkpt>
      <trkpt lat="44.45106" lon="6.57205">
        <ele>2502</ele>
        <time>2021-04-08T08:47:42Z</time>
      </trkpt>
      <trkpt lat="44.45109" lon="6.57206">
        <ele>2502</ele>
        <time>2021-04-08T08:47:43Z</time>
      </trkpt>
      <trkpt lat="44.45109" lon="6.57206">
        <ele>2502</ele>
        <time>2021-04-08T08:47:44Z</time>
      </trkpt>
      <trkpt lat="44.45109" lon="6.57206">
        <ele>2502</ele>
        <time>2021-04-08T08:47:45Z</time>
      </trkpt>
      <trkpt lat="44.45109" lon="6.57207">
        <ele>2502</ele>
        <time>2021-04-08T08:47:46Z</time>
      </trkpt>
      <trkpt lat="44.45109" lon="6.57208">
        <ele>2502</ele>
        <time>2021-04-08T08:47:47Z</time>
      </trkpt>
      <trkpt lat="44.4511" lon="6.57209">
        <ele>2502</ele>
        <time>2021-04-08T08:47:48Z</time>
      </trkpt>
      <trkpt lat="44.4511" lon="6.5721">
        <ele>2502</ele>
        <time>2021-04-08T08:47:49Z</time>
      </trkpt>
      <trkpt lat="44.4511" lon="6.57211">
        <ele>2502</ele>
        <time>2021-04-08T08:47:50Z</time>
      </trkpt>
      <trkpt lat="44.4511" lon="6.57212">
        <ele>2502</ele>
        <time>2021-04-08T08:47:51Z</time>
      </trkpt>
      <trkpt lat="44.4511" lon="6.57211">
        <ele>2502</ele>
        <time>2021-04-08T08:47:52Z</time>
      </trkpt>
      <trkpt lat="44.45111" lon="6.57211">
        <ele>2502</ele>
        <time>2021-04-08T08:47:53Z</time>
      </trkpt>
      <trkpt lat="44.45111" lon="6.5721">
        <ele>2502</ele>
        <time>2021-04-08T08:47:54Z</time>
      </trkpt>
      <trkpt lat="44.45111" lon="6.57211">
        <ele>2502</ele>
        <time>2021-04-08T08:47:55Z</time>
      </trkpt>
      <trkpt lat="44.45111" lon="6.57211">
        <ele>2502</ele>
        <time>2021-04-08T08:47:56Z</time>
      </trkpt>
      <trkpt lat="44.45111" lon="6.57211">
        <ele>2502</ele>
        <time>2021-04-08T08:47:57Z</time>
      </trkpt>
      <trkpt lat="44.45111" lon="6.57212">
        <ele>2502</ele>
        <time>2021-04-08T08:47:58Z</time>
      </trkpt>
      <trkpt lat="44.45111" lon="6.57213">
        <ele>2502</ele>
        <time>2021-04-08T08:47:59Z</time>
      </trkpt>
      <trkpt lat="44.45111" lon="6.57213">
        <ele>2502</ele>
        <time>2021-04-08T08:48:00Z</time>
      </trkpt>
      <trkpt lat="44.45112" lon="6.57214">
        <ele>2503</ele>
        <time>2021-04-08T08:48:01Z</time>
      </trkpt>
      <trkpt lat="44.45112" lon="6.57215">
        <ele>2503</ele>
        <time>2021-04-08T08:48:02Z</time>
      </trkpt>
      <trkpt lat="44.45112" lon="6.57216">
        <ele>2503</ele>
        <time>2021-04-08T08:48:03Z</time>
      </trkpt>
      <trkpt lat="44.45112" lon="6.57217">
        <ele>2503</ele>
        <time>2021-04-08T08:48:04Z</time>
      </trkpt>
      <trkpt lat="44.45112" lon="6.57217">
        <ele>2503</ele>
        <time>2021-04-08T08:48:05Z</time>
      </trkpt>
      <trkpt lat="44.45112" lon="6.57218">
        <ele>2503</ele>
        <time>2021-04-08T08:48:06Z</time>
      </trkpt>
      <trkpt lat="44.45112" lon="6.57218">
        <ele>2503</ele>
        <time>2021-04-08T08:48:07Z</time>
      </trkpt>
      <trkpt lat="44.45113" lon="6.57218">
        <ele>2503</ele>
        <time>2021-04-08T08:48:08Z</time>
      </trkpt>
      <trkpt lat="44.45113" lon="6.57218">
        <ele>2504</ele>
        <time>2021-04-08T08:48:09Z</time>
      </trkpt>
      <trkpt lat="44.45113" lon="6.57218">
        <ele>2504</ele>
        <time>2021-04-08T08:48:10Z</time>
      </trkpt>
      <trkpt lat="44.45113" lon="6.57219">
        <ele>2504</ele>
        <time>2021-04-08T08:48:11Z</time>
      </trkpt>
      <trkpt lat="44.45113" lon="6.5722">
        <ele>2504</ele>
        <time>2021-04-08T08:48:12Z</time>
      </trkpt>
      <trkpt lat="44.45113" lon="6.57221">
        <ele>2504</ele>
        <time>2021-04-08T08:48:13Z</time>
      </trkpt>
      <trkpt lat="44.45113" lon="6.57222">
        <ele>2505</ele>
        <time>2021-04-08T08:48:14Z</time>
      </trkpt>
      <trkpt lat="44.45112" lon="6.57223">
        <ele>2505</ele>
        <time>2021-04-08T08:48:15Z</time>
      </trkpt>
      <trkpt lat="44.45112" lon="6.57224">
        <ele>2505</ele>
        <time>2021-04-08T08:48:16Z</time>
      </trkpt>
      <trkpt lat="44.45112" lon="6.57224">
        <ele>2505</ele>
        <time>2021-04-08T08:48:17Z</time>
      </trkpt>
      <trkpt lat="44.45112" lon="6.57225">
        <ele>2505</ele>
        <time>2021-04-08T08:48:18Z</time>
      </trkpt>
      <trkpt lat="44.45112" lon="6.57227">
        <ele>2506</ele>
        <time>2021-04-08T08:48:19Z</time>
      </trkpt>
      <trkpt lat="44.45112" lon="6.57228">
        <ele>2506</ele>
        <time>2021-04-08T08:48:20Z</time>
      </trkpt>
      <trkpt lat="44.45112" lon="6.57228">
        <ele>2506</ele>
        <time>2021-04-08T08:48:21Z</time>
      </trkpt>
      <trkpt lat="44.45113" lon="6.5723">
        <ele>2507</ele>
        <time>2021-04-08T08:48:22Z</time>
      </trkpt>
      <trkpt lat="44.45113" lon="6.5723">
        <ele>2507</ele>
        <time>2021-04-08T08:48:23Z</time>
      </trkpt>
      <trkpt lat="44.45113" lon="6.57231">
        <ele>2507</ele>
        <time>2021-04-08T08:48:24Z</time>
      </trkpt>
      <trkpt lat="44.45113" lon="6.57232">
        <ele>2507</ele>
        <time>2021-04-08T08:48:25Z</time>
      </trkpt>
      <trkpt lat="44.45114" lon="6.57233">
        <ele>2508</ele>
        <time>2021-04-08T08:48:26Z</time>
      </trkpt>
      <trkpt lat="44.45114" lon="6.57234">
        <ele>2508</ele>
        <time>2021-04-08T08:48:27Z</time>
      </trkpt>
      <trkpt lat="44.45114" lon="6.57234">
        <ele>2508</ele>
        <time>2021-04-08T08:48:28Z</time>
      </trkpt>
      <trkpt lat="44.45115" lon="6.57235">
        <ele>2508</ele>
        <time>2021-04-08T08:48:29Z</time>
      </trkpt>
      <trkpt lat="44.45115" lon="6.57236">
        <ele>2508</ele>
        <time>2021-04-08T08:48:30Z</time>
      </trkpt>
      <trkpt lat="44.45115" lon="6.57237">
        <ele>2508</ele>
        <time>2021-04-08T08:48:31Z</time>
      </trkpt>
      <trkpt lat="44.45116" lon="6.57237">
        <ele>2508</ele>
        <time>2021-04-08T08:48:32Z</time>
      </trkpt>
      <trkpt lat="44.45116" lon="6.57238">
        <ele>2508</ele>
        <time>2021-04-08T08:48:33Z</time>
      </trkpt>
      <trkpt lat="44.45116" lon="6.57239">
        <ele>2508</ele>
        <time>2021-04-08T08:48:34Z</time>
      </trkpt>
      <trkpt lat="44.45116" lon="6.5724">
        <ele>2507</ele>
        <time>2021-04-08T08:48:35Z</time>
      </trkpt>
      <trkpt lat="44.45116" lon="6.57241">
        <ele>2507</ele>
        <time>2021-04-08T08:48:36Z</time>
      </trkpt>
      <trkpt lat="44.45116" lon="6.57242">
        <ele>2507</ele>
        <time>2021-04-08T08:48:37Z</time>
      </trkpt>
      <trkpt lat="44.45116" lon="6.57243">
        <ele>2507</ele>
        <time>2021-04-08T08:48:38Z</time>
      </trkpt>
      <trkpt lat="44.45115" lon="6.57244">
        <ele>2507</ele>
        <time>2021-04-08T08:48:39Z</time>
      </trkpt>
      <trkpt lat="44.45115" lon="6.57246">
        <ele>2507</ele>
        <time>2021-04-08T08:48:40Z</time>
      </trkpt>
      <trkpt lat="44.45115" lon="6.57247">
        <ele>2507</ele>
        <time>2021-04-08T08:48:41Z</time>
      </trkpt>
      <trkpt lat="44.45115" lon="6.57248">
        <ele>2507</ele>
        <time>2021-04-08T08:48:42Z</time>
      </trkpt>
      <trkpt lat="44.45114" lon="6.57249">
        <ele>2507</ele>
        <time>2021-04-08T08:48:43Z</time>
      </trkpt>
      <trkpt lat="44.45114" lon="6.5725">
        <ele>2507</ele>
        <time>2021-04-08T08:48:44Z</time>
      </trkpt>
      <trkpt lat="44.45114" lon="6.5725">
        <ele>2508</ele>
        <time>2021-04-08T08:48:45Z</time>
      </trkpt>
      <trkpt lat="44.45114" lon="6.5725">
        <ele>2508</ele>
        <time>2021-04-08T08:48:46Z</time>
      </trkpt>
      <trkpt lat="44.45113" lon="6.57251">
        <ele>2508</ele>
        <time>2021-04-08T08:48:47Z</time>
      </trkpt>
      <trkpt lat="44.45113" lon="6.57252">
        <ele>2508</ele>
        <time>2021-04-08T08:48:48Z</time>
      </trkpt>
      <trkpt lat="44.45113" lon="6.57252">
        <ele>2508</ele>
        <time>2021-04-08T08:48:49Z</time>
      </trkpt>
      <trkpt lat="44.45114" lon="6.57253">
        <ele>2508</ele>
        <time>2021-04-08T08:48:50Z</time>
      </trkpt>
      <trkpt lat="44.45114" lon="6.57254">
        <ele>2508</ele>
        <time>2021-04-08T08:48:51Z</time>
      </trkpt>
      <trkpt lat="44.45114" lon="6.57255">
        <ele>2508</ele>
        <time>2021-04-08T08:48:52Z</time>
      </trkpt>
      <trkpt lat="44.45115" lon="6.57256">
        <ele>2508</ele>
        <time>2021-04-08T08:48:53Z</time>
      </trkpt>
      <trkpt lat="44.45116" lon="6.57258">
        <ele>2508</ele>
        <time>2021-04-08T08:48:54Z</time>
      </trkpt>
      <trkpt lat="44.45116" lon="6.57258">
        <ele>2509</ele>
        <time>2021-04-08T08:48:55Z</time>
      </trkpt>
      <trkpt lat="44.45117" lon="6.5726">
        <ele>2509</ele>
        <time>2021-04-08T08:48:56Z</time>
      </trkpt>
      <trkpt lat="44.45117" lon="6.57261">
        <ele>2509</ele>
        <time>2021-04-08T08:48:57Z</time>
      </trkpt>
      <trkpt lat="44.45117" lon="6.57261">
        <ele>2509</ele>
        <time>2021-04-08T08:48:58Z</time>
      </trkpt>
      <trkpt lat="44.45117" lon="6.57262">
        <ele>2509</ele>
        <time>2021-04-08T08:48:59Z</time>
      </trkpt>
      <trkpt lat="44.45118" lon="6.57262">
        <ele>2510</ele>
        <time>2021-04-08T08:49:00Z</time>
      </trkpt>
      <trkpt lat="44.45118" lon="6.57263">
        <ele>2510</ele>
        <time>2021-04-08T08:49:01Z</time>
      </trkpt>
      <trkpt lat="44.45119" lon="6.57264">
        <ele>2510</ele>
        <time>2021-04-08T08:49:02Z</time>
      </trkpt>
      <trkpt lat="44.45119" lon="6.57265">
        <ele>2510</ele>
        <time>2021-04-08T08:49:03Z</time>
      </trkpt>
      <trkpt lat="44.45119" lon="6.57265">
        <ele>2511</ele>
        <time>2021-04-08T08:49:04Z</time>
      </trkpt>
      <trkpt lat="44.4512" lon="6.57267">
        <ele>2511</ele>
        <time>2021-04-08T08:49:05Z</time>
      </trkpt>
      <trkpt lat="44.4512" lon="6.57268">
        <ele>2511</ele>
        <time>2021-04-08T08:49:06Z</time>
      </trkpt>
      <trkpt lat="44.4512" lon="6.57269">
        <ele>2511</ele>
        <time>2021-04-08T08:49:07Z</time>
      </trkpt>
      <trkpt lat="44.45119" lon="6.5727">
        <ele>2511</ele>
        <time>2021-04-08T08:49:08Z</time>
      </trkpt>
      <trkpt lat="44.45119" lon="6.57271">
        <ele>2511</ele>
        <time>2021-04-08T08:49:09Z</time>
      </trkpt>
      <trkpt lat="44.45119" lon="6.5727">
        <ele>2511</ele>
        <time>2021-04-08T08:49:10Z</time>
      </trkpt>
      <trkpt lat="44.45119" lon="6.57271">
        <ele>2511</ele>
        <time>2021-04-08T08:49:11Z</time>
      </trkpt>
      <trkpt lat="44.45119" lon="6.57271">
        <ele>2511</ele>
        <time>2021-04-08T08:49:12Z</time>
      </trkpt>
      <trkpt lat="44.4512" lon="6.57272">
        <ele>2511</ele>
        <time>2021-04-08T08:49:13Z</time>
      </trkpt>
      <trkpt lat="44.4512" lon="6.57273">
        <ele>2511</ele>
        <time>2021-04-08T08:49:14Z</time>
      </trkpt>
      <trkpt lat="44.4512" lon="6.57274">
        <ele>2511</ele>
        <time>2021-04-08T08:49:15Z</time>
      </trkpt>
      <trkpt lat="44.4512" lon="6.57274">
        <ele>2511</ele>
        <time>2021-04-08T08:49:16Z</time>
      </trkpt>
      <trkpt lat="44.4512" lon="6.57275">
        <ele>2511</ele>
        <time>2021-04-08T08:49:17Z</time>
      </trkpt>
      <trkpt lat="44.4512" lon="6.57277">
        <ele>2511</ele>
        <time>2021-04-08T08:49:18Z</time>
      </trkpt>
      <trkpt lat="44.4512" lon="6.57278">
        <ele>2511</ele>
        <time>2021-04-08T08:49:19Z</time>
      </trkpt>
      <trkpt lat="44.4512" lon="6.57279">
        <ele>2511</ele>
        <time>2021-04-08T08:49:20Z</time>
      </trkpt>
      <trkpt lat="44.4512" lon="6.5728">
        <ele>2511</ele>
        <time>2021-04-08T08:49:21Z</time>
      </trkpt>
      <trkpt lat="44.4512" lon="6.57281">
        <ele>2512</ele>
        <time>2021-04-08T08:49:22Z</time>
      </trkpt>
      <trkpt lat="44.4512" lon="6.57281">
        <ele>2512</ele>
        <time>2021-04-08T08:49:23Z</time>
      </trkpt>
      <trkpt lat="44.4512" lon="6.57282">
        <ele>2512</ele>
        <time>2021-04-08T08:49:24Z</time>
      </trkpt>
      <trkpt lat="44.4512" lon="6.57282">
        <ele>2512</ele>
        <time>2021-04-08T08:49:25Z</time>
      </trkpt>
      <trkpt lat="44.4512" lon="6.57283">
        <ele>2512</ele>
        <time>2021-04-08T08:49:26Z</time>
      </trkpt>
      <trkpt lat="44.4512" lon="6.57284">
        <ele>2513</ele>
        <time>2021-04-08T08:49:27Z</time>
      </trkpt>
      <trkpt lat="44.4512" lon="6.57285">
        <ele>2513</ele>
        <time>2021-04-08T08:49:28Z</time>
      </trkpt>
      <trkpt lat="44.4512" lon="6.57286">
        <ele>2513</ele>
        <time>2021-04-08T08:49:29Z</time>
      </trkpt>
      <trkpt lat="44.4512" lon="6.57286">
        <ele>2513</ele>
        <time>2021-04-08T08:49:30Z</time>
      </trkpt>
      <trkpt lat="44.4512" lon="6.57287">
        <ele>2513</ele>
        <time>2021-04-08T08:49:31Z</time>
      </trkpt>
      <trkpt lat="44.4512" lon="6.57288">
        <ele>2513</ele>
        <time>2021-04-08T08:49:32Z</time>
      </trkpt>
      <trkpt lat="44.4512" lon="6.57289">
        <ele>2514</ele>
        <time>2021-04-08T08:49:33Z</time>
      </trkpt>
      <trkpt lat="44.4512" lon="6.5729">
        <ele>2514</ele>
        <time>2021-04-08T08:49:34Z</time>
      </trkpt>
      <trkpt lat="44.4512" lon="6.5729">
        <ele>2514</ele>
        <time>2021-04-08T08:49:35Z</time>
      </trkpt>
      <trkpt lat="44.45121" lon="6.57291">
        <ele>2514</ele>
        <time>2021-04-08T08:49:36Z</time>
      </trkpt>
      <trkpt lat="44.45121" lon="6.57291">
        <ele>2514</ele>
        <time>2021-04-08T08:49:37Z</time>
      </trkpt>
      <trkpt lat="44.45121" lon="6.57292">
        <ele>2514</ele>
        <time>2021-04-08T08:49:38Z</time>
      </trkpt>
      <trkpt lat="44.45121" lon="6.57293">
        <ele>2514</ele>
        <time>2021-04-08T08:49:39Z</time>
      </trkpt>
      <trkpt lat="44.45121" lon="6.57294">
        <ele>2514</ele>
        <time>2021-04-08T08:49:40Z</time>
      </trkpt>
      <trkpt lat="44.45121" lon="6.57295">
        <ele>2514</ele>
        <time>2021-04-08T08:49:41Z</time>
      </trkpt>
      <trkpt lat="44.45122" lon="6.57296">
        <ele>2514</ele>
        <time>2021-04-08T08:49:42Z</time>
      </trkpt>
      <trkpt lat="44.45122" lon="6.57296">
        <ele>2514</ele>
        <time>2021-04-08T08:49:43Z</time>
      </trkpt>
      <trkpt lat="44.45123" lon="6.57296">
        <ele>2514</ele>
        <time>2021-04-08T08:49:44Z</time>
      </trkpt>
      <trkpt lat="44.45123" lon="6.57297">
        <ele>2514</ele>
        <time>2021-04-08T08:49:45Z</time>
      </trkpt>
      <trkpt lat="44.45124" lon="6.57298">
        <ele>2514</ele>
        <time>2021-04-08T08:49:46Z</time>
      </trkpt>
      <trkpt lat="44.45124" lon="6.57299">
        <ele>2514</ele>
        <time>2021-04-08T08:49:47Z</time>
      </trkpt>
      <trkpt lat="44.45124" lon="6.573">
        <ele>2514</ele>
        <time>2021-04-08T08:49:48Z</time>
      </trkpt>
      <trkpt lat="44.45125" lon="6.57301">
        <ele>2514</ele>
        <time>2021-04-08T08:49:49Z</time>
      </trkpt>
      <trkpt lat="44.45125" lon="6.57302">
        <ele>2514</ele>
        <time>2021-04-08T08:49:50Z</time>
      </trkpt>
      <trkpt lat="44.45125" lon="6.57303">
        <ele>2515</ele>
        <time>2021-04-08T08:49:51Z</time>
      </trkpt>
      <trkpt lat="44.45126" lon="6.57304">
        <ele>2515</ele>
        <time>2021-04-08T08:49:52Z</time>
      </trkpt>
      <trkpt lat="44.45126" lon="6.57305">
        <ele>2515</ele>
        <time>2021-04-08T08:49:53Z</time>
      </trkpt>
      <trkpt lat="44.45126" lon="6.57306">
        <ele>2515</ele>
        <time>2021-04-08T08:49:54Z</time>
      </trkpt>
      <trkpt lat="44.45126" lon="6.57308">
        <ele>2515</ele>
        <time>2021-04-08T08:49:55Z</time>
      </trkpt>
      <trkpt lat="44.45126" lon="6.57308">
        <ele>2515</ele>
        <time>2021-04-08T08:49:56Z</time>
      </trkpt>
      <trkpt lat="44.45127" lon="6.57309">
        <ele>2515</ele>
        <time>2021-04-08T08:49:57Z</time>
      </trkpt>
      <trkpt lat="44.45127" lon="6.57309">
        <ele>2515</ele>
        <time>2021-04-08T08:49:58Z</time>
      </trkpt>
      <trkpt lat="44.45127" lon="6.57309">
        <ele>2516</ele>
        <time>2021-04-08T08:49:59Z</time>
      </trkpt>
      <trkpt lat="44.45127" lon="6.57309">
        <ele>2516</ele>
        <time>2021-04-08T08:50:00Z</time>
      </trkpt>
      <trkpt lat="44.45127" lon="6.5731">
        <ele>2516</ele>
        <time>2021-04-08T08:50:01Z</time>
      </trkpt>
      <trkpt lat="44.45128" lon="6.5731">
        <ele>2516</ele>
        <time>2021-04-08T08:50:02Z</time>
      </trkpt>
      <trkpt lat="44.45128" lon="6.57311">
        <ele>2516</ele>
        <time>2021-04-08T08:50:03Z</time>
      </trkpt>
      <trkpt lat="44.45128" lon="6.57312">
        <ele>2516</ele>
        <time>2021-04-08T08:50:04Z</time>
      </trkpt>
      <trkpt lat="44.45128" lon="6.57312">
        <ele>2516</ele>
        <time>2021-04-08T08:50:05Z</time>
      </trkpt>
      <trkpt lat="44.45129" lon="6.57313">
        <ele>2517</ele>
        <time>2021-04-08T08:50:06Z</time>
      </trkpt>
      <trkpt lat="44.45129" lon="6.57314">
        <ele>2517</ele>
        <time>2021-04-08T08:50:07Z</time>
      </trkpt>
      <trkpt lat="44.45129" lon="6.57314">
        <ele>2517</ele>
        <time>2021-04-08T08:50:08Z</time>
      </trkpt>
      <trkpt lat="44.4513" lon="6.57315">
        <ele>2517</ele>
        <time>2021-04-08T08:50:09Z</time>
      </trkpt>
      <trkpt lat="44.4513" lon="6.57316">
        <ele>2517</ele>
        <time>2021-04-08T08:50:10Z</time>
      </trkpt>
      <trkpt lat="44.45131" lon="6.57316">
        <ele>2517</ele>
        <time>2021-04-08T08:50:11Z</time>
      </trkpt>
      <trkpt lat="44.45131" lon="6.57317">
        <ele>2517</ele>
        <time>2021-04-08T08:50:12Z</time>
      </trkpt>
      <trkpt lat="44.45131" lon="6.57317">
        <ele>2518</ele>
        <time>2021-04-08T08:50:13Z</time>
      </trkpt>
      <trkpt lat="44.45131" lon="6.57318">
        <ele>2518</ele>
        <time>2021-04-08T08:50:14Z</time>
      </trkpt>
      <trkpt lat="44.45132" lon="6.57318">
        <ele>2518</ele>
        <time>2021-04-08T08:50:15Z</time>
      </trkpt>
      <trkpt lat="44.45132" lon="6.57319">
        <ele>2518</ele>
        <time>2021-04-08T08:50:16Z</time>
      </trkpt>
      <trkpt lat="44.45133" lon="6.5732">
        <ele>2519</ele>
        <time>2021-04-08T08:50:17Z</time>
      </trkpt>
      <trkpt lat="44.45133" lon="6.5732">
        <ele>2519</ele>
        <time>2021-04-08T08:50:18Z</time>
      </trkpt>
      <trkpt lat="44.45133" lon="6.57321">
        <ele>2519</ele>
        <time>2021-04-08T08:50:19Z</time>
      </trkpt>
      <trkpt lat="44.45134" lon="6.57321">
        <ele>2519</ele>
        <time>2021-04-08T08:50:20Z</time>
      </trkpt>
      <trkpt lat="44.45135" lon="6.57322">
        <ele>2519</ele>
        <time>2021-04-08T08:50:21Z</time>
      </trkpt>
      <trkpt lat="44.45135" lon="6.57322">
        <ele>2519</ele>
        <time>2021-04-08T08:50:22Z</time>
      </trkpt>
      <trkpt lat="44.45136" lon="6.57323">
        <ele>2520</ele>
        <time>2021-04-08T08:50:23Z</time>
      </trkpt>
      <trkpt lat="44.45136" lon="6.57323">
        <ele>2520</ele>
        <time>2021-04-08T08:50:24Z</time>
      </trkpt>
      <trkpt lat="44.45137" lon="6.57323">
        <ele>2520</ele>
        <time>2021-04-08T08:50:25Z</time>
      </trkpt>
      <trkpt lat="44.45137" lon="6.57323">
        <ele>2521</ele>
        <time>2021-04-08T08:50:26Z</time>
      </trkpt>
      <trkpt lat="44.45137" lon="6.57324">
        <ele>2521</ele>
        <time>2021-04-08T08:50:27Z</time>
      </trkpt>
      <trkpt lat="44.45138" lon="6.57324">
        <ele>2521</ele>
        <time>2021-04-08T08:50:28Z</time>
      </trkpt>
      <trkpt lat="44.45138" lon="6.57325">
        <ele>2521</ele>
        <time>2021-04-08T08:50:29Z</time>
      </trkpt>
      <trkpt lat="44.45139" lon="6.57325">
        <ele>2522</ele>
        <time>2021-04-08T08:50:30Z</time>
      </trkpt>
      <trkpt lat="44.45139" lon="6.57325">
        <ele>2522</ele>
        <time>2021-04-08T08:50:31Z</time>
      </trkpt>
      <trkpt lat="44.4514" lon="6.57326">
        <ele>2522</ele>
        <time>2021-04-08T08:50:32Z</time>
      </trkpt>
      <trkpt lat="44.45141" lon="6.57326">
        <ele>2522</ele>
        <time>2021-04-08T08:50:33Z</time>
      </trkpt>
      <trkpt lat="44.45142" lon="6.57327">
        <ele>2523</ele>
        <time>2021-04-08T08:50:34Z</time>
      </trkpt>
      <trkpt lat="44.45143" lon="6.57328">
        <ele>2524</ele>
        <time>2021-04-08T08:50:35Z</time>
      </trkpt>
      <trkpt lat="44.45143" lon="6.57329">
        <ele>2524</ele>
        <time>2021-04-08T08:50:36Z</time>
      </trkpt>
      <trkpt lat="44.45144" lon="6.57329">
        <ele>2524</ele>
        <time>2021-04-08T08:50:37Z</time>
      </trkpt>
      <trkpt lat="44.45145" lon="6.57329">
        <ele>2524</ele>
        <time>2021-04-08T08:50:38Z</time>
      </trkpt>
      <trkpt lat="44.45146" lon="6.57329">
        <ele>2525</ele>
        <time>2021-04-08T08:50:39Z</time>
      </trkpt>
      <trkpt lat="44.45146" lon="6.5733">
        <ele>2526</ele>
        <time>2021-04-08T08:50:40Z</time>
      </trkpt>
      <trkpt lat="44.45146" lon="6.5733">
        <ele>2526</ele>
        <time>2021-04-08T08:50:41Z</time>
      </trkpt>
      <trkpt lat="44.45147" lon="6.57331">
        <ele>2526</ele>
        <time>2021-04-08T08:50:42Z</time>
      </trkpt>
      <trkpt lat="44.45147" lon="6.57331">
        <ele>2526</ele>
        <time>2021-04-08T08:50:43Z</time>
      </trkpt>
      <trkpt lat="44.45147" lon="6.57332">
        <ele>2527</ele>
        <time>2021-04-08T08:50:44Z</time>
      </trkpt>
      <trkpt lat="44.45147" lon="6.57332">
        <ele>2527</ele>
        <time>2021-04-08T08:50:45Z</time>
      </trkpt>
      <trkpt lat="44.45147" lon="6.57333">
        <ele>2527</ele>
        <time>2021-04-08T08:50:46Z</time>
      </trkpt>
      <trkpt lat="44.45147" lon="6.57334">
        <ele>2528</ele>
        <time>2021-04-08T08:50:47Z</time>
      </trkpt>
      <trkpt lat="44.45148" lon="6.57335">
        <ele>2528</ele>
        <time>2021-04-08T08:50:48Z</time>
      </trkpt>
      <trkpt lat="44.45148" lon="6.57336">
        <ele>2529</ele>
        <time>2021-04-08T08:50:49Z</time>
      </trkpt>
      <trkpt lat="44.45148" lon="6.57337">
        <ele>2529</ele>
        <time>2021-04-08T08:50:50Z</time>
      </trkpt>
      <trkpt lat="44.45149" lon="6.57338">
        <ele>2529</ele>
        <time>2021-04-08T08:50:51Z</time>
      </trkpt>
      <trkpt lat="44.45149" lon="6.57338">
        <ele>2530</ele>
        <time>2021-04-08T08:50:52Z</time>
      </trkpt>
      <trkpt lat="44.4515" lon="6.57339">
        <ele>2530</ele>
        <time>2021-04-08T08:50:53Z</time>
      </trkpt>
      <trkpt lat="44.4515" lon="6.5734">
        <ele>2531</ele>
        <time>2021-04-08T08:50:54Z</time>
      </trkpt>
      <trkpt lat="44.45151" lon="6.57341">
        <ele>2531</ele>
        <time>2021-04-08T08:50:55Z</time>
      </trkpt>
      <trkpt lat="44.45151" lon="6.57341">
        <ele>2531</ele>
        <time>2021-04-08T08:50:56Z</time>
      </trkpt>
      <trkpt lat="44.45151" lon="6.57342">
        <ele>2531</ele>
        <time>2021-04-08T08:50:57Z</time>
      </trkpt>
      <trkpt lat="44.45151" lon="6.57342">
        <ele>2532</ele>
        <time>2021-04-08T08:50:58Z</time>
      </trkpt>
      <trkpt lat="44.45152" lon="6.57342">
        <ele>2532</ele>
        <time>2021-04-08T08:50:59Z</time>
      </trkpt>
      <trkpt lat="44.45152" lon="6.57343">
        <ele>2532</ele>
        <time>2021-04-08T08:51:00Z</time>
      </trkpt>
      <trkpt lat="44.45153" lon="6.57344">
        <ele>2532</ele>
        <time>2021-04-08T08:51:01Z</time>
      </trkpt>
      <trkpt lat="44.45154" lon="6.57344">
        <ele>2532</ele>
        <time>2021-04-08T08:51:02Z</time>
      </trkpt>
      <trkpt lat="44.45154" lon="6.57345">
        <ele>2533</ele>
        <time>2021-04-08T08:51:03Z</time>
      </trkpt>
      <trkpt lat="44.45155" lon="6.57346">
        <ele>2533</ele>
        <time>2021-04-08T08:51:04Z</time>
      </trkpt>
      <trkpt lat="44.45155" lon="6.57347">
        <ele>2533</ele>
        <time>2021-04-08T08:51:05Z</time>
      </trkpt>
      <trkpt lat="44.45156" lon="6.57348">
        <ele>2533</ele>
        <time>2021-04-08T08:51:06Z</time>
      </trkpt>
      <trkpt lat="44.45156" lon="6.57348">
        <ele>2534</ele>
        <time>2021-04-08T08:51:07Z</time>
      </trkpt>
      <trkpt lat="44.45156" lon="6.57349">
        <ele>2534</ele>
        <time>2021-04-08T08:51:08Z</time>
      </trkpt>
      <trkpt lat="44.45156" lon="6.57349">
        <ele>2534</ele>
        <time>2021-04-08T08:51:09Z</time>
      </trkpt>
      <trkpt lat="44.45157" lon="6.5735">
        <ele>2534</ele>
        <time>2021-04-08T08:51:10Z</time>
      </trkpt>
      <trkpt lat="44.45158" lon="6.5735">
        <ele>2534</ele>
        <time>2021-04-08T08:51:11Z</time>
      </trkpt>
      <trkpt lat="44.45158" lon="6.5735">
        <ele>2534</ele>
        <time>2021-04-08T08:51:12Z</time>
      </trkpt>
      <trkpt lat="44.45159" lon="6.57351">
        <ele>2535</ele>
        <time>2021-04-08T08:51:13Z</time>
      </trkpt>
      <trkpt lat="44.4516" lon="6.57351">
        <ele>2535</ele>
        <time>2021-04-08T08:51:14Z</time>
      </trkpt>
      <trkpt lat="44.4516" lon="6.57352">
        <ele>2535</ele>
        <time>2021-04-08T08:51:15Z</time>
      </trkpt>
      <trkpt lat="44.4516" lon="6.57352">
        <ele>2535</ele>
        <time>2021-04-08T08:51:16Z</time>
      </trkpt>
      <trkpt lat="44.4516" lon="6.57353">
        <ele>2535</ele>
        <time>2021-04-08T08:51:17Z</time>
      </trkpt>
      <trkpt lat="44.4516" lon="6.57354">
        <ele>2535</ele>
        <time>2021-04-08T08:51:18Z</time>
      </trkpt>
      <trkpt lat="44.45161" lon="6.57354">
        <ele>2536</ele>
        <time>2021-04-08T08:51:19Z</time>
      </trkpt>
      <trkpt lat="44.45161" lon="6.57355">
        <ele>2536</ele>
        <time>2021-04-08T08:51:20Z</time>
      </trkpt>
      <trkpt lat="44.45162" lon="6.57356">
        <ele>2536</ele>
        <time>2021-04-08T08:51:21Z</time>
      </trkpt>
      <trkpt lat="44.45162" lon="6.57356">
        <ele>2536</ele>
        <time>2021-04-08T08:51:22Z</time>
      </trkpt>
      <trkpt lat="44.45163" lon="6.57357">
        <ele>2536</ele>
        <time>2021-04-08T08:51:23Z</time>
      </trkpt>
      <trkpt lat="44.45163" lon="6.57357">
        <ele>2537</ele>
        <time>2021-04-08T08:51:24Z</time>
      </trkpt>
      <trkpt lat="44.45164" lon="6.57358">
        <ele>2537</ele>
        <time>2021-04-08T08:51:25Z</time>
      </trkpt>
      <trkpt lat="44.45165" lon="6.57358">
        <ele>2537</ele>
        <time>2021-04-08T08:51:26Z</time>
      </trkpt>
      <trkpt lat="44.45165" lon="6.57359">
        <ele>2537</ele>
        <time>2021-04-08T08:51:27Z</time>
      </trkpt>
      <trkpt lat="44.45167" lon="6.57359">
        <ele>2538</ele>
        <time>2021-04-08T08:51:28Z</time>
      </trkpt>
      <trkpt lat="44.45167" lon="6.5736">
        <ele>2538</ele>
        <time>2021-04-08T08:51:29Z</time>
      </trkpt>
      <trkpt lat="44.45168" lon="6.57361">
        <ele>2538</ele>
        <time>2021-04-08T08:51:30Z</time>
      </trkpt>
      <trkpt lat="44.45169" lon="6.57362">
        <ele>2538</ele>
        <time>2021-04-08T08:51:31Z</time>
      </trkpt>
      <trkpt lat="44.45169" lon="6.57362">
        <ele>2539</ele>
        <time>2021-04-08T08:51:32Z</time>
      </trkpt>
      <trkpt lat="44.45169" lon="6.57363">
        <ele>2539</ele>
        <time>2021-04-08T08:51:33Z</time>
      </trkpt>
      <trkpt lat="44.4517" lon="6.57363">
        <ele>2539</ele>
        <time>2021-04-08T08:51:34Z</time>
      </trkpt>
      <trkpt lat="44.4517" lon="6.57363">
        <ele>2540</ele>
        <time>2021-04-08T08:51:35Z</time>
      </trkpt>
      <trkpt lat="44.4517" lon="6.57364">
        <ele>2540</ele>
        <time>2021-04-08T08:51:36Z</time>
      </trkpt>
      <trkpt lat="44.45171" lon="6.57364">
        <ele>2540</ele>
        <time>2021-04-08T08:51:37Z</time>
      </trkpt>
      <trkpt lat="44.45172" lon="6.57365">
        <ele>2541</ele>
        <time>2021-04-08T08:51:38Z</time>
      </trkpt>
      <trkpt lat="44.45173" lon="6.57366">
        <ele>2541</ele>
        <time>2021-04-08T08:51:39Z</time>
      </trkpt>
      <trkpt lat="44.45173" lon="6.57366">
        <ele>2541</ele>
        <time>2021-04-08T08:51:40Z</time>
      </trkpt>
      <trkpt lat="44.45173" lon="6.57367">
        <ele>2541</ele>
        <time>2021-04-08T08:51:41Z</time>
      </trkpt>
      <trkpt lat="44.45174" lon="6.57367">
        <ele>2542</ele>
        <time>2021-04-08T08:51:42Z</time>
      </trkpt>
      <trkpt lat="44.45174" lon="6.57368">
        <ele>2542</ele>
        <time>2021-04-08T08:51:43Z</time>
      </trkpt>
      <trkpt lat="44.45174" lon="6.57369">
        <ele>2542</ele>
        <time>2021-04-08T08:51:44Z</time>
      </trkpt>
      <trkpt lat="44.45175" lon="6.57369">
        <ele>2542</ele>
        <time>2021-04-08T08:51:45Z</time>
      </trkpt>
      <trkpt lat="44.45176" lon="6.5737">
        <ele>2542</ele>
        <time>2021-04-08T08:51:46Z</time>
      </trkpt>
      <trkpt lat="44.45176" lon="6.5737">
        <ele>2543</ele>
        <time>2021-04-08T08:51:47Z</time>
      </trkpt>
      <trkpt lat="44.45176" lon="6.5737">
        <ele>2543</ele>
        <time>2021-04-08T08:51:48Z</time>
      </trkpt>
      <trkpt lat="44.45177" lon="6.57371">
        <ele>2543</ele>
        <time>2021-04-08T08:51:49Z</time>
      </trkpt>
      <trkpt lat="44.45177" lon="6.57371">
        <ele>2543</ele>
        <time>2021-04-08T08:51:50Z</time>
      </trkpt>
      <trkpt lat="44.45178" lon="6.57372">
        <ele>2543</ele>
        <time>2021-04-08T08:51:51Z</time>
      </trkpt>
      <trkpt lat="44.45179" lon="6.57372">
        <ele>2543</ele>
        <time>2021-04-08T08:51:52Z</time>
      </trkpt>
      <trkpt lat="44.45179" lon="6.57373">
        <ele>2543</ele>
        <time>2021-04-08T08:51:53Z</time>
      </trkpt>
      <trkpt lat="44.45179" lon="6.57373">
        <ele>2543</ele>
        <time>2021-04-08T08:51:54Z</time>
      </trkpt>
      <trkpt lat="44.45179" lon="6.57373">
        <ele>2543</ele>
        <time>2021-04-08T08:51:55Z</time>
      </trkpt>
      <trkpt lat="44.4518" lon="6.57375">
        <ele>2543</ele>
        <time>2021-04-08T08:51:56Z</time>
      </trkpt>
      <trkpt lat="44.4518" lon="6.57375">
        <ele>2543</ele>
        <time>2021-04-08T08:51:57Z</time>
      </trkpt>
      <trkpt lat="44.4518" lon="6.57376">
        <ele>2543</ele>
        <time>2021-04-08T08:51:58Z</time>
      </trkpt>
      <trkpt lat="44.4518" lon="6.57376">
        <ele>2544</ele>
        <time>2021-04-08T08:51:59Z</time>
      </trkpt>
      <trkpt lat="44.4518" lon="6.57377">
        <ele>2544</ele>
        <time>2021-04-08T08:52:00Z</time>
      </trkpt>
      <trkpt lat="44.4518" lon="6.57377">
        <ele>2544</ele>
        <time>2021-04-08T08:52:01Z</time>
      </trkpt>
      <trkpt lat="44.45181" lon="6.57378">
        <ele>2544</ele>
        <time>2021-04-08T08:52:02Z</time>
      </trkpt>
      <trkpt lat="44.45181" lon="6.57379">
        <ele>2544</ele>
        <time>2021-04-08T08:52:03Z</time>
      </trkpt>
      <trkpt lat="44.45181" lon="6.5738">
        <ele>2544</ele>
        <time>2021-04-08T08:52:04Z</time>
      </trkpt>
      <trkpt lat="44.45181" lon="6.57381">
        <ele>2545</ele>
        <time>2021-04-08T08:52:05Z</time>
      </trkpt>
      <trkpt lat="44.45181" lon="6.57382">
        <ele>2545</ele>
        <time>2021-04-08T08:52:06Z</time>
      </trkpt>
      <trkpt lat="44.45181" lon="6.57383">
        <ele>2545</ele>
        <time>2021-04-08T08:52:07Z</time>
      </trkpt>
      <trkpt lat="44.45181" lon="6.57384">
        <ele>2545</ele>
        <time>2021-04-08T08:52:08Z</time>
      </trkpt>
      <trkpt lat="44.45181" lon="6.57385">
        <ele>2545</ele>
        <time>2021-04-08T08:52:09Z</time>
      </trkpt>
      <trkpt lat="44.45182" lon="6.57386">
        <ele>2545</ele>
        <time>2021-04-08T08:52:10Z</time>
      </trkpt>
      <trkpt lat="44.45182" lon="6.57387">
        <ele>2545</ele>
        <time>2021-04-08T08:52:11Z</time>
      </trkpt>
      <trkpt lat="44.45182" lon="6.57387">
        <ele>2546</ele>
        <time>2021-04-08T08:52:12Z</time>
      </trkpt>
      <trkpt lat="44.45182" lon="6.57388">
        <ele>2546</ele>
        <time>2021-04-08T08:52:13Z</time>
      </trkpt>
      <trkpt lat="44.45182" lon="6.57389">
        <ele>2546</ele>
        <time>2021-04-08T08:52:14Z</time>
      </trkpt>
      <trkpt lat="44.45183" lon="6.57389">
        <ele>2546</ele>
        <time>2021-04-08T08:52:15Z</time>
      </trkpt>
      <trkpt lat="44.45183" lon="6.5739">
        <ele>2546</ele>
        <time>2021-04-08T08:52:16Z</time>
      </trkpt>
      <trkpt lat="44.45183" lon="6.57391">
        <ele>2546</ele>
        <time>2021-04-08T08:52:17Z</time>
      </trkpt>
      <trkpt lat="44.45184" lon="6.57391">
        <ele>2546</ele>
        <time>2021-04-08T08:52:18Z</time>
      </trkpt>
      <trkpt lat="44.45184" lon="6.57393">
        <ele>2546</ele>
        <time>2021-04-08T08:52:19Z</time>
      </trkpt>
      <trkpt lat="44.45184" lon="6.57394">
        <ele>2546</ele>
        <time>2021-04-08T08:52:20Z</time>
      </trkpt>
      <trkpt lat="44.45185" lon="6.57394">
        <ele>2547</ele>
        <time>2021-04-08T08:52:21Z</time>
      </trkpt>
      <trkpt lat="44.45185" lon="6.57395">
        <ele>2547</ele>
        <time>2021-04-08T08:52:22Z</time>
      </trkpt>
      <trkpt lat="44.45185" lon="6.57395">
        <ele>2547</ele>
        <time>2021-04-08T08:52:23Z</time>
      </trkpt>
      <trkpt lat="44.45185" lon="6.57396">
        <ele>2547</ele>
        <time>2021-04-08T08:52:24Z</time>
      </trkpt>
      <trkpt lat="44.45186" lon="6.57396">
        <ele>2547</ele>
        <time>2021-04-08T08:52:25Z</time>
      </trkpt>
      <trkpt lat="44.45186" lon="6.57397">
        <ele>2547</ele>
        <time>2021-04-08T08:52:26Z</time>
      </trkpt>
      <trkpt lat="44.45187" lon="6.57398">
        <ele>2547</ele>
        <time>2021-04-08T08:52:27Z</time>
      </trkpt>
      <trkpt lat="44.45187" lon="6.57399">
        <ele>2547</ele>
        <time>2021-04-08T08:52:28Z</time>
      </trkpt>
      <trkpt lat="44.45188" lon="6.57399">
        <ele>2547</ele>
        <time>2021-04-08T08:52:29Z</time>
      </trkpt>
      <trkpt lat="44.45188" lon="6.574">
        <ele>2547</ele>
        <time>2021-04-08T08:52:30Z</time>
      </trkpt>
      <trkpt lat="44.45188" lon="6.57401">
        <ele>2548</ele>
        <time>2021-04-08T08:52:31Z</time>
      </trkpt>
      <trkpt lat="44.45189" lon="6.57402">
        <ele>2548</ele>
        <time>2021-04-08T08:52:32Z</time>
      </trkpt>
      <trkpt lat="44.4519" lon="6.57402">
        <ele>2548</ele>
        <time>2021-04-08T08:52:33Z</time>
      </trkpt>
      <trkpt lat="44.45191" lon="6.57403">
        <ele>2549</ele>
        <time>2021-04-08T08:52:34Z</time>
      </trkpt>
      <trkpt lat="44.45191" lon="6.57403">
        <ele>2549</ele>
        <time>2021-04-08T08:52:35Z</time>
      </trkpt>
      <trkpt lat="44.45192" lon="6.57404">
        <ele>2549</ele>
        <time>2021-04-08T08:52:36Z</time>
      </trkpt>
      <trkpt lat="44.45192" lon="6.57405">
        <ele>2549</ele>
        <time>2021-04-08T08:52:37Z</time>
      </trkpt>
      <trkpt lat="44.45193" lon="6.57406">
        <ele>2549</ele>
        <time>2021-04-08T08:52:38Z</time>
      </trkpt>
      <trkpt lat="44.45193" lon="6.57407">
        <ele>2549</ele>
        <time>2021-04-08T08:52:39Z</time>
      </trkpt>
      <trkpt lat="44.45194" lon="6.57408">
        <ele>2550</ele>
        <time>2021-04-08T08:52:40Z</time>
      </trkpt>
      <trkpt lat="44.45195" lon="6.57408">
        <ele>2550</ele>
        <time>2021-04-08T08:52:41Z</time>
      </trkpt>
      <trkpt lat="44.45195" lon="6.57409">
        <ele>2550</ele>
        <time>2021-04-08T08:52:42Z</time>
      </trkpt>
      <trkpt lat="44.45195" lon="6.57409">
        <ele>2550</ele>
        <time>2021-04-08T08:52:43Z</time>
      </trkpt>
      <trkpt lat="44.45195" lon="6.5741">
        <ele>2550</ele>
        <time>2021-04-08T08:52:44Z</time>
      </trkpt>
      <trkpt lat="44.45195" lon="6.57411">
        <ele>2550</ele>
        <time>2021-04-08T08:52:45Z</time>
      </trkpt>
      <trkpt lat="44.45196" lon="6.57412">
        <ele>2550</ele>
        <time>2021-04-08T08:52:46Z</time>
      </trkpt>
      <trkpt lat="44.45196" lon="6.57413">
        <ele>2550</ele>
        <time>2021-04-08T08:52:47Z</time>
      </trkpt>
      <trkpt lat="44.45196" lon="6.57413">
        <ele>2550</ele>
        <time>2021-04-08T08:52:48Z</time>
      </trkpt>
      <trkpt lat="44.45196" lon="6.57414">
        <ele>2550</ele>
        <time>2021-04-08T08:52:49Z</time>
      </trkpt>
      <trkpt lat="44.45196" lon="6.57414">
        <ele>2550</ele>
        <time>2021-04-08T08:52:50Z</time>
      </trkpt>
      <trkpt lat="44.45196" lon="6.57415">
        <ele>2550</ele>
        <time>2021-04-08T08:52:51Z</time>
      </trkpt>
      <trkpt lat="44.45196" lon="6.57416">
        <ele>2550</ele>
        <time>2021-04-08T08:52:52Z</time>
      </trkpt>
      <trkpt lat="44.45196" lon="6.57416">
        <ele>2551</ele>
        <time>2021-04-08T08:52:53Z</time>
      </trkpt>
      <trkpt lat="44.45196" lon="6.57416">
        <ele>2551</ele>
        <time>2021-04-08T08:52:54Z</time>
      </trkpt>
      <trkpt lat="44.45196" lon="6.57417">
        <ele>2551</ele>
        <time>2021-04-08T08:52:55Z</time>
      </trkpt>
      <trkpt lat="44.45196" lon="6.57416">
        <ele>2551</ele>
        <time>2021-04-08T08:52:56Z</time>
      </trkpt>
      <trkpt lat="44.45196" lon="6.57417">
        <ele>2551</ele>
        <time>2021-04-08T08:52:57Z</time>
      </trkpt>
      <trkpt lat="44.45195" lon="6.57416">
        <ele>2551</ele>
        <time>2021-04-08T08:52:58Z</time>
      </trkpt>
      <trkpt lat="44.45195" lon="6.57416">
        <ele>2551</ele>
        <time>2021-04-08T08:52:59Z</time>
      </trkpt>
      <trkpt lat="44.45194" lon="6.57416">
        <ele>2551</ele>
        <time>2021-04-08T08:53:00Z</time>
      </trkpt>
      <trkpt lat="44.45194" lon="6.57416">
        <ele>2551</ele>
        <time>2021-04-08T08:53:01Z</time>
      </trkpt>
      <trkpt lat="44.45194" lon="6.57416">
        <ele>2551</ele>
        <time>2021-04-08T08:53:02Z</time>
      </trkpt>
      <trkpt lat="44.45194" lon="6.57416">
        <ele>2551</ele>
        <time>2021-04-08T08:53:03Z</time>
      </trkpt>
      <trkpt lat="44.45194" lon="6.57417">
        <ele>2551</ele>
        <time>2021-04-08T08:53:04Z</time>
      </trkpt>
      <trkpt lat="44.45194" lon="6.57417">
        <ele>2551</ele>
        <time>2021-04-08T08:53:05Z</time>
      </trkpt>
      <trkpt lat="44.45194" lon="6.57417">
        <ele>2551</ele>
        <time>2021-04-08T08:53:06Z</time>
      </trkpt>
      <trkpt lat="44.45194" lon="6.57417">
        <ele>2551</ele>
        <time>2021-04-08T08:53:07Z</time>
      </trkpt>
      <trkpt lat="44.45194" lon="6.57417">
        <ele>2551</ele>
        <time>2021-04-08T08:53:08Z</time>
      </trkpt>
      <trkpt lat="44.45195" lon="6.57418">
        <ele>2551</ele>
        <time>2021-04-08T08:53:09Z</time>
      </trkpt>
      <trkpt lat="44.45195" lon="6.57419">
        <ele>2551</ele>
        <time>2021-04-08T08:53:10Z</time>
      </trkpt>
      <trkpt lat="44.45195" lon="6.57419">
        <ele>2551</ele>
        <time>2021-04-08T08:53:11Z</time>
      </trkpt>
      <trkpt lat="44.45194" lon="6.5742">
        <ele>2551</ele>
        <time>2021-04-08T08:53:12Z</time>
      </trkpt>
      <trkpt lat="44.45194" lon="6.5742">
        <ele>2551</ele>
        <time>2021-04-08T08:53:13Z</time>
      </trkpt>
      <trkpt lat="44.45194" lon="6.57421">
        <ele>2551</ele>
        <time>2021-04-08T08:53:14Z</time>
      </trkpt>
      <trkpt lat="44.45193" lon="6.57421">
        <ele>2551</ele>
        <time>2021-04-08T08:53:15Z</time>
      </trkpt>
      <trkpt lat="44.45192" lon="6.57421">
        <ele>2551</ele>
        <time>2021-04-08T08:53:16Z</time>
      </trkpt>
      <trkpt lat="44.45191" lon="6.57421">
        <ele>2551</ele>
        <time>2021-04-08T08:53:17Z</time>
      </trkpt>
      <trkpt lat="44.45191" lon="6.57422">
        <ele>2551</ele>
        <time>2021-04-08T08:53:18Z</time>
      </trkpt>
      <trkpt lat="44.4519" lon="6.57422">
        <ele>2551</ele>
        <time>2021-04-08T08:53:19Z</time>
      </trkpt>
      <trkpt lat="44.4519" lon="6.57423">
        <ele>2552</ele>
        <time>2021-04-08T08:53:20Z</time>
      </trkpt>
      <trkpt lat="44.4519" lon="6.57424">
        <ele>2552</ele>
        <time>2021-04-08T08:53:21Z</time>
      </trkpt>
      <trkpt lat="44.45189" lon="6.57424">
        <ele>2552</ele>
        <time>2021-04-08T08:53:22Z</time>
      </trkpt>
      <trkpt lat="44.45188" lon="6.57425">
        <ele>2552</ele>
        <time>2021-04-08T08:53:23Z</time>
      </trkpt>
      <trkpt lat="44.45188" lon="6.57426">
        <ele>2553</ele>
        <time>2021-04-08T08:53:24Z</time>
      </trkpt>
      <trkpt lat="44.45188" lon="6.57427">
        <ele>2553</ele>
        <time>2021-04-08T08:53:25Z</time>
      </trkpt>
      <trkpt lat="44.45188" lon="6.57428">
        <ele>2553</ele>
        <time>2021-04-08T08:53:26Z</time>
      </trkpt>
      <trkpt lat="44.45188" lon="6.57429">
        <ele>2553</ele>
        <time>2021-04-08T08:53:27Z</time>
      </trkpt>
      <trkpt lat="44.45188" lon="6.5743">
        <ele>2553</ele>
        <time>2021-04-08T08:53:28Z</time>
      </trkpt>
      <trkpt lat="44.45188" lon="6.57431">
        <ele>2554</ele>
        <time>2021-04-08T08:53:29Z</time>
      </trkpt>
      <trkpt lat="44.45188" lon="6.57432">
        <ele>2554</ele>
        <time>2021-04-08T08:53:30Z</time>
      </trkpt>
      <trkpt lat="44.45189" lon="6.57433">
        <ele>2554</ele>
        <time>2021-04-08T08:53:31Z</time>
      </trkpt>
      <trkpt lat="44.45189" lon="6.57434">
        <ele>2554</ele>
        <time>2021-04-08T08:53:32Z</time>
      </trkpt>
      <trkpt lat="44.45189" lon="6.57436">
        <ele>2554</ele>
        <time>2021-04-08T08:53:33Z</time>
      </trkpt>
      <trkpt lat="44.45189" lon="6.57437">
        <ele>2555</ele>
        <time>2021-04-08T08:53:34Z</time>
      </trkpt>
      <trkpt lat="44.45189" lon="6.57437">
        <ele>2555</ele>
        <time>2021-04-08T08:53:35Z</time>
      </trkpt>
      <trkpt lat="44.45189" lon="6.57438">
        <ele>2555</ele>
        <time>2021-04-08T08:53:36Z</time>
      </trkpt>
      <trkpt lat="44.45189" lon="6.57439">
        <ele>2555</ele>
        <time>2021-04-08T08:53:37Z</time>
      </trkpt>
      <trkpt lat="44.45189" lon="6.5744">
        <ele>2555</ele>
        <time>2021-04-08T08:53:38Z</time>
      </trkpt>
      <trkpt lat="44.45189" lon="6.57441">
        <ele>2555</ele>
        <time>2021-04-08T08:53:39Z</time>
      </trkpt>
      <trkpt lat="44.45188" lon="6.57442">
        <ele>2556</ele>
        <time>2021-04-08T08:53:40Z</time>
      </trkpt>
      <trkpt lat="44.45188" lon="6.57443">
        <ele>2556</ele>
        <time>2021-04-08T08:53:41Z</time>
      </trkpt>
      <trkpt lat="44.45188" lon="6.57444">
        <ele>2556</ele>
        <time>2021-04-08T08:53:42Z</time>
      </trkpt>
      <trkpt lat="44.45188" lon="6.57445">
        <ele>2556</ele>
        <time>2021-04-08T08:53:43Z</time>
      </trkpt>
      <trkpt lat="44.45188" lon="6.57446">
        <ele>2556</ele>
        <time>2021-04-08T08:53:44Z</time>
      </trkpt>
      <trkpt lat="44.45188" lon="6.57447">
        <ele>2557</ele>
        <time>2021-04-08T08:53:45Z</time>
      </trkpt>
      <trkpt lat="44.45188" lon="6.57448">
        <ele>2557</ele>
        <time>2021-04-08T08:53:46Z</time>
      </trkpt>
      <trkpt lat="44.45188" lon="6.57449">
        <ele>2557</ele>
        <time>2021-04-08T08:53:47Z</time>
      </trkpt>
      <trkpt lat="44.45188" lon="6.5745">
        <ele>2557</ele>
        <time>2021-04-08T08:53:48Z</time>
      </trkpt>
      <trkpt lat="44.45188" lon="6.57451">
        <ele>2558</ele>
        <time>2021-04-08T08:53:49Z</time>
      </trkpt>
      <trkpt lat="44.45188" lon="6.57452">
        <ele>2558</ele>
        <time>2021-04-08T08:53:50Z</time>
      </trkpt>
      <trkpt lat="44.45188" lon="6.57453">
        <ele>2558</ele>
        <time>2021-04-08T08:53:51Z</time>
      </trkpt>
      <trkpt lat="44.45188" lon="6.57454">
        <ele>2558</ele>
        <time>2021-04-08T08:53:52Z</time>
      </trkpt>
      <trkpt lat="44.45189" lon="6.57455">
        <ele>2558</ele>
        <time>2021-04-08T08:53:53Z</time>
      </trkpt>
      <trkpt lat="44.45188" lon="6.57455">
        <ele>2558</ele>
        <time>2021-04-08T08:53:54Z</time>
      </trkpt>
      <trkpt lat="44.45189" lon="6.57456">
        <ele>2559</ele>
        <time>2021-04-08T08:53:55Z</time>
      </trkpt>
      <trkpt lat="44.45189" lon="6.57458">
        <ele>2559</ele>
        <time>2021-04-08T08:53:56Z</time>
      </trkpt>
      <trkpt lat="44.45189" lon="6.57459">
        <ele>2559</ele>
        <time>2021-04-08T08:53:57Z</time>
      </trkpt>
      <trkpt lat="44.45189" lon="6.5746">
        <ele>2559</ele>
        <time>2021-04-08T08:53:58Z</time>
      </trkpt>
      <trkpt lat="44.45189" lon="6.57461">
        <ele>2560</ele>
        <time>2021-04-08T08:53:59Z</time>
      </trkpt>
      <trkpt lat="44.45189" lon="6.57462">
        <ele>2560</ele>
        <time>2021-04-08T08:54:00Z</time>
      </trkpt>
      <trkpt lat="44.4519" lon="6.57463">
        <ele>2560</ele>
        <time>2021-04-08T08:54:01Z</time>
      </trkpt>
      <trkpt lat="44.4519" lon="6.57464">
        <ele>2560</ele>
        <time>2021-04-08T08:54:02Z</time>
      </trkpt>
      <trkpt lat="44.4519" lon="6.57464">
        <ele>2560</ele>
        <time>2021-04-08T08:54:03Z</time>
      </trkpt>
      <trkpt lat="44.4519" lon="6.57465">
        <ele>2561</ele>
        <time>2021-04-08T08:54:04Z</time>
      </trkpt>
      <trkpt lat="44.45191" lon="6.57466">
        <ele>2561</ele>
        <time>2021-04-08T08:54:05Z</time>
      </trkpt>
      <trkpt lat="44.45191" lon="6.57467">
        <ele>2561</ele>
        <time>2021-04-08T08:54:06Z</time>
      </trkpt>
      <trkpt lat="44.45191" lon="6.57468">
        <ele>2561</ele>
        <time>2021-04-08T08:54:07Z</time>
      </trkpt>
      <trkpt lat="44.45192" lon="6.57469">
        <ele>2561</ele>
        <time>2021-04-08T08:54:08Z</time>
      </trkpt>
      <trkpt lat="44.45192" lon="6.5747">
        <ele>2562</ele>
        <time>2021-04-08T08:54:09Z</time>
      </trkpt>
      <trkpt lat="44.45192" lon="6.5747">
        <ele>2562</ele>
        <time>2021-04-08T08:54:10Z</time>
      </trkpt>
      <trkpt lat="44.45192" lon="6.57471">
        <ele>2562</ele>
        <time>2021-04-08T08:54:11Z</time>
      </trkpt>
      <trkpt lat="44.45192" lon="6.57473">
        <ele>2562</ele>
        <time>2021-04-08T08:54:12Z</time>
      </trkpt>
      <trkpt lat="44.45192" lon="6.57473">
        <ele>2562</ele>
        <time>2021-04-08T08:54:13Z</time>
      </trkpt>
      <trkpt lat="44.45193" lon="6.57475">
        <ele>2562</ele>
        <time>2021-04-08T08:54:14Z</time>
      </trkpt>
      <trkpt lat="44.45193" lon="6.57477">
        <ele>2563</ele>
        <time>2021-04-08T08:54:15Z</time>
      </trkpt>
      <trkpt lat="44.45194" lon="6.57478">
        <ele>2563</ele>
        <time>2021-04-08T08:54:16Z</time>
      </trkpt>
      <trkpt lat="44.45195" lon="6.57479">
        <ele>2563</ele>
        <time>2021-04-08T08:54:17Z</time>
      </trkpt>
      <trkpt lat="44.45195" lon="6.57479">
        <ele>2563</ele>
        <time>2021-04-08T08:54:18Z</time>
      </trkpt>
      <trkpt lat="44.45195" lon="6.57479">
        <ele>2563</ele>
        <time>2021-04-08T08:54:19Z</time>
      </trkpt>
      <trkpt lat="44.45195" lon="6.57479">
        <ele>2564</ele>
        <time>2021-04-08T08:54:20Z</time>
      </trkpt>
      <trkpt lat="44.45196" lon="6.5748">
        <ele>2564</ele>
        <time>2021-04-08T08:54:21Z</time>
      </trkpt>
      <trkpt lat="44.45196" lon="6.5748">
        <ele>2564</ele>
        <time>2021-04-08T08:54:22Z</time>
      </trkpt>
      <trkpt lat="44.45196" lon="6.5748">
        <ele>2564</ele>
        <time>2021-04-08T08:54:23Z</time>
      </trkpt>
      <trkpt lat="44.45196" lon="6.57481">
        <ele>2564</ele>
        <time>2021-04-08T08:54:24Z</time>
      </trkpt>
      <trkpt lat="44.45196" lon="6.57481">
        <ele>2564</ele>
        <time>2021-04-08T08:54:25Z</time>
      </trkpt>
      <trkpt lat="44.45197" lon="6.57483">
        <ele>2564</ele>
        <time>2021-04-08T08:54:26Z</time>
      </trkpt>
      <trkpt lat="44.45197" lon="6.57484">
        <ele>2564</ele>
        <time>2021-04-08T08:54:27Z</time>
      </trkpt>
      <trkpt lat="44.45197" lon="6.57484">
        <ele>2564</ele>
        <time>2021-04-08T08:54:28Z</time>
      </trkpt>
      <trkpt lat="44.45198" lon="6.57485">
        <ele>2564</ele>
        <time>2021-04-08T08:54:29Z</time>
      </trkpt>
      <trkpt lat="44.45198" lon="6.57486">
        <ele>2564</ele>
        <time>2021-04-08T08:54:30Z</time>
      </trkpt>
      <trkpt lat="44.45198" lon="6.57487">
        <ele>2564</ele>
        <time>2021-04-08T08:54:31Z</time>
      </trkpt>
      <trkpt lat="44.45198" lon="6.57488">
        <ele>2564</ele>
        <time>2021-04-08T08:54:32Z</time>
      </trkpt>
      <trkpt lat="44.45199" lon="6.5749">
        <ele>2564</ele>
        <time>2021-04-08T08:54:33Z</time>
      </trkpt>
      <trkpt lat="44.45199" lon="6.57491">
        <ele>2564</ele>
        <time>2021-04-08T08:54:34Z</time>
      </trkpt>
      <trkpt lat="44.45199" lon="6.57492">
        <ele>2564</ele>
        <time>2021-04-08T08:54:35Z</time>
      </trkpt>
      <trkpt lat="44.45199" lon="6.57493">
        <ele>2564</ele>
        <time>2021-04-08T08:54:36Z</time>
      </trkpt>
      <trkpt lat="44.45199" lon="6.57493">
        <ele>2564</ele>
        <time>2021-04-08T08:54:37Z</time>
      </trkpt>
      <trkpt lat="44.45199" lon="6.57494">
        <ele>2564</ele>
        <time>2021-04-08T08:54:38Z</time>
      </trkpt>
      <trkpt lat="44.45199" lon="6.57495">
        <ele>2564</ele>
        <time>2021-04-08T08:54:39Z</time>
      </trkpt>
      <trkpt lat="44.45198" lon="6.57495">
        <ele>2564</ele>
        <time>2021-04-08T08:54:40Z</time>
      </trkpt>
      <trkpt lat="44.45198" lon="6.57495">
        <ele>2564</ele>
        <time>2021-04-08T08:54:41Z</time>
      </trkpt>
      <trkpt lat="44.45197" lon="6.57495">
        <ele>2564</ele>
        <time>2021-04-08T08:54:42Z</time>
      </trkpt>
      <trkpt lat="44.45198" lon="6.57496">
        <ele>2564</ele>
        <time>2021-04-08T08:54:43Z</time>
      </trkpt>
      <trkpt lat="44.45198" lon="6.57496">
        <ele>2564</ele>
        <time>2021-04-08T08:54:44Z</time>
      </trkpt>
      <trkpt lat="44.45198" lon="6.57496">
        <ele>2564</ele>
        <time>2021-04-08T08:54:45Z</time>
      </trkpt>
      <trkpt lat="44.45197" lon="6.57497">
        <ele>2564</ele>
        <time>2021-04-08T08:54:46Z</time>
      </trkpt>
      <trkpt lat="44.45197" lon="6.57498">
        <ele>2564</ele>
        <time>2021-04-08T08:54:47Z</time>
      </trkpt>
      <trkpt lat="44.45197" lon="6.57498">
        <ele>2565</ele>
        <time>2021-04-08T08:54:48Z</time>
      </trkpt>
      <trkpt lat="44.45197" lon="6.57498">
        <ele>2565</ele>
        <time>2021-04-08T08:54:49Z</time>
      </trkpt>
      <trkpt lat="44.45197" lon="6.57498">
        <ele>2565</ele>
        <time>2021-04-08T08:54:50Z</time>
      </trkpt>
      <trkpt lat="44.45197" lon="6.57498">
        <ele>2565</ele>
        <time>2021-04-08T08:54:51Z</time>
      </trkpt>
      <trkpt lat="44.45197" lon="6.57498">
        <ele>2565</ele>
        <time>2021-04-08T08:54:52Z</time>
      </trkpt>
      <trkpt lat="44.45197" lon="6.57498">
        <ele>2565</ele>
        <time>2021-04-08T08:54:53Z</time>
      </trkpt>
      <trkpt lat="44.45197" lon="6.57498">
        <ele>2565</ele>
        <time>2021-04-08T08:54:54Z</time>
      </trkpt>
      <trkpt lat="44.45195" lon="6.57498">
        <ele>2565</ele>
        <time>2021-04-08T08:54:55Z</time>
      </trkpt>
      <trkpt lat="44.45195" lon="6.57498">
        <ele>2566</ele>
        <time>2021-04-08T08:54:56Z</time>
      </trkpt>
      <trkpt lat="44.45194" lon="6.57498">
        <ele>2567</ele>
        <time>2021-04-08T08:54:57Z</time>
      </trkpt>
      <trkpt lat="44.45194" lon="6.57499">
        <ele>2567</ele>
        <time>2021-04-08T08:54:58Z</time>
      </trkpt>
      <trkpt lat="44.45194" lon="6.57499">
        <ele>2568</ele>
        <time>2021-04-08T08:54:59Z</time>
      </trkpt>
      <trkpt lat="44.45194" lon="6.575">
        <ele>2568</ele>
        <time>2021-04-08T08:55:00Z</time>
      </trkpt>
      <trkpt lat="44.45194" lon="6.57501">
        <ele>2568</ele>
        <time>2021-04-08T08:55:01Z</time>
      </trkpt>
      <trkpt lat="44.45194" lon="6.57502">
        <ele>2568</ele>
        <time>2021-04-08T08:55:02Z</time>
      </trkpt>
      <trkpt lat="44.45194" lon="6.57503">
        <ele>2568</ele>
        <time>2021-04-08T08:55:03Z</time>
      </trkpt>
      <trkpt lat="44.45194" lon="6.57504">
        <ele>2568</ele>
        <time>2021-04-08T08:55:04Z</time>
      </trkpt>
      <trkpt lat="44.45194" lon="6.57505">
        <ele>2569</ele>
        <time>2021-04-08T08:55:05Z</time>
      </trkpt>
      <trkpt lat="44.45194" lon="6.57505">
        <ele>2569</ele>
        <time>2021-04-08T08:55:06Z</time>
      </trkpt>
      <trkpt lat="44.45194" lon="6.57506">
        <ele>2569</ele>
        <time>2021-04-08T08:55:07Z</time>
      </trkpt>
      <trkpt lat="44.45195" lon="6.57507">
        <ele>2569</ele>
        <time>2021-04-08T08:55:08Z</time>
      </trkpt>
      <trkpt lat="44.45196" lon="6.57508">
        <ele>2569</ele>
        <time>2021-04-08T08:55:09Z</time>
      </trkpt>
      <trkpt lat="44.45196" lon="6.57509">
        <ele>2569</ele>
        <time>2021-04-08T08:55:10Z</time>
      </trkpt>
      <trkpt lat="44.45197" lon="6.5751">
        <ele>2569</ele>
        <time>2021-04-08T08:55:11Z</time>
      </trkpt>
      <trkpt lat="44.45198" lon="6.57511">
        <ele>2569</ele>
        <time>2021-04-08T08:55:12Z</time>
      </trkpt>
      <trkpt lat="44.45198" lon="6.57513">
        <ele>2569</ele>
        <time>2021-04-08T08:55:13Z</time>
      </trkpt>
      <trkpt lat="44.45198" lon="6.57514">
        <ele>2569</ele>
        <time>2021-04-08T08:55:14Z</time>
      </trkpt>
      <trkpt lat="44.45199" lon="6.57514">
        <ele>2569</ele>
        <time>2021-04-08T08:55:15Z</time>
      </trkpt>
      <trkpt lat="44.45199" lon="6.57514">
        <ele>2569</ele>
        <time>2021-04-08T08:55:16Z</time>
      </trkpt>
      <trkpt lat="44.45199" lon="6.57515">
        <ele>2569</ele>
        <time>2021-04-08T08:55:17Z</time>
      </trkpt>
      <trkpt lat="44.45199" lon="6.57516">
        <ele>2569</ele>
        <time>2021-04-08T08:55:18Z</time>
      </trkpt>
      <trkpt lat="44.45199" lon="6.57517">
        <ele>2569</ele>
        <time>2021-04-08T08:55:19Z</time>
      </trkpt>
      <trkpt lat="44.45199" lon="6.57518">
        <ele>2570</ele>
        <time>2021-04-08T08:55:20Z</time>
      </trkpt>
      <trkpt lat="44.45199" lon="6.57519">
        <ele>2570</ele>
        <time>2021-04-08T08:55:21Z</time>
      </trkpt>
      <trkpt lat="44.45199" lon="6.57519">
        <ele>2570</ele>
        <time>2021-04-08T08:55:22Z</time>
      </trkpt>
      <trkpt lat="44.45199" lon="6.5752">
        <ele>2570</ele>
        <time>2021-04-08T08:55:23Z</time>
      </trkpt>
      <trkpt lat="44.452" lon="6.5752">
        <ele>2570</ele>
        <time>2021-04-08T08:55:24Z</time>
      </trkpt>
      <trkpt lat="44.452" lon="6.57521">
        <ele>2570</ele>
        <time>2021-04-08T08:55:25Z</time>
      </trkpt>
      <trkpt lat="44.452" lon="6.57522">
        <ele>2570</ele>
        <time>2021-04-08T08:55:26Z</time>
      </trkpt>
      <trkpt lat="44.452" lon="6.57523">
        <ele>2570</ele>
        <time>2021-04-08T08:55:27Z</time>
      </trkpt>
      <trkpt lat="44.45201" lon="6.57524">
        <ele>2570</ele>
        <time>2021-04-08T08:55:28Z</time>
      </trkpt>
      <trkpt lat="44.45201" lon="6.57524">
        <ele>2570</ele>
        <time>2021-04-08T08:55:29Z</time>
      </trkpt>
      <trkpt lat="44.45201" lon="6.57525">
        <ele>2570</ele>
        <time>2021-04-08T08:55:30Z</time>
      </trkpt>
      <trkpt lat="44.45202" lon="6.57526">
        <ele>2570</ele>
        <time>2021-04-08T08:55:31Z</time>
      </trkpt>
      <trkpt lat="44.45202" lon="6.57527">
        <ele>2570</ele>
        <time>2021-04-08T08:55:32Z</time>
      </trkpt>
      <trkpt lat="44.45202" lon="6.57528">
        <ele>2570</ele>
        <time>2021-04-08T08:55:33Z</time>
      </trkpt>
      <trkpt lat="44.45202" lon="6.57529">
        <ele>2570</ele>
        <time>2021-04-08T08:55:34Z</time>
      </trkpt>
      <trkpt lat="44.45202" lon="6.5753">
        <ele>2570</ele>
        <time>2021-04-08T08:55:35Z</time>
      </trkpt>
      <trkpt lat="44.45202" lon="6.5753">
        <ele>2571</ele>
        <time>2021-04-08T08:55:36Z</time>
      </trkpt>
      <trkpt lat="44.45203" lon="6.57531">
        <ele>2571</ele>
        <time>2021-04-08T08:55:37Z</time>
      </trkpt>
      <trkpt lat="44.45203" lon="6.57532">
        <ele>2571</ele>
        <time>2021-04-08T08:55:38Z</time>
      </trkpt>
      <trkpt lat="44.45203" lon="6.57532">
        <ele>2571</ele>
        <time>2021-04-08T08:55:39Z</time>
      </trkpt>
      <trkpt lat="44.45203" lon="6.57533">
        <ele>2571</ele>
        <time>2021-04-08T08:55:40Z</time>
      </trkpt>
      <trkpt lat="44.45204" lon="6.57533">
        <ele>2571</ele>
        <time>2021-04-08T08:55:41Z</time>
      </trkpt>
      <trkpt lat="44.45203" lon="6.57535">
        <ele>2571</ele>
        <time>2021-04-08T08:55:42Z</time>
      </trkpt>
      <trkpt lat="44.45203" lon="6.57536">
        <ele>2571</ele>
        <time>2021-04-08T08:55:43Z</time>
      </trkpt>
      <trkpt lat="44.45204" lon="6.57537">
        <ele>2571</ele>
        <time>2021-04-08T08:55:44Z</time>
      </trkpt>
      <trkpt lat="44.45204" lon="6.57537">
        <ele>2571</ele>
        <time>2021-04-08T08:55:45Z</time>
      </trkpt>
      <trkpt lat="44.45204" lon="6.57538">
        <ele>2571</ele>
        <time>2021-04-08T08:55:46Z</time>
      </trkpt>
      <trkpt lat="44.45205" lon="6.57539">
        <ele>2572</ele>
        <time>2021-04-08T08:55:47Z</time>
      </trkpt>
      <trkpt lat="44.45205" lon="6.57539">
        <ele>2572</ele>
        <time>2021-04-08T08:55:48Z</time>
      </trkpt>
      <trkpt lat="44.45205" lon="6.5754">
        <ele>2572</ele>
        <time>2021-04-08T08:55:49Z</time>
      </trkpt>
      <trkpt lat="44.45205" lon="6.5754">
        <ele>2572</ele>
        <time>2021-04-08T08:55:50Z</time>
      </trkpt>
      <trkpt lat="44.45205" lon="6.5754">
        <ele>2572</ele>
        <time>2021-04-08T08:55:51Z</time>
      </trkpt>
      <trkpt lat="44.45205" lon="6.57541">
        <ele>2572</ele>
        <time>2021-04-08T08:55:52Z</time>
      </trkpt>
      <trkpt lat="44.45205" lon="6.57541">
        <ele>2572</ele>
        <time>2021-04-08T08:55:53Z</time>
      </trkpt>
      <trkpt lat="44.45205" lon="6.57541">
        <ele>2572</ele>
        <time>2021-04-08T08:55:54Z</time>
      </trkpt>
      <trkpt lat="44.45205" lon="6.57541">
        <ele>2572</ele>
        <time>2021-04-08T08:55:55Z</time>
      </trkpt>
      <trkpt lat="44.45206" lon="6.57541">
        <ele>2572</ele>
        <time>2021-04-08T08:55:56Z</time>
      </trkpt>
      <trkpt lat="44.45206" lon="6.57542">
        <ele>2572</ele>
        <time>2021-04-08T08:55:57Z</time>
      </trkpt>
      <trkpt lat="44.45206" lon="6.57542">
        <ele>2572</ele>
        <time>2021-04-08T08:55:58Z</time>
      </trkpt>
      <trkpt lat="44.45206" lon="6.57543">
        <ele>2572</ele>
        <time>2021-04-08T08:55:59Z</time>
      </trkpt>
      <trkpt lat="44.45206" lon="6.57544">
        <ele>2572</ele>
        <time>2021-04-08T08:56:00Z</time>
      </trkpt>
      <trkpt lat="44.45207" lon="6.57545">
        <ele>2572</ele>
        <time>2021-04-08T08:56:01Z</time>
      </trkpt>
      <trkpt lat="44.45208" lon="6.57546">
        <ele>2572</ele>
        <time>2021-04-08T08:56:02Z</time>
      </trkpt>
      <trkpt lat="44.45208" lon="6.57547">
        <ele>2573</ele>
        <time>2021-04-08T08:56:03Z</time>
      </trkpt>
      <trkpt lat="44.45208" lon="6.57547">
        <ele>2573</ele>
        <time>2021-04-08T08:56:04Z</time>
      </trkpt>
      <trkpt lat="44.45208" lon="6.57547">
        <ele>2573</ele>
        <time>2021-04-08T08:56:05Z</time>
      </trkpt>
      <trkpt lat="44.45208" lon="6.57547">
        <ele>2573</ele>
        <time>2021-04-08T08:56:06Z</time>
      </trkpt>
      <trkpt lat="44.45208" lon="6.57548">
        <ele>2573</ele>
        <time>2021-04-08T08:56:07Z</time>
      </trkpt>
      <trkpt lat="44.45209" lon="6.57548">
        <ele>2573</ele>
        <time>2021-04-08T08:56:08Z</time>
      </trkpt>
      <trkpt lat="44.45209" lon="6.57547">
        <ele>2573</ele>
        <time>2021-04-08T08:56:09Z</time>
      </trkpt>
      <trkpt lat="44.45209" lon="6.57548">
        <ele>2573</ele>
        <time>2021-04-08T08:56:10Z</time>
      </trkpt>
      <trkpt lat="44.45209" lon="6.57547">
        <ele>2573</ele>
        <time>2021-04-08T08:56:11Z</time>
      </trkpt>
      <trkpt lat="44.45209" lon="6.57547">
        <ele>2573</ele>
        <time>2021-04-08T08:56:12Z</time>
      </trkpt>
      <trkpt lat="44.45209" lon="6.57547">
        <ele>2573</ele>
        <time>2021-04-08T08:56:13Z</time>
      </trkpt>
      <trkpt lat="44.45209" lon="6.57547">
        <ele>2573</ele>
        <time>2021-04-08T08:56:14Z</time>
      </trkpt>
      <trkpt lat="44.45209" lon="6.57547">
        <ele>2573</ele>
        <time>2021-04-08T08:56:15Z</time>
      </trkpt>
      <trkpt lat="44.45209" lon="6.57547">
        <ele>2573</ele>
        <time>2021-04-08T08:56:16Z</time>
      </trkpt>
      <trkpt lat="44.45209" lon="6.57547">
        <ele>2573</ele>
        <time>2021-04-08T08:56:17Z</time>
      </trkpt>
      <trkpt lat="44.45209" lon="6.57547">
        <ele>2573</ele>
        <time>2021-04-08T08:56:18Z</time>
      </trkpt>
      <trkpt lat="44.45209" lon="6.57547">
        <ele>2573</ele>
        <time>2021-04-08T08:56:19Z</time>
      </trkpt>
      <trkpt lat="44.45209" lon="6.57547">
        <ele>2573</ele>
        <time>2021-04-08T08:56:20Z</time>
      </trkpt>
      <trkpt lat="44.45209" lon="6.57547">
        <ele>2573</ele>
        <time>2021-04-08T08:56:21Z</time>
      </trkpt>
      <trkpt lat="44.45209" lon="6.57547">
        <ele>2573</ele>
        <time>2021-04-08T08:56:22Z</time>
      </trkpt>
      <trkpt lat="44.45209" lon="6.57547">
        <ele>2573</ele>
        <time>2021-04-08T08:56:23Z</time>
      </trkpt>
      <trkpt lat="44.45209" lon="6.57547">
        <ele>2573</ele>
        <time>2021-04-08T08:56:24Z</time>
      </trkpt>
      <trkpt lat="44.45209" lon="6.57547">
        <ele>2573</ele>
        <time>2021-04-08T08:56:25Z</time>
      </trkpt>
      <trkpt lat="44.45209" lon="6.57547">
        <ele>2573</ele>
        <time>2021-04-08T08:56:26Z</time>
      </trkpt>
      <trkpt lat="44.45209" lon="6.57547">
        <ele>2573</ele>
        <time>2021-04-08T08:56:27Z</time>
      </trkpt>
      <trkpt lat="44.45209" lon="6.57547">
        <ele>2573</ele>
        <time>2021-04-08T08:56:28Z</time>
      </trkpt>
      <trkpt lat="44.45209" lon="6.57547">
        <ele>2573</ele>
        <time>2021-04-08T08:56:29Z</time>
      </trkpt>
      <trkpt lat="44.45209" lon="6.57547">
        <ele>2573</ele>
        <time>2021-04-08T08:56:30Z</time>
      </trkpt>
      <trkpt lat="44.45209" lon="6.57547">
        <ele>2573</ele>
        <time>2021-04-08T08:56:31Z</time>
      </trkpt>
      <trkpt lat="44.45209" lon="6.57547">
        <ele>2573</ele>
        <time>2021-04-08T08:56:32Z</time>
      </trkpt>
      <trkpt lat="44.45209" lon="6.57547">
        <ele>2573</ele>
        <time>2021-04-08T08:56:33Z</time>
      </trkpt>
      <trkpt lat="44.45209" lon="6.57547">
        <ele>2573</ele>
        <time>2021-04-08T08:56:34Z</time>
      </trkpt>
      <trkpt lat="44.45209" lon="6.57547">
        <ele>2573</ele>
        <time>2021-04-08T08:56:35Z</time>
      </trkpt>
      <trkpt lat="44.45209" lon="6.57547">
        <ele>2573</ele>
        <time>2021-04-08T08:56:36Z</time>
      </trkpt>
      <trkpt lat="44.45209" lon="6.57547">
        <ele>2573</ele>
        <time>2021-04-08T08:56:37Z</time>
      </trkpt>
      <trkpt lat="44.45215" lon="6.57551">
        <ele>2574</ele>
        <time>2021-04-08T08:56:38Z</time>
      </trkpt>
      <trkpt lat="44.45216" lon="6.57551">
        <ele>2574</ele>
        <time>2021-04-08T08:56:39Z</time>
      </trkpt>
      <trkpt lat="44.45217" lon="6.57551">
        <ele>2574</ele>
        <time>2021-04-08T08:56:40Z</time>
      </trkpt>
      <trkpt lat="44.45218" lon="6.57552">
        <ele>2574</ele>
        <time>2021-04-08T08:56:41Z</time>
      </trkpt>
      <trkpt lat="44.45218" lon="6.57552">
        <ele>2575</ele>
        <time>2021-04-08T08:56:42Z</time>
      </trkpt>
      <trkpt lat="44.45219" lon="6.57552">
        <ele>2575</ele>
        <time>2021-04-08T08:56:43Z</time>
      </trkpt>
      <trkpt lat="44.4522" lon="6.57553">
        <ele>2575</ele>
        <time>2021-04-08T08:56:44Z</time>
      </trkpt>
      <trkpt lat="44.4522" lon="6.57553">
        <ele>2575</ele>
        <time>2021-04-08T08:56:45Z</time>
      </trkpt>
      <trkpt lat="44.45221" lon="6.57553">
        <ele>2575</ele>
        <time>2021-04-08T08:56:46Z</time>
      </trkpt>
      <trkpt lat="44.45221" lon="6.57554">
        <ele>2575</ele>
        <time>2021-04-08T08:56:47Z</time>
      </trkpt>
      <trkpt lat="44.45222" lon="6.57554">
        <ele>2575</ele>
        <time>2021-04-08T08:56:48Z</time>
      </trkpt>
      <trkpt lat="44.45222" lon="6.57554">
        <ele>2575</ele>
        <time>2021-04-08T08:56:49Z</time>
      </trkpt>
      <trkpt lat="44.45223" lon="6.57554">
        <ele>2576</ele>
        <time>2021-04-08T08:56:50Z</time>
      </trkpt>
      <trkpt lat="44.45224" lon="6.57555">
        <ele>2576</ele>
        <time>2021-04-08T08:56:51Z</time>
      </trkpt>
      <trkpt lat="44.45225" lon="6.57555">
        <ele>2576</ele>
        <time>2021-04-08T08:56:52Z</time>
      </trkpt>
      <trkpt lat="44.45226" lon="6.57555">
        <ele>2576</ele>
        <time>2021-04-08T08:56:53Z</time>
      </trkpt>
      <trkpt lat="44.45227" lon="6.57555">
        <ele>2576</ele>
        <time>2021-04-08T08:56:54Z</time>
      </trkpt>
      <trkpt lat="44.45227" lon="6.57555">
        <ele>2576</ele>
        <time>2021-04-08T08:56:55Z</time>
      </trkpt>
      <trkpt lat="44.45228" lon="6.57555">
        <ele>2576</ele>
        <time>2021-04-08T08:56:56Z</time>
      </trkpt>
      <trkpt lat="44.45229" lon="6.57555">
        <ele>2577</ele>
        <time>2021-04-08T08:56:57Z</time>
      </trkpt>
      <trkpt lat="44.4523" lon="6.57555">
        <ele>2577</ele>
        <time>2021-04-08T08:56:58Z</time>
      </trkpt>
      <trkpt lat="44.4523" lon="6.57555">
        <ele>2577</ele>
        <time>2021-04-08T08:56:59Z</time>
      </trkpt>
      <trkpt lat="44.4523" lon="6.57556">
        <ele>2577</ele>
        <time>2021-04-08T08:57:00Z</time>
      </trkpt>
      <trkpt lat="44.45231" lon="6.57556">
        <ele>2577</ele>
        <time>2021-04-08T08:57:01Z</time>
      </trkpt>
      <trkpt lat="44.45231" lon="6.57556">
        <ele>2577</ele>
        <time>2021-04-08T08:57:02Z</time>
      </trkpt>
      <trkpt lat="44.45232" lon="6.57556">
        <ele>2578</ele>
        <time>2021-04-08T08:57:03Z</time>
      </trkpt>
      <trkpt lat="44.45233" lon="6.57556">
        <ele>2578</ele>
        <time>2021-04-08T08:57:04Z</time>
      </trkpt>
      <trkpt lat="44.45233" lon="6.57556">
        <ele>2578</ele>
        <time>2021-04-08T08:57:05Z</time>
      </trkpt>
      <trkpt lat="44.45233" lon="6.57556">
        <ele>2579</ele>
        <time>2021-04-08T08:57:06Z</time>
      </trkpt>
      <trkpt lat="44.45233" lon="6.57556">
        <ele>2579</ele>
        <time>2021-04-08T08:57:07Z</time>
      </trkpt>
      <trkpt lat="44.45234" lon="6.57556">
        <ele>2579</ele>
        <time>2021-04-08T08:57:08Z</time>
      </trkpt>
      <trkpt lat="44.45235" lon="6.57556">
        <ele>2579</ele>
        <time>2021-04-08T08:57:09Z</time>
      </trkpt>
      <trkpt lat="44.45235" lon="6.57556">
        <ele>2579</ele>
        <time>2021-04-08T08:57:10Z</time>
      </trkpt>
      <trkpt lat="44.45236" lon="6.57556">
        <ele>2579</ele>
        <time>2021-04-08T08:57:11Z</time>
      </trkpt>
      <trkpt lat="44.45236" lon="6.57556">
        <ele>2580</ele>
        <time>2021-04-08T08:57:12Z</time>
      </trkpt>
      <trkpt lat="44.45237" lon="6.57557">
        <ele>2580</ele>
        <time>2021-04-08T08:57:13Z</time>
      </trkpt>
      <trkpt lat="44.45238" lon="6.57556">
        <ele>2580</ele>
        <time>2021-04-08T08:57:14Z</time>
      </trkpt>
      <trkpt lat="44.45238" lon="6.57556">
        <ele>2580</ele>
        <time>2021-04-08T08:57:15Z</time>
      </trkpt>
      <trkpt lat="44.45239" lon="6.57557">
        <ele>2580</ele>
        <time>2021-04-08T08:57:16Z</time>
      </trkpt>
      <trkpt lat="44.4524" lon="6.57557">
        <ele>2581</ele>
        <time>2021-04-08T08:57:17Z</time>
      </trkpt>
      <trkpt lat="44.4524" lon="6.57557">
        <ele>2581</ele>
        <time>2021-04-08T08:57:18Z</time>
      </trkpt>
      <trkpt lat="44.45241" lon="6.57558">
        <ele>2581</ele>
        <time>2021-04-08T08:57:19Z</time>
      </trkpt>
      <trkpt lat="44.45241" lon="6.57557">
        <ele>2581</ele>
        <time>2021-04-08T08:57:20Z</time>
      </trkpt>
      <trkpt lat="44.45242" lon="6.57557">
        <ele>2581</ele>
        <time>2021-04-08T08:57:21Z</time>
      </trkpt>
      <trkpt lat="44.45242" lon="6.57557">
        <ele>2581</ele>
        <time>2021-04-08T08:57:22Z</time>
      </trkpt>
      <trkpt lat="44.45243" lon="6.57557">
        <ele>2581</ele>
        <time>2021-04-08T08:57:23Z</time>
      </trkpt>
      <trkpt lat="44.45243" lon="6.57557">
        <ele>2582</ele>
        <time>2021-04-08T08:57:24Z</time>
      </trkpt>
      <trkpt lat="44.45244" lon="6.57557">
        <ele>2582</ele>
        <time>2021-04-08T08:57:25Z</time>
      </trkpt>
      <trkpt lat="44.45244" lon="6.57557">
        <ele>2582</ele>
        <time>2021-04-08T08:57:26Z</time>
      </trkpt>
      <trkpt lat="44.45244" lon="6.57557">
        <ele>2582</ele>
        <time>2021-04-08T08:57:27Z</time>
      </trkpt>
      <trkpt lat="44.45245" lon="6.57557">
        <ele>2582</ele>
        <time>2021-04-08T08:57:28Z</time>
      </trkpt>
      <trkpt lat="44.45245" lon="6.57556">
        <ele>2582</ele>
        <time>2021-04-08T08:57:29Z</time>
      </trkpt>
      <trkpt lat="44.45246" lon="6.57557">
        <ele>2582</ele>
        <time>2021-04-08T08:57:30Z</time>
      </trkpt>
      <trkpt lat="44.45247" lon="6.57556">
        <ele>2583</ele>
        <time>2021-04-08T08:57:31Z</time>
      </trkpt>
      <trkpt lat="44.45248" lon="6.57557">
        <ele>2583</ele>
        <time>2021-04-08T08:57:32Z</time>
      </trkpt>
      <trkpt lat="44.45248" lon="6.57557">
        <ele>2583</ele>
        <time>2021-04-08T08:57:33Z</time>
      </trkpt>
      <trkpt lat="44.45249" lon="6.57557">
        <ele>2583</ele>
        <time>2021-04-08T08:57:34Z</time>
      </trkpt>
      <trkpt lat="44.4525" lon="6.57557">
        <ele>2584</ele>
        <time>2021-04-08T08:57:35Z</time>
      </trkpt>
      <trkpt lat="44.45251" lon="6.57557">
        <ele>2584</ele>
        <time>2021-04-08T08:57:36Z</time>
      </trkpt>
      <trkpt lat="44.45252" lon="6.57557">
        <ele>2584</ele>
        <time>2021-04-08T08:57:37Z</time>
      </trkpt>
      <trkpt lat="44.45252" lon="6.57557">
        <ele>2584</ele>
        <time>2021-04-08T08:57:38Z</time>
      </trkpt>
      <trkpt lat="44.45253" lon="6.57557">
        <ele>2585</ele>
        <time>2021-04-08T08:57:39Z</time>
      </trkpt>
      <trkpt lat="44.45254" lon="6.57558">
        <ele>2585</ele>
        <time>2021-04-08T08:57:40Z</time>
      </trkpt>
      <trkpt lat="44.45255" lon="6.57558">
        <ele>2585</ele>
        <time>2021-04-08T08:57:41Z</time>
      </trkpt>
      <trkpt lat="44.45256" lon="6.57558">
        <ele>2585</ele>
        <time>2021-04-08T08:57:42Z</time>
      </trkpt>
      <trkpt lat="44.45257" lon="6.57558">
        <ele>2585</ele>
        <time>2021-04-08T08:57:43Z</time>
      </trkpt>
      <trkpt lat="44.45258" lon="6.57558">
        <ele>2586</ele>
        <time>2021-04-08T08:57:44Z</time>
      </trkpt>
      <trkpt lat="44.45258" lon="6.57558">
        <ele>2586</ele>
        <time>2021-04-08T08:57:45Z</time>
      </trkpt>
      <trkpt lat="44.45259" lon="6.57558">
        <ele>2586</ele>
        <time>2021-04-08T08:57:46Z</time>
      </trkpt>
      <trkpt lat="44.4526" lon="6.57558">
        <ele>2586</ele>
        <time>2021-04-08T08:57:47Z</time>
      </trkpt>
      <trkpt lat="44.45261" lon="6.57558">
        <ele>2587</ele>
        <time>2021-04-08T08:57:48Z</time>
      </trkpt>
      <trkpt lat="44.45262" lon="6.57558">
        <ele>2587</ele>
        <time>2021-04-08T08:57:49Z</time>
      </trkpt>
      <trkpt lat="44.45262" lon="6.57557">
        <ele>2587</ele>
        <time>2021-04-08T08:57:50Z</time>
      </trkpt>
      <trkpt lat="44.45262" lon="6.57557">
        <ele>2587</ele>
        <time>2021-04-08T08:57:51Z</time>
      </trkpt>
      <trkpt lat="44.45263" lon="6.57557">
        <ele>2587</ele>
        <time>2021-04-08T08:57:52Z</time>
      </trkpt>
      <trkpt lat="44.45263" lon="6.57558">
        <ele>2587</ele>
        <time>2021-04-08T08:57:53Z</time>
      </trkpt>
      <trkpt lat="44.45263" lon="6.57558">
        <ele>2587</ele>
        <time>2021-04-08T08:57:54Z</time>
      </trkpt>
      <trkpt lat="44.45263" lon="6.57557">
        <ele>2587</ele>
        <time>2021-04-08T08:57:55Z</time>
      </trkpt>
      <trkpt lat="44.45264" lon="6.57557">
        <ele>2588</ele>
        <time>2021-04-08T08:57:56Z</time>
      </trkpt>
      <trkpt lat="44.45264" lon="6.57557">
        <ele>2588</ele>
        <time>2021-04-08T08:57:57Z</time>
      </trkpt>
      <trkpt lat="44.45264" lon="6.57556">
        <ele>2588</ele>
        <time>2021-04-08T08:57:58Z</time>
      </trkpt>
      <trkpt lat="44.45265" lon="6.57556">
        <ele>2588</ele>
        <time>2021-04-08T08:57:59Z</time>
      </trkpt>
      <trkpt lat="44.45265" lon="6.57556">
        <ele>2588</ele>
        <time>2021-04-08T08:58:00Z</time>
      </trkpt>
      <trkpt lat="44.45266" lon="6.57556">
        <ele>2589</ele>
        <time>2021-04-08T08:58:01Z</time>
      </trkpt>
      <trkpt lat="44.45267" lon="6.57556">
        <ele>2589</ele>
        <time>2021-04-08T08:58:02Z</time>
      </trkpt>
      <trkpt lat="44.45268" lon="6.57556">
        <ele>2589</ele>
        <time>2021-04-08T08:58:03Z</time>
      </trkpt>
      <trkpt lat="44.45268" lon="6.57556">
        <ele>2589</ele>
        <time>2021-04-08T08:58:04Z</time>
      </trkpt>
      <trkpt lat="44.45269" lon="6.57557">
        <ele>2589</ele>
        <time>2021-04-08T08:58:05Z</time>
      </trkpt>
      <trkpt lat="44.45269" lon="6.57557">
        <ele>2589</ele>
        <time>2021-04-08T08:58:06Z</time>
      </trkpt>
      <trkpt lat="44.45269" lon="6.57557">
        <ele>2590</ele>
        <time>2021-04-08T08:58:07Z</time>
      </trkpt>
      <trkpt lat="44.45269" lon="6.57557">
        <ele>2590</ele>
        <time>2021-04-08T08:58:08Z</time>
      </trkpt>
      <trkpt lat="44.45269" lon="6.57557">
        <ele>2590</ele>
        <time>2021-04-08T08:58:09Z</time>
      </trkpt>
      <trkpt lat="44.4527" lon="6.57557">
        <ele>2590</ele>
        <time>2021-04-08T08:58:10Z</time>
      </trkpt>
      <trkpt lat="44.4527" lon="6.57557">
        <ele>2590</ele>
        <time>2021-04-08T08:58:11Z</time>
      </trkpt>
      <trkpt lat="44.45271" lon="6.57558">
        <ele>2590</ele>
        <time>2021-04-08T08:58:12Z</time>
      </trkpt>
      <trkpt lat="44.45271" lon="6.57558">
        <ele>2590</ele>
        <time>2021-04-08T08:58:13Z</time>
      </trkpt>
      <trkpt lat="44.45271" lon="6.57559">
        <ele>2590</ele>
        <time>2021-04-08T08:58:14Z</time>
      </trkpt>
      <trkpt lat="44.4527" lon="6.5756">
        <ele>2591</ele>
        <time>2021-04-08T08:58:15Z</time>
      </trkpt>
      <trkpt lat="44.4527" lon="6.5756">
        <ele>2591</ele>
        <time>2021-04-08T08:58:16Z</time>
      </trkpt>
      <trkpt lat="44.45269" lon="6.57561">
        <ele>2591</ele>
        <time>2021-04-08T08:58:17Z</time>
      </trkpt>
      <trkpt lat="44.45269" lon="6.57562">
        <ele>2591</ele>
        <time>2021-04-08T08:58:18Z</time>
      </trkpt>
      <trkpt lat="44.45268" lon="6.57562">
        <ele>2591</ele>
        <time>2021-04-08T08:58:19Z</time>
      </trkpt>
      <trkpt lat="44.45268" lon="6.57563">
        <ele>2591</ele>
        <time>2021-04-08T08:58:20Z</time>
      </trkpt>
      <trkpt lat="44.45267" lon="6.57564">
        <ele>2591</ele>
        <time>2021-04-08T08:58:21Z</time>
      </trkpt>
      <trkpt lat="44.45267" lon="6.57564">
        <ele>2591</ele>
        <time>2021-04-08T08:58:22Z</time>
      </trkpt>
      <trkpt lat="44.45266" lon="6.57565">
        <ele>2592</ele>
        <time>2021-04-08T08:58:23Z</time>
      </trkpt>
      <trkpt lat="44.45266" lon="6.57565">
        <ele>2592</ele>
        <time>2021-04-08T08:58:24Z</time>
      </trkpt>
      <trkpt lat="44.45266" lon="6.57566">
        <ele>2592</ele>
        <time>2021-04-08T08:58:25Z</time>
      </trkpt>
      <trkpt lat="44.45266" lon="6.57566">
        <ele>2592</ele>
        <time>2021-04-08T08:58:26Z</time>
      </trkpt>
      <trkpt lat="44.45266" lon="6.57567">
        <ele>2592</ele>
        <time>2021-04-08T08:58:27Z</time>
      </trkpt>
      <trkpt lat="44.45265" lon="6.57567">
        <ele>2592</ele>
        <time>2021-04-08T08:58:28Z</time>
      </trkpt>
      <trkpt lat="44.45265" lon="6.57568">
        <ele>2592</ele>
        <time>2021-04-08T08:58:29Z</time>
      </trkpt>
      <trkpt lat="44.45265" lon="6.57569">
        <ele>2593</ele>
        <time>2021-04-08T08:58:30Z</time>
      </trkpt>
      <trkpt lat="44.45265" lon="6.5757">
        <ele>2593</ele>
        <time>2021-04-08T08:58:31Z</time>
      </trkpt>
      <trkpt lat="44.45265" lon="6.5757">
        <ele>2593</ele>
        <time>2021-04-08T08:58:32Z</time>
      </trkpt>
      <trkpt lat="44.45265" lon="6.5757">
        <ele>2593</ele>
        <time>2021-04-08T08:58:33Z</time>
      </trkpt>
      <trkpt lat="44.45265" lon="6.5757">
        <ele>2593</ele>
        <time>2021-04-08T08:58:34Z</time>
      </trkpt>
      <trkpt lat="44.45265" lon="6.57571">
        <ele>2594</ele>
        <time>2021-04-08T08:58:35Z</time>
      </trkpt>
      <trkpt lat="44.45264" lon="6.57572">
        <ele>2594</ele>
        <time>2021-04-08T08:58:36Z</time>
      </trkpt>
      <trkpt lat="44.45264" lon="6.57572">
        <ele>2594</ele>
        <time>2021-04-08T08:58:37Z</time>
      </trkpt>
      <trkpt lat="44.45264" lon="6.57573">
        <ele>2594</ele>
        <time>2021-04-08T08:58:38Z</time>
      </trkpt>
      <trkpt lat="44.45264" lon="6.57574">
        <ele>2594</ele>
        <time>2021-04-08T08:58:39Z</time>
      </trkpt>
      <trkpt lat="44.45264" lon="6.57574">
        <ele>2594</ele>
        <time>2021-04-08T08:58:40Z</time>
      </trkpt>
      <trkpt lat="44.45264" lon="6.57574">
        <ele>2595</ele>
        <time>2021-04-08T08:58:41Z</time>
      </trkpt>
      <trkpt lat="44.45264" lon="6.57573">
        <ele>2595</ele>
        <time>2021-04-08T08:58:42Z</time>
      </trkpt>
      <trkpt lat="44.45264" lon="6.57573">
        <ele>2595</ele>
        <time>2021-04-08T08:58:43Z</time>
      </trkpt>
      <trkpt lat="44.45264" lon="6.57573">
        <ele>2595</ele>
        <time>2021-04-08T08:58:44Z</time>
      </trkpt>
      <trkpt lat="44.45264" lon="6.57573">
        <ele>2595</ele>
        <time>2021-04-08T08:58:45Z</time>
      </trkpt>
      <trkpt lat="44.45264" lon="6.57573">
        <ele>2595</ele>
        <time>2021-04-08T08:58:46Z</time>
      </trkpt>
      <trkpt lat="44.45264" lon="6.57573">
        <ele>2595</ele>
        <time>2021-04-08T08:58:47Z</time>
      </trkpt>
      <trkpt lat="44.45264" lon="6.57573">
        <ele>2595</ele>
        <time>2021-04-08T08:58:48Z</time>
      </trkpt>
      <trkpt lat="44.45264" lon="6.57573">
        <ele>2595</ele>
        <time>2021-04-08T08:58:49Z</time>
      </trkpt>
      <trkpt lat="44.45264" lon="6.57573">
        <ele>2595</ele>
        <time>2021-04-08T08:58:50Z</time>
      </trkpt>
      <trkpt lat="44.45264" lon="6.57573">
        <ele>2595</ele>
        <time>2021-04-08T08:58:51Z</time>
      </trkpt>
      <trkpt lat="44.45264" lon="6.57573">
        <ele>2595</ele>
        <time>2021-04-08T08:58:52Z</time>
      </trkpt>
      <trkpt lat="44.45264" lon="6.57573">
        <ele>2595</ele>
        <time>2021-04-08T08:58:53Z</time>
      </trkpt>
      <trkpt lat="44.45264" lon="6.57573">
        <ele>2595</ele>
        <time>2021-04-08T08:58:54Z</time>
      </trkpt>
      <trkpt lat="44.45264" lon="6.57573">
        <ele>2595</ele>
        <time>2021-04-08T08:58:55Z</time>
      </trkpt>
      <trkpt lat="44.45264" lon="6.57573">
        <ele>2595</ele>
        <time>2021-04-08T08:58:56Z</time>
      </trkpt>
      <trkpt lat="44.45264" lon="6.57573">
        <ele>2595</ele>
        <time>2021-04-08T08:58:57Z</time>
      </trkpt>
      <trkpt lat="44.45264" lon="6.57573">
        <ele>2595</ele>
        <time>2021-04-08T08:58:58Z</time>
      </trkpt>
      <trkpt lat="44.45265" lon="6.57575">
        <ele>2595</ele>
        <time>2021-04-08T08:58:59Z</time>
      </trkpt>
      <trkpt lat="44.45264" lon="6.57576">
        <ele>2595</ele>
        <time>2021-04-08T08:59:00Z</time>
      </trkpt>
      <trkpt lat="44.45264" lon="6.57577">
        <ele>2595</ele>
        <time>2021-04-08T08:59:01Z</time>
      </trkpt>
      <trkpt lat="44.45264" lon="6.57577">
        <ele>2595</ele>
        <time>2021-04-08T08:59:02Z</time>
      </trkpt>
      <trkpt lat="44.45264" lon="6.57578">
        <ele>2596</ele>
        <time>2021-04-08T08:59:03Z</time>
      </trkpt>
      <trkpt lat="44.45263" lon="6.57578">
        <ele>2596</ele>
        <time>2021-04-08T08:59:04Z</time>
      </trkpt>
      <trkpt lat="44.45263" lon="6.57579">
        <ele>2596</ele>
        <time>2021-04-08T08:59:05Z</time>
      </trkpt>
      <trkpt lat="44.45263" lon="6.5758">
        <ele>2596</ele>
        <time>2021-04-08T08:59:06Z</time>
      </trkpt>
      <trkpt lat="44.45262" lon="6.57581">
        <ele>2597</ele>
        <time>2021-04-08T08:59:07Z</time>
      </trkpt>
      <trkpt lat="44.45261" lon="6.57582">
        <ele>2597</ele>
        <time>2021-04-08T08:59:08Z</time>
      </trkpt>
      <trkpt lat="44.45261" lon="6.57583">
        <ele>2597</ele>
        <time>2021-04-08T08:59:09Z</time>
      </trkpt>
      <trkpt lat="44.4526" lon="6.57584">
        <ele>2597</ele>
        <time>2021-04-08T08:59:10Z</time>
      </trkpt>
      <trkpt lat="44.4526" lon="6.57585">
        <ele>2597</ele>
        <time>2021-04-08T08:59:11Z</time>
      </trkpt>
      <trkpt lat="44.4526" lon="6.57586">
        <ele>2598</ele>
        <time>2021-04-08T08:59:12Z</time>
      </trkpt>
      <trkpt lat="44.4526" lon="6.57587">
        <ele>2598</ele>
        <time>2021-04-08T08:59:13Z</time>
      </trkpt>
      <trkpt lat="44.45259" lon="6.57588">
        <ele>2598</ele>
        <time>2021-04-08T08:59:14Z</time>
      </trkpt>
      <trkpt lat="44.45258" lon="6.57589">
        <ele>2598</ele>
        <time>2021-04-08T08:59:15Z</time>
      </trkpt>
      <trkpt lat="44.45257" lon="6.5759">
        <ele>2598</ele>
        <time>2021-04-08T08:59:16Z</time>
      </trkpt>
      <trkpt lat="44.45257" lon="6.57591">
        <ele>2599</ele>
        <time>2021-04-08T08:59:17Z</time>
      </trkpt>
      <trkpt lat="44.45256" lon="6.57592">
        <ele>2599</ele>
        <time>2021-04-08T08:59:18Z</time>
      </trkpt>
      <trkpt lat="44.45256" lon="6.57592">
        <ele>2599</ele>
        <time>2021-04-08T08:59:19Z</time>
      </trkpt>
      <trkpt lat="44.45256" lon="6.57592">
        <ele>2599</ele>
        <time>2021-04-08T08:59:20Z</time>
      </trkpt>
      <trkpt lat="44.45256" lon="6.57593">
        <ele>2599</ele>
        <time>2021-04-08T08:59:21Z</time>
      </trkpt>
      <trkpt lat="44.45256" lon="6.57593">
        <ele>2599</ele>
        <time>2021-04-08T08:59:22Z</time>
      </trkpt>
      <trkpt lat="44.45256" lon="6.57594">
        <ele>2600</ele>
        <time>2021-04-08T08:59:23Z</time>
      </trkpt>
      <trkpt lat="44.45255" lon="6.57594">
        <ele>2600</ele>
        <time>2021-04-08T08:59:24Z</time>
      </trkpt>
      <trkpt lat="44.45255" lon="6.57595">
        <ele>2600</ele>
        <time>2021-04-08T08:59:25Z</time>
      </trkpt>
      <trkpt lat="44.45255" lon="6.57596">
        <ele>2600</ele>
        <time>2021-04-08T08:59:26Z</time>
      </trkpt>
      <trkpt lat="44.45254" lon="6.57597">
        <ele>2600</ele>
        <time>2021-04-08T08:59:27Z</time>
      </trkpt>
      <trkpt lat="44.45254" lon="6.57597">
        <ele>2600</ele>
        <time>2021-04-08T08:59:28Z</time>
      </trkpt>
      <trkpt lat="44.45253" lon="6.57598">
        <ele>2600</ele>
        <time>2021-04-08T08:59:29Z</time>
      </trkpt>
      <trkpt lat="44.45253" lon="6.57599">
        <ele>2601</ele>
        <time>2021-04-08T08:59:30Z</time>
      </trkpt>
      <trkpt lat="44.45253" lon="6.576">
        <ele>2601</ele>
        <time>2021-04-08T08:59:31Z</time>
      </trkpt>
      <trkpt lat="44.45253" lon="6.576">
        <ele>2601</ele>
        <time>2021-04-08T08:59:32Z</time>
      </trkpt>
      <trkpt lat="44.45253" lon="6.576">
        <ele>2601</ele>
        <time>2021-04-08T08:59:33Z</time>
      </trkpt>
      <trkpt lat="44.45253" lon="6.57601">
        <ele>2601</ele>
        <time>2021-04-08T08:59:34Z</time>
      </trkpt>
      <trkpt lat="44.45252" lon="6.57601">
        <ele>2602</ele>
        <time>2021-04-08T08:59:35Z</time>
      </trkpt>
      <trkpt lat="44.45252" lon="6.57602">
        <ele>2602</ele>
        <time>2021-04-08T08:59:36Z</time>
      </trkpt>
      <trkpt lat="44.45252" lon="6.57602">
        <ele>2602</ele>
        <time>2021-04-08T08:59:37Z</time>
      </trkpt>
      <trkpt lat="44.45251" lon="6.57603">
        <ele>2602</ele>
        <time>2021-04-08T08:59:38Z</time>
      </trkpt>
      <trkpt lat="44.45251" lon="6.57604">
        <ele>2602</ele>
        <time>2021-04-08T08:59:39Z</time>
      </trkpt>
      <trkpt lat="44.45251" lon="6.57604">
        <ele>2603</ele>
        <time>2021-04-08T08:59:40Z</time>
      </trkpt>
      <trkpt lat="44.4525" lon="6.57604">
        <ele>2603</ele>
        <time>2021-04-08T08:59:41Z</time>
      </trkpt>
      <trkpt lat="44.4525" lon="6.57605">
        <ele>2603</ele>
        <time>2021-04-08T08:59:42Z</time>
      </trkpt>
      <trkpt lat="44.45249" lon="6.57606">
        <ele>2604</ele>
        <time>2021-04-08T08:59:43Z</time>
      </trkpt>
      <trkpt lat="44.45249" lon="6.57607">
        <ele>2604</ele>
        <time>2021-04-08T08:59:44Z</time>
      </trkpt>
      <trkpt lat="44.45249" lon="6.57607">
        <ele>2604</ele>
        <time>2021-04-08T08:59:45Z</time>
      </trkpt>
      <trkpt lat="44.45249" lon="6.57608">
        <ele>2604</ele>
        <time>2021-04-08T08:59:46Z</time>
      </trkpt>
      <trkpt lat="44.45249" lon="6.57609">
        <ele>2604</ele>
        <time>2021-04-08T08:59:47Z</time>
      </trkpt>
      <trkpt lat="44.45248" lon="6.57609">
        <ele>2605</ele>
        <time>2021-04-08T08:59:48Z</time>
      </trkpt>
      <trkpt lat="44.45248" lon="6.5761">
        <ele>2605</ele>
        <time>2021-04-08T08:59:49Z</time>
      </trkpt>
      <trkpt lat="44.45248" lon="6.5761">
        <ele>2605</ele>
        <time>2021-04-08T08:59:50Z</time>
      </trkpt>
      <trkpt lat="44.45248" lon="6.57611">
        <ele>2605</ele>
        <time>2021-04-08T08:59:51Z</time>
      </trkpt>
      <trkpt lat="44.45247" lon="6.57611">
        <ele>2605</ele>
        <time>2021-04-08T08:59:52Z</time>
      </trkpt>
      <trkpt lat="44.45247" lon="6.57612">
        <ele>2605</ele>
        <time>2021-04-08T08:59:53Z</time>
      </trkpt>
      <trkpt lat="44.45247" lon="6.57612">
        <ele>2606</ele>
        <time>2021-04-08T08:59:54Z</time>
      </trkpt>
      <trkpt lat="44.45247" lon="6.57613">
        <ele>2606</ele>
        <time>2021-04-08T08:59:55Z</time>
      </trkpt>
      <trkpt lat="44.45247" lon="6.57614">
        <ele>2607</ele>
        <time>2021-04-08T08:59:56Z</time>
      </trkpt>
      <trkpt lat="44.45247" lon="6.57615">
        <ele>2607</ele>
        <time>2021-04-08T08:59:57Z</time>
      </trkpt>
      <trkpt lat="44.45246" lon="6.57615">
        <ele>2607</ele>
        <time>2021-04-08T08:59:58Z</time>
      </trkpt>
      <trkpt lat="44.45245" lon="6.57616">
        <ele>2607</ele>
        <time>2021-04-08T08:59:59Z</time>
      </trkpt>
      <trkpt lat="44.45245" lon="6.57617">
        <ele>2607</ele>
        <time>2021-04-08T09:00:00Z</time>
      </trkpt>
      <trkpt lat="44.45244" lon="6.57618">
        <ele>2608</ele>
        <time>2021-04-08T09:00:01Z</time>
      </trkpt>
      <trkpt lat="44.45244" lon="6.57618">
        <ele>2608</ele>
        <time>2021-04-08T09:00:02Z</time>
      </trkpt>
      <trkpt lat="44.45243" lon="6.57619">
        <ele>2608</ele>
        <time>2021-04-08T09:00:03Z</time>
      </trkpt>
      <trkpt lat="44.45243" lon="6.5762">
        <ele>2608</ele>
        <time>2021-04-08T09:00:04Z</time>
      </trkpt>
      <trkpt lat="44.45243" lon="6.57621">
        <ele>2608</ele>
        <time>2021-04-08T09:00:05Z</time>
      </trkpt>
      <trkpt lat="44.45243" lon="6.57621">
        <ele>2609</ele>
        <time>2021-04-08T09:00:06Z</time>
      </trkpt>
      <trkpt lat="44.45243" lon="6.57622">
        <ele>2609</ele>
        <time>2021-04-08T09:00:07Z</time>
      </trkpt>
      <trkpt lat="44.45243" lon="6.57622">
        <ele>2609</ele>
        <time>2021-04-08T09:00:08Z</time>
      </trkpt>
      <trkpt lat="44.45244" lon="6.57621">
        <ele>2609</ele>
        <time>2021-04-08T09:00:09Z</time>
      </trkpt>
      <trkpt lat="44.45244" lon="6.57621">
        <ele>2609</ele>
        <time>2021-04-08T09:00:10Z</time>
      </trkpt>
      <trkpt lat="44.45244" lon="6.57622">
        <ele>2609</ele>
        <time>2021-04-08T09:00:11Z</time>
      </trkpt>
      <trkpt lat="44.45245" lon="6.57623">
        <ele>2609</ele>
        <time>2021-04-08T09:00:12Z</time>
      </trkpt>
      <trkpt lat="44.45246" lon="6.57623">
        <ele>2610</ele>
        <time>2021-04-08T09:00:13Z</time>
      </trkpt>
      <trkpt lat="44.45247" lon="6.57624">
        <ele>2610</ele>
        <time>2021-04-08T09:00:14Z</time>
      </trkpt>
      <trkpt lat="44.45248" lon="6.57624">
        <ele>2610</ele>
        <time>2021-04-08T09:00:15Z</time>
      </trkpt>
      <trkpt lat="44.45249" lon="6.57625">
        <ele>2610</ele>
        <time>2021-04-08T09:00:16Z</time>
      </trkpt>
      <trkpt lat="44.4525" lon="6.57625">
        <ele>2611</ele>
        <time>2021-04-08T09:00:17Z</time>
      </trkpt>
      <trkpt lat="44.45251" lon="6.57625">
        <ele>2611</ele>
        <time>2021-04-08T09:00:18Z</time>
      </trkpt>
      <trkpt lat="44.45251" lon="6.57625">
        <ele>2611</ele>
        <time>2021-04-08T09:00:19Z</time>
      </trkpt>
      <trkpt lat="44.45252" lon="6.57626">
        <ele>2611</ele>
        <time>2021-04-08T09:00:20Z</time>
      </trkpt>
      <trkpt lat="44.45253" lon="6.57627">
        <ele>2611</ele>
        <time>2021-04-08T09:00:21Z</time>
      </trkpt>
      <trkpt lat="44.45253" lon="6.57627">
        <ele>2611</ele>
        <time>2021-04-08T09:00:22Z</time>
      </trkpt>
      <trkpt lat="44.45253" lon="6.57628">
        <ele>2611</ele>
        <time>2021-04-08T09:00:23Z</time>
      </trkpt>
      <trkpt lat="44.45253" lon="6.57628">
        <ele>2611</ele>
        <time>2021-04-08T09:00:24Z</time>
      </trkpt>
      <trkpt lat="44.45253" lon="6.57628">
        <ele>2610</ele>
        <time>2021-04-08T09:00:25Z</time>
      </trkpt>
      <trkpt lat="44.45254" lon="6.57628">
        <ele>2610</ele>
        <time>2021-04-08T09:00:26Z</time>
      </trkpt>
      <trkpt lat="44.45254" lon="6.57628">
        <ele>2610</ele>
        <time>2021-04-08T09:00:27Z</time>
      </trkpt>
      <trkpt lat="44.45254" lon="6.57629">
        <ele>2610</ele>
        <time>2021-04-08T09:00:28Z</time>
      </trkpt>
      <trkpt lat="44.45255" lon="6.57629">
        <ele>2610</ele>
        <time>2021-04-08T09:00:29Z</time>
      </trkpt>
      <trkpt lat="44.45255" lon="6.5763">
        <ele>2610</ele>
        <time>2021-04-08T09:00:30Z</time>
      </trkpt>
      <trkpt lat="44.45255" lon="6.5763">
        <ele>2610</ele>
        <time>2021-04-08T09:00:31Z</time>
      </trkpt>
      <trkpt lat="44.45255" lon="6.57631">
        <ele>2610</ele>
        <time>2021-04-08T09:00:32Z</time>
      </trkpt>
      <trkpt lat="44.45256" lon="6.57631">
        <ele>2610</ele>
        <time>2021-04-08T09:00:33Z</time>
      </trkpt>
      <trkpt lat="44.45256" lon="6.57631">
        <ele>2610</ele>
        <time>2021-04-08T09:00:34Z</time>
      </trkpt>
      <trkpt lat="44.45257" lon="6.57631">
        <ele>2610</ele>
        <time>2021-04-08T09:00:35Z</time>
      </trkpt>
      <trkpt lat="44.45257" lon="6.57632">
        <ele>2610</ele>
        <time>2021-04-08T09:00:36Z</time>
      </trkpt>
      <trkpt lat="44.45258" lon="6.57632">
        <ele>2610</ele>
        <time>2021-04-08T09:00:37Z</time>
      </trkpt>
      <trkpt lat="44.45258" lon="6.57633">
        <ele>2610</ele>
        <time>2021-04-08T09:00:38Z</time>
      </trkpt>
      <trkpt lat="44.45259" lon="6.57633">
        <ele>2610</ele>
        <time>2021-04-08T09:00:39Z</time>
      </trkpt>
      <trkpt lat="44.4526" lon="6.57633">
        <ele>2610</ele>
        <time>2021-04-08T09:00:40Z</time>
      </trkpt>
      <trkpt lat="44.45261" lon="6.57633">
        <ele>2610</ele>
        <time>2021-04-08T09:00:41Z</time>
      </trkpt>
      <trkpt lat="44.45262" lon="6.57634">
        <ele>2609</ele>
        <time>2021-04-08T09:00:42Z</time>
      </trkpt>
      <trkpt lat="44.45262" lon="6.57634">
        <ele>2609</ele>
        <time>2021-04-08T09:00:43Z</time>
      </trkpt>
      <trkpt lat="44.45263" lon="6.57634">
        <ele>2609</ele>
        <time>2021-04-08T09:00:44Z</time>
      </trkpt>
      <trkpt lat="44.45264" lon="6.57634">
        <ele>2609</ele>
        <time>2021-04-08T09:00:45Z</time>
      </trkpt>
      <trkpt lat="44.45264" lon="6.57634">
        <ele>2609</ele>
        <time>2021-04-08T09:00:46Z</time>
      </trkpt>
      <trkpt lat="44.45265" lon="6.57634">
        <ele>2609</ele>
        <time>2021-04-08T09:00:47Z</time>
      </trkpt>
      <trkpt lat="44.45265" lon="6.57635">
        <ele>2609</ele>
        <time>2021-04-08T09:00:48Z</time>
      </trkpt>
      <trkpt lat="44.45266" lon="6.57635">
        <ele>2609</ele>
        <time>2021-04-08T09:00:49Z</time>
      </trkpt>
      <trkpt lat="44.45266" lon="6.57635">
        <ele>2609</ele>
        <time>2021-04-08T09:00:50Z</time>
      </trkpt>
      <trkpt lat="44.45266" lon="6.57635">
        <ele>2609</ele>
        <time>2021-04-08T09:00:51Z</time>
      </trkpt>
      <trkpt lat="44.45266" lon="6.57636">
        <ele>2609</ele>
        <time>2021-04-08T09:00:52Z</time>
      </trkpt>
      <trkpt lat="44.45267" lon="6.57636">
        <ele>2609</ele>
        <time>2021-04-08T09:00:53Z</time>
      </trkpt>
      <trkpt lat="44.45267" lon="6.57636">
        <ele>2609</ele>
        <time>2021-04-08T09:00:54Z</time>
      </trkpt>
      <trkpt lat="44.45268" lon="6.57636">
        <ele>2609</ele>
        <time>2021-04-08T09:00:55Z</time>
      </trkpt>
      <trkpt lat="44.45268" lon="6.57637">
        <ele>2609</ele>
        <time>2021-04-08T09:00:56Z</time>
      </trkpt>
      <trkpt lat="44.45269" lon="6.57637">
        <ele>2609</ele>
        <time>2021-04-08T09:00:57Z</time>
      </trkpt>
      <trkpt lat="44.45269" lon="6.57637">
        <ele>2609</ele>
        <time>2021-04-08T09:00:58Z</time>
      </trkpt>
      <trkpt lat="44.4527" lon="6.57638">
        <ele>2609</ele>
        <time>2021-04-08T09:00:59Z</time>
      </trkpt>
      <trkpt lat="44.45271" lon="6.57638">
        <ele>2609</ele>
        <time>2021-04-08T09:01:00Z</time>
      </trkpt>
      <trkpt lat="44.45271" lon="6.57638">
        <ele>2609</ele>
        <time>2021-04-08T09:01:01Z</time>
      </trkpt>
      <trkpt lat="44.45272" lon="6.57639">
        <ele>2609</ele>
        <time>2021-04-08T09:01:02Z</time>
      </trkpt>
      <trkpt lat="44.45272" lon="6.57639">
        <ele>2609</ele>
        <time>2021-04-08T09:01:03Z</time>
      </trkpt>
      <trkpt lat="44.45272" lon="6.57639">
        <ele>2609</ele>
        <time>2021-04-08T09:01:04Z</time>
      </trkpt>
      <trkpt lat="44.45272" lon="6.57639">
        <ele>2609</ele>
        <time>2021-04-08T09:01:05Z</time>
      </trkpt>
      <trkpt lat="44.45272" lon="6.5764">
        <ele>2609</ele>
        <time>2021-04-08T09:01:06Z</time>
      </trkpt>
      <trkpt lat="44.45273" lon="6.5764">
        <ele>2609</ele>
        <time>2021-04-08T09:01:07Z</time>
      </trkpt>
      <trkpt lat="44.45273" lon="6.5764">
        <ele>2609</ele>
        <time>2021-04-08T09:01:08Z</time>
      </trkpt>
      <trkpt lat="44.45274" lon="6.5764">
        <ele>2609</ele>
        <time>2021-04-08T09:01:09Z</time>
      </trkpt>
      <trkpt lat="44.45274" lon="6.5764">
        <ele>2609</ele>
        <time>2021-04-08T09:01:10Z</time>
      </trkpt>
      <trkpt lat="44.45275" lon="6.5764">
        <ele>2609</ele>
        <time>2021-04-08T09:01:11Z</time>
      </trkpt>
      <trkpt lat="44.45275" lon="6.5764">
        <ele>2609</ele>
        <time>2021-04-08T09:01:12Z</time>
      </trkpt>
      <trkpt lat="44.45275" lon="6.57641">
        <ele>2610</ele>
        <time>2021-04-08T09:01:13Z</time>
      </trkpt>
      <trkpt lat="44.45275" lon="6.57641">
        <ele>2610</ele>
        <time>2021-04-08T09:01:14Z</time>
      </trkpt>
      <trkpt lat="44.45275" lon="6.57641">
        <ele>2610</ele>
        <time>2021-04-08T09:01:15Z</time>
      </trkpt>
      <trkpt lat="44.45275" lon="6.57642">
        <ele>2610</ele>
        <time>2021-04-08T09:01:16Z</time>
      </trkpt>
      <trkpt lat="44.45274" lon="6.57642">
        <ele>2610</ele>
        <time>2021-04-08T09:01:17Z</time>
      </trkpt>
      <trkpt lat="44.45274" lon="6.57642">
        <ele>2610</ele>
        <time>2021-04-08T09:01:18Z</time>
      </trkpt>
      <trkpt lat="44.45274" lon="6.57643">
        <ele>2610</ele>
        <time>2021-04-08T09:01:19Z</time>
      </trkpt>
      <trkpt lat="44.45274" lon="6.57643">
        <ele>2610</ele>
        <time>2021-04-08T09:01:20Z</time>
      </trkpt>
      <trkpt lat="44.45274" lon="6.57644">
        <ele>2610</ele>
        <time>2021-04-08T09:01:21Z</time>
      </trkpt>
      <trkpt lat="44.45273" lon="6.57645">
        <ele>2611</ele>
        <time>2021-04-08T09:01:22Z</time>
      </trkpt>
      <trkpt lat="44.45273" lon="6.57645">
        <ele>2611</ele>
        <time>2021-04-08T09:01:23Z</time>
      </trkpt>
      <trkpt lat="44.45273" lon="6.57646">
        <ele>2611</ele>
        <time>2021-04-08T09:01:24Z</time>
      </trkpt>
      <trkpt lat="44.45273" lon="6.57646">
        <ele>2612</ele>
        <time>2021-04-08T09:01:25Z</time>
      </trkpt>
      <trkpt lat="44.45272" lon="6.57647">
        <ele>2612</ele>
        <time>2021-04-08T09:01:26Z</time>
      </trkpt>
      <trkpt lat="44.45272" lon="6.57648">
        <ele>2612</ele>
        <time>2021-04-08T09:01:27Z</time>
      </trkpt>
      <trkpt lat="44.45271" lon="6.57649">
        <ele>2613</ele>
        <time>2021-04-08T09:01:28Z</time>
      </trkpt>
      <trkpt lat="44.4527" lon="6.57649">
        <ele>2613</ele>
        <time>2021-04-08T09:01:29Z</time>
      </trkpt>
      <trkpt lat="44.45269" lon="6.5765">
        <ele>2613</ele>
        <time>2021-04-08T09:01:30Z</time>
      </trkpt>
      <trkpt lat="44.45269" lon="6.5765">
        <ele>2613</ele>
        <time>2021-04-08T09:01:31Z</time>
      </trkpt>
      <trkpt lat="44.45269" lon="6.57651">
        <ele>2614</ele>
        <time>2021-04-08T09:01:32Z</time>
      </trkpt>
      <trkpt lat="44.45269" lon="6.57651">
        <ele>2614</ele>
        <time>2021-04-08T09:01:33Z</time>
      </trkpt>
      <trkpt lat="44.45268" lon="6.57652">
        <ele>2615</ele>
        <time>2021-04-08T09:01:34Z</time>
      </trkpt>
      <trkpt lat="44.45268" lon="6.57653">
        <ele>2615</ele>
        <time>2021-04-08T09:01:35Z</time>
      </trkpt>
      <trkpt lat="44.45268" lon="6.57653">
        <ele>2616</ele>
        <time>2021-04-08T09:01:36Z</time>
      </trkpt>
      <trkpt lat="44.45268" lon="6.57653">
        <ele>2616</ele>
        <time>2021-04-08T09:01:37Z</time>
      </trkpt>
      <trkpt lat="44.45267" lon="6.57654">
        <ele>2616</ele>
        <time>2021-04-08T09:01:38Z</time>
      </trkpt>
      <trkpt lat="44.45267" lon="6.57654">
        <ele>2616</ele>
        <time>2021-04-08T09:01:39Z</time>
      </trkpt>
      <trkpt lat="44.45267" lon="6.57653">
        <ele>2616</ele>
        <time>2021-04-08T09:01:40Z</time>
      </trkpt>
      <trkpt lat="44.45266" lon="6.57653">
        <ele>2616</ele>
        <time>2021-04-08T09:01:41Z</time>
      </trkpt>
      <trkpt lat="44.45265" lon="6.57654">
        <ele>2617</ele>
        <time>2021-04-08T09:01:42Z</time>
      </trkpt>
      <trkpt lat="44.45265" lon="6.57655">
        <ele>2617</ele>
        <time>2021-04-08T09:01:43Z</time>
      </trkpt>
      <trkpt lat="44.45264" lon="6.57656">
        <ele>2618</ele>
        <time>2021-04-08T09:01:44Z</time>
      </trkpt>
      <trkpt lat="44.45263" lon="6.57656">
        <ele>2618</ele>
        <time>2021-04-08T09:01:45Z</time>
      </trkpt>
      <trkpt lat="44.45263" lon="6.57657">
        <ele>2618</ele>
        <time>2021-04-08T09:01:46Z</time>
      </trkpt>
      <trkpt lat="44.45263" lon="6.57658">
        <ele>2618</ele>
        <time>2021-04-08T09:01:47Z</time>
      </trkpt>
      <trkpt lat="44.45262" lon="6.57658">
        <ele>2619</ele>
        <time>2021-04-08T09:01:48Z</time>
      </trkpt>
      <trkpt lat="44.45262" lon="6.57658">
        <ele>2619</ele>
        <time>2021-04-08T09:01:49Z</time>
      </trkpt>
      <trkpt lat="44.45261" lon="6.57659">
        <ele>2619</ele>
        <time>2021-04-08T09:01:50Z</time>
      </trkpt>
      <trkpt lat="44.45261" lon="6.5766">
        <ele>2619</ele>
        <time>2021-04-08T09:01:51Z</time>
      </trkpt>
      <trkpt lat="44.45261" lon="6.57661">
        <ele>2619</ele>
        <time>2021-04-08T09:01:52Z</time>
      </trkpt>
      <trkpt lat="44.4526" lon="6.57661">
        <ele>2620</ele>
        <time>2021-04-08T09:01:53Z</time>
      </trkpt>
      <trkpt lat="44.4526" lon="6.57662">
        <ele>2620</ele>
        <time>2021-04-08T09:01:54Z</time>
      </trkpt>
      <trkpt lat="44.4526" lon="6.57662">
        <ele>2621</ele>
        <time>2021-04-08T09:01:55Z</time>
      </trkpt>
      <trkpt lat="44.45259" lon="6.57663">
        <ele>2621</ele>
        <time>2021-04-08T09:01:56Z</time>
      </trkpt>
      <trkpt lat="44.45259" lon="6.57664">
        <ele>2621</ele>
        <time>2021-04-08T09:01:57Z</time>
      </trkpt>
      <trkpt lat="44.45258" lon="6.57665">
        <ele>2622</ele>
        <time>2021-04-08T09:01:58Z</time>
      </trkpt>
      <trkpt lat="44.45257" lon="6.57665">
        <ele>2622</ele>
        <time>2021-04-08T09:01:59Z</time>
      </trkpt>
      <trkpt lat="44.45257" lon="6.57666">
        <ele>2622</ele>
        <time>2021-04-08T09:02:00Z</time>
      </trkpt>
      <trkpt lat="44.45257" lon="6.57666">
        <ele>2622</ele>
        <time>2021-04-08T09:02:01Z</time>
      </trkpt>
      <trkpt lat="44.45257" lon="6.57666">
        <ele>2623</ele>
        <time>2021-04-08T09:02:02Z</time>
      </trkpt>
      <trkpt lat="44.45256" lon="6.57667">
        <ele>2623</ele>
        <time>2021-04-08T09:02:03Z</time>
      </trkpt>
      <trkpt lat="44.45255" lon="6.57667">
        <ele>2624</ele>
        <time>2021-04-08T09:02:04Z</time>
      </trkpt>
      <trkpt lat="44.45255" lon="6.57668">
        <ele>2624</ele>
        <time>2021-04-08T09:02:05Z</time>
      </trkpt>
      <trkpt lat="44.45255" lon="6.57669">
        <ele>2624</ele>
        <time>2021-04-08T09:02:06Z</time>
      </trkpt>
      <trkpt lat="44.45254" lon="6.57669">
        <ele>2624</ele>
        <time>2021-04-08T09:02:07Z</time>
      </trkpt>
      <trkpt lat="44.45254" lon="6.57669">
        <ele>2624</ele>
        <time>2021-04-08T09:02:08Z</time>
      </trkpt>
      <trkpt lat="44.45254" lon="6.5767">
        <ele>2625</ele>
        <time>2021-04-08T09:02:09Z</time>
      </trkpt>
      <trkpt lat="44.45254" lon="6.57671">
        <ele>2625</ele>
        <time>2021-04-08T09:02:10Z</time>
      </trkpt>
      <trkpt lat="44.45254" lon="6.57671">
        <ele>2625</ele>
        <time>2021-04-08T09:02:11Z</time>
      </trkpt>
      <trkpt lat="44.45254" lon="6.57671">
        <ele>2626</ele>
        <time>2021-04-08T09:02:12Z</time>
      </trkpt>
      <trkpt lat="44.45254" lon="6.57672">
        <ele>2626</ele>
        <time>2021-04-08T09:02:13Z</time>
      </trkpt>
      <trkpt lat="44.45254" lon="6.57672">
        <ele>2626</ele>
        <time>2021-04-08T09:02:14Z</time>
      </trkpt>
      <trkpt lat="44.45253" lon="6.57672">
        <ele>2626</ele>
        <time>2021-04-08T09:02:15Z</time>
      </trkpt>
      <trkpt lat="44.45253" lon="6.57672">
        <ele>2626</ele>
        <time>2021-04-08T09:02:16Z</time>
      </trkpt>
      <trkpt lat="44.45252" lon="6.57673">
        <ele>2627</ele>
        <time>2021-04-08T09:02:17Z</time>
      </trkpt>
      <trkpt lat="44.45251" lon="6.57673">
        <ele>2627</ele>
        <time>2021-04-08T09:02:18Z</time>
      </trkpt>
      <trkpt lat="44.45251" lon="6.57674">
        <ele>2627</ele>
        <time>2021-04-08T09:02:19Z</time>
      </trkpt>
      <trkpt lat="44.45251" lon="6.57674">
        <ele>2628</ele>
        <time>2021-04-08T09:02:20Z</time>
      </trkpt>
      <trkpt lat="44.4525" lon="6.57675">
        <ele>2628</ele>
        <time>2021-04-08T09:02:21Z</time>
      </trkpt>
      <trkpt lat="44.4525" lon="6.57675">
        <ele>2628</ele>
        <time>2021-04-08T09:02:22Z</time>
      </trkpt>
      <trkpt lat="44.4525" lon="6.57675">
        <ele>2628</ele>
        <time>2021-04-08T09:02:23Z</time>
      </trkpt>
      <trkpt lat="44.45249" lon="6.57675">
        <ele>2628</ele>
        <time>2021-04-08T09:02:24Z</time>
      </trkpt>
      <trkpt lat="44.45249" lon="6.57676">
        <ele>2628</ele>
        <time>2021-04-08T09:02:25Z</time>
      </trkpt>
      <trkpt lat="44.45249" lon="6.57676">
        <ele>2628</ele>
        <time>2021-04-08T09:02:26Z</time>
      </trkpt>
      <trkpt lat="44.45248" lon="6.57677">
        <ele>2629</ele>
        <time>2021-04-08T09:02:27Z</time>
      </trkpt>
      <trkpt lat="44.45248" lon="6.57678">
        <ele>2629</ele>
        <time>2021-04-08T09:02:28Z</time>
      </trkpt>
      <trkpt lat="44.45248" lon="6.57679">
        <ele>2629</ele>
        <time>2021-04-08T09:02:29Z</time>
      </trkpt>
      <trkpt lat="44.45248" lon="6.5768">
        <ele>2629</ele>
        <time>2021-04-08T09:02:30Z</time>
      </trkpt>
      <trkpt lat="44.45247" lon="6.5768">
        <ele>2630</ele>
        <time>2021-04-08T09:02:31Z</time>
      </trkpt>
      <trkpt lat="44.45246" lon="6.57681">
        <ele>2630</ele>
        <time>2021-04-08T09:02:32Z</time>
      </trkpt>
      <trkpt lat="44.45246" lon="6.57681">
        <ele>2630</ele>
        <time>2021-04-08T09:02:33Z</time>
      </trkpt>
      <trkpt lat="44.45245" lon="6.57682">
        <ele>2630</ele>
        <time>2021-04-08T09:02:34Z</time>
      </trkpt>
      <trkpt lat="44.45245" lon="6.57682">
        <ele>2631</ele>
        <time>2021-04-08T09:02:35Z</time>
      </trkpt>
      <trkpt lat="44.45244" lon="6.57682">
        <ele>2631</ele>
        <time>2021-04-08T09:02:36Z</time>
      </trkpt>
      <trkpt lat="44.45243" lon="6.57681">
        <ele>2631</ele>
        <time>2021-04-08T09:02:37Z</time>
      </trkpt>
      <trkpt lat="44.45242" lon="6.57681">
        <ele>2632</ele>
        <time>2021-04-08T09:02:38Z</time>
      </trkpt>
      <trkpt lat="44.45242" lon="6.5768">
        <ele>2632</ele>
        <time>2021-04-08T09:02:39Z</time>
      </trkpt>
      <trkpt lat="44.45242" lon="6.5768">
        <ele>2632</ele>
        <time>2021-04-08T09:02:40Z</time>
      </trkpt>
      <trkpt lat="44.45241" lon="6.5768">
        <ele>2632</ele>
        <time>2021-04-08T09:02:41Z</time>
      </trkpt>
      <trkpt lat="44.45241" lon="6.5768">
        <ele>2633</ele>
        <time>2021-04-08T09:02:42Z</time>
      </trkpt>
      <trkpt lat="44.4524" lon="6.57681">
        <ele>2633</ele>
        <time>2021-04-08T09:02:43Z</time>
      </trkpt>
      <trkpt lat="44.4524" lon="6.57681">
        <ele>2633</ele>
        <time>2021-04-08T09:02:44Z</time>
      </trkpt>
      <trkpt lat="44.45239" lon="6.57682">
        <ele>2634</ele>
        <time>2021-04-08T09:02:45Z</time>
      </trkpt>
      <trkpt lat="44.45239" lon="6.57682">
        <ele>2634</ele>
        <time>2021-04-08T09:02:46Z</time>
      </trkpt>
      <trkpt lat="44.45239" lon="6.57683">
        <ele>2634</ele>
        <time>2021-04-08T09:02:47Z</time>
      </trkpt>
      <trkpt lat="44.45239" lon="6.57682">
        <ele>2634</ele>
        <time>2021-04-08T09:02:48Z</time>
      </trkpt>
      <trkpt lat="44.45239" lon="6.57682">
        <ele>2634</ele>
        <time>2021-04-08T09:02:49Z</time>
      </trkpt>
      <trkpt lat="44.4524" lon="6.57682">
        <ele>2634</ele>
        <time>2021-04-08T09:02:50Z</time>
      </trkpt>
      <trkpt lat="44.4524" lon="6.57682">
        <ele>2634</ele>
        <time>2021-04-08T09:02:51Z</time>
      </trkpt>
      <trkpt lat="44.4524" lon="6.57682">
        <ele>2634</ele>
        <time>2021-04-08T09:02:52Z</time>
      </trkpt>
      <trkpt lat="44.4524" lon="6.57682">
        <ele>2634</ele>
        <time>2021-04-08T09:02:53Z</time>
      </trkpt>
      <trkpt lat="44.4524" lon="6.57682">
        <ele>2634</ele>
        <time>2021-04-08T09:02:54Z</time>
      </trkpt>
      <trkpt lat="44.45241" lon="6.57682">
        <ele>2635</ele>
        <time>2021-04-08T09:02:55Z</time>
      </trkpt>
      <trkpt lat="44.45241" lon="6.57682">
        <ele>2635</ele>
        <time>2021-04-08T09:02:56Z</time>
      </trkpt>
      <trkpt lat="44.45242" lon="6.57682">
        <ele>2635</ele>
        <time>2021-04-08T09:02:57Z</time>
      </trkpt>
      <trkpt lat="44.45242" lon="6.57682">
        <ele>2635</ele>
        <time>2021-04-08T09:02:58Z</time>
      </trkpt>
      <trkpt lat="44.45243" lon="6.57682">
        <ele>2635</ele>
        <time>2021-04-08T09:02:59Z</time>
      </trkpt>
      <trkpt lat="44.45243" lon="6.57683">
        <ele>2635</ele>
        <time>2021-04-08T09:03:00Z</time>
      </trkpt>
      <trkpt lat="44.45244" lon="6.57683">
        <ele>2635</ele>
        <time>2021-04-08T09:03:01Z</time>
      </trkpt>
      <trkpt lat="44.45245" lon="6.57683">
        <ele>2635</ele>
        <time>2021-04-08T09:03:02Z</time>
      </trkpt>
      <trkpt lat="44.45245" lon="6.57684">
        <ele>2635</ele>
        <time>2021-04-08T09:03:03Z</time>
      </trkpt>
      <trkpt lat="44.45246" lon="6.57684">
        <ele>2635</ele>
        <time>2021-04-08T09:03:04Z</time>
      </trkpt>
      <trkpt lat="44.45247" lon="6.57685">
        <ele>2635</ele>
        <time>2021-04-08T09:03:05Z</time>
      </trkpt>
      <trkpt lat="44.45247" lon="6.57685">
        <ele>2635</ele>
        <time>2021-04-08T09:03:06Z</time>
      </trkpt>
      <trkpt lat="44.45247" lon="6.57686">
        <ele>2635</ele>
        <time>2021-04-08T09:03:07Z</time>
      </trkpt>
      <trkpt lat="44.45248" lon="6.57686">
        <ele>2635</ele>
        <time>2021-04-08T09:03:08Z</time>
      </trkpt>
      <trkpt lat="44.45248" lon="6.57687">
        <ele>2635</ele>
        <time>2021-04-08T09:03:09Z</time>
      </trkpt>
      <trkpt lat="44.45249" lon="6.57687">
        <ele>2635</ele>
        <time>2021-04-08T09:03:10Z</time>
      </trkpt>
      <trkpt lat="44.4525" lon="6.57688">
        <ele>2635</ele>
        <time>2021-04-08T09:03:11Z</time>
      </trkpt>
      <trkpt lat="44.4525" lon="6.57688">
        <ele>2635</ele>
        <time>2021-04-08T09:03:12Z</time>
      </trkpt>
      <trkpt lat="44.45251" lon="6.57688">
        <ele>2635</ele>
        <time>2021-04-08T09:03:13Z</time>
      </trkpt>
      <trkpt lat="44.45251" lon="6.57688">
        <ele>2635</ele>
        <time>2021-04-08T09:03:14Z</time>
      </trkpt>
      <trkpt lat="44.45251" lon="6.57689">
        <ele>2635</ele>
        <time>2021-04-08T09:03:15Z</time>
      </trkpt>
      <trkpt lat="44.45251" lon="6.57689">
        <ele>2635</ele>
        <time>2021-04-08T09:03:16Z</time>
      </trkpt>
      <trkpt lat="44.45252" lon="6.57689">
        <ele>2635</ele>
        <time>2021-04-08T09:03:17Z</time>
      </trkpt>
      <trkpt lat="44.45253" lon="6.57689">
        <ele>2636</ele>
        <time>2021-04-08T09:03:18Z</time>
      </trkpt>
      <trkpt lat="44.45254" lon="6.5769">
        <ele>2636</ele>
        <time>2021-04-08T09:03:19Z</time>
      </trkpt>
      <trkpt lat="44.45254" lon="6.5769">
        <ele>2636</ele>
        <time>2021-04-08T09:03:20Z</time>
      </trkpt>
      <trkpt lat="44.45255" lon="6.57691">
        <ele>2636</ele>
        <time>2021-04-08T09:03:21Z</time>
      </trkpt>
      <trkpt lat="44.45255" lon="6.57691">
        <ele>2636</ele>
        <time>2021-04-08T09:03:22Z</time>
      </trkpt>
      <trkpt lat="44.45255" lon="6.57691">
        <ele>2636</ele>
        <time>2021-04-08T09:03:23Z</time>
      </trkpt>
      <trkpt lat="44.45255" lon="6.57691">
        <ele>2636</ele>
        <time>2021-04-08T09:03:24Z</time>
      </trkpt>
      <trkpt lat="44.45256" lon="6.57691">
        <ele>2636</ele>
        <time>2021-04-08T09:03:25Z</time>
      </trkpt>
      <trkpt lat="44.45257" lon="6.57691">
        <ele>2636</ele>
        <time>2021-04-08T09:03:26Z</time>
      </trkpt>
      <trkpt lat="44.45257" lon="6.57691">
        <ele>2636</ele>
        <time>2021-04-08T09:03:27Z</time>
      </trkpt>
      <trkpt lat="44.45257" lon="6.57691">
        <ele>2636</ele>
        <time>2021-04-08T09:03:28Z</time>
      </trkpt>
      <trkpt lat="44.45258" lon="6.57691">
        <ele>2636</ele>
        <time>2021-04-08T09:03:29Z</time>
      </trkpt>
      <trkpt lat="44.45259" lon="6.57691">
        <ele>2637</ele>
        <time>2021-04-08T09:03:30Z</time>
      </trkpt>
      <trkpt lat="44.4526" lon="6.57691">
        <ele>2637</ele>
        <time>2021-04-08T09:03:31Z</time>
      </trkpt>
      <trkpt lat="44.4526" lon="6.57692">
        <ele>2637</ele>
        <time>2021-04-08T09:03:32Z</time>
      </trkpt>
      <trkpt lat="44.45261" lon="6.57692">
        <ele>2637</ele>
        <time>2021-04-08T09:03:33Z</time>
      </trkpt>
      <trkpt lat="44.45262" lon="6.57692">
        <ele>2637</ele>
        <time>2021-04-08T09:03:34Z</time>
      </trkpt>
      <trkpt lat="44.45263" lon="6.57692">
        <ele>2637</ele>
        <time>2021-04-08T09:03:35Z</time>
      </trkpt>
      <trkpt lat="44.45263" lon="6.57693">
        <ele>2637</ele>
        <time>2021-04-08T09:03:36Z</time>
      </trkpt>
      <trkpt lat="44.45264" lon="6.57693">
        <ele>2638</ele>
        <time>2021-04-08T09:03:37Z</time>
      </trkpt>
      <trkpt lat="44.45264" lon="6.57693">
        <ele>2638</ele>
        <time>2021-04-08T09:03:38Z</time>
      </trkpt>
      <trkpt lat="44.45265" lon="6.57694">
        <ele>2638</ele>
        <time>2021-04-08T09:03:39Z</time>
      </trkpt>
      <trkpt lat="44.45265" lon="6.57694">
        <ele>2638</ele>
        <time>2021-04-08T09:03:40Z</time>
      </trkpt>
      <trkpt lat="44.45266" lon="6.57694">
        <ele>2638</ele>
        <time>2021-04-08T09:03:41Z</time>
      </trkpt>
      <trkpt lat="44.45266" lon="6.57693">
        <ele>2638</ele>
        <time>2021-04-08T09:03:42Z</time>
      </trkpt>
      <trkpt lat="44.45266" lon="6.57693">
        <ele>2638</ele>
        <time>2021-04-08T09:03:43Z</time>
      </trkpt>
      <trkpt lat="44.45267" lon="6.57693">
        <ele>2638</ele>
        <time>2021-04-08T09:03:44Z</time>
      </trkpt>
      <trkpt lat="44.45267" lon="6.57693">
        <ele>2638</ele>
        <time>2021-04-08T09:03:45Z</time>
      </trkpt>
      <trkpt lat="44.45268" lon="6.57693">
        <ele>2638</ele>
        <time>2021-04-08T09:03:46Z</time>
      </trkpt>
      <trkpt lat="44.45268" lon="6.57693">
        <ele>2638</ele>
        <time>2021-04-08T09:03:47Z</time>
      </trkpt>
      <trkpt lat="44.45269" lon="6.57694">
        <ele>2638</ele>
        <time>2021-04-08T09:03:48Z</time>
      </trkpt>
      <trkpt lat="44.45269" lon="6.57694">
        <ele>2638</ele>
        <time>2021-04-08T09:03:49Z</time>
      </trkpt>
      <trkpt lat="44.45269" lon="6.57694">
        <ele>2638</ele>
        <time>2021-04-08T09:03:50Z</time>
      </trkpt>
      <trkpt lat="44.4527" lon="6.57695">
        <ele>2638</ele>
        <time>2021-04-08T09:03:51Z</time>
      </trkpt>
      <trkpt lat="44.4527" lon="6.57695">
        <ele>2638</ele>
        <time>2021-04-08T09:03:52Z</time>
      </trkpt>
      <trkpt lat="44.4527" lon="6.57695">
        <ele>2638</ele>
        <time>2021-04-08T09:03:53Z</time>
      </trkpt>
      <trkpt lat="44.45271" lon="6.57696">
        <ele>2638</ele>
        <time>2021-04-08T09:03:54Z</time>
      </trkpt>
      <trkpt lat="44.45271" lon="6.57696">
        <ele>2638</ele>
        <time>2021-04-08T09:03:55Z</time>
      </trkpt>
      <trkpt lat="44.45272" lon="6.57696">
        <ele>2638</ele>
        <time>2021-04-08T09:03:56Z</time>
      </trkpt>
      <trkpt lat="44.45272" lon="6.57696">
        <ele>2638</ele>
        <time>2021-04-08T09:03:57Z</time>
      </trkpt>
      <trkpt lat="44.45272" lon="6.57696">
        <ele>2638</ele>
        <time>2021-04-08T09:03:58Z</time>
      </trkpt>
      <trkpt lat="44.45273" lon="6.57697">
        <ele>2638</ele>
        <time>2021-04-08T09:03:59Z</time>
      </trkpt>
      <trkpt lat="44.45274" lon="6.57697">
        <ele>2638</ele>
        <time>2021-04-08T09:04:00Z</time>
      </trkpt>
      <trkpt lat="44.45274" lon="6.57697">
        <ele>2638</ele>
        <time>2021-04-08T09:04:01Z</time>
      </trkpt>
      <trkpt lat="44.45275" lon="6.57697">
        <ele>2638</ele>
        <time>2021-04-08T09:04:02Z</time>
      </trkpt>
      <trkpt lat="44.45275" lon="6.57697">
        <ele>2638</ele>
        <time>2021-04-08T09:04:03Z</time>
      </trkpt>
      <trkpt lat="44.45276" lon="6.57697">
        <ele>2639</ele>
        <time>2021-04-08T09:04:04Z</time>
      </trkpt>
      <trkpt lat="44.45277" lon="6.57698">
        <ele>2639</ele>
        <time>2021-04-08T09:04:05Z</time>
      </trkpt>
      <trkpt lat="44.45277" lon="6.57698">
        <ele>2639</ele>
        <time>2021-04-08T09:04:06Z</time>
      </trkpt>
      <trkpt lat="44.45278" lon="6.57698">
        <ele>2639</ele>
        <time>2021-04-08T09:04:07Z</time>
      </trkpt>
      <trkpt lat="44.45278" lon="6.57698">
        <ele>2639</ele>
        <time>2021-04-08T09:04:08Z</time>
      </trkpt>
      <trkpt lat="44.45278" lon="6.57698">
        <ele>2639</ele>
        <time>2021-04-08T09:04:09Z</time>
      </trkpt>
      <trkpt lat="44.45279" lon="6.57698">
        <ele>2639</ele>
        <time>2021-04-08T09:04:10Z</time>
      </trkpt>
      <trkpt lat="44.4528" lon="6.57698">
        <ele>2639</ele>
        <time>2021-04-08T09:04:11Z</time>
      </trkpt>
      <trkpt lat="44.4528" lon="6.57698">
        <ele>2639</ele>
        <time>2021-04-08T09:04:12Z</time>
      </trkpt>
      <trkpt lat="44.45281" lon="6.57698">
        <ele>2639</ele>
        <time>2021-04-08T09:04:13Z</time>
      </trkpt>
      <trkpt lat="44.45281" lon="6.57698">
        <ele>2640</ele>
        <time>2021-04-08T09:04:14Z</time>
      </trkpt>
      <trkpt lat="44.45281" lon="6.57698">
        <ele>2640</ele>
        <time>2021-04-08T09:04:15Z</time>
      </trkpt>
      <trkpt lat="44.45282" lon="6.57698">
        <ele>2640</ele>
        <time>2021-04-08T09:04:16Z</time>
      </trkpt>
      <trkpt lat="44.45283" lon="6.57698">
        <ele>2640</ele>
        <time>2021-04-08T09:04:17Z</time>
      </trkpt>
      <trkpt lat="44.45283" lon="6.57698">
        <ele>2641</ele>
        <time>2021-04-08T09:04:18Z</time>
      </trkpt>
      <trkpt lat="44.45284" lon="6.57697">
        <ele>2641</ele>
        <time>2021-04-08T09:04:19Z</time>
      </trkpt>
      <trkpt lat="44.45284" lon="6.57697">
        <ele>2641</ele>
        <time>2021-04-08T09:04:20Z</time>
      </trkpt>
      <trkpt lat="44.45285" lon="6.57697">
        <ele>2641</ele>
        <time>2021-04-08T09:04:21Z</time>
      </trkpt>
      <trkpt lat="44.45285" lon="6.57698">
        <ele>2642</ele>
        <time>2021-04-08T09:04:22Z</time>
      </trkpt>
      <trkpt lat="44.45286" lon="6.57698">
        <ele>2642</ele>
        <time>2021-04-08T09:04:23Z</time>
      </trkpt>
      <trkpt lat="44.45287" lon="6.57698">
        <ele>2642</ele>
        <time>2021-04-08T09:04:24Z</time>
      </trkpt>
      <trkpt lat="44.45288" lon="6.57698">
        <ele>2642</ele>
        <time>2021-04-08T09:04:25Z</time>
      </trkpt>
      <trkpt lat="44.45289" lon="6.57698">
        <ele>2642</ele>
        <time>2021-04-08T09:04:26Z</time>
      </trkpt>
      <trkpt lat="44.45289" lon="6.57698">
        <ele>2642</ele>
        <time>2021-04-08T09:04:27Z</time>
      </trkpt>
      <trkpt lat="44.4529" lon="6.57699">
        <ele>2642</ele>
        <time>2021-04-08T09:04:28Z</time>
      </trkpt>
      <trkpt lat="44.4529" lon="6.57699">
        <ele>2643</ele>
        <time>2021-04-08T09:04:29Z</time>
      </trkpt>
      <trkpt lat="44.4529" lon="6.57699">
        <ele>2643</ele>
        <time>2021-04-08T09:04:30Z</time>
      </trkpt>
      <trkpt lat="44.45291" lon="6.57699">
        <ele>2643</ele>
        <time>2021-04-08T09:04:31Z</time>
      </trkpt>
      <trkpt lat="44.45291" lon="6.57699">
        <ele>2643</ele>
        <time>2021-04-08T09:04:32Z</time>
      </trkpt>
      <trkpt lat="44.45291" lon="6.57699">
        <ele>2643</ele>
        <time>2021-04-08T09:04:33Z</time>
      </trkpt>
      <trkpt lat="44.45291" lon="6.57699">
        <ele>2643</ele>
        <time>2021-04-08T09:04:34Z</time>
      </trkpt>
      <trkpt lat="44.45291" lon="6.57699">
        <ele>2643</ele>
        <time>2021-04-08T09:04:35Z</time>
      </trkpt>
      <trkpt lat="44.45291" lon="6.57698">
        <ele>2643</ele>
        <time>2021-04-08T09:04:36Z</time>
      </trkpt>
      <trkpt lat="44.45291" lon="6.57698">
        <ele>2643</ele>
        <time>2021-04-08T09:04:37Z</time>
      </trkpt>
      <trkpt lat="44.45291" lon="6.57697">
        <ele>2643</ele>
        <time>2021-04-08T09:04:38Z</time>
      </trkpt>
      <trkpt lat="44.45291" lon="6.57697">
        <ele>2643</ele>
        <time>2021-04-08T09:04:39Z</time>
      </trkpt>
      <trkpt lat="44.45291" lon="6.57697">
        <ele>2643</ele>
        <time>2021-04-08T09:04:40Z</time>
      </trkpt>
      <trkpt lat="44.45291" lon="6.57697">
        <ele>2643</ele>
        <time>2021-04-08T09:04:41Z</time>
      </trkpt>
      <trkpt lat="44.45289" lon="6.57695">
        <ele>2643</ele>
        <time>2021-04-08T09:04:42Z</time>
      </trkpt>
      <trkpt lat="44.45289" lon="6.57694">
        <ele>2643</ele>
        <time>2021-04-08T09:04:43Z</time>
      </trkpt>
      <trkpt lat="44.45289" lon="6.57694">
        <ele>2644</ele>
        <time>2021-04-08T09:04:44Z</time>
      </trkpt>
      <trkpt lat="44.45288" lon="6.57694">
        <ele>2644</ele>
        <time>2021-04-08T09:04:45Z</time>
      </trkpt>
      <trkpt lat="44.45288" lon="6.57695">
        <ele>2645</ele>
        <time>2021-04-08T09:04:46Z</time>
      </trkpt>
      <trkpt lat="44.45288" lon="6.57695">
        <ele>2645</ele>
        <time>2021-04-08T09:04:47Z</time>
      </trkpt>
      <trkpt lat="44.45288" lon="6.57696">
        <ele>2645</ele>
        <time>2021-04-08T09:04:48Z</time>
      </trkpt>
      <trkpt lat="44.45288" lon="6.57697">
        <ele>2645</ele>
        <time>2021-04-08T09:04:49Z</time>
      </trkpt>
      <trkpt lat="44.45288" lon="6.57696">
        <ele>2645</ele>
        <time>2021-04-08T09:04:50Z</time>
      </trkpt>
      <trkpt lat="44.45288" lon="6.57696">
        <ele>2645</ele>
        <time>2021-04-08T09:04:51Z</time>
      </trkpt>
      <trkpt lat="44.45288" lon="6.57696">
        <ele>2645</ele>
        <time>2021-04-08T09:04:52Z</time>
      </trkpt>
      <trkpt lat="44.45288" lon="6.57696">
        <ele>2646</ele>
        <time>2021-04-08T09:04:53Z</time>
      </trkpt>
      <trkpt lat="44.45288" lon="6.57696">
        <ele>2646</ele>
        <time>2021-04-08T09:04:54Z</time>
      </trkpt>
      <trkpt lat="44.45288" lon="6.57696">
        <ele>2646</ele>
        <time>2021-04-08T09:04:55Z</time>
      </trkpt>
      <trkpt lat="44.45288" lon="6.57696">
        <ele>2646</ele>
        <time>2021-04-08T09:04:56Z</time>
      </trkpt>
      <trkpt lat="44.45288" lon="6.57695">
        <ele>2646</ele>
        <time>2021-04-08T09:04:57Z</time>
      </trkpt>
      <trkpt lat="44.45289" lon="6.57695">
        <ele>2646</ele>
        <time>2021-04-08T09:04:58Z</time>
      </trkpt>
      <trkpt lat="44.45289" lon="6.57695">
        <ele>2646</ele>
        <time>2021-04-08T09:04:59Z</time>
      </trkpt>
      <trkpt lat="44.45289" lon="6.57695">
        <ele>2646</ele>
        <time>2021-04-08T09:05:00Z</time>
      </trkpt>
      <trkpt lat="44.45289" lon="6.57695">
        <ele>2646</ele>
        <time>2021-04-08T09:05:01Z</time>
      </trkpt>
      <trkpt lat="44.45289" lon="6.57695">
        <ele>2646</ele>
        <time>2021-04-08T09:05:02Z</time>
      </trkpt>
      <trkpt lat="44.45289" lon="6.57695">
        <ele>2646</ele>
        <time>2021-04-08T09:05:03Z</time>
      </trkpt>
      <trkpt lat="44.45289" lon="6.57695">
        <ele>2646</ele>
        <time>2021-04-08T09:05:04Z</time>
      </trkpt>
      <trkpt lat="44.45289" lon="6.57695">
        <ele>2646</ele>
        <time>2021-04-08T09:05:05Z</time>
      </trkpt>
      <trkpt lat="44.45289" lon="6.57695">
        <ele>2646</ele>
        <time>2021-04-08T09:05:06Z</time>
      </trkpt>
      <trkpt lat="44.4529" lon="6.57692">
        <ele>2646</ele>
        <time>2021-04-08T09:05:07Z</time>
      </trkpt>
      <trkpt lat="44.4529" lon="6.57691">
        <ele>2646</ele>
        <time>2021-04-08T09:05:08Z</time>
      </trkpt>
      <trkpt lat="44.4529" lon="6.5769">
        <ele>2646</ele>
        <time>2021-04-08T09:05:09Z</time>
      </trkpt>
      <trkpt lat="44.45289" lon="6.5769">
        <ele>2646</ele>
        <time>2021-04-08T09:05:10Z</time>
      </trkpt>
      <trkpt lat="44.45289" lon="6.5769">
        <ele>2646</ele>
        <time>2021-04-08T09:05:11Z</time>
      </trkpt>
      <trkpt lat="44.45289" lon="6.57691">
        <ele>2646</ele>
        <time>2021-04-08T09:05:12Z</time>
      </trkpt>
      <trkpt lat="44.4529" lon="6.57691">
        <ele>2646</ele>
        <time>2021-04-08T09:05:13Z</time>
      </trkpt>
      <trkpt lat="44.4529" lon="6.57691">
        <ele>2646</ele>
        <time>2021-04-08T09:05:14Z</time>
      </trkpt>
      <trkpt lat="44.45291" lon="6.57691">
        <ele>2646</ele>
        <time>2021-04-08T09:05:15Z</time>
      </trkpt>
      <trkpt lat="44.45291" lon="6.57692">
        <ele>2646</ele>
        <time>2021-04-08T09:05:16Z</time>
      </trkpt>
      <trkpt lat="44.45291" lon="6.57691">
        <ele>2646</ele>
        <time>2021-04-08T09:05:17Z</time>
      </trkpt>
      <trkpt lat="44.45291" lon="6.5769">
        <ele>2646</ele>
        <time>2021-04-08T09:05:18Z</time>
      </trkpt>
      <trkpt lat="44.45291" lon="6.5769">
        <ele>2646</ele>
        <time>2021-04-08T09:05:19Z</time>
      </trkpt>
      <trkpt lat="44.45292" lon="6.57689">
        <ele>2646</ele>
        <time>2021-04-08T09:05:20Z</time>
      </trkpt>
      <trkpt lat="44.45292" lon="6.57689">
        <ele>2646</ele>
        <time>2021-04-08T09:05:21Z</time>
      </trkpt>
      <trkpt lat="44.45291" lon="6.57688">
        <ele>2646</ele>
        <time>2021-04-08T09:05:22Z</time>
      </trkpt>
      <trkpt lat="44.45291" lon="6.57688">
        <ele>2647</ele>
        <time>2021-04-08T09:05:23Z</time>
      </trkpt>
      <trkpt lat="44.45291" lon="6.57688">
        <ele>2648</ele>
        <time>2021-04-08T09:05:24Z</time>
      </trkpt>
      <trkpt lat="44.45291" lon="6.57689">
        <ele>2648</ele>
        <time>2021-04-08T09:05:25Z</time>
      </trkpt>
      <trkpt lat="44.45291" lon="6.57689">
        <ele>2648</ele>
        <time>2021-04-08T09:05:26Z</time>
      </trkpt>
      <trkpt lat="44.45291" lon="6.57689">
        <ele>2648</ele>
        <time>2021-04-08T09:05:27Z</time>
      </trkpt>
      <trkpt lat="44.45291" lon="6.57689">
        <ele>2648</ele>
        <time>2021-04-08T09:05:28Z</time>
      </trkpt>
      <trkpt lat="44.45291" lon="6.57689">
        <ele>2648</ele>
        <time>2021-04-08T09:05:29Z</time>
      </trkpt>
      <trkpt lat="44.4529" lon="6.5769">
        <ele>2648</ele>
        <time>2021-04-08T09:05:30Z</time>
      </trkpt>
      <trkpt lat="44.4529" lon="6.5769">
        <ele>2648</ele>
        <time>2021-04-08T09:05:31Z</time>
      </trkpt>
      <trkpt lat="44.4529" lon="6.57691">
        <ele>2648</ele>
        <time>2021-04-08T09:05:32Z</time>
      </trkpt>
      <trkpt lat="44.4529" lon="6.57693">
        <ele>2648</ele>
        <time>2021-04-08T09:05:33Z</time>
      </trkpt>
      <trkpt lat="44.4529" lon="6.57694">
        <ele>2648</ele>
        <time>2021-04-08T09:05:34Z</time>
      </trkpt>
      <trkpt lat="44.45289" lon="6.57695">
        <ele>2648</ele>
        <time>2021-04-08T09:05:35Z</time>
      </trkpt>
      <trkpt lat="44.45289" lon="6.57695">
        <ele>2648</ele>
        <time>2021-04-08T09:05:36Z</time>
      </trkpt>
      <trkpt lat="44.45288" lon="6.57695">
        <ele>2648</ele>
        <time>2021-04-08T09:05:37Z</time>
      </trkpt>
      <trkpt lat="44.45287" lon="6.57696">
        <ele>2648</ele>
        <time>2021-04-08T09:05:38Z</time>
      </trkpt>
      <trkpt lat="44.45287" lon="6.57696">
        <ele>2648</ele>
        <time>2021-04-08T09:05:39Z</time>
      </trkpt>
      <trkpt lat="44.45286" lon="6.57697">
        <ele>2648</ele>
        <time>2021-04-08T09:05:40Z</time>
      </trkpt>
      <trkpt lat="44.45286" lon="6.57698">
        <ele>2648</ele>
        <time>2021-04-08T09:05:41Z</time>
      </trkpt>
      <trkpt lat="44.45284" lon="6.57699">
        <ele>2649</ele>
        <time>2021-04-08T09:05:42Z</time>
      </trkpt>
      <trkpt lat="44.45282" lon="6.57702">
        <ele>2649</ele>
        <time>2021-04-08T09:05:43Z</time>
      </trkpt>
      <trkpt lat="44.45279" lon="6.57702">
        <ele>2649</ele>
        <time>2021-04-08T09:05:44Z</time>
      </trkpt>
      <trkpt lat="44.45279" lon="6.57701">
        <ele>2649</ele>
        <time>2021-04-08T09:05:45Z</time>
      </trkpt>
      <trkpt lat="44.45278" lon="6.57702">
        <ele>2650</ele>
        <time>2021-04-08T09:05:46Z</time>
      </trkpt>
      <trkpt lat="44.45278" lon="6.57702">
        <ele>2650</ele>
        <time>2021-04-08T09:05:47Z</time>
      </trkpt>
      <trkpt lat="44.45278" lon="6.57704">
        <ele>2650</ele>
        <time>2021-04-08T09:05:48Z</time>
      </trkpt>
      <trkpt lat="44.45278" lon="6.57707">
        <ele>2652</ele>
        <time>2021-04-08T09:05:49Z</time>
      </trkpt>
      <trkpt lat="44.45278" lon="6.57708">
        <ele>2653</ele>
        <time>2021-04-08T09:05:50Z</time>
      </trkpt>
      <trkpt lat="44.45279" lon="6.57709">
        <ele>2653</ele>
        <time>2021-04-08T09:05:51Z</time>
      </trkpt>
      <trkpt lat="44.4528" lon="6.5771">
        <ele>2653</ele>
        <time>2021-04-08T09:05:52Z</time>
      </trkpt>
      <trkpt lat="44.45279" lon="6.5771">
        <ele>2654</ele>
        <time>2021-04-08T09:05:53Z</time>
      </trkpt>
      <trkpt lat="44.45278" lon="6.5771">
        <ele>2654</ele>
        <time>2021-04-08T09:05:54Z</time>
      </trkpt>
      <trkpt lat="44.45278" lon="6.57711">
        <ele>2654</ele>
        <time>2021-04-08T09:05:55Z</time>
      </trkpt>
      <trkpt lat="44.45278" lon="6.57711">
        <ele>2655</ele>
        <time>2021-04-08T09:05:56Z</time>
      </trkpt>
      <trkpt lat="44.45277" lon="6.57712">
        <ele>2656</ele>
        <time>2021-04-08T09:05:57Z</time>
      </trkpt>
      <trkpt lat="44.45277" lon="6.57713">
        <ele>2656</ele>
        <time>2021-04-08T09:05:58Z</time>
      </trkpt>
      <trkpt lat="44.45277" lon="6.57714">
        <ele>2657</ele>
        <time>2021-04-08T09:05:59Z</time>
      </trkpt>
      <trkpt lat="44.45277" lon="6.57715">
        <ele>2657</ele>
        <time>2021-04-08T09:06:00Z</time>
      </trkpt>
      <trkpt lat="44.45277" lon="6.57715">
        <ele>2657</ele>
        <time>2021-04-08T09:06:01Z</time>
      </trkpt>
      <trkpt lat="44.45276" lon="6.57715">
        <ele>2657</ele>
        <time>2021-04-08T09:06:02Z</time>
      </trkpt>
      <trkpt lat="44.45276" lon="6.57716">
        <ele>2657</ele>
        <time>2021-04-08T09:06:03Z</time>
      </trkpt>
      <trkpt lat="44.45275" lon="6.57717">
        <ele>2657</ele>
        <time>2021-04-08T09:06:04Z</time>
      </trkpt>
      <trkpt lat="44.45275" lon="6.57718">
        <ele>2658</ele>
        <time>2021-04-08T09:06:05Z</time>
      </trkpt>
      <trkpt lat="44.45275" lon="6.57718">
        <ele>2658</ele>
        <time>2021-04-08T09:06:06Z</time>
      </trkpt>
      <trkpt lat="44.45274" lon="6.57719">
        <ele>2658</ele>
        <time>2021-04-08T09:06:07Z</time>
      </trkpt>
      <trkpt lat="44.45274" lon="6.57719">
        <ele>2658</ele>
        <time>2021-04-08T09:06:08Z</time>
      </trkpt>
      <trkpt lat="44.45273" lon="6.57719">
        <ele>2658</ele>
        <time>2021-04-08T09:06:09Z</time>
      </trkpt>
      <trkpt lat="44.45273" lon="6.5772">
        <ele>2658</ele>
        <time>2021-04-08T09:06:10Z</time>
      </trkpt>
      <trkpt lat="44.45272" lon="6.5772">
        <ele>2658</ele>
        <time>2021-04-08T09:06:11Z</time>
      </trkpt>
      <trkpt lat="44.45272" lon="6.5772">
        <ele>2658</ele>
        <time>2021-04-08T09:06:12Z</time>
      </trkpt>
      <trkpt lat="44.45272" lon="6.57721">
        <ele>2658</ele>
        <time>2021-04-08T09:06:13Z</time>
      </trkpt>
      <trkpt lat="44.45272" lon="6.57722">
        <ele>2658</ele>
        <time>2021-04-08T09:06:14Z</time>
      </trkpt>
      <trkpt lat="44.45271" lon="6.57722">
        <ele>2658</ele>
        <time>2021-04-08T09:06:15Z</time>
      </trkpt>
      <trkpt lat="44.45271" lon="6.57723">
        <ele>2658</ele>
        <time>2021-04-08T09:06:16Z</time>
      </trkpt>
      <trkpt lat="44.45271" lon="6.57724">
        <ele>2658</ele>
        <time>2021-04-08T09:06:17Z</time>
      </trkpt>
      <trkpt lat="44.45271" lon="6.57724">
        <ele>2659</ele>
        <time>2021-04-08T09:06:18Z</time>
      </trkpt>
      <trkpt lat="44.4527" lon="6.57725">
        <ele>2659</ele>
        <time>2021-04-08T09:06:19Z</time>
      </trkpt>
      <trkpt lat="44.4527" lon="6.57725">
        <ele>2659</ele>
        <time>2021-04-08T09:06:20Z</time>
      </trkpt>
      <trkpt lat="44.45269" lon="6.57726">
        <ele>2659</ele>
        <time>2021-04-08T09:06:21Z</time>
      </trkpt>
      <trkpt lat="44.45269" lon="6.57727">
        <ele>2659</ele>
        <time>2021-04-08T09:06:22Z</time>
      </trkpt>
      <trkpt lat="44.45269" lon="6.57727">
        <ele>2659</ele>
        <time>2021-04-08T09:06:23Z</time>
      </trkpt>
      <trkpt lat="44.45268" lon="6.57728">
        <ele>2659</ele>
        <time>2021-04-08T09:06:24Z</time>
      </trkpt>
      <trkpt lat="44.45268" lon="6.57728">
        <ele>2660</ele>
        <time>2021-04-08T09:06:25Z</time>
      </trkpt>
      <trkpt lat="44.45268" lon="6.57729">
        <ele>2660</ele>
        <time>2021-04-08T09:06:26Z</time>
      </trkpt>
      <trkpt lat="44.45267" lon="6.5773">
        <ele>2660</ele>
        <time>2021-04-08T09:06:27Z</time>
      </trkpt>
      <trkpt lat="44.45266" lon="6.5773">
        <ele>2660</ele>
        <time>2021-04-08T09:06:28Z</time>
      </trkpt>
      <trkpt lat="44.45265" lon="6.5773">
        <ele>2660</ele>
        <time>2021-04-08T09:06:29Z</time>
      </trkpt>
      <trkpt lat="44.45265" lon="6.5773">
        <ele>2660</ele>
        <time>2021-04-08T09:06:30Z</time>
      </trkpt>
      <trkpt lat="44.45264" lon="6.5773">
        <ele>2660</ele>
        <time>2021-04-08T09:06:31Z</time>
      </trkpt>
      <trkpt lat="44.45263" lon="6.5773">
        <ele>2660</ele>
        <time>2021-04-08T09:06:32Z</time>
      </trkpt>
      <trkpt lat="44.45263" lon="6.5773">
        <ele>2660</ele>
        <time>2021-04-08T09:06:33Z</time>
      </trkpt>
      <trkpt lat="44.45262" lon="6.5773">
        <ele>2660</ele>
        <time>2021-04-08T09:06:34Z</time>
      </trkpt>
      <trkpt lat="44.45262" lon="6.57731">
        <ele>2660</ele>
        <time>2021-04-08T09:06:35Z</time>
      </trkpt>
      <trkpt lat="44.45261" lon="6.57731">
        <ele>2660</ele>
        <time>2021-04-08T09:06:36Z</time>
      </trkpt>
      <trkpt lat="44.45261" lon="6.57732">
        <ele>2660</ele>
        <time>2021-04-08T09:06:37Z</time>
      </trkpt>
      <trkpt lat="44.4526" lon="6.57732">
        <ele>2660</ele>
        <time>2021-04-08T09:06:38Z</time>
      </trkpt>
      <trkpt lat="44.45259" lon="6.57732">
        <ele>2660</ele>
        <time>2021-04-08T09:06:39Z</time>
      </trkpt>
      <trkpt lat="44.45259" lon="6.57732">
        <ele>2661</ele>
        <time>2021-04-08T09:06:40Z</time>
      </trkpt>
      <trkpt lat="44.45258" lon="6.57732">
        <ele>2661</ele>
        <time>2021-04-08T09:06:41Z</time>
      </trkpt>
      <trkpt lat="44.45257" lon="6.57732">
        <ele>2661</ele>
        <time>2021-04-08T09:06:42Z</time>
      </trkpt>
      <trkpt lat="44.45257" lon="6.57732">
        <ele>2661</ele>
        <time>2021-04-08T09:06:43Z</time>
      </trkpt>
      <trkpt lat="44.45257" lon="6.57733">
        <ele>2661</ele>
        <time>2021-04-08T09:06:44Z</time>
      </trkpt>
      <trkpt lat="44.45257" lon="6.57733">
        <ele>2661</ele>
        <time>2021-04-08T09:06:45Z</time>
      </trkpt>
      <trkpt lat="44.45256" lon="6.57732">
        <ele>2661</ele>
        <time>2021-04-08T09:06:46Z</time>
      </trkpt>
      <trkpt lat="44.45256" lon="6.57732">
        <ele>2661</ele>
        <time>2021-04-08T09:06:47Z</time>
      </trkpt>
      <trkpt lat="44.45256" lon="6.57732">
        <ele>2661</ele>
        <time>2021-04-08T09:06:48Z</time>
      </trkpt>
      <trkpt lat="44.45256" lon="6.57732">
        <ele>2661</ele>
        <time>2021-04-08T09:06:49Z</time>
      </trkpt>
      <trkpt lat="44.45256" lon="6.57733">
        <ele>2661</ele>
        <time>2021-04-08T09:06:50Z</time>
      </trkpt>
      <trkpt lat="44.45256" lon="6.57732">
        <ele>2661</ele>
        <time>2021-04-08T09:06:51Z</time>
      </trkpt>
      <trkpt lat="44.45257" lon="6.57733">
        <ele>2661</ele>
        <time>2021-04-08T09:06:52Z</time>
      </trkpt>
      <trkpt lat="44.45257" lon="6.57733">
        <ele>2661</ele>
        <time>2021-04-08T09:06:53Z</time>
      </trkpt>
      <trkpt lat="44.45257" lon="6.57733">
        <ele>2661</ele>
        <time>2021-04-08T09:06:54Z</time>
      </trkpt>
      <trkpt lat="44.45257" lon="6.57733">
        <ele>2661</ele>
        <time>2021-04-08T09:06:55Z</time>
      </trkpt>
      <trkpt lat="44.45257" lon="6.57733">
        <ele>2661</ele>
        <time>2021-04-08T09:06:56Z</time>
      </trkpt>
      <trkpt lat="44.45257" lon="6.57733">
        <ele>2661</ele>
        <time>2021-04-08T09:06:57Z</time>
      </trkpt>
      <trkpt lat="44.4526" lon="6.57735">
        <ele>2661</ele>
        <time>2021-04-08T09:06:58Z</time>
      </trkpt>
      <trkpt lat="44.45261" lon="6.57735">
        <ele>2661</ele>
        <time>2021-04-08T09:06:59Z</time>
      </trkpt>
      <trkpt lat="44.45261" lon="6.57735">
        <ele>2661</ele>
        <time>2021-04-08T09:07:00Z</time>
      </trkpt>
      <trkpt lat="44.45262" lon="6.57735">
        <ele>2661</ele>
        <time>2021-04-08T09:07:01Z</time>
      </trkpt>
      <trkpt lat="44.45263" lon="6.57736">
        <ele>2660</ele>
        <time>2021-04-08T09:07:02Z</time>
      </trkpt>
      <trkpt lat="44.45263" lon="6.57736">
        <ele>2660</ele>
        <time>2021-04-08T09:07:03Z</time>
      </trkpt>
      <trkpt lat="44.45264" lon="6.57736">
        <ele>2660</ele>
        <time>2021-04-08T09:07:04Z</time>
      </trkpt>
      <trkpt lat="44.45265" lon="6.57737">
        <ele>2660</ele>
        <time>2021-04-08T09:07:05Z</time>
      </trkpt>
      <trkpt lat="44.45265" lon="6.57736">
        <ele>2660</ele>
        <time>2021-04-08T09:07:06Z</time>
      </trkpt>
      <trkpt lat="44.45265" lon="6.57737">
        <ele>2660</ele>
        <time>2021-04-08T09:07:07Z</time>
      </trkpt>
      <trkpt lat="44.45266" lon="6.57738">
        <ele>2660</ele>
        <time>2021-04-08T09:07:08Z</time>
      </trkpt>
      <trkpt lat="44.45267" lon="6.57737">
        <ele>2660</ele>
        <time>2021-04-08T09:07:09Z</time>
      </trkpt>
      <trkpt lat="44.45268" lon="6.57738">
        <ele>2660</ele>
        <time>2021-04-08T09:07:10Z</time>
      </trkpt>
      <trkpt lat="44.45268" lon="6.57737">
        <ele>2660</ele>
        <time>2021-04-08T09:07:11Z</time>
      </trkpt>
      <trkpt lat="44.45268" lon="6.57737">
        <ele>2660</ele>
        <time>2021-04-08T09:07:12Z</time>
      </trkpt>
      <trkpt lat="44.45269" lon="6.57737">
        <ele>2660</ele>
        <time>2021-04-08T09:07:13Z</time>
      </trkpt>
      <trkpt lat="44.45269" lon="6.57737">
        <ele>2660</ele>
        <time>2021-04-08T09:07:14Z</time>
      </trkpt>
      <trkpt lat="44.45269" lon="6.57737">
        <ele>2660</ele>
        <time>2021-04-08T09:07:15Z</time>
      </trkpt>
      <trkpt lat="44.45268" lon="6.57736">
        <ele>2660</ele>
        <time>2021-04-08T09:07:16Z</time>
      </trkpt>
      <trkpt lat="44.45268" lon="6.57736">
        <ele>2660</ele>
        <time>2021-04-08T09:07:17Z</time>
      </trkpt>
      <trkpt lat="44.45267" lon="6.57737">
        <ele>2660</ele>
        <time>2021-04-08T09:07:18Z</time>
      </trkpt>
      <trkpt lat="44.45267" lon="6.57738">
        <ele>2660</ele>
        <time>2021-04-08T09:07:19Z</time>
      </trkpt>
      <trkpt lat="44.45267" lon="6.57738">
        <ele>2660</ele>
        <time>2021-04-08T09:07:20Z</time>
      </trkpt>
      <trkpt lat="44.45266" lon="6.57739">
        <ele>2660</ele>
        <time>2021-04-08T09:07:21Z</time>
      </trkpt>
      <trkpt lat="44.45266" lon="6.57739">
        <ele>2660</ele>
        <time>2021-04-08T09:07:22Z</time>
      </trkpt>
      <trkpt lat="44.45265" lon="6.57739">
        <ele>2661</ele>
        <time>2021-04-08T09:07:23Z</time>
      </trkpt>
      <trkpt lat="44.45265" lon="6.5774">
        <ele>2661</ele>
        <time>2021-04-08T09:07:24Z</time>
      </trkpt>
      <trkpt lat="44.45264" lon="6.5774">
        <ele>2662</ele>
        <time>2021-04-08T09:07:25Z</time>
      </trkpt>
      <trkpt lat="44.45263" lon="6.57741">
        <ele>2662</ele>
        <time>2021-04-08T09:07:26Z</time>
      </trkpt>
      <trkpt lat="44.45263" lon="6.57742">
        <ele>2662</ele>
        <time>2021-04-08T09:07:27Z</time>
      </trkpt>
      <trkpt lat="44.45263" lon="6.57744">
        <ele>2662</ele>
        <time>2021-04-08T09:07:28Z</time>
      </trkpt>
      <trkpt lat="44.45263" lon="6.57745">
        <ele>2663</ele>
        <time>2021-04-08T09:07:29Z</time>
      </trkpt>
      <trkpt lat="44.45262" lon="6.57745">
        <ele>2663</ele>
        <time>2021-04-08T09:07:30Z</time>
      </trkpt>
      <trkpt lat="44.45262" lon="6.57745">
        <ele>2663</ele>
        <time>2021-04-08T09:07:31Z</time>
      </trkpt>
      <trkpt lat="44.45261" lon="6.57745">
        <ele>2663</ele>
        <time>2021-04-08T09:07:32Z</time>
      </trkpt>
      <trkpt lat="44.4526" lon="6.57746">
        <ele>2664</ele>
        <time>2021-04-08T09:07:33Z</time>
      </trkpt>
      <trkpt lat="44.45259" lon="6.57746">
        <ele>2664</ele>
        <time>2021-04-08T09:07:34Z</time>
      </trkpt>
      <trkpt lat="44.45259" lon="6.57746">
        <ele>2664</ele>
        <time>2021-04-08T09:07:35Z</time>
      </trkpt>
      <trkpt lat="44.45257" lon="6.57746">
        <ele>2664</ele>
        <time>2021-04-08T09:07:36Z</time>
      </trkpt>
      <trkpt lat="44.45257" lon="6.57746">
        <ele>2665</ele>
        <time>2021-04-08T09:07:37Z</time>
      </trkpt>
      <trkpt lat="44.45256" lon="6.57746">
        <ele>2665</ele>
        <time>2021-04-08T09:07:38Z</time>
      </trkpt>
      <trkpt lat="44.45255" lon="6.57747">
        <ele>2665</ele>
        <time>2021-04-08T09:07:39Z</time>
      </trkpt>
      <trkpt lat="44.45255" lon="6.57748">
        <ele>2666</ele>
        <time>2021-04-08T09:07:40Z</time>
      </trkpt>
      <trkpt lat="44.45255" lon="6.57748">
        <ele>2666</ele>
        <time>2021-04-08T09:07:41Z</time>
      </trkpt>
      <trkpt lat="44.45254" lon="6.57748">
        <ele>2666</ele>
        <time>2021-04-08T09:07:42Z</time>
      </trkpt>
      <trkpt lat="44.45254" lon="6.57749">
        <ele>2667</ele>
        <time>2021-04-08T09:07:43Z</time>
      </trkpt>
      <trkpt lat="44.45254" lon="6.5775">
        <ele>2668</ele>
        <time>2021-04-08T09:07:44Z</time>
      </trkpt>
      <trkpt lat="44.45254" lon="6.5775">
        <ele>2668</ele>
        <time>2021-04-08T09:07:45Z</time>
      </trkpt>
      <trkpt lat="44.45254" lon="6.5775">
        <ele>2668</ele>
        <time>2021-04-08T09:07:46Z</time>
      </trkpt>
      <trkpt lat="44.45254" lon="6.57751">
        <ele>2668</ele>
        <time>2021-04-08T09:07:47Z</time>
      </trkpt>
      <trkpt lat="44.45253" lon="6.57752">
        <ele>2668</ele>
        <time>2021-04-08T09:07:48Z</time>
      </trkpt>
      <trkpt lat="44.45253" lon="6.57752">
        <ele>2668</ele>
        <time>2021-04-08T09:07:49Z</time>
      </trkpt>
      <trkpt lat="44.45251" lon="6.57752">
        <ele>2669</ele>
        <time>2021-04-08T09:07:50Z</time>
      </trkpt>
      <trkpt lat="44.45251" lon="6.57752">
        <ele>2669</ele>
        <time>2021-04-08T09:07:51Z</time>
      </trkpt>
      <trkpt lat="44.4525" lon="6.57752">
        <ele>2669</ele>
        <time>2021-04-08T09:07:52Z</time>
      </trkpt>
      <trkpt lat="44.45249" lon="6.57752">
        <ele>2669</ele>
        <time>2021-04-08T09:07:53Z</time>
      </trkpt>
      <trkpt lat="44.45249" lon="6.57753">
        <ele>2669</ele>
        <time>2021-04-08T09:07:54Z</time>
      </trkpt>
      <trkpt lat="44.45248" lon="6.57753">
        <ele>2670</ele>
        <time>2021-04-08T09:07:55Z</time>
      </trkpt>
      <trkpt lat="44.45247" lon="6.57753">
        <ele>2670</ele>
        <time>2021-04-08T09:07:56Z</time>
      </trkpt>
      <trkpt lat="44.45247" lon="6.57753">
        <ele>2670</ele>
        <time>2021-04-08T09:07:57Z</time>
      </trkpt>
      <trkpt lat="44.45246" lon="6.57753">
        <ele>2670</ele>
        <time>2021-04-08T09:07:58Z</time>
      </trkpt>
      <trkpt lat="44.45245" lon="6.57754">
        <ele>2670</ele>
        <time>2021-04-08T09:07:59Z</time>
      </trkpt>
      <trkpt lat="44.45245" lon="6.57755">
        <ele>2670</ele>
        <time>2021-04-08T09:08:00Z</time>
      </trkpt>
      <trkpt lat="44.45245" lon="6.57756">
        <ele>2670</ele>
        <time>2021-04-08T09:08:01Z</time>
      </trkpt>
      <trkpt lat="44.45245" lon="6.57757">
        <ele>2670</ele>
        <time>2021-04-08T09:08:02Z</time>
      </trkpt>
      <trkpt lat="44.45245" lon="6.57758">
        <ele>2670</ele>
        <time>2021-04-08T09:08:03Z</time>
      </trkpt>
      <trkpt lat="44.45245" lon="6.57759">
        <ele>2670</ele>
        <time>2021-04-08T09:08:04Z</time>
      </trkpt>
      <trkpt lat="44.45244" lon="6.5776">
        <ele>2670</ele>
        <time>2021-04-08T09:08:05Z</time>
      </trkpt>
      <trkpt lat="44.45244" lon="6.5776">
        <ele>2670</ele>
        <time>2021-04-08T09:08:06Z</time>
      </trkpt>
      <trkpt lat="44.45243" lon="6.5776">
        <ele>2671</ele>
        <time>2021-04-08T09:08:07Z</time>
      </trkpt>
      <trkpt lat="44.45243" lon="6.57761">
        <ele>2671</ele>
        <time>2021-04-08T09:08:08Z</time>
      </trkpt>
      <trkpt lat="44.45242" lon="6.5776">
        <ele>2671</ele>
        <time>2021-04-08T09:08:09Z</time>
      </trkpt>
      <trkpt lat="44.45241" lon="6.57758">
        <ele>2671</ele>
        <time>2021-04-08T09:08:10Z</time>
      </trkpt>
      <trkpt lat="44.45241" lon="6.57758">
        <ele>2672</ele>
        <time>2021-04-08T09:08:11Z</time>
      </trkpt>
      <trkpt lat="44.45241" lon="6.57759">
        <ele>2672</ele>
        <time>2021-04-08T09:08:12Z</time>
      </trkpt>
      <trkpt lat="44.4524" lon="6.57758">
        <ele>2672</ele>
        <time>2021-04-08T09:08:13Z</time>
      </trkpt>
      <trkpt lat="44.45239" lon="6.57758">
        <ele>2672</ele>
        <time>2021-04-08T09:08:14Z</time>
      </trkpt>
      <trkpt lat="44.45239" lon="6.57758">
        <ele>2672</ele>
        <time>2021-04-08T09:08:15Z</time>
      </trkpt>
      <trkpt lat="44.45238" lon="6.57757">
        <ele>2672</ele>
        <time>2021-04-08T09:08:16Z</time>
      </trkpt>
      <trkpt lat="44.45238" lon="6.57757">
        <ele>2673</ele>
        <time>2021-04-08T09:08:17Z</time>
      </trkpt>
      <trkpt lat="44.45237" lon="6.57757">
        <ele>2673</ele>
        <time>2021-04-08T09:08:18Z</time>
      </trkpt>
      <trkpt lat="44.45237" lon="6.57757">
        <ele>2673</ele>
        <time>2021-04-08T09:08:19Z</time>
      </trkpt>
      <trkpt lat="44.45236" lon="6.57757">
        <ele>2674</ele>
        <time>2021-04-08T09:08:20Z</time>
      </trkpt>
      <trkpt lat="44.45236" lon="6.57756">
        <ele>2674</ele>
        <time>2021-04-08T09:08:21Z</time>
      </trkpt>
      <trkpt lat="44.45236" lon="6.57757">
        <ele>2674</ele>
        <time>2021-04-08T09:08:22Z</time>
      </trkpt>
      <trkpt lat="44.45235" lon="6.57757">
        <ele>2674</ele>
        <time>2021-04-08T09:08:23Z</time>
      </trkpt>
      <trkpt lat="44.45235" lon="6.57756">
        <ele>2674</ele>
        <time>2021-04-08T09:08:24Z</time>
      </trkpt>
      <trkpt lat="44.45235" lon="6.57756">
        <ele>2674</ele>
        <time>2021-04-08T09:08:25Z</time>
      </trkpt>
      <trkpt lat="44.45234" lon="6.57756">
        <ele>2674</ele>
        <time>2021-04-08T09:08:26Z</time>
      </trkpt>
      <trkpt lat="44.45234" lon="6.57756">
        <ele>2674</ele>
        <time>2021-04-08T09:08:27Z</time>
      </trkpt>
      <trkpt lat="44.45234" lon="6.57756">
        <ele>2674</ele>
        <time>2021-04-08T09:08:28Z</time>
      </trkpt>
      <trkpt lat="44.45234" lon="6.57756">
        <ele>2675</ele>
        <time>2021-04-08T09:08:29Z</time>
      </trkpt>
      <trkpt lat="44.45234" lon="6.57756">
        <ele>2675</ele>
        <time>2021-04-08T09:08:30Z</time>
      </trkpt>
      <trkpt lat="44.45234" lon="6.57756">
        <ele>2675</ele>
        <time>2021-04-08T09:08:31Z</time>
      </trkpt>
      <trkpt lat="44.45234" lon="6.57756">
        <ele>2675</ele>
        <time>2021-04-08T09:08:32Z</time>
      </trkpt>
      <trkpt lat="44.45232" lon="6.57757">
        <ele>2676</ele>
        <time>2021-04-08T09:08:33Z</time>
      </trkpt>
      <trkpt lat="44.45231" lon="6.57757">
        <ele>2676</ele>
        <time>2021-04-08T09:08:34Z</time>
      </trkpt>
      <trkpt lat="44.4523" lon="6.57757">
        <ele>2677</ele>
        <time>2021-04-08T09:08:35Z</time>
      </trkpt>
      <trkpt lat="44.45229" lon="6.57757">
        <ele>2677</ele>
        <time>2021-04-08T09:08:36Z</time>
      </trkpt>
      <trkpt lat="44.45228" lon="6.57756">
        <ele>2677</ele>
        <time>2021-04-08T09:08:37Z</time>
      </trkpt>
      <trkpt lat="44.45227" lon="6.57756">
        <ele>2678</ele>
        <time>2021-04-08T09:08:38Z</time>
      </trkpt>
      <trkpt lat="44.45227" lon="6.57756">
        <ele>2678</ele>
        <time>2021-04-08T09:08:39Z</time>
      </trkpt>
      <trkpt lat="44.45226" lon="6.57755">
        <ele>2678</ele>
        <time>2021-04-08T09:08:40Z</time>
      </trkpt>
      <trkpt lat="44.45226" lon="6.57756">
        <ele>2678</ele>
        <time>2021-04-08T09:08:41Z</time>
      </trkpt>
      <trkpt lat="44.45225" lon="6.57757">
        <ele>2679</ele>
        <time>2021-04-08T09:08:42Z</time>
      </trkpt>
      <trkpt lat="44.45224" lon="6.57757">
        <ele>2679</ele>
        <time>2021-04-08T09:08:43Z</time>
      </trkpt>
      <trkpt lat="44.45224" lon="6.57758">
        <ele>2679</ele>
        <time>2021-04-08T09:08:44Z</time>
      </trkpt>
      <trkpt lat="44.45223" lon="6.57758">
        <ele>2680</ele>
        <time>2021-04-08T09:08:45Z</time>
      </trkpt>
      <trkpt lat="44.45223" lon="6.57759">
        <ele>2680</ele>
        <time>2021-04-08T09:08:46Z</time>
      </trkpt>
      <trkpt lat="44.45222" lon="6.57759">
        <ele>2680</ele>
        <time>2021-04-08T09:08:47Z</time>
      </trkpt>
      <trkpt lat="44.45221" lon="6.57761">
        <ele>2681</ele>
        <time>2021-04-08T09:08:48Z</time>
      </trkpt>
      <trkpt lat="44.45221" lon="6.57761">
        <ele>2681</ele>
        <time>2021-04-08T09:08:49Z</time>
      </trkpt>
      <trkpt lat="44.4522" lon="6.57761">
        <ele>2681</ele>
        <time>2021-04-08T09:08:50Z</time>
      </trkpt>
      <trkpt lat="44.4522" lon="6.57761">
        <ele>2681</ele>
        <time>2021-04-08T09:08:51Z</time>
      </trkpt>
      <trkpt lat="44.45219" lon="6.57761">
        <ele>2681</ele>
        <time>2021-04-08T09:08:52Z</time>
      </trkpt>
      <trkpt lat="44.45219" lon="6.5776">
        <ele>2682</ele>
        <time>2021-04-08T09:08:53Z</time>
      </trkpt>
      <trkpt lat="44.45218" lon="6.5776">
        <ele>2682</ele>
        <time>2021-04-08T09:08:54Z</time>
      </trkpt>
      <trkpt lat="44.45218" lon="6.5776">
        <ele>2682</ele>
        <time>2021-04-08T09:08:55Z</time>
      </trkpt>
      <trkpt lat="44.45217" lon="6.5776">
        <ele>2682</ele>
        <time>2021-04-08T09:08:56Z</time>
      </trkpt>
      <trkpt lat="44.45217" lon="6.5776">
        <ele>2682</ele>
        <time>2021-04-08T09:08:57Z</time>
      </trkpt>
      <trkpt lat="44.45217" lon="6.5776">
        <ele>2682</ele>
        <time>2021-04-08T09:08:58Z</time>
      </trkpt>
      <trkpt lat="44.45217" lon="6.5776">
        <ele>2682</ele>
        <time>2021-04-08T09:08:59Z</time>
      </trkpt>
      <trkpt lat="44.45217" lon="6.57759">
        <ele>2682</ele>
        <time>2021-04-08T09:09:00Z</time>
      </trkpt>
      <trkpt lat="44.45217" lon="6.5776">
        <ele>2683</ele>
        <time>2021-04-08T09:09:01Z</time>
      </trkpt>
      <trkpt lat="44.45217" lon="6.5776">
        <ele>2683</ele>
        <time>2021-04-08T09:09:02Z</time>
      </trkpt>
      <trkpt lat="44.45217" lon="6.5776">
        <ele>2683</ele>
        <time>2021-04-08T09:09:03Z</time>
      </trkpt>
      <trkpt lat="44.45218" lon="6.57761">
        <ele>2683</ele>
        <time>2021-04-08T09:09:04Z</time>
      </trkpt>
      <trkpt lat="44.45218" lon="6.57762">
        <ele>2683</ele>
        <time>2021-04-08T09:09:05Z</time>
      </trkpt>
      <trkpt lat="44.45218" lon="6.57763">
        <ele>2683</ele>
        <time>2021-04-08T09:09:06Z</time>
      </trkpt>
      <trkpt lat="44.45219" lon="6.57764">
        <ele>2683</ele>
        <time>2021-04-08T09:09:07Z</time>
      </trkpt>
      <trkpt lat="44.45219" lon="6.57765">
        <ele>2683</ele>
        <time>2021-04-08T09:09:08Z</time>
      </trkpt>
      <trkpt lat="44.4522" lon="6.57766">
        <ele>2683</ele>
        <time>2021-04-08T09:09:09Z</time>
      </trkpt>
      <trkpt lat="44.4522" lon="6.57767">
        <ele>2683</ele>
        <time>2021-04-08T09:09:10Z</time>
      </trkpt>
      <trkpt lat="44.4522" lon="6.57768">
        <ele>2683</ele>
        <time>2021-04-08T09:09:11Z</time>
      </trkpt>
      <trkpt lat="44.4522" lon="6.57769">
        <ele>2683</ele>
        <time>2021-04-08T09:09:12Z</time>
      </trkpt>
      <trkpt lat="44.45221" lon="6.57769">
        <ele>2683</ele>
        <time>2021-04-08T09:09:13Z</time>
      </trkpt>
      <trkpt lat="44.45221" lon="6.57771">
        <ele>2683</ele>
        <time>2021-04-08T09:09:14Z</time>
      </trkpt>
      <trkpt lat="44.45221" lon="6.57772">
        <ele>2683</ele>
        <time>2021-04-08T09:09:15Z</time>
      </trkpt>
      <trkpt lat="44.45221" lon="6.57772">
        <ele>2683</ele>
        <time>2021-04-08T09:09:16Z</time>
      </trkpt>
      <trkpt lat="44.45221" lon="6.57773">
        <ele>2683</ele>
        <time>2021-04-08T09:09:17Z</time>
      </trkpt>
      <trkpt lat="44.45222" lon="6.57774">
        <ele>2683</ele>
        <time>2021-04-08T09:09:18Z</time>
      </trkpt>
      <trkpt lat="44.45222" lon="6.57774">
        <ele>2683</ele>
        <time>2021-04-08T09:09:19Z</time>
      </trkpt>
      <trkpt lat="44.45223" lon="6.57775">
        <ele>2683</ele>
        <time>2021-04-08T09:09:20Z</time>
      </trkpt>
      <trkpt lat="44.45223" lon="6.57775">
        <ele>2683</ele>
        <time>2021-04-08T09:09:21Z</time>
      </trkpt>
      <trkpt lat="44.45223" lon="6.57776">
        <ele>2683</ele>
        <time>2021-04-08T09:09:22Z</time>
      </trkpt>
      <trkpt lat="44.45224" lon="6.57776">
        <ele>2683</ele>
        <time>2021-04-08T09:09:23Z</time>
      </trkpt>
      <trkpt lat="44.45224" lon="6.57777">
        <ele>2683</ele>
        <time>2021-04-08T09:09:24Z</time>
      </trkpt>
      <trkpt lat="44.45225" lon="6.57777">
        <ele>2683</ele>
        <time>2021-04-08T09:09:25Z</time>
      </trkpt>
      <trkpt lat="44.45225" lon="6.57778">
        <ele>2683</ele>
        <time>2021-04-08T09:09:26Z</time>
      </trkpt>
      <trkpt lat="44.45226" lon="6.57778">
        <ele>2683</ele>
        <time>2021-04-08T09:09:27Z</time>
      </trkpt>
      <trkpt lat="44.45227" lon="6.57779">
        <ele>2683</ele>
        <time>2021-04-08T09:09:28Z</time>
      </trkpt>
      <trkpt lat="44.45227" lon="6.57779">
        <ele>2683</ele>
        <time>2021-04-08T09:09:29Z</time>
      </trkpt>
      <trkpt lat="44.45228" lon="6.5778">
        <ele>2683</ele>
        <time>2021-04-08T09:09:30Z</time>
      </trkpt>
      <trkpt lat="44.45228" lon="6.5778">
        <ele>2683</ele>
        <time>2021-04-08T09:09:31Z</time>
      </trkpt>
      <trkpt lat="44.45229" lon="6.5778">
        <ele>2683</ele>
        <time>2021-04-08T09:09:32Z</time>
      </trkpt>
      <trkpt lat="44.45229" lon="6.5778">
        <ele>2683</ele>
        <time>2021-04-08T09:09:33Z</time>
      </trkpt>
      <trkpt lat="44.4523" lon="6.57781">
        <ele>2683</ele>
        <time>2021-04-08T09:09:34Z</time>
      </trkpt>
      <trkpt lat="44.4523" lon="6.57782">
        <ele>2683</ele>
        <time>2021-04-08T09:09:35Z</time>
      </trkpt>
      <trkpt lat="44.45231" lon="6.57782">
        <ele>2683</ele>
        <time>2021-04-08T09:09:36Z</time>
      </trkpt>
      <trkpt lat="44.45231" lon="6.57783">
        <ele>2683</ele>
        <time>2021-04-08T09:09:37Z</time>
      </trkpt>
      <trkpt lat="44.45232" lon="6.57783">
        <ele>2683</ele>
        <time>2021-04-08T09:09:38Z</time>
      </trkpt>
      <trkpt lat="44.45232" lon="6.57784">
        <ele>2683</ele>
        <time>2021-04-08T09:09:39Z</time>
      </trkpt>
      <trkpt lat="44.45232" lon="6.57784">
        <ele>2683</ele>
        <time>2021-04-08T09:09:40Z</time>
      </trkpt>
      <trkpt lat="44.45233" lon="6.57785">
        <ele>2683</ele>
        <time>2021-04-08T09:09:41Z</time>
      </trkpt>
      <trkpt lat="44.45233" lon="6.57786">
        <ele>2683</ele>
        <time>2021-04-08T09:09:42Z</time>
      </trkpt>
      <trkpt lat="44.45233" lon="6.57786">
        <ele>2683</ele>
        <time>2021-04-08T09:09:43Z</time>
      </trkpt>
      <trkpt lat="44.45233" lon="6.57787">
        <ele>2683</ele>
        <time>2021-04-08T09:09:44Z</time>
      </trkpt>
      <trkpt lat="44.45233" lon="6.57787">
        <ele>2683</ele>
        <time>2021-04-08T09:09:45Z</time>
      </trkpt>
      <trkpt lat="44.45233" lon="6.57786">
        <ele>2683</ele>
        <time>2021-04-08T09:09:46Z</time>
      </trkpt>
      <trkpt lat="44.45233" lon="6.57786">
        <ele>2683</ele>
        <time>2021-04-08T09:09:47Z</time>
      </trkpt>
      <trkpt lat="44.45233" lon="6.57786">
        <ele>2683</ele>
        <time>2021-04-08T09:09:48Z</time>
      </trkpt>
      <trkpt lat="44.45233" lon="6.57786">
        <ele>2683</ele>
        <time>2021-04-08T09:09:49Z</time>
      </trkpt>
      <trkpt lat="44.45233" lon="6.57786">
        <ele>2683</ele>
        <time>2021-04-08T09:09:50Z</time>
      </trkpt>
      <trkpt lat="44.45233" lon="6.57786">
        <ele>2684</ele>
        <time>2021-04-08T09:09:51Z</time>
      </trkpt>
      <trkpt lat="44.45231" lon="6.57786">
        <ele>2684</ele>
        <time>2021-04-08T09:09:52Z</time>
      </trkpt>
      <trkpt lat="44.45231" lon="6.57785">
        <ele>2684</ele>
        <time>2021-04-08T09:09:53Z</time>
      </trkpt>
      <trkpt lat="44.4523" lon="6.57785">
        <ele>2684</ele>
        <time>2021-04-08T09:09:54Z</time>
      </trkpt>
      <trkpt lat="44.4523" lon="6.57785">
        <ele>2684</ele>
        <time>2021-04-08T09:09:55Z</time>
      </trkpt>
      <trkpt lat="44.45229" lon="6.57785">
        <ele>2686</ele>
        <time>2021-04-08T09:09:56Z</time>
      </trkpt>
      <trkpt lat="44.45228" lon="6.57785">
        <ele>2687</ele>
        <time>2021-04-08T09:09:57Z</time>
      </trkpt>
      <trkpt lat="44.45228" lon="6.57785">
        <ele>2687</ele>
        <time>2021-04-08T09:09:58Z</time>
      </trkpt>
      <trkpt lat="44.45227" lon="6.57786">
        <ele>2687</ele>
        <time>2021-04-08T09:09:59Z</time>
      </trkpt>
      <trkpt lat="44.45227" lon="6.57786">
        <ele>2687</ele>
        <time>2021-04-08T09:10:00Z</time>
      </trkpt>
      <trkpt lat="44.45226" lon="6.57787">
        <ele>2688</ele>
        <time>2021-04-08T09:10:01Z</time>
      </trkpt>
      <trkpt lat="44.45225" lon="6.57787">
        <ele>2688</ele>
        <time>2021-04-08T09:10:02Z</time>
      </trkpt>
      <trkpt lat="44.45224" lon="6.57787">
        <ele>2689</ele>
        <time>2021-04-08T09:10:03Z</time>
      </trkpt>
      <trkpt lat="44.45224" lon="6.57787">
        <ele>2689</ele>
        <time>2021-04-08T09:10:04Z</time>
      </trkpt>
      <trkpt lat="44.45224" lon="6.57788">
        <ele>2689</ele>
        <time>2021-04-08T09:10:05Z</time>
      </trkpt>
      <trkpt lat="44.45223" lon="6.57788">
        <ele>2689</ele>
        <time>2021-04-08T09:10:06Z</time>
      </trkpt>
      <trkpt lat="44.45223" lon="6.57789">
        <ele>2690</ele>
        <time>2021-04-08T09:10:07Z</time>
      </trkpt>
      <trkpt lat="44.45223" lon="6.57789">
        <ele>2690</ele>
        <time>2021-04-08T09:10:08Z</time>
      </trkpt>
      <trkpt lat="44.45223" lon="6.5779">
        <ele>2690</ele>
        <time>2021-04-08T09:10:09Z</time>
      </trkpt>
      <trkpt lat="44.45223" lon="6.5779">
        <ele>2690</ele>
        <time>2021-04-08T09:10:10Z</time>
      </trkpt>
      <trkpt lat="44.45222" lon="6.57791">
        <ele>2690</ele>
        <time>2021-04-08T09:10:11Z</time>
      </trkpt>
      <trkpt lat="44.45221" lon="6.57791">
        <ele>2690</ele>
        <time>2021-04-08T09:10:12Z</time>
      </trkpt>
      <trkpt lat="44.45221" lon="6.57791">
        <ele>2690</ele>
        <time>2021-04-08T09:10:13Z</time>
      </trkpt>
      <trkpt lat="44.45221" lon="6.57792">
        <ele>2691</ele>
        <time>2021-04-08T09:10:14Z</time>
      </trkpt>
      <trkpt lat="44.4522" lon="6.57792">
        <ele>2691</ele>
        <time>2021-04-08T09:10:15Z</time>
      </trkpt>
      <trkpt lat="44.4522" lon="6.57792">
        <ele>2691</ele>
        <time>2021-04-08T09:10:16Z</time>
      </trkpt>
      <trkpt lat="44.45219" lon="6.57793">
        <ele>2691</ele>
        <time>2021-04-08T09:10:17Z</time>
      </trkpt>
      <trkpt lat="44.45219" lon="6.57793">
        <ele>2692</ele>
        <time>2021-04-08T09:10:18Z</time>
      </trkpt>
      <trkpt lat="44.45218" lon="6.57793">
        <ele>2692</ele>
        <time>2021-04-08T09:10:19Z</time>
      </trkpt>
      <trkpt lat="44.45217" lon="6.57793">
        <ele>2692</ele>
        <time>2021-04-08T09:10:20Z</time>
      </trkpt>
      <trkpt lat="44.45216" lon="6.57793">
        <ele>2692</ele>
        <time>2021-04-08T09:10:21Z</time>
      </trkpt>
      <trkpt lat="44.45215" lon="6.57793">
        <ele>2692</ele>
        <time>2021-04-08T09:10:22Z</time>
      </trkpt>
      <trkpt lat="44.45215" lon="6.57793">
        <ele>2692</ele>
        <time>2021-04-08T09:10:23Z</time>
      </trkpt>
      <trkpt lat="44.45215" lon="6.57793">
        <ele>2692</ele>
        <time>2021-04-08T09:10:24Z</time>
      </trkpt>
      <trkpt lat="44.45214" lon="6.57794">
        <ele>2693</ele>
        <time>2021-04-08T09:10:25Z</time>
      </trkpt>
      <trkpt lat="44.45214" lon="6.57794">
        <ele>2693</ele>
        <time>2021-04-08T09:10:26Z</time>
      </trkpt>
      <trkpt lat="44.45213" lon="6.57794">
        <ele>2693</ele>
        <time>2021-04-08T09:10:27Z</time>
      </trkpt>
      <trkpt lat="44.45212" lon="6.57794">
        <ele>2693</ele>
        <time>2021-04-08T09:10:28Z</time>
      </trkpt>
      <trkpt lat="44.45212" lon="6.57794">
        <ele>2693</ele>
        <time>2021-04-08T09:10:29Z</time>
      </trkpt>
      <trkpt lat="44.45212" lon="6.57794">
        <ele>2693</ele>
        <time>2021-04-08T09:10:30Z</time>
      </trkpt>
      <trkpt lat="44.45211" lon="6.57794">
        <ele>2694</ele>
        <time>2021-04-08T09:10:31Z</time>
      </trkpt>
      <trkpt lat="44.4521" lon="6.57794">
        <ele>2694</ele>
        <time>2021-04-08T09:10:32Z</time>
      </trkpt>
      <trkpt lat="44.45209" lon="6.57794">
        <ele>2694</ele>
        <time>2021-04-08T09:10:33Z</time>
      </trkpt>
      <trkpt lat="44.45209" lon="6.57794">
        <ele>2694</ele>
        <time>2021-04-08T09:10:34Z</time>
      </trkpt>
      <trkpt lat="44.45209" lon="6.57794">
        <ele>2694</ele>
        <time>2021-04-08T09:10:35Z</time>
      </trkpt>
      <trkpt lat="44.45208" lon="6.57794">
        <ele>2694</ele>
        <time>2021-04-08T09:10:36Z</time>
      </trkpt>
      <trkpt lat="44.45208" lon="6.57795">
        <ele>2695</ele>
        <time>2021-04-08T09:10:37Z</time>
      </trkpt>
      <trkpt lat="44.45207" lon="6.57795">
        <ele>2695</ele>
        <time>2021-04-08T09:10:38Z</time>
      </trkpt>
      <trkpt lat="44.45206" lon="6.57795">
        <ele>2695</ele>
        <time>2021-04-08T09:10:39Z</time>
      </trkpt>
      <trkpt lat="44.45206" lon="6.57795">
        <ele>2695</ele>
        <time>2021-04-08T09:10:40Z</time>
      </trkpt>
      <trkpt lat="44.45206" lon="6.57795">
        <ele>2695</ele>
        <time>2021-04-08T09:10:41Z</time>
      </trkpt>
      <trkpt lat="44.45205" lon="6.57794">
        <ele>2696</ele>
        <time>2021-04-08T09:10:42Z</time>
      </trkpt>
      <trkpt lat="44.45205" lon="6.57794">
        <ele>2696</ele>
        <time>2021-04-08T09:10:43Z</time>
      </trkpt>
      <trkpt lat="44.45204" lon="6.57794">
        <ele>2696</ele>
        <time>2021-04-08T09:10:44Z</time>
      </trkpt>
      <trkpt lat="44.45203" lon="6.57794">
        <ele>2696</ele>
        <time>2021-04-08T09:10:45Z</time>
      </trkpt>
      <trkpt lat="44.45203" lon="6.57793">
        <ele>2696</ele>
        <time>2021-04-08T09:10:46Z</time>
      </trkpt>
      <trkpt lat="44.45203" lon="6.57793">
        <ele>2696</ele>
        <time>2021-04-08T09:10:47Z</time>
      </trkpt>
      <trkpt lat="44.45202" lon="6.57793">
        <ele>2697</ele>
        <time>2021-04-08T09:10:48Z</time>
      </trkpt>
      <trkpt lat="44.45202" lon="6.57793">
        <ele>2697</ele>
        <time>2021-04-08T09:10:49Z</time>
      </trkpt>
      <trkpt lat="44.45201" lon="6.57793">
        <ele>2697</ele>
        <time>2021-04-08T09:10:50Z</time>
      </trkpt>
      <trkpt lat="44.45201" lon="6.57793">
        <ele>2697</ele>
        <time>2021-04-08T09:10:51Z</time>
      </trkpt>
      <trkpt lat="44.452" lon="6.57792">
        <ele>2697</ele>
        <time>2021-04-08T09:10:52Z</time>
      </trkpt>
      <trkpt lat="44.452" lon="6.57792">
        <ele>2697</ele>
        <time>2021-04-08T09:10:53Z</time>
      </trkpt>
      <trkpt lat="44.452" lon="6.57792">
        <ele>2698</ele>
        <time>2021-04-08T09:10:54Z</time>
      </trkpt>
      <trkpt lat="44.45199" lon="6.57791">
        <ele>2698</ele>
        <time>2021-04-08T09:10:55Z</time>
      </trkpt>
      <trkpt lat="44.45198" lon="6.57791">
        <ele>2698</ele>
        <time>2021-04-08T09:10:56Z</time>
      </trkpt>
      <trkpt lat="44.45197" lon="6.57791">
        <ele>2698</ele>
        <time>2021-04-08T09:10:57Z</time>
      </trkpt>
      <trkpt lat="44.45197" lon="6.57791">
        <ele>2698</ele>
        <time>2021-04-08T09:10:58Z</time>
      </trkpt>
      <trkpt lat="44.45196" lon="6.57791">
        <ele>2699</ele>
        <time>2021-04-08T09:10:59Z</time>
      </trkpt>
      <trkpt lat="44.45196" lon="6.57791">
        <ele>2699</ele>
        <time>2021-04-08T09:11:00Z</time>
      </trkpt>
      <trkpt lat="44.45195" lon="6.57791">
        <ele>2699</ele>
        <time>2021-04-08T09:11:01Z</time>
      </trkpt>
      <trkpt lat="44.45195" lon="6.57791">
        <ele>2699</ele>
        <time>2021-04-08T09:11:02Z</time>
      </trkpt>
      <trkpt lat="44.45194" lon="6.57791">
        <ele>2699</ele>
        <time>2021-04-08T09:11:03Z</time>
      </trkpt>
      <trkpt lat="44.45194" lon="6.5779">
        <ele>2699</ele>
        <time>2021-04-08T09:11:04Z</time>
      </trkpt>
      <trkpt lat="44.45193" lon="6.5779">
        <ele>2699</ele>
        <time>2021-04-08T09:11:05Z</time>
      </trkpt>
      <trkpt lat="44.45193" lon="6.5779">
        <ele>2699</ele>
        <time>2021-04-08T09:11:06Z</time>
      </trkpt>
      <trkpt lat="44.45192" lon="6.57789">
        <ele>2699</ele>
        <time>2021-04-08T09:11:07Z</time>
      </trkpt>
      <trkpt lat="44.45192" lon="6.57789">
        <ele>2699</ele>
        <time>2021-04-08T09:11:08Z</time>
      </trkpt>
      <trkpt lat="44.45191" lon="6.57788">
        <ele>2700</ele>
        <time>2021-04-08T09:11:09Z</time>
      </trkpt>
      <trkpt lat="44.45191" lon="6.57789">
        <ele>2700</ele>
        <time>2021-04-08T09:11:10Z</time>
      </trkpt>
      <trkpt lat="44.45191" lon="6.57788">
        <ele>2700</ele>
        <time>2021-04-08T09:11:11Z</time>
      </trkpt>
      <trkpt lat="44.4519" lon="6.57789">
        <ele>2700</ele>
        <time>2021-04-08T09:11:12Z</time>
      </trkpt>
      <trkpt lat="44.4519" lon="6.57789">
        <ele>2700</ele>
        <time>2021-04-08T09:11:13Z</time>
      </trkpt>
      <trkpt lat="44.45189" lon="6.57789">
        <ele>2700</ele>
        <time>2021-04-08T09:11:14Z</time>
      </trkpt>
      <trkpt lat="44.45189" lon="6.5779">
        <ele>2701</ele>
        <time>2021-04-08T09:11:15Z</time>
      </trkpt>
      <trkpt lat="44.45188" lon="6.57789">
        <ele>2701</ele>
        <time>2021-04-08T09:11:16Z</time>
      </trkpt>
      <trkpt lat="44.45188" lon="6.57789">
        <ele>2701</ele>
        <time>2021-04-08T09:11:17Z</time>
      </trkpt>
      <trkpt lat="44.45187" lon="6.57789">
        <ele>2701</ele>
        <time>2021-04-08T09:11:18Z</time>
      </trkpt>
      <trkpt lat="44.45187" lon="6.57789">
        <ele>2701</ele>
        <time>2021-04-08T09:11:19Z</time>
      </trkpt>
      <trkpt lat="44.45187" lon="6.57789">
        <ele>2701</ele>
        <time>2021-04-08T09:11:20Z</time>
      </trkpt>
      <trkpt lat="44.45187" lon="6.57789">
        <ele>2701</ele>
        <time>2021-04-08T09:11:21Z</time>
      </trkpt>
      <trkpt lat="44.45187" lon="6.5779">
        <ele>2702</ele>
        <time>2021-04-08T09:11:22Z</time>
      </trkpt>
      <trkpt lat="44.45187" lon="6.5779">
        <ele>2702</ele>
        <time>2021-04-08T09:11:23Z</time>
      </trkpt>
      <trkpt lat="44.45187" lon="6.5779">
        <ele>2702</ele>
        <time>2021-04-08T09:11:24Z</time>
      </trkpt>
      <trkpt lat="44.45187" lon="6.5779">
        <ele>2702</ele>
        <time>2021-04-08T09:11:25Z</time>
      </trkpt>
      <trkpt lat="44.45187" lon="6.5779">
        <ele>2702</ele>
        <time>2021-04-08T09:11:26Z</time>
      </trkpt>
      <trkpt lat="44.45187" lon="6.5779">
        <ele>2702</ele>
        <time>2021-04-08T09:11:27Z</time>
      </trkpt>
      <trkpt lat="44.45187" lon="6.5779">
        <ele>2702</ele>
        <time>2021-04-08T09:11:28Z</time>
      </trkpt>
      <trkpt lat="44.45187" lon="6.5779">
        <ele>2702</ele>
        <time>2021-04-08T09:11:29Z</time>
      </trkpt>
      <trkpt lat="44.45187" lon="6.5779">
        <ele>2702</ele>
        <time>2021-04-08T09:11:30Z</time>
      </trkpt>
      <trkpt lat="44.45187" lon="6.5779">
        <ele>2702</ele>
        <time>2021-04-08T09:11:31Z</time>
      </trkpt>
      <trkpt lat="44.45187" lon="6.5779">
        <ele>2702</ele>
        <time>2021-04-08T09:11:32Z</time>
      </trkpt>
      <trkpt lat="44.45187" lon="6.5779">
        <ele>2702</ele>
        <time>2021-04-08T09:11:33Z</time>
      </trkpt>
      <trkpt lat="44.45187" lon="6.5779">
        <ele>2702</ele>
        <time>2021-04-08T09:11:34Z</time>
      </trkpt>
      <trkpt lat="44.45187" lon="6.5779">
        <ele>2702</ele>
        <time>2021-04-08T09:11:35Z</time>
      </trkpt>
      <trkpt lat="44.45187" lon="6.5779">
        <ele>2702</ele>
        <time>2021-04-08T09:11:36Z</time>
      </trkpt>
      <trkpt lat="44.45187" lon="6.5779">
        <ele>2702</ele>
        <time>2021-04-08T09:11:37Z</time>
      </trkpt>
      <trkpt lat="44.45187" lon="6.5779">
        <ele>2702</ele>
        <time>2021-04-08T09:11:38Z</time>
      </trkpt>
      <trkpt lat="44.45187" lon="6.5779">
        <ele>2702</ele>
        <time>2021-04-08T09:11:39Z</time>
      </trkpt>
      <trkpt lat="44.45187" lon="6.5779">
        <ele>2702</ele>
        <time>2021-04-08T09:11:40Z</time>
      </trkpt>
      <trkpt lat="44.45187" lon="6.5779">
        <ele>2702</ele>
        <time>2021-04-08T09:11:41Z</time>
      </trkpt>
      <trkpt lat="44.45187" lon="6.5779">
        <ele>2702</ele>
        <time>2021-04-08T09:11:42Z</time>
      </trkpt>
      <trkpt lat="44.45187" lon="6.5779">
        <ele>2702</ele>
        <time>2021-04-08T09:11:43Z</time>
      </trkpt>
      <trkpt lat="44.45185" lon="6.57792">
        <ele>2703</ele>
        <time>2021-04-08T09:11:44Z</time>
      </trkpt>
      <trkpt lat="44.45184" lon="6.57793">
        <ele>2703</ele>
        <time>2021-04-08T09:11:45Z</time>
      </trkpt>
      <trkpt lat="44.45183" lon="6.57794">
        <ele>2703</ele>
        <time>2021-04-08T09:11:46Z</time>
      </trkpt>
      <trkpt lat="44.45183" lon="6.57794">
        <ele>2703</ele>
        <time>2021-04-08T09:11:47Z</time>
      </trkpt>
      <trkpt lat="44.45182" lon="6.57794">
        <ele>2703</ele>
        <time>2021-04-08T09:11:48Z</time>
      </trkpt>
      <trkpt lat="44.45181" lon="6.57795">
        <ele>2703</ele>
        <time>2021-04-08T09:11:49Z</time>
      </trkpt>
      <trkpt lat="44.45181" lon="6.57795">
        <ele>2703</ele>
        <time>2021-04-08T09:11:50Z</time>
      </trkpt>
      <trkpt lat="44.4518" lon="6.57795">
        <ele>2703</ele>
        <time>2021-04-08T09:11:51Z</time>
      </trkpt>
      <trkpt lat="44.4518" lon="6.57796">
        <ele>2702</ele>
        <time>2021-04-08T09:11:52Z</time>
      </trkpt>
      <trkpt lat="44.45179" lon="6.57796">
        <ele>2702</ele>
        <time>2021-04-08T09:11:53Z</time>
      </trkpt>
      <trkpt lat="44.45179" lon="6.57796">
        <ele>2702</ele>
        <time>2021-04-08T09:11:54Z</time>
      </trkpt>
      <trkpt lat="44.45178" lon="6.57796">
        <ele>2703</ele>
        <time>2021-04-08T09:11:55Z</time>
      </trkpt>
      <trkpt lat="44.45178" lon="6.57797">
        <ele>2703</ele>
        <time>2021-04-08T09:11:56Z</time>
      </trkpt>
      <trkpt lat="44.45177" lon="6.57797">
        <ele>2703</ele>
        <time>2021-04-08T09:11:57Z</time>
      </trkpt>
      <trkpt lat="44.45176" lon="6.57797">
        <ele>2703</ele>
        <time>2021-04-08T09:11:58Z</time>
      </trkpt>
      <trkpt lat="44.45175" lon="6.57797">
        <ele>2703</ele>
        <time>2021-04-08T09:11:59Z</time>
      </trkpt>
      <trkpt lat="44.45174" lon="6.57797">
        <ele>2704</ele>
        <time>2021-04-08T09:12:00Z</time>
      </trkpt>
      <trkpt lat="44.45174" lon="6.57797">
        <ele>2704</ele>
        <time>2021-04-08T09:12:01Z</time>
      </trkpt>
      <trkpt lat="44.45173" lon="6.57797">
        <ele>2704</ele>
        <time>2021-04-08T09:12:02Z</time>
      </trkpt>
      <trkpt lat="44.45173" lon="6.57797">
        <ele>2705</ele>
        <time>2021-04-08T09:12:03Z</time>
      </trkpt>
      <trkpt lat="44.45173" lon="6.57797">
        <ele>2705</ele>
        <time>2021-04-08T09:12:04Z</time>
      </trkpt>
      <trkpt lat="44.45172" lon="6.57797">
        <ele>2705</ele>
        <time>2021-04-08T09:12:05Z</time>
      </trkpt>
      <trkpt lat="44.45172" lon="6.57797">
        <ele>2705</ele>
        <time>2021-04-08T09:12:06Z</time>
      </trkpt>
      <trkpt lat="44.45171" lon="6.57797">
        <ele>2705</ele>
        <time>2021-04-08T09:12:07Z</time>
      </trkpt>
      <trkpt lat="44.45171" lon="6.57797">
        <ele>2706</ele>
        <time>2021-04-08T09:12:08Z</time>
      </trkpt>
      <trkpt lat="44.4517" lon="6.57797">
        <ele>2706</ele>
        <time>2021-04-08T09:12:09Z</time>
      </trkpt>
      <trkpt lat="44.4517" lon="6.57797">
        <ele>2706</ele>
        <time>2021-04-08T09:12:10Z</time>
      </trkpt>
      <trkpt lat="44.45169" lon="6.57797">
        <ele>2706</ele>
        <time>2021-04-08T09:12:11Z</time>
      </trkpt>
      <trkpt lat="44.45168" lon="6.57797">
        <ele>2706</ele>
        <time>2021-04-08T09:12:12Z</time>
      </trkpt>
      <trkpt lat="44.45168" lon="6.57797">
        <ele>2706</ele>
        <time>2021-04-08T09:12:13Z</time>
      </trkpt>
      <trkpt lat="44.45167" lon="6.57797">
        <ele>2706</ele>
        <time>2021-04-08T09:12:14Z</time>
      </trkpt>
      <trkpt lat="44.45167" lon="6.57795">
        <ele>2707</ele>
        <time>2021-04-08T09:12:15Z</time>
      </trkpt>
      <trkpt lat="44.45167" lon="6.57795">
        <ele>2707</ele>
        <time>2021-04-08T09:12:16Z</time>
      </trkpt>
      <trkpt lat="44.45168" lon="6.57795">
        <ele>2707</ele>
        <time>2021-04-08T09:12:17Z</time>
      </trkpt>
      <trkpt lat="44.45168" lon="6.57795">
        <ele>2707</ele>
        <time>2021-04-08T09:12:18Z</time>
      </trkpt>
      <trkpt lat="44.45169" lon="6.57796">
        <ele>2707</ele>
        <time>2021-04-08T09:12:19Z</time>
      </trkpt>
      <trkpt lat="44.45168" lon="6.57796">
        <ele>2707</ele>
        <time>2021-04-08T09:12:20Z</time>
      </trkpt>
      <trkpt lat="44.45169" lon="6.57796">
        <ele>2707</ele>
        <time>2021-04-08T09:12:21Z</time>
      </trkpt>
      <trkpt lat="44.45169" lon="6.57796">
        <ele>2707</ele>
        <time>2021-04-08T09:12:22Z</time>
      </trkpt>
      <trkpt lat="44.45169" lon="6.57796">
        <ele>2707</ele>
        <time>2021-04-08T09:12:23Z</time>
      </trkpt>
      <trkpt lat="44.45167" lon="6.57796">
        <ele>2707</ele>
        <time>2021-04-08T09:12:24Z</time>
      </trkpt>
      <trkpt lat="44.45166" lon="6.57796">
        <ele>2707</ele>
        <time>2021-04-08T09:12:25Z</time>
      </trkpt>
      <trkpt lat="44.45165" lon="6.57797">
        <ele>2707</ele>
        <time>2021-04-08T09:12:26Z</time>
      </trkpt>
      <trkpt lat="44.45164" lon="6.57797">
        <ele>2707</ele>
        <time>2021-04-08T09:12:27Z</time>
      </trkpt>
      <trkpt lat="44.45164" lon="6.57797">
        <ele>2707</ele>
        <time>2021-04-08T09:12:28Z</time>
      </trkpt>
      <trkpt lat="44.45163" lon="6.57797">
        <ele>2708</ele>
        <time>2021-04-08T09:12:29Z</time>
      </trkpt>
      <trkpt lat="44.45163" lon="6.57798">
        <ele>2708</ele>
        <time>2021-04-08T09:12:30Z</time>
      </trkpt>
      <trkpt lat="44.45163" lon="6.57798">
        <ele>2707</ele>
        <time>2021-04-08T09:12:31Z</time>
      </trkpt>
      <trkpt lat="44.45162" lon="6.57799">
        <ele>2707</ele>
        <time>2021-04-08T09:12:32Z</time>
      </trkpt>
      <trkpt lat="44.45161" lon="6.578">
        <ele>2707</ele>
        <time>2021-04-08T09:12:33Z</time>
      </trkpt>
      <trkpt lat="44.4516" lon="6.57801">
        <ele>2707</ele>
        <time>2021-04-08T09:12:34Z</time>
      </trkpt>
      <trkpt lat="44.45159" lon="6.57801">
        <ele>2707</ele>
        <time>2021-04-08T09:12:35Z</time>
      </trkpt>
      <trkpt lat="44.45158" lon="6.57801">
        <ele>2708</ele>
        <time>2021-04-08T09:12:36Z</time>
      </trkpt>
      <trkpt lat="44.45156" lon="6.57801">
        <ele>2708</ele>
        <time>2021-04-08T09:12:37Z</time>
      </trkpt>
      <trkpt lat="44.45156" lon="6.57801">
        <ele>2708</ele>
        <time>2021-04-08T09:12:38Z</time>
      </trkpt>
      <trkpt lat="44.45155" lon="6.57802">
        <ele>2708</ele>
        <time>2021-04-08T09:12:39Z</time>
      </trkpt>
      <trkpt lat="44.45154" lon="6.57802">
        <ele>2708</ele>
        <time>2021-04-08T09:12:40Z</time>
      </trkpt>
      <trkpt lat="44.45154" lon="6.57803">
        <ele>2708</ele>
        <time>2021-04-08T09:12:41Z</time>
      </trkpt>
      <trkpt lat="44.45153" lon="6.57804">
        <ele>2708</ele>
        <time>2021-04-08T09:12:42Z</time>
      </trkpt>
      <trkpt lat="44.45153" lon="6.57804">
        <ele>2708</ele>
        <time>2021-04-08T09:12:43Z</time>
      </trkpt>
      <trkpt lat="44.45152" lon="6.57804">
        <ele>2708</ele>
        <time>2021-04-08T09:12:44Z</time>
      </trkpt>
      <trkpt lat="44.45151" lon="6.57805">
        <ele>2708</ele>
        <time>2021-04-08T09:12:45Z</time>
      </trkpt>
      <trkpt lat="44.4515" lon="6.57805">
        <ele>2708</ele>
        <time>2021-04-08T09:12:46Z</time>
      </trkpt>
      <trkpt lat="44.45149" lon="6.57805">
        <ele>2708</ele>
        <time>2021-04-08T09:12:47Z</time>
      </trkpt>
      <trkpt lat="44.45149" lon="6.57805">
        <ele>2708</ele>
        <time>2021-04-08T09:12:48Z</time>
      </trkpt>
      <trkpt lat="44.45148" lon="6.57806">
        <ele>2708</ele>
        <time>2021-04-08T09:12:49Z</time>
      </trkpt>
      <trkpt lat="44.45147" lon="6.57805">
        <ele>2708</ele>
        <time>2021-04-08T09:12:50Z</time>
      </trkpt>
      <trkpt lat="44.45146" lon="6.57805">
        <ele>2708</ele>
        <time>2021-04-08T09:12:51Z</time>
      </trkpt>
      <trkpt lat="44.45145" lon="6.57805">
        <ele>2708</ele>
        <time>2021-04-08T09:12:52Z</time>
      </trkpt>
      <trkpt lat="44.45145" lon="6.57805">
        <ele>2708</ele>
        <time>2021-04-08T09:12:53Z</time>
      </trkpt>
      <trkpt lat="44.45144" lon="6.57805">
        <ele>2708</ele>
        <time>2021-04-08T09:12:54Z</time>
      </trkpt>
      <trkpt lat="44.45143" lon="6.57804">
        <ele>2709</ele>
        <time>2021-04-08T09:12:55Z</time>
      </trkpt>
      <trkpt lat="44.45143" lon="6.57805">
        <ele>2709</ele>
        <time>2021-04-08T09:12:56Z</time>
      </trkpt>
      <trkpt lat="44.45142" lon="6.57805">
        <ele>2709</ele>
        <time>2021-04-08T09:12:57Z</time>
      </trkpt>
      <trkpt lat="44.45141" lon="6.57805">
        <ele>2709</ele>
        <time>2021-04-08T09:12:58Z</time>
      </trkpt>
      <trkpt lat="44.45141" lon="6.57805">
        <ele>2709</ele>
        <time>2021-04-08T09:12:59Z</time>
      </trkpt>
      <trkpt lat="44.4514" lon="6.57805">
        <ele>2709</ele>
        <time>2021-04-08T09:13:00Z</time>
      </trkpt>
      <trkpt lat="44.4514" lon="6.57805">
        <ele>2709</ele>
        <time>2021-04-08T09:13:01Z</time>
      </trkpt>
      <trkpt lat="44.45139" lon="6.57805">
        <ele>2710</ele>
        <time>2021-04-08T09:13:02Z</time>
      </trkpt>
      <trkpt lat="44.45138" lon="6.57806">
        <ele>2710</ele>
        <time>2021-04-08T09:13:03Z</time>
      </trkpt>
      <trkpt lat="44.45138" lon="6.57805">
        <ele>2710</ele>
        <time>2021-04-08T09:13:04Z</time>
      </trkpt>
      <trkpt lat="44.45137" lon="6.57804">
        <ele>2710</ele>
        <time>2021-04-08T09:13:05Z</time>
      </trkpt>
      <trkpt lat="44.45136" lon="6.57803">
        <ele>2710</ele>
        <time>2021-04-08T09:13:06Z</time>
      </trkpt>
      <trkpt lat="44.45136" lon="6.57803">
        <ele>2711</ele>
        <time>2021-04-08T09:13:07Z</time>
      </trkpt>
      <trkpt lat="44.45135" lon="6.57803">
        <ele>2711</ele>
        <time>2021-04-08T09:13:08Z</time>
      </trkpt>
      <trkpt lat="44.45135" lon="6.57804">
        <ele>2711</ele>
        <time>2021-04-08T09:13:09Z</time>
      </trkpt>
      <trkpt lat="44.45134" lon="6.57804">
        <ele>2711</ele>
        <time>2021-04-08T09:13:10Z</time>
      </trkpt>
      <trkpt lat="44.45133" lon="6.57804">
        <ele>2711</ele>
        <time>2021-04-08T09:13:11Z</time>
      </trkpt>
      <trkpt lat="44.45133" lon="6.57805">
        <ele>2711</ele>
        <time>2021-04-08T09:13:12Z</time>
      </trkpt>
      <trkpt lat="44.45132" lon="6.57805">
        <ele>2711</ele>
        <time>2021-04-08T09:13:13Z</time>
      </trkpt>
      <trkpt lat="44.45131" lon="6.57806">
        <ele>2711</ele>
        <time>2021-04-08T09:13:14Z</time>
      </trkpt>
      <trkpt lat="44.45131" lon="6.57806">
        <ele>2711</ele>
        <time>2021-04-08T09:13:15Z</time>
      </trkpt>
      <trkpt lat="44.4513" lon="6.57806">
        <ele>2711</ele>
        <time>2021-04-08T09:13:16Z</time>
      </trkpt>
      <trkpt lat="44.45129" lon="6.57807">
        <ele>2712</ele>
        <time>2021-04-08T09:13:17Z</time>
      </trkpt>
      <trkpt lat="44.45129" lon="6.57807">
        <ele>2712</ele>
        <time>2021-04-08T09:13:18Z</time>
      </trkpt>
      <trkpt lat="44.45128" lon="6.57808">
        <ele>2712</ele>
        <time>2021-04-08T09:13:19Z</time>
      </trkpt>
      <trkpt lat="44.45128" lon="6.57808">
        <ele>2712</ele>
        <time>2021-04-08T09:13:20Z</time>
      </trkpt>
      <trkpt lat="44.45127" lon="6.57809">
        <ele>2712</ele>
        <time>2021-04-08T09:13:21Z</time>
      </trkpt>
      <trkpt lat="44.45126" lon="6.57809">
        <ele>2712</ele>
        <time>2021-04-08T09:13:22Z</time>
      </trkpt>
      <trkpt lat="44.45126" lon="6.57811">
        <ele>2712</ele>
        <time>2021-04-08T09:13:23Z</time>
      </trkpt>
      <trkpt lat="44.45125" lon="6.57811">
        <ele>2712</ele>
        <time>2021-04-08T09:13:24Z</time>
      </trkpt>
      <trkpt lat="44.45125" lon="6.57813">
        <ele>2713</ele>
        <time>2021-04-08T09:13:25Z</time>
      </trkpt>
      <trkpt lat="44.45124" lon="6.57814">
        <ele>2713</ele>
        <time>2021-04-08T09:13:26Z</time>
      </trkpt>
      <trkpt lat="44.45124" lon="6.57814">
        <ele>2713</ele>
        <time>2021-04-08T09:13:27Z</time>
      </trkpt>
      <trkpt lat="44.45124" lon="6.57814">
        <ele>2713</ele>
        <time>2021-04-08T09:13:28Z</time>
      </trkpt>
      <trkpt lat="44.45123" lon="6.57815">
        <ele>2713</ele>
        <time>2021-04-08T09:13:29Z</time>
      </trkpt>
      <trkpt lat="44.45123" lon="6.57815">
        <ele>2713</ele>
        <time>2021-04-08T09:13:30Z</time>
      </trkpt>
      <trkpt lat="44.45123" lon="6.57816">
        <ele>2713</ele>
        <time>2021-04-08T09:13:31Z</time>
      </trkpt>
      <trkpt lat="44.45123" lon="6.57817">
        <ele>2713</ele>
        <time>2021-04-08T09:13:32Z</time>
      </trkpt>
      <trkpt lat="44.45123" lon="6.57817">
        <ele>2713</ele>
        <time>2021-04-08T09:13:33Z</time>
      </trkpt>
      <trkpt lat="44.45123" lon="6.57818">
        <ele>2713</ele>
        <time>2021-04-08T09:13:34Z</time>
      </trkpt>
      <trkpt lat="44.45123" lon="6.57819">
        <ele>2713</ele>
        <time>2021-04-08T09:13:35Z</time>
      </trkpt>
      <trkpt lat="44.45123" lon="6.5782">
        <ele>2714</ele>
        <time>2021-04-08T09:13:36Z</time>
      </trkpt>
      <trkpt lat="44.45122" lon="6.5782">
        <ele>2714</ele>
        <time>2021-04-08T09:13:37Z</time>
      </trkpt>
      <trkpt lat="44.45122" lon="6.57822">
        <ele>2714</ele>
        <time>2021-04-08T09:13:38Z</time>
      </trkpt>
      <trkpt lat="44.45122" lon="6.57822">
        <ele>2714</ele>
        <time>2021-04-08T09:13:39Z</time>
      </trkpt>
      <trkpt lat="44.45121" lon="6.57823">
        <ele>2714</ele>
        <time>2021-04-08T09:13:40Z</time>
      </trkpt>
      <trkpt lat="44.45121" lon="6.57824">
        <ele>2714</ele>
        <time>2021-04-08T09:13:41Z</time>
      </trkpt>
      <trkpt lat="44.45121" lon="6.57825">
        <ele>2714</ele>
        <time>2021-04-08T09:13:42Z</time>
      </trkpt>
      <trkpt lat="44.4512" lon="6.57826">
        <ele>2714</ele>
        <time>2021-04-08T09:13:43Z</time>
      </trkpt>
      <trkpt lat="44.4512" lon="6.57827">
        <ele>2714</ele>
        <time>2021-04-08T09:13:44Z</time>
      </trkpt>
      <trkpt lat="44.45119" lon="6.57827">
        <ele>2714</ele>
        <time>2021-04-08T09:13:45Z</time>
      </trkpt>
      <trkpt lat="44.45119" lon="6.57828">
        <ele>2714</ele>
        <time>2021-04-08T09:13:46Z</time>
      </trkpt>
      <trkpt lat="44.45119" lon="6.57828">
        <ele>2714</ele>
        <time>2021-04-08T09:13:47Z</time>
      </trkpt>
      <trkpt lat="44.45118" lon="6.57829">
        <ele>2714</ele>
        <time>2021-04-08T09:13:48Z</time>
      </trkpt>
      <trkpt lat="44.45118" lon="6.5783">
        <ele>2714</ele>
        <time>2021-04-08T09:13:49Z</time>
      </trkpt>
      <trkpt lat="44.45118" lon="6.5783">
        <ele>2714</ele>
        <time>2021-04-08T09:13:50Z</time>
      </trkpt>
      <trkpt lat="44.45117" lon="6.57831">
        <ele>2714</ele>
        <time>2021-04-08T09:13:51Z</time>
      </trkpt>
      <trkpt lat="44.45117" lon="6.57831">
        <ele>2714</ele>
        <time>2021-04-08T09:13:52Z</time>
      </trkpt>
      <trkpt lat="44.45117" lon="6.57832">
        <ele>2714</ele>
        <time>2021-04-08T09:13:53Z</time>
      </trkpt>
      <trkpt lat="44.45116" lon="6.57832">
        <ele>2715</ele>
        <time>2021-04-08T09:13:54Z</time>
      </trkpt>
      <trkpt lat="44.45116" lon="6.57833">
        <ele>2715</ele>
        <time>2021-04-08T09:13:55Z</time>
      </trkpt>
      <trkpt lat="44.45116" lon="6.57833">
        <ele>2715</ele>
        <time>2021-04-08T09:13:56Z</time>
      </trkpt>
      <trkpt lat="44.45116" lon="6.57834">
        <ele>2715</ele>
        <time>2021-04-08T09:13:57Z</time>
      </trkpt>
      <trkpt lat="44.45116" lon="6.57835">
        <ele>2715</ele>
        <time>2021-04-08T09:13:58Z</time>
      </trkpt>
      <trkpt lat="44.45116" lon="6.57835">
        <ele>2715</ele>
        <time>2021-04-08T09:13:59Z</time>
      </trkpt>
      <trkpt lat="44.45115" lon="6.57835">
        <ele>2715</ele>
        <time>2021-04-08T09:14:00Z</time>
      </trkpt>
      <trkpt lat="44.45115" lon="6.57836">
        <ele>2715</ele>
        <time>2021-04-08T09:14:01Z</time>
      </trkpt>
      <trkpt lat="44.45114" lon="6.57837">
        <ele>2715</ele>
        <time>2021-04-08T09:14:02Z</time>
      </trkpt>
      <trkpt lat="44.45114" lon="6.57837">
        <ele>2716</ele>
        <time>2021-04-08T09:14:03Z</time>
      </trkpt>
      <trkpt lat="44.45113" lon="6.57837">
        <ele>2716</ele>
        <time>2021-04-08T09:14:04Z</time>
      </trkpt>
      <trkpt lat="44.45113" lon="6.57838">
        <ele>2716</ele>
        <time>2021-04-08T09:14:05Z</time>
      </trkpt>
      <trkpt lat="44.45112" lon="6.57838">
        <ele>2716</ele>
        <time>2021-04-08T09:14:06Z</time>
      </trkpt>
      <trkpt lat="44.45111" lon="6.57839">
        <ele>2716</ele>
        <time>2021-04-08T09:14:07Z</time>
      </trkpt>
      <trkpt lat="44.45111" lon="6.57839">
        <ele>2716</ele>
        <time>2021-04-08T09:14:08Z</time>
      </trkpt>
      <trkpt lat="44.4511" lon="6.5784">
        <ele>2716</ele>
        <time>2021-04-08T09:14:09Z</time>
      </trkpt>
      <trkpt lat="44.4511" lon="6.57841">
        <ele>2716</ele>
        <time>2021-04-08T09:14:10Z</time>
      </trkpt>
      <trkpt lat="44.45109" lon="6.57842">
        <ele>2717</ele>
        <time>2021-04-08T09:14:11Z</time>
      </trkpt>
      <trkpt lat="44.45109" lon="6.57842">
        <ele>2717</ele>
        <time>2021-04-08T09:14:12Z</time>
      </trkpt>
      <trkpt lat="44.45108" lon="6.57843">
        <ele>2717</ele>
        <time>2021-04-08T09:14:13Z</time>
      </trkpt>
      <trkpt lat="44.45108" lon="6.57844">
        <ele>2717</ele>
        <time>2021-04-08T09:14:14Z</time>
      </trkpt>
      <trkpt lat="44.45107" lon="6.57845">
        <ele>2717</ele>
        <time>2021-04-08T09:14:15Z</time>
      </trkpt>
      <trkpt lat="44.45106" lon="6.57845">
        <ele>2717</ele>
        <time>2021-04-08T09:14:16Z</time>
      </trkpt>
      <trkpt lat="44.45106" lon="6.57846">
        <ele>2717</ele>
        <time>2021-04-08T09:14:17Z</time>
      </trkpt>
      <trkpt lat="44.45105" lon="6.57846">
        <ele>2717</ele>
        <time>2021-04-08T09:14:18Z</time>
      </trkpt>
      <trkpt lat="44.45105" lon="6.57847">
        <ele>2718</ele>
        <time>2021-04-08T09:14:19Z</time>
      </trkpt>
      <trkpt lat="44.45104" lon="6.57847">
        <ele>2718</ele>
        <time>2021-04-08T09:14:20Z</time>
      </trkpt>
      <trkpt lat="44.45104" lon="6.57847">
        <ele>2718</ele>
        <time>2021-04-08T09:14:21Z</time>
      </trkpt>
      <trkpt lat="44.45104" lon="6.57847">
        <ele>2718</ele>
        <time>2021-04-08T09:14:22Z</time>
      </trkpt>
      <trkpt lat="44.45103" lon="6.57848">
        <ele>2718</ele>
        <time>2021-04-08T09:14:23Z</time>
      </trkpt>
      <trkpt lat="44.45103" lon="6.57849">
        <ele>2719</ele>
        <time>2021-04-08T09:14:24Z</time>
      </trkpt>
      <trkpt lat="44.45103" lon="6.57849">
        <ele>2719</ele>
        <time>2021-04-08T09:14:25Z</time>
      </trkpt>
      <trkpt lat="44.45103" lon="6.5785">
        <ele>2719</ele>
        <time>2021-04-08T09:14:26Z</time>
      </trkpt>
      <trkpt lat="44.45102" lon="6.57849">
        <ele>2719</ele>
        <time>2021-04-08T09:14:27Z</time>
      </trkpt>
      <trkpt lat="44.45102" lon="6.57849">
        <ele>2719</ele>
        <time>2021-04-08T09:14:28Z</time>
      </trkpt>
      <trkpt lat="44.45101" lon="6.57849">
        <ele>2719</ele>
        <time>2021-04-08T09:14:29Z</time>
      </trkpt>
      <trkpt lat="44.45101" lon="6.57847">
        <ele>2719</ele>
        <time>2021-04-08T09:14:30Z</time>
      </trkpt>
      <trkpt lat="44.45101" lon="6.57846">
        <ele>2720</ele>
        <time>2021-04-08T09:14:31Z</time>
      </trkpt>
      <trkpt lat="44.451" lon="6.57846">
        <ele>2721</ele>
        <time>2021-04-08T09:14:32Z</time>
      </trkpt>
      <trkpt lat="44.451" lon="6.57845">
        <ele>2721</ele>
        <time>2021-04-08T09:14:33Z</time>
      </trkpt>
      <trkpt lat="44.45099" lon="6.57845">
        <ele>2722</ele>
        <time>2021-04-08T09:14:34Z</time>
      </trkpt>
      <trkpt lat="44.45099" lon="6.57844">
        <ele>2722</ele>
        <time>2021-04-08T09:14:35Z</time>
      </trkpt>
      <trkpt lat="44.45098" lon="6.57844">
        <ele>2722</ele>
        <time>2021-04-08T09:14:36Z</time>
      </trkpt>
      <trkpt lat="44.45098" lon="6.57843">
        <ele>2723</ele>
        <time>2021-04-08T09:14:37Z</time>
      </trkpt>
      <trkpt lat="44.45098" lon="6.57843">
        <ele>2724</ele>
        <time>2021-04-08T09:14:38Z</time>
      </trkpt>
      <trkpt lat="44.45097" lon="6.57842">
        <ele>2724</ele>
        <time>2021-04-08T09:14:39Z</time>
      </trkpt>
      <trkpt lat="44.45097" lon="6.57841">
        <ele>2724</ele>
        <time>2021-04-08T09:14:40Z</time>
      </trkpt>
      <trkpt lat="44.45096" lon="6.5784">
        <ele>2725</ele>
        <time>2021-04-08T09:14:41Z</time>
      </trkpt>
      <trkpt lat="44.45096" lon="6.57839">
        <ele>2725</ele>
        <time>2021-04-08T09:14:42Z</time>
      </trkpt>
      <trkpt lat="44.45096" lon="6.57838">
        <ele>2726</ele>
        <time>2021-04-08T09:14:43Z</time>
      </trkpt>
      <trkpt lat="44.45095" lon="6.57837">
        <ele>2726</ele>
        <time>2021-04-08T09:14:44Z</time>
      </trkpt>
      <trkpt lat="44.45095" lon="6.57836">
        <ele>2727</ele>
        <time>2021-04-08T09:14:45Z</time>
      </trkpt>
      <trkpt lat="44.45095" lon="6.57835">
        <ele>2727</ele>
        <time>2021-04-08T09:14:46Z</time>
      </trkpt>
      <trkpt lat="44.45094" lon="6.57835">
        <ele>2728</ele>
        <time>2021-04-08T09:14:47Z</time>
      </trkpt>
      <trkpt lat="44.45093" lon="6.57834">
        <ele>2728</ele>
        <time>2021-04-08T09:14:48Z</time>
      </trkpt>
      <trkpt lat="44.45093" lon="6.57834">
        <ele>2728</ele>
        <time>2021-04-08T09:14:49Z</time>
      </trkpt>
      <trkpt lat="44.45093" lon="6.57834">
        <ele>2728</ele>
        <time>2021-04-08T09:14:50Z</time>
      </trkpt>
      <trkpt lat="44.45092" lon="6.57833">
        <ele>2729</ele>
        <time>2021-04-08T09:14:51Z</time>
      </trkpt>
      <trkpt lat="44.45092" lon="6.57833">
        <ele>2729</ele>
        <time>2021-04-08T09:14:52Z</time>
      </trkpt>
      <trkpt lat="44.45092" lon="6.57832">
        <ele>2729</ele>
        <time>2021-04-08T09:14:53Z</time>
      </trkpt>
      <trkpt lat="44.45091" lon="6.57831">
        <ele>2730</ele>
        <time>2021-04-08T09:14:54Z</time>
      </trkpt>
      <trkpt lat="44.4509" lon="6.5783">
        <ele>2730</ele>
        <time>2021-04-08T09:14:55Z</time>
      </trkpt>
      <trkpt lat="44.4509" lon="6.57829">
        <ele>2730</ele>
        <time>2021-04-08T09:14:56Z</time>
      </trkpt>
      <trkpt lat="44.45089" lon="6.57828">
        <ele>2730</ele>
        <time>2021-04-08T09:14:57Z</time>
      </trkpt>
      <trkpt lat="44.45088" lon="6.57828">
        <ele>2731</ele>
        <time>2021-04-08T09:14:58Z</time>
      </trkpt>
      <trkpt lat="44.45088" lon="6.57827">
        <ele>2731</ele>
        <time>2021-04-08T09:14:59Z</time>
      </trkpt>
      <trkpt lat="44.45087" lon="6.57827">
        <ele>2731</ele>
        <time>2021-04-08T09:15:00Z</time>
      </trkpt>
      <trkpt lat="44.45087" lon="6.57825">
        <ele>2731</ele>
        <time>2021-04-08T09:15:01Z</time>
      </trkpt>
      <trkpt lat="44.45087" lon="6.57825">
        <ele>2732</ele>
        <time>2021-04-08T09:15:02Z</time>
      </trkpt>
      <trkpt lat="44.45087" lon="6.57824">
        <ele>2732</ele>
        <time>2021-04-08T09:15:03Z</time>
      </trkpt>
      <trkpt lat="44.45086" lon="6.57823">
        <ele>2732</ele>
        <time>2021-04-08T09:15:04Z</time>
      </trkpt>
      <trkpt lat="44.45086" lon="6.57822">
        <ele>2732</ele>
        <time>2021-04-08T09:15:05Z</time>
      </trkpt>
      <trkpt lat="44.45086" lon="6.57821">
        <ele>2732</ele>
        <time>2021-04-08T09:15:06Z</time>
      </trkpt>
      <trkpt lat="44.45085" lon="6.5782">
        <ele>2733</ele>
        <time>2021-04-08T09:15:07Z</time>
      </trkpt>
      <trkpt lat="44.45085" lon="6.57819">
        <ele>2733</ele>
        <time>2021-04-08T09:15:08Z</time>
      </trkpt>
      <trkpt lat="44.45084" lon="6.57819">
        <ele>2733</ele>
        <time>2021-04-08T09:15:09Z</time>
      </trkpt>
      <trkpt lat="44.45084" lon="6.57819">
        <ele>2733</ele>
        <time>2021-04-08T09:15:10Z</time>
      </trkpt>
      <trkpt lat="44.45084" lon="6.57818">
        <ele>2733</ele>
        <time>2021-04-08T09:15:11Z</time>
      </trkpt>
      <trkpt lat="44.45083" lon="6.57818">
        <ele>2733</ele>
        <time>2021-04-08T09:15:12Z</time>
      </trkpt>
      <trkpt lat="44.45083" lon="6.57817">
        <ele>2733</ele>
        <time>2021-04-08T09:15:13Z</time>
      </trkpt>
      <trkpt lat="44.45083" lon="6.57817">
        <ele>2734</ele>
        <time>2021-04-08T09:15:14Z</time>
      </trkpt>
      <trkpt lat="44.45083" lon="6.57816">
        <ele>2734</ele>
        <time>2021-04-08T09:15:15Z</time>
      </trkpt>
      <trkpt lat="44.45082" lon="6.57816">
        <ele>2734</ele>
        <time>2021-04-08T09:15:16Z</time>
      </trkpt>
      <trkpt lat="44.45082" lon="6.57815">
        <ele>2734</ele>
        <time>2021-04-08T09:15:17Z</time>
      </trkpt>
      <trkpt lat="44.45082" lon="6.57815">
        <ele>2734</ele>
        <time>2021-04-08T09:15:18Z</time>
      </trkpt>
      <trkpt lat="44.45082" lon="6.57814">
        <ele>2734</ele>
        <time>2021-04-08T09:15:19Z</time>
      </trkpt>
      <trkpt lat="44.45081" lon="6.57814">
        <ele>2734</ele>
        <time>2021-04-08T09:15:20Z</time>
      </trkpt>
      <trkpt lat="44.45081" lon="6.57813">
        <ele>2735</ele>
        <time>2021-04-08T09:15:21Z</time>
      </trkpt>
      <trkpt lat="44.4508" lon="6.57812">
        <ele>2735</ele>
        <time>2021-04-08T09:15:22Z</time>
      </trkpt>
      <trkpt lat="44.4508" lon="6.57812">
        <ele>2735</ele>
        <time>2021-04-08T09:15:23Z</time>
      </trkpt>
      <trkpt lat="44.4508" lon="6.57811">
        <ele>2735</ele>
        <time>2021-04-08T09:15:24Z</time>
      </trkpt>
      <trkpt lat="44.4508" lon="6.5781">
        <ele>2735</ele>
        <time>2021-04-08T09:15:25Z</time>
      </trkpt>
      <trkpt lat="44.45079" lon="6.57809">
        <ele>2735</ele>
        <time>2021-04-08T09:15:26Z</time>
      </trkpt>
      <trkpt lat="44.45079" lon="6.57808">
        <ele>2735</ele>
        <time>2021-04-08T09:15:27Z</time>
      </trkpt>
      <trkpt lat="44.45079" lon="6.57807">
        <ele>2735</ele>
        <time>2021-04-08T09:15:28Z</time>
      </trkpt>
      <trkpt lat="44.45079" lon="6.57806">
        <ele>2735</ele>
        <time>2021-04-08T09:15:29Z</time>
      </trkpt>
      <trkpt lat="44.45078" lon="6.57806">
        <ele>2736</ele>
        <time>2021-04-08T09:15:30Z</time>
      </trkpt>
      <trkpt lat="44.45078" lon="6.57806">
        <ele>2736</ele>
        <time>2021-04-08T09:15:31Z</time>
      </trkpt>
      <trkpt lat="44.45078" lon="6.57805">
        <ele>2736</ele>
        <time>2021-04-08T09:15:32Z</time>
      </trkpt>
      <trkpt lat="44.45077" lon="6.57805">
        <ele>2736</ele>
        <time>2021-04-08T09:15:33Z</time>
      </trkpt>
      <trkpt lat="44.45077" lon="6.57805">
        <ele>2736</ele>
        <time>2021-04-08T09:15:34Z</time>
      </trkpt>
      <trkpt lat="44.45076" lon="6.57804">
        <ele>2737</ele>
        <time>2021-04-08T09:15:35Z</time>
      </trkpt>
      <trkpt lat="44.45075" lon="6.57803">
        <ele>2737</ele>
        <time>2021-04-08T09:15:36Z</time>
      </trkpt>
      <trkpt lat="44.45075" lon="6.57803">
        <ele>2737</ele>
        <time>2021-04-08T09:15:37Z</time>
      </trkpt>
      <trkpt lat="44.45074" lon="6.57803">
        <ele>2737</ele>
        <time>2021-04-08T09:15:38Z</time>
      </trkpt>
      <trkpt lat="44.45073" lon="6.57802">
        <ele>2737</ele>
        <time>2021-04-08T09:15:39Z</time>
      </trkpt>
      <trkpt lat="44.45073" lon="6.57803">
        <ele>2738</ele>
        <time>2021-04-08T09:15:40Z</time>
      </trkpt>
      <trkpt lat="44.45072" lon="6.57804">
        <ele>2738</ele>
        <time>2021-04-08T09:15:41Z</time>
      </trkpt>
      <trkpt lat="44.45072" lon="6.57805">
        <ele>2738</ele>
        <time>2021-04-08T09:15:42Z</time>
      </trkpt>
      <trkpt lat="44.45072" lon="6.57806">
        <ele>2738</ele>
        <time>2021-04-08T09:15:43Z</time>
      </trkpt>
      <trkpt lat="44.45071" lon="6.57807">
        <ele>2738</ele>
        <time>2021-04-08T09:15:44Z</time>
      </trkpt>
      <trkpt lat="44.45071" lon="6.57807">
        <ele>2739</ele>
        <time>2021-04-08T09:15:45Z</time>
      </trkpt>
      <trkpt lat="44.4507" lon="6.57809">
        <ele>2739</ele>
        <time>2021-04-08T09:15:46Z</time>
      </trkpt>
      <trkpt lat="44.4507" lon="6.57809">
        <ele>2739</ele>
        <time>2021-04-08T09:15:47Z</time>
      </trkpt>
      <trkpt lat="44.4507" lon="6.5781">
        <ele>2739</ele>
        <time>2021-04-08T09:15:48Z</time>
      </trkpt>
      <trkpt lat="44.45069" lon="6.57811">
        <ele>2739</ele>
        <time>2021-04-08T09:15:49Z</time>
      </trkpt>
      <trkpt lat="44.45069" lon="6.57812">
        <ele>2739</ele>
        <time>2021-04-08T09:15:50Z</time>
      </trkpt>
      <trkpt lat="44.45068" lon="6.57812">
        <ele>2740</ele>
        <time>2021-04-08T09:15:51Z</time>
      </trkpt>
      <trkpt lat="44.45068" lon="6.57813">
        <ele>2740</ele>
        <time>2021-04-08T09:15:52Z</time>
      </trkpt>
      <trkpt lat="44.45068" lon="6.57813">
        <ele>2740</ele>
        <time>2021-04-08T09:15:53Z</time>
      </trkpt>
      <trkpt lat="44.45067" lon="6.57814">
        <ele>2740</ele>
        <time>2021-04-08T09:15:54Z</time>
      </trkpt>
      <trkpt lat="44.45066" lon="6.57815">
        <ele>2740</ele>
        <time>2021-04-08T09:15:55Z</time>
      </trkpt>
      <trkpt lat="44.45066" lon="6.57815">
        <ele>2740</ele>
        <time>2021-04-08T09:15:56Z</time>
      </trkpt>
      <trkpt lat="44.45065" lon="6.57816">
        <ele>2740</ele>
        <time>2021-04-08T09:15:57Z</time>
      </trkpt>
      <trkpt lat="44.45064" lon="6.57817">
        <ele>2740</ele>
        <time>2021-04-08T09:15:58Z</time>
      </trkpt>
      <trkpt lat="44.45064" lon="6.57818">
        <ele>2741</ele>
        <time>2021-04-08T09:15:59Z</time>
      </trkpt>
      <trkpt lat="44.45063" lon="6.57819">
        <ele>2741</ele>
        <time>2021-04-08T09:16:00Z</time>
      </trkpt>
      <trkpt lat="44.45062" lon="6.57819">
        <ele>2741</ele>
        <time>2021-04-08T09:16:01Z</time>
      </trkpt>
      <trkpt lat="44.45062" lon="6.5782">
        <ele>2741</ele>
        <time>2021-04-08T09:16:02Z</time>
      </trkpt>
      <trkpt lat="44.45062" lon="6.57821">
        <ele>2741</ele>
        <time>2021-04-08T09:16:03Z</time>
      </trkpt>
      <trkpt lat="44.45062" lon="6.57822">
        <ele>2741</ele>
        <time>2021-04-08T09:16:04Z</time>
      </trkpt>
      <trkpt lat="44.45061" lon="6.57823">
        <ele>2742</ele>
        <time>2021-04-08T09:16:05Z</time>
      </trkpt>
      <trkpt lat="44.45061" lon="6.57823">
        <ele>2742</ele>
        <time>2021-04-08T09:16:06Z</time>
      </trkpt>
      <trkpt lat="44.45061" lon="6.57824">
        <ele>2742</ele>
        <time>2021-04-08T09:16:07Z</time>
      </trkpt>
      <trkpt lat="44.45061" lon="6.57824">
        <ele>2742</ele>
        <time>2021-04-08T09:16:08Z</time>
      </trkpt>
      <trkpt lat="44.45061" lon="6.57825">
        <ele>2742</ele>
        <time>2021-04-08T09:16:09Z</time>
      </trkpt>
      <trkpt lat="44.4506" lon="6.57826">
        <ele>2742</ele>
        <time>2021-04-08T09:16:10Z</time>
      </trkpt>
      <trkpt lat="44.4506" lon="6.57827">
        <ele>2742</ele>
        <time>2021-04-08T09:16:11Z</time>
      </trkpt>
      <trkpt lat="44.4506" lon="6.57828">
        <ele>2742</ele>
        <time>2021-04-08T09:16:12Z</time>
      </trkpt>
      <trkpt lat="44.45059" lon="6.57829">
        <ele>2742</ele>
        <time>2021-04-08T09:16:13Z</time>
      </trkpt>
      <trkpt lat="44.45058" lon="6.5783">
        <ele>2742</ele>
        <time>2021-04-08T09:16:14Z</time>
      </trkpt>
      <trkpt lat="44.45058" lon="6.57831">
        <ele>2742</ele>
        <time>2021-04-08T09:16:15Z</time>
      </trkpt>
      <trkpt lat="44.45057" lon="6.57832">
        <ele>2742</ele>
        <time>2021-04-08T09:16:16Z</time>
      </trkpt>
      <trkpt lat="44.45057" lon="6.57832">
        <ele>2742</ele>
        <time>2021-04-08T09:16:17Z</time>
      </trkpt>
      <trkpt lat="44.45057" lon="6.57832">
        <ele>2742</ele>
        <time>2021-04-08T09:16:18Z</time>
      </trkpt>
      <trkpt lat="44.45056" lon="6.57833">
        <ele>2742</ele>
        <time>2021-04-08T09:16:19Z</time>
      </trkpt>
      <trkpt lat="44.45056" lon="6.57834">
        <ele>2743</ele>
        <time>2021-04-08T09:16:20Z</time>
      </trkpt>
      <trkpt lat="44.45056" lon="6.57834">
        <ele>2743</ele>
        <time>2021-04-08T09:16:21Z</time>
      </trkpt>
      <trkpt lat="44.45056" lon="6.57833">
        <ele>2743</ele>
        <time>2021-04-08T09:16:22Z</time>
      </trkpt>
      <trkpt lat="44.45056" lon="6.57833">
        <ele>2743</ele>
        <time>2021-04-08T09:16:23Z</time>
      </trkpt>
      <trkpt lat="44.45056" lon="6.57834">
        <ele>2743</ele>
        <time>2021-04-08T09:16:24Z</time>
      </trkpt>
      <trkpt lat="44.45056" lon="6.57834">
        <ele>2743</ele>
        <time>2021-04-08T09:16:25Z</time>
      </trkpt>
      <trkpt lat="44.45056" lon="6.57835">
        <ele>2743</ele>
        <time>2021-04-08T09:16:26Z</time>
      </trkpt>
      <trkpt lat="44.45055" lon="6.57835">
        <ele>2743</ele>
        <time>2021-04-08T09:16:27Z</time>
      </trkpt>
      <trkpt lat="44.45055" lon="6.57836">
        <ele>2743</ele>
        <time>2021-04-08T09:16:28Z</time>
      </trkpt>
      <trkpt lat="44.45054" lon="6.57837">
        <ele>2743</ele>
        <time>2021-04-08T09:16:29Z</time>
      </trkpt>
      <trkpt lat="44.45054" lon="6.57837">
        <ele>2743</ele>
        <time>2021-04-08T09:16:30Z</time>
      </trkpt>
      <trkpt lat="44.45054" lon="6.57838">
        <ele>2743</ele>
        <time>2021-04-08T09:16:31Z</time>
      </trkpt>
      <trkpt lat="44.45054" lon="6.57839">
        <ele>2743</ele>
        <time>2021-04-08T09:16:32Z</time>
      </trkpt>
      <trkpt lat="44.45054" lon="6.57839">
        <ele>2743</ele>
        <time>2021-04-08T09:16:33Z</time>
      </trkpt>
      <trkpt lat="44.45054" lon="6.5784">
        <ele>2743</ele>
        <time>2021-04-08T09:16:34Z</time>
      </trkpt>
      <trkpt lat="44.45054" lon="6.57841">
        <ele>2743</ele>
        <time>2021-04-08T09:16:35Z</time>
      </trkpt>
      <trkpt lat="44.45053" lon="6.57843">
        <ele>2743</ele>
        <time>2021-04-08T09:16:36Z</time>
      </trkpt>
      <trkpt lat="44.45053" lon="6.57844">
        <ele>2743</ele>
        <time>2021-04-08T09:16:37Z</time>
      </trkpt>
      <trkpt lat="44.45052" lon="6.57844">
        <ele>2743</ele>
        <time>2021-04-08T09:16:38Z</time>
      </trkpt>
      <trkpt lat="44.45051" lon="6.57845">
        <ele>2743</ele>
        <time>2021-04-08T09:16:39Z</time>
      </trkpt>
      <trkpt lat="44.45051" lon="6.57846">
        <ele>2743</ele>
        <time>2021-04-08T09:16:40Z</time>
      </trkpt>
      <trkpt lat="44.45051" lon="6.57847">
        <ele>2743</ele>
        <time>2021-04-08T09:16:41Z</time>
      </trkpt>
      <trkpt lat="44.45051" lon="6.57847">
        <ele>2742</ele>
        <time>2021-04-08T09:16:42Z</time>
      </trkpt>
      <trkpt lat="44.45051" lon="6.57847">
        <ele>2742</ele>
        <time>2021-04-08T09:16:43Z</time>
      </trkpt>
      <trkpt lat="44.45051" lon="6.57848">
        <ele>2742</ele>
        <time>2021-04-08T09:16:44Z</time>
      </trkpt>
      <trkpt lat="44.45051" lon="6.57848">
        <ele>2742</ele>
        <time>2021-04-08T09:16:45Z</time>
      </trkpt>
      <trkpt lat="44.45051" lon="6.57849">
        <ele>2742</ele>
        <time>2021-04-08T09:16:46Z</time>
      </trkpt>
      <trkpt lat="44.45051" lon="6.57849">
        <ele>2742</ele>
        <time>2021-04-08T09:16:47Z</time>
      </trkpt>
      <trkpt lat="44.45051" lon="6.5785">
        <ele>2742</ele>
        <time>2021-04-08T09:16:48Z</time>
      </trkpt>
      <trkpt lat="44.45051" lon="6.57851">
        <ele>2742</ele>
        <time>2021-04-08T09:16:49Z</time>
      </trkpt>
      <trkpt lat="44.4505" lon="6.57852">
        <ele>2743</ele>
        <time>2021-04-08T09:16:50Z</time>
      </trkpt>
      <trkpt lat="44.4505" lon="6.57853">
        <ele>2743</ele>
        <time>2021-04-08T09:16:51Z</time>
      </trkpt>
      <trkpt lat="44.45049" lon="6.57854">
        <ele>2743</ele>
        <time>2021-04-08T09:16:52Z</time>
      </trkpt>
      <trkpt lat="44.45049" lon="6.57854">
        <ele>2743</ele>
        <time>2021-04-08T09:16:53Z</time>
      </trkpt>
      <trkpt lat="44.45049" lon="6.57855">
        <ele>2743</ele>
        <time>2021-04-08T09:16:54Z</time>
      </trkpt>
      <trkpt lat="44.45048" lon="6.57856">
        <ele>2743</ele>
        <time>2021-04-08T09:16:55Z</time>
      </trkpt>
      <trkpt lat="44.45048" lon="6.57857">
        <ele>2744</ele>
        <time>2021-04-08T09:16:56Z</time>
      </trkpt>
      <trkpt lat="44.45048" lon="6.57858">
        <ele>2744</ele>
        <time>2021-04-08T09:16:57Z</time>
      </trkpt>
      <trkpt lat="44.45048" lon="6.57859">
        <ele>2744</ele>
        <time>2021-04-08T09:16:58Z</time>
      </trkpt>
      <trkpt lat="44.45048" lon="6.57859">
        <ele>2744</ele>
        <time>2021-04-08T09:16:59Z</time>
      </trkpt>
      <trkpt lat="44.45048" lon="6.5786">
        <ele>2744</ele>
        <time>2021-04-08T09:17:00Z</time>
      </trkpt>
      <trkpt lat="44.45048" lon="6.57861">
        <ele>2744</ele>
        <time>2021-04-08T09:17:01Z</time>
      </trkpt>
      <trkpt lat="44.45048" lon="6.57862">
        <ele>2745</ele>
        <time>2021-04-08T09:17:02Z</time>
      </trkpt>
      <trkpt lat="44.45048" lon="6.57862">
        <ele>2745</ele>
        <time>2021-04-08T09:17:03Z</time>
      </trkpt>
      <trkpt lat="44.45048" lon="6.57864">
        <ele>2745</ele>
        <time>2021-04-08T09:17:04Z</time>
      </trkpt>
      <trkpt lat="44.45048" lon="6.57864">
        <ele>2746</ele>
        <time>2021-04-08T09:17:05Z</time>
      </trkpt>
      <trkpt lat="44.45048" lon="6.57865">
        <ele>2746</ele>
        <time>2021-04-08T09:17:06Z</time>
      </trkpt>
      <trkpt lat="44.45049" lon="6.57866">
        <ele>2746</ele>
        <time>2021-04-08T09:17:07Z</time>
      </trkpt>
      <trkpt lat="44.45049" lon="6.57866">
        <ele>2746</ele>
        <time>2021-04-08T09:17:08Z</time>
      </trkpt>
      <trkpt lat="44.45049" lon="6.57867">
        <ele>2747</ele>
        <time>2021-04-08T09:17:09Z</time>
      </trkpt>
      <trkpt lat="44.45049" lon="6.57868">
        <ele>2747</ele>
        <time>2021-04-08T09:17:10Z</time>
      </trkpt>
      <trkpt lat="44.45049" lon="6.57869">
        <ele>2747</ele>
        <time>2021-04-08T09:17:11Z</time>
      </trkpt>
      <trkpt lat="44.45049" lon="6.57869">
        <ele>2747</ele>
        <time>2021-04-08T09:17:12Z</time>
      </trkpt>
      <trkpt lat="44.45048" lon="6.5787">
        <ele>2747</ele>
        <time>2021-04-08T09:17:13Z</time>
      </trkpt>
      <trkpt lat="44.45048" lon="6.5787">
        <ele>2747</ele>
        <time>2021-04-08T09:17:14Z</time>
      </trkpt>
      <trkpt lat="44.45048" lon="6.57871">
        <ele>2747</ele>
        <time>2021-04-08T09:17:15Z</time>
      </trkpt>
      <trkpt lat="44.45049" lon="6.57871">
        <ele>2748</ele>
        <time>2021-04-08T09:17:16Z</time>
      </trkpt>
      <trkpt lat="44.45049" lon="6.57872">
        <ele>2748</ele>
        <time>2021-04-08T09:17:17Z</time>
      </trkpt>
      <trkpt lat="44.45049" lon="6.57872">
        <ele>2748</ele>
        <time>2021-04-08T09:17:18Z</time>
      </trkpt>
      <trkpt lat="44.45049" lon="6.57873">
        <ele>2748</ele>
        <time>2021-04-08T09:17:19Z</time>
      </trkpt>
      <trkpt lat="44.45048" lon="6.57874">
        <ele>2748</ele>
        <time>2021-04-08T09:17:20Z</time>
      </trkpt>
      <trkpt lat="44.45048" lon="6.57875">
        <ele>2748</ele>
        <time>2021-04-08T09:17:21Z</time>
      </trkpt>
      <trkpt lat="44.45048" lon="6.57875">
        <ele>2749</ele>
        <time>2021-04-08T09:17:22Z</time>
      </trkpt>
      <trkpt lat="44.45048" lon="6.57876">
        <ele>2749</ele>
        <time>2021-04-08T09:17:23Z</time>
      </trkpt>
      <trkpt lat="44.45048" lon="6.57876">
        <ele>2749</ele>
        <time>2021-04-08T09:17:24Z</time>
      </trkpt>
      <trkpt lat="44.45048" lon="6.57877">
        <ele>2749</ele>
        <time>2021-04-08T09:17:25Z</time>
      </trkpt>
      <trkpt lat="44.45048" lon="6.57877">
        <ele>2749</ele>
        <time>2021-04-08T09:17:26Z</time>
      </trkpt>
      <trkpt lat="44.45048" lon="6.57878">
        <ele>2749</ele>
        <time>2021-04-08T09:17:27Z</time>
      </trkpt>
      <trkpt lat="44.45048" lon="6.57879">
        <ele>2749</ele>
        <time>2021-04-08T09:17:28Z</time>
      </trkpt>
      <trkpt lat="44.45048" lon="6.57879">
        <ele>2749</ele>
        <time>2021-04-08T09:17:29Z</time>
      </trkpt>
      <trkpt lat="44.45048" lon="6.5788">
        <ele>2749</ele>
        <time>2021-04-08T09:17:30Z</time>
      </trkpt>
      <trkpt lat="44.45048" lon="6.57881">
        <ele>2749</ele>
        <time>2021-04-08T09:17:31Z</time>
      </trkpt>
      <trkpt lat="44.45048" lon="6.57882">
        <ele>2749</ele>
        <time>2021-04-08T09:17:32Z</time>
      </trkpt>
      <trkpt lat="44.45048" lon="6.57882">
        <ele>2749</ele>
        <time>2021-04-08T09:17:33Z</time>
      </trkpt>
      <trkpt lat="44.45048" lon="6.57882">
        <ele>2749</ele>
        <time>2021-04-08T09:17:34Z</time>
      </trkpt>
      <trkpt lat="44.45048" lon="6.57882">
        <ele>2749</ele>
        <time>2021-04-08T09:17:35Z</time>
      </trkpt>
      <trkpt lat="44.45048" lon="6.57882">
        <ele>2749</ele>
        <time>2021-04-08T09:17:36Z</time>
      </trkpt>
      <trkpt lat="44.45048" lon="6.57882">
        <ele>2750</ele>
        <time>2021-04-08T09:17:37Z</time>
      </trkpt>
      <trkpt lat="44.45046" lon="6.57883">
        <ele>2750</ele>
        <time>2021-04-08T09:17:38Z</time>
      </trkpt>
      <trkpt lat="44.45046" lon="6.57883">
        <ele>2751</ele>
        <time>2021-04-08T09:17:39Z</time>
      </trkpt>
      <trkpt lat="44.45046" lon="6.57882">
        <ele>2751</ele>
        <time>2021-04-08T09:17:40Z</time>
      </trkpt>
      <trkpt lat="44.45045" lon="6.57882">
        <ele>2751</ele>
        <time>2021-04-08T09:17:41Z</time>
      </trkpt>
      <trkpt lat="44.45044" lon="6.57881">
        <ele>2752</ele>
        <time>2021-04-08T09:17:42Z</time>
      </trkpt>
      <trkpt lat="44.45044" lon="6.57881">
        <ele>2753</ele>
        <time>2021-04-08T09:17:43Z</time>
      </trkpt>
      <trkpt lat="44.45043" lon="6.5788">
        <ele>2753</ele>
        <time>2021-04-08T09:17:44Z</time>
      </trkpt>
      <trkpt lat="44.45043" lon="6.5788">
        <ele>2753</ele>
        <time>2021-04-08T09:17:45Z</time>
      </trkpt>
      <trkpt lat="44.45042" lon="6.57879">
        <ele>2753</ele>
        <time>2021-04-08T09:17:46Z</time>
      </trkpt>
      <trkpt lat="44.45042" lon="6.57879">
        <ele>2753</ele>
        <time>2021-04-08T09:17:47Z</time>
      </trkpt>
      <trkpt lat="44.45042" lon="6.57878">
        <ele>2754</ele>
        <time>2021-04-08T09:17:48Z</time>
      </trkpt>
      <trkpt lat="44.45042" lon="6.57878">
        <ele>2754</ele>
        <time>2021-04-08T09:17:49Z</time>
      </trkpt>
      <trkpt lat="44.45041" lon="6.57878">
        <ele>2754</ele>
        <time>2021-04-08T09:17:50Z</time>
      </trkpt>
      <trkpt lat="44.45041" lon="6.57877">
        <ele>2755</ele>
        <time>2021-04-08T09:17:51Z</time>
      </trkpt>
      <trkpt lat="44.4504" lon="6.57877">
        <ele>2755</ele>
        <time>2021-04-08T09:17:52Z</time>
      </trkpt>
      <trkpt lat="44.45039" lon="6.57876">
        <ele>2755</ele>
        <time>2021-04-08T09:17:53Z</time>
      </trkpt>
      <trkpt lat="44.45039" lon="6.57876">
        <ele>2755</ele>
        <time>2021-04-08T09:17:54Z</time>
      </trkpt>
      <trkpt lat="44.45038" lon="6.57875">
        <ele>2755</ele>
        <time>2021-04-08T09:17:55Z</time>
      </trkpt>
      <trkpt lat="44.45038" lon="6.57875">
        <ele>2755</ele>
        <time>2021-04-08T09:17:56Z</time>
      </trkpt>
      <trkpt lat="44.45038" lon="6.57874">
        <ele>2756</ele>
        <time>2021-04-08T09:17:57Z</time>
      </trkpt>
      <trkpt lat="44.45037" lon="6.57873">
        <ele>2756</ele>
        <time>2021-04-08T09:17:58Z</time>
      </trkpt>
      <trkpt lat="44.45037" lon="6.57873">
        <ele>2756</ele>
        <time>2021-04-08T09:17:59Z</time>
      </trkpt>
      <trkpt lat="44.45036" lon="6.57872">
        <ele>2757</ele>
        <time>2021-04-08T09:18:00Z</time>
      </trkpt>
      <trkpt lat="44.45036" lon="6.57872">
        <ele>2757</ele>
        <time>2021-04-08T09:18:01Z</time>
      </trkpt>
      <trkpt lat="44.45036" lon="6.57871">
        <ele>2757</ele>
        <time>2021-04-08T09:18:02Z</time>
      </trkpt>
      <trkpt lat="44.45035" lon="6.57871">
        <ele>2757</ele>
        <time>2021-04-08T09:18:03Z</time>
      </trkpt>
      <trkpt lat="44.45035" lon="6.57871">
        <ele>2757</ele>
        <time>2021-04-08T09:18:04Z</time>
      </trkpt>
      <trkpt lat="44.45034" lon="6.5787">
        <ele>2758</ele>
        <time>2021-04-08T09:18:05Z</time>
      </trkpt>
      <trkpt lat="44.45034" lon="6.5787">
        <ele>2758</ele>
        <time>2021-04-08T09:18:06Z</time>
      </trkpt>
      <trkpt lat="44.45034" lon="6.57869">
        <ele>2759</ele>
        <time>2021-04-08T09:18:07Z</time>
      </trkpt>
      <trkpt lat="44.45033" lon="6.57869">
        <ele>2759</ele>
        <time>2021-04-08T09:18:08Z</time>
      </trkpt>
      <trkpt lat="44.45033" lon="6.57869">
        <ele>2759</ele>
        <time>2021-04-08T09:18:09Z</time>
      </trkpt>
      <trkpt lat="44.45032" lon="6.57868">
        <ele>2759</ele>
        <time>2021-04-08T09:18:10Z</time>
      </trkpt>
      <trkpt lat="44.45032" lon="6.57868">
        <ele>2760</ele>
        <time>2021-04-08T09:18:11Z</time>
      </trkpt>
      <trkpt lat="44.45031" lon="6.57867">
        <ele>2760</ele>
        <time>2021-04-08T09:18:12Z</time>
      </trkpt>
      <trkpt lat="44.45031" lon="6.57867">
        <ele>2760</ele>
        <time>2021-04-08T09:18:13Z</time>
      </trkpt>
      <trkpt lat="44.45031" lon="6.57867">
        <ele>2760</ele>
        <time>2021-04-08T09:18:14Z</time>
      </trkpt>
      <trkpt lat="44.45031" lon="6.57868">
        <ele>2760</ele>
        <time>2021-04-08T09:18:15Z</time>
      </trkpt>
      <trkpt lat="44.45031" lon="6.57868">
        <ele>2761</ele>
        <time>2021-04-08T09:18:16Z</time>
      </trkpt>
      <trkpt lat="44.45031" lon="6.57867">
        <ele>2761</ele>
        <time>2021-04-08T09:18:17Z</time>
      </trkpt>
      <trkpt lat="44.4503" lon="6.57867">
        <ele>2761</ele>
        <time>2021-04-08T09:18:18Z</time>
      </trkpt>
      <trkpt lat="44.4503" lon="6.57867">
        <ele>2761</ele>
        <time>2021-04-08T09:18:19Z</time>
      </trkpt>
      <trkpt lat="44.4503" lon="6.57867">
        <ele>2761</ele>
        <time>2021-04-08T09:18:20Z</time>
      </trkpt>
      <trkpt lat="44.4503" lon="6.57867">
        <ele>2761</ele>
        <time>2021-04-08T09:18:21Z</time>
      </trkpt>
      <trkpt lat="44.45029" lon="6.57865">
        <ele>2762</ele>
        <time>2021-04-08T09:18:22Z</time>
      </trkpt>
      <trkpt lat="44.45029" lon="6.57865">
        <ele>2763</ele>
        <time>2021-04-08T09:18:23Z</time>
      </trkpt>
      <trkpt lat="44.45029" lon="6.57864">
        <ele>2763</ele>
        <time>2021-04-08T09:18:24Z</time>
      </trkpt>
      <trkpt lat="44.45028" lon="6.57863">
        <ele>2763</ele>
        <time>2021-04-08T09:18:25Z</time>
      </trkpt>
      <trkpt lat="44.45028" lon="6.57863">
        <ele>2764</ele>
        <time>2021-04-08T09:18:26Z</time>
      </trkpt>
      <trkpt lat="44.45028" lon="6.57862">
        <ele>2764</ele>
        <time>2021-04-08T09:18:27Z</time>
      </trkpt>
      <trkpt lat="44.45027" lon="6.57862">
        <ele>2765</ele>
        <time>2021-04-08T09:18:28Z</time>
      </trkpt>
      <trkpt lat="44.45027" lon="6.57862">
        <ele>2765</ele>
        <time>2021-04-08T09:18:29Z</time>
      </trkpt>
      <trkpt lat="44.45027" lon="6.57861">
        <ele>2765</ele>
        <time>2021-04-08T09:18:30Z</time>
      </trkpt>
      <trkpt lat="44.45026" lon="6.57861">
        <ele>2765</ele>
        <time>2021-04-08T09:18:31Z</time>
      </trkpt>
      <trkpt lat="44.45026" lon="6.5786">
        <ele>2766</ele>
        <time>2021-04-08T09:18:32Z</time>
      </trkpt>
      <trkpt lat="44.45025" lon="6.5786">
        <ele>2766</ele>
        <time>2021-04-08T09:18:33Z</time>
      </trkpt>
      <trkpt lat="44.45025" lon="6.57859">
        <ele>2767</ele>
        <time>2021-04-08T09:18:34Z</time>
      </trkpt>
      <trkpt lat="44.45024" lon="6.57858">
        <ele>2767</ele>
        <time>2021-04-08T09:18:35Z</time>
      </trkpt>
      <trkpt lat="44.45024" lon="6.57858">
        <ele>2767</ele>
        <time>2021-04-08T09:18:36Z</time>
      </trkpt>
      <trkpt lat="44.45024" lon="6.57857">
        <ele>2768</ele>
        <time>2021-04-08T09:18:37Z</time>
      </trkpt>
      <trkpt lat="44.45023" lon="6.57856">
        <ele>2768</ele>
        <time>2021-04-08T09:18:38Z</time>
      </trkpt>
      <trkpt lat="44.45023" lon="6.57856">
        <ele>2768</ele>
        <time>2021-04-08T09:18:39Z</time>
      </trkpt>
      <trkpt lat="44.45023" lon="6.57855">
        <ele>2768</ele>
        <time>2021-04-08T09:18:40Z</time>
      </trkpt>
      <trkpt lat="44.45023" lon="6.57855">
        <ele>2768</ele>
        <time>2021-04-08T09:18:41Z</time>
      </trkpt>
      <trkpt lat="44.45023" lon="6.57854">
        <ele>2769</ele>
        <time>2021-04-08T09:18:42Z</time>
      </trkpt>
      <trkpt lat="44.45023" lon="6.57854">
        <ele>2769</ele>
        <time>2021-04-08T09:18:43Z</time>
      </trkpt>
      <trkpt lat="44.45023" lon="6.57854">
        <ele>2769</ele>
        <time>2021-04-08T09:18:44Z</time>
      </trkpt>
      <trkpt lat="44.45023" lon="6.57855">
        <ele>2769</ele>
        <time>2021-04-08T09:18:45Z</time>
      </trkpt>
      <trkpt lat="44.45023" lon="6.57854">
        <ele>2769</ele>
        <time>2021-04-08T09:18:46Z</time>
      </trkpt>
      <trkpt lat="44.45023" lon="6.57854">
        <ele>2769</ele>
        <time>2021-04-08T09:18:47Z</time>
      </trkpt>
      <trkpt lat="44.45023" lon="6.57854">
        <ele>2769</ele>
        <time>2021-04-08T09:18:48Z</time>
      </trkpt>
      <trkpt lat="44.45023" lon="6.57854">
        <ele>2769</ele>
        <time>2021-04-08T09:18:49Z</time>
      </trkpt>
      <trkpt lat="44.45023" lon="6.57854">
        <ele>2769</ele>
        <time>2021-04-08T09:18:50Z</time>
      </trkpt>
      <trkpt lat="44.45023" lon="6.57854">
        <ele>2769</ele>
        <time>2021-04-08T09:18:51Z</time>
      </trkpt>
      <trkpt lat="44.45022" lon="6.57857">
        <ele>2769</ele>
        <time>2021-04-08T09:18:52Z</time>
      </trkpt>
      <trkpt lat="44.45022" lon="6.57858">
        <ele>2769</ele>
        <time>2021-04-08T09:18:53Z</time>
      </trkpt>
      <trkpt lat="44.45023" lon="6.57859">
        <ele>2769</ele>
        <time>2021-04-08T09:18:54Z</time>
      </trkpt>
      <trkpt lat="44.45023" lon="6.57859">
        <ele>2769</ele>
        <time>2021-04-08T09:18:55Z</time>
      </trkpt>
      <trkpt lat="44.45023" lon="6.5786">
        <ele>2769</ele>
        <time>2021-04-08T09:18:56Z</time>
      </trkpt>
      <trkpt lat="44.45022" lon="6.57861">
        <ele>2770</ele>
        <time>2021-04-08T09:18:57Z</time>
      </trkpt>
      <trkpt lat="44.45022" lon="6.57861">
        <ele>2770</ele>
        <time>2021-04-08T09:18:58Z</time>
      </trkpt>
      <trkpt lat="44.45022" lon="6.57862">
        <ele>2770</ele>
        <time>2021-04-08T09:18:59Z</time>
      </trkpt>
      <trkpt lat="44.45021" lon="6.57863">
        <ele>2770</ele>
        <time>2021-04-08T09:19:00Z</time>
      </trkpt>
      <trkpt lat="44.45021" lon="6.57863">
        <ele>2770</ele>
        <time>2021-04-08T09:19:01Z</time>
      </trkpt>
      <trkpt lat="44.45021" lon="6.57864">
        <ele>2770</ele>
        <time>2021-04-08T09:19:02Z</time>
      </trkpt>
      <trkpt lat="44.45021" lon="6.57865">
        <ele>2770</ele>
        <time>2021-04-08T09:19:03Z</time>
      </trkpt>
      <trkpt lat="44.45021" lon="6.57865">
        <ele>2770</ele>
        <time>2021-04-08T09:19:04Z</time>
      </trkpt>
      <trkpt lat="44.45021" lon="6.57866">
        <ele>2770</ele>
        <time>2021-04-08T09:19:05Z</time>
      </trkpt>
      <trkpt lat="44.45021" lon="6.57866">
        <ele>2770</ele>
        <time>2021-04-08T09:19:06Z</time>
      </trkpt>
      <trkpt lat="44.45021" lon="6.57867">
        <ele>2770</ele>
        <time>2021-04-08T09:19:07Z</time>
      </trkpt>
      <trkpt lat="44.4502" lon="6.57868">
        <ele>2770</ele>
        <time>2021-04-08T09:19:08Z</time>
      </trkpt>
      <trkpt lat="44.4502" lon="6.57869">
        <ele>2770</ele>
        <time>2021-04-08T09:19:09Z</time>
      </trkpt>
      <trkpt lat="44.4502" lon="6.57869">
        <ele>2770</ele>
        <time>2021-04-08T09:19:10Z</time>
      </trkpt>
      <trkpt lat="44.45019" lon="6.5787">
        <ele>2770</ele>
        <time>2021-04-08T09:19:11Z</time>
      </trkpt>
      <trkpt lat="44.45019" lon="6.5787">
        <ele>2770</ele>
        <time>2021-04-08T09:19:12Z</time>
      </trkpt>
      <trkpt lat="44.45019" lon="6.57871">
        <ele>2770</ele>
        <time>2021-04-08T09:19:13Z</time>
      </trkpt>
      <trkpt lat="44.45019" lon="6.57871">
        <ele>2770</ele>
        <time>2021-04-08T09:19:14Z</time>
      </trkpt>
      <trkpt lat="44.45019" lon="6.57872">
        <ele>2770</ele>
        <time>2021-04-08T09:19:15Z</time>
      </trkpt>
      <trkpt lat="44.4502" lon="6.57872">
        <ele>2770</ele>
        <time>2021-04-08T09:19:16Z</time>
      </trkpt>
      <trkpt lat="44.4502" lon="6.57873">
        <ele>2770</ele>
        <time>2021-04-08T09:19:17Z</time>
      </trkpt>
      <trkpt lat="44.4502" lon="6.57873">
        <ele>2770</ele>
        <time>2021-04-08T09:19:18Z</time>
      </trkpt>
      <trkpt lat="44.4502" lon="6.57874">
        <ele>2770</ele>
        <time>2021-04-08T09:19:19Z</time>
      </trkpt>
      <trkpt lat="44.4502" lon="6.57875">
        <ele>2770</ele>
        <time>2021-04-08T09:19:20Z</time>
      </trkpt>
      <trkpt lat="44.4502" lon="6.57875">
        <ele>2770</ele>
        <time>2021-04-08T09:19:21Z</time>
      </trkpt>
      <trkpt lat="44.4502" lon="6.57876">
        <ele>2770</ele>
        <time>2021-04-08T09:19:22Z</time>
      </trkpt>
      <trkpt lat="44.4502" lon="6.57876">
        <ele>2770</ele>
        <time>2021-04-08T09:19:23Z</time>
      </trkpt>
      <trkpt lat="44.4502" lon="6.57877">
        <ele>2770</ele>
        <time>2021-04-08T09:19:24Z</time>
      </trkpt>
      <trkpt lat="44.4502" lon="6.57877">
        <ele>2770</ele>
        <time>2021-04-08T09:19:25Z</time>
      </trkpt>
      <trkpt lat="44.4502" lon="6.57878">
        <ele>2770</ele>
        <time>2021-04-08T09:19:26Z</time>
      </trkpt>
      <trkpt lat="44.4502" lon="6.57879">
        <ele>2770</ele>
        <time>2021-04-08T09:19:27Z</time>
      </trkpt>
      <trkpt lat="44.4502" lon="6.57879">
        <ele>2770</ele>
        <time>2021-04-08T09:19:28Z</time>
      </trkpt>
      <trkpt lat="44.4502" lon="6.5788">
        <ele>2770</ele>
        <time>2021-04-08T09:19:29Z</time>
      </trkpt>
      <trkpt lat="44.4502" lon="6.57881">
        <ele>2770</ele>
        <time>2021-04-08T09:19:30Z</time>
      </trkpt>
      <trkpt lat="44.45019" lon="6.57882">
        <ele>2770</ele>
        <time>2021-04-08T09:19:31Z</time>
      </trkpt>
      <trkpt lat="44.45019" lon="6.57882">
        <ele>2771</ele>
        <time>2021-04-08T09:19:32Z</time>
      </trkpt>
      <trkpt lat="44.45018" lon="6.57884">
        <ele>2771</ele>
        <time>2021-04-08T09:19:33Z</time>
      </trkpt>
      <trkpt lat="44.45018" lon="6.57885">
        <ele>2771</ele>
        <time>2021-04-08T09:19:34Z</time>
      </trkpt>
      <trkpt lat="44.45017" lon="6.57886">
        <ele>2771</ele>
        <time>2021-04-08T09:19:35Z</time>
      </trkpt>
      <trkpt lat="44.45018" lon="6.57886">
        <ele>2771</ele>
        <time>2021-04-08T09:19:36Z</time>
      </trkpt>
      <trkpt lat="44.45018" lon="6.57887">
        <ele>2771</ele>
        <time>2021-04-08T09:19:37Z</time>
      </trkpt>
      <trkpt lat="44.45019" lon="6.57888">
        <ele>2771</ele>
        <time>2021-04-08T09:19:38Z</time>
      </trkpt>
      <trkpt lat="44.45019" lon="6.57889">
        <ele>2771</ele>
        <time>2021-04-08T09:19:39Z</time>
      </trkpt>
      <trkpt lat="44.45019" lon="6.5789">
        <ele>2771</ele>
        <time>2021-04-08T09:19:40Z</time>
      </trkpt>
      <trkpt lat="44.45019" lon="6.57891">
        <ele>2771</ele>
        <time>2021-04-08T09:19:41Z</time>
      </trkpt>
      <trkpt lat="44.45019" lon="6.57892">
        <ele>2771</ele>
        <time>2021-04-08T09:19:42Z</time>
      </trkpt>
      <trkpt lat="44.45019" lon="6.57893">
        <ele>2771</ele>
        <time>2021-04-08T09:19:43Z</time>
      </trkpt>
      <trkpt lat="44.45019" lon="6.57893">
        <ele>2771</ele>
        <time>2021-04-08T09:19:44Z</time>
      </trkpt>
      <trkpt lat="44.4502" lon="6.57894">
        <ele>2771</ele>
        <time>2021-04-08T09:19:45Z</time>
      </trkpt>
      <trkpt lat="44.4502" lon="6.57894">
        <ele>2771</ele>
        <time>2021-04-08T09:19:46Z</time>
      </trkpt>
      <trkpt lat="44.4502" lon="6.57895">
        <ele>2771</ele>
        <time>2021-04-08T09:19:47Z</time>
      </trkpt>
      <trkpt lat="44.4502" lon="6.57896">
        <ele>2771</ele>
        <time>2021-04-08T09:19:48Z</time>
      </trkpt>
      <trkpt lat="44.4502" lon="6.57897">
        <ele>2772</ele>
        <time>2021-04-08T09:19:49Z</time>
      </trkpt>
      <trkpt lat="44.4502" lon="6.57898">
        <ele>2772</ele>
        <time>2021-04-08T09:19:50Z</time>
      </trkpt>
      <trkpt lat="44.4502" lon="6.57899">
        <ele>2772</ele>
        <time>2021-04-08T09:19:51Z</time>
      </trkpt>
      <trkpt lat="44.4502" lon="6.57899">
        <ele>2772</ele>
        <time>2021-04-08T09:19:52Z</time>
      </trkpt>
      <trkpt lat="44.4502" lon="6.579">
        <ele>2772</ele>
        <time>2021-04-08T09:19:53Z</time>
      </trkpt>
      <trkpt lat="44.4502" lon="6.57901">
        <ele>2772</ele>
        <time>2021-04-08T09:19:54Z</time>
      </trkpt>
      <trkpt lat="44.4502" lon="6.57901">
        <ele>2772</ele>
        <time>2021-04-08T09:19:55Z</time>
      </trkpt>
      <trkpt lat="44.4502" lon="6.57902">
        <ele>2772</ele>
        <time>2021-04-08T09:19:56Z</time>
      </trkpt>
      <trkpt lat="44.4502" lon="6.57903">
        <ele>2773</ele>
        <time>2021-04-08T09:19:57Z</time>
      </trkpt>
      <trkpt lat="44.4502" lon="6.57903">
        <ele>2773</ele>
        <time>2021-04-08T09:19:58Z</time>
      </trkpt>
      <trkpt lat="44.45019" lon="6.57904">
        <ele>2773</ele>
        <time>2021-04-08T09:19:59Z</time>
      </trkpt>
      <trkpt lat="44.45019" lon="6.57905">
        <ele>2773</ele>
        <time>2021-04-08T09:20:00Z</time>
      </trkpt>
      <trkpt lat="44.45019" lon="6.57905">
        <ele>2773</ele>
        <time>2021-04-08T09:20:01Z</time>
      </trkpt>
      <trkpt lat="44.45019" lon="6.57906">
        <ele>2773</ele>
        <time>2021-04-08T09:20:02Z</time>
      </trkpt>
      <trkpt lat="44.45019" lon="6.57907">
        <ele>2773</ele>
        <time>2021-04-08T09:20:03Z</time>
      </trkpt>
      <trkpt lat="44.45019" lon="6.57908">
        <ele>2773</ele>
        <time>2021-04-08T09:20:04Z</time>
      </trkpt>
      <trkpt lat="44.45019" lon="6.57908">
        <ele>2774</ele>
        <time>2021-04-08T09:20:05Z</time>
      </trkpt>
      <trkpt lat="44.45019" lon="6.5791">
        <ele>2774</ele>
        <time>2021-04-08T09:20:06Z</time>
      </trkpt>
      <trkpt lat="44.45019" lon="6.57911">
        <ele>2774</ele>
        <time>2021-04-08T09:20:07Z</time>
      </trkpt>
      <trkpt lat="44.45019" lon="6.57912">
        <ele>2774</ele>
        <time>2021-04-08T09:20:08Z</time>
      </trkpt>
      <trkpt lat="44.45019" lon="6.57913">
        <ele>2774</ele>
        <time>2021-04-08T09:20:09Z</time>
      </trkpt>
      <trkpt lat="44.45019" lon="6.57914">
        <ele>2775</ele>
        <time>2021-04-08T09:20:10Z</time>
      </trkpt>
      <trkpt lat="44.45018" lon="6.57915">
        <ele>2775</ele>
        <time>2021-04-08T09:20:11Z</time>
      </trkpt>
      <trkpt lat="44.45018" lon="6.57915">
        <ele>2775</ele>
        <time>2021-04-08T09:20:12Z</time>
      </trkpt>
      <trkpt lat="44.45018" lon="6.57916">
        <ele>2775</ele>
        <time>2021-04-08T09:20:13Z</time>
      </trkpt>
      <trkpt lat="44.45018" lon="6.57917">
        <ele>2776</ele>
        <time>2021-04-08T09:20:14Z</time>
      </trkpt>
      <trkpt lat="44.45017" lon="6.57917">
        <ele>2776</ele>
        <time>2021-04-08T09:20:15Z</time>
      </trkpt>
      <trkpt lat="44.45017" lon="6.57918">
        <ele>2776</ele>
        <time>2021-04-08T09:20:16Z</time>
      </trkpt>
      <trkpt lat="44.45017" lon="6.57919">
        <ele>2776</ele>
        <time>2021-04-08T09:20:17Z</time>
      </trkpt>
      <trkpt lat="44.45017" lon="6.57919">
        <ele>2777</ele>
        <time>2021-04-08T09:20:18Z</time>
      </trkpt>
      <trkpt lat="44.45016" lon="6.5792">
        <ele>2777</ele>
        <time>2021-04-08T09:20:19Z</time>
      </trkpt>
      <trkpt lat="44.45016" lon="6.5792">
        <ele>2777</ele>
        <time>2021-04-08T09:20:20Z</time>
      </trkpt>
      <trkpt lat="44.45015" lon="6.57921">
        <ele>2777</ele>
        <time>2021-04-08T09:20:21Z</time>
      </trkpt>
      <trkpt lat="44.45014" lon="6.5792">
        <ele>2778</ele>
        <time>2021-04-08T09:20:22Z</time>
      </trkpt>
      <trkpt lat="44.45014" lon="6.5792">
        <ele>2778</ele>
        <time>2021-04-08T09:20:23Z</time>
      </trkpt>
      <trkpt lat="44.45014" lon="6.5792">
        <ele>2778</ele>
        <time>2021-04-08T09:20:24Z</time>
      </trkpt>
      <trkpt lat="44.45014" lon="6.5792">
        <ele>2778</ele>
        <time>2021-04-08T09:20:25Z</time>
      </trkpt>
      <trkpt lat="44.45014" lon="6.5792">
        <ele>2778</ele>
        <time>2021-04-08T09:20:26Z</time>
      </trkpt>
      <trkpt lat="44.45014" lon="6.57919">
        <ele>2778</ele>
        <time>2021-04-08T09:20:27Z</time>
      </trkpt>
      <trkpt lat="44.45014" lon="6.57919">
        <ele>2778</ele>
        <time>2021-04-08T09:20:28Z</time>
      </trkpt>
      <trkpt lat="44.45013" lon="6.57919">
        <ele>2778</ele>
        <time>2021-04-08T09:20:29Z</time>
      </trkpt>
      <trkpt lat="44.45013" lon="6.57919">
        <ele>2779</ele>
        <time>2021-04-08T09:20:30Z</time>
      </trkpt>
      <trkpt lat="44.45013" lon="6.57919">
        <ele>2779</ele>
        <time>2021-04-08T09:20:31Z</time>
      </trkpt>
      <trkpt lat="44.45013" lon="6.57919">
        <ele>2779</ele>
        <time>2021-04-08T09:20:32Z</time>
      </trkpt>
      <trkpt lat="44.45013" lon="6.57919">
        <ele>2779</ele>
        <time>2021-04-08T09:20:33Z</time>
      </trkpt>
      <trkpt lat="44.45013" lon="6.57919">
        <ele>2779</ele>
        <time>2021-04-08T09:20:34Z</time>
      </trkpt>
      <trkpt lat="44.45013" lon="6.57919">
        <ele>2779</ele>
        <time>2021-04-08T09:20:35Z</time>
      </trkpt>
      <trkpt lat="44.45013" lon="6.57919">
        <ele>2779</ele>
        <time>2021-04-08T09:20:36Z</time>
      </trkpt>
      <trkpt lat="44.45013" lon="6.57919">
        <ele>2779</ele>
        <time>2021-04-08T09:20:37Z</time>
      </trkpt>
      <trkpt lat="44.45013" lon="6.57919">
        <ele>2779</ele>
        <time>2021-04-08T09:20:38Z</time>
      </trkpt>
      <trkpt lat="44.45013" lon="6.57919">
        <ele>2779</ele>
        <time>2021-04-08T09:20:39Z</time>
      </trkpt>
      <trkpt lat="44.45013" lon="6.57919">
        <ele>2779</ele>
        <time>2021-04-08T09:20:40Z</time>
      </trkpt>
      <trkpt lat="44.45013" lon="6.57919">
        <ele>2779</ele>
        <time>2021-04-08T09:20:41Z</time>
      </trkpt>
      <trkpt lat="44.45013" lon="6.57919">
        <ele>2779</ele>
        <time>2021-04-08T09:20:42Z</time>
      </trkpt>
      <trkpt lat="44.45012" lon="6.5792">
        <ele>2779</ele>
        <time>2021-04-08T09:20:43Z</time>
      </trkpt>
      <trkpt lat="44.45012" lon="6.57921">
        <ele>2779</ele>
        <time>2021-04-08T09:20:44Z</time>
      </trkpt>
      <trkpt lat="44.45012" lon="6.57922">
        <ele>2779</ele>
        <time>2021-04-08T09:20:45Z</time>
      </trkpt>
      <trkpt lat="44.45012" lon="6.57921">
        <ele>2779</ele>
        <time>2021-04-08T09:20:46Z</time>
      </trkpt>
      <trkpt lat="44.45013" lon="6.57921">
        <ele>2779</ele>
        <time>2021-04-08T09:20:47Z</time>
      </trkpt>
      <trkpt lat="44.45013" lon="6.5792">
        <ele>2779</ele>
        <time>2021-04-08T09:20:48Z</time>
      </trkpt>
      <trkpt lat="44.45014" lon="6.57919">
        <ele>2780</ele>
        <time>2021-04-08T09:20:49Z</time>
      </trkpt>
      <trkpt lat="44.45014" lon="6.57918">
        <ele>2780</ele>
        <time>2021-04-08T09:20:50Z</time>
      </trkpt>
      <trkpt lat="44.45014" lon="6.57918">
        <ele>2780</ele>
        <time>2021-04-08T09:20:51Z</time>
      </trkpt>
      <trkpt lat="44.45014" lon="6.57918">
        <ele>2781</ele>
        <time>2021-04-08T09:20:52Z</time>
      </trkpt>
      <trkpt lat="44.45014" lon="6.57918">
        <ele>2781</ele>
        <time>2021-04-08T09:20:53Z</time>
      </trkpt>
      <trkpt lat="44.45014" lon="6.57918">
        <ele>2781</ele>
        <time>2021-04-08T09:20:54Z</time>
      </trkpt>
      <trkpt lat="44.45014" lon="6.57918">
        <ele>2781</ele>
        <time>2021-04-08T09:20:55Z</time>
      </trkpt>
      <trkpt lat="44.45014" lon="6.57918">
        <ele>2781</ele>
        <time>2021-04-08T09:20:56Z</time>
      </trkpt>
      <trkpt lat="44.45014" lon="6.57918">
        <ele>2781</ele>
        <time>2021-04-08T09:20:57Z</time>
      </trkpt>
      <trkpt lat="44.45014" lon="6.57918">
        <ele>2782</ele>
        <time>2021-04-08T09:20:58Z</time>
      </trkpt>
      <trkpt lat="44.45014" lon="6.57918">
        <ele>2782</ele>
        <time>2021-04-08T09:20:59Z</time>
      </trkpt>
      <trkpt lat="44.45014" lon="6.57918">
        <ele>2782</ele>
        <time>2021-04-08T09:21:00Z</time>
      </trkpt>
      <trkpt lat="44.45014" lon="6.57918">
        <ele>2782</ele>
        <time>2021-04-08T09:21:01Z</time>
      </trkpt>
      <trkpt lat="44.45014" lon="6.57918">
        <ele>2782</ele>
        <time>2021-04-08T09:21:02Z</time>
      </trkpt>
      <trkpt lat="44.45014" lon="6.57918">
        <ele>2782</ele>
        <time>2021-04-08T09:21:03Z</time>
      </trkpt>
      <trkpt lat="44.45014" lon="6.57918">
        <ele>2782</ele>
        <time>2021-04-08T09:21:04Z</time>
      </trkpt>
      <trkpt lat="44.45014" lon="6.57918">
        <ele>2782</ele>
        <time>2021-04-08T09:21:05Z</time>
      </trkpt>
      <trkpt lat="44.45014" lon="6.57918">
        <ele>2782</ele>
        <time>2021-04-08T09:21:06Z</time>
      </trkpt>
      <trkpt lat="44.45014" lon="6.57918">
        <ele>2782</ele>
        <time>2021-04-08T09:21:07Z</time>
      </trkpt>
      <trkpt lat="44.45014" lon="6.57918">
        <ele>2782</ele>
        <time>2021-04-08T09:21:08Z</time>
      </trkpt>
      <trkpt lat="44.45014" lon="6.57918">
        <ele>2782</ele>
        <time>2021-04-08T09:21:09Z</time>
      </trkpt>
      <trkpt lat="44.45014" lon="6.57918">
        <ele>2782</ele>
        <time>2021-04-08T09:21:10Z</time>
      </trkpt>
      <trkpt lat="44.45014" lon="6.57918">
        <ele>2782</ele>
        <time>2021-04-08T09:21:11Z</time>
      </trkpt>
      <trkpt lat="44.45014" lon="6.57918">
        <ele>2782</ele>
        <time>2021-04-08T09:21:12Z</time>
      </trkpt>
      <trkpt lat="44.45014" lon="6.57918">
        <ele>2782</ele>
        <time>2021-04-08T09:21:13Z</time>
      </trkpt>
      <trkpt lat="44.45014" lon="6.57918">
        <ele>2782</ele>
        <time>2021-04-08T09:21:14Z</time>
      </trkpt>
      <trkpt lat="44.45014" lon="6.57918">
        <ele>2782</ele>
        <time>2021-04-08T09:21:15Z</time>
      </trkpt>
      <trkpt lat="44.45014" lon="6.57918">
        <ele>2782</ele>
        <time>2021-04-08T09:21:16Z</time>
      </trkpt>
      <trkpt lat="44.45014" lon="6.57918">
        <ele>2782</ele>
        <time>2021-04-08T09:21:17Z</time>
      </trkpt>
      <trkpt lat="44.45014" lon="6.57918">
        <ele>2782</ele>
        <time>2021-04-08T09:21:18Z</time>
      </trkpt>
      <trkpt lat="44.45014" lon="6.57918">
        <ele>2782</ele>
        <time>2021-04-08T09:21:19Z</time>
      </trkpt>
      <trkpt lat="44.45014" lon="6.57918">
        <ele>2782</ele>
        <time>2021-04-08T09:21:20Z</time>
      </trkpt>
      <trkpt lat="44.45014" lon="6.57918">
        <ele>2782</ele>
        <time>2021-04-08T09:21:21Z</time>
      </trkpt>
      <trkpt lat="44.45014" lon="6.57918">
        <ele>2782</ele>
        <time>2021-04-08T09:21:22Z</time>
      </trkpt>
      <trkpt lat="44.45014" lon="6.57918">
        <ele>2782</ele>
        <time>2021-04-08T09:21:23Z</time>
      </trkpt>
      <trkpt lat="44.45014" lon="6.57918">
        <ele>2782</ele>
        <time>2021-04-08T09:21:24Z</time>
      </trkpt>
      <trkpt lat="44.45014" lon="6.57918">
        <ele>2782</ele>
        <time>2021-04-08T09:21:25Z</time>
      </trkpt>
      <trkpt lat="44.45014" lon="6.57918">
        <ele>2782</ele>
        <time>2021-04-08T09:21:26Z</time>
      </trkpt>
      <trkpt lat="44.45014" lon="6.57918">
        <ele>2782</ele>
        <time>2021-04-08T09:21:27Z</time>
      </trkpt>
      <trkpt lat="44.45014" lon="6.57918">
        <ele>2782</ele>
        <time>2021-04-08T09:21:28Z</time>
      </trkpt>
      <trkpt lat="44.45014" lon="6.57918">
        <ele>2782</ele>
        <time>2021-04-08T09:21:29Z</time>
      </trkpt>
      <trkpt lat="44.45012" lon="6.57917">
        <ele>2783</ele>
        <time>2021-04-08T09:21:30Z</time>
      </trkpt>
      <trkpt lat="44.45012" lon="6.57917">
        <ele>2783</ele>
        <time>2021-04-08T09:21:31Z</time>
      </trkpt>
      <trkpt lat="44.45012" lon="6.57917">
        <ele>2784</ele>
        <time>2021-04-08T09:21:32Z</time>
      </trkpt>
      <trkpt lat="44.45012" lon="6.57917">
        <ele>2784</ele>
        <time>2021-04-08T09:21:33Z</time>
      </trkpt>
      <trkpt lat="44.45012" lon="6.57917">
        <ele>2784</ele>
        <time>2021-04-08T09:21:34Z</time>
      </trkpt>
      <trkpt lat="44.45012" lon="6.57917">
        <ele>2784</ele>
        <time>2021-04-08T09:21:35Z</time>
      </trkpt>
      <trkpt lat="44.45012" lon="6.57917">
        <ele>2784</ele>
        <time>2021-04-08T09:21:36Z</time>
      </trkpt>
      <trkpt lat="44.45012" lon="6.57917">
        <ele>2784</ele>
        <time>2021-04-08T09:21:37Z</time>
      </trkpt>
      <trkpt lat="44.45012" lon="6.57917">
        <ele>2784</ele>
        <time>2021-04-08T09:21:38Z</time>
      </trkpt>
      <trkpt lat="44.45012" lon="6.57917">
        <ele>2784</ele>
        <time>2021-04-08T09:21:39Z</time>
      </trkpt>
      <trkpt lat="44.45012" lon="6.57917">
        <ele>2784</ele>
        <time>2021-04-08T09:21:40Z</time>
      </trkpt>
      <trkpt lat="44.45012" lon="6.57917">
        <ele>2784</ele>
        <time>2021-04-08T09:21:41Z</time>
      </trkpt>
      <trkpt lat="44.45012" lon="6.57917">
        <ele>2784</ele>
        <time>2021-04-08T09:21:42Z</time>
      </trkpt>
      <trkpt lat="44.45012" lon="6.57917">
        <ele>2784</ele>
        <time>2021-04-08T09:21:43Z</time>
      </trkpt>
      <trkpt lat="44.45012" lon="6.57917">
        <ele>2784</ele>
        <time>2021-04-08T09:21:44Z</time>
      </trkpt>
      <trkpt lat="44.45012" lon="6.57917">
        <ele>2784</ele>
        <time>2021-04-08T09:21:45Z</time>
      </trkpt>
      <trkpt lat="44.45012" lon="6.57917">
        <ele>2784</ele>
        <time>2021-04-08T09:21:46Z</time>
      </trkpt>
      <trkpt lat="44.45012" lon="6.57917">
        <ele>2784</ele>
        <time>2021-04-08T09:21:47Z</time>
      </trkpt>
      <trkpt lat="44.45012" lon="6.57917">
        <ele>2784</ele>
        <time>2021-04-08T09:21:48Z</time>
      </trkpt>
      <trkpt lat="44.45012" lon="6.57917">
        <ele>2784</ele>
        <time>2021-04-08T09:21:49Z</time>
      </trkpt>
      <trkpt lat="44.45012" lon="6.57917">
        <ele>2784</ele>
        <time>2021-04-08T09:21:50Z</time>
      </trkpt>
      <trkpt lat="44.45012" lon="6.57917">
        <ele>2784</ele>
        <time>2021-04-08T09:21:51Z</time>
      </trkpt>
      <trkpt lat="44.45012" lon="6.57917">
        <ele>2784</ele>
        <time>2021-04-08T09:21:52Z</time>
      </trkpt>
      <trkpt lat="44.45012" lon="6.57917">
        <ele>2784</ele>
        <time>2021-04-08T09:21:53Z</time>
      </trkpt>
      <trkpt lat="44.45012" lon="6.57917">
        <ele>2784</ele>
        <time>2021-04-08T09:21:54Z</time>
      </trkpt>
      <trkpt lat="44.45012" lon="6.57917">
        <ele>2784</ele>
        <time>2021-04-08T09:21:55Z</time>
      </trkpt>
      <trkpt lat="44.45012" lon="6.57917">
        <ele>2784</ele>
        <time>2021-04-08T09:21:56Z</time>
      </trkpt>
      <trkpt lat="44.45012" lon="6.57917">
        <ele>2784</ele>
        <time>2021-04-08T09:21:57Z</time>
      </trkpt>
      <trkpt lat="44.45012" lon="6.57917">
        <ele>2784</ele>
        <time>2021-04-08T09:21:58Z</time>
      </trkpt>
      <trkpt lat="44.45012" lon="6.57917">
        <ele>2784</ele>
        <time>2021-04-08T09:21:59Z</time>
      </trkpt>
      <trkpt lat="44.45012" lon="6.57917">
        <ele>2784</ele>
        <time>2021-04-08T09:22:00Z</time>
      </trkpt>
      <trkpt lat="44.45012" lon="6.57917">
        <ele>2784</ele>
        <time>2021-04-08T09:22:01Z</time>
      </trkpt>
      <trkpt lat="44.45012" lon="6.57917">
        <ele>2784</ele>
        <time>2021-04-08T09:22:02Z</time>
      </trkpt>
      <trkpt lat="44.45012" lon="6.57917">
        <ele>2784</ele>
        <time>2021-04-08T09:22:03Z</time>
      </trkpt>
      <trkpt lat="44.45013" lon="6.57917">
        <ele>2784</ele>
        <time>2021-04-08T09:22:04Z</time>
      </trkpt>
      <trkpt lat="44.45013" lon="6.57917">
        <ele>2784</ele>
        <time>2021-04-08T09:22:05Z</time>
      </trkpt>
      <trkpt lat="44.45013" lon="6.57917">
        <ele>2784</ele>
        <time>2021-04-08T09:22:06Z</time>
      </trkpt>
      <trkpt lat="44.45013" lon="6.57917">
        <ele>2784</ele>
        <time>2021-04-08T09:22:07Z</time>
      </trkpt>
      <trkpt lat="44.45013" lon="6.57917">
        <ele>2784</ele>
        <time>2021-04-08T09:22:08Z</time>
      </trkpt>
      <trkpt lat="44.45013" lon="6.57917">
        <ele>2784</ele>
        <time>2021-04-08T09:22:09Z</time>
      </trkpt>
      <trkpt lat="44.45013" lon="6.57917">
        <ele>2784</ele>
        <time>2021-04-08T09:22:10Z</time>
      </trkpt>
      <trkpt lat="44.45013" lon="6.57917">
        <ele>2784</ele>
        <time>2021-04-08T09:22:11Z</time>
      </trkpt>
      <trkpt lat="44.45013" lon="6.57917">
        <ele>2784</ele>
        <time>2021-04-08T09:22:12Z</time>
      </trkpt>
      <trkpt lat="44.45013" lon="6.57917">
        <ele>2784</ele>
        <time>2021-04-08T09:22:13Z</time>
      </trkpt>
      <trkpt lat="44.45013" lon="6.57917">
        <ele>2784</ele>
        <time>2021-04-08T09:22:14Z</time>
      </trkpt>
      <trkpt lat="44.45013" lon="6.57917">
        <ele>2784</ele>
        <time>2021-04-08T09:22:15Z</time>
      </trkpt>
      <trkpt lat="44.45013" lon="6.57917">
        <ele>2784</ele>
        <time>2021-04-08T09:22:16Z</time>
      </trkpt>
      <trkpt lat="44.45013" lon="6.57917">
        <ele>2784</ele>
        <time>2021-04-08T09:22:17Z</time>
      </trkpt>
      <trkpt lat="44.45013" lon="6.57917">
        <ele>2784</ele>
        <time>2021-04-08T09:22:18Z</time>
      </trkpt>
      <trkpt lat="44.45013" lon="6.57917">
        <ele>2784</ele>
        <time>2021-04-08T09:22:19Z</time>
      </trkpt>
      <trkpt lat="44.45012" lon="6.57917">
        <ele>2784</ele>
        <time>2021-04-08T09:22:20Z</time>
      </trkpt>
      <trkpt lat="44.45012" lon="6.57917">
        <ele>2784</ele>
        <time>2021-04-08T09:22:21Z</time>
      </trkpt>
      <trkpt lat="44.45012" lon="6.57917">
        <ele>2784</ele>
        <time>2021-04-08T09:22:22Z</time>
      </trkpt>
      <trkpt lat="44.45012" lon="6.57917">
        <ele>2784</ele>
        <time>2021-04-08T09:22:23Z</time>
      </trkpt>
      <trkpt lat="44.45012" lon="6.57917">
        <ele>2784</ele>
        <time>2021-04-08T09:22:24Z</time>
      </trkpt>
      <trkpt lat="44.45012" lon="6.57917">
        <ele>2784</ele>
        <time>2021-04-08T09:22:25Z</time>
      </trkpt>
      <trkpt lat="44.45012" lon="6.57917">
        <ele>2784</ele>
        <time>2021-04-08T09:22:26Z</time>
      </trkpt>
      <trkpt lat="44.45012" lon="6.57917">
        <ele>2785</ele>
        <time>2021-04-08T09:22:27Z</time>
      </trkpt>
      <trkpt lat="44.45012" lon="6.57917">
        <ele>2785</ele>
        <time>2021-04-08T09:22:28Z</time>
      </trkpt>
      <trkpt lat="44.45012" lon="6.57917">
        <ele>2785</ele>
        <time>2021-04-08T09:22:29Z</time>
      </trkpt>
      <trkpt lat="44.45012" lon="6.57917">
        <ele>2785</ele>
        <time>2021-04-08T09:22:30Z</time>
      </trkpt>
      <trkpt lat="44.45012" lon="6.57917">
        <ele>2785</ele>
        <time>2021-04-08T09:22:31Z</time>
      </trkpt>
      <trkpt lat="44.45012" lon="6.57917">
        <ele>2785</ele>
        <time>2021-04-08T09:22:32Z</time>
      </trkpt>
      <trkpt lat="44.45012" lon="6.57917">
        <ele>2785</ele>
        <time>2021-04-08T09:22:33Z</time>
      </trkpt>
      <trkpt lat="44.45012" lon="6.57917">
        <ele>2785</ele>
        <time>2021-04-08T09:22:34Z</time>
      </trkpt>
      <trkpt lat="44.45013" lon="6.57915">
        <ele>2785</ele>
        <time>2021-04-08T09:22:35Z</time>
      </trkpt>
      <trkpt lat="44.45013" lon="6.57915">
        <ele>2785</ele>
        <time>2021-04-08T09:22:36Z</time>
      </trkpt>
      <trkpt lat="44.45013" lon="6.57915">
        <ele>2785</ele>
        <time>2021-04-08T09:22:37Z</time>
      </trkpt>
      <trkpt lat="44.45013" lon="6.57915">
        <ele>2785</ele>
        <time>2021-04-08T09:22:38Z</time>
      </trkpt>
      <trkpt lat="44.45013" lon="6.57915">
        <ele>2785</ele>
        <time>2021-04-08T09:22:39Z</time>
      </trkpt>
      <trkpt lat="44.45013" lon="6.57915">
        <ele>2785</ele>
        <time>2021-04-08T09:22:40Z</time>
      </trkpt>
      <trkpt lat="44.45013" lon="6.57915">
        <ele>2785</ele>
        <time>2021-04-08T09:22:41Z</time>
      </trkpt>
      <trkpt lat="44.45013" lon="6.57915">
        <ele>2786</ele>
        <time>2021-04-08T09:22:42Z</time>
      </trkpt>
      <trkpt lat="44.45013" lon="6.57915">
        <ele>2786</ele>
        <time>2021-04-08T09:22:43Z</time>
      </trkpt>
      <trkpt lat="44.45013" lon="6.57915">
        <ele>2786</ele>
        <time>2021-04-08T09:22:44Z</time>
      </trkpt>
      <trkpt lat="44.45013" lon="6.57915">
        <ele>2786</ele>
        <time>2021-04-08T09:22:45Z</time>
      </trkpt>
      <trkpt lat="44.45013" lon="6.57915">
        <ele>2786</ele>
        <time>2021-04-08T09:22:46Z</time>
      </trkpt>
      <trkpt lat="44.45013" lon="6.57915">
        <ele>2786</ele>
        <time>2021-04-08T09:22:47Z</time>
      </trkpt>
      <trkpt lat="44.45013" lon="6.57915">
        <ele>2786</ele>
        <time>2021-04-08T09:22:48Z</time>
      </trkpt>
      <trkpt lat="44.45013" lon="6.57915">
        <ele>2786</ele>
        <time>2021-04-08T09:22:49Z</time>
      </trkpt>
      <trkpt lat="44.45013" lon="6.57915">
        <ele>2786</ele>
        <time>2021-04-08T09:22:50Z</time>
      </trkpt>
      <trkpt lat="44.45013" lon="6.57915">
        <ele>2786</ele>
        <time>2021-04-08T09:22:51Z</time>
      </trkpt>
      <trkpt lat="44.45013" lon="6.57915">
        <ele>2786</ele>
        <time>2021-04-08T09:22:52Z</time>
      </trkpt>
      <trkpt lat="44.45013" lon="6.57915">
        <ele>2786</ele>
        <time>2021-04-08T09:22:53Z</time>
      </trkpt>
      <trkpt lat="44.45013" lon="6.57915">
        <ele>2786</ele>
        <time>2021-04-08T09:22:54Z</time>
      </trkpt>
      <trkpt lat="44.45013" lon="6.57915">
        <ele>2786</ele>
        <time>2021-04-08T09:22:55Z</time>
      </trkpt>
      <trkpt lat="44.45013" lon="6.57915">
        <ele>2786</ele>
        <time>2021-04-08T09:22:56Z</time>
      </trkpt>
      <trkpt lat="44.45013" lon="6.57915">
        <ele>2786</ele>
        <time>2021-04-08T09:22:57Z</time>
      </trkpt>
      <trkpt lat="44.45013" lon="6.57915">
        <ele>2786</ele>
        <time>2021-04-08T09:22:58Z</time>
      </trkpt>
      <trkpt lat="44.45013" lon="6.57915">
        <ele>2786</ele>
        <time>2021-04-08T09:22:59Z</time>
      </trkpt>
      <trkpt lat="44.45013" lon="6.57915">
        <ele>2786</ele>
        <time>2021-04-08T09:23:00Z</time>
      </trkpt>
      <trkpt lat="44.45013" lon="6.57915">
        <ele>2786</ele>
        <time>2021-04-08T09:23:01Z</time>
      </trkpt>
      <trkpt lat="44.45013" lon="6.57915">
        <ele>2786</ele>
        <time>2021-04-08T09:23:02Z</time>
      </trkpt>
      <trkpt lat="44.45013" lon="6.57915">
        <ele>2786</ele>
        <time>2021-04-08T09:23:03Z</time>
      </trkpt>
      <trkpt lat="44.45013" lon="6.57915">
        <ele>2786</ele>
        <time>2021-04-08T09:23:04Z</time>
      </trkpt>
      <trkpt lat="44.45013" lon="6.57915">
        <ele>2786</ele>
        <time>2021-04-08T09:23:05Z</time>
      </trkpt>
      <trkpt lat="44.45013" lon="6.57915">
        <ele>2786</ele>
        <time>2021-04-08T09:23:06Z</time>
      </trkpt>
      <trkpt lat="44.45013" lon="6.57915">
        <ele>2786</ele>
        <time>2021-04-08T09:23:07Z</time>
      </trkpt>
      <trkpt lat="44.45013" lon="6.57915">
        <ele>2786</ele>
        <time>2021-04-08T09:23:08Z</time>
      </trkpt>
      <trkpt lat="44.45013" lon="6.57915">
        <ele>2786</ele>
        <time>2021-04-08T09:23:09Z</time>
      </trkpt>
      <trkpt lat="44.45013" lon="6.57915">
        <ele>2786</ele>
        <time>2021-04-08T09:23:10Z</time>
      </trkpt>
      <trkpt lat="44.45013" lon="6.57915">
        <ele>2786</ele>
        <time>2021-04-08T09:23:11Z</time>
      </trkpt>
      <trkpt lat="44.45013" lon="6.57915">
        <ele>2786</ele>
        <time>2021-04-08T09:23:12Z</time>
      </trkpt>
      <trkpt lat="44.45013" lon="6.57915">
        <ele>2786</ele>
        <time>2021-04-08T09:23:13Z</time>
      </trkpt>
      <trkpt lat="44.45013" lon="6.57915">
        <ele>2786</ele>
        <time>2021-04-08T09:23:14Z</time>
      </trkpt>
      <trkpt lat="44.45013" lon="6.57915">
        <ele>2786</ele>
        <time>2021-04-08T09:23:15Z</time>
      </trkpt>
      <trkpt lat="44.45013" lon="6.57915">
        <ele>2786</ele>
        <time>2021-04-08T09:23:16Z</time>
      </trkpt>
      <trkpt lat="44.45013" lon="6.57915">
        <ele>2786</ele>
        <time>2021-04-08T09:23:17Z</time>
      </trkpt>
      <trkpt lat="44.45013" lon="6.57915">
        <ele>2786</ele>
        <time>2021-04-08T09:23:18Z</time>
      </trkpt>
      <trkpt lat="44.45013" lon="6.57915">
        <ele>2786</ele>
        <time>2021-04-08T09:23:19Z</time>
      </trkpt>
      <trkpt lat="44.45013" lon="6.57915">
        <ele>2786</ele>
        <time>2021-04-08T09:23:20Z</time>
      </trkpt>
      <trkpt lat="44.45013" lon="6.57915">
        <ele>2786</ele>
        <time>2021-04-08T09:23:21Z</time>
      </trkpt>
      <trkpt lat="44.45013" lon="6.57915">
        <ele>2786</ele>
        <time>2021-04-08T09:23:22Z</time>
      </trkpt>
      <trkpt lat="44.45013" lon="6.57915">
        <ele>2786</ele>
        <time>2021-04-08T09:23:23Z</time>
      </trkpt>
      <trkpt lat="44.45013" lon="6.57915">
        <ele>2786</ele>
        <time>2021-04-08T09:23:24Z</time>
      </trkpt>
      <trkpt lat="44.45013" lon="6.57915">
        <ele>2786</ele>
        <time>2021-04-08T09:23:25Z</time>
      </trkpt>
      <trkpt lat="44.45013" lon="6.57915">
        <ele>2786</ele>
        <time>2021-04-08T09:23:26Z</time>
      </trkpt>
      <trkpt lat="44.45013" lon="6.57915">
        <ele>2786</ele>
        <time>2021-04-08T09:23:27Z</time>
      </trkpt>
      <trkpt lat="44.45013" lon="6.57915">
        <ele>2786</ele>
        <time>2021-04-08T09:23:28Z</time>
      </trkpt>
      <trkpt lat="44.45013" lon="6.57915">
        <ele>2786</ele>
        <time>2021-04-08T09:23:29Z</time>
      </trkpt>
      <trkpt lat="44.45013" lon="6.57915">
        <ele>2786</ele>
        <time>2021-04-08T09:23:30Z</time>
      </trkpt>
      <trkpt lat="44.45013" lon="6.57915">
        <ele>2786</ele>
        <time>2021-04-08T09:23:31Z</time>
      </trkpt>
      <trkpt lat="44.45013" lon="6.57915">
        <ele>2786</ele>
        <time>2021-04-08T09:23:32Z</time>
      </trkpt>
      <trkpt lat="44.45013" lon="6.57915">
        <ele>2786</ele>
        <time>2021-04-08T09:23:33Z</time>
      </trkpt>
      <trkpt lat="44.45013" lon="6.57915">
        <ele>2786</ele>
        <time>2021-04-08T09:23:34Z</time>
      </trkpt>
      <trkpt lat="44.45013" lon="6.57915">
        <ele>2786</ele>
        <time>2021-04-08T09:23:35Z</time>
      </trkpt>
      <trkpt lat="44.45013" lon="6.57915">
        <ele>2786</ele>
        <time>2021-04-08T09:23:36Z</time>
      </trkpt>
      <trkpt lat="44.45013" lon="6.57915">
        <ele>2786</ele>
        <time>2021-04-08T09:23:37Z</time>
      </trkpt>
      <trkpt lat="44.45013" lon="6.57915">
        <ele>2786</ele>
        <time>2021-04-08T09:23:38Z</time>
      </trkpt>
      <trkpt lat="44.45013" lon="6.57915">
        <ele>2786</ele>
        <time>2021-04-08T09:23:39Z</time>
      </trkpt>
      <trkpt lat="44.45013" lon="6.57915">
        <ele>2786</ele>
        <time>2021-04-08T09:23:40Z</time>
      </trkpt>
      <trkpt lat="44.45013" lon="6.57915">
        <ele>2786</ele>
        <time>2021-04-08T09:23:41Z</time>
      </trkpt>
      <trkpt lat="44.45013" lon="6.57915">
        <ele>2786</ele>
        <time>2021-04-08T09:23:42Z</time>
      </trkpt>
      <trkpt lat="44.45013" lon="6.57915">
        <ele>2786</ele>
        <time>2021-04-08T09:23:43Z</time>
      </trkpt>
      <trkpt lat="44.45014" lon="6.57919">
        <ele>2785</ele>
        <time>2021-04-08T09:23:44Z</time>
      </trkpt>
      <trkpt lat="44.45013" lon="6.57919">
        <ele>2785</ele>
        <time>2021-04-08T09:23:45Z</time>
      </trkpt>
      <trkpt lat="44.45013" lon="6.57919">
        <ele>2785</ele>
        <time>2021-04-08T09:23:46Z</time>
      </trkpt>
      <trkpt lat="44.45013" lon="6.5792">
        <ele>2784</ele>
        <time>2021-04-08T09:23:47Z</time>
      </trkpt>
      <trkpt lat="44.45013" lon="6.5792">
        <ele>2784</ele>
        <time>2021-04-08T09:23:48Z</time>
      </trkpt>
      <trkpt lat="44.45013" lon="6.5792">
        <ele>2784</ele>
        <time>2021-04-08T09:23:49Z</time>
      </trkpt>
      <trkpt lat="44.45013" lon="6.5792">
        <ele>2784</ele>
        <time>2021-04-08T09:23:50Z</time>
      </trkpt>
      <trkpt lat="44.45013" lon="6.5792">
        <ele>2784</ele>
        <time>2021-04-08T09:23:51Z</time>
      </trkpt>
      <trkpt lat="44.45013" lon="6.5792">
        <ele>2784</ele>
        <time>2021-04-08T09:23:52Z</time>
      </trkpt>
      <trkpt lat="44.45013" lon="6.5792">
        <ele>2784</ele>
        <time>2021-04-08T09:23:53Z</time>
      </trkpt>
      <trkpt lat="44.45013" lon="6.5792">
        <ele>2784</ele>
        <time>2021-04-08T09:23:54Z</time>
      </trkpt>
      <trkpt lat="44.45013" lon="6.5792">
        <ele>2784</ele>
        <time>2021-04-08T09:23:55Z</time>
      </trkpt>
      <trkpt lat="44.45013" lon="6.5792">
        <ele>2784</ele>
        <time>2021-04-08T09:23:56Z</time>
      </trkpt>
      <trkpt lat="44.45013" lon="6.5792">
        <ele>2784</ele>
        <time>2021-04-08T09:23:57Z</time>
      </trkpt>
      <trkpt lat="44.45013" lon="6.5792">
        <ele>2784</ele>
        <time>2021-04-08T09:23:58Z</time>
      </trkpt>
      <trkpt lat="44.45013" lon="6.5792">
        <ele>2784</ele>
        <time>2021-04-08T09:23:59Z</time>
      </trkpt>
      <trkpt lat="44.45013" lon="6.5792">
        <ele>2784</ele>
        <time>2021-04-08T09:24:00Z</time>
      </trkpt>
      <trkpt lat="44.45013" lon="6.5792">
        <ele>2784</ele>
        <time>2021-04-08T09:24:01Z</time>
      </trkpt>
      <trkpt lat="44.45013" lon="6.5792">
        <ele>2784</ele>
        <time>2021-04-08T09:24:02Z</time>
      </trkpt>
      <trkpt lat="44.45013" lon="6.5792">
        <ele>2784</ele>
        <time>2021-04-08T09:24:03Z</time>
      </trkpt>
      <trkpt lat="44.45013" lon="6.5792">
        <ele>2784</ele>
        <time>2021-04-08T09:24:04Z</time>
      </trkpt>
      <trkpt lat="44.45013" lon="6.5792">
        <ele>2784</ele>
        <time>2021-04-08T09:24:05Z</time>
      </trkpt>
      <trkpt lat="44.45013" lon="6.5792">
        <ele>2784</ele>
        <time>2021-04-08T09:24:06Z</time>
      </trkpt>
      <trkpt lat="44.45013" lon="6.5792">
        <ele>2784</ele>
        <time>2021-04-08T09:24:07Z</time>
      </trkpt>
      <trkpt lat="44.45013" lon="6.5792">
        <ele>2784</ele>
        <time>2021-04-08T09:24:08Z</time>
      </trkpt>
      <trkpt lat="44.45013" lon="6.5792">
        <ele>2784</ele>
        <time>2021-04-08T09:24:09Z</time>
      </trkpt>
      <trkpt lat="44.45013" lon="6.5792">
        <ele>2784</ele>
        <time>2021-04-08T09:24:10Z</time>
      </trkpt>
      <trkpt lat="44.45013" lon="6.5792">
        <ele>2784</ele>
        <time>2021-04-08T09:24:11Z</time>
      </trkpt>
      <trkpt lat="44.45013" lon="6.5792">
        <ele>2784</ele>
        <time>2021-04-08T09:24:12Z</time>
      </trkpt>
      <trkpt lat="44.45013" lon="6.5792">
        <ele>2784</ele>
        <time>2021-04-08T09:24:13Z</time>
      </trkpt>
      <trkpt lat="44.45013" lon="6.5792">
        <ele>2784</ele>
        <time>2021-04-08T09:24:14Z</time>
      </trkpt>
      <trkpt lat="44.45013" lon="6.5792">
        <ele>2784</ele>
        <time>2021-04-08T09:24:15Z</time>
      </trkpt>
      <trkpt lat="44.45013" lon="6.5792">
        <ele>2784</ele>
        <time>2021-04-08T09:24:16Z</time>
      </trkpt>
      <trkpt lat="44.45013" lon="6.5792">
        <ele>2784</ele>
        <time>2021-04-08T09:24:17Z</time>
      </trkpt>
      <trkpt lat="44.45013" lon="6.5792">
        <ele>2784</ele>
        <time>2021-04-08T09:24:18Z</time>
      </trkpt>
      <trkpt lat="44.45013" lon="6.5792">
        <ele>2784</ele>
        <time>2021-04-08T09:24:19Z</time>
      </trkpt>
      <trkpt lat="44.45013" lon="6.5792">
        <ele>2784</ele>
        <time>2021-04-08T09:24:20Z</time>
      </trkpt>
      <trkpt lat="44.45013" lon="6.5792">
        <ele>2784</ele>
        <time>2021-04-08T09:24:21Z</time>
      </trkpt>
      <trkpt lat="44.45013" lon="6.5792">
        <ele>2784</ele>
        <time>2021-04-08T09:24:22Z</time>
      </trkpt>
      <trkpt lat="44.45013" lon="6.5792">
        <ele>2784</ele>
        <time>2021-04-08T09:24:23Z</time>
      </trkpt>
      <trkpt lat="44.45013" lon="6.5792">
        <ele>2784</ele>
        <time>2021-04-08T09:24:24Z</time>
      </trkpt>
      <trkpt lat="44.45015" lon="6.57919">
        <ele>2784</ele>
        <time>2021-04-08T09:24:25Z</time>
      </trkpt>
      <trkpt lat="44.45015" lon="6.57919">
        <ele>2784</ele>
        <time>2021-04-08T09:24:26Z</time>
      </trkpt>
      <trkpt lat="44.45015" lon="6.57919">
        <ele>2784</ele>
        <time>2021-04-08T09:24:27Z</time>
      </trkpt>
      <trkpt lat="44.45015" lon="6.57919">
        <ele>2784</ele>
        <time>2021-04-08T09:24:28Z</time>
      </trkpt>
      <trkpt lat="44.45015" lon="6.57919">
        <ele>2784</ele>
        <time>2021-04-08T09:24:29Z</time>
      </trkpt>
      <trkpt lat="44.45015" lon="6.57919">
        <ele>2784</ele>
        <time>2021-04-08T09:24:30Z</time>
      </trkpt>
      <trkpt lat="44.45015" lon="6.57919">
        <ele>2784</ele>
        <time>2021-04-08T09:24:31Z</time>
      </trkpt>
      <trkpt lat="44.45015" lon="6.57919">
        <ele>2784</ele>
        <time>2021-04-08T09:24:32Z</time>
      </trkpt>
      <trkpt lat="44.45015" lon="6.57919">
        <ele>2784</ele>
        <time>2021-04-08T09:24:33Z</time>
      </trkpt>
      <trkpt lat="44.45015" lon="6.57919">
        <ele>2784</ele>
        <time>2021-04-08T09:24:34Z</time>
      </trkpt>
      <trkpt lat="44.45015" lon="6.57919">
        <ele>2784</ele>
        <time>2021-04-08T09:24:35Z</time>
      </trkpt>
      <trkpt lat="44.45014" lon="6.57918">
        <ele>2784</ele>
        <time>2021-04-08T09:24:36Z</time>
      </trkpt>
      <trkpt lat="44.45014" lon="6.57917">
        <ele>2784</ele>
        <time>2021-04-08T09:24:37Z</time>
      </trkpt>
      <trkpt lat="44.45014" lon="6.57917">
        <ele>2784</ele>
        <time>2021-04-08T09:24:38Z</time>
      </trkpt>
      <trkpt lat="44.45014" lon="6.57917">
        <ele>2784</ele>
        <time>2021-04-08T09:24:39Z</time>
      </trkpt>
      <trkpt lat="44.45014" lon="6.57918">
        <ele>2784</ele>
        <time>2021-04-08T09:24:40Z</time>
      </trkpt>
      <trkpt lat="44.45014" lon="6.57918">
        <ele>2784</ele>
        <time>2021-04-08T09:24:41Z</time>
      </trkpt>
      <trkpt lat="44.45014" lon="6.57918">
        <ele>2784</ele>
        <time>2021-04-08T09:24:42Z</time>
      </trkpt>
      <trkpt lat="44.45014" lon="6.57918">
        <ele>2784</ele>
        <time>2021-04-08T09:24:43Z</time>
      </trkpt>
      <trkpt lat="44.45014" lon="6.57918">
        <ele>2784</ele>
        <time>2021-04-08T09:24:44Z</time>
      </trkpt>
      <trkpt lat="44.45014" lon="6.57918">
        <ele>2784</ele>
        <time>2021-04-08T09:24:45Z</time>
      </trkpt>
      <trkpt lat="44.45014" lon="6.57918">
        <ele>2784</ele>
        <time>2021-04-08T09:24:46Z</time>
      </trkpt>
      <trkpt lat="44.45014" lon="6.57918">
        <ele>2784</ele>
        <time>2021-04-08T09:24:47Z</time>
      </trkpt>
      <trkpt lat="44.45014" lon="6.57918">
        <ele>2784</ele>
        <time>2021-04-08T09:24:48Z</time>
      </trkpt>
      <trkpt lat="44.45014" lon="6.57918">
        <ele>2784</ele>
        <time>2021-04-08T09:24:49Z</time>
      </trkpt>
      <trkpt lat="44.45014" lon="6.57918">
        <ele>2784</ele>
        <time>2021-04-08T09:24:50Z</time>
      </trkpt>
      <trkpt lat="44.45015" lon="6.57917">
        <ele>2784</ele>
        <time>2021-04-08T09:24:51Z</time>
      </trkpt>
      <trkpt lat="44.45015" lon="6.57917">
        <ele>2784</ele>
        <time>2021-04-08T09:24:52Z</time>
      </trkpt>
      <trkpt lat="44.45015" lon="6.57917">
        <ele>2784</ele>
        <time>2021-04-08T09:24:53Z</time>
      </trkpt>
      <trkpt lat="44.45015" lon="6.57917">
        <ele>2784</ele>
        <time>2021-04-08T09:24:54Z</time>
      </trkpt>
      <trkpt lat="44.45015" lon="6.57917">
        <ele>2785</ele>
        <time>2021-04-08T09:24:55Z</time>
      </trkpt>
      <trkpt lat="44.45015" lon="6.57917">
        <ele>2785</ele>
        <time>2021-04-08T09:24:56Z</time>
      </trkpt>
      <trkpt lat="44.45015" lon="6.57917">
        <ele>2785</ele>
        <time>2021-04-08T09:24:57Z</time>
      </trkpt>
      <trkpt lat="44.45015" lon="6.57917">
        <ele>2785</ele>
        <time>2021-04-08T09:24:58Z</time>
      </trkpt>
      <trkpt lat="44.45015" lon="6.57917">
        <ele>2785</ele>
        <time>2021-04-08T09:24:59Z</time>
      </trkpt>
      <trkpt lat="44.45015" lon="6.57917">
        <ele>2785</ele>
        <time>2021-04-08T09:25:00Z</time>
      </trkpt>
      <trkpt lat="44.45015" lon="6.57917">
        <ele>2785</ele>
        <time>2021-04-08T09:25:01Z</time>
      </trkpt>
      <trkpt lat="44.45015" lon="6.57917">
        <ele>2785</ele>
        <time>2021-04-08T09:25:02Z</time>
      </trkpt>
      <trkpt lat="44.45015" lon="6.57917">
        <ele>2785</ele>
        <time>2021-04-08T09:25:03Z</time>
      </trkpt>
      <trkpt lat="44.45015" lon="6.57917">
        <ele>2785</ele>
        <time>2021-04-08T09:25:04Z</time>
      </trkpt>
      <trkpt lat="44.45015" lon="6.57917">
        <ele>2785</ele>
        <time>2021-04-08T09:25:05Z</time>
      </trkpt>
      <trkpt lat="44.45015" lon="6.57917">
        <ele>2785</ele>
        <time>2021-04-08T09:25:06Z</time>
      </trkpt>
      <trkpt lat="44.45015" lon="6.57917">
        <ele>2785</ele>
        <time>2021-04-08T09:25:07Z</time>
      </trkpt>
      <trkpt lat="44.45015" lon="6.57917">
        <ele>2785</ele>
        <time>2021-04-08T09:25:08Z</time>
      </trkpt>
      <trkpt lat="44.45015" lon="6.57917">
        <ele>2785</ele>
        <time>2021-04-08T09:25:09Z</time>
      </trkpt>
      <trkpt lat="44.45015" lon="6.57917">
        <ele>2785</ele>
        <time>2021-04-08T09:25:10Z</time>
      </trkpt>
      <trkpt lat="44.45015" lon="6.57917">
        <ele>2785</ele>
        <time>2021-04-08T09:25:11Z</time>
      </trkpt>
      <trkpt lat="44.45015" lon="6.57917">
        <ele>2785</ele>
        <time>2021-04-08T09:25:12Z</time>
      </trkpt>
      <trkpt lat="44.45015" lon="6.57917">
        <ele>2786</ele>
        <time>2021-04-08T09:25:13Z</time>
      </trkpt>
      <trkpt lat="44.45015" lon="6.57917">
        <ele>2786</ele>
        <time>2021-04-08T09:25:14Z</time>
      </trkpt>
      <trkpt lat="44.45015" lon="6.57917">
        <ele>2786</ele>
        <time>2021-04-08T09:25:15Z</time>
      </trkpt>
      <trkpt lat="44.45015" lon="6.57917">
        <ele>2786</ele>
        <time>2021-04-08T09:25:16Z</time>
      </trkpt>
      <trkpt lat="44.45015" lon="6.57917">
        <ele>2786</ele>
        <time>2021-04-08T09:25:17Z</time>
      </trkpt>
      <trkpt lat="44.45015" lon="6.57917">
        <ele>2786</ele>
        <time>2021-04-08T09:25:18Z</time>
      </trkpt>
      <trkpt lat="44.45015" lon="6.57917">
        <ele>2786</ele>
        <time>2021-04-08T09:25:19Z</time>
      </trkpt>
      <trkpt lat="44.45015" lon="6.57917">
        <ele>2786</ele>
        <time>2021-04-08T09:25:20Z</time>
      </trkpt>
      <trkpt lat="44.45015" lon="6.57917">
        <ele>2786</ele>
        <time>2021-04-08T09:25:21Z</time>
      </trkpt>
      <trkpt lat="44.45015" lon="6.57917">
        <ele>2786</ele>
        <time>2021-04-08T09:25:22Z</time>
      </trkpt>
      <trkpt lat="44.45015" lon="6.57917">
        <ele>2786</ele>
        <time>2021-04-08T09:25:23Z</time>
      </trkpt>
      <trkpt lat="44.45015" lon="6.57917">
        <ele>2786</ele>
        <time>2021-04-08T09:25:24Z</time>
      </trkpt>
      <trkpt lat="44.45015" lon="6.57917">
        <ele>2786</ele>
        <time>2021-04-08T09:25:25Z</time>
      </trkpt>
      <trkpt lat="44.45015" lon="6.57917">
        <ele>2786</ele>
        <time>2021-04-08T09:25:26Z</time>
      </trkpt>
      <trkpt lat="44.45015" lon="6.57917">
        <ele>2786</ele>
        <time>2021-04-08T09:25:27Z</time>
      </trkpt>
      <trkpt lat="44.45015" lon="6.57917">
        <ele>2786</ele>
        <time>2021-04-08T09:25:28Z</time>
      </trkpt>
      <trkpt lat="44.45015" lon="6.57917">
        <ele>2786</ele>
        <time>2021-04-08T09:25:29Z</time>
      </trkpt>
      <trkpt lat="44.45015" lon="6.57917">
        <ele>2786</ele>
        <time>2021-04-08T09:25:30Z</time>
      </trkpt>
      <trkpt lat="44.45015" lon="6.57917">
        <ele>2786</ele>
        <time>2021-04-08T09:25:31Z</time>
      </trkpt>
      <trkpt lat="44.45015" lon="6.57917">
        <ele>2786</ele>
        <time>2021-04-08T09:25:32Z</time>
      </trkpt>
      <trkpt lat="44.45015" lon="6.57917">
        <ele>2786</ele>
        <time>2021-04-08T09:25:33Z</time>
      </trkpt>
      <trkpt lat="44.45015" lon="6.57917">
        <ele>2786</ele>
        <time>2021-04-08T09:25:34Z</time>
      </trkpt>
      <trkpt lat="44.45015" lon="6.57918">
        <ele>2786</ele>
        <time>2021-04-08T09:25:35Z</time>
      </trkpt>
      <trkpt lat="44.45014" lon="6.57917">
        <ele>2786</ele>
        <time>2021-04-08T09:25:36Z</time>
      </trkpt>
      <trkpt lat="44.45014" lon="6.57917">
        <ele>2786</ele>
        <time>2021-04-08T09:25:37Z</time>
      </trkpt>
      <trkpt lat="44.45014" lon="6.57917">
        <ele>2786</ele>
        <time>2021-04-08T09:25:38Z</time>
      </trkpt>
      <trkpt lat="44.45014" lon="6.57917">
        <ele>2786</ele>
        <time>2021-04-08T09:25:39Z</time>
      </trkpt>
      <trkpt lat="44.45014" lon="6.57917">
        <ele>2786</ele>
        <time>2021-04-08T09:25:40Z</time>
      </trkpt>
      <trkpt lat="44.45013" lon="6.57917">
        <ele>2786</ele>
        <time>2021-04-08T09:25:41Z</time>
      </trkpt>
      <trkpt lat="44.45013" lon="6.57917">
        <ele>2786</ele>
        <time>2021-04-08T09:25:42Z</time>
      </trkpt>
      <trkpt lat="44.45013" lon="6.57917">
        <ele>2786</ele>
        <time>2021-04-08T09:25:43Z</time>
      </trkpt>
      <trkpt lat="44.45013" lon="6.57917">
        <ele>2786</ele>
        <time>2021-04-08T09:25:44Z</time>
      </trkpt>
      <trkpt lat="44.45013" lon="6.57917">
        <ele>2786</ele>
        <time>2021-04-08T09:25:45Z</time>
      </trkpt>
      <trkpt lat="44.45013" lon="6.57917">
        <ele>2786</ele>
        <time>2021-04-08T09:25:46Z</time>
      </trkpt>
      <trkpt lat="44.45013" lon="6.57917">
        <ele>2786</ele>
        <time>2021-04-08T09:25:47Z</time>
      </trkpt>
      <trkpt lat="44.45013" lon="6.57917">
        <ele>2786</ele>
        <time>2021-04-08T09:25:48Z</time>
      </trkpt>
      <trkpt lat="44.45013" lon="6.57917">
        <ele>2786</ele>
        <time>2021-04-08T09:25:49Z</time>
      </trkpt>
      <trkpt lat="44.45013" lon="6.57917">
        <ele>2786</ele>
        <time>2021-04-08T09:25:50Z</time>
      </trkpt>
      <trkpt lat="44.45013" lon="6.57917">
        <ele>2786</ele>
        <time>2021-04-08T09:25:51Z</time>
      </trkpt>
      <trkpt lat="44.45013" lon="6.57917">
        <ele>2786</ele>
        <time>2021-04-08T09:25:52Z</time>
      </trkpt>
      <trkpt lat="44.45013" lon="6.57917">
        <ele>2786</ele>
        <time>2021-04-08T09:25:53Z</time>
      </trkpt>
      <trkpt lat="44.45013" lon="6.57917">
        <ele>2786</ele>
        <time>2021-04-08T09:25:54Z</time>
      </trkpt>
      <trkpt lat="44.45013" lon="6.57917">
        <ele>2786</ele>
        <time>2021-04-08T09:25:55Z</time>
      </trkpt>
      <trkpt lat="44.45013" lon="6.57917">
        <ele>2786</ele>
        <time>2021-04-08T09:25:56Z</time>
      </trkpt>
      <trkpt lat="44.45013" lon="6.57917">
        <ele>2786</ele>
        <time>2021-04-08T09:25:57Z</time>
      </trkpt>
      <trkpt lat="44.45013" lon="6.57917">
        <ele>2786</ele>
        <time>2021-04-08T09:25:58Z</time>
      </trkpt>
      <trkpt lat="44.45013" lon="6.57917">
        <ele>2786</ele>
        <time>2021-04-08T09:25:59Z</time>
      </trkpt>
      <trkpt lat="44.45013" lon="6.57917">
        <ele>2786</ele>
        <time>2021-04-08T09:26:00Z</time>
      </trkpt>
      <trkpt lat="44.45013" lon="6.57917">
        <ele>2786</ele>
        <time>2021-04-08T09:26:01Z</time>
      </trkpt>
      <trkpt lat="44.45013" lon="6.57917">
        <ele>2786</ele>
        <time>2021-04-08T09:26:02Z</time>
      </trkpt>
      <trkpt lat="44.45013" lon="6.57917">
        <ele>2786</ele>
        <time>2021-04-08T09:26:03Z</time>
      </trkpt>
      <trkpt lat="44.45013" lon="6.57917">
        <ele>2786</ele>
        <time>2021-04-08T09:26:04Z</time>
      </trkpt>
      <trkpt lat="44.45013" lon="6.57917">
        <ele>2786</ele>
        <time>2021-04-08T09:26:05Z</time>
      </trkpt>
      <trkpt lat="44.45013" lon="6.57917">
        <ele>2786</ele>
        <time>2021-04-08T09:26:06Z</time>
      </trkpt>
      <trkpt lat="44.45014" lon="6.57919">
        <ele>2786</ele>
        <time>2021-04-08T09:26:07Z</time>
      </trkpt>
      <trkpt lat="44.45014" lon="6.5792">
        <ele>2786</ele>
        <time>2021-04-08T09:26:08Z</time>
      </trkpt>
      <trkpt lat="44.45015" lon="6.57921">
        <ele>2786</ele>
        <time>2021-04-08T09:26:09Z</time>
      </trkpt>
      <trkpt lat="44.45015" lon="6.5792">
        <ele>2786</ele>
        <time>2021-04-08T09:26:10Z</time>
      </trkpt>
      <trkpt lat="44.45014" lon="6.5792">
        <ele>2786</ele>
        <time>2021-04-08T09:26:11Z</time>
      </trkpt>
      <trkpt lat="44.45015" lon="6.57921">
        <ele>2786</ele>
        <time>2021-04-08T09:26:12Z</time>
      </trkpt>
      <trkpt lat="44.45015" lon="6.57922">
        <ele>2786</ele>
        <time>2021-04-08T09:26:13Z</time>
      </trkpt>
      <trkpt lat="44.45015" lon="6.57922">
        <ele>2786</ele>
        <time>2021-04-08T09:26:14Z</time>
      </trkpt>
      <trkpt lat="44.45015" lon="6.57922">
        <ele>2786</ele>
        <time>2021-04-08T09:26:15Z</time>
      </trkpt>
      <trkpt lat="44.45015" lon="6.57922">
        <ele>2786</ele>
        <time>2021-04-08T09:26:16Z</time>
      </trkpt>
      <trkpt lat="44.45015" lon="6.57922">
        <ele>2786</ele>
        <time>2021-04-08T09:26:17Z</time>
      </trkpt>
      <trkpt lat="44.45015" lon="6.57922">
        <ele>2786</ele>
        <time>2021-04-08T09:26:18Z</time>
      </trkpt>
      <trkpt lat="44.45015" lon="6.57922">
        <ele>2786</ele>
        <time>2021-04-08T09:26:19Z</time>
      </trkpt>
      <trkpt lat="44.45014" lon="6.57926">
        <ele>2784</ele>
        <time>2021-04-08T09:26:20Z</time>
      </trkpt>
      <trkpt lat="44.45013" lon="6.57925">
        <ele>2783</ele>
        <time>2021-04-08T09:26:21Z</time>
      </trkpt>
      <trkpt lat="44.45013" lon="6.57924">
        <ele>2783</ele>
        <time>2021-04-08T09:26:22Z</time>
      </trkpt>
      <trkpt lat="44.45013" lon="6.57925">
        <ele>2783</ele>
        <time>2021-04-08T09:26:23Z</time>
      </trkpt>
      <trkpt lat="44.45013" lon="6.57925">
        <ele>2782</ele>
        <time>2021-04-08T09:26:24Z</time>
      </trkpt>
      <trkpt lat="44.45013" lon="6.57925">
        <ele>2782</ele>
        <time>2021-04-08T09:26:25Z</time>
      </trkpt>
      <trkpt lat="44.45013" lon="6.57925">
        <ele>2782</ele>
        <time>2021-04-08T09:26:26Z</time>
      </trkpt>
      <trkpt lat="44.45013" lon="6.57925">
        <ele>2782</ele>
        <time>2021-04-08T09:26:27Z</time>
      </trkpt>
      <trkpt lat="44.45013" lon="6.57925">
        <ele>2782</ele>
        <time>2021-04-08T09:26:28Z</time>
      </trkpt>
      <trkpt lat="44.45013" lon="6.57925">
        <ele>2782</ele>
        <time>2021-04-08T09:26:29Z</time>
      </trkpt>
      <trkpt lat="44.45013" lon="6.57925">
        <ele>2782</ele>
        <time>2021-04-08T09:26:30Z</time>
      </trkpt>
      <trkpt lat="44.45013" lon="6.57925">
        <ele>2782</ele>
        <time>2021-04-08T09:26:31Z</time>
      </trkpt>
      <trkpt lat="44.45013" lon="6.57925">
        <ele>2782</ele>
        <time>2021-04-08T09:26:32Z</time>
      </trkpt>
      <trkpt lat="44.45013" lon="6.57925">
        <ele>2782</ele>
        <time>2021-04-08T09:26:33Z</time>
      </trkpt>
      <trkpt lat="44.45013" lon="6.57925">
        <ele>2782</ele>
        <time>2021-04-08T09:26:34Z</time>
      </trkpt>
      <trkpt lat="44.45013" lon="6.57925">
        <ele>2782</ele>
        <time>2021-04-08T09:26:35Z</time>
      </trkpt>
      <trkpt lat="44.45013" lon="6.57925">
        <ele>2782</ele>
        <time>2021-04-08T09:26:36Z</time>
      </trkpt>
      <trkpt lat="44.45013" lon="6.57925">
        <ele>2782</ele>
        <time>2021-04-08T09:26:37Z</time>
      </trkpt>
      <trkpt lat="44.45013" lon="6.57925">
        <ele>2782</ele>
        <time>2021-04-08T09:26:38Z</time>
      </trkpt>
      <trkpt lat="44.45013" lon="6.57925">
        <ele>2782</ele>
        <time>2021-04-08T09:26:39Z</time>
      </trkpt>
      <trkpt lat="44.45013" lon="6.57925">
        <ele>2782</ele>
        <time>2021-04-08T09:26:40Z</time>
      </trkpt>
      <trkpt lat="44.45013" lon="6.57925">
        <ele>2782</ele>
        <time>2021-04-08T09:26:41Z</time>
      </trkpt>
      <trkpt lat="44.45013" lon="6.57925">
        <ele>2782</ele>
        <time>2021-04-08T09:26:42Z</time>
      </trkpt>
      <trkpt lat="44.45013" lon="6.57925">
        <ele>2782</ele>
        <time>2021-04-08T09:26:43Z</time>
      </trkpt>
      <trkpt lat="44.45013" lon="6.57925">
        <ele>2782</ele>
        <time>2021-04-08T09:26:44Z</time>
      </trkpt>
      <trkpt lat="44.45013" lon="6.57925">
        <ele>2782</ele>
        <time>2021-04-08T09:26:45Z</time>
      </trkpt>
      <trkpt lat="44.45013" lon="6.57925">
        <ele>2782</ele>
        <time>2021-04-08T09:26:46Z</time>
      </trkpt>
      <trkpt lat="44.45013" lon="6.57925">
        <ele>2782</ele>
        <time>2021-04-08T09:26:47Z</time>
      </trkpt>
      <trkpt lat="44.45013" lon="6.57925">
        <ele>2782</ele>
        <time>2021-04-08T09:26:48Z</time>
      </trkpt>
      <trkpt lat="44.45013" lon="6.57925">
        <ele>2782</ele>
        <time>2021-04-08T09:26:49Z</time>
      </trkpt>
      <trkpt lat="44.45013" lon="6.57925">
        <ele>2782</ele>
        <time>2021-04-08T09:26:50Z</time>
      </trkpt>
      <trkpt lat="44.45013" lon="6.57925">
        <ele>2782</ele>
        <time>2021-04-08T09:26:51Z</time>
      </trkpt>
      <trkpt lat="44.45013" lon="6.57925">
        <ele>2782</ele>
        <time>2021-04-08T09:26:52Z</time>
      </trkpt>
      <trkpt lat="44.45013" lon="6.57925">
        <ele>2782</ele>
        <time>2021-04-08T09:26:53Z</time>
      </trkpt>
      <trkpt lat="44.45013" lon="6.57925">
        <ele>2782</ele>
        <time>2021-04-08T09:26:54Z</time>
      </trkpt>
      <trkpt lat="44.45013" lon="6.57925">
        <ele>2782</ele>
        <time>2021-04-08T09:26:55Z</time>
      </trkpt>
      <trkpt lat="44.45013" lon="6.57925">
        <ele>2782</ele>
        <time>2021-04-08T09:26:56Z</time>
      </trkpt>
      <trkpt lat="44.45013" lon="6.57925">
        <ele>2782</ele>
        <time>2021-04-08T09:26:57Z</time>
      </trkpt>
      <trkpt lat="44.45013" lon="6.57925">
        <ele>2782</ele>
        <time>2021-04-08T09:26:58Z</time>
      </trkpt>
      <trkpt lat="44.45013" lon="6.57925">
        <ele>2782</ele>
        <time>2021-04-08T09:26:59Z</time>
      </trkpt>
      <trkpt lat="44.45013" lon="6.57925">
        <ele>2782</ele>
        <time>2021-04-08T09:27:00Z</time>
      </trkpt>
      <trkpt lat="44.45013" lon="6.57925">
        <ele>2782</ele>
        <time>2021-04-08T09:27:01Z</time>
      </trkpt>
      <trkpt lat="44.45013" lon="6.57925">
        <ele>2782</ele>
        <time>2021-04-08T09:27:02Z</time>
      </trkpt>
      <trkpt lat="44.45013" lon="6.57925">
        <ele>2782</ele>
        <time>2021-04-08T09:27:03Z</time>
      </trkpt>
      <trkpt lat="44.45013" lon="6.57925">
        <ele>2782</ele>
        <time>2021-04-08T09:27:04Z</time>
      </trkpt>
      <trkpt lat="44.45013" lon="6.57925">
        <ele>2782</ele>
        <time>2021-04-08T09:27:05Z</time>
      </trkpt>
      <trkpt lat="44.45013" lon="6.57925">
        <ele>2782</ele>
        <time>2021-04-08T09:27:06Z</time>
      </trkpt>
      <trkpt lat="44.45013" lon="6.57925">
        <ele>2782</ele>
        <time>2021-04-08T09:27:07Z</time>
      </trkpt>
      <trkpt lat="44.45013" lon="6.57925">
        <ele>2782</ele>
        <time>2021-04-08T09:27:08Z</time>
      </trkpt>
      <trkpt lat="44.45013" lon="6.57925">
        <ele>2782</ele>
        <time>2021-04-08T09:27:09Z</time>
      </trkpt>
      <trkpt lat="44.45013" lon="6.57925">
        <ele>2782</ele>
        <time>2021-04-08T09:27:10Z</time>
      </trkpt>
      <trkpt lat="44.45013" lon="6.57925">
        <ele>2782</ele>
        <time>2021-04-08T09:27:11Z</time>
      </trkpt>
      <trkpt lat="44.45013" lon="6.57925">
        <ele>2782</ele>
        <time>2021-04-08T09:27:12Z</time>
      </trkpt>
      <trkpt lat="44.45013" lon="6.57925">
        <ele>2782</ele>
        <time>2021-04-08T09:27:13Z</time>
      </trkpt>
      <trkpt lat="44.45013" lon="6.57925">
        <ele>2782</ele>
        <time>2021-04-08T09:27:14Z</time>
      </trkpt>
      <trkpt lat="44.45013" lon="6.57925">
        <ele>2782</ele>
        <time>2021-04-08T09:27:15Z</time>
      </trkpt>
      <trkpt lat="44.45013" lon="6.57925">
        <ele>2782</ele>
        <time>2021-04-08T09:27:16Z</time>
      </trkpt>
      <trkpt lat="44.45013" lon="6.57925">
        <ele>2782</ele>
        <time>2021-04-08T09:27:17Z</time>
      </trkpt>
      <trkpt lat="44.45013" lon="6.57925">
        <ele>2782</ele>
        <time>2021-04-08T09:27:18Z</time>
      </trkpt>
      <trkpt lat="44.45013" lon="6.57925">
        <ele>2782</ele>
        <time>2021-04-08T09:27:19Z</time>
      </trkpt>
      <trkpt lat="44.45013" lon="6.57925">
        <ele>2782</ele>
        <time>2021-04-08T09:27:20Z</time>
      </trkpt>
      <trkpt lat="44.45013" lon="6.57925">
        <ele>2782</ele>
        <time>2021-04-08T09:27:21Z</time>
      </trkpt>
      <trkpt lat="44.45013" lon="6.57925">
        <ele>2782</ele>
        <time>2021-04-08T09:27:22Z</time>
      </trkpt>
      <trkpt lat="44.45013" lon="6.57925">
        <ele>2782</ele>
        <time>2021-04-08T09:27:23Z</time>
      </trkpt>
      <trkpt lat="44.45013" lon="6.57925">
        <ele>2782</ele>
        <time>2021-04-08T09:27:24Z</time>
      </trkpt>
      <trkpt lat="44.45013" lon="6.57925">
        <ele>2782</ele>
        <time>2021-04-08T09:27:25Z</time>
      </trkpt>
      <trkpt lat="44.45013" lon="6.57925">
        <ele>2782</ele>
        <time>2021-04-08T09:27:26Z</time>
      </trkpt>
      <trkpt lat="44.45013" lon="6.57925">
        <ele>2782</ele>
        <time>2021-04-08T09:27:27Z</time>
      </trkpt>
      <trkpt lat="44.45013" lon="6.57925">
        <ele>2782</ele>
        <time>2021-04-08T09:27:28Z</time>
      </trkpt>
      <trkpt lat="44.45013" lon="6.57925">
        <ele>2782</ele>
        <time>2021-04-08T09:27:29Z</time>
      </trkpt>
      <trkpt lat="44.45013" lon="6.57925">
        <ele>2782</ele>
        <time>2021-04-08T09:27:30Z</time>
      </trkpt>
      <trkpt lat="44.45013" lon="6.57925">
        <ele>2782</ele>
        <time>2021-04-08T09:27:31Z</time>
      </trkpt>
      <trkpt lat="44.45013" lon="6.57925">
        <ele>2782</ele>
        <time>2021-04-08T09:27:32Z</time>
      </trkpt>
      <trkpt lat="44.45013" lon="6.57925">
        <ele>2782</ele>
        <time>2021-04-08T09:27:33Z</time>
      </trkpt>
      <trkpt lat="44.45013" lon="6.57925">
        <ele>2782</ele>
        <time>2021-04-08T09:27:34Z</time>
      </trkpt>
      <trkpt lat="44.45014" lon="6.57921">
        <ele>2783</ele>
        <time>2021-04-08T09:27:35Z</time>
      </trkpt>
      <trkpt lat="44.45014" lon="6.57921">
        <ele>2783</ele>
        <time>2021-04-08T09:27:36Z</time>
      </trkpt>
      <trkpt lat="44.45014" lon="6.57921">
        <ele>2783</ele>
        <time>2021-04-08T09:27:37Z</time>
      </trkpt>
      <trkpt lat="44.45014" lon="6.5792">
        <ele>2783</ele>
        <time>2021-04-08T09:27:38Z</time>
      </trkpt>
      <trkpt lat="44.45014" lon="6.5792">
        <ele>2783</ele>
        <time>2021-04-08T09:27:39Z</time>
      </trkpt>
      <trkpt lat="44.45014" lon="6.5792">
        <ele>2783</ele>
        <time>2021-04-08T09:27:40Z</time>
      </trkpt>
      <trkpt lat="44.45014" lon="6.5792">
        <ele>2783</ele>
        <time>2021-04-08T09:27:41Z</time>
      </trkpt>
      <trkpt lat="44.45014" lon="6.5792">
        <ele>2783</ele>
        <time>2021-04-08T09:27:42Z</time>
      </trkpt>
      <trkpt lat="44.45014" lon="6.5792">
        <ele>2783</ele>
        <time>2021-04-08T09:27:43Z</time>
      </trkpt>
      <trkpt lat="44.45014" lon="6.5792">
        <ele>2783</ele>
        <time>2021-04-08T09:27:44Z</time>
      </trkpt>
      <trkpt lat="44.45014" lon="6.5792">
        <ele>2783</ele>
        <time>2021-04-08T09:27:45Z</time>
      </trkpt>
      <trkpt lat="44.45014" lon="6.5792">
        <ele>2783</ele>
        <time>2021-04-08T09:27:46Z</time>
      </trkpt>
      <trkpt lat="44.45014" lon="6.5792">
        <ele>2783</ele>
        <time>2021-04-08T09:27:47Z</time>
      </trkpt>
      <trkpt lat="44.45014" lon="6.5792">
        <ele>2783</ele>
        <time>2021-04-08T09:27:48Z</time>
      </trkpt>
      <trkpt lat="44.45014" lon="6.5792">
        <ele>2783</ele>
        <time>2021-04-08T09:27:49Z</time>
      </trkpt>
      <trkpt lat="44.45014" lon="6.5792">
        <ele>2783</ele>
        <time>2021-04-08T09:27:50Z</time>
      </trkpt>
      <trkpt lat="44.45014" lon="6.5792">
        <ele>2783</ele>
        <time>2021-04-08T09:27:51Z</time>
      </trkpt>
      <trkpt lat="44.45014" lon="6.5792">
        <ele>2783</ele>
        <time>2021-04-08T09:27:52Z</time>
      </trkpt>
      <trkpt lat="44.45014" lon="6.5792">
        <ele>2783</ele>
        <time>2021-04-08T09:27:53Z</time>
      </trkpt>
      <trkpt lat="44.45014" lon="6.5792">
        <ele>2783</ele>
        <time>2021-04-08T09:27:54Z</time>
      </trkpt>
      <trkpt lat="44.45014" lon="6.5792">
        <ele>2783</ele>
        <time>2021-04-08T09:27:55Z</time>
      </trkpt>
      <trkpt lat="44.45014" lon="6.5792">
        <ele>2783</ele>
        <time>2021-04-08T09:27:56Z</time>
      </trkpt>
      <trkpt lat="44.45014" lon="6.5792">
        <ele>2783</ele>
        <time>2021-04-08T09:27:57Z</time>
      </trkpt>
      <trkpt lat="44.45014" lon="6.5792">
        <ele>2783</ele>
        <time>2021-04-08T09:27:58Z</time>
      </trkpt>
      <trkpt lat="44.45014" lon="6.5792">
        <ele>2783</ele>
        <time>2021-04-08T09:27:59Z</time>
      </trkpt>
      <trkpt lat="44.45014" lon="6.5792">
        <ele>2783</ele>
        <time>2021-04-08T09:28:00Z</time>
      </trkpt>
      <trkpt lat="44.45014" lon="6.5792">
        <ele>2783</ele>
        <time>2021-04-08T09:28:01Z</time>
      </trkpt>
      <trkpt lat="44.45014" lon="6.5792">
        <ele>2783</ele>
        <time>2021-04-08T09:28:02Z</time>
      </trkpt>
      <trkpt lat="44.45014" lon="6.5792">
        <ele>2783</ele>
        <time>2021-04-08T09:28:03Z</time>
      </trkpt>
      <trkpt lat="44.45014" lon="6.5792">
        <ele>2783</ele>
        <time>2021-04-08T09:28:04Z</time>
      </trkpt>
      <trkpt lat="44.45014" lon="6.5792">
        <ele>2783</ele>
        <time>2021-04-08T09:28:05Z</time>
      </trkpt>
      <trkpt lat="44.45014" lon="6.5792">
        <ele>2783</ele>
        <time>2021-04-08T09:28:06Z</time>
      </trkpt>
      <trkpt lat="44.45014" lon="6.5792">
        <ele>2783</ele>
        <time>2021-04-08T09:28:07Z</time>
      </trkpt>
      <trkpt lat="44.45014" lon="6.5792">
        <ele>2783</ele>
        <time>2021-04-08T09:28:08Z</time>
      </trkpt>
      <trkpt lat="44.45014" lon="6.5792">
        <ele>2783</ele>
        <time>2021-04-08T09:28:09Z</time>
      </trkpt>
      <trkpt lat="44.45014" lon="6.5792">
        <ele>2783</ele>
        <time>2021-04-08T09:28:10Z</time>
      </trkpt>
      <trkpt lat="44.45014" lon="6.5792">
        <ele>2783</ele>
        <time>2021-04-08T09:28:11Z</time>
      </trkpt>
      <trkpt lat="44.45014" lon="6.5792">
        <ele>2783</ele>
        <time>2021-04-08T09:28:12Z</time>
      </trkpt>
      <trkpt lat="44.45014" lon="6.5792">
        <ele>2783</ele>
        <time>2021-04-08T09:28:13Z</time>
      </trkpt>
      <trkpt lat="44.45014" lon="6.5792">
        <ele>2783</ele>
        <time>2021-04-08T09:28:14Z</time>
      </trkpt>
      <trkpt lat="44.45014" lon="6.5792">
        <ele>2783</ele>
        <time>2021-04-08T09:28:15Z</time>
      </trkpt>
      <trkpt lat="44.45014" lon="6.5792">
        <ele>2783</ele>
        <time>2021-04-08T09:28:16Z</time>
      </trkpt>
      <trkpt lat="44.45014" lon="6.5792">
        <ele>2783</ele>
        <time>2021-04-08T09:28:17Z</time>
      </trkpt>
      <trkpt lat="44.45014" lon="6.5792">
        <ele>2783</ele>
        <time>2021-04-08T09:28:18Z</time>
      </trkpt>
      <trkpt lat="44.45014" lon="6.5792">
        <ele>2783</ele>
        <time>2021-04-08T09:28:19Z</time>
      </trkpt>
      <trkpt lat="44.45014" lon="6.5792">
        <ele>2783</ele>
        <time>2021-04-08T09:28:20Z</time>
      </trkpt>
      <trkpt lat="44.45014" lon="6.5792">
        <ele>2783</ele>
        <time>2021-04-08T09:28:21Z</time>
      </trkpt>
      <trkpt lat="44.45014" lon="6.5792">
        <ele>2783</ele>
        <time>2021-04-08T09:28:22Z</time>
      </trkpt>
      <trkpt lat="44.45014" lon="6.5792">
        <ele>2783</ele>
        <time>2021-04-08T09:28:23Z</time>
      </trkpt>
      <trkpt lat="44.45014" lon="6.5792">
        <ele>2783</ele>
        <time>2021-04-08T09:28:24Z</time>
      </trkpt>
      <trkpt lat="44.45014" lon="6.5792">
        <ele>2783</ele>
        <time>2021-04-08T09:28:25Z</time>
      </trkpt>
      <trkpt lat="44.45014" lon="6.5792">
        <ele>2783</ele>
        <time>2021-04-08T09:28:26Z</time>
      </trkpt>
      <trkpt lat="44.45014" lon="6.5792">
        <ele>2783</ele>
        <time>2021-04-08T09:28:27Z</time>
      </trkpt>
      <trkpt lat="44.45014" lon="6.5792">
        <ele>2783</ele>
        <time>2021-04-08T09:28:28Z</time>
      </trkpt>
      <trkpt lat="44.45014" lon="6.5792">
        <ele>2783</ele>
        <time>2021-04-08T09:28:29Z</time>
      </trkpt>
      <trkpt lat="44.45014" lon="6.5792">
        <ele>2783</ele>
        <time>2021-04-08T09:28:30Z</time>
      </trkpt>
      <trkpt lat="44.45014" lon="6.5792">
        <ele>2783</ele>
        <time>2021-04-08T09:28:31Z</time>
      </trkpt>
      <trkpt lat="44.45014" lon="6.5792">
        <ele>2783</ele>
        <time>2021-04-08T09:28:32Z</time>
      </trkpt>
      <trkpt lat="44.45014" lon="6.5792">
        <ele>2783</ele>
        <time>2021-04-08T09:28:33Z</time>
      </trkpt>
      <trkpt lat="44.45014" lon="6.5792">
        <ele>2783</ele>
        <time>2021-04-08T09:28:34Z</time>
      </trkpt>
      <trkpt lat="44.45014" lon="6.5792">
        <ele>2783</ele>
        <time>2021-04-08T09:28:35Z</time>
      </trkpt>
      <trkpt lat="44.45014" lon="6.5792">
        <ele>2783</ele>
        <time>2021-04-08T09:28:36Z</time>
      </trkpt>
      <trkpt lat="44.45014" lon="6.5792">
        <ele>2783</ele>
        <time>2021-04-08T09:28:37Z</time>
      </trkpt>
      <trkpt lat="44.45014" lon="6.5792">
        <ele>2783</ele>
        <time>2021-04-08T09:28:38Z</time>
      </trkpt>
      <trkpt lat="44.45014" lon="6.5792">
        <ele>2783</ele>
        <time>2021-04-08T09:28:39Z</time>
      </trkpt>
      <trkpt lat="44.45014" lon="6.5792">
        <ele>2783</ele>
        <time>2021-04-08T09:28:40Z</time>
      </trkpt>
      <trkpt lat="44.45013" lon="6.57918">
        <ele>2783</ele>
        <time>2021-04-08T09:28:41Z</time>
      </trkpt>
      <trkpt lat="44.45013" lon="6.57918">
        <ele>2783</ele>
        <time>2021-04-08T09:28:42Z</time>
      </trkpt>
      <trkpt lat="44.45013" lon="6.57918">
        <ele>2783</ele>
        <time>2021-04-08T09:28:43Z</time>
      </trkpt>
      <trkpt lat="44.45013" lon="6.57918">
        <ele>2783</ele>
        <time>2021-04-08T09:28:44Z</time>
      </trkpt>
      <trkpt lat="44.45013" lon="6.57918">
        <ele>2783</ele>
        <time>2021-04-08T09:28:45Z</time>
      </trkpt>
      <trkpt lat="44.45013" lon="6.57918">
        <ele>2783</ele>
        <time>2021-04-08T09:28:46Z</time>
      </trkpt>
      <trkpt lat="44.45013" lon="6.57918">
        <ele>2784</ele>
        <time>2021-04-08T09:28:47Z</time>
      </trkpt>
      <trkpt lat="44.45013" lon="6.57918">
        <ele>2784</ele>
        <time>2021-04-08T09:28:48Z</time>
      </trkpt>
      <trkpt lat="44.45013" lon="6.57918">
        <ele>2784</ele>
        <time>2021-04-08T09:28:49Z</time>
      </trkpt>
      <trkpt lat="44.45013" lon="6.57918">
        <ele>2784</ele>
        <time>2021-04-08T09:28:50Z</time>
      </trkpt>
      <trkpt lat="44.45013" lon="6.57918">
        <ele>2784</ele>
        <time>2021-04-08T09:28:51Z</time>
      </trkpt>
      <trkpt lat="44.45013" lon="6.57918">
        <ele>2784</ele>
        <time>2021-04-08T09:28:52Z</time>
      </trkpt>
      <trkpt lat="44.45013" lon="6.57918">
        <ele>2784</ele>
        <time>2021-04-08T09:28:53Z</time>
      </trkpt>
      <trkpt lat="44.45013" lon="6.57918">
        <ele>2784</ele>
        <time>2021-04-08T09:28:54Z</time>
      </trkpt>
      <trkpt lat="44.45013" lon="6.57918">
        <ele>2784</ele>
        <time>2021-04-08T09:28:55Z</time>
      </trkpt>
      <trkpt lat="44.45013" lon="6.57918">
        <ele>2784</ele>
        <time>2021-04-08T09:28:56Z</time>
      </trkpt>
      <trkpt lat="44.45013" lon="6.57918">
        <ele>2784</ele>
        <time>2021-04-08T09:28:57Z</time>
      </trkpt>
      <trkpt lat="44.45013" lon="6.57918">
        <ele>2784</ele>
        <time>2021-04-08T09:28:58Z</time>
      </trkpt>
      <trkpt lat="44.45013" lon="6.57918">
        <ele>2784</ele>
        <time>2021-04-08T09:28:59Z</time>
      </trkpt>
      <trkpt lat="44.45013" lon="6.57918">
        <ele>2784</ele>
        <time>2021-04-08T09:29:00Z</time>
      </trkpt>
      <trkpt lat="44.45013" lon="6.57918">
        <ele>2784</ele>
        <time>2021-04-08T09:29:01Z</time>
      </trkpt>
      <trkpt lat="44.45013" lon="6.57918">
        <ele>2784</ele>
        <time>2021-04-08T09:29:02Z</time>
      </trkpt>
      <trkpt lat="44.45013" lon="6.57918">
        <ele>2784</ele>
        <time>2021-04-08T09:29:03Z</time>
      </trkpt>
      <trkpt lat="44.45013" lon="6.57918">
        <ele>2784</ele>
        <time>2021-04-08T09:29:04Z</time>
      </trkpt>
      <trkpt lat="44.45013" lon="6.57918">
        <ele>2784</ele>
        <time>2021-04-08T09:29:05Z</time>
      </trkpt>
      <trkpt lat="44.45013" lon="6.57918">
        <ele>2784</ele>
        <time>2021-04-08T09:29:06Z</time>
      </trkpt>
      <trkpt lat="44.45013" lon="6.57918">
        <ele>2784</ele>
        <time>2021-04-08T09:29:07Z</time>
      </trkpt>
      <trkpt lat="44.45013" lon="6.57918">
        <ele>2784</ele>
        <time>2021-04-08T09:29:08Z</time>
      </trkpt>
      <trkpt lat="44.45013" lon="6.57918">
        <ele>2784</ele>
        <time>2021-04-08T09:29:09Z</time>
      </trkpt>
      <trkpt lat="44.45013" lon="6.57918">
        <ele>2784</ele>
        <time>2021-04-08T09:29:10Z</time>
      </trkpt>
      <trkpt lat="44.45013" lon="6.57918">
        <ele>2784</ele>
        <time>2021-04-08T09:29:11Z</time>
      </trkpt>
      <trkpt lat="44.45013" lon="6.57918">
        <ele>2784</ele>
        <time>2021-04-08T09:29:12Z</time>
      </trkpt>
      <trkpt lat="44.45013" lon="6.57918">
        <ele>2784</ele>
        <time>2021-04-08T09:29:13Z</time>
      </trkpt>
      <trkpt lat="44.45013" lon="6.57918">
        <ele>2784</ele>
        <time>2021-04-08T09:29:14Z</time>
      </trkpt>
      <trkpt lat="44.45013" lon="6.57918">
        <ele>2784</ele>
        <time>2021-04-08T09:29:15Z</time>
      </trkpt>
      <trkpt lat="44.45013" lon="6.57918">
        <ele>2784</ele>
        <time>2021-04-08T09:29:16Z</time>
      </trkpt>
      <trkpt lat="44.45013" lon="6.57918">
        <ele>2784</ele>
        <time>2021-04-08T09:29:17Z</time>
      </trkpt>
      <trkpt lat="44.45013" lon="6.57918">
        <ele>2784</ele>
        <time>2021-04-08T09:29:18Z</time>
      </trkpt>
      <trkpt lat="44.45013" lon="6.57918">
        <ele>2784</ele>
        <time>2021-04-08T09:29:19Z</time>
      </trkpt>
      <trkpt lat="44.45013" lon="6.57918">
        <ele>2784</ele>
        <time>2021-04-08T09:29:20Z</time>
      </trkpt>
      <trkpt lat="44.45013" lon="6.57918">
        <ele>2784</ele>
        <time>2021-04-08T09:29:21Z</time>
      </trkpt>
      <trkpt lat="44.45013" lon="6.57918">
        <ele>2784</ele>
        <time>2021-04-08T09:29:22Z</time>
      </trkpt>
      <trkpt lat="44.45013" lon="6.57918">
        <ele>2784</ele>
        <time>2021-04-08T09:29:23Z</time>
      </trkpt>
      <trkpt lat="44.45013" lon="6.57918">
        <ele>2784</ele>
        <time>2021-04-08T09:29:24Z</time>
      </trkpt>
      <trkpt lat="44.45013" lon="6.57918">
        <ele>2784</ele>
        <time>2021-04-08T09:29:25Z</time>
      </trkpt>
      <trkpt lat="44.45013" lon="6.57918">
        <ele>2784</ele>
        <time>2021-04-08T09:29:26Z</time>
      </trkpt>
      <trkpt lat="44.45013" lon="6.57918">
        <ele>2784</ele>
        <time>2021-04-08T09:29:27Z</time>
      </trkpt>
      <trkpt lat="44.45013" lon="6.57918">
        <ele>2784</ele>
        <time>2021-04-08T09:29:28Z</time>
      </trkpt>
      <trkpt lat="44.45013" lon="6.57918">
        <ele>2784</ele>
        <time>2021-04-08T09:29:29Z</time>
      </trkpt>
      <trkpt lat="44.45013" lon="6.57918">
        <ele>2784</ele>
        <time>2021-04-08T09:29:30Z</time>
      </trkpt>
      <trkpt lat="44.45013" lon="6.57918">
        <ele>2784</ele>
        <time>2021-04-08T09:29:31Z</time>
      </trkpt>
      <trkpt lat="44.45013" lon="6.57918">
        <ele>2784</ele>
        <time>2021-04-08T09:29:32Z</time>
      </trkpt>
      <trkpt lat="44.45013" lon="6.57918">
        <ele>2784</ele>
        <time>2021-04-08T09:29:33Z</time>
      </trkpt>
      <trkpt lat="44.45013" lon="6.57918">
        <ele>2784</ele>
        <time>2021-04-08T09:29:34Z</time>
      </trkpt>
      <trkpt lat="44.45013" lon="6.57918">
        <ele>2784</ele>
        <time>2021-04-08T09:29:35Z</time>
      </trkpt>
      <trkpt lat="44.45013" lon="6.57918">
        <ele>2784</ele>
        <time>2021-04-08T09:29:36Z</time>
      </trkpt>
      <trkpt lat="44.45013" lon="6.57918">
        <ele>2784</ele>
        <time>2021-04-08T09:29:37Z</time>
      </trkpt>
      <trkpt lat="44.45013" lon="6.57918">
        <ele>2784</ele>
        <time>2021-04-08T09:29:38Z</time>
      </trkpt>
      <trkpt lat="44.45013" lon="6.57918">
        <ele>2784</ele>
        <time>2021-04-08T09:29:39Z</time>
      </trkpt>
      <trkpt lat="44.45013" lon="6.57918">
        <ele>2784</ele>
        <time>2021-04-08T09:29:40Z</time>
      </trkpt>
      <trkpt lat="44.45013" lon="6.57918">
        <ele>2784</ele>
        <time>2021-04-08T09:29:41Z</time>
      </trkpt>
      <trkpt lat="44.45013" lon="6.57918">
        <ele>2784</ele>
        <time>2021-04-08T09:29:42Z</time>
      </trkpt>
      <trkpt lat="44.45013" lon="6.57918">
        <ele>2784</ele>
        <time>2021-04-08T09:29:43Z</time>
      </trkpt>
      <trkpt lat="44.45013" lon="6.57918">
        <ele>2784</ele>
        <time>2021-04-08T09:29:44Z</time>
      </trkpt>
      <trkpt lat="44.45013" lon="6.57918">
        <ele>2784</ele>
        <time>2021-04-08T09:29:45Z</time>
      </trkpt>
      <trkpt lat="44.45013" lon="6.57918">
        <ele>2784</ele>
        <time>2021-04-08T09:29:46Z</time>
      </trkpt>
      <trkpt lat="44.45013" lon="6.57918">
        <ele>2784</ele>
        <time>2021-04-08T09:29:47Z</time>
      </trkpt>
      <trkpt lat="44.45013" lon="6.57918">
        <ele>2784</ele>
        <time>2021-04-08T09:29:48Z</time>
      </trkpt>
      <trkpt lat="44.45013" lon="6.57918">
        <ele>2784</ele>
        <time>2021-04-08T09:29:49Z</time>
      </trkpt>
      <trkpt lat="44.45013" lon="6.57918">
        <ele>2784</ele>
        <time>2021-04-08T09:29:50Z</time>
      </trkpt>
      <trkpt lat="44.45013" lon="6.57918">
        <ele>2784</ele>
        <time>2021-04-08T09:29:51Z</time>
      </trkpt>
      <trkpt lat="44.45013" lon="6.57918">
        <ele>2784</ele>
        <time>2021-04-08T09:29:52Z</time>
      </trkpt>
      <trkpt lat="44.45013" lon="6.57918">
        <ele>2784</ele>
        <time>2021-04-08T09:29:53Z</time>
      </trkpt>
      <trkpt lat="44.45013" lon="6.57918">
        <ele>2784</ele>
        <time>2021-04-08T09:29:54Z</time>
      </trkpt>
      <trkpt lat="44.45013" lon="6.57918">
        <ele>2784</ele>
        <time>2021-04-08T09:29:55Z</time>
      </trkpt>
      <trkpt lat="44.45013" lon="6.57918">
        <ele>2784</ele>
        <time>2021-04-08T09:29:56Z</time>
      </trkpt>
      <trkpt lat="44.45013" lon="6.57918">
        <ele>2784</ele>
        <time>2021-04-08T09:29:57Z</time>
      </trkpt>
      <trkpt lat="44.45013" lon="6.57918">
        <ele>2784</ele>
        <time>2021-04-08T09:29:58Z</time>
      </trkpt>
      <trkpt lat="44.45013" lon="6.57918">
        <ele>2784</ele>
        <time>2021-04-08T09:29:59Z</time>
      </trkpt>
      <trkpt lat="44.45013" lon="6.57918">
        <ele>2784</ele>
        <time>2021-04-08T09:30:00Z</time>
      </trkpt>
      <trkpt lat="44.45013" lon="6.57918">
        <ele>2784</ele>
        <time>2021-04-08T09:30:01Z</time>
      </trkpt>
      <trkpt lat="44.45013" lon="6.57918">
        <ele>2784</ele>
        <time>2021-04-08T09:30:02Z</time>
      </trkpt>
      <trkpt lat="44.45013" lon="6.57918">
        <ele>2784</ele>
        <time>2021-04-08T09:30:03Z</time>
      </trkpt>
      <trkpt lat="44.45013" lon="6.57918">
        <ele>2784</ele>
        <time>2021-04-08T09:30:04Z</time>
      </trkpt>
      <trkpt lat="44.45013" lon="6.57918">
        <ele>2784</ele>
        <time>2021-04-08T09:30:05Z</time>
      </trkpt>
      <trkpt lat="44.45013" lon="6.57918">
        <ele>2784</ele>
        <time>2021-04-08T09:30:06Z</time>
      </trkpt>
      <trkpt lat="44.45013" lon="6.57918">
        <ele>2784</ele>
        <time>2021-04-08T09:30:07Z</time>
      </trkpt>
      <trkpt lat="44.45013" lon="6.57918">
        <ele>2784</ele>
        <time>2021-04-08T09:30:08Z</time>
      </trkpt>
      <trkpt lat="44.45013" lon="6.57918">
        <ele>2784</ele>
        <time>2021-04-08T09:30:09Z</time>
      </trkpt>
      <trkpt lat="44.45013" lon="6.57918">
        <ele>2784</ele>
        <time>2021-04-08T09:30:10Z</time>
      </trkpt>
      <trkpt lat="44.45013" lon="6.57918">
        <ele>2784</ele>
        <time>2021-04-08T09:30:11Z</time>
      </trkpt>
      <trkpt lat="44.45013" lon="6.57918">
        <ele>2784</ele>
        <time>2021-04-08T09:30:12Z</time>
      </trkpt>
      <trkpt lat="44.45013" lon="6.57918">
        <ele>2784</ele>
        <time>2021-04-08T09:30:13Z</time>
      </trkpt>
      <trkpt lat="44.45013" lon="6.57918">
        <ele>2784</ele>
        <time>2021-04-08T09:30:14Z</time>
      </trkpt>
      <trkpt lat="44.45013" lon="6.57918">
        <ele>2784</ele>
        <time>2021-04-08T09:30:15Z</time>
      </trkpt>
      <trkpt lat="44.45013" lon="6.57918">
        <ele>2784</ele>
        <time>2021-04-08T09:30:16Z</time>
      </trkpt>
      <trkpt lat="44.45013" lon="6.57918">
        <ele>2784</ele>
        <time>2021-04-08T09:30:17Z</time>
      </trkpt>
      <trkpt lat="44.45013" lon="6.57918">
        <ele>2784</ele>
        <time>2021-04-08T09:30:18Z</time>
      </trkpt>
      <trkpt lat="44.45013" lon="6.57918">
        <ele>2784</ele>
        <time>2021-04-08T09:30:19Z</time>
      </trkpt>
      <trkpt lat="44.45013" lon="6.57918">
        <ele>2784</ele>
        <time>2021-04-08T09:30:20Z</time>
      </trkpt>
      <trkpt lat="44.45013" lon="6.57918">
        <ele>2784</ele>
        <time>2021-04-08T09:30:21Z</time>
      </trkpt>
      <trkpt lat="44.45013" lon="6.57918">
        <ele>2784</ele>
        <time>2021-04-08T09:30:22Z</time>
      </trkpt>
      <trkpt lat="44.45013" lon="6.57918">
        <ele>2784</ele>
        <time>2021-04-08T09:30:23Z</time>
      </trkpt>
      <trkpt lat="44.45013" lon="6.57918">
        <ele>2784</ele>
        <time>2021-04-08T09:30:24Z</time>
      </trkpt>
      <trkpt lat="44.45013" lon="6.57918">
        <ele>2784</ele>
        <time>2021-04-08T09:30:25Z</time>
      </trkpt>
      <trkpt lat="44.45013" lon="6.57918">
        <ele>2784</ele>
        <time>2021-04-08T09:30:26Z</time>
      </trkpt>
      <trkpt lat="44.45013" lon="6.57918">
        <ele>2784</ele>
        <time>2021-04-08T09:30:27Z</time>
      </trkpt>
      <trkpt lat="44.45013" lon="6.57918">
        <ele>2784</ele>
        <time>2021-04-08T09:30:28Z</time>
      </trkpt>
      <trkpt lat="44.45013" lon="6.57918">
        <ele>2784</ele>
        <time>2021-04-08T09:30:29Z</time>
      </trkpt>
      <trkpt lat="44.45013" lon="6.57918">
        <ele>2784</ele>
        <time>2021-04-08T09:30:30Z</time>
      </trkpt>
      <trkpt lat="44.45013" lon="6.57918">
        <ele>2784</ele>
        <time>2021-04-08T09:30:31Z</time>
      </trkpt>
      <trkpt lat="44.45013" lon="6.57918">
        <ele>2784</ele>
        <time>2021-04-08T09:30:32Z</time>
      </trkpt>
      <trkpt lat="44.45012" lon="6.57917">
        <ele>2784</ele>
        <time>2021-04-08T09:30:33Z</time>
      </trkpt>
      <trkpt lat="44.45012" lon="6.57917">
        <ele>2784</ele>
        <time>2021-04-08T09:30:34Z</time>
      </trkpt>
      <trkpt lat="44.45012" lon="6.57916">
        <ele>2784</ele>
        <time>2021-04-08T09:30:35Z</time>
      </trkpt>
      <trkpt lat="44.45012" lon="6.57915">
        <ele>2784</ele>
        <time>2021-04-08T09:30:36Z</time>
      </trkpt>
      <trkpt lat="44.45012" lon="6.57914">
        <ele>2784</ele>
        <time>2021-04-08T09:30:37Z</time>
      </trkpt>
      <trkpt lat="44.45011" lon="6.57914">
        <ele>2784</ele>
        <time>2021-04-08T09:30:38Z</time>
      </trkpt>
      <trkpt lat="44.45011" lon="6.57913">
        <ele>2785</ele>
        <time>2021-04-08T09:30:39Z</time>
      </trkpt>
      <trkpt lat="44.4501" lon="6.57913">
        <ele>2785</ele>
        <time>2021-04-08T09:30:40Z</time>
      </trkpt>
      <trkpt lat="44.4501" lon="6.57912">
        <ele>2785</ele>
        <time>2021-04-08T09:30:41Z</time>
      </trkpt>
      <trkpt lat="44.45009" lon="6.57911">
        <ele>2785</ele>
        <time>2021-04-08T09:30:42Z</time>
      </trkpt>
      <trkpt lat="44.45009" lon="6.5791">
        <ele>2785</ele>
        <time>2021-04-08T09:30:43Z</time>
      </trkpt>
      <trkpt lat="44.45009" lon="6.5791">
        <ele>2785</ele>
        <time>2021-04-08T09:30:44Z</time>
      </trkpt>
      <trkpt lat="44.45008" lon="6.57909">
        <ele>2785</ele>
        <time>2021-04-08T09:30:45Z</time>
      </trkpt>
      <trkpt lat="44.45008" lon="6.57909">
        <ele>2785</ele>
        <time>2021-04-08T09:30:46Z</time>
      </trkpt>
      <trkpt lat="44.45008" lon="6.57908">
        <ele>2785</ele>
        <time>2021-04-08T09:30:47Z</time>
      </trkpt>
      <trkpt lat="44.45008" lon="6.57908">
        <ele>2785</ele>
        <time>2021-04-08T09:30:48Z</time>
      </trkpt>
      <trkpt lat="44.45007" lon="6.57908">
        <ele>2785</ele>
        <time>2021-04-08T09:30:49Z</time>
      </trkpt>
      <trkpt lat="44.45006" lon="6.57907">
        <ele>2785</ele>
        <time>2021-04-08T09:30:50Z</time>
      </trkpt>
      <trkpt lat="44.45006" lon="6.57907">
        <ele>2785</ele>
        <time>2021-04-08T09:30:51Z</time>
      </trkpt>
      <trkpt lat="44.45006" lon="6.57906">
        <ele>2785</ele>
        <time>2021-04-08T09:30:52Z</time>
      </trkpt>
      <trkpt lat="44.45005" lon="6.57905">
        <ele>2786</ele>
        <time>2021-04-08T09:30:53Z</time>
      </trkpt>
      <trkpt lat="44.45005" lon="6.57905">
        <ele>2786</ele>
        <time>2021-04-08T09:30:54Z</time>
      </trkpt>
      <trkpt lat="44.45004" lon="6.57905">
        <ele>2786</ele>
        <time>2021-04-08T09:30:55Z</time>
      </trkpt>
      <trkpt lat="44.45004" lon="6.57905">
        <ele>2786</ele>
        <time>2021-04-08T09:30:56Z</time>
      </trkpt>
      <trkpt lat="44.45004" lon="6.57904">
        <ele>2786</ele>
        <time>2021-04-08T09:30:57Z</time>
      </trkpt>
      <trkpt lat="44.45003" lon="6.57904">
        <ele>2786</ele>
        <time>2021-04-08T09:30:58Z</time>
      </trkpt>
      <trkpt lat="44.45003" lon="6.57903">
        <ele>2786</ele>
        <time>2021-04-08T09:30:59Z</time>
      </trkpt>
      <trkpt lat="44.45003" lon="6.57903">
        <ele>2786</ele>
        <time>2021-04-08T09:31:00Z</time>
      </trkpt>
      <trkpt lat="44.45003" lon="6.57903">
        <ele>2786</ele>
        <time>2021-04-08T09:31:01Z</time>
      </trkpt>
      <trkpt lat="44.45003" lon="6.57903">
        <ele>2786</ele>
        <time>2021-04-08T09:31:02Z</time>
      </trkpt>
      <trkpt lat="44.45002" lon="6.57902">
        <ele>2786</ele>
        <time>2021-04-08T09:31:03Z</time>
      </trkpt>
      <trkpt lat="44.45002" lon="6.57902">
        <ele>2786</ele>
        <time>2021-04-08T09:31:04Z</time>
      </trkpt>
      <trkpt lat="44.45002" lon="6.57902">
        <ele>2786</ele>
        <time>2021-04-08T09:31:05Z</time>
      </trkpt>
      <trkpt lat="44.45001" lon="6.57901">
        <ele>2786</ele>
        <time>2021-04-08T09:31:06Z</time>
      </trkpt>
      <trkpt lat="44.45001" lon="6.57901">
        <ele>2786</ele>
        <time>2021-04-08T09:31:07Z</time>
      </trkpt>
      <trkpt lat="44.45001" lon="6.57901">
        <ele>2786</ele>
        <time>2021-04-08T09:31:08Z</time>
      </trkpt>
      <trkpt lat="44.45" lon="6.57901">
        <ele>2786</ele>
        <time>2021-04-08T09:31:09Z</time>
      </trkpt>
      <trkpt lat="44.45" lon="6.57901">
        <ele>2786</ele>
        <time>2021-04-08T09:31:10Z</time>
      </trkpt>
      <trkpt lat="44.45" lon="6.57901">
        <ele>2786</ele>
        <time>2021-04-08T09:31:11Z</time>
      </trkpt>
      <trkpt lat="44.45" lon="6.579">
        <ele>2786</ele>
        <time>2021-04-08T09:31:12Z</time>
      </trkpt>
      <trkpt lat="44.45" lon="6.579">
        <ele>2786</ele>
        <time>2021-04-08T09:31:13Z</time>
      </trkpt>
      <trkpt lat="44.44999" lon="6.579">
        <ele>2786</ele>
        <time>2021-04-08T09:31:14Z</time>
      </trkpt>
      <trkpt lat="44.44999" lon="6.579">
        <ele>2786</ele>
        <time>2021-04-08T09:31:15Z</time>
      </trkpt>
      <trkpt lat="44.44999" lon="6.57901">
        <ele>2786</ele>
        <time>2021-04-08T09:31:16Z</time>
      </trkpt>
      <trkpt lat="44.44999" lon="6.57901">
        <ele>2786</ele>
        <time>2021-04-08T09:31:17Z</time>
      </trkpt>
      <trkpt lat="44.44999" lon="6.57901">
        <ele>2786</ele>
        <time>2021-04-08T09:31:18Z</time>
      </trkpt>
      <trkpt lat="44.44999" lon="6.57901">
        <ele>2786</ele>
        <time>2021-04-08T09:31:19Z</time>
      </trkpt>
      <trkpt lat="44.44999" lon="6.57901">
        <ele>2786</ele>
        <time>2021-04-08T09:31:20Z</time>
      </trkpt>
      <trkpt lat="44.44999" lon="6.57901">
        <ele>2786</ele>
        <time>2021-04-08T09:31:21Z</time>
      </trkpt>
      <trkpt lat="44.44999" lon="6.57901">
        <ele>2786</ele>
        <time>2021-04-08T09:31:22Z</time>
      </trkpt>
      <trkpt lat="44.44999" lon="6.57901">
        <ele>2786</ele>
        <time>2021-04-08T09:31:23Z</time>
      </trkpt>
      <trkpt lat="44.44999" lon="6.57901">
        <ele>2786</ele>
        <time>2021-04-08T09:31:24Z</time>
      </trkpt>
      <trkpt lat="44.44999" lon="6.57901">
        <ele>2786</ele>
        <time>2021-04-08T09:31:25Z</time>
      </trkpt>
      <trkpt lat="44.44999" lon="6.57901">
        <ele>2786</ele>
        <time>2021-04-08T09:31:26Z</time>
      </trkpt>
      <trkpt lat="44.44996" lon="6.57902">
        <ele>2787</ele>
        <time>2021-04-08T09:31:27Z</time>
      </trkpt>
      <trkpt lat="44.44996" lon="6.57901">
        <ele>2787</ele>
        <time>2021-04-08T09:31:28Z</time>
      </trkpt>
      <trkpt lat="44.44996" lon="6.579">
        <ele>2787</ele>
        <time>2021-04-08T09:31:29Z</time>
      </trkpt>
      <trkpt lat="44.44996" lon="6.57898">
        <ele>2788</ele>
        <time>2021-04-08T09:31:30Z</time>
      </trkpt>
      <trkpt lat="44.44996" lon="6.57898">
        <ele>2789</ele>
        <time>2021-04-08T09:31:31Z</time>
      </trkpt>
      <trkpt lat="44.44995" lon="6.57897">
        <ele>2789</ele>
        <time>2021-04-08T09:31:32Z</time>
      </trkpt>
      <trkpt lat="44.44995" lon="6.57896">
        <ele>2789</ele>
        <time>2021-04-08T09:31:33Z</time>
      </trkpt>
      <trkpt lat="44.44994" lon="6.57896">
        <ele>2789</ele>
        <time>2021-04-08T09:31:34Z</time>
      </trkpt>
      <trkpt lat="44.44994" lon="6.57896">
        <ele>2789</ele>
        <time>2021-04-08T09:31:35Z</time>
      </trkpt>
      <trkpt lat="44.44994" lon="6.57895">
        <ele>2790</ele>
        <time>2021-04-08T09:31:36Z</time>
      </trkpt>
      <trkpt lat="44.44993" lon="6.57895">
        <ele>2790</ele>
        <time>2021-04-08T09:31:37Z</time>
      </trkpt>
      <trkpt lat="44.44993" lon="6.57895">
        <ele>2790</ele>
        <time>2021-04-08T09:31:38Z</time>
      </trkpt>
      <trkpt lat="44.44992" lon="6.57895">
        <ele>2790</ele>
        <time>2021-04-08T09:31:39Z</time>
      </trkpt>
      <trkpt lat="44.44992" lon="6.57894">
        <ele>2791</ele>
        <time>2021-04-08T09:31:40Z</time>
      </trkpt>
      <trkpt lat="44.44992" lon="6.57894">
        <ele>2791</ele>
        <time>2021-04-08T09:31:41Z</time>
      </trkpt>
      <trkpt lat="44.44992" lon="6.57893">
        <ele>2791</ele>
        <time>2021-04-08T09:31:42Z</time>
      </trkpt>
      <trkpt lat="44.44992" lon="6.57893">
        <ele>2791</ele>
        <time>2021-04-08T09:31:43Z</time>
      </trkpt>
      <trkpt lat="44.44991" lon="6.57892">
        <ele>2792</ele>
        <time>2021-04-08T09:31:44Z</time>
      </trkpt>
      <trkpt lat="44.44991" lon="6.57892">
        <ele>2792</ele>
        <time>2021-04-08T09:31:45Z</time>
      </trkpt>
      <trkpt lat="44.4499" lon="6.57892">
        <ele>2792</ele>
        <time>2021-04-08T09:31:46Z</time>
      </trkpt>
      <trkpt lat="44.4499" lon="6.57891">
        <ele>2792</ele>
        <time>2021-04-08T09:31:47Z</time>
      </trkpt>
      <trkpt lat="44.4499" lon="6.57891">
        <ele>2792</ele>
        <time>2021-04-08T09:31:48Z</time>
      </trkpt>
      <trkpt lat="44.44989" lon="6.5789">
        <ele>2792</ele>
        <time>2021-04-08T09:31:49Z</time>
      </trkpt>
      <trkpt lat="44.44988" lon="6.5789">
        <ele>2793</ele>
        <time>2021-04-08T09:31:50Z</time>
      </trkpt>
      <trkpt lat="44.44988" lon="6.5789">
        <ele>2793</ele>
        <time>2021-04-08T09:31:51Z</time>
      </trkpt>
      <trkpt lat="44.44988" lon="6.57889">
        <ele>2793</ele>
        <time>2021-04-08T09:31:52Z</time>
      </trkpt>
      <trkpt lat="44.44987" lon="6.57889">
        <ele>2793</ele>
        <time>2021-04-08T09:31:53Z</time>
      </trkpt>
      <trkpt lat="44.44987" lon="6.57888">
        <ele>2793</ele>
        <time>2021-04-08T09:31:54Z</time>
      </trkpt>
      <trkpt lat="44.44986" lon="6.57887">
        <ele>2794</ele>
        <time>2021-04-08T09:31:55Z</time>
      </trkpt>
      <trkpt lat="44.44986" lon="6.57887">
        <ele>2794</ele>
        <time>2021-04-08T09:31:56Z</time>
      </trkpt>
      <trkpt lat="44.44985" lon="6.57886">
        <ele>2794</ele>
        <time>2021-04-08T09:31:57Z</time>
      </trkpt>
      <trkpt lat="44.44985" lon="6.57885">
        <ele>2794</ele>
        <time>2021-04-08T09:31:58Z</time>
      </trkpt>
      <trkpt lat="44.44985" lon="6.57885">
        <ele>2794</ele>
        <time>2021-04-08T09:31:59Z</time>
      </trkpt>
      <trkpt lat="44.44984" lon="6.57884">
        <ele>2795</ele>
        <time>2021-04-08T09:32:00Z</time>
      </trkpt>
      <trkpt lat="44.44984" lon="6.57884">
        <ele>2795</ele>
        <time>2021-04-08T09:32:01Z</time>
      </trkpt>
      <trkpt lat="44.44983" lon="6.57884">
        <ele>2795</ele>
        <time>2021-04-08T09:32:02Z</time>
      </trkpt>
      <trkpt lat="44.44983" lon="6.57883">
        <ele>2795</ele>
        <time>2021-04-08T09:32:03Z</time>
      </trkpt>
      <trkpt lat="44.44983" lon="6.57883">
        <ele>2796</ele>
        <time>2021-04-08T09:32:04Z</time>
      </trkpt>
      <trkpt lat="44.44982" lon="6.57882">
        <ele>2796</ele>
        <time>2021-04-08T09:32:05Z</time>
      </trkpt>
      <trkpt lat="44.44982" lon="6.57881">
        <ele>2796</ele>
        <time>2021-04-08T09:32:06Z</time>
      </trkpt>
      <trkpt lat="44.44982" lon="6.5788">
        <ele>2796</ele>
        <time>2021-04-08T09:32:07Z</time>
      </trkpt>
      <trkpt lat="44.44981" lon="6.5788">
        <ele>2796</ele>
        <time>2021-04-08T09:32:08Z</time>
      </trkpt>
      <trkpt lat="44.44981" lon="6.5788">
        <ele>2797</ele>
        <time>2021-04-08T09:32:09Z</time>
      </trkpt>
      <trkpt lat="44.4498" lon="6.57879">
        <ele>2797</ele>
        <time>2021-04-08T09:32:10Z</time>
      </trkpt>
      <trkpt lat="44.4498" lon="6.57879">
        <ele>2797</ele>
        <time>2021-04-08T09:32:11Z</time>
      </trkpt>
      <trkpt lat="44.4498" lon="6.57878">
        <ele>2797</ele>
        <time>2021-04-08T09:32:12Z</time>
      </trkpt>
      <trkpt lat="44.44979" lon="6.57877">
        <ele>2797</ele>
        <time>2021-04-08T09:32:13Z</time>
      </trkpt>
      <trkpt lat="44.44979" lon="6.57877">
        <ele>2798</ele>
        <time>2021-04-08T09:32:14Z</time>
      </trkpt>
      <trkpt lat="44.44979" lon="6.57876">
        <ele>2798</ele>
        <time>2021-04-08T09:32:15Z</time>
      </trkpt>
      <trkpt lat="44.44978" lon="6.57875">
        <ele>2798</ele>
        <time>2021-04-08T09:32:16Z</time>
      </trkpt>
      <trkpt lat="44.44978" lon="6.57875">
        <ele>2798</ele>
        <time>2021-04-08T09:32:17Z</time>
      </trkpt>
      <trkpt lat="44.44978" lon="6.57875">
        <ele>2798</ele>
        <time>2021-04-08T09:32:18Z</time>
      </trkpt>
      <trkpt lat="44.44977" lon="6.57875">
        <ele>2798</ele>
        <time>2021-04-08T09:32:19Z</time>
      </trkpt>
      <trkpt lat="44.44977" lon="6.57874">
        <ele>2798</ele>
        <time>2021-04-08T09:32:20Z</time>
      </trkpt>
      <trkpt lat="44.44976" lon="6.57873">
        <ele>2798</ele>
        <time>2021-04-08T09:32:21Z</time>
      </trkpt>
      <trkpt lat="44.44976" lon="6.57872">
        <ele>2798</ele>
        <time>2021-04-08T09:32:22Z</time>
      </trkpt>
      <trkpt lat="44.44975" lon="6.57872">
        <ele>2798</ele>
        <time>2021-04-08T09:32:23Z</time>
      </trkpt>
      <trkpt lat="44.44975" lon="6.57871">
        <ele>2798</ele>
        <time>2021-04-08T09:32:24Z</time>
      </trkpt>
      <trkpt lat="44.44975" lon="6.5787">
        <ele>2798</ele>
        <time>2021-04-08T09:32:25Z</time>
      </trkpt>
      <trkpt lat="44.44975" lon="6.57869">
        <ele>2798</ele>
        <time>2021-04-08T09:32:26Z</time>
      </trkpt>
      <trkpt lat="44.44975" lon="6.57868">
        <ele>2798</ele>
        <time>2021-04-08T09:32:27Z</time>
      </trkpt>
      <trkpt lat="44.44975" lon="6.57868">
        <ele>2797</ele>
        <time>2021-04-08T09:32:28Z</time>
      </trkpt>
      <trkpt lat="44.44975" lon="6.57867">
        <ele>2797</ele>
        <time>2021-04-08T09:32:29Z</time>
      </trkpt>
      <trkpt lat="44.44974" lon="6.57867">
        <ele>2797</ele>
        <time>2021-04-08T09:32:30Z</time>
      </trkpt>
      <trkpt lat="44.44974" lon="6.57866">
        <ele>2797</ele>
        <time>2021-04-08T09:32:31Z</time>
      </trkpt>
      <trkpt lat="44.44974" lon="6.57865">
        <ele>2797</ele>
        <time>2021-04-08T09:32:32Z</time>
      </trkpt>
      <trkpt lat="44.44974" lon="6.57865">
        <ele>2797</ele>
        <time>2021-04-08T09:32:33Z</time>
      </trkpt>
      <trkpt lat="44.44973" lon="6.57864">
        <ele>2797</ele>
        <time>2021-04-08T09:32:34Z</time>
      </trkpt>
      <trkpt lat="44.44974" lon="6.57862">
        <ele>2798</ele>
        <time>2021-04-08T09:32:35Z</time>
      </trkpt>
      <trkpt lat="44.44974" lon="6.57861">
        <ele>2799</ele>
        <time>2021-04-08T09:32:36Z</time>
      </trkpt>
      <trkpt lat="44.44974" lon="6.57861">
        <ele>2799</ele>
        <time>2021-04-08T09:32:37Z</time>
      </trkpt>
      <trkpt lat="44.44974" lon="6.5786">
        <ele>2799</ele>
        <time>2021-04-08T09:32:38Z</time>
      </trkpt>
      <trkpt lat="44.44973" lon="6.57859">
        <ele>2799</ele>
        <time>2021-04-08T09:32:39Z</time>
      </trkpt>
      <trkpt lat="44.44973" lon="6.57859">
        <ele>2799</ele>
        <time>2021-04-08T09:32:40Z</time>
      </trkpt>
      <trkpt lat="44.44973" lon="6.57858">
        <ele>2799</ele>
        <time>2021-04-08T09:32:41Z</time>
      </trkpt>
      <trkpt lat="44.44973" lon="6.57857">
        <ele>2799</ele>
        <time>2021-04-08T09:32:42Z</time>
      </trkpt>
      <trkpt lat="44.44973" lon="6.57856">
        <ele>2799</ele>
        <time>2021-04-08T09:32:43Z</time>
      </trkpt>
      <trkpt lat="44.44972" lon="6.57856">
        <ele>2799</ele>
        <time>2021-04-08T09:32:44Z</time>
      </trkpt>
      <trkpt lat="44.44972" lon="6.57855">
        <ele>2799</ele>
        <time>2021-04-08T09:32:45Z</time>
      </trkpt>
      <trkpt lat="44.44972" lon="6.57854">
        <ele>2799</ele>
        <time>2021-04-08T09:32:46Z</time>
      </trkpt>
      <trkpt lat="44.44972" lon="6.57854">
        <ele>2799</ele>
        <time>2021-04-08T09:32:47Z</time>
      </trkpt>
      <trkpt lat="44.44971" lon="6.57854">
        <ele>2800</ele>
        <time>2021-04-08T09:32:48Z</time>
      </trkpt>
      <trkpt lat="44.44971" lon="6.57854">
        <ele>2800</ele>
        <time>2021-04-08T09:32:49Z</time>
      </trkpt>
      <trkpt lat="44.4497" lon="6.57853">
        <ele>2800</ele>
        <time>2021-04-08T09:32:50Z</time>
      </trkpt>
      <trkpt lat="44.4497" lon="6.57853">
        <ele>2800</ele>
        <time>2021-04-08T09:32:51Z</time>
      </trkpt>
      <trkpt lat="44.4497" lon="6.57853">
        <ele>2800</ele>
        <time>2021-04-08T09:32:52Z</time>
      </trkpt>
      <trkpt lat="44.44969" lon="6.57852">
        <ele>2800</ele>
        <time>2021-04-08T09:32:53Z</time>
      </trkpt>
      <trkpt lat="44.44968" lon="6.57852">
        <ele>2800</ele>
        <time>2021-04-08T09:32:54Z</time>
      </trkpt>
      <trkpt lat="44.44967" lon="6.57851">
        <ele>2800</ele>
        <time>2021-04-08T09:32:55Z</time>
      </trkpt>
      <trkpt lat="44.44967" lon="6.57851">
        <ele>2800</ele>
        <time>2021-04-08T09:32:56Z</time>
      </trkpt>
      <trkpt lat="44.44967" lon="6.57851">
        <ele>2800</ele>
        <time>2021-04-08T09:32:57Z</time>
      </trkpt>
      <trkpt lat="44.44966" lon="6.5785">
        <ele>2800</ele>
        <time>2021-04-08T09:32:58Z</time>
      </trkpt>
      <trkpt lat="44.44966" lon="6.5785">
        <ele>2800</ele>
        <time>2021-04-08T09:32:59Z</time>
      </trkpt>
      <trkpt lat="44.44966" lon="6.57849">
        <ele>2801</ele>
        <time>2021-04-08T09:33:00Z</time>
      </trkpt>
      <trkpt lat="44.44966" lon="6.57849">
        <ele>2801</ele>
        <time>2021-04-08T09:33:01Z</time>
      </trkpt>
      <trkpt lat="44.44965" lon="6.57849">
        <ele>2801</ele>
        <time>2021-04-08T09:33:02Z</time>
      </trkpt>
      <trkpt lat="44.44965" lon="6.57848">
        <ele>2801</ele>
        <time>2021-04-08T09:33:03Z</time>
      </trkpt>
      <trkpt lat="44.44965" lon="6.57848">
        <ele>2801</ele>
        <time>2021-04-08T09:33:04Z</time>
      </trkpt>
      <trkpt lat="44.44965" lon="6.57847">
        <ele>2801</ele>
        <time>2021-04-08T09:33:05Z</time>
      </trkpt>
      <trkpt lat="44.44965" lon="6.57847">
        <ele>2802</ele>
        <time>2021-04-08T09:33:06Z</time>
      </trkpt>
      <trkpt lat="44.44965" lon="6.57846">
        <ele>2802</ele>
        <time>2021-04-08T09:33:07Z</time>
      </trkpt>
      <trkpt lat="44.44965" lon="6.57846">
        <ele>2802</ele>
        <time>2021-04-08T09:33:08Z</time>
      </trkpt>
      <trkpt lat="44.44964" lon="6.57845">
        <ele>2802</ele>
        <time>2021-04-08T09:33:09Z</time>
      </trkpt>
      <trkpt lat="44.44964" lon="6.57845">
        <ele>2802</ele>
        <time>2021-04-08T09:33:10Z</time>
      </trkpt>
      <trkpt lat="44.44964" lon="6.57845">
        <ele>2802</ele>
        <time>2021-04-08T09:33:11Z</time>
      </trkpt>
      <trkpt lat="44.44964" lon="6.57845">
        <ele>2802</ele>
        <time>2021-04-08T09:33:12Z</time>
      </trkpt>
      <trkpt lat="44.44964" lon="6.57845">
        <ele>2802</ele>
        <time>2021-04-08T09:33:13Z</time>
      </trkpt>
      <trkpt lat="44.44964" lon="6.57845">
        <ele>2802</ele>
        <time>2021-04-08T09:33:14Z</time>
      </trkpt>
      <trkpt lat="44.44964" lon="6.57845">
        <ele>2802</ele>
        <time>2021-04-08T09:33:15Z</time>
      </trkpt>
      <trkpt lat="44.44964" lon="6.57845">
        <ele>2802</ele>
        <time>2021-04-08T09:33:16Z</time>
      </trkpt>
      <trkpt lat="44.44964" lon="6.57845">
        <ele>2802</ele>
        <time>2021-04-08T09:33:17Z</time>
      </trkpt>
      <trkpt lat="44.44964" lon="6.57845">
        <ele>2802</ele>
        <time>2021-04-08T09:33:18Z</time>
      </trkpt>
      <trkpt lat="44.44964" lon="6.57845">
        <ele>2802</ele>
        <time>2021-04-08T09:33:19Z</time>
      </trkpt>
      <trkpt lat="44.44964" lon="6.57845">
        <ele>2802</ele>
        <time>2021-04-08T09:33:20Z</time>
      </trkpt>
      <trkpt lat="44.44964" lon="6.57845">
        <ele>2802</ele>
        <time>2021-04-08T09:33:21Z</time>
      </trkpt>
      <trkpt lat="44.44964" lon="6.57845">
        <ele>2802</ele>
        <time>2021-04-08T09:33:22Z</time>
      </trkpt>
      <trkpt lat="44.44964" lon="6.57845">
        <ele>2802</ele>
        <time>2021-04-08T09:33:23Z</time>
      </trkpt>
      <trkpt lat="44.44964" lon="6.57845">
        <ele>2802</ele>
        <time>2021-04-08T09:33:24Z</time>
      </trkpt>
      <trkpt lat="44.44964" lon="6.57845">
        <ele>2802</ele>
        <time>2021-04-08T09:33:25Z</time>
      </trkpt>
      <trkpt lat="44.44964" lon="6.57845">
        <ele>2802</ele>
        <time>2021-04-08T09:33:26Z</time>
      </trkpt>
      <trkpt lat="44.44964" lon="6.57845">
        <ele>2802</ele>
        <time>2021-04-08T09:33:27Z</time>
      </trkpt>
      <trkpt lat="44.44964" lon="6.57845">
        <ele>2802</ele>
        <time>2021-04-08T09:33:28Z</time>
      </trkpt>
      <trkpt lat="44.4496" lon="6.5785">
        <ele>2803</ele>
        <time>2021-04-08T09:33:29Z</time>
      </trkpt>
      <trkpt lat="44.4496" lon="6.5785">
        <ele>2803</ele>
        <time>2021-04-08T09:33:30Z</time>
      </trkpt>
      <trkpt lat="44.44959" lon="6.57851">
        <ele>2804</ele>
        <time>2021-04-08T09:33:31Z</time>
      </trkpt>
      <trkpt lat="44.44959" lon="6.57852">
        <ele>2804</ele>
        <time>2021-04-08T09:33:32Z</time>
      </trkpt>
      <trkpt lat="44.44959" lon="6.57853">
        <ele>2804</ele>
        <time>2021-04-08T09:33:33Z</time>
      </trkpt>
      <trkpt lat="44.44958" lon="6.57853">
        <ele>2804</ele>
        <time>2021-04-08T09:33:34Z</time>
      </trkpt>
      <trkpt lat="44.44958" lon="6.57854">
        <ele>2804</ele>
        <time>2021-04-08T09:33:35Z</time>
      </trkpt>
      <trkpt lat="44.44958" lon="6.57855">
        <ele>2804</ele>
        <time>2021-04-08T09:33:36Z</time>
      </trkpt>
      <trkpt lat="44.44958" lon="6.57856">
        <ele>2804</ele>
        <time>2021-04-08T09:33:37Z</time>
      </trkpt>
      <trkpt lat="44.44958" lon="6.57856">
        <ele>2804</ele>
        <time>2021-04-08T09:33:38Z</time>
      </trkpt>
      <trkpt lat="44.44958" lon="6.57857">
        <ele>2804</ele>
        <time>2021-04-08T09:33:39Z</time>
      </trkpt>
      <trkpt lat="44.44958" lon="6.57857">
        <ele>2805</ele>
        <time>2021-04-08T09:33:40Z</time>
      </trkpt>
      <trkpt lat="44.44958" lon="6.57858">
        <ele>2805</ele>
        <time>2021-04-08T09:33:41Z</time>
      </trkpt>
      <trkpt lat="44.44957" lon="6.57858">
        <ele>2805</ele>
        <time>2021-04-08T09:33:42Z</time>
      </trkpt>
      <trkpt lat="44.44958" lon="6.57859">
        <ele>2805</ele>
        <time>2021-04-08T09:33:43Z</time>
      </trkpt>
      <trkpt lat="44.44957" lon="6.57859">
        <ele>2805</ele>
        <time>2021-04-08T09:33:44Z</time>
      </trkpt>
      <trkpt lat="44.44957" lon="6.5786">
        <ele>2805</ele>
        <time>2021-04-08T09:33:45Z</time>
      </trkpt>
      <trkpt lat="44.44957" lon="6.5786">
        <ele>2805</ele>
        <time>2021-04-08T09:33:46Z</time>
      </trkpt>
      <trkpt lat="44.44956" lon="6.5786">
        <ele>2805</ele>
        <time>2021-04-08T09:33:47Z</time>
      </trkpt>
      <trkpt lat="44.44956" lon="6.5786">
        <ele>2805</ele>
        <time>2021-04-08T09:33:48Z</time>
      </trkpt>
      <trkpt lat="44.44956" lon="6.5786">
        <ele>2805</ele>
        <time>2021-04-08T09:33:49Z</time>
      </trkpt>
      <trkpt lat="44.44956" lon="6.5786">
        <ele>2806</ele>
        <time>2021-04-08T09:33:50Z</time>
      </trkpt>
      <trkpt lat="44.44956" lon="6.5786">
        <ele>2806</ele>
        <time>2021-04-08T09:33:51Z</time>
      </trkpt>
      <trkpt lat="44.44956" lon="6.5786">
        <ele>2806</ele>
        <time>2021-04-08T09:33:52Z</time>
      </trkpt>
      <trkpt lat="44.44956" lon="6.5786">
        <ele>2806</ele>
        <time>2021-04-08T09:33:53Z</time>
      </trkpt>
      <trkpt lat="44.44956" lon="6.57862">
        <ele>2806</ele>
        <time>2021-04-08T09:33:54Z</time>
      </trkpt>
      <trkpt lat="44.44956" lon="6.57863">
        <ele>2806</ele>
        <time>2021-04-08T09:33:55Z</time>
      </trkpt>
      <trkpt lat="44.44956" lon="6.57864">
        <ele>2806</ele>
        <time>2021-04-08T09:33:56Z</time>
      </trkpt>
      <trkpt lat="44.44956" lon="6.57864">
        <ele>2807</ele>
        <time>2021-04-08T09:33:57Z</time>
      </trkpt>
      <trkpt lat="44.44956" lon="6.57865">
        <ele>2807</ele>
        <time>2021-04-08T09:33:58Z</time>
      </trkpt>
      <trkpt lat="44.44956" lon="6.57865">
        <ele>2807</ele>
        <time>2021-04-08T09:33:59Z</time>
      </trkpt>
      <trkpt lat="44.44956" lon="6.57865">
        <ele>2807</ele>
        <time>2021-04-08T09:34:00Z</time>
      </trkpt>
      <trkpt lat="44.44956" lon="6.57865">
        <ele>2807</ele>
        <time>2021-04-08T09:34:01Z</time>
      </trkpt>
      <trkpt lat="44.44956" lon="6.57865">
        <ele>2807</ele>
        <time>2021-04-08T09:34:02Z</time>
      </trkpt>
      <trkpt lat="44.44956" lon="6.57865">
        <ele>2807</ele>
        <time>2021-04-08T09:34:03Z</time>
      </trkpt>
      <trkpt lat="44.44956" lon="6.57865">
        <ele>2807</ele>
        <time>2021-04-08T09:34:04Z</time>
      </trkpt>
      <trkpt lat="44.44956" lon="6.57865">
        <ele>2807</ele>
        <time>2021-04-08T09:34:05Z</time>
      </trkpt>
      <trkpt lat="44.44956" lon="6.57865">
        <ele>2807</ele>
        <time>2021-04-08T09:34:06Z</time>
      </trkpt>
      <trkpt lat="44.44956" lon="6.57865">
        <ele>2807</ele>
        <time>2021-04-08T09:34:07Z</time>
      </trkpt>
      <trkpt lat="44.44956" lon="6.57865">
        <ele>2807</ele>
        <time>2021-04-08T09:34:08Z</time>
      </trkpt>
      <trkpt lat="44.44956" lon="6.57865">
        <ele>2807</ele>
        <time>2021-04-08T09:34:09Z</time>
      </trkpt>
      <trkpt lat="44.44956" lon="6.57865">
        <ele>2807</ele>
        <time>2021-04-08T09:34:10Z</time>
      </trkpt>
      <trkpt lat="44.44956" lon="6.57865">
        <ele>2807</ele>
        <time>2021-04-08T09:34:11Z</time>
      </trkpt>
      <trkpt lat="44.44956" lon="6.57865">
        <ele>2807</ele>
        <time>2021-04-08T09:34:12Z</time>
      </trkpt>
      <trkpt lat="44.44956" lon="6.57865">
        <ele>2807</ele>
        <time>2021-04-08T09:34:13Z</time>
      </trkpt>
      <trkpt lat="44.44953" lon="6.57865">
        <ele>2808</ele>
        <time>2021-04-08T09:34:14Z</time>
      </trkpt>
      <trkpt lat="44.44952" lon="6.57865">
        <ele>2809</ele>
        <time>2021-04-08T09:34:15Z</time>
      </trkpt>
      <trkpt lat="44.44952" lon="6.57864">
        <ele>2809</ele>
        <time>2021-04-08T09:34:16Z</time>
      </trkpt>
      <trkpt lat="44.44952" lon="6.57863">
        <ele>2809</ele>
        <time>2021-04-08T09:34:17Z</time>
      </trkpt>
      <trkpt lat="44.44952" lon="6.57863">
        <ele>2809</ele>
        <time>2021-04-08T09:34:18Z</time>
      </trkpt>
      <trkpt lat="44.44952" lon="6.57862">
        <ele>2810</ele>
        <time>2021-04-08T09:34:19Z</time>
      </trkpt>
      <trkpt lat="44.44951" lon="6.57862">
        <ele>2810</ele>
        <time>2021-04-08T09:34:20Z</time>
      </trkpt>
      <trkpt lat="44.44951" lon="6.57862">
        <ele>2810</ele>
        <time>2021-04-08T09:34:21Z</time>
      </trkpt>
      <trkpt lat="44.44951" lon="6.57862">
        <ele>2810</ele>
        <time>2021-04-08T09:34:22Z</time>
      </trkpt>
      <trkpt lat="44.4495" lon="6.57862">
        <ele>2811</ele>
        <time>2021-04-08T09:34:23Z</time>
      </trkpt>
      <trkpt lat="44.4495" lon="6.57862">
        <ele>2811</ele>
        <time>2021-04-08T09:34:24Z</time>
      </trkpt>
      <trkpt lat="44.4495" lon="6.57862">
        <ele>2811</ele>
        <time>2021-04-08T09:34:25Z</time>
      </trkpt>
      <trkpt lat="44.44949" lon="6.57862">
        <ele>2811</ele>
        <time>2021-04-08T09:34:26Z</time>
      </trkpt>
      <trkpt lat="44.44949" lon="6.57861">
        <ele>2811</ele>
        <time>2021-04-08T09:34:27Z</time>
      </trkpt>
      <trkpt lat="44.44949" lon="6.57861">
        <ele>2811</ele>
        <time>2021-04-08T09:34:28Z</time>
      </trkpt>
      <trkpt lat="44.44949" lon="6.57861">
        <ele>2811</ele>
        <time>2021-04-08T09:34:29Z</time>
      </trkpt>
      <trkpt lat="44.44949" lon="6.57861">
        <ele>2812</ele>
        <time>2021-04-08T09:34:30Z</time>
      </trkpt>
      <trkpt lat="44.44949" lon="6.57861">
        <ele>2812</ele>
        <time>2021-04-08T09:34:31Z</time>
      </trkpt>
      <trkpt lat="44.44949" lon="6.57861">
        <ele>2812</ele>
        <time>2021-04-08T09:34:32Z</time>
      </trkpt>
      <trkpt lat="44.44949" lon="6.57861">
        <ele>2812</ele>
        <time>2021-04-08T09:34:33Z</time>
      </trkpt>
      <trkpt lat="44.44949" lon="6.57861">
        <ele>2812</ele>
        <time>2021-04-08T09:34:34Z</time>
      </trkpt>
      <trkpt lat="44.44949" lon="6.57861">
        <ele>2812</ele>
        <time>2021-04-08T09:34:35Z</time>
      </trkpt>
      <trkpt lat="44.44949" lon="6.57861">
        <ele>2812</ele>
        <time>2021-04-08T09:34:36Z</time>
      </trkpt>
      <trkpt lat="44.44949" lon="6.57861">
        <ele>2812</ele>
        <time>2021-04-08T09:34:37Z</time>
      </trkpt>
      <trkpt lat="44.44947" lon="6.57859">
        <ele>2813</ele>
        <time>2021-04-08T09:34:38Z</time>
      </trkpt>
      <trkpt lat="44.44947" lon="6.57858">
        <ele>2813</ele>
        <time>2021-04-08T09:34:39Z</time>
      </trkpt>
      <trkpt lat="44.44946" lon="6.57858">
        <ele>2813</ele>
        <time>2021-04-08T09:34:40Z</time>
      </trkpt>
      <trkpt lat="44.44946" lon="6.57858">
        <ele>2814</ele>
        <time>2021-04-08T09:34:41Z</time>
      </trkpt>
      <trkpt lat="44.44946" lon="6.57857">
        <ele>2814</ele>
        <time>2021-04-08T09:34:42Z</time>
      </trkpt>
      <trkpt lat="44.44945" lon="6.57857">
        <ele>2814</ele>
        <time>2021-04-08T09:34:43Z</time>
      </trkpt>
      <trkpt lat="44.44945" lon="6.57857">
        <ele>2814</ele>
        <time>2021-04-08T09:34:44Z</time>
      </trkpt>
      <trkpt lat="44.44945" lon="6.57856">
        <ele>2814</ele>
        <time>2021-04-08T09:34:45Z</time>
      </trkpt>
      <trkpt lat="44.44945" lon="6.57856">
        <ele>2814</ele>
        <time>2021-04-08T09:34:46Z</time>
      </trkpt>
      <trkpt lat="44.44945" lon="6.57855">
        <ele>2815</ele>
        <time>2021-04-08T09:34:47Z</time>
      </trkpt>
      <trkpt lat="44.44944" lon="6.57855">
        <ele>2815</ele>
        <time>2021-04-08T09:34:48Z</time>
      </trkpt>
      <trkpt lat="44.44944" lon="6.57854">
        <ele>2815</ele>
        <time>2021-04-08T09:34:49Z</time>
      </trkpt>
      <trkpt lat="44.44944" lon="6.57854">
        <ele>2815</ele>
        <time>2021-04-08T09:34:50Z</time>
      </trkpt>
      <trkpt lat="44.44943" lon="6.57854">
        <ele>2815</ele>
        <time>2021-04-08T09:34:51Z</time>
      </trkpt>
      <trkpt lat="44.44942" lon="6.57854">
        <ele>2815</ele>
        <time>2021-04-08T09:34:52Z</time>
      </trkpt>
      <trkpt lat="44.44942" lon="6.57854">
        <ele>2816</ele>
        <time>2021-04-08T09:34:53Z</time>
      </trkpt>
      <trkpt lat="44.44941" lon="6.57855">
        <ele>2816</ele>
        <time>2021-04-08T09:34:54Z</time>
      </trkpt>
      <trkpt lat="44.4494" lon="6.57855">
        <ele>2816</ele>
        <time>2021-04-08T09:34:55Z</time>
      </trkpt>
      <trkpt lat="44.4494" lon="6.57855">
        <ele>2816</ele>
        <time>2021-04-08T09:34:56Z</time>
      </trkpt>
      <trkpt lat="44.4494" lon="6.57855">
        <ele>2816</ele>
        <time>2021-04-08T09:34:57Z</time>
      </trkpt>
      <trkpt lat="44.4494" lon="6.57855">
        <ele>2816</ele>
        <time>2021-04-08T09:34:58Z</time>
      </trkpt>
      <trkpt lat="44.44939" lon="6.57854">
        <ele>2817</ele>
        <time>2021-04-08T09:34:59Z</time>
      </trkpt>
      <trkpt lat="44.44939" lon="6.57854">
        <ele>2817</ele>
        <time>2021-04-08T09:35:00Z</time>
      </trkpt>
      <trkpt lat="44.44939" lon="6.57853">
        <ele>2817</ele>
        <time>2021-04-08T09:35:01Z</time>
      </trkpt>
      <trkpt lat="44.4494" lon="6.57853">
        <ele>2817</ele>
        <time>2021-04-08T09:35:02Z</time>
      </trkpt>
      <trkpt lat="44.44939" lon="6.57853">
        <ele>2817</ele>
        <time>2021-04-08T09:35:03Z</time>
      </trkpt>
      <trkpt lat="44.44939" lon="6.57853">
        <ele>2817</ele>
        <time>2021-04-08T09:35:04Z</time>
      </trkpt>
      <trkpt lat="44.44939" lon="6.57853">
        <ele>2817</ele>
        <time>2021-04-08T09:35:05Z</time>
      </trkpt>
      <trkpt lat="44.44939" lon="6.57853">
        <ele>2817</ele>
        <time>2021-04-08T09:35:06Z</time>
      </trkpt>
      <trkpt lat="44.44939" lon="6.57852">
        <ele>2818</ele>
        <time>2021-04-08T09:35:07Z</time>
      </trkpt>
      <trkpt lat="44.44939" lon="6.57851">
        <ele>2818</ele>
        <time>2021-04-08T09:35:08Z</time>
      </trkpt>
      <trkpt lat="44.44939" lon="6.5785">
        <ele>2818</ele>
        <time>2021-04-08T09:35:09Z</time>
      </trkpt>
      <trkpt lat="44.44939" lon="6.57849">
        <ele>2818</ele>
        <time>2021-04-08T09:35:10Z</time>
      </trkpt>
      <trkpt lat="44.44939" lon="6.57849">
        <ele>2818</ele>
        <time>2021-04-08T09:35:11Z</time>
      </trkpt>
      <trkpt lat="44.44939" lon="6.57849">
        <ele>2818</ele>
        <time>2021-04-08T09:35:12Z</time>
      </trkpt>
      <trkpt lat="44.44939" lon="6.57849">
        <ele>2818</ele>
        <time>2021-04-08T09:35:13Z</time>
      </trkpt>
      <trkpt lat="44.44939" lon="6.57849">
        <ele>2818</ele>
        <time>2021-04-08T09:35:14Z</time>
      </trkpt>
      <trkpt lat="44.44939" lon="6.57849">
        <ele>2818</ele>
        <time>2021-04-08T09:35:15Z</time>
      </trkpt>
      <trkpt lat="44.44939" lon="6.57849">
        <ele>2818</ele>
        <time>2021-04-08T09:35:16Z</time>
      </trkpt>
      <trkpt lat="44.44939" lon="6.57849">
        <ele>2818</ele>
        <time>2021-04-08T09:35:17Z</time>
      </trkpt>
      <trkpt lat="44.44939" lon="6.57849">
        <ele>2818</ele>
        <time>2021-04-08T09:35:18Z</time>
      </trkpt>
      <trkpt lat="44.44939" lon="6.57849">
        <ele>2818</ele>
        <time>2021-04-08T09:35:19Z</time>
      </trkpt>
      <trkpt lat="44.44939" lon="6.57852">
        <ele>2818</ele>
        <time>2021-04-08T09:35:20Z</time>
      </trkpt>
      <trkpt lat="44.44938" lon="6.57853">
        <ele>2818</ele>
        <time>2021-04-08T09:35:21Z</time>
      </trkpt>
      <trkpt lat="44.44938" lon="6.57854">
        <ele>2818</ele>
        <time>2021-04-08T09:35:22Z</time>
      </trkpt>
      <trkpt lat="44.44938" lon="6.57855">
        <ele>2818</ele>
        <time>2021-04-08T09:35:23Z</time>
      </trkpt>
      <trkpt lat="44.44938" lon="6.57855">
        <ele>2818</ele>
        <time>2021-04-08T09:35:24Z</time>
      </trkpt>
      <trkpt lat="44.44937" lon="6.57856">
        <ele>2818</ele>
        <time>2021-04-08T09:35:25Z</time>
      </trkpt>
      <trkpt lat="44.44937" lon="6.57857">
        <ele>2819</ele>
        <time>2021-04-08T09:35:26Z</time>
      </trkpt>
      <trkpt lat="44.44936" lon="6.57858">
        <ele>2819</ele>
        <time>2021-04-08T09:35:27Z</time>
      </trkpt>
      <trkpt lat="44.44935" lon="6.57859">
        <ele>2819</ele>
        <time>2021-04-08T09:35:28Z</time>
      </trkpt>
      <trkpt lat="44.44935" lon="6.57859">
        <ele>2819</ele>
        <time>2021-04-08T09:35:29Z</time>
      </trkpt>
      <trkpt lat="44.44934" lon="6.57859">
        <ele>2819</ele>
        <time>2021-04-08T09:35:30Z</time>
      </trkpt>
      <trkpt lat="44.44934" lon="6.57859">
        <ele>2819</ele>
        <time>2021-04-08T09:35:31Z</time>
      </trkpt>
      <trkpt lat="44.44934" lon="6.57859">
        <ele>2819</ele>
        <time>2021-04-08T09:35:32Z</time>
      </trkpt>
      <trkpt lat="44.44933" lon="6.57859">
        <ele>2819</ele>
        <time>2021-04-08T09:35:33Z</time>
      </trkpt>
      <trkpt lat="44.44933" lon="6.57859">
        <ele>2820</ele>
        <time>2021-04-08T09:35:34Z</time>
      </trkpt>
      <trkpt lat="44.44933" lon="6.57859">
        <ele>2820</ele>
        <time>2021-04-08T09:35:35Z</time>
      </trkpt>
      <trkpt lat="44.44933" lon="6.57858">
        <ele>2820</ele>
        <time>2021-04-08T09:35:36Z</time>
      </trkpt>
      <trkpt lat="44.44932" lon="6.57858">
        <ele>2820</ele>
        <time>2021-04-08T09:35:37Z</time>
      </trkpt>
      <trkpt lat="44.44932" lon="6.57857">
        <ele>2820</ele>
        <time>2021-04-08T09:35:38Z</time>
      </trkpt>
      <trkpt lat="44.44932" lon="6.57857">
        <ele>2820</ele>
        <time>2021-04-08T09:35:39Z</time>
      </trkpt>
      <trkpt lat="44.44931" lon="6.57856">
        <ele>2821</ele>
        <time>2021-04-08T09:35:40Z</time>
      </trkpt>
      <trkpt lat="44.44931" lon="6.57855">
        <ele>2821</ele>
        <time>2021-04-08T09:35:41Z</time>
      </trkpt>
      <trkpt lat="44.44931" lon="6.57855">
        <ele>2821</ele>
        <time>2021-04-08T09:35:42Z</time>
      </trkpt>
      <trkpt lat="44.44931" lon="6.57854">
        <ele>2821</ele>
        <time>2021-04-08T09:35:43Z</time>
      </trkpt>
      <trkpt lat="44.44931" lon="6.57854">
        <ele>2821</ele>
        <time>2021-04-08T09:35:44Z</time>
      </trkpt>
      <trkpt lat="44.44931" lon="6.57853">
        <ele>2822</ele>
        <time>2021-04-08T09:35:45Z</time>
      </trkpt>
      <trkpt lat="44.4493" lon="6.57853">
        <ele>2822</ele>
        <time>2021-04-08T09:35:46Z</time>
      </trkpt>
      <trkpt lat="44.4493" lon="6.57853">
        <ele>2822</ele>
        <time>2021-04-08T09:35:47Z</time>
      </trkpt>
      <trkpt lat="44.4493" lon="6.57853">
        <ele>2822</ele>
        <time>2021-04-08T09:35:48Z</time>
      </trkpt>
      <trkpt lat="44.4493" lon="6.57852">
        <ele>2822</ele>
        <time>2021-04-08T09:35:49Z</time>
      </trkpt>
      <trkpt lat="44.44929" lon="6.57852">
        <ele>2822</ele>
        <time>2021-04-08T09:35:50Z</time>
      </trkpt>
      <trkpt lat="44.44929" lon="6.57852">
        <ele>2822</ele>
        <time>2021-04-08T09:35:51Z</time>
      </trkpt>
      <trkpt lat="44.44928" lon="6.57852">
        <ele>2823</ele>
        <time>2021-04-08T09:35:52Z</time>
      </trkpt>
      <trkpt lat="44.44928" lon="6.57852">
        <ele>2823</ele>
        <time>2021-04-08T09:35:53Z</time>
      </trkpt>
      <trkpt lat="44.44928" lon="6.57852">
        <ele>2823</ele>
        <time>2021-04-08T09:35:54Z</time>
      </trkpt>
      <trkpt lat="44.44928" lon="6.57852">
        <ele>2823</ele>
        <time>2021-04-08T09:35:55Z</time>
      </trkpt>
      <trkpt lat="44.44928" lon="6.57852">
        <ele>2823</ele>
        <time>2021-04-08T09:35:56Z</time>
      </trkpt>
      <trkpt lat="44.44928" lon="6.57852">
        <ele>2823</ele>
        <time>2021-04-08T09:35:57Z</time>
      </trkpt>
      <trkpt lat="44.44928" lon="6.57852">
        <ele>2823</ele>
        <time>2021-04-08T09:35:58Z</time>
      </trkpt>
      <trkpt lat="44.44928" lon="6.57852">
        <ele>2823</ele>
        <time>2021-04-08T09:35:59Z</time>
      </trkpt>
      <trkpt lat="44.44928" lon="6.57852">
        <ele>2823</ele>
        <time>2021-04-08T09:36:00Z</time>
      </trkpt>
      <trkpt lat="44.44928" lon="6.57852">
        <ele>2823</ele>
        <time>2021-04-08T09:36:01Z</time>
      </trkpt>
      <trkpt lat="44.44928" lon="6.57852">
        <ele>2823</ele>
        <time>2021-04-08T09:36:02Z</time>
      </trkpt>
      <trkpt lat="44.44925" lon="6.57851">
        <ele>2825</ele>
        <time>2021-04-08T09:36:03Z</time>
      </trkpt>
      <trkpt lat="44.44925" lon="6.57851">
        <ele>2825</ele>
        <time>2021-04-08T09:36:04Z</time>
      </trkpt>
      <trkpt lat="44.44924" lon="6.5785">
        <ele>2825</ele>
        <time>2021-04-08T09:36:05Z</time>
      </trkpt>
      <trkpt lat="44.44924" lon="6.57849">
        <ele>2825</ele>
        <time>2021-04-08T09:36:06Z</time>
      </trkpt>
      <trkpt lat="44.44924" lon="6.57849">
        <ele>2825</ele>
        <time>2021-04-08T09:36:07Z</time>
      </trkpt>
      <trkpt lat="44.44924" lon="6.57849">
        <ele>2825</ele>
        <time>2021-04-08T09:36:08Z</time>
      </trkpt>
      <trkpt lat="44.44924" lon="6.57849">
        <ele>2825</ele>
        <time>2021-04-08T09:36:09Z</time>
      </trkpt>
      <trkpt lat="44.44924" lon="6.57849">
        <ele>2826</ele>
        <time>2021-04-08T09:36:10Z</time>
      </trkpt>
      <trkpt lat="44.44924" lon="6.57849">
        <ele>2826</ele>
        <time>2021-04-08T09:36:11Z</time>
      </trkpt>
      <trkpt lat="44.44924" lon="6.57849">
        <ele>2826</ele>
        <time>2021-04-08T09:36:12Z</time>
      </trkpt>
      <trkpt lat="44.44924" lon="6.57849">
        <ele>2826</ele>
        <time>2021-04-08T09:36:13Z</time>
      </trkpt>
      <trkpt lat="44.44924" lon="6.57849">
        <ele>2826</ele>
        <time>2021-04-08T09:36:14Z</time>
      </trkpt>
      <trkpt lat="44.44924" lon="6.57849">
        <ele>2826</ele>
        <time>2021-04-08T09:36:15Z</time>
      </trkpt>
      <trkpt lat="44.44924" lon="6.57849">
        <ele>2826</ele>
        <time>2021-04-08T09:36:16Z</time>
      </trkpt>
      <trkpt lat="44.44924" lon="6.57849">
        <ele>2826</ele>
        <time>2021-04-08T09:36:17Z</time>
      </trkpt>
      <trkpt lat="44.44924" lon="6.57849">
        <ele>2826</ele>
        <time>2021-04-08T09:36:18Z</time>
      </trkpt>
      <trkpt lat="44.44924" lon="6.57849">
        <ele>2826</ele>
        <time>2021-04-08T09:36:19Z</time>
      </trkpt>
      <trkpt lat="44.44924" lon="6.57849">
        <ele>2826</ele>
        <time>2021-04-08T09:36:20Z</time>
      </trkpt>
      <trkpt lat="44.44924" lon="6.57849">
        <ele>2826</ele>
        <time>2021-04-08T09:36:21Z</time>
      </trkpt>
      <trkpt lat="44.44924" lon="6.57849">
        <ele>2826</ele>
        <time>2021-04-08T09:36:22Z</time>
      </trkpt>
      <trkpt lat="44.44924" lon="6.57849">
        <ele>2826</ele>
        <time>2021-04-08T09:36:23Z</time>
      </trkpt>
      <trkpt lat="44.44924" lon="6.57849">
        <ele>2826</ele>
        <time>2021-04-08T09:36:24Z</time>
      </trkpt>
      <trkpt lat="44.44924" lon="6.57849">
        <ele>2826</ele>
        <time>2021-04-08T09:36:25Z</time>
      </trkpt>
      <trkpt lat="44.44924" lon="6.57849">
        <ele>2826</ele>
        <time>2021-04-08T09:36:26Z</time>
      </trkpt>
      <trkpt lat="44.44924" lon="6.57849">
        <ele>2826</ele>
        <time>2021-04-08T09:36:27Z</time>
      </trkpt>
      <trkpt lat="44.44924" lon="6.57849">
        <ele>2826</ele>
        <time>2021-04-08T09:36:28Z</time>
      </trkpt>
      <trkpt lat="44.44924" lon="6.57849">
        <ele>2826</ele>
        <time>2021-04-08T09:36:29Z</time>
      </trkpt>
      <trkpt lat="44.44924" lon="6.57849">
        <ele>2826</ele>
        <time>2021-04-08T09:36:30Z</time>
      </trkpt>
      <trkpt lat="44.44924" lon="6.57849">
        <ele>2826</ele>
        <time>2021-04-08T09:36:31Z</time>
      </trkpt>
      <trkpt lat="44.44924" lon="6.57849">
        <ele>2826</ele>
        <time>2021-04-08T09:36:32Z</time>
      </trkpt>
      <trkpt lat="44.44919" lon="6.57853">
        <ele>2827</ele>
        <time>2021-04-08T09:36:33Z</time>
      </trkpt>
      <trkpt lat="44.44919" lon="6.57853">
        <ele>2827</ele>
        <time>2021-04-08T09:36:34Z</time>
      </trkpt>
      <trkpt lat="44.44919" lon="6.57853">
        <ele>2828</ele>
        <time>2021-04-08T09:36:35Z</time>
      </trkpt>
      <trkpt lat="44.44919" lon="6.57852">
        <ele>2828</ele>
        <time>2021-04-08T09:36:36Z</time>
      </trkpt>
      <trkpt lat="44.44919" lon="6.57852">
        <ele>2828</ele>
        <time>2021-04-08T09:36:37Z</time>
      </trkpt>
      <trkpt lat="44.44919" lon="6.57852">
        <ele>2828</ele>
        <time>2021-04-08T09:36:38Z</time>
      </trkpt>
      <trkpt lat="44.44919" lon="6.57852">
        <ele>2828</ele>
        <time>2021-04-08T09:36:39Z</time>
      </trkpt>
      <trkpt lat="44.44919" lon="6.57852">
        <ele>2828</ele>
        <time>2021-04-08T09:36:40Z</time>
      </trkpt>
      <trkpt lat="44.44916" lon="6.57852">
        <ele>2828</ele>
        <time>2021-04-08T09:36:41Z</time>
      </trkpt>
      <trkpt lat="44.44916" lon="6.57851">
        <ele>2829</ele>
        <time>2021-04-08T09:36:42Z</time>
      </trkpt>
      <trkpt lat="44.44916" lon="6.5785">
        <ele>2829</ele>
        <time>2021-04-08T09:36:43Z</time>
      </trkpt>
      <trkpt lat="44.44916" lon="6.5785">
        <ele>2829</ele>
        <time>2021-04-08T09:36:44Z</time>
      </trkpt>
      <trkpt lat="44.44915" lon="6.5785">
        <ele>2829</ele>
        <time>2021-04-08T09:36:45Z</time>
      </trkpt>
      <trkpt lat="44.44915" lon="6.5785">
        <ele>2829</ele>
        <time>2021-04-08T09:36:46Z</time>
      </trkpt>
      <trkpt lat="44.44915" lon="6.5785">
        <ele>2829</ele>
        <time>2021-04-08T09:36:47Z</time>
      </trkpt>
      <trkpt lat="44.44915" lon="6.57851">
        <ele>2829</ele>
        <time>2021-04-08T09:36:48Z</time>
      </trkpt>
      <trkpt lat="44.44914" lon="6.57851">
        <ele>2829</ele>
        <time>2021-04-08T09:36:49Z</time>
      </trkpt>
      <trkpt lat="44.44914" lon="6.57852">
        <ele>2829</ele>
        <time>2021-04-08T09:36:50Z</time>
      </trkpt>
      <trkpt lat="44.44913" lon="6.57852">
        <ele>2830</ele>
        <time>2021-04-08T09:36:51Z</time>
      </trkpt>
      <trkpt lat="44.44913" lon="6.57854">
        <ele>2830</ele>
        <time>2021-04-08T09:36:52Z</time>
      </trkpt>
      <trkpt lat="44.44913" lon="6.57854">
        <ele>2831</ele>
        <time>2021-04-08T09:36:53Z</time>
      </trkpt>
      <trkpt lat="44.44912" lon="6.57855">
        <ele>2831</ele>
        <time>2021-04-08T09:36:54Z</time>
      </trkpt>
      <trkpt lat="44.44912" lon="6.57856">
        <ele>2831</ele>
        <time>2021-04-08T09:36:55Z</time>
      </trkpt>
      <trkpt lat="44.44912" lon="6.57856">
        <ele>2831</ele>
        <time>2021-04-08T09:36:56Z</time>
      </trkpt>
      <trkpt lat="44.44912" lon="6.57856">
        <ele>2832</ele>
        <time>2021-04-08T09:36:57Z</time>
      </trkpt>
      <trkpt lat="44.44912" lon="6.57856">
        <ele>2832</ele>
        <time>2021-04-08T09:36:58Z</time>
      </trkpt>
      <trkpt lat="44.44911" lon="6.57856">
        <ele>2832</ele>
        <time>2021-04-08T09:36:59Z</time>
      </trkpt>
      <trkpt lat="44.44911" lon="6.57856">
        <ele>2832</ele>
        <time>2021-04-08T09:37:00Z</time>
      </trkpt>
      <trkpt lat="44.44911" lon="6.57856">
        <ele>2832</ele>
        <time>2021-04-08T09:37:01Z</time>
      </trkpt>
      <trkpt lat="44.44911" lon="6.57856">
        <ele>2832</ele>
        <time>2021-04-08T09:37:02Z</time>
      </trkpt>
      <trkpt lat="44.44911" lon="6.57856">
        <ele>2832</ele>
        <time>2021-04-08T09:37:03Z</time>
      </trkpt>
      <trkpt lat="44.4491" lon="6.57858">
        <ele>2833</ele>
        <time>2021-04-08T09:37:04Z</time>
      </trkpt>
      <trkpt lat="44.4491" lon="6.57858">
        <ele>2834</ele>
        <time>2021-04-08T09:37:05Z</time>
      </trkpt>
      <trkpt lat="44.4491" lon="6.57859">
        <ele>2834</ele>
        <time>2021-04-08T09:37:06Z</time>
      </trkpt>
      <trkpt lat="44.4491" lon="6.5786">
        <ele>2834</ele>
        <time>2021-04-08T09:37:07Z</time>
      </trkpt>
      <trkpt lat="44.44909" lon="6.57861">
        <ele>2835</ele>
        <time>2021-04-08T09:37:08Z</time>
      </trkpt>
      <trkpt lat="44.44909" lon="6.57861">
        <ele>2835</ele>
        <time>2021-04-08T09:37:09Z</time>
      </trkpt>
      <trkpt lat="44.44909" lon="6.57862">
        <ele>2835</ele>
        <time>2021-04-08T09:37:10Z</time>
      </trkpt>
      <trkpt lat="44.44909" lon="6.57863">
        <ele>2836</ele>
        <time>2021-04-08T09:37:11Z</time>
      </trkpt>
      <trkpt lat="44.44909" lon="6.57863">
        <ele>2837</ele>
        <time>2021-04-08T09:37:12Z</time>
      </trkpt>
      <trkpt lat="44.44909" lon="6.57863">
        <ele>2837</ele>
        <time>2021-04-08T09:37:13Z</time>
      </trkpt>
      <trkpt lat="44.44908" lon="6.57863">
        <ele>2837</ele>
        <time>2021-04-08T09:37:14Z</time>
      </trkpt>
      <trkpt lat="44.44908" lon="6.57864">
        <ele>2837</ele>
        <time>2021-04-08T09:37:15Z</time>
      </trkpt>
      <trkpt lat="44.44907" lon="6.57865">
        <ele>2837</ele>
        <time>2021-04-08T09:37:16Z</time>
      </trkpt>
      <trkpt lat="44.44907" lon="6.57865">
        <ele>2837</ele>
        <time>2021-04-08T09:37:17Z</time>
      </trkpt>
      <trkpt lat="44.44907" lon="6.57865">
        <ele>2837</ele>
        <time>2021-04-08T09:37:18Z</time>
      </trkpt>
      <trkpt lat="44.44907" lon="6.57865">
        <ele>2838</ele>
        <time>2021-04-08T09:37:19Z</time>
      </trkpt>
      <trkpt lat="44.44907" lon="6.57865">
        <ele>2838</ele>
        <time>2021-04-08T09:37:20Z</time>
      </trkpt>
      <trkpt lat="44.44907" lon="6.57865">
        <ele>2838</ele>
        <time>2021-04-08T09:37:21Z</time>
      </trkpt>
      <trkpt lat="44.44907" lon="6.57865">
        <ele>2838</ele>
        <time>2021-04-08T09:37:22Z</time>
      </trkpt>
      <trkpt lat="44.44907" lon="6.57865">
        <ele>2838</ele>
        <time>2021-04-08T09:37:23Z</time>
      </trkpt>
      <trkpt lat="44.44907" lon="6.57865">
        <ele>2838</ele>
        <time>2021-04-08T09:37:24Z</time>
      </trkpt>
      <trkpt lat="44.44906" lon="6.57866">
        <ele>2838</ele>
        <time>2021-04-08T09:37:25Z</time>
      </trkpt>
      <trkpt lat="44.44905" lon="6.57865">
        <ele>2838</ele>
        <time>2021-04-08T09:37:26Z</time>
      </trkpt>
      <trkpt lat="44.44905" lon="6.57865">
        <ele>2838</ele>
        <time>2021-04-08T09:37:27Z</time>
      </trkpt>
      <trkpt lat="44.44905" lon="6.57865">
        <ele>2838</ele>
        <time>2021-04-08T09:37:28Z</time>
      </trkpt>
      <trkpt lat="44.44905" lon="6.57865">
        <ele>2838</ele>
        <time>2021-04-08T09:37:29Z</time>
      </trkpt>
      <trkpt lat="44.44905" lon="6.57865">
        <ele>2838</ele>
        <time>2021-04-08T09:37:30Z</time>
      </trkpt>
      <trkpt lat="44.44904" lon="6.57864">
        <ele>2838</ele>
        <time>2021-04-08T09:37:31Z</time>
      </trkpt>
      <trkpt lat="44.44904" lon="6.57863">
        <ele>2838</ele>
        <time>2021-04-08T09:37:32Z</time>
      </trkpt>
      <trkpt lat="44.44904" lon="6.57862">
        <ele>2838</ele>
        <time>2021-04-08T09:37:33Z</time>
      </trkpt>
      <trkpt lat="44.44904" lon="6.57862">
        <ele>2838</ele>
        <time>2021-04-08T09:37:34Z</time>
      </trkpt>
      <trkpt lat="44.44903" lon="6.57861">
        <ele>2838</ele>
        <time>2021-04-08T09:37:35Z</time>
      </trkpt>
      <trkpt lat="44.44903" lon="6.5786">
        <ele>2838</ele>
        <time>2021-04-08T09:37:36Z</time>
      </trkpt>
      <trkpt lat="44.44903" lon="6.57859">
        <ele>2838</ele>
        <time>2021-04-08T09:37:37Z</time>
      </trkpt>
      <trkpt lat="44.44902" lon="6.57859">
        <ele>2838</ele>
        <time>2021-04-08T09:37:38Z</time>
      </trkpt>
      <trkpt lat="44.44902" lon="6.57858">
        <ele>2838</ele>
        <time>2021-04-08T09:37:39Z</time>
      </trkpt>
      <trkpt lat="44.44902" lon="6.57857">
        <ele>2838</ele>
        <time>2021-04-08T09:37:40Z</time>
      </trkpt>
      <trkpt lat="44.44901" lon="6.57856">
        <ele>2838</ele>
        <time>2021-04-08T09:37:41Z</time>
      </trkpt>
      <trkpt lat="44.44901" lon="6.57856">
        <ele>2838</ele>
        <time>2021-04-08T09:37:42Z</time>
      </trkpt>
      <trkpt lat="44.44901" lon="6.57855">
        <ele>2839</ele>
        <time>2021-04-08T09:37:43Z</time>
      </trkpt>
      <trkpt lat="44.44901" lon="6.57854">
        <ele>2839</ele>
        <time>2021-04-08T09:37:44Z</time>
      </trkpt>
      <trkpt lat="44.44901" lon="6.57854">
        <ele>2839</ele>
        <time>2021-04-08T09:37:45Z</time>
      </trkpt>
      <trkpt lat="44.44901" lon="6.57854">
        <ele>2839</ele>
        <time>2021-04-08T09:37:46Z</time>
      </trkpt>
      <trkpt lat="44.44901" lon="6.57853">
        <ele>2839</ele>
        <time>2021-04-08T09:37:47Z</time>
      </trkpt>
      <trkpt lat="44.44901" lon="6.57853">
        <ele>2839</ele>
        <time>2021-04-08T09:37:48Z</time>
      </trkpt>
      <trkpt lat="44.449" lon="6.57852">
        <ele>2839</ele>
        <time>2021-04-08T09:37:49Z</time>
      </trkpt>
      <trkpt lat="44.449" lon="6.57852">
        <ele>2839</ele>
        <time>2021-04-08T09:37:50Z</time>
      </trkpt>
      <trkpt lat="44.449" lon="6.57853">
        <ele>2839</ele>
        <time>2021-04-08T09:37:51Z</time>
      </trkpt>
      <trkpt lat="44.449" lon="6.57853">
        <ele>2839</ele>
        <time>2021-04-08T09:37:52Z</time>
      </trkpt>
      <trkpt lat="44.44899" lon="6.57853">
        <ele>2839</ele>
        <time>2021-04-08T09:37:53Z</time>
      </trkpt>
      <trkpt lat="44.44899" lon="6.57853">
        <ele>2839</ele>
        <time>2021-04-08T09:37:54Z</time>
      </trkpt>
      <trkpt lat="44.44899" lon="6.57853">
        <ele>2839</ele>
        <time>2021-04-08T09:37:55Z</time>
      </trkpt>
      <trkpt lat="44.44899" lon="6.57853">
        <ele>2839</ele>
        <time>2021-04-08T09:37:56Z</time>
      </trkpt>
      <trkpt lat="44.44899" lon="6.57854">
        <ele>2839</ele>
        <time>2021-04-08T09:37:57Z</time>
      </trkpt>
      <trkpt lat="44.44899" lon="6.57853">
        <ele>2840</ele>
        <time>2021-04-08T09:37:58Z</time>
      </trkpt>
      <trkpt lat="44.44899" lon="6.57853">
        <ele>2840</ele>
        <time>2021-04-08T09:37:59Z</time>
      </trkpt>
      <trkpt lat="44.44899" lon="6.57853">
        <ele>2840</ele>
        <time>2021-04-08T09:38:00Z</time>
      </trkpt>
      <trkpt lat="44.44899" lon="6.57853">
        <ele>2840</ele>
        <time>2021-04-08T09:38:01Z</time>
      </trkpt>
      <trkpt lat="44.44899" lon="6.57853">
        <ele>2840</ele>
        <time>2021-04-08T09:38:02Z</time>
      </trkpt>
      <trkpt lat="44.44899" lon="6.57853">
        <ele>2840</ele>
        <time>2021-04-08T09:38:03Z</time>
      </trkpt>
      <trkpt lat="44.44899" lon="6.57853">
        <ele>2840</ele>
        <time>2021-04-08T09:38:04Z</time>
      </trkpt>
      <trkpt lat="44.44899" lon="6.57853">
        <ele>2840</ele>
        <time>2021-04-08T09:38:05Z</time>
      </trkpt>
      <trkpt lat="44.44899" lon="6.57853">
        <ele>2840</ele>
        <time>2021-04-08T09:38:06Z</time>
      </trkpt>
      <trkpt lat="44.44899" lon="6.57853">
        <ele>2840</ele>
        <time>2021-04-08T09:38:07Z</time>
      </trkpt>
      <trkpt lat="44.44899" lon="6.57853">
        <ele>2840</ele>
        <time>2021-04-08T09:38:08Z</time>
      </trkpt>
      <trkpt lat="44.44897" lon="6.57854">
        <ele>2842</ele>
        <time>2021-04-08T09:38:09Z</time>
      </trkpt>
      <trkpt lat="44.44896" lon="6.57854">
        <ele>2843</ele>
        <time>2021-04-08T09:38:10Z</time>
      </trkpt>
      <trkpt lat="44.44896" lon="6.57854">
        <ele>2843</ele>
        <time>2021-04-08T09:38:11Z</time>
      </trkpt>
      <trkpt lat="44.44895" lon="6.57854">
        <ele>2843</ele>
        <time>2021-04-08T09:38:12Z</time>
      </trkpt>
      <trkpt lat="44.44895" lon="6.57854">
        <ele>2843</ele>
        <time>2021-04-08T09:38:13Z</time>
      </trkpt>
      <trkpt lat="44.44895" lon="6.57853">
        <ele>2843</ele>
        <time>2021-04-08T09:38:14Z</time>
      </trkpt>
      <trkpt lat="44.44895" lon="6.57853">
        <ele>2843</ele>
        <time>2021-04-08T09:38:15Z</time>
      </trkpt>
      <trkpt lat="44.44895" lon="6.57852">
        <ele>2844</ele>
        <time>2021-04-08T09:38:16Z</time>
      </trkpt>
      <trkpt lat="44.44895" lon="6.57852">
        <ele>2844</ele>
        <time>2021-04-08T09:38:17Z</time>
      </trkpt>
      <trkpt lat="44.44895" lon="6.57852">
        <ele>2844</ele>
        <time>2021-04-08T09:38:18Z</time>
      </trkpt>
      <trkpt lat="44.44895" lon="6.57852">
        <ele>2844</ele>
        <time>2021-04-08T09:38:19Z</time>
      </trkpt>
      <trkpt lat="44.44895" lon="6.57852">
        <ele>2844</ele>
        <time>2021-04-08T09:38:20Z</time>
      </trkpt>
      <trkpt lat="44.44894" lon="6.57851">
        <ele>2844</ele>
        <time>2021-04-08T09:38:21Z</time>
      </trkpt>
      <trkpt lat="44.44894" lon="6.57851">
        <ele>2845</ele>
        <time>2021-04-08T09:38:22Z</time>
      </trkpt>
      <trkpt lat="44.44894" lon="6.57851">
        <ele>2845</ele>
        <time>2021-04-08T09:38:23Z</time>
      </trkpt>
      <trkpt lat="44.44894" lon="6.57851">
        <ele>2845</ele>
        <time>2021-04-08T09:38:24Z</time>
      </trkpt>
      <trkpt lat="44.44894" lon="6.5785">
        <ele>2845</ele>
        <time>2021-04-08T09:38:25Z</time>
      </trkpt>
      <trkpt lat="44.44894" lon="6.5785">
        <ele>2845</ele>
        <time>2021-04-08T09:38:26Z</time>
      </trkpt>
      <trkpt lat="44.44894" lon="6.5785">
        <ele>2845</ele>
        <time>2021-04-08T09:38:27Z</time>
      </trkpt>
      <trkpt lat="44.44894" lon="6.5785">
        <ele>2845</ele>
        <time>2021-04-08T09:38:28Z</time>
      </trkpt>
      <trkpt lat="44.44894" lon="6.5785">
        <ele>2845</ele>
        <time>2021-04-08T09:38:29Z</time>
      </trkpt>
      <trkpt lat="44.44894" lon="6.5785">
        <ele>2845</ele>
        <time>2021-04-08T09:38:30Z</time>
      </trkpt>
      <trkpt lat="44.44894" lon="6.5785">
        <ele>2846</ele>
        <time>2021-04-08T09:38:31Z</time>
      </trkpt>
      <trkpt lat="44.44894" lon="6.5785">
        <ele>2846</ele>
        <time>2021-04-08T09:38:32Z</time>
      </trkpt>
      <trkpt lat="44.44894" lon="6.5785">
        <ele>2846</ele>
        <time>2021-04-08T09:38:33Z</time>
      </trkpt>
      <trkpt lat="44.44894" lon="6.5785">
        <ele>2846</ele>
        <time>2021-04-08T09:38:34Z</time>
      </trkpt>
      <trkpt lat="44.44894" lon="6.5785">
        <ele>2846</ele>
        <time>2021-04-08T09:38:35Z</time>
      </trkpt>
      <trkpt lat="44.44894" lon="6.5785">
        <ele>2846</ele>
        <time>2021-04-08T09:38:36Z</time>
      </trkpt>
      <trkpt lat="44.44894" lon="6.5785">
        <ele>2846</ele>
        <time>2021-04-08T09:38:37Z</time>
      </trkpt>
      <trkpt lat="44.44894" lon="6.5785">
        <ele>2846</ele>
        <time>2021-04-08T09:38:38Z</time>
      </trkpt>
      <trkpt lat="44.44894" lon="6.5785">
        <ele>2846</ele>
        <time>2021-04-08T09:38:39Z</time>
      </trkpt>
      <trkpt lat="44.44894" lon="6.5785">
        <ele>2846</ele>
        <time>2021-04-08T09:38:40Z</time>
      </trkpt>
      <trkpt lat="44.44894" lon="6.5785">
        <ele>2846</ele>
        <time>2021-04-08T09:38:41Z</time>
      </trkpt>
      <trkpt lat="44.44894" lon="6.5785">
        <ele>2846</ele>
        <time>2021-04-08T09:38:42Z</time>
      </trkpt>
      <trkpt lat="44.44894" lon="6.5785">
        <ele>2846</ele>
        <time>2021-04-08T09:38:43Z</time>
      </trkpt>
      <trkpt lat="44.44894" lon="6.5785">
        <ele>2846</ele>
        <time>2021-04-08T09:38:44Z</time>
      </trkpt>
      <trkpt lat="44.44894" lon="6.5785">
        <ele>2846</ele>
        <time>2021-04-08T09:38:45Z</time>
      </trkpt>
      <trkpt lat="44.44894" lon="6.5785">
        <ele>2846</ele>
        <time>2021-04-08T09:38:46Z</time>
      </trkpt>
      <trkpt lat="44.44894" lon="6.5785">
        <ele>2846</ele>
        <time>2021-04-08T09:38:47Z</time>
      </trkpt>
      <trkpt lat="44.44894" lon="6.5785">
        <ele>2846</ele>
        <time>2021-04-08T09:38:48Z</time>
      </trkpt>
      <trkpt lat="44.44891" lon="6.57846">
        <ele>2847</ele>
        <time>2021-04-08T09:38:49Z</time>
      </trkpt>
      <trkpt lat="44.44891" lon="6.57846">
        <ele>2847</ele>
        <time>2021-04-08T09:38:50Z</time>
      </trkpt>
      <trkpt lat="44.44891" lon="6.57845">
        <ele>2847</ele>
        <time>2021-04-08T09:38:51Z</time>
      </trkpt>
      <trkpt lat="44.44891" lon="6.57845">
        <ele>2847</ele>
        <time>2021-04-08T09:38:52Z</time>
      </trkpt>
      <trkpt lat="44.44891" lon="6.57844">
        <ele>2848</ele>
        <time>2021-04-08T09:38:53Z</time>
      </trkpt>
      <trkpt lat="44.44891" lon="6.57844">
        <ele>2848</ele>
        <time>2021-04-08T09:38:54Z</time>
      </trkpt>
      <trkpt lat="44.44891" lon="6.57845">
        <ele>2848</ele>
        <time>2021-04-08T09:38:55Z</time>
      </trkpt>
      <trkpt lat="44.44891" lon="6.57845">
        <ele>2848</ele>
        <time>2021-04-08T09:38:56Z</time>
      </trkpt>
      <trkpt lat="44.44891" lon="6.57845">
        <ele>2848</ele>
        <time>2021-04-08T09:38:57Z</time>
      </trkpt>
      <trkpt lat="44.44891" lon="6.57845">
        <ele>2848</ele>
        <time>2021-04-08T09:38:58Z</time>
      </trkpt>
      <trkpt lat="44.44891" lon="6.57845">
        <ele>2848</ele>
        <time>2021-04-08T09:38:59Z</time>
      </trkpt>
      <trkpt lat="44.44891" lon="6.57845">
        <ele>2848</ele>
        <time>2021-04-08T09:39:00Z</time>
      </trkpt>
      <trkpt lat="44.44891" lon="6.57845">
        <ele>2848</ele>
        <time>2021-04-08T09:39:01Z</time>
      </trkpt>
      <trkpt lat="44.44891" lon="6.57845">
        <ele>2848</ele>
        <time>2021-04-08T09:39:02Z</time>
      </trkpt>
      <trkpt lat="44.44891" lon="6.57845">
        <ele>2848</ele>
        <time>2021-04-08T09:39:03Z</time>
      </trkpt>
      <trkpt lat="44.44891" lon="6.57845">
        <ele>2848</ele>
        <time>2021-04-08T09:39:04Z</time>
      </trkpt>
      <trkpt lat="44.44891" lon="6.57845">
        <ele>2848</ele>
        <time>2021-04-08T09:39:05Z</time>
      </trkpt>
      <trkpt lat="44.4489" lon="6.57845">
        <ele>2848</ele>
        <time>2021-04-08T09:39:06Z</time>
      </trkpt>
      <trkpt lat="44.4489" lon="6.57845">
        <ele>2848</ele>
        <time>2021-04-08T09:39:07Z</time>
      </trkpt>
      <trkpt lat="44.44889" lon="6.57845">
        <ele>2849</ele>
        <time>2021-04-08T09:39:08Z</time>
      </trkpt>
      <trkpt lat="44.44889" lon="6.57845">
        <ele>2849</ele>
        <time>2021-04-08T09:39:09Z</time>
      </trkpt>
      <trkpt lat="44.44889" lon="6.57845">
        <ele>2849</ele>
        <time>2021-04-08T09:39:10Z</time>
      </trkpt>
      <trkpt lat="44.44889" lon="6.57845">
        <ele>2849</ele>
        <time>2021-04-08T09:39:11Z</time>
      </trkpt>
      <trkpt lat="44.44889" lon="6.57845">
        <ele>2849</ele>
        <time>2021-04-08T09:39:12Z</time>
      </trkpt>
      <trkpt lat="44.44889" lon="6.57845">
        <ele>2849</ele>
        <time>2021-04-08T09:39:13Z</time>
      </trkpt>
      <trkpt lat="44.44889" lon="6.57845">
        <ele>2849</ele>
        <time>2021-04-08T09:39:14Z</time>
      </trkpt>
      <trkpt lat="44.44889" lon="6.57845">
        <ele>2849</ele>
        <time>2021-04-08T09:39:15Z</time>
      </trkpt>
      <trkpt lat="44.44889" lon="6.57845">
        <ele>2850</ele>
        <time>2021-04-08T09:39:16Z</time>
      </trkpt>
      <trkpt lat="44.44889" lon="6.57845">
        <ele>2850</ele>
        <time>2021-04-08T09:39:17Z</time>
      </trkpt>
      <trkpt lat="44.44889" lon="6.57845">
        <ele>2850</ele>
        <time>2021-04-08T09:39:18Z</time>
      </trkpt>
      <trkpt lat="44.44889" lon="6.57845">
        <ele>2850</ele>
        <time>2021-04-08T09:39:19Z</time>
      </trkpt>
      <trkpt lat="44.44889" lon="6.57845">
        <ele>2850</ele>
        <time>2021-04-08T09:39:20Z</time>
      </trkpt>
      <trkpt lat="44.44888" lon="6.57843">
        <ele>2850</ele>
        <time>2021-04-08T09:39:21Z</time>
      </trkpt>
      <trkpt lat="44.44888" lon="6.57843">
        <ele>2850</ele>
        <time>2021-04-08T09:39:22Z</time>
      </trkpt>
      <trkpt lat="44.44888" lon="6.57842">
        <ele>2850</ele>
        <time>2021-04-08T09:39:23Z</time>
      </trkpt>
      <trkpt lat="44.44887" lon="6.57842">
        <ele>2850</ele>
        <time>2021-04-08T09:39:24Z</time>
      </trkpt>
      <trkpt lat="44.44887" lon="6.57842">
        <ele>2851</ele>
        <time>2021-04-08T09:39:25Z</time>
      </trkpt>
      <trkpt lat="44.44887" lon="6.57841">
        <ele>2851</ele>
        <time>2021-04-08T09:39:26Z</time>
      </trkpt>
      <trkpt lat="44.44886" lon="6.57841">
        <ele>2851</ele>
        <time>2021-04-08T09:39:27Z</time>
      </trkpt>
      <trkpt lat="44.44886" lon="6.57841">
        <ele>2851</ele>
        <time>2021-04-08T09:39:28Z</time>
      </trkpt>
      <trkpt lat="44.44886" lon="6.5784">
        <ele>2851</ele>
        <time>2021-04-08T09:39:29Z</time>
      </trkpt>
      <trkpt lat="44.44886" lon="6.5784">
        <ele>2851</ele>
        <time>2021-04-08T09:39:30Z</time>
      </trkpt>
      <trkpt lat="44.44886" lon="6.57839">
        <ele>2852</ele>
        <time>2021-04-08T09:39:31Z</time>
      </trkpt>
      <trkpt lat="44.44886" lon="6.57839">
        <ele>2852</ele>
        <time>2021-04-08T09:39:32Z</time>
      </trkpt>
      <trkpt lat="44.44886" lon="6.57839">
        <ele>2852</ele>
        <time>2021-04-08T09:39:33Z</time>
      </trkpt>
      <trkpt lat="44.44886" lon="6.57839">
        <ele>2852</ele>
        <time>2021-04-08T09:39:34Z</time>
      </trkpt>
      <trkpt lat="44.44886" lon="6.57839">
        <ele>2852</ele>
        <time>2021-04-08T09:39:35Z</time>
      </trkpt>
      <trkpt lat="44.44886" lon="6.57839">
        <ele>2852</ele>
        <time>2021-04-08T09:39:36Z</time>
      </trkpt>
      <trkpt lat="44.44886" lon="6.57839">
        <ele>2852</ele>
        <time>2021-04-08T09:39:37Z</time>
      </trkpt>
      <trkpt lat="44.44886" lon="6.57839">
        <ele>2852</ele>
        <time>2021-04-08T09:39:38Z</time>
      </trkpt>
      <trkpt lat="44.44886" lon="6.57839">
        <ele>2852</ele>
        <time>2021-04-08T09:39:39Z</time>
      </trkpt>
      <trkpt lat="44.44886" lon="6.57839">
        <ele>2852</ele>
        <time>2021-04-08T09:39:40Z</time>
      </trkpt>
      <trkpt lat="44.44886" lon="6.57839">
        <ele>2852</ele>
        <time>2021-04-08T09:39:41Z</time>
      </trkpt>
      <trkpt lat="44.44886" lon="6.57839">
        <ele>2852</ele>
        <time>2021-04-08T09:39:42Z</time>
      </trkpt>
      <trkpt lat="44.44886" lon="6.57839">
        <ele>2852</ele>
        <time>2021-04-08T09:39:43Z</time>
      </trkpt>
      <trkpt lat="44.44886" lon="6.57839">
        <ele>2852</ele>
        <time>2021-04-08T09:39:44Z</time>
      </trkpt>
      <trkpt lat="44.44886" lon="6.57839">
        <ele>2852</ele>
        <time>2021-04-08T09:39:45Z</time>
      </trkpt>
      <trkpt lat="44.44886" lon="6.57839">
        <ele>2852</ele>
        <time>2021-04-08T09:39:46Z</time>
      </trkpt>
      <trkpt lat="44.44886" lon="6.57839">
        <ele>2852</ele>
        <time>2021-04-08T09:39:47Z</time>
      </trkpt>
      <trkpt lat="44.44886" lon="6.57839">
        <ele>2852</ele>
        <time>2021-04-08T09:39:48Z</time>
      </trkpt>
      <trkpt lat="44.44884" lon="6.57835">
        <ele>2853</ele>
        <time>2021-04-08T09:39:49Z</time>
      </trkpt>
      <trkpt lat="44.44883" lon="6.57834">
        <ele>2854</ele>
        <time>2021-04-08T09:39:50Z</time>
      </trkpt>
      <trkpt lat="44.44883" lon="6.57834">
        <ele>2854</ele>
        <time>2021-04-08T09:39:51Z</time>
      </trkpt>
      <trkpt lat="44.44883" lon="6.57834">
        <ele>2854</ele>
        <time>2021-04-08T09:39:52Z</time>
      </trkpt>
      <trkpt lat="44.44883" lon="6.57834">
        <ele>2854</ele>
        <time>2021-04-08T09:39:53Z</time>
      </trkpt>
      <trkpt lat="44.44883" lon="6.57834">
        <ele>2855</ele>
        <time>2021-04-08T09:39:54Z</time>
      </trkpt>
      <trkpt lat="44.44883" lon="6.57834">
        <ele>2855</ele>
        <time>2021-04-08T09:39:55Z</time>
      </trkpt>
      <trkpt lat="44.44883" lon="6.57834">
        <ele>2855</ele>
        <time>2021-04-08T09:39:56Z</time>
      </trkpt>
      <trkpt lat="44.44883" lon="6.57834">
        <ele>2855</ele>
        <time>2021-04-08T09:39:57Z</time>
      </trkpt>
      <trkpt lat="44.44883" lon="6.57834">
        <ele>2855</ele>
        <time>2021-04-08T09:39:58Z</time>
      </trkpt>
      <trkpt lat="44.44883" lon="6.57834">
        <ele>2855</ele>
        <time>2021-04-08T09:39:59Z</time>
      </trkpt>
      <trkpt lat="44.44883" lon="6.57834">
        <ele>2855</ele>
        <time>2021-04-08T09:40:00Z</time>
      </trkpt>
      <trkpt lat="44.44883" lon="6.57834">
        <ele>2855</ele>
        <time>2021-04-08T09:40:01Z</time>
      </trkpt>
      <trkpt lat="44.44883" lon="6.57834">
        <ele>2855</ele>
        <time>2021-04-08T09:40:02Z</time>
      </trkpt>
      <trkpt lat="44.44883" lon="6.57834">
        <ele>2855</ele>
        <time>2021-04-08T09:40:03Z</time>
      </trkpt>
      <trkpt lat="44.44883" lon="6.57834">
        <ele>2855</ele>
        <time>2021-04-08T09:40:04Z</time>
      </trkpt>
      <trkpt lat="44.44883" lon="6.57834">
        <ele>2855</ele>
        <time>2021-04-08T09:40:05Z</time>
      </trkpt>
      <trkpt lat="44.44883" lon="6.57834">
        <ele>2855</ele>
        <time>2021-04-08T09:40:06Z</time>
      </trkpt>
      <trkpt lat="44.44883" lon="6.57834">
        <ele>2855</ele>
        <time>2021-04-08T09:40:07Z</time>
      </trkpt>
      <trkpt lat="44.44882" lon="6.57831">
        <ele>2856</ele>
        <time>2021-04-08T09:40:08Z</time>
      </trkpt>
      <trkpt lat="44.44881" lon="6.57831">
        <ele>2856</ele>
        <time>2021-04-08T09:40:09Z</time>
      </trkpt>
      <trkpt lat="44.44881" lon="6.57831">
        <ele>2856</ele>
        <time>2021-04-08T09:40:10Z</time>
      </trkpt>
      <trkpt lat="44.44881" lon="6.57831">
        <ele>2856</ele>
        <time>2021-04-08T09:40:11Z</time>
      </trkpt>
      <trkpt lat="44.44881" lon="6.57831">
        <ele>2856</ele>
        <time>2021-04-08T09:40:12Z</time>
      </trkpt>
      <trkpt lat="44.44881" lon="6.57831">
        <ele>2857</ele>
        <time>2021-04-08T09:40:13Z</time>
      </trkpt>
      <trkpt lat="44.44881" lon="6.57831">
        <ele>2857</ele>
        <time>2021-04-08T09:40:14Z</time>
      </trkpt>
      <trkpt lat="44.44881" lon="6.57831">
        <ele>2857</ele>
        <time>2021-04-08T09:40:15Z</time>
      </trkpt>
      <trkpt lat="44.4488" lon="6.57829">
        <ele>2857</ele>
        <time>2021-04-08T09:40:16Z</time>
      </trkpt>
      <trkpt lat="44.4488" lon="6.57829">
        <ele>2857</ele>
        <time>2021-04-08T09:40:17Z</time>
      </trkpt>
      <trkpt lat="44.4488" lon="6.57829">
        <ele>2857</ele>
        <time>2021-04-08T09:40:18Z</time>
      </trkpt>
      <trkpt lat="44.4488" lon="6.57829">
        <ele>2857</ele>
        <time>2021-04-08T09:40:19Z</time>
      </trkpt>
      <trkpt lat="44.4488" lon="6.57829">
        <ele>2857</ele>
        <time>2021-04-08T09:40:20Z</time>
      </trkpt>
      <trkpt lat="44.4488" lon="6.57829">
        <ele>2857</ele>
        <time>2021-04-08T09:40:21Z</time>
      </trkpt>
      <trkpt lat="44.4488" lon="6.57829">
        <ele>2857</ele>
        <time>2021-04-08T09:40:22Z</time>
      </trkpt>
      <trkpt lat="44.4488" lon="6.57829">
        <ele>2857</ele>
        <time>2021-04-08T09:40:23Z</time>
      </trkpt>
      <trkpt lat="44.4488" lon="6.57829">
        <ele>2857</ele>
        <time>2021-04-08T09:40:24Z</time>
      </trkpt>
      <trkpt lat="44.4488" lon="6.57829">
        <ele>2857</ele>
        <time>2021-04-08T09:40:25Z</time>
      </trkpt>
      <trkpt lat="44.4488" lon="6.57829">
        <ele>2857</ele>
        <time>2021-04-08T09:40:26Z</time>
      </trkpt>
      <trkpt lat="44.4488" lon="6.57829">
        <ele>2857</ele>
        <time>2021-04-08T09:40:27Z</time>
      </trkpt>
      <trkpt lat="44.4488" lon="6.57829">
        <ele>2858</ele>
        <time>2021-04-08T09:40:28Z</time>
      </trkpt>
      <trkpt lat="44.4488" lon="6.57829">
        <ele>2858</ele>
        <time>2021-04-08T09:40:29Z</time>
      </trkpt>
      <trkpt lat="44.4488" lon="6.57829">
        <ele>2858</ele>
        <time>2021-04-08T09:40:30Z</time>
      </trkpt>
      <trkpt lat="44.44879" lon="6.57831">
        <ele>2858</ele>
        <time>2021-04-08T09:40:31Z</time>
      </trkpt>
      <trkpt lat="44.44879" lon="6.57831">
        <ele>2858</ele>
        <time>2021-04-08T09:40:32Z</time>
      </trkpt>
      <trkpt lat="44.44879" lon="6.57831">
        <ele>2858</ele>
        <time>2021-04-08T09:40:33Z</time>
      </trkpt>
      <trkpt lat="44.44879" lon="6.57832">
        <ele>2858</ele>
        <time>2021-04-08T09:40:34Z</time>
      </trkpt>
      <trkpt lat="44.44879" lon="6.57832">
        <ele>2858</ele>
        <time>2021-04-08T09:40:35Z</time>
      </trkpt>
      <trkpt lat="44.44879" lon="6.57832">
        <ele>2858</ele>
        <time>2021-04-08T09:40:36Z</time>
      </trkpt>
      <trkpt lat="44.44879" lon="6.57832">
        <ele>2858</ele>
        <time>2021-04-08T09:40:37Z</time>
      </trkpt>
      <trkpt lat="44.44879" lon="6.57832">
        <ele>2858</ele>
        <time>2021-04-08T09:40:38Z</time>
      </trkpt>
      <trkpt lat="44.44879" lon="6.57832">
        <ele>2858</ele>
        <time>2021-04-08T09:40:39Z</time>
      </trkpt>
      <trkpt lat="44.44879" lon="6.57832">
        <ele>2858</ele>
        <time>2021-04-08T09:40:40Z</time>
      </trkpt>
      <trkpt lat="44.44879" lon="6.57832">
        <ele>2858</ele>
        <time>2021-04-08T09:40:41Z</time>
      </trkpt>
      <trkpt lat="44.44879" lon="6.57832">
        <ele>2858</ele>
        <time>2021-04-08T09:40:42Z</time>
      </trkpt>
      <trkpt lat="44.44878" lon="6.5783">
        <ele>2860</ele>
        <time>2021-04-08T09:40:43Z</time>
      </trkpt>
      <trkpt lat="44.44877" lon="6.5783">
        <ele>2861</ele>
        <time>2021-04-08T09:40:44Z</time>
      </trkpt>
      <trkpt lat="44.44877" lon="6.5783">
        <ele>2861</ele>
        <time>2021-04-08T09:40:45Z</time>
      </trkpt>
      <trkpt lat="44.44877" lon="6.57829">
        <ele>2862</ele>
        <time>2021-04-08T09:40:46Z</time>
      </trkpt>
      <trkpt lat="44.44877" lon="6.57829">
        <ele>2862</ele>
        <time>2021-04-08T09:40:47Z</time>
      </trkpt>
      <trkpt lat="44.44877" lon="6.57829">
        <ele>2862</ele>
        <time>2021-04-08T09:40:48Z</time>
      </trkpt>
      <trkpt lat="44.44877" lon="6.57829">
        <ele>2862</ele>
        <time>2021-04-08T09:40:49Z</time>
      </trkpt>
      <trkpt lat="44.44877" lon="6.57829">
        <ele>2862</ele>
        <time>2021-04-08T09:40:50Z</time>
      </trkpt>
      <trkpt lat="44.44877" lon="6.57829">
        <ele>2862</ele>
        <time>2021-04-08T09:40:51Z</time>
      </trkpt>
      <trkpt lat="44.44877" lon="6.57829">
        <ele>2862</ele>
        <time>2021-04-08T09:40:52Z</time>
      </trkpt>
      <trkpt lat="44.44877" lon="6.57829">
        <ele>2862</ele>
        <time>2021-04-08T09:40:53Z</time>
      </trkpt>
      <trkpt lat="44.44877" lon="6.57829">
        <ele>2862</ele>
        <time>2021-04-08T09:40:54Z</time>
      </trkpt>
      <trkpt lat="44.44877" lon="6.57829">
        <ele>2862</ele>
        <time>2021-04-08T09:40:55Z</time>
      </trkpt>
      <trkpt lat="44.44877" lon="6.57829">
        <ele>2862</ele>
        <time>2021-04-08T09:40:56Z</time>
      </trkpt>
      <trkpt lat="44.44877" lon="6.57829">
        <ele>2862</ele>
        <time>2021-04-08T09:40:57Z</time>
      </trkpt>
      <trkpt lat="44.44877" lon="6.57829">
        <ele>2862</ele>
        <time>2021-04-08T09:40:58Z</time>
      </trkpt>
      <trkpt lat="44.44877" lon="6.57829">
        <ele>2862</ele>
        <time>2021-04-08T09:40:59Z</time>
      </trkpt>
      <trkpt lat="44.44877" lon="6.57829">
        <ele>2862</ele>
        <time>2021-04-08T09:41:00Z</time>
      </trkpt>
      <trkpt lat="44.44877" lon="6.57829">
        <ele>2862</ele>
        <time>2021-04-08T09:41:01Z</time>
      </trkpt>
      <trkpt lat="44.44877" lon="6.57829">
        <ele>2862</ele>
        <time>2021-04-08T09:41:02Z</time>
      </trkpt>
      <trkpt lat="44.44877" lon="6.57829">
        <ele>2862</ele>
        <time>2021-04-08T09:41:03Z</time>
      </trkpt>
      <trkpt lat="44.44877" lon="6.57829">
        <ele>2862</ele>
        <time>2021-04-08T09:41:04Z</time>
      </trkpt>
      <trkpt lat="44.44877" lon="6.57829">
        <ele>2862</ele>
        <time>2021-04-08T09:41:05Z</time>
      </trkpt>
      <trkpt lat="44.44877" lon="6.57829">
        <ele>2862</ele>
        <time>2021-04-08T09:41:06Z</time>
      </trkpt>
      <trkpt lat="44.44877" lon="6.57829">
        <ele>2862</ele>
        <time>2021-04-08T09:41:07Z</time>
      </trkpt>
      <trkpt lat="44.44877" lon="6.57829">
        <ele>2862</ele>
        <time>2021-04-08T09:41:08Z</time>
      </trkpt>
      <trkpt lat="44.44877" lon="6.57829">
        <ele>2862</ele>
        <time>2021-04-08T09:41:09Z</time>
      </trkpt>
      <trkpt lat="44.44877" lon="6.57829">
        <ele>2862</ele>
        <time>2021-04-08T09:41:10Z</time>
      </trkpt>
      <trkpt lat="44.44877" lon="6.57829">
        <ele>2862</ele>
        <time>2021-04-08T09:41:11Z</time>
      </trkpt>
      <trkpt lat="44.44877" lon="6.57829">
        <ele>2862</ele>
        <time>2021-04-08T09:41:12Z</time>
      </trkpt>
      <trkpt lat="44.44877" lon="6.57829">
        <ele>2862</ele>
        <time>2021-04-08T09:41:13Z</time>
      </trkpt>
      <trkpt lat="44.44877" lon="6.57829">
        <ele>2862</ele>
        <time>2021-04-08T09:41:14Z</time>
      </trkpt>
      <trkpt lat="44.44877" lon="6.5782">
        <ele>2865</ele>
        <time>2021-04-08T09:41:15Z</time>
      </trkpt>
      <trkpt lat="44.44876" lon="6.57819">
        <ele>2866</ele>
        <time>2021-04-08T09:41:16Z</time>
      </trkpt>
      <trkpt lat="44.44876" lon="6.57819">
        <ele>2866</ele>
        <time>2021-04-08T09:41:17Z</time>
      </trkpt>
      <trkpt lat="44.44876" lon="6.57818">
        <ele>2867</ele>
        <time>2021-04-08T09:41:18Z</time>
      </trkpt>
      <trkpt lat="44.44876" lon="6.57817">
        <ele>2867</ele>
        <time>2021-04-08T09:41:19Z</time>
      </trkpt>
      <trkpt lat="44.44876" lon="6.57816">
        <ele>2868</ele>
        <time>2021-04-08T09:41:20Z</time>
      </trkpt>
      <trkpt lat="44.44876" lon="6.57814">
        <ele>2868</ele>
        <time>2021-04-08T09:41:21Z</time>
      </trkpt>
      <trkpt lat="44.44876" lon="6.57813">
        <ele>2868</ele>
        <time>2021-04-08T09:41:22Z</time>
      </trkpt>
      <trkpt lat="44.44875" lon="6.57813">
        <ele>2868</ele>
        <time>2021-04-08T09:41:23Z</time>
      </trkpt>
      <trkpt lat="44.44875" lon="6.57812">
        <ele>2869</ele>
        <time>2021-04-08T09:41:24Z</time>
      </trkpt>
      <trkpt lat="44.44875" lon="6.57811">
        <ele>2869</ele>
        <time>2021-04-08T09:41:25Z</time>
      </trkpt>
      <trkpt lat="44.44875" lon="6.5781">
        <ele>2869</ele>
        <time>2021-04-08T09:41:26Z</time>
      </trkpt>
      <trkpt lat="44.44874" lon="6.5781">
        <ele>2869</ele>
        <time>2021-04-08T09:41:27Z</time>
      </trkpt>
      <trkpt lat="44.44874" lon="6.57809">
        <ele>2869</ele>
        <time>2021-04-08T09:41:28Z</time>
      </trkpt>
      <trkpt lat="44.44874" lon="6.57808">
        <ele>2870</ele>
        <time>2021-04-08T09:41:29Z</time>
      </trkpt>
      <trkpt lat="44.44874" lon="6.57807">
        <ele>2870</ele>
        <time>2021-04-08T09:41:30Z</time>
      </trkpt>
      <trkpt lat="44.44874" lon="6.57807">
        <ele>2870</ele>
        <time>2021-04-08T09:41:31Z</time>
      </trkpt>
      <trkpt lat="44.44873" lon="6.57806">
        <ele>2870</ele>
        <time>2021-04-08T09:41:32Z</time>
      </trkpt>
      <trkpt lat="44.44873" lon="6.57805">
        <ele>2870</ele>
        <time>2021-04-08T09:41:33Z</time>
      </trkpt>
      <trkpt lat="44.44873" lon="6.57804">
        <ele>2871</ele>
        <time>2021-04-08T09:41:34Z</time>
      </trkpt>
      <trkpt lat="44.44872" lon="6.57803">
        <ele>2871</ele>
        <time>2021-04-08T09:41:35Z</time>
      </trkpt>
      <trkpt lat="44.44872" lon="6.57802">
        <ele>2871</ele>
        <time>2021-04-08T09:41:36Z</time>
      </trkpt>
      <trkpt lat="44.44872" lon="6.57801">
        <ele>2872</ele>
        <time>2021-04-08T09:41:37Z</time>
      </trkpt>
      <trkpt lat="44.44871" lon="6.57801">
        <ele>2872</ele>
        <time>2021-04-08T09:41:38Z</time>
      </trkpt>
      <trkpt lat="44.44871" lon="6.578">
        <ele>2872</ele>
        <time>2021-04-08T09:41:39Z</time>
      </trkpt>
      <trkpt lat="44.44871" lon="6.578">
        <ele>2873</ele>
        <time>2021-04-08T09:41:40Z</time>
      </trkpt>
      <trkpt lat="44.44871" lon="6.57799">
        <ele>2873</ele>
        <time>2021-04-08T09:41:41Z</time>
      </trkpt>
      <trkpt lat="44.44871" lon="6.57798">
        <ele>2873</ele>
        <time>2021-04-08T09:41:42Z</time>
      </trkpt>
      <trkpt lat="44.44871" lon="6.57797">
        <ele>2873</ele>
        <time>2021-04-08T09:41:43Z</time>
      </trkpt>
      <trkpt lat="44.4487" lon="6.57796">
        <ele>2873</ele>
        <time>2021-04-08T09:41:44Z</time>
      </trkpt>
      <trkpt lat="44.4487" lon="6.57795">
        <ele>2874</ele>
        <time>2021-04-08T09:41:45Z</time>
      </trkpt>
      <trkpt lat="44.4487" lon="6.57794">
        <ele>2874</ele>
        <time>2021-04-08T09:41:46Z</time>
      </trkpt>
      <trkpt lat="44.4487" lon="6.57793">
        <ele>2874</ele>
        <time>2021-04-08T09:41:47Z</time>
      </trkpt>
      <trkpt lat="44.4487" lon="6.57792">
        <ele>2874</ele>
        <time>2021-04-08T09:41:48Z</time>
      </trkpt>
      <trkpt lat="44.4487" lon="6.5779">
        <ele>2874</ele>
        <time>2021-04-08T09:41:49Z</time>
      </trkpt>
      <trkpt lat="44.4487" lon="6.57789">
        <ele>2874</ele>
        <time>2021-04-08T09:41:50Z</time>
      </trkpt>
      <trkpt lat="44.4487" lon="6.57788">
        <ele>2875</ele>
        <time>2021-04-08T09:41:51Z</time>
      </trkpt>
      <trkpt lat="44.4487" lon="6.57787">
        <ele>2875</ele>
        <time>2021-04-08T09:41:52Z</time>
      </trkpt>
      <trkpt lat="44.44869" lon="6.57786">
        <ele>2875</ele>
        <time>2021-04-08T09:41:53Z</time>
      </trkpt>
      <trkpt lat="44.44869" lon="6.57785">
        <ele>2875</ele>
        <time>2021-04-08T09:41:54Z</time>
      </trkpt>
      <trkpt lat="44.44869" lon="6.57785">
        <ele>2875</ele>
        <time>2021-04-08T09:41:55Z</time>
      </trkpt>
      <trkpt lat="44.44869" lon="6.57785">
        <ele>2875</ele>
        <time>2021-04-08T09:41:56Z</time>
      </trkpt>
      <trkpt lat="44.44869" lon="6.57784">
        <ele>2876</ele>
        <time>2021-04-08T09:41:57Z</time>
      </trkpt>
      <trkpt lat="44.44869" lon="6.57784">
        <ele>2876</ele>
        <time>2021-04-08T09:41:58Z</time>
      </trkpt>
      <trkpt lat="44.44869" lon="6.57784">
        <ele>2876</ele>
        <time>2021-04-08T09:41:59Z</time>
      </trkpt>
      <trkpt lat="44.44869" lon="6.57783">
        <ele>2876</ele>
        <time>2021-04-08T09:42:00Z</time>
      </trkpt>
      <trkpt lat="44.44869" lon="6.57783">
        <ele>2876</ele>
        <time>2021-04-08T09:42:01Z</time>
      </trkpt>
      <trkpt lat="44.44869" lon="6.57782">
        <ele>2876</ele>
        <time>2021-04-08T09:42:02Z</time>
      </trkpt>
      <trkpt lat="44.44869" lon="6.57782">
        <ele>2875</ele>
        <time>2021-04-08T09:42:03Z</time>
      </trkpt>
      <trkpt lat="44.44869" lon="6.57781">
        <ele>2875</ele>
        <time>2021-04-08T09:42:04Z</time>
      </trkpt>
      <trkpt lat="44.44869" lon="6.57781">
        <ele>2875</ele>
        <time>2021-04-08T09:42:05Z</time>
      </trkpt>
      <trkpt lat="44.44869" lon="6.57781">
        <ele>2875</ele>
        <time>2021-04-08T09:42:06Z</time>
      </trkpt>
      <trkpt lat="44.44869" lon="6.57781">
        <ele>2875</ele>
        <time>2021-04-08T09:42:07Z</time>
      </trkpt>
      <trkpt lat="44.44869" lon="6.57781">
        <ele>2875</ele>
        <time>2021-04-08T09:42:08Z</time>
      </trkpt>
      <trkpt lat="44.44869" lon="6.57781">
        <ele>2875</ele>
        <time>2021-04-08T09:42:09Z</time>
      </trkpt>
      <trkpt lat="44.44869" lon="6.57781">
        <ele>2875</ele>
        <time>2021-04-08T09:42:10Z</time>
      </trkpt>
      <trkpt lat="44.44869" lon="6.57781">
        <ele>2875</ele>
        <time>2021-04-08T09:42:11Z</time>
      </trkpt>
      <trkpt lat="44.44869" lon="6.57781">
        <ele>2875</ele>
        <time>2021-04-08T09:42:12Z</time>
      </trkpt>
      <trkpt lat="44.44869" lon="6.57781">
        <ele>2875</ele>
        <time>2021-04-08T09:42:13Z</time>
      </trkpt>
      <trkpt lat="44.44869" lon="6.57781">
        <ele>2875</ele>
        <time>2021-04-08T09:42:14Z</time>
      </trkpt>
      <trkpt lat="44.44869" lon="6.57781">
        <ele>2875</ele>
        <time>2021-04-08T09:42:15Z</time>
      </trkpt>
      <trkpt lat="44.44869" lon="6.57781">
        <ele>2875</ele>
        <time>2021-04-08T09:42:16Z</time>
      </trkpt>
      <trkpt lat="44.44869" lon="6.57781">
        <ele>2875</ele>
        <time>2021-04-08T09:42:17Z</time>
      </trkpt>
      <trkpt lat="44.44869" lon="6.57781">
        <ele>2875</ele>
        <time>2021-04-08T09:42:18Z</time>
      </trkpt>
      <trkpt lat="44.4487" lon="6.57781">
        <ele>2875</ele>
        <time>2021-04-08T09:42:19Z</time>
      </trkpt>
      <trkpt lat="44.44871" lon="6.57781">
        <ele>2875</ele>
        <time>2021-04-08T09:42:20Z</time>
      </trkpt>
      <trkpt lat="44.44871" lon="6.5778">
        <ele>2875</ele>
        <time>2021-04-08T09:42:21Z</time>
      </trkpt>
      <trkpt lat="44.44871" lon="6.5778">
        <ele>2875</ele>
        <time>2021-04-08T09:42:22Z</time>
      </trkpt>
      <trkpt lat="44.44871" lon="6.5778">
        <ele>2875</ele>
        <time>2021-04-08T09:42:23Z</time>
      </trkpt>
      <trkpt lat="44.44871" lon="6.5778">
        <ele>2875</ele>
        <time>2021-04-08T09:42:24Z</time>
      </trkpt>
      <trkpt lat="44.44871" lon="6.5778">
        <ele>2875</ele>
        <time>2021-04-08T09:42:25Z</time>
      </trkpt>
      <trkpt lat="44.44871" lon="6.5778">
        <ele>2875</ele>
        <time>2021-04-08T09:42:26Z</time>
      </trkpt>
      <trkpt lat="44.44871" lon="6.5778">
        <ele>2875</ele>
        <time>2021-04-08T09:42:27Z</time>
      </trkpt>
      <trkpt lat="44.44871" lon="6.5778">
        <ele>2875</ele>
        <time>2021-04-08T09:42:28Z</time>
      </trkpt>
      <trkpt lat="44.44871" lon="6.5778">
        <ele>2875</ele>
        <time>2021-04-08T09:42:29Z</time>
      </trkpt>
      <trkpt lat="44.44871" lon="6.5778">
        <ele>2875</ele>
        <time>2021-04-08T09:42:30Z</time>
      </trkpt>
      <trkpt lat="44.44871" lon="6.5778">
        <ele>2875</ele>
        <time>2021-04-08T09:42:31Z</time>
      </trkpt>
      <trkpt lat="44.44871" lon="6.5778">
        <ele>2875</ele>
        <time>2021-04-08T09:42:32Z</time>
      </trkpt>
      <trkpt lat="44.44871" lon="6.5778">
        <ele>2875</ele>
        <time>2021-04-08T09:42:33Z</time>
      </trkpt>
      <trkpt lat="44.44871" lon="6.5778">
        <ele>2875</ele>
        <time>2021-04-08T09:42:34Z</time>
      </trkpt>
      <trkpt lat="44.44871" lon="6.5778">
        <ele>2875</ele>
        <time>2021-04-08T09:42:35Z</time>
      </trkpt>
      <trkpt lat="44.44871" lon="6.5778">
        <ele>2875</ele>
        <time>2021-04-08T09:42:36Z</time>
      </trkpt>
      <trkpt lat="44.44869" lon="6.57775">
        <ele>2875</ele>
        <time>2021-04-08T09:42:37Z</time>
      </trkpt>
      <trkpt lat="44.44869" lon="6.57775">
        <ele>2875</ele>
        <time>2021-04-08T09:42:38Z</time>
      </trkpt>
      <trkpt lat="44.44869" lon="6.57775">
        <ele>2875</ele>
        <time>2021-04-08T09:42:39Z</time>
      </trkpt>
      <trkpt lat="44.4487" lon="6.57774">
        <ele>2875</ele>
        <time>2021-04-08T09:42:40Z</time>
      </trkpt>
      <trkpt lat="44.4487" lon="6.57774">
        <ele>2875</ele>
        <time>2021-04-08T09:42:41Z</time>
      </trkpt>
      <trkpt lat="44.4487" lon="6.57774">
        <ele>2875</ele>
        <time>2021-04-08T09:42:42Z</time>
      </trkpt>
      <trkpt lat="44.44869" lon="6.57774">
        <ele>2875</ele>
        <time>2021-04-08T09:42:43Z</time>
      </trkpt>
      <trkpt lat="44.44869" lon="6.57773">
        <ele>2875</ele>
        <time>2021-04-08T09:42:44Z</time>
      </trkpt>
      <trkpt lat="44.44869" lon="6.57773">
        <ele>2875</ele>
        <time>2021-04-08T09:42:45Z</time>
      </trkpt>
      <trkpt lat="44.44868" lon="6.57774">
        <ele>2875</ele>
        <time>2021-04-08T09:42:46Z</time>
      </trkpt>
      <trkpt lat="44.44868" lon="6.57774">
        <ele>2875</ele>
        <time>2021-04-08T09:42:47Z</time>
      </trkpt>
      <trkpt lat="44.44868" lon="6.57774">
        <ele>2875</ele>
        <time>2021-04-08T09:42:48Z</time>
      </trkpt>
      <trkpt lat="44.44868" lon="6.57774">
        <ele>2875</ele>
        <time>2021-04-08T09:42:49Z</time>
      </trkpt>
      <trkpt lat="44.44868" lon="6.57774">
        <ele>2875</ele>
        <time>2021-04-08T09:42:50Z</time>
      </trkpt>
      <trkpt lat="44.44868" lon="6.57774">
        <ele>2875</ele>
        <time>2021-04-08T09:42:51Z</time>
      </trkpt>
      <trkpt lat="44.44868" lon="6.57774">
        <ele>2875</ele>
        <time>2021-04-08T09:42:52Z</time>
      </trkpt>
      <trkpt lat="44.44868" lon="6.57774">
        <ele>2875</ele>
        <time>2021-04-08T09:42:53Z</time>
      </trkpt>
      <trkpt lat="44.44868" lon="6.57774">
        <ele>2875</ele>
        <time>2021-04-08T09:42:54Z</time>
      </trkpt>
      <trkpt lat="44.44862" lon="6.57775">
        <ele>2875</ele>
        <time>2021-04-08T09:42:55Z</time>
      </trkpt>
      <trkpt lat="44.44862" lon="6.57776">
        <ele>2875</ele>
        <time>2021-04-08T09:42:56Z</time>
      </trkpt>
      <trkpt lat="44.44862" lon="6.57776">
        <ele>2875</ele>
        <time>2021-04-08T09:42:57Z</time>
      </trkpt>
      <trkpt lat="44.44862" lon="6.57776">
        <ele>2874</ele>
        <time>2021-04-08T09:42:58Z</time>
      </trkpt>
      <trkpt lat="44.44862" lon="6.57776">
        <ele>2874</ele>
        <time>2021-04-08T09:42:59Z</time>
      </trkpt>
      <trkpt lat="44.44862" lon="6.57776">
        <ele>2874</ele>
        <time>2021-04-08T09:43:00Z</time>
      </trkpt>
      <trkpt lat="44.44862" lon="6.57776">
        <ele>2874</ele>
        <time>2021-04-08T09:43:01Z</time>
      </trkpt>
      <trkpt lat="44.44862" lon="6.57776">
        <ele>2874</ele>
        <time>2021-04-08T09:43:02Z</time>
      </trkpt>
      <trkpt lat="44.44862" lon="6.57776">
        <ele>2874</ele>
        <time>2021-04-08T09:43:03Z</time>
      </trkpt>
      <trkpt lat="44.44862" lon="6.57776">
        <ele>2874</ele>
        <time>2021-04-08T09:43:04Z</time>
      </trkpt>
      <trkpt lat="44.44862" lon="6.57776">
        <ele>2874</ele>
        <time>2021-04-08T09:43:05Z</time>
      </trkpt>
      <trkpt lat="44.44862" lon="6.57776">
        <ele>2874</ele>
        <time>2021-04-08T09:43:06Z</time>
      </trkpt>
      <trkpt lat="44.44862" lon="6.57776">
        <ele>2874</ele>
        <time>2021-04-08T09:43:07Z</time>
      </trkpt>
      <trkpt lat="44.44862" lon="6.57776">
        <ele>2874</ele>
        <time>2021-04-08T09:43:08Z</time>
      </trkpt>
      <trkpt lat="44.44862" lon="6.57776">
        <ele>2874</ele>
        <time>2021-04-08T09:43:09Z</time>
      </trkpt>
      <trkpt lat="44.44862" lon="6.57776">
        <ele>2874</ele>
        <time>2021-04-08T09:43:10Z</time>
      </trkpt>
      <trkpt lat="44.44862" lon="6.57776">
        <ele>2874</ele>
        <time>2021-04-08T09:43:11Z</time>
      </trkpt>
      <trkpt lat="44.44862" lon="6.57776">
        <ele>2874</ele>
        <time>2021-04-08T09:43:12Z</time>
      </trkpt>
      <trkpt lat="44.44862" lon="6.57776">
        <ele>2874</ele>
        <time>2021-04-08T09:43:13Z</time>
      </trkpt>
      <trkpt lat="44.44862" lon="6.57776">
        <ele>2874</ele>
        <time>2021-04-08T09:43:14Z</time>
      </trkpt>
      <trkpt lat="44.44862" lon="6.57776">
        <ele>2874</ele>
        <time>2021-04-08T09:43:15Z</time>
      </trkpt>
      <trkpt lat="44.44862" lon="6.57776">
        <ele>2874</ele>
        <time>2021-04-08T09:43:16Z</time>
      </trkpt>
      <trkpt lat="44.44862" lon="6.57776">
        <ele>2874</ele>
        <time>2021-04-08T09:43:17Z</time>
      </trkpt>
      <trkpt lat="44.44861" lon="6.57773">
        <ele>2874</ele>
        <time>2021-04-08T09:43:18Z</time>
      </trkpt>
      <trkpt lat="44.44861" lon="6.57774">
        <ele>2874</ele>
        <time>2021-04-08T09:43:19Z</time>
      </trkpt>
      <trkpt lat="44.44861" lon="6.57773">
        <ele>2874</ele>
        <time>2021-04-08T09:43:20Z</time>
      </trkpt>
      <trkpt lat="44.44862" lon="6.57773">
        <ele>2874</ele>
        <time>2021-04-08T09:43:21Z</time>
      </trkpt>
      <trkpt lat="44.44862" lon="6.57773">
        <ele>2874</ele>
        <time>2021-04-08T09:43:22Z</time>
      </trkpt>
      <trkpt lat="44.44862" lon="6.57773">
        <ele>2874</ele>
        <time>2021-04-08T09:43:23Z</time>
      </trkpt>
      <trkpt lat="44.44862" lon="6.57773">
        <ele>2874</ele>
        <time>2021-04-08T09:43:24Z</time>
      </trkpt>
      <trkpt lat="44.44862" lon="6.57773">
        <ele>2874</ele>
        <time>2021-04-08T09:43:25Z</time>
      </trkpt>
      <trkpt lat="44.44862" lon="6.57773">
        <ele>2874</ele>
        <time>2021-04-08T09:43:26Z</time>
      </trkpt>
      <trkpt lat="44.44862" lon="6.57773">
        <ele>2874</ele>
        <time>2021-04-08T09:43:27Z</time>
      </trkpt>
      <trkpt lat="44.44862" lon="6.57773">
        <ele>2874</ele>
        <time>2021-04-08T09:43:28Z</time>
      </trkpt>
      <trkpt lat="44.44862" lon="6.57773">
        <ele>2874</ele>
        <time>2021-04-08T09:43:29Z</time>
      </trkpt>
      <trkpt lat="44.44862" lon="6.57773">
        <ele>2873</ele>
        <time>2021-04-08T09:43:30Z</time>
      </trkpt>
      <trkpt lat="44.44862" lon="6.57773">
        <ele>2873</ele>
        <time>2021-04-08T09:43:31Z</time>
      </trkpt>
      <trkpt lat="44.44862" lon="6.57773">
        <ele>2873</ele>
        <time>2021-04-08T09:43:32Z</time>
      </trkpt>
      <trkpt lat="44.44862" lon="6.57773">
        <ele>2873</ele>
        <time>2021-04-08T09:43:33Z</time>
      </trkpt>
      <trkpt lat="44.44862" lon="6.57773">
        <ele>2873</ele>
        <time>2021-04-08T09:43:34Z</time>
      </trkpt>
      <trkpt lat="44.44862" lon="6.57773">
        <ele>2873</ele>
        <time>2021-04-08T09:43:35Z</time>
      </trkpt>
      <trkpt lat="44.44862" lon="6.57773">
        <ele>2873</ele>
        <time>2021-04-08T09:43:36Z</time>
      </trkpt>
      <trkpt lat="44.44862" lon="6.57773">
        <ele>2873</ele>
        <time>2021-04-08T09:43:37Z</time>
      </trkpt>
      <trkpt lat="44.44862" lon="6.57773">
        <ele>2873</ele>
        <time>2021-04-08T09:43:38Z</time>
      </trkpt>
      <trkpt lat="44.44862" lon="6.57773">
        <ele>2873</ele>
        <time>2021-04-08T09:43:39Z</time>
      </trkpt>
      <trkpt lat="44.44862" lon="6.57773">
        <ele>2873</ele>
        <time>2021-04-08T09:43:40Z</time>
      </trkpt>
      <trkpt lat="44.44862" lon="6.57773">
        <ele>2873</ele>
        <time>2021-04-08T09:43:41Z</time>
      </trkpt>
      <trkpt lat="44.44862" lon="6.57773">
        <ele>2873</ele>
        <time>2021-04-08T09:43:42Z</time>
      </trkpt>
      <trkpt lat="44.44862" lon="6.57773">
        <ele>2873</ele>
        <time>2021-04-08T09:43:43Z</time>
      </trkpt>
      <trkpt lat="44.44862" lon="6.57773">
        <ele>2873</ele>
        <time>2021-04-08T09:43:44Z</time>
      </trkpt>
      <trkpt lat="44.44862" lon="6.57773">
        <ele>2873</ele>
        <time>2021-04-08T09:43:45Z</time>
      </trkpt>
      <trkpt lat="44.44862" lon="6.57773">
        <ele>2873</ele>
        <time>2021-04-08T09:43:46Z</time>
      </trkpt>
      <trkpt lat="44.44862" lon="6.57773">
        <ele>2873</ele>
        <time>2021-04-08T09:43:47Z</time>
      </trkpt>
      <trkpt lat="44.4486" lon="6.57773">
        <ele>2873</ele>
        <time>2021-04-08T09:43:48Z</time>
      </trkpt>
      <trkpt lat="44.44861" lon="6.57774">
        <ele>2873</ele>
        <time>2021-04-08T09:43:49Z</time>
      </trkpt>
      <trkpt lat="44.4486" lon="6.57774">
        <ele>2873</ele>
        <time>2021-04-08T09:43:50Z</time>
      </trkpt>
      <trkpt lat="44.4486" lon="6.57774">
        <ele>2873</ele>
        <time>2021-04-08T09:43:51Z</time>
      </trkpt>
      <trkpt lat="44.4486" lon="6.57773">
        <ele>2873</ele>
        <time>2021-04-08T09:43:52Z</time>
      </trkpt>
      <trkpt lat="44.4486" lon="6.57773">
        <ele>2873</ele>
        <time>2021-04-08T09:43:53Z</time>
      </trkpt>
      <trkpt lat="44.4486" lon="6.57773">
        <ele>2873</ele>
        <time>2021-04-08T09:43:54Z</time>
      </trkpt>
      <trkpt lat="44.4486" lon="6.57773">
        <ele>2873</ele>
        <time>2021-04-08T09:43:55Z</time>
      </trkpt>
      <trkpt lat="44.4486" lon="6.57773">
        <ele>2873</ele>
        <time>2021-04-08T09:43:56Z</time>
      </trkpt>
      <trkpt lat="44.4486" lon="6.57773">
        <ele>2873</ele>
        <time>2021-04-08T09:43:57Z</time>
      </trkpt>
      <trkpt lat="44.4486" lon="6.57773">
        <ele>2873</ele>
        <time>2021-04-08T09:43:58Z</time>
      </trkpt>
      <trkpt lat="44.4486" lon="6.57773">
        <ele>2872</ele>
        <time>2021-04-08T09:43:59Z</time>
      </trkpt>
      <trkpt lat="44.4486" lon="6.57773">
        <ele>2872</ele>
        <time>2021-04-08T09:44:00Z</time>
      </trkpt>
      <trkpt lat="44.4486" lon="6.57773">
        <ele>2872</ele>
        <time>2021-04-08T09:44:01Z</time>
      </trkpt>
      <trkpt lat="44.4486" lon="6.57773">
        <ele>2872</ele>
        <time>2021-04-08T09:44:02Z</time>
      </trkpt>
      <trkpt lat="44.4486" lon="6.57773">
        <ele>2872</ele>
        <time>2021-04-08T09:44:03Z</time>
      </trkpt>
      <trkpt lat="44.4486" lon="6.57773">
        <ele>2872</ele>
        <time>2021-04-08T09:44:04Z</time>
      </trkpt>
      <trkpt lat="44.4486" lon="6.57773">
        <ele>2872</ele>
        <time>2021-04-08T09:44:05Z</time>
      </trkpt>
      <trkpt lat="44.4486" lon="6.57773">
        <ele>2872</ele>
        <time>2021-04-08T09:44:06Z</time>
      </trkpt>
      <trkpt lat="44.4486" lon="6.57773">
        <ele>2872</ele>
        <time>2021-04-08T09:44:07Z</time>
      </trkpt>
      <trkpt lat="44.4486" lon="6.57773">
        <ele>2872</ele>
        <time>2021-04-08T09:44:08Z</time>
      </trkpt>
      <trkpt lat="44.4486" lon="6.57773">
        <ele>2872</ele>
        <time>2021-04-08T09:44:09Z</time>
      </trkpt>
      <trkpt lat="44.4486" lon="6.57773">
        <ele>2872</ele>
        <time>2021-04-08T09:44:10Z</time>
      </trkpt>
      <trkpt lat="44.4486" lon="6.57773">
        <ele>2872</ele>
        <time>2021-04-08T09:44:11Z</time>
      </trkpt>
      <trkpt lat="44.4486" lon="6.57773">
        <ele>2872</ele>
        <time>2021-04-08T09:44:12Z</time>
      </trkpt>
      <trkpt lat="44.4486" lon="6.57773">
        <ele>2872</ele>
        <time>2021-04-08T09:44:13Z</time>
      </trkpt>
      <trkpt lat="44.4486" lon="6.57773">
        <ele>2872</ele>
        <time>2021-04-08T09:44:14Z</time>
      </trkpt>
      <trkpt lat="44.4486" lon="6.57773">
        <ele>2872</ele>
        <time>2021-04-08T09:44:15Z</time>
      </trkpt>
      <trkpt lat="44.4486" lon="6.57773">
        <ele>2872</ele>
        <time>2021-04-08T09:44:16Z</time>
      </trkpt>
      <trkpt lat="44.4486" lon="6.57773">
        <ele>2872</ele>
        <time>2021-04-08T09:44:17Z</time>
      </trkpt>
      <trkpt lat="44.4486" lon="6.57773">
        <ele>2872</ele>
        <time>2021-04-08T09:44:18Z</time>
      </trkpt>
      <trkpt lat="44.4486" lon="6.57773">
        <ele>2872</ele>
        <time>2021-04-08T09:44:19Z</time>
      </trkpt>
      <trkpt lat="44.4486" lon="6.57773">
        <ele>2872</ele>
        <time>2021-04-08T09:44:20Z</time>
      </trkpt>
      <trkpt lat="44.4486" lon="6.57773">
        <ele>2872</ele>
        <time>2021-04-08T09:44:21Z</time>
      </trkpt>
      <trkpt lat="44.4486" lon="6.57773">
        <ele>2872</ele>
        <time>2021-04-08T09:44:22Z</time>
      </trkpt>
      <trkpt lat="44.4486" lon="6.57773">
        <ele>2872</ele>
        <time>2021-04-08T09:44:23Z</time>
      </trkpt>
      <trkpt lat="44.44859" lon="6.5777">
        <ele>2872</ele>
        <time>2021-04-08T09:44:24Z</time>
      </trkpt>
      <trkpt lat="44.44859" lon="6.5777">
        <ele>2872</ele>
        <time>2021-04-08T09:44:25Z</time>
      </trkpt>
      <trkpt lat="44.44859" lon="6.57771">
        <ele>2872</ele>
        <time>2021-04-08T09:44:26Z</time>
      </trkpt>
      <trkpt lat="44.44859" lon="6.57772">
        <ele>2872</ele>
        <time>2021-04-08T09:44:27Z</time>
      </trkpt>
      <trkpt lat="44.44859" lon="6.57772">
        <ele>2872</ele>
        <time>2021-04-08T09:44:28Z</time>
      </trkpt>
      <trkpt lat="44.44859" lon="6.57772">
        <ele>2872</ele>
        <time>2021-04-08T09:44:29Z</time>
      </trkpt>
      <trkpt lat="44.44859" lon="6.57772">
        <ele>2872</ele>
        <time>2021-04-08T09:44:30Z</time>
      </trkpt>
      <trkpt lat="44.44859" lon="6.57772">
        <ele>2872</ele>
        <time>2021-04-08T09:44:31Z</time>
      </trkpt>
      <trkpt lat="44.44859" lon="6.57772">
        <ele>2872</ele>
        <time>2021-04-08T09:44:32Z</time>
      </trkpt>
      <trkpt lat="44.44859" lon="6.57772">
        <ele>2872</ele>
        <time>2021-04-08T09:44:33Z</time>
      </trkpt>
      <trkpt lat="44.44859" lon="6.57772">
        <ele>2872</ele>
        <time>2021-04-08T09:44:34Z</time>
      </trkpt>
      <trkpt lat="44.44859" lon="6.57772">
        <ele>2872</ele>
        <time>2021-04-08T09:44:35Z</time>
      </trkpt>
      <trkpt lat="44.44859" lon="6.57772">
        <ele>2872</ele>
        <time>2021-04-08T09:44:36Z</time>
      </trkpt>
      <trkpt lat="44.44859" lon="6.57772">
        <ele>2872</ele>
        <time>2021-04-08T09:44:37Z</time>
      </trkpt>
      <trkpt lat="44.44859" lon="6.57772">
        <ele>2872</ele>
        <time>2021-04-08T09:44:38Z</time>
      </trkpt>
      <trkpt lat="44.44859" lon="6.57772">
        <ele>2872</ele>
        <time>2021-04-08T09:44:39Z</time>
      </trkpt>
      <trkpt lat="44.44859" lon="6.57772">
        <ele>2872</ele>
        <time>2021-04-08T09:44:40Z</time>
      </trkpt>
      <trkpt lat="44.44859" lon="6.57772">
        <ele>2872</ele>
        <time>2021-04-08T09:44:41Z</time>
      </trkpt>
      <trkpt lat="44.44859" lon="6.57772">
        <ele>2872</ele>
        <time>2021-04-08T09:44:42Z</time>
      </trkpt>
      <trkpt lat="44.44859" lon="6.57772">
        <ele>2872</ele>
        <time>2021-04-08T09:44:43Z</time>
      </trkpt>
      <trkpt lat="44.44859" lon="6.57772">
        <ele>2872</ele>
        <time>2021-04-08T09:44:44Z</time>
      </trkpt>
      <trkpt lat="44.44859" lon="6.57772">
        <ele>2872</ele>
        <time>2021-04-08T09:44:45Z</time>
      </trkpt>
      <trkpt lat="44.44859" lon="6.57772">
        <ele>2872</ele>
        <time>2021-04-08T09:44:46Z</time>
      </trkpt>
      <trkpt lat="44.44859" lon="6.57772">
        <ele>2872</ele>
        <time>2021-04-08T09:44:47Z</time>
      </trkpt>
      <trkpt lat="44.44858" lon="6.57772">
        <ele>2872</ele>
        <time>2021-04-08T09:44:48Z</time>
      </trkpt>
      <trkpt lat="44.44858" lon="6.57771">
        <ele>2872</ele>
        <time>2021-04-08T09:44:49Z</time>
      </trkpt>
      <trkpt lat="44.44857" lon="6.57771">
        <ele>2872</ele>
        <time>2021-04-08T09:44:50Z</time>
      </trkpt>
      <trkpt lat="44.44858" lon="6.57772">
        <ele>2872</ele>
        <time>2021-04-08T09:44:51Z</time>
      </trkpt>
      <trkpt lat="44.44858" lon="6.57772">
        <ele>2872</ele>
        <time>2021-04-08T09:44:52Z</time>
      </trkpt>
      <trkpt lat="44.44858" lon="6.57772">
        <ele>2872</ele>
        <time>2021-04-08T09:44:53Z</time>
      </trkpt>
      <trkpt lat="44.44858" lon="6.57772">
        <ele>2872</ele>
        <time>2021-04-08T09:44:54Z</time>
      </trkpt>
      <trkpt lat="44.44858" lon="6.57772">
        <ele>2872</ele>
        <time>2021-04-08T09:44:55Z</time>
      </trkpt>
      <trkpt lat="44.44858" lon="6.57772">
        <ele>2872</ele>
        <time>2021-04-08T09:44:56Z</time>
      </trkpt>
      <trkpt lat="44.44858" lon="6.57772">
        <ele>2872</ele>
        <time>2021-04-08T09:44:57Z</time>
      </trkpt>
      <trkpt lat="44.44858" lon="6.57772">
        <ele>2872</ele>
        <time>2021-04-08T09:44:58Z</time>
      </trkpt>
      <trkpt lat="44.44858" lon="6.57772">
        <ele>2872</ele>
        <time>2021-04-08T09:44:59Z</time>
      </trkpt>
      <trkpt lat="44.44858" lon="6.57772">
        <ele>2872</ele>
        <time>2021-04-08T09:45:00Z</time>
      </trkpt>
      <trkpt lat="44.44858" lon="6.57772">
        <ele>2872</ele>
        <time>2021-04-08T09:45:01Z</time>
      </trkpt>
      <trkpt lat="44.44858" lon="6.57772">
        <ele>2872</ele>
        <time>2021-04-08T09:45:02Z</time>
      </trkpt>
      <trkpt lat="44.44858" lon="6.57772">
        <ele>2872</ele>
        <time>2021-04-08T09:45:03Z</time>
      </trkpt>
      <trkpt lat="44.44858" lon="6.57772">
        <ele>2872</ele>
        <time>2021-04-08T09:45:04Z</time>
      </trkpt>
      <trkpt lat="44.44858" lon="6.57772">
        <ele>2872</ele>
        <time>2021-04-08T09:45:05Z</time>
      </trkpt>
      <trkpt lat="44.44858" lon="6.57772">
        <ele>2872</ele>
        <time>2021-04-08T09:45:06Z</time>
      </trkpt>
      <trkpt lat="44.44858" lon="6.57772">
        <ele>2872</ele>
        <time>2021-04-08T09:45:07Z</time>
      </trkpt>
      <trkpt lat="44.44858" lon="6.57772">
        <ele>2872</ele>
        <time>2021-04-08T09:45:08Z</time>
      </trkpt>
      <trkpt lat="44.44858" lon="6.57772">
        <ele>2872</ele>
        <time>2021-04-08T09:45:09Z</time>
      </trkpt>
      <trkpt lat="44.44858" lon="6.57772">
        <ele>2872</ele>
        <time>2021-04-08T09:45:10Z</time>
      </trkpt>
      <trkpt lat="44.44858" lon="6.57772">
        <ele>2872</ele>
        <time>2021-04-08T09:45:11Z</time>
      </trkpt>
      <trkpt lat="44.44858" lon="6.57772">
        <ele>2872</ele>
        <time>2021-04-08T09:45:12Z</time>
      </trkpt>
      <trkpt lat="44.44858" lon="6.57772">
        <ele>2872</ele>
        <time>2021-04-08T09:45:13Z</time>
      </trkpt>
      <trkpt lat="44.44858" lon="6.57772">
        <ele>2872</ele>
        <time>2021-04-08T09:45:14Z</time>
      </trkpt>
      <trkpt lat="44.44858" lon="6.57772">
        <ele>2872</ele>
        <time>2021-04-08T09:45:15Z</time>
      </trkpt>
      <trkpt lat="44.44858" lon="6.57772">
        <ele>2872</ele>
        <time>2021-04-08T09:45:16Z</time>
      </trkpt>
      <trkpt lat="44.44858" lon="6.57772">
        <ele>2872</ele>
        <time>2021-04-08T09:45:17Z</time>
      </trkpt>
      <trkpt lat="44.44858" lon="6.57772">
        <ele>2872</ele>
        <time>2021-04-08T09:45:18Z</time>
      </trkpt>
      <trkpt lat="44.44858" lon="6.57772">
        <ele>2872</ele>
        <time>2021-04-08T09:45:19Z</time>
      </trkpt>
      <trkpt lat="44.44858" lon="6.57772">
        <ele>2872</ele>
        <time>2021-04-08T09:45:20Z</time>
      </trkpt>
      <trkpt lat="44.44858" lon="6.57772">
        <ele>2872</ele>
        <time>2021-04-08T09:45:21Z</time>
      </trkpt>
      <trkpt lat="44.44858" lon="6.57772">
        <ele>2872</ele>
        <time>2021-04-08T09:45:22Z</time>
      </trkpt>
      <trkpt lat="44.44858" lon="6.57772">
        <ele>2872</ele>
        <time>2021-04-08T09:45:23Z</time>
      </trkpt>
      <trkpt lat="44.44858" lon="6.57772">
        <ele>2872</ele>
        <time>2021-04-08T09:45:24Z</time>
      </trkpt>
      <trkpt lat="44.44858" lon="6.57772">
        <ele>2872</ele>
        <time>2021-04-08T09:45:25Z</time>
      </trkpt>
      <trkpt lat="44.44858" lon="6.57772">
        <ele>2872</ele>
        <time>2021-04-08T09:45:26Z</time>
      </trkpt>
      <trkpt lat="44.44858" lon="6.57772">
        <ele>2872</ele>
        <time>2021-04-08T09:45:27Z</time>
      </trkpt>
      <trkpt lat="44.44858" lon="6.57772">
        <ele>2872</ele>
        <time>2021-04-08T09:45:28Z</time>
      </trkpt>
      <trkpt lat="44.44858" lon="6.57772">
        <ele>2872</ele>
        <time>2021-04-08T09:45:29Z</time>
      </trkpt>
      <trkpt lat="44.44858" lon="6.57772">
        <ele>2872</ele>
        <time>2021-04-08T09:45:30Z</time>
      </trkpt>
      <trkpt lat="44.44858" lon="6.57772">
        <ele>2872</ele>
        <time>2021-04-08T09:45:31Z</time>
      </trkpt>
      <trkpt lat="44.44858" lon="6.57772">
        <ele>2872</ele>
        <time>2021-04-08T09:45:32Z</time>
      </trkpt>
      <trkpt lat="44.44858" lon="6.57772">
        <ele>2872</ele>
        <time>2021-04-08T09:45:33Z</time>
      </trkpt>
      <trkpt lat="44.44858" lon="6.57772">
        <ele>2872</ele>
        <time>2021-04-08T09:45:34Z</time>
      </trkpt>
      <trkpt lat="44.44858" lon="6.57772">
        <ele>2872</ele>
        <time>2021-04-08T09:45:35Z</time>
      </trkpt>
      <trkpt lat="44.44858" lon="6.57772">
        <ele>2872</ele>
        <time>2021-04-08T09:45:36Z</time>
      </trkpt>
      <trkpt lat="44.44858" lon="6.57772">
        <ele>2872</ele>
        <time>2021-04-08T09:45:37Z</time>
      </trkpt>
      <trkpt lat="44.44858" lon="6.57772">
        <ele>2872</ele>
        <time>2021-04-08T09:45:38Z</time>
      </trkpt>
      <trkpt lat="44.44858" lon="6.57772">
        <ele>2872</ele>
        <time>2021-04-08T09:45:39Z</time>
      </trkpt>
      <trkpt lat="44.44858" lon="6.57772">
        <ele>2872</ele>
        <time>2021-04-08T09:45:40Z</time>
      </trkpt>
      <trkpt lat="44.44858" lon="6.57772">
        <ele>2872</ele>
        <time>2021-04-08T09:45:41Z</time>
      </trkpt>
      <trkpt lat="44.44858" lon="6.57772">
        <ele>2872</ele>
        <time>2021-04-08T09:45:42Z</time>
      </trkpt>
      <trkpt lat="44.44858" lon="6.57772">
        <ele>2872</ele>
        <time>2021-04-08T09:45:43Z</time>
      </trkpt>
      <trkpt lat="44.44858" lon="6.57772">
        <ele>2872</ele>
        <time>2021-04-08T09:45:44Z</time>
      </trkpt>
      <trkpt lat="44.44858" lon="6.57772">
        <ele>2872</ele>
        <time>2021-04-08T09:45:45Z</time>
      </trkpt>
      <trkpt lat="44.44858" lon="6.57772">
        <ele>2872</ele>
        <time>2021-04-08T09:45:46Z</time>
      </trkpt>
      <trkpt lat="44.44858" lon="6.57772">
        <ele>2872</ele>
        <time>2021-04-08T09:45:47Z</time>
      </trkpt>
      <trkpt lat="44.44858" lon="6.57772">
        <ele>2872</ele>
        <time>2021-04-08T09:45:48Z</time>
      </trkpt>
      <trkpt lat="44.44858" lon="6.57772">
        <ele>2872</ele>
        <time>2021-04-08T09:45:49Z</time>
      </trkpt>
      <trkpt lat="44.44858" lon="6.57772">
        <ele>2872</ele>
        <time>2021-04-08T09:45:50Z</time>
      </trkpt>
      <trkpt lat="44.44858" lon="6.57772">
        <ele>2872</ele>
        <time>2021-04-08T09:45:51Z</time>
      </trkpt>
      <trkpt lat="44.44858" lon="6.57772">
        <ele>2872</ele>
        <time>2021-04-08T09:45:52Z</time>
      </trkpt>
      <trkpt lat="44.44858" lon="6.57772">
        <ele>2872</ele>
        <time>2021-04-08T09:45:53Z</time>
      </trkpt>
      <trkpt lat="44.44858" lon="6.57772">
        <ele>2872</ele>
        <time>2021-04-08T09:45:54Z</time>
      </trkpt>
      <trkpt lat="44.44858" lon="6.57772">
        <ele>2872</ele>
        <time>2021-04-08T09:45:55Z</time>
      </trkpt>
      <trkpt lat="44.44858" lon="6.57772">
        <ele>2872</ele>
        <time>2021-04-08T09:45:56Z</time>
      </trkpt>
      <trkpt lat="44.44858" lon="6.57772">
        <ele>2872</ele>
        <time>2021-04-08T09:45:57Z</time>
      </trkpt>
      <trkpt lat="44.44858" lon="6.57772">
        <ele>2872</ele>
        <time>2021-04-08T09:45:58Z</time>
      </trkpt>
      <trkpt lat="44.44858" lon="6.57772">
        <ele>2872</ele>
        <time>2021-04-08T09:45:59Z</time>
      </trkpt>
      <trkpt lat="44.44858" lon="6.57772">
        <ele>2872</ele>
        <time>2021-04-08T09:46:00Z</time>
      </trkpt>
      <trkpt lat="44.44858" lon="6.57772">
        <ele>2872</ele>
        <time>2021-04-08T09:46:01Z</time>
      </trkpt>
      <trkpt lat="44.44858" lon="6.57772">
        <ele>2872</ele>
        <time>2021-04-08T09:46:02Z</time>
      </trkpt>
      <trkpt lat="44.44858" lon="6.57772">
        <ele>2872</ele>
        <time>2021-04-08T09:46:03Z</time>
      </trkpt>
      <trkpt lat="44.44858" lon="6.57772">
        <ele>2872</ele>
        <time>2021-04-08T09:46:04Z</time>
      </trkpt>
      <trkpt lat="44.44858" lon="6.57772">
        <ele>2872</ele>
        <time>2021-04-08T09:46:05Z</time>
      </trkpt>
      <trkpt lat="44.44858" lon="6.57772">
        <ele>2872</ele>
        <time>2021-04-08T09:46:06Z</time>
      </trkpt>
      <trkpt lat="44.44858" lon="6.57772">
        <ele>2872</ele>
        <time>2021-04-08T09:46:07Z</time>
      </trkpt>
      <trkpt lat="44.44858" lon="6.57772">
        <ele>2872</ele>
        <time>2021-04-08T09:46:08Z</time>
      </trkpt>
      <trkpt lat="44.44858" lon="6.57772">
        <ele>2872</ele>
        <time>2021-04-08T09:46:09Z</time>
      </trkpt>
      <trkpt lat="44.44858" lon="6.57772">
        <ele>2872</ele>
        <time>2021-04-08T09:46:10Z</time>
      </trkpt>
      <trkpt lat="44.44858" lon="6.57772">
        <ele>2872</ele>
        <time>2021-04-08T09:46:11Z</time>
      </trkpt>
      <trkpt lat="44.44858" lon="6.57772">
        <ele>2872</ele>
        <time>2021-04-08T09:46:12Z</time>
      </trkpt>
      <trkpt lat="44.44858" lon="6.57772">
        <ele>2872</ele>
        <time>2021-04-08T09:46:13Z</time>
      </trkpt>
      <trkpt lat="44.44858" lon="6.57772">
        <ele>2872</ele>
        <time>2021-04-08T09:46:14Z</time>
      </trkpt>
      <trkpt lat="44.44858" lon="6.57772">
        <ele>2872</ele>
        <time>2021-04-08T09:46:15Z</time>
      </trkpt>
      <trkpt lat="44.44856" lon="6.57771">
        <ele>2872</ele>
        <time>2021-04-08T09:46:16Z</time>
      </trkpt>
      <trkpt lat="44.44856" lon="6.57771">
        <ele>2872</ele>
        <time>2021-04-08T09:46:17Z</time>
      </trkpt>
      <trkpt lat="44.44856" lon="6.57771">
        <ele>2872</ele>
        <time>2021-04-08T09:46:18Z</time>
      </trkpt>
      <trkpt lat="44.44856" lon="6.57771">
        <ele>2872</ele>
        <time>2021-04-08T09:46:19Z</time>
      </trkpt>
      <trkpt lat="44.44856" lon="6.57771">
        <ele>2872</ele>
        <time>2021-04-08T09:46:20Z</time>
      </trkpt>
      <trkpt lat="44.44856" lon="6.57771">
        <ele>2872</ele>
        <time>2021-04-08T09:46:21Z</time>
      </trkpt>
      <trkpt lat="44.44856" lon="6.57771">
        <ele>2872</ele>
        <time>2021-04-08T09:46:22Z</time>
      </trkpt>
      <trkpt lat="44.44856" lon="6.57771">
        <ele>2872</ele>
        <time>2021-04-08T09:46:23Z</time>
      </trkpt>
      <trkpt lat="44.44856" lon="6.57771">
        <ele>2872</ele>
        <time>2021-04-08T09:46:24Z</time>
      </trkpt>
      <trkpt lat="44.44856" lon="6.57771">
        <ele>2872</ele>
        <time>2021-04-08T09:46:25Z</time>
      </trkpt>
      <trkpt lat="44.44856" lon="6.57771">
        <ele>2872</ele>
        <time>2021-04-08T09:46:26Z</time>
      </trkpt>
      <trkpt lat="44.44856" lon="6.57771">
        <ele>2872</ele>
        <time>2021-04-08T09:46:27Z</time>
      </trkpt>
      <trkpt lat="44.44856" lon="6.57771">
        <ele>2872</ele>
        <time>2021-04-08T09:46:28Z</time>
      </trkpt>
      <trkpt lat="44.44856" lon="6.57771">
        <ele>2872</ele>
        <time>2021-04-08T09:46:29Z</time>
      </trkpt>
      <trkpt lat="44.44856" lon="6.57771">
        <ele>2872</ele>
        <time>2021-04-08T09:46:30Z</time>
      </trkpt>
      <trkpt lat="44.44856" lon="6.57771">
        <ele>2872</ele>
        <time>2021-04-08T09:46:31Z</time>
      </trkpt>
      <trkpt lat="44.44856" lon="6.57771">
        <ele>2872</ele>
        <time>2021-04-08T09:46:32Z</time>
      </trkpt>
      <trkpt lat="44.44856" lon="6.57771">
        <ele>2872</ele>
        <time>2021-04-08T09:46:33Z</time>
      </trkpt>
      <trkpt lat="44.44856" lon="6.57771">
        <ele>2872</ele>
        <time>2021-04-08T09:46:34Z</time>
      </trkpt>
      <trkpt lat="44.44856" lon="6.57771">
        <ele>2872</ele>
        <time>2021-04-08T09:46:35Z</time>
      </trkpt>
      <trkpt lat="44.44856" lon="6.57771">
        <ele>2871</ele>
        <time>2021-04-08T09:46:36Z</time>
      </trkpt>
      <trkpt lat="44.44856" lon="6.57771">
        <ele>2871</ele>
        <time>2021-04-08T09:46:37Z</time>
      </trkpt>
      <trkpt lat="44.44853" lon="6.57768">
        <ele>2870</ele>
        <time>2021-04-08T09:46:38Z</time>
      </trkpt>
      <trkpt lat="44.44853" lon="6.57768">
        <ele>2870</ele>
        <time>2021-04-08T09:46:39Z</time>
      </trkpt>
      <trkpt lat="44.44853" lon="6.57768">
        <ele>2870</ele>
        <time>2021-04-08T09:46:40Z</time>
      </trkpt>
      <trkpt lat="44.44852" lon="6.57767">
        <ele>2870</ele>
        <time>2021-04-08T09:46:41Z</time>
      </trkpt>
      <trkpt lat="44.44852" lon="6.57767">
        <ele>2869</ele>
        <time>2021-04-08T09:46:42Z</time>
      </trkpt>
      <trkpt lat="44.44852" lon="6.57767">
        <ele>2869</ele>
        <time>2021-04-08T09:46:43Z</time>
      </trkpt>
      <trkpt lat="44.44852" lon="6.57767">
        <ele>2869</ele>
        <time>2021-04-08T09:46:44Z</time>
      </trkpt>
      <trkpt lat="44.44852" lon="6.57767">
        <ele>2869</ele>
        <time>2021-04-08T09:46:45Z</time>
      </trkpt>
      <trkpt lat="44.44852" lon="6.57767">
        <ele>2869</ele>
        <time>2021-04-08T09:46:46Z</time>
      </trkpt>
      <trkpt lat="44.44852" lon="6.57767">
        <ele>2869</ele>
        <time>2021-04-08T09:46:47Z</time>
      </trkpt>
      <trkpt lat="44.44852" lon="6.57767">
        <ele>2869</ele>
        <time>2021-04-08T09:46:48Z</time>
      </trkpt>
      <trkpt lat="44.44852" lon="6.57764">
        <ele>2869</ele>
        <time>2021-04-08T09:46:49Z</time>
      </trkpt>
      <trkpt lat="44.44851" lon="6.57764">
        <ele>2869</ele>
        <time>2021-04-08T09:46:50Z</time>
      </trkpt>
      <trkpt lat="44.44851" lon="6.57763">
        <ele>2869</ele>
        <time>2021-04-08T09:46:51Z</time>
      </trkpt>
      <trkpt lat="44.44851" lon="6.57762">
        <ele>2869</ele>
        <time>2021-04-08T09:46:52Z</time>
      </trkpt>
      <trkpt lat="44.44851" lon="6.57762">
        <ele>2868</ele>
        <time>2021-04-08T09:46:53Z</time>
      </trkpt>
      <trkpt lat="44.44851" lon="6.57761">
        <ele>2868</ele>
        <time>2021-04-08T09:46:54Z</time>
      </trkpt>
      <trkpt lat="44.4485" lon="6.5776">
        <ele>2868</ele>
        <time>2021-04-08T09:46:55Z</time>
      </trkpt>
      <trkpt lat="44.4485" lon="6.57759">
        <ele>2868</ele>
        <time>2021-04-08T09:46:56Z</time>
      </trkpt>
      <trkpt lat="44.4485" lon="6.57758">
        <ele>2868</ele>
        <time>2021-04-08T09:46:57Z</time>
      </trkpt>
      <trkpt lat="44.4485" lon="6.57757">
        <ele>2868</ele>
        <time>2021-04-08T09:46:58Z</time>
      </trkpt>
      <trkpt lat="44.4485" lon="6.57756">
        <ele>2868</ele>
        <time>2021-04-08T09:46:59Z</time>
      </trkpt>
      <trkpt lat="44.4485" lon="6.57756">
        <ele>2868</ele>
        <time>2021-04-08T09:47:00Z</time>
      </trkpt>
      <trkpt lat="44.4485" lon="6.57756">
        <ele>2867</ele>
        <time>2021-04-08T09:47:01Z</time>
      </trkpt>
      <trkpt lat="44.4485" lon="6.57755">
        <ele>2867</ele>
        <time>2021-04-08T09:47:02Z</time>
      </trkpt>
      <trkpt lat="44.4485" lon="6.57755">
        <ele>2867</ele>
        <time>2021-04-08T09:47:03Z</time>
      </trkpt>
      <trkpt lat="44.4485" lon="6.57755">
        <ele>2867</ele>
        <time>2021-04-08T09:47:04Z</time>
      </trkpt>
      <trkpt lat="44.4485" lon="6.57755">
        <ele>2867</ele>
        <time>2021-04-08T09:47:05Z</time>
      </trkpt>
      <trkpt lat="44.4485" lon="6.57755">
        <ele>2867</ele>
        <time>2021-04-08T09:47:06Z</time>
      </trkpt>
      <trkpt lat="44.4485" lon="6.57755">
        <ele>2867</ele>
        <time>2021-04-08T09:47:07Z</time>
      </trkpt>
      <trkpt lat="44.4485" lon="6.57755">
        <ele>2867</ele>
        <time>2021-04-08T09:47:08Z</time>
      </trkpt>
      <trkpt lat="44.4485" lon="6.57755">
        <ele>2867</ele>
        <time>2021-04-08T09:47:09Z</time>
      </trkpt>
      <trkpt lat="44.4485" lon="6.57755">
        <ele>2867</ele>
        <time>2021-04-08T09:47:10Z</time>
      </trkpt>
      <trkpt lat="44.4485" lon="6.57755">
        <ele>2867</ele>
        <time>2021-04-08T09:47:11Z</time>
      </trkpt>
      <trkpt lat="44.4485" lon="6.57755">
        <ele>2867</ele>
        <time>2021-04-08T09:47:12Z</time>
      </trkpt>
      <trkpt lat="44.4485" lon="6.57755">
        <ele>2867</ele>
        <time>2021-04-08T09:47:13Z</time>
      </trkpt>
      <trkpt lat="44.4485" lon="6.57755">
        <ele>2867</ele>
        <time>2021-04-08T09:47:14Z</time>
      </trkpt>
      <trkpt lat="44.4485" lon="6.57755">
        <ele>2867</ele>
        <time>2021-04-08T09:47:15Z</time>
      </trkpt>
      <trkpt lat="44.4485" lon="6.57755">
        <ele>2867</ele>
        <time>2021-04-08T09:47:16Z</time>
      </trkpt>
      <trkpt lat="44.4485" lon="6.57755">
        <ele>2867</ele>
        <time>2021-04-08T09:47:17Z</time>
      </trkpt>
      <trkpt lat="44.4485" lon="6.57755">
        <ele>2867</ele>
        <time>2021-04-08T09:47:18Z</time>
      </trkpt>
      <trkpt lat="44.4485" lon="6.57755">
        <ele>2867</ele>
        <time>2021-04-08T09:47:19Z</time>
      </trkpt>
      <trkpt lat="44.4485" lon="6.57755">
        <ele>2867</ele>
        <time>2021-04-08T09:47:20Z</time>
      </trkpt>
      <trkpt lat="44.4485" lon="6.57755">
        <ele>2867</ele>
        <time>2021-04-08T09:47:21Z</time>
      </trkpt>
      <trkpt lat="44.4485" lon="6.57755">
        <ele>2867</ele>
        <time>2021-04-08T09:47:22Z</time>
      </trkpt>
      <trkpt lat="44.4485" lon="6.57755">
        <ele>2867</ele>
        <time>2021-04-08T09:47:23Z</time>
      </trkpt>
      <trkpt lat="44.4485" lon="6.57755">
        <ele>2867</ele>
        <time>2021-04-08T09:47:24Z</time>
      </trkpt>
      <trkpt lat="44.4485" lon="6.57755">
        <ele>2867</ele>
        <time>2021-04-08T09:47:25Z</time>
      </trkpt>
      <trkpt lat="44.4485" lon="6.57755">
        <ele>2867</ele>
        <time>2021-04-08T09:47:26Z</time>
      </trkpt>
      <trkpt lat="44.4485" lon="6.57755">
        <ele>2867</ele>
        <time>2021-04-08T09:47:27Z</time>
      </trkpt>
      <trkpt lat="44.4485" lon="6.57755">
        <ele>2867</ele>
        <time>2021-04-08T09:47:28Z</time>
      </trkpt>
      <trkpt lat="44.4485" lon="6.57755">
        <ele>2867</ele>
        <time>2021-04-08T09:47:29Z</time>
      </trkpt>
      <trkpt lat="44.4485" lon="6.57755">
        <ele>2867</ele>
        <time>2021-04-08T09:47:30Z</time>
      </trkpt>
      <trkpt lat="44.4485" lon="6.57755">
        <ele>2867</ele>
        <time>2021-04-08T09:47:31Z</time>
      </trkpt>
      <trkpt lat="44.4485" lon="6.57755">
        <ele>2867</ele>
        <time>2021-04-08T09:47:32Z</time>
      </trkpt>
      <trkpt lat="44.4485" lon="6.57755">
        <ele>2867</ele>
        <time>2021-04-08T09:47:33Z</time>
      </trkpt>
      <trkpt lat="44.4485" lon="6.57755">
        <ele>2867</ele>
        <time>2021-04-08T09:47:34Z</time>
      </trkpt>
      <trkpt lat="44.4485" lon="6.57755">
        <ele>2867</ele>
        <time>2021-04-08T09:47:35Z</time>
      </trkpt>
      <trkpt lat="44.4485" lon="6.57755">
        <ele>2867</ele>
        <time>2021-04-08T09:47:36Z</time>
      </trkpt>
      <trkpt lat="44.4485" lon="6.57755">
        <ele>2867</ele>
        <time>2021-04-08T09:47:37Z</time>
      </trkpt>
      <trkpt lat="44.4485" lon="6.57755">
        <ele>2867</ele>
        <time>2021-04-08T09:47:38Z</time>
      </trkpt>
      <trkpt lat="44.4485" lon="6.57755">
        <ele>2867</ele>
        <time>2021-04-08T09:47:39Z</time>
      </trkpt>
      <trkpt lat="44.4485" lon="6.57755">
        <ele>2867</ele>
        <time>2021-04-08T09:47:40Z</time>
      </trkpt>
      <trkpt lat="44.4485" lon="6.57755">
        <ele>2867</ele>
        <time>2021-04-08T09:47:41Z</time>
      </trkpt>
      <trkpt lat="44.4485" lon="6.57755">
        <ele>2867</ele>
        <time>2021-04-08T09:47:42Z</time>
      </trkpt>
      <trkpt lat="44.4485" lon="6.57755">
        <ele>2867</ele>
        <time>2021-04-08T09:47:43Z</time>
      </trkpt>
      <trkpt lat="44.4485" lon="6.57755">
        <ele>2867</ele>
        <time>2021-04-08T09:47:44Z</time>
      </trkpt>
      <trkpt lat="44.4485" lon="6.57755">
        <ele>2867</ele>
        <time>2021-04-08T09:47:45Z</time>
      </trkpt>
      <trkpt lat="44.4485" lon="6.57755">
        <ele>2867</ele>
        <time>2021-04-08T09:47:46Z</time>
      </trkpt>
      <trkpt lat="44.4485" lon="6.57755">
        <ele>2867</ele>
        <time>2021-04-08T09:47:47Z</time>
      </trkpt>
      <trkpt lat="44.4485" lon="6.57755">
        <ele>2867</ele>
        <time>2021-04-08T09:47:48Z</time>
      </trkpt>
      <trkpt lat="44.4485" lon="6.57755">
        <ele>2867</ele>
        <time>2021-04-08T09:47:49Z</time>
      </trkpt>
      <trkpt lat="44.4485" lon="6.57755">
        <ele>2867</ele>
        <time>2021-04-08T09:47:50Z</time>
      </trkpt>
      <trkpt lat="44.4485" lon="6.57755">
        <ele>2867</ele>
        <time>2021-04-08T09:47:51Z</time>
      </trkpt>
      <trkpt lat="44.4485" lon="6.57755">
        <ele>2867</ele>
        <time>2021-04-08T09:47:52Z</time>
      </trkpt>
      <trkpt lat="44.4485" lon="6.57755">
        <ele>2867</ele>
        <time>2021-04-08T09:47:53Z</time>
      </trkpt>
      <trkpt lat="44.4485" lon="6.57755">
        <ele>2867</ele>
        <time>2021-04-08T09:47:54Z</time>
      </trkpt>
      <trkpt lat="44.4485" lon="6.57755">
        <ele>2867</ele>
        <time>2021-04-08T09:47:55Z</time>
      </trkpt>
      <trkpt lat="44.4485" lon="6.57755">
        <ele>2867</ele>
        <time>2021-04-08T09:47:56Z</time>
      </trkpt>
      <trkpt lat="44.4485" lon="6.57755">
        <ele>2867</ele>
        <time>2021-04-08T09:47:57Z</time>
      </trkpt>
      <trkpt lat="44.4485" lon="6.57755">
        <ele>2867</ele>
        <time>2021-04-08T09:47:58Z</time>
      </trkpt>
      <trkpt lat="44.4485" lon="6.57755">
        <ele>2867</ele>
        <time>2021-04-08T09:47:59Z</time>
      </trkpt>
      <trkpt lat="44.4485" lon="6.57755">
        <ele>2867</ele>
        <time>2021-04-08T09:48:00Z</time>
      </trkpt>
      <trkpt lat="44.4485" lon="6.57755">
        <ele>2867</ele>
        <time>2021-04-08T09:48:01Z</time>
      </trkpt>
      <trkpt lat="44.4485" lon="6.57755">
        <ele>2867</ele>
        <time>2021-04-08T09:48:02Z</time>
      </trkpt>
      <trkpt lat="44.4485" lon="6.57755">
        <ele>2867</ele>
        <time>2021-04-08T09:48:03Z</time>
      </trkpt>
      <trkpt lat="44.4485" lon="6.57755">
        <ele>2867</ele>
        <time>2021-04-08T09:48:04Z</time>
      </trkpt>
      <trkpt lat="44.4485" lon="6.57755">
        <ele>2867</ele>
        <time>2021-04-08T09:48:05Z</time>
      </trkpt>
      <trkpt lat="44.4485" lon="6.57755">
        <ele>2867</ele>
        <time>2021-04-08T09:48:06Z</time>
      </trkpt>
      <trkpt lat="44.4485" lon="6.57755">
        <ele>2867</ele>
        <time>2021-04-08T09:48:07Z</time>
      </trkpt>
      <trkpt lat="44.4485" lon="6.57755">
        <ele>2867</ele>
        <time>2021-04-08T09:48:08Z</time>
      </trkpt>
      <trkpt lat="44.4485" lon="6.57755">
        <ele>2867</ele>
        <time>2021-04-08T09:48:09Z</time>
      </trkpt>
      <trkpt lat="44.4485" lon="6.57755">
        <ele>2867</ele>
        <time>2021-04-08T09:48:10Z</time>
      </trkpt>
      <trkpt lat="44.4485" lon="6.57755">
        <ele>2867</ele>
        <time>2021-04-08T09:48:11Z</time>
      </trkpt>
      <trkpt lat="44.4485" lon="6.57755">
        <ele>2867</ele>
        <time>2021-04-08T09:48:12Z</time>
      </trkpt>
      <trkpt lat="44.4485" lon="6.57755">
        <ele>2867</ele>
        <time>2021-04-08T09:48:13Z</time>
      </trkpt>
      <trkpt lat="44.4485" lon="6.57755">
        <ele>2867</ele>
        <time>2021-04-08T09:48:14Z</time>
      </trkpt>
      <trkpt lat="44.4485" lon="6.57755">
        <ele>2867</ele>
        <time>2021-04-08T09:48:15Z</time>
      </trkpt>
      <trkpt lat="44.44851" lon="6.57757">
        <ele>2867</ele>
        <time>2021-04-08T09:48:17Z</time>
      </trkpt>
      <trkpt lat="44.44851" lon="6.57757">
        <ele>2867</ele>
        <time>2021-04-08T09:48:18Z</time>
      </trkpt>
      <trkpt lat="44.4485" lon="6.57757">
        <ele>2867</ele>
        <time>2021-04-08T09:48:19Z</time>
      </trkpt>
      <trkpt lat="44.44851" lon="6.57757">
        <ele>2867</ele>
        <time>2021-04-08T09:48:20Z</time>
      </trkpt>
      <trkpt lat="44.44851" lon="6.57757">
        <ele>2867</ele>
        <time>2021-04-08T09:48:21Z</time>
      </trkpt>
      <trkpt lat="44.44851" lon="6.57757">
        <ele>2867</ele>
        <time>2021-04-08T09:48:22Z</time>
      </trkpt>
      <trkpt lat="44.44851" lon="6.57757">
        <ele>2867</ele>
        <time>2021-04-08T09:48:23Z</time>
      </trkpt>
      <trkpt lat="44.44851" lon="6.57757">
        <ele>2867</ele>
        <time>2021-04-08T09:48:24Z</time>
      </trkpt>
      <trkpt lat="44.44851" lon="6.57757">
        <ele>2867</ele>
        <time>2021-04-08T09:48:25Z</time>
      </trkpt>
      <trkpt lat="44.44851" lon="6.57757">
        <ele>2867</ele>
        <time>2021-04-08T09:48:26Z</time>
      </trkpt>
      <trkpt lat="44.44851" lon="6.57757">
        <ele>2867</ele>
        <time>2021-04-08T09:48:27Z</time>
      </trkpt>
      <trkpt lat="44.44851" lon="6.57757">
        <ele>2867</ele>
        <time>2021-04-08T09:48:28Z</time>
      </trkpt>
      <trkpt lat="44.44851" lon="6.57757">
        <ele>2867</ele>
        <time>2021-04-08T09:48:29Z</time>
      </trkpt>
      <trkpt lat="44.44851" lon="6.57757">
        <ele>2867</ele>
        <time>2021-04-08T09:48:30Z</time>
      </trkpt>
      <trkpt lat="44.44851" lon="6.57757">
        <ele>2867</ele>
        <time>2021-04-08T09:48:31Z</time>
      </trkpt>
      <trkpt lat="44.44851" lon="6.57757">
        <ele>2867</ele>
        <time>2021-04-08T09:48:32Z</time>
      </trkpt>
      <trkpt lat="44.44851" lon="6.57757">
        <ele>2867</ele>
        <time>2021-04-08T09:48:33Z</time>
      </trkpt>
      <trkpt lat="44.44851" lon="6.57757">
        <ele>2867</ele>
        <time>2021-04-08T09:48:34Z</time>
      </trkpt>
      <trkpt lat="44.44851" lon="6.57757">
        <ele>2867</ele>
        <time>2021-04-08T09:48:35Z</time>
      </trkpt>
      <trkpt lat="44.44851" lon="6.57757">
        <ele>2867</ele>
        <time>2021-04-08T09:48:36Z</time>
      </trkpt>
      <trkpt lat="44.44851" lon="6.57757">
        <ele>2867</ele>
        <time>2021-04-08T09:48:37Z</time>
      </trkpt>
      <trkpt lat="44.44851" lon="6.57757">
        <ele>2867</ele>
        <time>2021-04-08T09:48:38Z</time>
      </trkpt>
      <trkpt lat="44.44851" lon="6.57757">
        <ele>2867</ele>
        <time>2021-04-08T09:48:39Z</time>
      </trkpt>
      <trkpt lat="44.44851" lon="6.57757">
        <ele>2867</ele>
        <time>2021-04-08T09:48:40Z</time>
      </trkpt>
      <trkpt lat="44.44851" lon="6.57757">
        <ele>2867</ele>
        <time>2021-04-08T09:48:41Z</time>
      </trkpt>
      <trkpt lat="44.44851" lon="6.57757">
        <ele>2867</ele>
        <time>2021-04-08T09:48:42Z</time>
      </trkpt>
      <trkpt lat="44.44851" lon="6.57757">
        <ele>2866</ele>
        <time>2021-04-08T09:48:43Z</time>
      </trkpt>
      <trkpt lat="44.44851" lon="6.57757">
        <ele>2866</ele>
        <time>2021-04-08T09:48:44Z</time>
      </trkpt>
      <trkpt lat="44.44851" lon="6.57757">
        <ele>2866</ele>
        <time>2021-04-08T09:48:45Z</time>
      </trkpt>
      <trkpt lat="44.44851" lon="6.57757">
        <ele>2866</ele>
        <time>2021-04-08T09:48:46Z</time>
      </trkpt>
      <trkpt lat="44.44851" lon="6.57757">
        <ele>2866</ele>
        <time>2021-04-08T09:48:47Z</time>
      </trkpt>
      <trkpt lat="44.44851" lon="6.57757">
        <ele>2866</ele>
        <time>2021-04-08T09:48:48Z</time>
      </trkpt>
      <trkpt lat="44.44851" lon="6.57757">
        <ele>2866</ele>
        <time>2021-04-08T09:48:49Z</time>
      </trkpt>
      <trkpt lat="44.44851" lon="6.57757">
        <ele>2866</ele>
        <time>2021-04-08T09:48:50Z</time>
      </trkpt>
      <trkpt lat="44.44851" lon="6.57757">
        <ele>2866</ele>
        <time>2021-04-08T09:48:51Z</time>
      </trkpt>
      <trkpt lat="44.44851" lon="6.57757">
        <ele>2866</ele>
        <time>2021-04-08T09:48:52Z</time>
      </trkpt>
      <trkpt lat="44.44851" lon="6.57757">
        <ele>2866</ele>
        <time>2021-04-08T09:48:53Z</time>
      </trkpt>
      <trkpt lat="44.44851" lon="6.57757">
        <ele>2866</ele>
        <time>2021-04-08T09:48:54Z</time>
      </trkpt>
      <trkpt lat="44.44851" lon="6.57757">
        <ele>2866</ele>
        <time>2021-04-08T09:48:55Z</time>
      </trkpt>
      <trkpt lat="44.44851" lon="6.57757">
        <ele>2866</ele>
        <time>2021-04-08T09:48:56Z</time>
      </trkpt>
      <trkpt lat="44.44851" lon="6.57757">
        <ele>2866</ele>
        <time>2021-04-08T09:48:57Z</time>
      </trkpt>
      <trkpt lat="44.44851" lon="6.57757">
        <ele>2866</ele>
        <time>2021-04-08T09:48:58Z</time>
      </trkpt>
      <trkpt lat="44.44851" lon="6.57757">
        <ele>2866</ele>
        <time>2021-04-08T09:48:59Z</time>
      </trkpt>
      <trkpt lat="44.44851" lon="6.57757">
        <ele>2866</ele>
        <time>2021-04-08T09:49:00Z</time>
      </trkpt>
      <trkpt lat="44.44851" lon="6.57757">
        <ele>2866</ele>
        <time>2021-04-08T09:49:01Z</time>
      </trkpt>
      <trkpt lat="44.44851" lon="6.57757">
        <ele>2866</ele>
        <time>2021-04-08T09:49:02Z</time>
      </trkpt>
      <trkpt lat="44.44851" lon="6.57757">
        <ele>2866</ele>
        <time>2021-04-08T09:49:03Z</time>
      </trkpt>
      <trkpt lat="44.44851" lon="6.57757">
        <ele>2866</ele>
        <time>2021-04-08T09:49:04Z</time>
      </trkpt>
      <trkpt lat="44.44851" lon="6.57757">
        <ele>2866</ele>
        <time>2021-04-08T09:49:05Z</time>
      </trkpt>
      <trkpt lat="44.44851" lon="6.57757">
        <ele>2866</ele>
        <time>2021-04-08T09:49:06Z</time>
      </trkpt>
      <trkpt lat="44.44851" lon="6.57757">
        <ele>2866</ele>
        <time>2021-04-08T09:49:07Z</time>
      </trkpt>
      <trkpt lat="44.44851" lon="6.57757">
        <ele>2866</ele>
        <time>2021-04-08T09:49:08Z</time>
      </trkpt>
      <trkpt lat="44.44851" lon="6.57757">
        <ele>2866</ele>
        <time>2021-04-08T09:49:09Z</time>
      </trkpt>
      <trkpt lat="44.44851" lon="6.57757">
        <ele>2866</ele>
        <time>2021-04-08T09:49:10Z</time>
      </trkpt>
      <trkpt lat="44.44851" lon="6.57757">
        <ele>2866</ele>
        <time>2021-04-08T09:49:11Z</time>
      </trkpt>
      <trkpt lat="44.44851" lon="6.57757">
        <ele>2866</ele>
        <time>2021-04-08T09:49:12Z</time>
      </trkpt>
      <trkpt lat="44.44851" lon="6.57757">
        <ele>2866</ele>
        <time>2021-04-08T09:49:13Z</time>
      </trkpt>
      <trkpt lat="44.44851" lon="6.57757">
        <ele>2866</ele>
        <time>2021-04-08T09:49:14Z</time>
      </trkpt>
      <trkpt lat="44.44851" lon="6.57757">
        <ele>2866</ele>
        <time>2021-04-08T09:49:15Z</time>
      </trkpt>
      <trkpt lat="44.44851" lon="6.57757">
        <ele>2866</ele>
        <time>2021-04-08T09:49:16Z</time>
      </trkpt>
      <trkpt lat="44.44851" lon="6.57757">
        <ele>2866</ele>
        <time>2021-04-08T09:49:17Z</time>
      </trkpt>
      <trkpt lat="44.44851" lon="6.57757">
        <ele>2866</ele>
        <time>2021-04-08T09:49:18Z</time>
      </trkpt>
      <trkpt lat="44.44851" lon="6.57757">
        <ele>2866</ele>
        <time>2021-04-08T09:49:19Z</time>
      </trkpt>
      <trkpt lat="44.44851" lon="6.57757">
        <ele>2866</ele>
        <time>2021-04-08T09:49:20Z</time>
      </trkpt>
      <trkpt lat="44.44851" lon="6.57757">
        <ele>2866</ele>
        <time>2021-04-08T09:49:21Z</time>
      </trkpt>
      <trkpt lat="44.44851" lon="6.57757">
        <ele>2866</ele>
        <time>2021-04-08T09:49:22Z</time>
      </trkpt>
      <trkpt lat="44.44851" lon="6.57757">
        <ele>2866</ele>
        <time>2021-04-08T09:49:23Z</time>
      </trkpt>
      <trkpt lat="44.44851" lon="6.57757">
        <ele>2866</ele>
        <time>2021-04-08T09:49:24Z</time>
      </trkpt>
      <trkpt lat="44.44851" lon="6.57757">
        <ele>2866</ele>
        <time>2021-04-08T09:49:25Z</time>
      </trkpt>
      <trkpt lat="44.44851" lon="6.57757">
        <ele>2866</ele>
        <time>2021-04-08T09:49:26Z</time>
      </trkpt>
      <trkpt lat="44.44853" lon="6.57757">
        <ele>2865</ele>
        <time>2021-04-08T09:49:27Z</time>
      </trkpt>
      <trkpt lat="44.44852" lon="6.57757">
        <ele>2864</ele>
        <time>2021-04-08T09:49:28Z</time>
      </trkpt>
      <trkpt lat="44.44852" lon="6.57757">
        <ele>2864</ele>
        <time>2021-04-08T09:49:29Z</time>
      </trkpt>
      <trkpt lat="44.44852" lon="6.57757">
        <ele>2864</ele>
        <time>2021-04-08T09:49:30Z</time>
      </trkpt>
      <trkpt lat="44.44852" lon="6.57757">
        <ele>2864</ele>
        <time>2021-04-08T09:49:31Z</time>
      </trkpt>
      <trkpt lat="44.44852" lon="6.57757">
        <ele>2864</ele>
        <time>2021-04-08T09:49:32Z</time>
      </trkpt>
      <trkpt lat="44.44852" lon="6.57757">
        <ele>2864</ele>
        <time>2021-04-08T09:49:33Z</time>
      </trkpt>
      <trkpt lat="44.44852" lon="6.57757">
        <ele>2864</ele>
        <time>2021-04-08T09:49:34Z</time>
      </trkpt>
      <trkpt lat="44.44852" lon="6.57757">
        <ele>2864</ele>
        <time>2021-04-08T09:49:35Z</time>
      </trkpt>
      <trkpt lat="44.44852" lon="6.57757">
        <ele>2864</ele>
        <time>2021-04-08T09:49:36Z</time>
      </trkpt>
      <trkpt lat="44.44852" lon="6.57757">
        <ele>2864</ele>
        <time>2021-04-08T09:49:37Z</time>
      </trkpt>
      <trkpt lat="44.44852" lon="6.57757">
        <ele>2863</ele>
        <time>2021-04-08T09:49:38Z</time>
      </trkpt>
      <trkpt lat="44.44852" lon="6.57757">
        <ele>2863</ele>
        <time>2021-04-08T09:49:39Z</time>
      </trkpt>
      <trkpt lat="44.44852" lon="6.57757">
        <ele>2863</ele>
        <time>2021-04-08T09:49:40Z</time>
      </trkpt>
      <trkpt lat="44.44852" lon="6.57757">
        <ele>2863</ele>
        <time>2021-04-08T09:49:41Z</time>
      </trkpt>
      <trkpt lat="44.44852" lon="6.57757">
        <ele>2863</ele>
        <time>2021-04-08T09:49:42Z</time>
      </trkpt>
      <trkpt lat="44.44852" lon="6.57757">
        <ele>2863</ele>
        <time>2021-04-08T09:49:43Z</time>
      </trkpt>
      <trkpt lat="44.44852" lon="6.57757">
        <ele>2863</ele>
        <time>2021-04-08T09:49:44Z</time>
      </trkpt>
      <trkpt lat="44.44852" lon="6.57757">
        <ele>2863</ele>
        <time>2021-04-08T09:49:45Z</time>
      </trkpt>
      <trkpt lat="44.44852" lon="6.57757">
        <ele>2863</ele>
        <time>2021-04-08T09:49:46Z</time>
      </trkpt>
      <trkpt lat="44.44852" lon="6.57757">
        <ele>2863</ele>
        <time>2021-04-08T09:49:47Z</time>
      </trkpt>
      <trkpt lat="44.44852" lon="6.57757">
        <ele>2863</ele>
        <time>2021-04-08T09:49:48Z</time>
      </trkpt>
      <trkpt lat="44.44852" lon="6.57757">
        <ele>2863</ele>
        <time>2021-04-08T09:49:49Z</time>
      </trkpt>
      <trkpt lat="44.44852" lon="6.57757">
        <ele>2863</ele>
        <time>2021-04-08T09:49:50Z</time>
      </trkpt>
      <trkpt lat="44.44852" lon="6.57757">
        <ele>2863</ele>
        <time>2021-04-08T09:49:51Z</time>
      </trkpt>
      <trkpt lat="44.44852" lon="6.57757">
        <ele>2863</ele>
        <time>2021-04-08T09:49:52Z</time>
      </trkpt>
      <trkpt lat="44.44852" lon="6.57757">
        <ele>2863</ele>
        <time>2021-04-08T09:49:53Z</time>
      </trkpt>
      <trkpt lat="44.44852" lon="6.57757">
        <ele>2863</ele>
        <time>2021-04-08T09:49:54Z</time>
      </trkpt>
      <trkpt lat="44.44852" lon="6.57757">
        <ele>2863</ele>
        <time>2021-04-08T09:49:55Z</time>
      </trkpt>
      <trkpt lat="44.44852" lon="6.57759">
        <ele>2863</ele>
        <time>2021-04-08T09:49:56Z</time>
      </trkpt>
      <trkpt lat="44.44852" lon="6.5776">
        <ele>2863</ele>
        <time>2021-04-08T09:49:57Z</time>
      </trkpt>
      <trkpt lat="44.44852" lon="6.5776">
        <ele>2863</ele>
        <time>2021-04-08T09:49:58Z</time>
      </trkpt>
      <trkpt lat="44.44852" lon="6.5776">
        <ele>2864</ele>
        <time>2021-04-08T09:49:59Z</time>
      </trkpt>
      <trkpt lat="44.44852" lon="6.5776">
        <ele>2864</ele>
        <time>2021-04-08T09:50:00Z</time>
      </trkpt>
      <trkpt lat="44.44852" lon="6.5776">
        <ele>2864</ele>
        <time>2021-04-08T09:50:01Z</time>
      </trkpt>
      <trkpt lat="44.44852" lon="6.5776">
        <ele>2864</ele>
        <time>2021-04-08T09:50:02Z</time>
      </trkpt>
      <trkpt lat="44.44852" lon="6.5776">
        <ele>2864</ele>
        <time>2021-04-08T09:50:03Z</time>
      </trkpt>
      <trkpt lat="44.44852" lon="6.5776">
        <ele>2864</ele>
        <time>2021-04-08T09:50:04Z</time>
      </trkpt>
      <trkpt lat="44.44852" lon="6.5776">
        <ele>2864</ele>
        <time>2021-04-08T09:50:05Z</time>
      </trkpt>
      <trkpt lat="44.44852" lon="6.5776">
        <ele>2864</ele>
        <time>2021-04-08T09:50:06Z</time>
      </trkpt>
      <trkpt lat="44.44852" lon="6.5776">
        <ele>2864</ele>
        <time>2021-04-08T09:50:07Z</time>
      </trkpt>
      <trkpt lat="44.44852" lon="6.5776">
        <ele>2864</ele>
        <time>2021-04-08T09:50:08Z</time>
      </trkpt>
      <trkpt lat="44.44852" lon="6.5776">
        <ele>2864</ele>
        <time>2021-04-08T09:50:09Z</time>
      </trkpt>
      <trkpt lat="44.44852" lon="6.5776">
        <ele>2864</ele>
        <time>2021-04-08T09:50:10Z</time>
      </trkpt>
      <trkpt lat="44.44852" lon="6.5776">
        <ele>2864</ele>
        <time>2021-04-08T09:50:11Z</time>
      </trkpt>
      <trkpt lat="44.44852" lon="6.5776">
        <ele>2864</ele>
        <time>2021-04-08T09:50:12Z</time>
      </trkpt>
      <trkpt lat="44.44852" lon="6.5776">
        <ele>2864</ele>
        <time>2021-04-08T09:50:13Z</time>
      </trkpt>
      <trkpt lat="44.44852" lon="6.5776">
        <ele>2864</ele>
        <time>2021-04-08T09:50:14Z</time>
      </trkpt>
      <trkpt lat="44.44852" lon="6.5776">
        <ele>2864</ele>
        <time>2021-04-08T09:50:15Z</time>
      </trkpt>
      <trkpt lat="44.44852" lon="6.5776">
        <ele>2864</ele>
        <time>2021-04-08T09:50:16Z</time>
      </trkpt>
      <trkpt lat="44.44852" lon="6.5776">
        <ele>2864</ele>
        <time>2021-04-08T09:50:17Z</time>
      </trkpt>
      <trkpt lat="44.44852" lon="6.5776">
        <ele>2864</ele>
        <time>2021-04-08T09:50:18Z</time>
      </trkpt>
      <trkpt lat="44.44852" lon="6.5776">
        <ele>2864</ele>
        <time>2021-04-08T09:50:19Z</time>
      </trkpt>
      <trkpt lat="44.44852" lon="6.5776">
        <ele>2864</ele>
        <time>2021-04-08T09:50:20Z</time>
      </trkpt>
      <trkpt lat="44.44852" lon="6.5776">
        <ele>2864</ele>
        <time>2021-04-08T09:50:21Z</time>
      </trkpt>
      <trkpt lat="44.44852" lon="6.5776">
        <ele>2864</ele>
        <time>2021-04-08T09:50:22Z</time>
      </trkpt>
      <trkpt lat="44.44852" lon="6.5776">
        <ele>2864</ele>
        <time>2021-04-08T09:50:23Z</time>
      </trkpt>
      <trkpt lat="44.44852" lon="6.5776">
        <ele>2864</ele>
        <time>2021-04-08T09:50:24Z</time>
      </trkpt>
      <trkpt lat="44.44852" lon="6.5776">
        <ele>2864</ele>
        <time>2021-04-08T09:50:25Z</time>
      </trkpt>
      <trkpt lat="44.44852" lon="6.5776">
        <ele>2864</ele>
        <time>2021-04-08T09:50:26Z</time>
      </trkpt>
      <trkpt lat="44.44852" lon="6.5776">
        <ele>2864</ele>
        <time>2021-04-08T09:50:27Z</time>
      </trkpt>
      <trkpt lat="44.44852" lon="6.5776">
        <ele>2864</ele>
        <time>2021-04-08T09:50:28Z</time>
      </trkpt>
      <trkpt lat="44.44852" lon="6.5776">
        <ele>2864</ele>
        <time>2021-04-08T09:50:29Z</time>
      </trkpt>
      <trkpt lat="44.44852" lon="6.5776">
        <ele>2864</ele>
        <time>2021-04-08T09:50:30Z</time>
      </trkpt>
      <trkpt lat="44.44852" lon="6.5776">
        <ele>2864</ele>
        <time>2021-04-08T09:50:31Z</time>
      </trkpt>
      <trkpt lat="44.44852" lon="6.5776">
        <ele>2864</ele>
        <time>2021-04-08T09:50:32Z</time>
      </trkpt>
      <trkpt lat="44.44852" lon="6.5776">
        <ele>2864</ele>
        <time>2021-04-08T09:50:33Z</time>
      </trkpt>
      <trkpt lat="44.44852" lon="6.5776">
        <ele>2864</ele>
        <time>2021-04-08T09:50:34Z</time>
      </trkpt>
      <trkpt lat="44.44852" lon="6.5776">
        <ele>2864</ele>
        <time>2021-04-08T09:50:35Z</time>
      </trkpt>
      <trkpt lat="44.44852" lon="6.5776">
        <ele>2864</ele>
        <time>2021-04-08T09:50:36Z</time>
      </trkpt>
      <trkpt lat="44.44852" lon="6.5776">
        <ele>2864</ele>
        <time>2021-04-08T09:50:37Z</time>
      </trkpt>
      <trkpt lat="44.44852" lon="6.5776">
        <ele>2864</ele>
        <time>2021-04-08T09:50:38Z</time>
      </trkpt>
      <trkpt lat="44.44852" lon="6.5776">
        <ele>2864</ele>
        <time>2021-04-08T09:50:39Z</time>
      </trkpt>
      <trkpt lat="44.44852" lon="6.5776">
        <ele>2864</ele>
        <time>2021-04-08T09:50:40Z</time>
      </trkpt>
      <trkpt lat="44.44852" lon="6.5776">
        <ele>2864</ele>
        <time>2021-04-08T09:50:41Z</time>
      </trkpt>
      <trkpt lat="44.44852" lon="6.5776">
        <ele>2864</ele>
        <time>2021-04-08T09:50:42Z</time>
      </trkpt>
      <trkpt lat="44.44852" lon="6.5776">
        <ele>2864</ele>
        <time>2021-04-08T09:50:43Z</time>
      </trkpt>
      <trkpt lat="44.44852" lon="6.5776">
        <ele>2864</ele>
        <time>2021-04-08T09:50:44Z</time>
      </trkpt>
      <trkpt lat="44.44852" lon="6.5776">
        <ele>2864</ele>
        <time>2021-04-08T09:50:45Z</time>
      </trkpt>
      <trkpt lat="44.44852" lon="6.5776">
        <ele>2864</ele>
        <time>2021-04-08T09:50:46Z</time>
      </trkpt>
      <trkpt lat="44.44852" lon="6.5776">
        <ele>2864</ele>
        <time>2021-04-08T09:50:47Z</time>
      </trkpt>
      <trkpt lat="44.44852" lon="6.5776">
        <ele>2864</ele>
        <time>2021-04-08T09:50:48Z</time>
      </trkpt>
      <trkpt lat="44.44852" lon="6.5776">
        <ele>2864</ele>
        <time>2021-04-08T09:50:49Z</time>
      </trkpt>
      <trkpt lat="44.44852" lon="6.5776">
        <ele>2864</ele>
        <time>2021-04-08T09:50:50Z</time>
      </trkpt>
      <trkpt lat="44.44852" lon="6.5776">
        <ele>2864</ele>
        <time>2021-04-08T09:50:51Z</time>
      </trkpt>
      <trkpt lat="44.44852" lon="6.5776">
        <ele>2864</ele>
        <time>2021-04-08T09:50:52Z</time>
      </trkpt>
      <trkpt lat="44.44852" lon="6.5776">
        <ele>2864</ele>
        <time>2021-04-08T09:50:53Z</time>
      </trkpt>
      <trkpt lat="44.44852" lon="6.5776">
        <ele>2864</ele>
        <time>2021-04-08T09:50:54Z</time>
      </trkpt>
      <trkpt lat="44.44852" lon="6.5776">
        <ele>2864</ele>
        <time>2021-04-08T09:50:55Z</time>
      </trkpt>
      <trkpt lat="44.44852" lon="6.5776">
        <ele>2864</ele>
        <time>2021-04-08T09:50:56Z</time>
      </trkpt>
      <trkpt lat="44.44852" lon="6.5776">
        <ele>2864</ele>
        <time>2021-04-08T09:50:57Z</time>
      </trkpt>
      <trkpt lat="44.44852" lon="6.5776">
        <ele>2864</ele>
        <time>2021-04-08T09:50:58Z</time>
      </trkpt>
      <trkpt lat="44.44852" lon="6.5776">
        <ele>2864</ele>
        <time>2021-04-08T09:50:59Z</time>
      </trkpt>
      <trkpt lat="44.44852" lon="6.5776">
        <ele>2864</ele>
        <time>2021-04-08T09:51:00Z</time>
      </trkpt>
      <trkpt lat="44.44852" lon="6.5776">
        <ele>2864</ele>
        <time>2021-04-08T09:51:01Z</time>
      </trkpt>
      <trkpt lat="44.44852" lon="6.5776">
        <ele>2864</ele>
        <time>2021-04-08T09:51:02Z</time>
      </trkpt>
      <trkpt lat="44.44852" lon="6.5776">
        <ele>2864</ele>
        <time>2021-04-08T09:51:03Z</time>
      </trkpt>
      <trkpt lat="44.44852" lon="6.5776">
        <ele>2864</ele>
        <time>2021-04-08T09:51:04Z</time>
      </trkpt>
      <trkpt lat="44.44852" lon="6.5776">
        <ele>2864</ele>
        <time>2021-04-08T09:51:05Z</time>
      </trkpt>
      <trkpt lat="44.44852" lon="6.5776">
        <ele>2864</ele>
        <time>2021-04-08T09:51:06Z</time>
      </trkpt>
      <trkpt lat="44.44852" lon="6.5776">
        <ele>2864</ele>
        <time>2021-04-08T09:51:07Z</time>
      </trkpt>
      <trkpt lat="44.44852" lon="6.5776">
        <ele>2864</ele>
        <time>2021-04-08T09:51:08Z</time>
      </trkpt>
      <trkpt lat="44.44852" lon="6.5776">
        <ele>2864</ele>
        <time>2021-04-08T09:51:09Z</time>
      </trkpt>
      <trkpt lat="44.44852" lon="6.5776">
        <ele>2864</ele>
        <time>2021-04-08T09:51:10Z</time>
      </trkpt>
      <trkpt lat="44.44852" lon="6.5776">
        <ele>2864</ele>
        <time>2021-04-08T09:51:11Z</time>
      </trkpt>
      <trkpt lat="44.44852" lon="6.5776">
        <ele>2864</ele>
        <time>2021-04-08T09:51:12Z</time>
      </trkpt>
      <trkpt lat="44.44852" lon="6.5776">
        <ele>2864</ele>
        <time>2021-04-08T09:51:13Z</time>
      </trkpt>
      <trkpt lat="44.44852" lon="6.5776">
        <ele>2864</ele>
        <time>2021-04-08T09:51:14Z</time>
      </trkpt>
      <trkpt lat="44.44852" lon="6.5776">
        <ele>2864</ele>
        <time>2021-04-08T09:51:15Z</time>
      </trkpt>
      <trkpt lat="44.44852" lon="6.5776">
        <ele>2864</ele>
        <time>2021-04-08T09:51:16Z</time>
      </trkpt>
      <trkpt lat="44.44852" lon="6.5776">
        <ele>2864</ele>
        <time>2021-04-08T09:51:17Z</time>
      </trkpt>
      <trkpt lat="44.44852" lon="6.5776">
        <ele>2864</ele>
        <time>2021-04-08T09:51:18Z</time>
      </trkpt>
      <trkpt lat="44.44852" lon="6.5776">
        <ele>2864</ele>
        <time>2021-04-08T09:51:19Z</time>
      </trkpt>
      <trkpt lat="44.44851" lon="6.5776">
        <ele>2864</ele>
        <time>2021-04-08T09:51:20Z</time>
      </trkpt>
      <trkpt lat="44.44851" lon="6.5776">
        <ele>2864</ele>
        <time>2021-04-08T09:51:21Z</time>
      </trkpt>
      <trkpt lat="44.44851" lon="6.5776">
        <ele>2864</ele>
        <time>2021-04-08T09:51:22Z</time>
      </trkpt>
      <trkpt lat="44.44852" lon="6.5776">
        <ele>2864</ele>
        <time>2021-04-08T09:51:23Z</time>
      </trkpt>
      <trkpt lat="44.44852" lon="6.57761">
        <ele>2864</ele>
        <time>2021-04-08T09:51:24Z</time>
      </trkpt>
      <trkpt lat="44.44852" lon="6.57761">
        <ele>2864</ele>
        <time>2021-04-08T09:51:25Z</time>
      </trkpt>
      <trkpt lat="44.44852" lon="6.57761">
        <ele>2864</ele>
        <time>2021-04-08T09:51:26Z</time>
      </trkpt>
      <trkpt lat="44.44852" lon="6.57761">
        <ele>2864</ele>
        <time>2021-04-08T09:51:27Z</time>
      </trkpt>
      <trkpt lat="44.44852" lon="6.57761">
        <ele>2864</ele>
        <time>2021-04-08T09:51:28Z</time>
      </trkpt>
      <trkpt lat="44.44852" lon="6.57761">
        <ele>2864</ele>
        <time>2021-04-08T09:51:29Z</time>
      </trkpt>
      <trkpt lat="44.44852" lon="6.57761">
        <ele>2864</ele>
        <time>2021-04-08T09:51:30Z</time>
      </trkpt>
      <trkpt lat="44.44852" lon="6.57761">
        <ele>2864</ele>
        <time>2021-04-08T09:51:31Z</time>
      </trkpt>
      <trkpt lat="44.44852" lon="6.57761">
        <ele>2864</ele>
        <time>2021-04-08T09:51:32Z</time>
      </trkpt>
      <trkpt lat="44.44852" lon="6.57761">
        <ele>2864</ele>
        <time>2021-04-08T09:51:33Z</time>
      </trkpt>
      <trkpt lat="44.44852" lon="6.57761">
        <ele>2864</ele>
        <time>2021-04-08T09:51:34Z</time>
      </trkpt>
      <trkpt lat="44.44852" lon="6.57761">
        <ele>2864</ele>
        <time>2021-04-08T09:51:35Z</time>
      </trkpt>
      <trkpt lat="44.44852" lon="6.57761">
        <ele>2864</ele>
        <time>2021-04-08T09:51:36Z</time>
      </trkpt>
      <trkpt lat="44.44852" lon="6.57761">
        <ele>2864</ele>
        <time>2021-04-08T09:51:37Z</time>
      </trkpt>
      <trkpt lat="44.44852" lon="6.57761">
        <ele>2864</ele>
        <time>2021-04-08T09:51:38Z</time>
      </trkpt>
      <trkpt lat="44.44852" lon="6.57761">
        <ele>2864</ele>
        <time>2021-04-08T09:51:39Z</time>
      </trkpt>
      <trkpt lat="44.44852" lon="6.57761">
        <ele>2864</ele>
        <time>2021-04-08T09:51:40Z</time>
      </trkpt>
      <trkpt lat="44.44852" lon="6.57761">
        <ele>2864</ele>
        <time>2021-04-08T09:51:41Z</time>
      </trkpt>
      <trkpt lat="44.44852" lon="6.57761">
        <ele>2864</ele>
        <time>2021-04-08T09:51:42Z</time>
      </trkpt>
      <trkpt lat="44.44852" lon="6.57761">
        <ele>2864</ele>
        <time>2021-04-08T09:51:43Z</time>
      </trkpt>
      <trkpt lat="44.44852" lon="6.57761">
        <ele>2864</ele>
        <time>2021-04-08T09:51:44Z</time>
      </trkpt>
      <trkpt lat="44.44852" lon="6.57761">
        <ele>2864</ele>
        <time>2021-04-08T09:51:45Z</time>
      </trkpt>
      <trkpt lat="44.44852" lon="6.57761">
        <ele>2864</ele>
        <time>2021-04-08T09:51:46Z</time>
      </trkpt>
      <trkpt lat="44.44852" lon="6.57761">
        <ele>2864</ele>
        <time>2021-04-08T09:51:47Z</time>
      </trkpt>
      <trkpt lat="44.44852" lon="6.57761">
        <ele>2864</ele>
        <time>2021-04-08T09:51:48Z</time>
      </trkpt>
      <trkpt lat="44.44852" lon="6.57761">
        <ele>2864</ele>
        <time>2021-04-08T09:51:49Z</time>
      </trkpt>
      <trkpt lat="44.44852" lon="6.57761">
        <ele>2864</ele>
        <time>2021-04-08T09:51:50Z</time>
      </trkpt>
      <trkpt lat="44.44852" lon="6.57761">
        <ele>2864</ele>
        <time>2021-04-08T09:51:51Z</time>
      </trkpt>
      <trkpt lat="44.44852" lon="6.57761">
        <ele>2864</ele>
        <time>2021-04-08T09:51:52Z</time>
      </trkpt>
      <trkpt lat="44.44852" lon="6.57761">
        <ele>2864</ele>
        <time>2021-04-08T09:51:53Z</time>
      </trkpt>
      <trkpt lat="44.44852" lon="6.57761">
        <ele>2864</ele>
        <time>2021-04-08T09:51:54Z</time>
      </trkpt>
      <trkpt lat="44.44852" lon="6.57761">
        <ele>2864</ele>
        <time>2021-04-08T09:51:55Z</time>
      </trkpt>
      <trkpt lat="44.44852" lon="6.57761">
        <ele>2864</ele>
        <time>2021-04-08T09:51:56Z</time>
      </trkpt>
      <trkpt lat="44.44852" lon="6.57761">
        <ele>2864</ele>
        <time>2021-04-08T09:51:57Z</time>
      </trkpt>
      <trkpt lat="44.44852" lon="6.57761">
        <ele>2864</ele>
        <time>2021-04-08T09:51:58Z</time>
      </trkpt>
      <trkpt lat="44.44852" lon="6.57761">
        <ele>2864</ele>
        <time>2021-04-08T09:51:59Z</time>
      </trkpt>
      <trkpt lat="44.44852" lon="6.57761">
        <ele>2864</ele>
        <time>2021-04-08T09:52:00Z</time>
      </trkpt>
      <trkpt lat="44.44852" lon="6.57761">
        <ele>2864</ele>
        <time>2021-04-08T09:52:01Z</time>
      </trkpt>
      <trkpt lat="44.44852" lon="6.57761">
        <ele>2864</ele>
        <time>2021-04-08T09:52:02Z</time>
      </trkpt>
      <trkpt lat="44.44852" lon="6.57761">
        <ele>2864</ele>
        <time>2021-04-08T09:52:03Z</time>
      </trkpt>
      <trkpt lat="44.44852" lon="6.57761">
        <ele>2864</ele>
        <time>2021-04-08T09:52:04Z</time>
      </trkpt>
      <trkpt lat="44.44852" lon="6.57761">
        <ele>2864</ele>
        <time>2021-04-08T09:52:05Z</time>
      </trkpt>
      <trkpt lat="44.44852" lon="6.57761">
        <ele>2864</ele>
        <time>2021-04-08T09:52:06Z</time>
      </trkpt>
      <trkpt lat="44.44852" lon="6.57761">
        <ele>2864</ele>
        <time>2021-04-08T09:52:07Z</time>
      </trkpt>
      <trkpt lat="44.44852" lon="6.57761">
        <ele>2864</ele>
        <time>2021-04-08T09:52:08Z</time>
      </trkpt>
      <trkpt lat="44.44852" lon="6.57761">
        <ele>2864</ele>
        <time>2021-04-08T09:52:09Z</time>
      </trkpt>
      <trkpt lat="44.44852" lon="6.57761">
        <ele>2864</ele>
        <time>2021-04-08T09:52:10Z</time>
      </trkpt>
      <trkpt lat="44.44852" lon="6.57761">
        <ele>2864</ele>
        <time>2021-04-08T09:52:11Z</time>
      </trkpt>
      <trkpt lat="44.44852" lon="6.57761">
        <ele>2864</ele>
        <time>2021-04-08T09:52:12Z</time>
      </trkpt>
      <trkpt lat="44.44852" lon="6.57761">
        <ele>2864</ele>
        <time>2021-04-08T09:52:13Z</time>
      </trkpt>
      <trkpt lat="44.44852" lon="6.57761">
        <ele>2864</ele>
        <time>2021-04-08T09:52:14Z</time>
      </trkpt>
      <trkpt lat="44.44852" lon="6.57761">
        <ele>2864</ele>
        <time>2021-04-08T09:52:15Z</time>
      </trkpt>
      <trkpt lat="44.44852" lon="6.57761">
        <ele>2864</ele>
        <time>2021-04-08T09:52:16Z</time>
      </trkpt>
      <trkpt lat="44.44852" lon="6.57761">
        <ele>2864</ele>
        <time>2021-04-08T09:52:17Z</time>
      </trkpt>
      <trkpt lat="44.44852" lon="6.57761">
        <ele>2864</ele>
        <time>2021-04-08T09:52:18Z</time>
      </trkpt>
      <trkpt lat="44.44852" lon="6.57761">
        <ele>2864</ele>
        <time>2021-04-08T09:52:19Z</time>
      </trkpt>
      <trkpt lat="44.44852" lon="6.57761">
        <ele>2864</ele>
        <time>2021-04-08T09:52:20Z</time>
      </trkpt>
      <trkpt lat="44.44852" lon="6.57761">
        <ele>2864</ele>
        <time>2021-04-08T09:52:21Z</time>
      </trkpt>
      <trkpt lat="44.44852" lon="6.57761">
        <ele>2864</ele>
        <time>2021-04-08T09:52:22Z</time>
      </trkpt>
      <trkpt lat="44.44852" lon="6.57761">
        <ele>2864</ele>
        <time>2021-04-08T09:52:23Z</time>
      </trkpt>
      <trkpt lat="44.44852" lon="6.57761">
        <ele>2864</ele>
        <time>2021-04-08T09:52:24Z</time>
      </trkpt>
      <trkpt lat="44.44852" lon="6.57761">
        <ele>2864</ele>
        <time>2021-04-08T09:52:25Z</time>
      </trkpt>
      <trkpt lat="44.44852" lon="6.57761">
        <ele>2864</ele>
        <time>2021-04-08T09:52:26Z</time>
      </trkpt>
      <trkpt lat="44.44852" lon="6.57761">
        <ele>2864</ele>
        <time>2021-04-08T09:52:27Z</time>
      </trkpt>
      <trkpt lat="44.44852" lon="6.57761">
        <ele>2864</ele>
        <time>2021-04-08T09:52:28Z</time>
      </trkpt>
      <trkpt lat="44.44852" lon="6.57761">
        <ele>2864</ele>
        <time>2021-04-08T09:52:29Z</time>
      </trkpt>
      <trkpt lat="44.44852" lon="6.57761">
        <ele>2864</ele>
        <time>2021-04-08T09:52:30Z</time>
      </trkpt>
      <trkpt lat="44.44852" lon="6.57761">
        <ele>2864</ele>
        <time>2021-04-08T09:52:31Z</time>
      </trkpt>
      <trkpt lat="44.44852" lon="6.57761">
        <ele>2864</ele>
        <time>2021-04-08T09:52:32Z</time>
      </trkpt>
      <trkpt lat="44.44852" lon="6.57761">
        <ele>2864</ele>
        <time>2021-04-08T09:52:33Z</time>
      </trkpt>
      <trkpt lat="44.44852" lon="6.57761">
        <ele>2864</ele>
        <time>2021-04-08T09:52:34Z</time>
      </trkpt>
      <trkpt lat="44.44852" lon="6.57761">
        <ele>2864</ele>
        <time>2021-04-08T09:52:35Z</time>
      </trkpt>
      <trkpt lat="44.44852" lon="6.57761">
        <ele>2864</ele>
        <time>2021-04-08T09:52:36Z</time>
      </trkpt>
      <trkpt lat="44.44852" lon="6.57761">
        <ele>2864</ele>
        <time>2021-04-08T09:52:37Z</time>
      </trkpt>
      <trkpt lat="44.44852" lon="6.57761">
        <ele>2864</ele>
        <time>2021-04-08T09:52:38Z</time>
      </trkpt>
      <trkpt lat="44.44852" lon="6.57761">
        <ele>2864</ele>
        <time>2021-04-08T09:52:39Z</time>
      </trkpt>
      <trkpt lat="44.44852" lon="6.57761">
        <ele>2864</ele>
        <time>2021-04-08T09:52:40Z</time>
      </trkpt>
      <trkpt lat="44.44852" lon="6.57761">
        <ele>2864</ele>
        <time>2021-04-08T09:52:41Z</time>
      </trkpt>
      <trkpt lat="44.44852" lon="6.57761">
        <ele>2865</ele>
        <time>2021-04-08T09:52:42Z</time>
      </trkpt>
      <trkpt lat="44.44852" lon="6.57761">
        <ele>2865</ele>
        <time>2021-04-08T09:52:43Z</time>
      </trkpt>
      <trkpt lat="44.44852" lon="6.57761">
        <ele>2865</ele>
        <time>2021-04-08T09:52:44Z</time>
      </trkpt>
      <trkpt lat="44.44851" lon="6.57757">
        <ele>2865</ele>
        <time>2021-04-08T09:52:45Z</time>
      </trkpt>
      <trkpt lat="44.44852" lon="6.57757">
        <ele>2865</ele>
        <time>2021-04-08T09:52:46Z</time>
      </trkpt>
      <trkpt lat="44.44852" lon="6.57757">
        <ele>2864</ele>
        <time>2021-04-08T09:52:47Z</time>
      </trkpt>
      <trkpt lat="44.44853" lon="6.57757">
        <ele>2864</ele>
        <time>2021-04-08T09:52:48Z</time>
      </trkpt>
      <trkpt lat="44.44853" lon="6.57757">
        <ele>2864</ele>
        <time>2021-04-08T09:52:49Z</time>
      </trkpt>
      <trkpt lat="44.44853" lon="6.57757">
        <ele>2864</ele>
        <time>2021-04-08T09:52:50Z</time>
      </trkpt>
      <trkpt lat="44.44853" lon="6.57757">
        <ele>2864</ele>
        <time>2021-04-08T09:52:51Z</time>
      </trkpt>
      <trkpt lat="44.44853" lon="6.57757">
        <ele>2864</ele>
        <time>2021-04-08T09:52:52Z</time>
      </trkpt>
      <trkpt lat="44.44853" lon="6.57757">
        <ele>2864</ele>
        <time>2021-04-08T09:52:53Z</time>
      </trkpt>
      <trkpt lat="44.44853" lon="6.57757">
        <ele>2864</ele>
        <time>2021-04-08T09:52:54Z</time>
      </trkpt>
      <trkpt lat="44.44853" lon="6.57757">
        <ele>2864</ele>
        <time>2021-04-08T09:52:55Z</time>
      </trkpt>
      <trkpt lat="44.44853" lon="6.57757">
        <ele>2864</ele>
        <time>2021-04-08T09:52:56Z</time>
      </trkpt>
      <trkpt lat="44.44853" lon="6.57757">
        <ele>2864</ele>
        <time>2021-04-08T09:52:57Z</time>
      </trkpt>
      <trkpt lat="44.44853" lon="6.57757">
        <ele>2864</ele>
        <time>2021-04-08T09:52:58Z</time>
      </trkpt>
      <trkpt lat="44.44853" lon="6.57757">
        <ele>2864</ele>
        <time>2021-04-08T09:52:59Z</time>
      </trkpt>
      <trkpt lat="44.44853" lon="6.57757">
        <ele>2864</ele>
        <time>2021-04-08T09:53:00Z</time>
      </trkpt>
      <trkpt lat="44.44853" lon="6.57757">
        <ele>2864</ele>
        <time>2021-04-08T09:53:01Z</time>
      </trkpt>
      <trkpt lat="44.44853" lon="6.57757">
        <ele>2864</ele>
        <time>2021-04-08T09:53:02Z</time>
      </trkpt>
      <trkpt lat="44.44853" lon="6.57757">
        <ele>2864</ele>
        <time>2021-04-08T09:53:03Z</time>
      </trkpt>
      <trkpt lat="44.44853" lon="6.57757">
        <ele>2864</ele>
        <time>2021-04-08T09:53:04Z</time>
      </trkpt>
      <trkpt lat="44.44853" lon="6.57757">
        <ele>2864</ele>
        <time>2021-04-08T09:53:05Z</time>
      </trkpt>
      <trkpt lat="44.44853" lon="6.57757">
        <ele>2864</ele>
        <time>2021-04-08T09:53:06Z</time>
      </trkpt>
      <trkpt lat="44.44853" lon="6.57757">
        <ele>2864</ele>
        <time>2021-04-08T09:53:07Z</time>
      </trkpt>
      <trkpt lat="44.44853" lon="6.57757">
        <ele>2864</ele>
        <time>2021-04-08T09:53:08Z</time>
      </trkpt>
      <trkpt lat="44.44853" lon="6.57757">
        <ele>2864</ele>
        <time>2021-04-08T09:53:09Z</time>
      </trkpt>
      <trkpt lat="44.44853" lon="6.57757">
        <ele>2864</ele>
        <time>2021-04-08T09:53:10Z</time>
      </trkpt>
      <trkpt lat="44.44853" lon="6.57757">
        <ele>2864</ele>
        <time>2021-04-08T09:53:11Z</time>
      </trkpt>
      <trkpt lat="44.44853" lon="6.57757">
        <ele>2864</ele>
        <time>2021-04-08T09:53:12Z</time>
      </trkpt>
      <trkpt lat="44.44853" lon="6.57757">
        <ele>2864</ele>
        <time>2021-04-08T09:53:13Z</time>
      </trkpt>
      <trkpt lat="44.44853" lon="6.57757">
        <ele>2864</ele>
        <time>2021-04-08T09:53:14Z</time>
      </trkpt>
      <trkpt lat="44.44853" lon="6.57757">
        <ele>2864</ele>
        <time>2021-04-08T09:53:15Z</time>
      </trkpt>
      <trkpt lat="44.44853" lon="6.57757">
        <ele>2864</ele>
        <time>2021-04-08T09:53:16Z</time>
      </trkpt>
      <trkpt lat="44.44853" lon="6.57757">
        <ele>2864</ele>
        <time>2021-04-08T09:53:17Z</time>
      </trkpt>
      <trkpt lat="44.44853" lon="6.57757">
        <ele>2864</ele>
        <time>2021-04-08T09:53:18Z</time>
      </trkpt>
      <trkpt lat="44.44853" lon="6.57757">
        <ele>2864</ele>
        <time>2021-04-08T09:53:19Z</time>
      </trkpt>
      <trkpt lat="44.44853" lon="6.57757">
        <ele>2864</ele>
        <time>2021-04-08T09:53:20Z</time>
      </trkpt>
      <trkpt lat="44.44853" lon="6.57757">
        <ele>2864</ele>
        <time>2021-04-08T09:53:21Z</time>
      </trkpt>
      <trkpt lat="44.44853" lon="6.57757">
        <ele>2864</ele>
        <time>2021-04-08T09:53:22Z</time>
      </trkpt>
      <trkpt lat="44.44853" lon="6.57757">
        <ele>2864</ele>
        <time>2021-04-08T09:53:23Z</time>
      </trkpt>
      <trkpt lat="44.44853" lon="6.57757">
        <ele>2864</ele>
        <time>2021-04-08T09:53:24Z</time>
      </trkpt>
      <trkpt lat="44.44853" lon="6.57757">
        <ele>2864</ele>
        <time>2021-04-08T09:53:25Z</time>
      </trkpt>
      <trkpt lat="44.44853" lon="6.57757">
        <ele>2864</ele>
        <time>2021-04-08T09:53:26Z</time>
      </trkpt>
      <trkpt lat="44.44853" lon="6.57759">
        <ele>2864</ele>
        <time>2021-04-08T09:53:27Z</time>
      </trkpt>
      <trkpt lat="44.44853" lon="6.57759">
        <ele>2864</ele>
        <time>2021-04-08T09:53:28Z</time>
      </trkpt>
      <trkpt lat="44.44853" lon="6.57759">
        <ele>2864</ele>
        <time>2021-04-08T09:53:29Z</time>
      </trkpt>
      <trkpt lat="44.44852" lon="6.57759">
        <ele>2864</ele>
        <time>2021-04-08T09:53:30Z</time>
      </trkpt>
      <trkpt lat="44.44852" lon="6.57759">
        <ele>2864</ele>
        <time>2021-04-08T09:53:31Z</time>
      </trkpt>
      <trkpt lat="44.44852" lon="6.57759">
        <ele>2864</ele>
        <time>2021-04-08T09:53:32Z</time>
      </trkpt>
      <trkpt lat="44.44852" lon="6.57759">
        <ele>2864</ele>
        <time>2021-04-08T09:53:33Z</time>
      </trkpt>
      <trkpt lat="44.44852" lon="6.57759">
        <ele>2864</ele>
        <time>2021-04-08T09:53:34Z</time>
      </trkpt>
      <trkpt lat="44.44852" lon="6.57759">
        <ele>2864</ele>
        <time>2021-04-08T09:53:35Z</time>
      </trkpt>
      <trkpt lat="44.44852" lon="6.57759">
        <ele>2864</ele>
        <time>2021-04-08T09:53:36Z</time>
      </trkpt>
      <trkpt lat="44.44852" lon="6.57759">
        <ele>2864</ele>
        <time>2021-04-08T09:53:37Z</time>
      </trkpt>
      <trkpt lat="44.44852" lon="6.57759">
        <ele>2864</ele>
        <time>2021-04-08T09:53:38Z</time>
      </trkpt>
      <trkpt lat="44.44852" lon="6.57759">
        <ele>2864</ele>
        <time>2021-04-08T09:53:39Z</time>
      </trkpt>
      <trkpt lat="44.44852" lon="6.57759">
        <ele>2864</ele>
        <time>2021-04-08T09:53:40Z</time>
      </trkpt>
      <trkpt lat="44.44852" lon="6.57759">
        <ele>2864</ele>
        <time>2021-04-08T09:53:41Z</time>
      </trkpt>
      <trkpt lat="44.44852" lon="6.57759">
        <ele>2864</ele>
        <time>2021-04-08T09:53:42Z</time>
      </trkpt>
      <trkpt lat="44.44852" lon="6.57759">
        <ele>2864</ele>
        <time>2021-04-08T09:53:43Z</time>
      </trkpt>
      <trkpt lat="44.44852" lon="6.57759">
        <ele>2864</ele>
        <time>2021-04-08T09:53:44Z</time>
      </trkpt>
      <trkpt lat="44.44852" lon="6.57759">
        <ele>2864</ele>
        <time>2021-04-08T09:53:45Z</time>
      </trkpt>
      <trkpt lat="44.44852" lon="6.57759">
        <ele>2864</ele>
        <time>2021-04-08T09:53:46Z</time>
      </trkpt>
      <trkpt lat="44.44852" lon="6.57759">
        <ele>2864</ele>
        <time>2021-04-08T09:53:47Z</time>
      </trkpt>
      <trkpt lat="44.44852" lon="6.57759">
        <ele>2864</ele>
        <time>2021-04-08T09:53:48Z</time>
      </trkpt>
      <trkpt lat="44.44852" lon="6.57759">
        <ele>2864</ele>
        <time>2021-04-08T09:53:49Z</time>
      </trkpt>
      <trkpt lat="44.44852" lon="6.57759">
        <ele>2864</ele>
        <time>2021-04-08T09:53:50Z</time>
      </trkpt>
      <trkpt lat="44.44852" lon="6.57759">
        <ele>2864</ele>
        <time>2021-04-08T09:53:51Z</time>
      </trkpt>
      <trkpt lat="44.44852" lon="6.57759">
        <ele>2864</ele>
        <time>2021-04-08T09:53:52Z</time>
      </trkpt>
      <trkpt lat="44.44852" lon="6.57759">
        <ele>2864</ele>
        <time>2021-04-08T09:53:53Z</time>
      </trkpt>
      <trkpt lat="44.44852" lon="6.57759">
        <ele>2864</ele>
        <time>2021-04-08T09:53:54Z</time>
      </trkpt>
      <trkpt lat="44.44852" lon="6.57759">
        <ele>2864</ele>
        <time>2021-04-08T09:53:55Z</time>
      </trkpt>
      <trkpt lat="44.44852" lon="6.57759">
        <ele>2864</ele>
        <time>2021-04-08T09:53:56Z</time>
      </trkpt>
      <trkpt lat="44.44852" lon="6.57759">
        <ele>2864</ele>
        <time>2021-04-08T09:53:57Z</time>
      </trkpt>
      <trkpt lat="44.44852" lon="6.57759">
        <ele>2864</ele>
        <time>2021-04-08T09:53:58Z</time>
      </trkpt>
      <trkpt lat="44.44852" lon="6.57759">
        <ele>2864</ele>
        <time>2021-04-08T09:53:59Z</time>
      </trkpt>
      <trkpt lat="44.44852" lon="6.57759">
        <ele>2864</ele>
        <time>2021-04-08T09:54:00Z</time>
      </trkpt>
      <trkpt lat="44.44852" lon="6.57759">
        <ele>2864</ele>
        <time>2021-04-08T09:54:01Z</time>
      </trkpt>
      <trkpt lat="44.44852" lon="6.57759">
        <ele>2864</ele>
        <time>2021-04-08T09:54:02Z</time>
      </trkpt>
      <trkpt lat="44.44852" lon="6.57759">
        <ele>2864</ele>
        <time>2021-04-08T09:54:03Z</time>
      </trkpt>
      <trkpt lat="44.44852" lon="6.57759">
        <ele>2864</ele>
        <time>2021-04-08T09:54:04Z</time>
      </trkpt>
      <trkpt lat="44.44852" lon="6.57759">
        <ele>2864</ele>
        <time>2021-04-08T09:54:05Z</time>
      </trkpt>
      <trkpt lat="44.44852" lon="6.57759">
        <ele>2864</ele>
        <time>2021-04-08T09:54:06Z</time>
      </trkpt>
      <trkpt lat="44.44852" lon="6.57759">
        <ele>2864</ele>
        <time>2021-04-08T09:54:07Z</time>
      </trkpt>
      <trkpt lat="44.44852" lon="6.57759">
        <ele>2864</ele>
        <time>2021-04-08T09:54:08Z</time>
      </trkpt>
      <trkpt lat="44.44852" lon="6.57759">
        <ele>2864</ele>
        <time>2021-04-08T09:54:09Z</time>
      </trkpt>
      <trkpt lat="44.44852" lon="6.57759">
        <ele>2863</ele>
        <time>2021-04-08T09:54:10Z</time>
      </trkpt>
      <trkpt lat="44.44852" lon="6.57759">
        <ele>2863</ele>
        <time>2021-04-08T09:54:11Z</time>
      </trkpt>
      <trkpt lat="44.44852" lon="6.57759">
        <ele>2863</ele>
        <time>2021-04-08T09:54:12Z</time>
      </trkpt>
      <trkpt lat="44.44852" lon="6.57759">
        <ele>2863</ele>
        <time>2021-04-08T09:54:13Z</time>
      </trkpt>
      <trkpt lat="44.44852" lon="6.57759">
        <ele>2863</ele>
        <time>2021-04-08T09:54:14Z</time>
      </trkpt>
      <trkpt lat="44.44852" lon="6.57759">
        <ele>2863</ele>
        <time>2021-04-08T09:54:15Z</time>
      </trkpt>
      <trkpt lat="44.44852" lon="6.57759">
        <ele>2863</ele>
        <time>2021-04-08T09:54:16Z</time>
      </trkpt>
      <trkpt lat="44.44852" lon="6.57759">
        <ele>2863</ele>
        <time>2021-04-08T09:54:17Z</time>
      </trkpt>
      <trkpt lat="44.44852" lon="6.57759">
        <ele>2863</ele>
        <time>2021-04-08T09:54:18Z</time>
      </trkpt>
      <trkpt lat="44.44852" lon="6.5776">
        <ele>2864</ele>
        <time>2021-04-08T09:54:19Z</time>
      </trkpt>
      <trkpt lat="44.44852" lon="6.57761">
        <ele>2864</ele>
        <time>2021-04-08T09:54:20Z</time>
      </trkpt>
      <trkpt lat="44.44852" lon="6.57761">
        <ele>2864</ele>
        <time>2021-04-08T09:54:21Z</time>
      </trkpt>
      <trkpt lat="44.44852" lon="6.57761">
        <ele>2864</ele>
        <time>2021-04-08T09:54:22Z</time>
      </trkpt>
      <trkpt lat="44.44852" lon="6.57761">
        <ele>2864</ele>
        <time>2021-04-08T09:54:23Z</time>
      </trkpt>
      <trkpt lat="44.44852" lon="6.57761">
        <ele>2864</ele>
        <time>2021-04-08T09:54:24Z</time>
      </trkpt>
      <trkpt lat="44.44852" lon="6.57761">
        <ele>2864</ele>
        <time>2021-04-08T09:54:25Z</time>
      </trkpt>
      <trkpt lat="44.44852" lon="6.57761">
        <ele>2864</ele>
        <time>2021-04-08T09:54:26Z</time>
      </trkpt>
      <trkpt lat="44.44852" lon="6.57761">
        <ele>2864</ele>
        <time>2021-04-08T09:54:27Z</time>
      </trkpt>
      <trkpt lat="44.44852" lon="6.57761">
        <ele>2864</ele>
        <time>2021-04-08T09:54:28Z</time>
      </trkpt>
      <trkpt lat="44.44852" lon="6.57761">
        <ele>2864</ele>
        <time>2021-04-08T09:54:29Z</time>
      </trkpt>
      <trkpt lat="44.44852" lon="6.57761">
        <ele>2864</ele>
        <time>2021-04-08T09:54:30Z</time>
      </trkpt>
      <trkpt lat="44.44852" lon="6.57761">
        <ele>2864</ele>
        <time>2021-04-08T09:54:31Z</time>
      </trkpt>
      <trkpt lat="44.44852" lon="6.57761">
        <ele>2864</ele>
        <time>2021-04-08T09:54:32Z</time>
      </trkpt>
      <trkpt lat="44.44852" lon="6.57761">
        <ele>2864</ele>
        <time>2021-04-08T09:54:33Z</time>
      </trkpt>
      <trkpt lat="44.44852" lon="6.57761">
        <ele>2864</ele>
        <time>2021-04-08T09:54:34Z</time>
      </trkpt>
      <trkpt lat="44.44852" lon="6.57761">
        <ele>2864</ele>
        <time>2021-04-08T09:54:35Z</time>
      </trkpt>
      <trkpt lat="44.44852" lon="6.57761">
        <ele>2864</ele>
        <time>2021-04-08T09:54:36Z</time>
      </trkpt>
      <trkpt lat="44.44852" lon="6.57761">
        <ele>2864</ele>
        <time>2021-04-08T09:54:37Z</time>
      </trkpt>
      <trkpt lat="44.44852" lon="6.57761">
        <ele>2864</ele>
        <time>2021-04-08T09:54:38Z</time>
      </trkpt>
      <trkpt lat="44.44851" lon="6.5776">
        <ele>2864</ele>
        <time>2021-04-08T09:54:39Z</time>
      </trkpt>
      <trkpt lat="44.44851" lon="6.57759">
        <ele>2864</ele>
        <time>2021-04-08T09:54:40Z</time>
      </trkpt>
      <trkpt lat="44.4485" lon="6.57758">
        <ele>2864</ele>
        <time>2021-04-08T09:54:41Z</time>
      </trkpt>
      <trkpt lat="44.4485" lon="6.57759">
        <ele>2864</ele>
        <time>2021-04-08T09:54:42Z</time>
      </trkpt>
      <trkpt lat="44.4485" lon="6.57759">
        <ele>2864</ele>
        <time>2021-04-08T09:54:43Z</time>
      </trkpt>
      <trkpt lat="44.4485" lon="6.57759">
        <ele>2864</ele>
        <time>2021-04-08T09:54:44Z</time>
      </trkpt>
      <trkpt lat="44.4485" lon="6.57759">
        <ele>2864</ele>
        <time>2021-04-08T09:54:45Z</time>
      </trkpt>
      <trkpt lat="44.4485" lon="6.57759">
        <ele>2864</ele>
        <time>2021-04-08T09:54:46Z</time>
      </trkpt>
      <trkpt lat="44.4485" lon="6.57759">
        <ele>2864</ele>
        <time>2021-04-08T09:54:47Z</time>
      </trkpt>
      <trkpt lat="44.4485" lon="6.57759">
        <ele>2864</ele>
        <time>2021-04-08T09:54:48Z</time>
      </trkpt>
      <trkpt lat="44.4485" lon="6.57759">
        <ele>2864</ele>
        <time>2021-04-08T09:54:49Z</time>
      </trkpt>
      <trkpt lat="44.4485" lon="6.57759">
        <ele>2864</ele>
        <time>2021-04-08T09:54:50Z</time>
      </trkpt>
      <trkpt lat="44.4485" lon="6.57759">
        <ele>2864</ele>
        <time>2021-04-08T09:54:51Z</time>
      </trkpt>
      <trkpt lat="44.4485" lon="6.57759">
        <ele>2864</ele>
        <time>2021-04-08T09:54:52Z</time>
      </trkpt>
      <trkpt lat="44.4485" lon="6.57759">
        <ele>2864</ele>
        <time>2021-04-08T09:54:53Z</time>
      </trkpt>
      <trkpt lat="44.4485" lon="6.57759">
        <ele>2864</ele>
        <time>2021-04-08T09:54:54Z</time>
      </trkpt>
      <trkpt lat="44.4485" lon="6.57759">
        <ele>2864</ele>
        <time>2021-04-08T09:54:55Z</time>
      </trkpt>
      <trkpt lat="44.4485" lon="6.57759">
        <ele>2864</ele>
        <time>2021-04-08T09:54:56Z</time>
      </trkpt>
      <trkpt lat="44.4485" lon="6.57759">
        <ele>2864</ele>
        <time>2021-04-08T09:54:57Z</time>
      </trkpt>
      <trkpt lat="44.4485" lon="6.57759">
        <ele>2864</ele>
        <time>2021-04-08T09:54:58Z</time>
      </trkpt>
      <trkpt lat="44.4485" lon="6.57759">
        <ele>2864</ele>
        <time>2021-04-08T09:54:59Z</time>
      </trkpt>
      <trkpt lat="44.4485" lon="6.57759">
        <ele>2864</ele>
        <time>2021-04-08T09:55:00Z</time>
      </trkpt>
      <trkpt lat="44.4485" lon="6.57759">
        <ele>2864</ele>
        <time>2021-04-08T09:55:01Z</time>
      </trkpt>
      <trkpt lat="44.4485" lon="6.57759">
        <ele>2864</ele>
        <time>2021-04-08T09:55:02Z</time>
      </trkpt>
      <trkpt lat="44.4485" lon="6.57759">
        <ele>2864</ele>
        <time>2021-04-08T09:55:03Z</time>
      </trkpt>
      <trkpt lat="44.4485" lon="6.57759">
        <ele>2864</ele>
        <time>2021-04-08T09:55:04Z</time>
      </trkpt>
      <trkpt lat="44.4485" lon="6.57759">
        <ele>2864</ele>
        <time>2021-04-08T09:55:05Z</time>
      </trkpt>
      <trkpt lat="44.44852" lon="6.5776">
        <ele>2864</ele>
        <time>2021-04-08T09:55:06Z</time>
      </trkpt>
      <trkpt lat="44.44852" lon="6.57759">
        <ele>2864</ele>
        <time>2021-04-08T09:55:07Z</time>
      </trkpt>
      <trkpt lat="44.44852" lon="6.57758">
        <ele>2864</ele>
        <time>2021-04-08T09:55:08Z</time>
      </trkpt>
      <trkpt lat="44.44852" lon="6.57757">
        <ele>2864</ele>
        <time>2021-04-08T09:55:09Z</time>
      </trkpt>
      <trkpt lat="44.44852" lon="6.57757">
        <ele>2864</ele>
        <time>2021-04-08T09:55:10Z</time>
      </trkpt>
      <trkpt lat="44.44853" lon="6.57757">
        <ele>2864</ele>
        <time>2021-04-08T09:55:11Z</time>
      </trkpt>
      <trkpt lat="44.44852" lon="6.57757">
        <ele>2865</ele>
        <time>2021-04-08T09:55:12Z</time>
      </trkpt>
      <trkpt lat="44.44852" lon="6.57757">
        <ele>2865</ele>
        <time>2021-04-08T09:55:13Z</time>
      </trkpt>
      <trkpt lat="44.44852" lon="6.57757">
        <ele>2865</ele>
        <time>2021-04-08T09:55:14Z</time>
      </trkpt>
      <trkpt lat="44.44852" lon="6.57757">
        <ele>2865</ele>
        <time>2021-04-08T09:55:15Z</time>
      </trkpt>
      <trkpt lat="44.44852" lon="6.57757">
        <ele>2865</ele>
        <time>2021-04-08T09:55:16Z</time>
      </trkpt>
      <trkpt lat="44.44852" lon="6.57757">
        <ele>2865</ele>
        <time>2021-04-08T09:55:17Z</time>
      </trkpt>
      <trkpt lat="44.44852" lon="6.57757">
        <ele>2865</ele>
        <time>2021-04-08T09:55:18Z</time>
      </trkpt>
      <trkpt lat="44.44852" lon="6.57757">
        <ele>2865</ele>
        <time>2021-04-08T09:55:19Z</time>
      </trkpt>
      <trkpt lat="44.44852" lon="6.57757">
        <ele>2865</ele>
        <time>2021-04-08T09:55:20Z</time>
      </trkpt>
      <trkpt lat="44.44852" lon="6.57757">
        <ele>2865</ele>
        <time>2021-04-08T09:55:21Z</time>
      </trkpt>
      <trkpt lat="44.44852" lon="6.57757">
        <ele>2865</ele>
        <time>2021-04-08T09:55:22Z</time>
      </trkpt>
      <trkpt lat="44.44852" lon="6.57757">
        <ele>2865</ele>
        <time>2021-04-08T09:55:23Z</time>
      </trkpt>
      <trkpt lat="44.44852" lon="6.57757">
        <ele>2865</ele>
        <time>2021-04-08T09:55:24Z</time>
      </trkpt>
      <trkpt lat="44.44852" lon="6.57757">
        <ele>2865</ele>
        <time>2021-04-08T09:55:25Z</time>
      </trkpt>
      <trkpt lat="44.44852" lon="6.57757">
        <ele>2865</ele>
        <time>2021-04-08T09:55:26Z</time>
      </trkpt>
      <trkpt lat="44.44852" lon="6.57757">
        <ele>2865</ele>
        <time>2021-04-08T09:55:27Z</time>
      </trkpt>
      <trkpt lat="44.44851" lon="6.57755">
        <ele>2865</ele>
        <time>2021-04-08T09:55:29Z</time>
      </trkpt>
      <trkpt lat="44.44851" lon="6.57757">
        <ele>2865</ele>
        <time>2021-04-08T09:55:30Z</time>
      </trkpt>
      <trkpt lat="44.44851" lon="6.57758">
        <ele>2865</ele>
        <time>2021-04-08T09:55:31Z</time>
      </trkpt>
      <trkpt lat="44.44851" lon="6.57759">
        <ele>2865</ele>
        <time>2021-04-08T09:55:32Z</time>
      </trkpt>
      <trkpt lat="44.4485" lon="6.57759">
        <ele>2865</ele>
        <time>2021-04-08T09:55:33Z</time>
      </trkpt>
      <trkpt lat="44.44851" lon="6.5776">
        <ele>2865</ele>
        <time>2021-04-08T09:55:34Z</time>
      </trkpt>
      <trkpt lat="44.4485" lon="6.5776">
        <ele>2865</ele>
        <time>2021-04-08T09:55:35Z</time>
      </trkpt>
      <trkpt lat="44.4485" lon="6.57761">
        <ele>2865</ele>
        <time>2021-04-08T09:55:36Z</time>
      </trkpt>
      <trkpt lat="44.4485" lon="6.57761">
        <ele>2865</ele>
        <time>2021-04-08T09:55:37Z</time>
      </trkpt>
      <trkpt lat="44.4485" lon="6.57761">
        <ele>2865</ele>
        <time>2021-04-08T09:55:38Z</time>
      </trkpt>
      <trkpt lat="44.4485" lon="6.57761">
        <ele>2865</ele>
        <time>2021-04-08T09:55:39Z</time>
      </trkpt>
      <trkpt lat="44.44851" lon="6.57761">
        <ele>2865</ele>
        <time>2021-04-08T09:55:41Z</time>
      </trkpt>
      <trkpt lat="44.44851" lon="6.57759">
        <ele>2865</ele>
        <time>2021-04-08T09:55:42Z</time>
      </trkpt>
      <trkpt lat="44.44851" lon="6.57757">
        <ele>2865</ele>
        <time>2021-04-08T09:55:43Z</time>
      </trkpt>
      <trkpt lat="44.44852" lon="6.57757">
        <ele>2865</ele>
        <time>2021-04-08T09:55:44Z</time>
      </trkpt>
      <trkpt lat="44.44852" lon="6.57757">
        <ele>2865</ele>
        <time>2021-04-08T09:55:45Z</time>
      </trkpt>
      <trkpt lat="44.44851" lon="6.57757">
        <ele>2865</ele>
        <time>2021-04-08T09:55:46Z</time>
      </trkpt>
      <trkpt lat="44.44851" lon="6.57757">
        <ele>2865</ele>
        <time>2021-04-08T09:55:47Z</time>
      </trkpt>
      <trkpt lat="44.44852" lon="6.57757">
        <ele>2865</ele>
        <time>2021-04-08T09:55:48Z</time>
      </trkpt>
      <trkpt lat="44.44852" lon="6.57757">
        <ele>2865</ele>
        <time>2021-04-08T09:55:49Z</time>
      </trkpt>
      <trkpt lat="44.44851" lon="6.57757">
        <ele>2865</ele>
        <time>2021-04-08T09:55:50Z</time>
      </trkpt>
      <trkpt lat="44.44852" lon="6.57757">
        <ele>2865</ele>
        <time>2021-04-08T09:55:51Z</time>
      </trkpt>
      <trkpt lat="44.44852" lon="6.57757">
        <ele>2865</ele>
        <time>2021-04-08T09:55:52Z</time>
      </trkpt>
      <trkpt lat="44.44852" lon="6.57758">
        <ele>2865</ele>
        <time>2021-04-08T09:55:53Z</time>
      </trkpt>
      <trkpt lat="44.44852" lon="6.57758">
        <ele>2865</ele>
        <time>2021-04-08T09:55:54Z</time>
      </trkpt>
      <trkpt lat="44.44852" lon="6.57758">
        <ele>2865</ele>
        <time>2021-04-08T09:55:55Z</time>
      </trkpt>
      <trkpt lat="44.44852" lon="6.57758">
        <ele>2864</ele>
        <time>2021-04-08T09:55:56Z</time>
      </trkpt>
      <trkpt lat="44.44852" lon="6.57758">
        <ele>2864</ele>
        <time>2021-04-08T09:55:57Z</time>
      </trkpt>
      <trkpt lat="44.44852" lon="6.57758">
        <ele>2864</ele>
        <time>2021-04-08T09:55:58Z</time>
      </trkpt>
      <trkpt lat="44.44852" lon="6.57758">
        <ele>2864</ele>
        <time>2021-04-08T09:55:59Z</time>
      </trkpt>
      <trkpt lat="44.44852" lon="6.57758">
        <ele>2864</ele>
        <time>2021-04-08T09:56:00Z</time>
      </trkpt>
      <trkpt lat="44.44852" lon="6.57758">
        <ele>2864</ele>
        <time>2021-04-08T09:56:01Z</time>
      </trkpt>
      <trkpt lat="44.44852" lon="6.57758">
        <ele>2864</ele>
        <time>2021-04-08T09:56:02Z</time>
      </trkpt>
      <trkpt lat="44.44853" lon="6.57758">
        <ele>2864</ele>
        <time>2021-04-08T09:56:03Z</time>
      </trkpt>
      <trkpt lat="44.44853" lon="6.57758">
        <ele>2864</ele>
        <time>2021-04-08T09:56:04Z</time>
      </trkpt>
      <trkpt lat="44.44853" lon="6.57757">
        <ele>2864</ele>
        <time>2021-04-08T09:56:05Z</time>
      </trkpt>
      <trkpt lat="44.44853" lon="6.57757">
        <ele>2864</ele>
        <time>2021-04-08T09:56:06Z</time>
      </trkpt>
      <trkpt lat="44.44852" lon="6.57757">
        <ele>2864</ele>
        <time>2021-04-08T09:56:07Z</time>
      </trkpt>
      <trkpt lat="44.44852" lon="6.57756">
        <ele>2864</ele>
        <time>2021-04-08T09:56:08Z</time>
      </trkpt>
      <trkpt lat="44.44853" lon="6.57756">
        <ele>2864</ele>
        <time>2021-04-08T09:56:09Z</time>
      </trkpt>
      <trkpt lat="44.44853" lon="6.57757">
        <ele>2864</ele>
        <time>2021-04-08T09:56:10Z</time>
      </trkpt>
      <trkpt lat="44.44852" lon="6.57757">
        <ele>2864</ele>
        <time>2021-04-08T09:56:11Z</time>
      </trkpt>
      <trkpt lat="44.44852" lon="6.57757">
        <ele>2864</ele>
        <time>2021-04-08T09:56:12Z</time>
      </trkpt>
      <trkpt lat="44.44852" lon="6.57757">
        <ele>2864</ele>
        <time>2021-04-08T09:56:13Z</time>
      </trkpt>
      <trkpt lat="44.44852" lon="6.57757">
        <ele>2864</ele>
        <time>2021-04-08T09:56:14Z</time>
      </trkpt>
      <trkpt lat="44.44852" lon="6.57757">
        <ele>2864</ele>
        <time>2021-04-08T09:56:15Z</time>
      </trkpt>
      <trkpt lat="44.44852" lon="6.57759">
        <ele>2864</ele>
        <time>2021-04-08T09:56:16Z</time>
      </trkpt>
      <trkpt lat="44.44852" lon="6.57759">
        <ele>2864</ele>
        <time>2021-04-08T09:56:17Z</time>
      </trkpt>
      <trkpt lat="44.44853" lon="6.57759">
        <ele>2864</ele>
        <time>2021-04-08T09:56:18Z</time>
      </trkpt>
      <trkpt lat="44.44853" lon="6.57759">
        <ele>2864</ele>
        <time>2021-04-08T09:56:19Z</time>
      </trkpt>
      <trkpt lat="44.44853" lon="6.57759">
        <ele>2864</ele>
        <time>2021-04-08T09:56:20Z</time>
      </trkpt>
      <trkpt lat="44.44853" lon="6.57759">
        <ele>2864</ele>
        <time>2021-04-08T09:56:21Z</time>
      </trkpt>
      <trkpt lat="44.44853" lon="6.57759">
        <ele>2864</ele>
        <time>2021-04-08T09:56:22Z</time>
      </trkpt>
      <trkpt lat="44.44853" lon="6.57759">
        <ele>2864</ele>
        <time>2021-04-08T09:56:23Z</time>
      </trkpt>
      <trkpt lat="44.44853" lon="6.57759">
        <ele>2864</ele>
        <time>2021-04-08T09:56:24Z</time>
      </trkpt>
      <trkpt lat="44.44853" lon="6.57759">
        <ele>2864</ele>
        <time>2021-04-08T09:56:25Z</time>
      </trkpt>
      <trkpt lat="44.44853" lon="6.57759">
        <ele>2864</ele>
        <time>2021-04-08T09:56:26Z</time>
      </trkpt>
      <trkpt lat="44.44853" lon="6.57758">
        <ele>2864</ele>
        <time>2021-04-08T09:56:27Z</time>
      </trkpt>
      <trkpt lat="44.44853" lon="6.57758">
        <ele>2864</ele>
        <time>2021-04-08T09:56:28Z</time>
      </trkpt>
      <trkpt lat="44.44853" lon="6.57758">
        <ele>2864</ele>
        <time>2021-04-08T09:56:29Z</time>
      </trkpt>
      <trkpt lat="44.44853" lon="6.57759">
        <ele>2864</ele>
        <time>2021-04-08T09:56:30Z</time>
      </trkpt>
      <trkpt lat="44.44853" lon="6.57759">
        <ele>2864</ele>
        <time>2021-04-08T09:56:31Z</time>
      </trkpt>
      <trkpt lat="44.44853" lon="6.57759">
        <ele>2864</ele>
        <time>2021-04-08T09:56:32Z</time>
      </trkpt>
      <trkpt lat="44.44853" lon="6.57759">
        <ele>2864</ele>
        <time>2021-04-08T09:56:33Z</time>
      </trkpt>
      <trkpt lat="44.44853" lon="6.57759">
        <ele>2863</ele>
        <time>2021-04-08T09:56:34Z</time>
      </trkpt>
      <trkpt lat="44.44853" lon="6.57759">
        <ele>2863</ele>
        <time>2021-04-08T09:56:35Z</time>
      </trkpt>
      <trkpt lat="44.44853" lon="6.57759">
        <ele>2863</ele>
        <time>2021-04-08T09:56:36Z</time>
      </trkpt>
      <trkpt lat="44.44853" lon="6.57759">
        <ele>2863</ele>
        <time>2021-04-08T09:56:37Z</time>
      </trkpt>
      <trkpt lat="44.44853" lon="6.5776">
        <ele>2863</ele>
        <time>2021-04-08T09:56:38Z</time>
      </trkpt>
      <trkpt lat="44.44853" lon="6.57761">
        <ele>2863</ele>
        <time>2021-04-08T09:56:39Z</time>
      </trkpt>
      <trkpt lat="44.44852" lon="6.57761">
        <ele>2863</ele>
        <time>2021-04-08T09:56:40Z</time>
      </trkpt>
      <trkpt lat="44.44852" lon="6.57762">
        <ele>2862</ele>
        <time>2021-04-08T09:56:41Z</time>
      </trkpt>
      <trkpt lat="44.44851" lon="6.57762">
        <ele>2862</ele>
        <time>2021-04-08T09:56:42Z</time>
      </trkpt>
      <trkpt lat="44.44851" lon="6.57762">
        <ele>2862</ele>
        <time>2021-04-08T09:56:43Z</time>
      </trkpt>
      <trkpt lat="44.44851" lon="6.57762">
        <ele>2862</ele>
        <time>2021-04-08T09:56:44Z</time>
      </trkpt>
      <trkpt lat="44.44851" lon="6.57762">
        <ele>2862</ele>
        <time>2021-04-08T09:56:45Z</time>
      </trkpt>
      <trkpt lat="44.44852" lon="6.57761">
        <ele>2862</ele>
        <time>2021-04-08T09:56:46Z</time>
      </trkpt>
      <trkpt lat="44.44852" lon="6.57761">
        <ele>2862</ele>
        <time>2021-04-08T09:56:47Z</time>
      </trkpt>
      <trkpt lat="44.44852" lon="6.57761">
        <ele>2862</ele>
        <time>2021-04-08T09:56:48Z</time>
      </trkpt>
      <trkpt lat="44.44852" lon="6.57761">
        <ele>2862</ele>
        <time>2021-04-08T09:56:49Z</time>
      </trkpt>
      <trkpt lat="44.44852" lon="6.57761">
        <ele>2862</ele>
        <time>2021-04-08T09:56:50Z</time>
      </trkpt>
      <trkpt lat="44.44851" lon="6.5776">
        <ele>2862</ele>
        <time>2021-04-08T09:56:51Z</time>
      </trkpt>
      <trkpt lat="44.44851" lon="6.57759">
        <ele>2863</ele>
        <time>2021-04-08T09:56:52Z</time>
      </trkpt>
      <trkpt lat="44.44851" lon="6.57759">
        <ele>2863</ele>
        <time>2021-04-08T09:56:53Z</time>
      </trkpt>
      <trkpt lat="44.44851" lon="6.57758">
        <ele>2863</ele>
        <time>2021-04-08T09:56:54Z</time>
      </trkpt>
      <trkpt lat="44.44851" lon="6.57758">
        <ele>2863</ele>
        <time>2021-04-08T09:56:55Z</time>
      </trkpt>
      <trkpt lat="44.44851" lon="6.57758">
        <ele>2863</ele>
        <time>2021-04-08T09:56:56Z</time>
      </trkpt>
      <trkpt lat="44.44851" lon="6.57758">
        <ele>2863</ele>
        <time>2021-04-08T09:56:57Z</time>
      </trkpt>
      <trkpt lat="44.44851" lon="6.57758">
        <ele>2863</ele>
        <time>2021-04-08T09:56:58Z</time>
      </trkpt>
      <trkpt lat="44.44851" lon="6.57758">
        <ele>2863</ele>
        <time>2021-04-08T09:56:59Z</time>
      </trkpt>
      <trkpt lat="44.44851" lon="6.57758">
        <ele>2863</ele>
        <time>2021-04-08T09:57:00Z</time>
      </trkpt>
      <trkpt lat="44.44851" lon="6.57758">
        <ele>2863</ele>
        <time>2021-04-08T09:57:01Z</time>
      </trkpt>
      <trkpt lat="44.44851" lon="6.57758">
        <ele>2863</ele>
        <time>2021-04-08T09:57:02Z</time>
      </trkpt>
      <trkpt lat="44.44851" lon="6.57758">
        <ele>2863</ele>
        <time>2021-04-08T09:57:03Z</time>
      </trkpt>
      <trkpt lat="44.44851" lon="6.57758">
        <ele>2863</ele>
        <time>2021-04-08T09:57:04Z</time>
      </trkpt>
      <trkpt lat="44.44851" lon="6.57758">
        <ele>2863</ele>
        <time>2021-04-08T09:57:05Z</time>
      </trkpt>
      <trkpt lat="44.44851" lon="6.57758">
        <ele>2863</ele>
        <time>2021-04-08T09:57:06Z</time>
      </trkpt>
      <trkpt lat="44.44851" lon="6.57758">
        <ele>2863</ele>
        <time>2021-04-08T09:57:07Z</time>
      </trkpt>
      <trkpt lat="44.44851" lon="6.57758">
        <ele>2863</ele>
        <time>2021-04-08T09:57:08Z</time>
      </trkpt>
      <trkpt lat="44.44851" lon="6.57758">
        <ele>2863</ele>
        <time>2021-04-08T09:57:09Z</time>
      </trkpt>
      <trkpt lat="44.44851" lon="6.57758">
        <ele>2863</ele>
        <time>2021-04-08T09:57:10Z</time>
      </trkpt>
      <trkpt lat="44.44851" lon="6.57758">
        <ele>2863</ele>
        <time>2021-04-08T09:57:11Z</time>
      </trkpt>
      <trkpt lat="44.44851" lon="6.57758">
        <ele>2863</ele>
        <time>2021-04-08T09:57:12Z</time>
      </trkpt>
      <trkpt lat="44.44851" lon="6.57758">
        <ele>2863</ele>
        <time>2021-04-08T09:57:13Z</time>
      </trkpt>
      <trkpt lat="44.44851" lon="6.57758">
        <ele>2863</ele>
        <time>2021-04-08T09:57:14Z</time>
      </trkpt>
      <trkpt lat="44.44851" lon="6.57758">
        <ele>2863</ele>
        <time>2021-04-08T09:57:15Z</time>
      </trkpt>
      <trkpt lat="44.44851" lon="6.57758">
        <ele>2863</ele>
        <time>2021-04-08T09:57:16Z</time>
      </trkpt>
      <trkpt lat="44.44851" lon="6.57758">
        <ele>2863</ele>
        <time>2021-04-08T09:57:17Z</time>
      </trkpt>
      <trkpt lat="44.44851" lon="6.57758">
        <ele>2863</ele>
        <time>2021-04-08T09:57:18Z</time>
      </trkpt>
      <trkpt lat="44.44851" lon="6.57758">
        <ele>2863</ele>
        <time>2021-04-08T09:57:19Z</time>
      </trkpt>
      <trkpt lat="44.44851" lon="6.57758">
        <ele>2863</ele>
        <time>2021-04-08T09:57:20Z</time>
      </trkpt>
      <trkpt lat="44.44851" lon="6.57758">
        <ele>2863</ele>
        <time>2021-04-08T09:57:21Z</time>
      </trkpt>
      <trkpt lat="44.44851" lon="6.57758">
        <ele>2863</ele>
        <time>2021-04-08T09:57:22Z</time>
      </trkpt>
      <trkpt lat="44.44851" lon="6.57758">
        <ele>2863</ele>
        <time>2021-04-08T09:57:23Z</time>
      </trkpt>
      <trkpt lat="44.44851" lon="6.57758">
        <ele>2863</ele>
        <time>2021-04-08T09:57:24Z</time>
      </trkpt>
      <trkpt lat="44.44851" lon="6.57758">
        <ele>2863</ele>
        <time>2021-04-08T09:57:25Z</time>
      </trkpt>
      <trkpt lat="44.44851" lon="6.57758">
        <ele>2863</ele>
        <time>2021-04-08T09:57:26Z</time>
      </trkpt>
      <trkpt lat="44.44851" lon="6.57758">
        <ele>2863</ele>
        <time>2021-04-08T09:57:27Z</time>
      </trkpt>
      <trkpt lat="44.44851" lon="6.57758">
        <ele>2863</ele>
        <time>2021-04-08T09:57:28Z</time>
      </trkpt>
      <trkpt lat="44.44851" lon="6.57758">
        <ele>2863</ele>
        <time>2021-04-08T09:57:29Z</time>
      </trkpt>
      <trkpt lat="44.44851" lon="6.57758">
        <ele>2863</ele>
        <time>2021-04-08T09:57:30Z</time>
      </trkpt>
      <trkpt lat="44.44851" lon="6.57758">
        <ele>2863</ele>
        <time>2021-04-08T09:57:31Z</time>
      </trkpt>
      <trkpt lat="44.44851" lon="6.57758">
        <ele>2863</ele>
        <time>2021-04-08T09:57:32Z</time>
      </trkpt>
      <trkpt lat="44.44851" lon="6.57758">
        <ele>2863</ele>
        <time>2021-04-08T09:57:33Z</time>
      </trkpt>
      <trkpt lat="44.44851" lon="6.57758">
        <ele>2863</ele>
        <time>2021-04-08T09:57:34Z</time>
      </trkpt>
      <trkpt lat="44.44851" lon="6.57758">
        <ele>2863</ele>
        <time>2021-04-08T09:57:35Z</time>
      </trkpt>
      <trkpt lat="44.44851" lon="6.57758">
        <ele>2863</ele>
        <time>2021-04-08T09:57:36Z</time>
      </trkpt>
      <trkpt lat="44.44851" lon="6.57758">
        <ele>2863</ele>
        <time>2021-04-08T09:57:37Z</time>
      </trkpt>
      <trkpt lat="44.44851" lon="6.57758">
        <ele>2863</ele>
        <time>2021-04-08T09:57:38Z</time>
      </trkpt>
      <trkpt lat="44.44851" lon="6.57758">
        <ele>2863</ele>
        <time>2021-04-08T09:57:39Z</time>
      </trkpt>
      <trkpt lat="44.44851" lon="6.57758">
        <ele>2863</ele>
        <time>2021-04-08T09:57:40Z</time>
      </trkpt>
      <trkpt lat="44.44851" lon="6.57758">
        <ele>2863</ele>
        <time>2021-04-08T09:57:41Z</time>
      </trkpt>
      <trkpt lat="44.44851" lon="6.57758">
        <ele>2863</ele>
        <time>2021-04-08T09:57:42Z</time>
      </trkpt>
      <trkpt lat="44.44851" lon="6.57758">
        <ele>2863</ele>
        <time>2021-04-08T09:57:43Z</time>
      </trkpt>
      <trkpt lat="44.44851" lon="6.57758">
        <ele>2863</ele>
        <time>2021-04-08T09:57:44Z</time>
      </trkpt>
      <trkpt lat="44.44851" lon="6.57758">
        <ele>2863</ele>
        <time>2021-04-08T09:57:45Z</time>
      </trkpt>
      <trkpt lat="44.44851" lon="6.57758">
        <ele>2863</ele>
        <time>2021-04-08T09:57:46Z</time>
      </trkpt>
      <trkpt lat="44.44851" lon="6.57758">
        <ele>2863</ele>
        <time>2021-04-08T09:57:47Z</time>
      </trkpt>
      <trkpt lat="44.44851" lon="6.57758">
        <ele>2863</ele>
        <time>2021-04-08T09:57:48Z</time>
      </trkpt>
      <trkpt lat="44.44851" lon="6.57758">
        <ele>2863</ele>
        <time>2021-04-08T09:57:49Z</time>
      </trkpt>
      <trkpt lat="44.44851" lon="6.57758">
        <ele>2863</ele>
        <time>2021-04-08T09:57:50Z</time>
      </trkpt>
      <trkpt lat="44.44851" lon="6.57758">
        <ele>2863</ele>
        <time>2021-04-08T09:57:51Z</time>
      </trkpt>
      <trkpt lat="44.44853" lon="6.57758">
        <ele>2863</ele>
        <time>2021-04-08T09:57:52Z</time>
      </trkpt>
      <trkpt lat="44.44853" lon="6.5776">
        <ele>2863</ele>
        <time>2021-04-08T09:57:53Z</time>
      </trkpt>
      <trkpt lat="44.44853" lon="6.57761">
        <ele>2863</ele>
        <time>2021-04-08T09:57:54Z</time>
      </trkpt>
      <trkpt lat="44.44853" lon="6.57761">
        <ele>2863</ele>
        <time>2021-04-08T09:57:55Z</time>
      </trkpt>
      <trkpt lat="44.44853" lon="6.57762">
        <ele>2863</ele>
        <time>2021-04-08T09:57:56Z</time>
      </trkpt>
      <trkpt lat="44.44853" lon="6.57762">
        <ele>2863</ele>
        <time>2021-04-08T09:57:57Z</time>
      </trkpt>
      <trkpt lat="44.44853" lon="6.57763">
        <ele>2863</ele>
        <time>2021-04-08T09:57:58Z</time>
      </trkpt>
      <trkpt lat="44.44853" lon="6.57763">
        <ele>2863</ele>
        <time>2021-04-08T09:57:59Z</time>
      </trkpt>
      <trkpt lat="44.44854" lon="6.57763">
        <ele>2863</ele>
        <time>2021-04-08T09:58:00Z</time>
      </trkpt>
      <trkpt lat="44.44854" lon="6.57763">
        <ele>2863</ele>
        <time>2021-04-08T09:58:01Z</time>
      </trkpt>
      <trkpt lat="44.44854" lon="6.57763">
        <ele>2863</ele>
        <time>2021-04-08T09:58:02Z</time>
      </trkpt>
      <trkpt lat="44.44854" lon="6.57764">
        <ele>2863</ele>
        <time>2021-04-08T09:58:03Z</time>
      </trkpt>
      <trkpt lat="44.44854" lon="6.57764">
        <ele>2863</ele>
        <time>2021-04-08T09:58:04Z</time>
      </trkpt>
      <trkpt lat="44.44854" lon="6.57764">
        <ele>2863</ele>
        <time>2021-04-08T09:58:05Z</time>
      </trkpt>
      <trkpt lat="44.44854" lon="6.57764">
        <ele>2863</ele>
        <time>2021-04-08T09:58:06Z</time>
      </trkpt>
      <trkpt lat="44.44854" lon="6.57764">
        <ele>2863</ele>
        <time>2021-04-08T09:58:07Z</time>
      </trkpt>
      <trkpt lat="44.44854" lon="6.57764">
        <ele>2863</ele>
        <time>2021-04-08T09:58:08Z</time>
      </trkpt>
      <trkpt lat="44.44854" lon="6.57761">
        <ele>2863</ele>
        <time>2021-04-08T09:58:09Z</time>
      </trkpt>
      <trkpt lat="44.44854" lon="6.57761">
        <ele>2863</ele>
        <time>2021-04-08T09:58:10Z</time>
      </trkpt>
      <trkpt lat="44.44854" lon="6.57762">
        <ele>2863</ele>
        <time>2021-04-08T09:58:11Z</time>
      </trkpt>
      <trkpt lat="44.44853" lon="6.57761">
        <ele>2863</ele>
        <time>2021-04-08T09:58:12Z</time>
      </trkpt>
      <trkpt lat="44.44854" lon="6.5776">
        <ele>2863</ele>
        <time>2021-04-08T09:58:13Z</time>
      </trkpt>
      <trkpt lat="44.44853" lon="6.5776">
        <ele>2863</ele>
        <time>2021-04-08T09:58:14Z</time>
      </trkpt>
      <trkpt lat="44.44853" lon="6.57761">
        <ele>2863</ele>
        <time>2021-04-08T09:58:15Z</time>
      </trkpt>
      <trkpt lat="44.44852" lon="6.57762">
        <ele>2863</ele>
        <time>2021-04-08T09:58:16Z</time>
      </trkpt>
      <trkpt lat="44.44852" lon="6.57762">
        <ele>2863</ele>
        <time>2021-04-08T09:58:17Z</time>
      </trkpt>
      <trkpt lat="44.44851" lon="6.57761">
        <ele>2863</ele>
        <time>2021-04-08T09:58:18Z</time>
      </trkpt>
      <trkpt lat="44.4485" lon="6.57759">
        <ele>2864</ele>
        <time>2021-04-08T09:58:19Z</time>
      </trkpt>
      <trkpt lat="44.4485" lon="6.57758">
        <ele>2864</ele>
        <time>2021-04-08T09:58:20Z</time>
      </trkpt>
      <trkpt lat="44.4485" lon="6.57758">
        <ele>2864</ele>
        <time>2021-04-08T09:58:21Z</time>
      </trkpt>
      <trkpt lat="44.4485" lon="6.57757">
        <ele>2864</ele>
        <time>2021-04-08T09:58:22Z</time>
      </trkpt>
      <trkpt lat="44.44851" lon="6.57757">
        <ele>2864</ele>
        <time>2021-04-08T09:58:23Z</time>
      </trkpt>
      <trkpt lat="44.44851" lon="6.57756">
        <ele>2864</ele>
        <time>2021-04-08T09:58:24Z</time>
      </trkpt>
      <trkpt lat="44.44851" lon="6.57756">
        <ele>2864</ele>
        <time>2021-04-08T09:58:25Z</time>
      </trkpt>
      <trkpt lat="44.44851" lon="6.57757">
        <ele>2864</ele>
        <time>2021-04-08T09:58:26Z</time>
      </trkpt>
      <trkpt lat="44.44851" lon="6.57758">
        <ele>2864</ele>
        <time>2021-04-08T09:58:27Z</time>
      </trkpt>
      <trkpt lat="44.44851" lon="6.57758">
        <ele>2864</ele>
        <time>2021-04-08T09:58:28Z</time>
      </trkpt>
      <trkpt lat="44.44852" lon="6.57758">
        <ele>2864</ele>
        <time>2021-04-08T09:58:29Z</time>
      </trkpt>
      <trkpt lat="44.44852" lon="6.57758">
        <ele>2864</ele>
        <time>2021-04-08T09:58:30Z</time>
      </trkpt>
      <trkpt lat="44.44852" lon="6.57758">
        <ele>2864</ele>
        <time>2021-04-08T09:58:31Z</time>
      </trkpt>
      <trkpt lat="44.44852" lon="6.57758">
        <ele>2864</ele>
        <time>2021-04-08T09:58:32Z</time>
      </trkpt>
      <trkpt lat="44.44852" lon="6.57758">
        <ele>2864</ele>
        <time>2021-04-08T09:58:33Z</time>
      </trkpt>
      <trkpt lat="44.44852" lon="6.57758">
        <ele>2864</ele>
        <time>2021-04-08T09:58:34Z</time>
      </trkpt>
      <trkpt lat="44.44852" lon="6.57758">
        <ele>2864</ele>
        <time>2021-04-08T09:58:35Z</time>
      </trkpt>
      <trkpt lat="44.44852" lon="6.57758">
        <ele>2864</ele>
        <time>2021-04-08T09:58:36Z</time>
      </trkpt>
      <trkpt lat="44.44852" lon="6.57757">
        <ele>2864</ele>
        <time>2021-04-08T09:58:37Z</time>
      </trkpt>
      <trkpt lat="44.44852" lon="6.57757">
        <ele>2864</ele>
        <time>2021-04-08T09:58:38Z</time>
      </trkpt>
      <trkpt lat="44.44852" lon="6.57758">
        <ele>2864</ele>
        <time>2021-04-08T09:58:39Z</time>
      </trkpt>
      <trkpt lat="44.44851" lon="6.57759">
        <ele>2864</ele>
        <time>2021-04-08T09:58:40Z</time>
      </trkpt>
      <trkpt lat="44.44851" lon="6.57759">
        <ele>2864</ele>
        <time>2021-04-08T09:58:41Z</time>
      </trkpt>
      <trkpt lat="44.44851" lon="6.57758">
        <ele>2864</ele>
        <time>2021-04-08T09:58:42Z</time>
      </trkpt>
      <trkpt lat="44.44852" lon="6.57757">
        <ele>2864</ele>
        <time>2021-04-08T09:58:43Z</time>
      </trkpt>
      <trkpt lat="44.44851" lon="6.57758">
        <ele>2864</ele>
        <time>2021-04-08T09:58:44Z</time>
      </trkpt>
      <trkpt lat="44.44851" lon="6.57758">
        <ele>2864</ele>
        <time>2021-04-08T09:58:45Z</time>
      </trkpt>
      <trkpt lat="44.44851" lon="6.57758">
        <ele>2864</ele>
        <time>2021-04-08T09:58:46Z</time>
      </trkpt>
      <trkpt lat="44.44851" lon="6.57758">
        <ele>2864</ele>
        <time>2021-04-08T09:58:47Z</time>
      </trkpt>
      <trkpt lat="44.44851" lon="6.57758">
        <ele>2864</ele>
        <time>2021-04-08T09:58:48Z</time>
      </trkpt>
      <trkpt lat="44.44851" lon="6.57758">
        <ele>2864</ele>
        <time>2021-04-08T09:58:49Z</time>
      </trkpt>
      <trkpt lat="44.44851" lon="6.57758">
        <ele>2864</ele>
        <time>2021-04-08T09:58:50Z</time>
      </trkpt>
      <trkpt lat="44.44851" lon="6.57758">
        <ele>2864</ele>
        <time>2021-04-08T09:58:51Z</time>
      </trkpt>
      <trkpt lat="44.44851" lon="6.57758">
        <ele>2864</ele>
        <time>2021-04-08T09:58:52Z</time>
      </trkpt>
      <trkpt lat="44.44851" lon="6.57758">
        <ele>2864</ele>
        <time>2021-04-08T09:58:53Z</time>
      </trkpt>
      <trkpt lat="44.44851" lon="6.57758">
        <ele>2864</ele>
        <time>2021-04-08T09:58:54Z</time>
      </trkpt>
      <trkpt lat="44.44851" lon="6.57758">
        <ele>2864</ele>
        <time>2021-04-08T09:58:55Z</time>
      </trkpt>
      <trkpt lat="44.44851" lon="6.57758">
        <ele>2864</ele>
        <time>2021-04-08T09:58:56Z</time>
      </trkpt>
      <trkpt lat="44.44851" lon="6.57758">
        <ele>2864</ele>
        <time>2021-04-08T09:58:57Z</time>
      </trkpt>
      <trkpt lat="44.44851" lon="6.57758">
        <ele>2864</ele>
        <time>2021-04-08T09:58:58Z</time>
      </trkpt>
      <trkpt lat="44.44851" lon="6.57758">
        <ele>2864</ele>
        <time>2021-04-08T09:58:59Z</time>
      </trkpt>
      <trkpt lat="44.44851" lon="6.57758">
        <ele>2864</ele>
        <time>2021-04-08T09:59:00Z</time>
      </trkpt>
      <trkpt lat="44.44851" lon="6.57758">
        <ele>2864</ele>
        <time>2021-04-08T09:59:01Z</time>
      </trkpt>
      <trkpt lat="44.44851" lon="6.57757">
        <ele>2864</ele>
        <time>2021-04-08T09:59:02Z</time>
      </trkpt>
      <trkpt lat="44.44851" lon="6.57757">
        <ele>2864</ele>
        <time>2021-04-08T09:59:03Z</time>
      </trkpt>
      <trkpt lat="44.44851" lon="6.57756">
        <ele>2863</ele>
        <time>2021-04-08T09:59:04Z</time>
      </trkpt>
      <trkpt lat="44.44851" lon="6.57756">
        <ele>2863</ele>
        <time>2021-04-08T09:59:05Z</time>
      </trkpt>
      <trkpt lat="44.44851" lon="6.57756">
        <ele>2863</ele>
        <time>2021-04-08T09:59:06Z</time>
      </trkpt>
      <trkpt lat="44.44851" lon="6.57756">
        <ele>2863</ele>
        <time>2021-04-08T09:59:07Z</time>
      </trkpt>
      <trkpt lat="44.44851" lon="6.57756">
        <ele>2863</ele>
        <time>2021-04-08T09:59:08Z</time>
      </trkpt>
      <trkpt lat="44.44851" lon="6.57756">
        <ele>2863</ele>
        <time>2021-04-08T09:59:09Z</time>
      </trkpt>
      <trkpt lat="44.44851" lon="6.57756">
        <ele>2863</ele>
        <time>2021-04-08T09:59:10Z</time>
      </trkpt>
      <trkpt lat="44.44851" lon="6.57756">
        <ele>2863</ele>
        <time>2021-04-08T09:59:11Z</time>
      </trkpt>
      <trkpt lat="44.44851" lon="6.57756">
        <ele>2863</ele>
        <time>2021-04-08T09:59:12Z</time>
      </trkpt>
      <trkpt lat="44.44851" lon="6.57756">
        <ele>2863</ele>
        <time>2021-04-08T09:59:13Z</time>
      </trkpt>
      <trkpt lat="44.44851" lon="6.57756">
        <ele>2863</ele>
        <time>2021-04-08T09:59:14Z</time>
      </trkpt>
      <trkpt lat="44.44851" lon="6.57756">
        <ele>2863</ele>
        <time>2021-04-08T09:59:15Z</time>
      </trkpt>
      <trkpt lat="44.44851" lon="6.57756">
        <ele>2863</ele>
        <time>2021-04-08T09:59:16Z</time>
      </trkpt>
      <trkpt lat="44.44851" lon="6.57756">
        <ele>2863</ele>
        <time>2021-04-08T09:59:17Z</time>
      </trkpt>
      <trkpt lat="44.44851" lon="6.57756">
        <ele>2863</ele>
        <time>2021-04-08T09:59:18Z</time>
      </trkpt>
      <trkpt lat="44.44851" lon="6.57756">
        <ele>2863</ele>
        <time>2021-04-08T09:59:19Z</time>
      </trkpt>
      <trkpt lat="44.44851" lon="6.57756">
        <ele>2863</ele>
        <time>2021-04-08T09:59:20Z</time>
      </trkpt>
      <trkpt lat="44.44851" lon="6.57756">
        <ele>2863</ele>
        <time>2021-04-08T09:59:21Z</time>
      </trkpt>
      <trkpt lat="44.44851" lon="6.57756">
        <ele>2863</ele>
        <time>2021-04-08T09:59:22Z</time>
      </trkpt>
      <trkpt lat="44.44851" lon="6.57756">
        <ele>2863</ele>
        <time>2021-04-08T09:59:23Z</time>
      </trkpt>
      <trkpt lat="44.44851" lon="6.57756">
        <ele>2863</ele>
        <time>2021-04-08T09:59:24Z</time>
      </trkpt>
      <trkpt lat="44.44851" lon="6.57756">
        <ele>2863</ele>
        <time>2021-04-08T09:59:25Z</time>
      </trkpt>
      <trkpt lat="44.44851" lon="6.57756">
        <ele>2863</ele>
        <time>2021-04-08T09:59:26Z</time>
      </trkpt>
      <trkpt lat="44.44851" lon="6.57756">
        <ele>2863</ele>
        <time>2021-04-08T09:59:27Z</time>
      </trkpt>
      <trkpt lat="44.44851" lon="6.57756">
        <ele>2863</ele>
        <time>2021-04-08T09:59:28Z</time>
      </trkpt>
      <trkpt lat="44.44851" lon="6.57756">
        <ele>2863</ele>
        <time>2021-04-08T09:59:29Z</time>
      </trkpt>
      <trkpt lat="44.44851" lon="6.57756">
        <ele>2863</ele>
        <time>2021-04-08T09:59:30Z</time>
      </trkpt>
      <trkpt lat="44.44851" lon="6.57756">
        <ele>2863</ele>
        <time>2021-04-08T09:59:31Z</time>
      </trkpt>
      <trkpt lat="44.44851" lon="6.57756">
        <ele>2863</ele>
        <time>2021-04-08T09:59:32Z</time>
      </trkpt>
      <trkpt lat="44.44851" lon="6.57756">
        <ele>2863</ele>
        <time>2021-04-08T09:59:33Z</time>
      </trkpt>
      <trkpt lat="44.44851" lon="6.57756">
        <ele>2863</ele>
        <time>2021-04-08T09:59:34Z</time>
      </trkpt>
      <trkpt lat="44.44851" lon="6.57756">
        <ele>2863</ele>
        <time>2021-04-08T09:59:36Z</time>
      </trkpt>
      <trkpt lat="44.44851" lon="6.57756">
        <ele>2863</ele>
        <time>2021-04-08T09:59:37Z</time>
      </trkpt>
      <trkpt lat="44.44851" lon="6.57756">
        <ele>2863</ele>
        <time>2021-04-08T09:59:38Z</time>
      </trkpt>
      <trkpt lat="44.44851" lon="6.57756">
        <ele>2863</ele>
        <time>2021-04-08T09:59:39Z</time>
      </trkpt>
      <trkpt lat="44.44851" lon="6.57756">
        <ele>2863</ele>
        <time>2021-04-08T09:59:40Z</time>
      </trkpt>
      <trkpt lat="44.44851" lon="6.57756">
        <ele>2863</ele>
        <time>2021-04-08T09:59:41Z</time>
      </trkpt>
      <trkpt lat="44.44851" lon="6.57756">
        <ele>2863</ele>
        <time>2021-04-08T09:59:42Z</time>
      </trkpt>
      <trkpt lat="44.44851" lon="6.57756">
        <ele>2863</ele>
        <time>2021-04-08T09:59:43Z</time>
      </trkpt>
      <trkpt lat="44.44851" lon="6.57756">
        <ele>2863</ele>
        <time>2021-04-08T09:59:44Z</time>
      </trkpt>
      <trkpt lat="44.44851" lon="6.57756">
        <ele>2863</ele>
        <time>2021-04-08T09:59:45Z</time>
      </trkpt>
      <trkpt lat="44.44851" lon="6.57756">
        <ele>2863</ele>
        <time>2021-04-08T09:59:46Z</time>
      </trkpt>
      <trkpt lat="44.44851" lon="6.57756">
        <ele>2863</ele>
        <time>2021-04-08T09:59:47Z</time>
      </trkpt>
      <trkpt lat="44.44851" lon="6.57757">
        <ele>2863</ele>
        <time>2021-04-08T09:59:48Z</time>
      </trkpt>
      <trkpt lat="44.44851" lon="6.57757">
        <ele>2863</ele>
        <time>2021-04-08T09:59:49Z</time>
      </trkpt>
      <trkpt lat="44.44851" lon="6.57757">
        <ele>2863</ele>
        <time>2021-04-08T09:59:50Z</time>
      </trkpt>
      <trkpt lat="44.44851" lon="6.57757">
        <ele>2863</ele>
        <time>2021-04-08T09:59:51Z</time>
      </trkpt>
      <trkpt lat="44.44851" lon="6.57757">
        <ele>2863</ele>
        <time>2021-04-08T09:59:52Z</time>
      </trkpt>
      <trkpt lat="44.44851" lon="6.57757">
        <ele>2863</ele>
        <time>2021-04-08T09:59:53Z</time>
      </trkpt>
      <trkpt lat="44.44851" lon="6.57757">
        <ele>2863</ele>
        <time>2021-04-08T09:59:54Z</time>
      </trkpt>
      <trkpt lat="44.44851" lon="6.57757">
        <ele>2863</ele>
        <time>2021-04-08T09:59:55Z</time>
      </trkpt>
      <trkpt lat="44.44851" lon="6.57757">
        <ele>2863</ele>
        <time>2021-04-08T09:59:56Z</time>
      </trkpt>
      <trkpt lat="44.44851" lon="6.57757">
        <ele>2863</ele>
        <time>2021-04-08T09:59:57Z</time>
      </trkpt>
      <trkpt lat="44.44851" lon="6.57757">
        <ele>2863</ele>
        <time>2021-04-08T09:59:58Z</time>
      </trkpt>
      <trkpt lat="44.44851" lon="6.57757">
        <ele>2863</ele>
        <time>2021-04-08T09:59:59Z</time>
      </trkpt>
      <trkpt lat="44.44851" lon="6.57757">
        <ele>2863</ele>
        <time>2021-04-08T10:00:00Z</time>
      </trkpt>
      <trkpt lat="44.44851" lon="6.57757">
        <ele>2863</ele>
        <time>2021-04-08T10:00:01Z</time>
      </trkpt>
      <trkpt lat="44.44851" lon="6.57757">
        <ele>2863</ele>
        <time>2021-04-08T10:00:02Z</time>
      </trkpt>
      <trkpt lat="44.44851" lon="6.57757">
        <ele>2863</ele>
        <time>2021-04-08T10:00:03Z</time>
      </trkpt>
      <trkpt lat="44.44851" lon="6.57757">
        <ele>2863</ele>
        <time>2021-04-08T10:00:04Z</time>
      </trkpt>
      <trkpt lat="44.44851" lon="6.57757">
        <ele>2863</ele>
        <time>2021-04-08T10:00:05Z</time>
      </trkpt>
      <trkpt lat="44.44851" lon="6.57757">
        <ele>2863</ele>
        <time>2021-04-08T10:00:06Z</time>
      </trkpt>
      <trkpt lat="44.44851" lon="6.57757">
        <ele>2863</ele>
        <time>2021-04-08T10:00:07Z</time>
      </trkpt>
      <trkpt lat="44.44851" lon="6.57757">
        <ele>2863</ele>
        <time>2021-04-08T10:00:08Z</time>
      </trkpt>
      <trkpt lat="44.44851" lon="6.57757">
        <ele>2863</ele>
        <time>2021-04-08T10:00:09Z</time>
      </trkpt>
      <trkpt lat="44.44851" lon="6.57757">
        <ele>2863</ele>
        <time>2021-04-08T10:00:10Z</time>
      </trkpt>
      <trkpt lat="44.44851" lon="6.57757">
        <ele>2863</ele>
        <time>2021-04-08T10:00:11Z</time>
      </trkpt>
      <trkpt lat="44.44851" lon="6.57757">
        <ele>2863</ele>
        <time>2021-04-08T10:00:12Z</time>
      </trkpt>
      <trkpt lat="44.44851" lon="6.57757">
        <ele>2863</ele>
        <time>2021-04-08T10:00:13Z</time>
      </trkpt>
      <trkpt lat="44.44851" lon="6.57757">
        <ele>2863</ele>
        <time>2021-04-08T10:00:14Z</time>
      </trkpt>
      <trkpt lat="44.44851" lon="6.57757">
        <ele>2863</ele>
        <time>2021-04-08T10:00:15Z</time>
      </trkpt>
      <trkpt lat="44.44851" lon="6.57757">
        <ele>2863</ele>
        <time>2021-04-08T10:00:16Z</time>
      </trkpt>
      <trkpt lat="44.44851" lon="6.57757">
        <ele>2863</ele>
        <time>2021-04-08T10:00:17Z</time>
      </trkpt>
      <trkpt lat="44.44851" lon="6.57757">
        <ele>2863</ele>
        <time>2021-04-08T10:00:18Z</time>
      </trkpt>
      <trkpt lat="44.44851" lon="6.57757">
        <ele>2863</ele>
        <time>2021-04-08T10:00:19Z</time>
      </trkpt>
      <trkpt lat="44.44851" lon="6.57757">
        <ele>2863</ele>
        <time>2021-04-08T10:00:20Z</time>
      </trkpt>
      <trkpt lat="44.44851" lon="6.57757">
        <ele>2863</ele>
        <time>2021-04-08T10:00:21Z</time>
      </trkpt>
      <trkpt lat="44.44851" lon="6.57757">
        <ele>2863</ele>
        <time>2021-04-08T10:00:22Z</time>
      </trkpt>
      <trkpt lat="44.44851" lon="6.57757">
        <ele>2863</ele>
        <time>2021-04-08T10:00:23Z</time>
      </trkpt>
      <trkpt lat="44.44851" lon="6.57757">
        <ele>2863</ele>
        <time>2021-04-08T10:00:24Z</time>
      </trkpt>
      <trkpt lat="44.44851" lon="6.57757">
        <ele>2863</ele>
        <time>2021-04-08T10:00:25Z</time>
      </trkpt>
      <trkpt lat="44.44851" lon="6.57757">
        <ele>2863</ele>
        <time>2021-04-08T10:00:26Z</time>
      </trkpt>
      <trkpt lat="44.44851" lon="6.57757">
        <ele>2863</ele>
        <time>2021-04-08T10:00:27Z</time>
      </trkpt>
      <trkpt lat="44.44851" lon="6.57757">
        <ele>2862</ele>
        <time>2021-04-08T10:00:28Z</time>
      </trkpt>
      <trkpt lat="44.44851" lon="6.57757">
        <ele>2862</ele>
        <time>2021-04-08T10:00:29Z</time>
      </trkpt>
      <trkpt lat="44.44852" lon="6.57759">
        <ele>2862</ele>
        <time>2021-04-08T10:00:30Z</time>
      </trkpt>
      <trkpt lat="44.44852" lon="6.57759">
        <ele>2862</ele>
        <time>2021-04-08T10:00:31Z</time>
      </trkpt>
      <trkpt lat="44.44852" lon="6.57758">
        <ele>2862</ele>
        <time>2021-04-08T10:00:32Z</time>
      </trkpt>
      <trkpt lat="44.44852" lon="6.57758">
        <ele>2862</ele>
        <time>2021-04-08T10:00:33Z</time>
      </trkpt>
      <trkpt lat="44.44852" lon="6.57758">
        <ele>2862</ele>
        <time>2021-04-08T10:00:34Z</time>
      </trkpt>
      <trkpt lat="44.44852" lon="6.57758">
        <ele>2862</ele>
        <time>2021-04-08T10:00:35Z</time>
      </trkpt>
      <trkpt lat="44.44852" lon="6.57758">
        <ele>2862</ele>
        <time>2021-04-08T10:00:36Z</time>
      </trkpt>
      <trkpt lat="44.44852" lon="6.57758">
        <ele>2862</ele>
        <time>2021-04-08T10:00:37Z</time>
      </trkpt>
      <trkpt lat="44.44852" lon="6.57758">
        <ele>2862</ele>
        <time>2021-04-08T10:00:38Z</time>
      </trkpt>
      <trkpt lat="44.44852" lon="6.57758">
        <ele>2862</ele>
        <time>2021-04-08T10:00:39Z</time>
      </trkpt>
      <trkpt lat="44.44852" lon="6.57758">
        <ele>2862</ele>
        <time>2021-04-08T10:00:40Z</time>
      </trkpt>
      <trkpt lat="44.44852" lon="6.57758">
        <ele>2862</ele>
        <time>2021-04-08T10:00:41Z</time>
      </trkpt>
      <trkpt lat="44.44851" lon="6.57759">
        <ele>2862</ele>
        <time>2021-04-08T10:00:42Z</time>
      </trkpt>
      <trkpt lat="44.4485" lon="6.5776">
        <ele>2862</ele>
        <time>2021-04-08T10:00:43Z</time>
      </trkpt>
      <trkpt lat="44.4485" lon="6.5776">
        <ele>2862</ele>
        <time>2021-04-08T10:00:44Z</time>
      </trkpt>
      <trkpt lat="44.44851" lon="6.5776">
        <ele>2862</ele>
        <time>2021-04-08T10:00:45Z</time>
      </trkpt>
      <trkpt lat="44.44851" lon="6.57759">
        <ele>2862</ele>
        <time>2021-04-08T10:00:46Z</time>
      </trkpt>
      <trkpt lat="44.44852" lon="6.57759">
        <ele>2862</ele>
        <time>2021-04-08T10:00:47Z</time>
      </trkpt>
      <trkpt lat="44.44852" lon="6.57758">
        <ele>2862</ele>
        <time>2021-04-08T10:00:48Z</time>
      </trkpt>
      <trkpt lat="44.44853" lon="6.57758">
        <ele>2862</ele>
        <time>2021-04-08T10:00:49Z</time>
      </trkpt>
      <trkpt lat="44.44853" lon="6.57758">
        <ele>2862</ele>
        <time>2021-04-08T10:00:50Z</time>
      </trkpt>
      <trkpt lat="44.44853" lon="6.57758">
        <ele>2862</ele>
        <time>2021-04-08T10:00:51Z</time>
      </trkpt>
      <trkpt lat="44.44853" lon="6.57758">
        <ele>2862</ele>
        <time>2021-04-08T10:00:52Z</time>
      </trkpt>
      <trkpt lat="44.44853" lon="6.57758">
        <ele>2862</ele>
        <time>2021-04-08T10:00:53Z</time>
      </trkpt>
      <trkpt lat="44.44853" lon="6.57758">
        <ele>2862</ele>
        <time>2021-04-08T10:00:54Z</time>
      </trkpt>
      <trkpt lat="44.44853" lon="6.57758">
        <ele>2862</ele>
        <time>2021-04-08T10:00:55Z</time>
      </trkpt>
      <trkpt lat="44.44853" lon="6.57758">
        <ele>2862</ele>
        <time>2021-04-08T10:00:56Z</time>
      </trkpt>
      <trkpt lat="44.44853" lon="6.57758">
        <ele>2862</ele>
        <time>2021-04-08T10:00:57Z</time>
      </trkpt>
      <trkpt lat="44.44853" lon="6.57758">
        <ele>2862</ele>
        <time>2021-04-08T10:00:58Z</time>
      </trkpt>
      <trkpt lat="44.44853" lon="6.57758">
        <ele>2862</ele>
        <time>2021-04-08T10:00:59Z</time>
      </trkpt>
      <trkpt lat="44.44853" lon="6.57758">
        <ele>2862</ele>
        <time>2021-04-08T10:01:00Z</time>
      </trkpt>
      <trkpt lat="44.44853" lon="6.57758">
        <ele>2862</ele>
        <time>2021-04-08T10:01:01Z</time>
      </trkpt>
      <trkpt lat="44.44853" lon="6.57758">
        <ele>2862</ele>
        <time>2021-04-08T10:01:02Z</time>
      </trkpt>
      <trkpt lat="44.44853" lon="6.57758">
        <ele>2862</ele>
        <time>2021-04-08T10:01:03Z</time>
      </trkpt>
      <trkpt lat="44.44853" lon="6.57758">
        <ele>2862</ele>
        <time>2021-04-08T10:01:04Z</time>
      </trkpt>
      <trkpt lat="44.44853" lon="6.57758">
        <ele>2862</ele>
        <time>2021-04-08T10:01:05Z</time>
      </trkpt>
      <trkpt lat="44.44853" lon="6.57758">
        <ele>2862</ele>
        <time>2021-04-08T10:01:06Z</time>
      </trkpt>
      <trkpt lat="44.44853" lon="6.57758">
        <ele>2862</ele>
        <time>2021-04-08T10:01:07Z</time>
      </trkpt>
      <trkpt lat="44.44853" lon="6.57758">
        <ele>2862</ele>
        <time>2021-04-08T10:01:08Z</time>
      </trkpt>
      <trkpt lat="44.44853" lon="6.57758">
        <ele>2862</ele>
        <time>2021-04-08T10:01:09Z</time>
      </trkpt>
      <trkpt lat="44.44853" lon="6.57758">
        <ele>2862</ele>
        <time>2021-04-08T10:01:10Z</time>
      </trkpt>
      <trkpt lat="44.44853" lon="6.57758">
        <ele>2862</ele>
        <time>2021-04-08T10:01:11Z</time>
      </trkpt>
      <trkpt lat="44.44853" lon="6.57758">
        <ele>2862</ele>
        <time>2021-04-08T10:01:12Z</time>
      </trkpt>
      <trkpt lat="44.44853" lon="6.57758">
        <ele>2862</ele>
        <time>2021-04-08T10:01:13Z</time>
      </trkpt>
      <trkpt lat="44.44853" lon="6.57758">
        <ele>2862</ele>
        <time>2021-04-08T10:01:14Z</time>
      </trkpt>
      <trkpt lat="44.44853" lon="6.57758">
        <ele>2862</ele>
        <time>2021-04-08T10:01:15Z</time>
      </trkpt>
      <trkpt lat="44.44853" lon="6.57758">
        <ele>2862</ele>
        <time>2021-04-08T10:01:16Z</time>
      </trkpt>
      <trkpt lat="44.44853" lon="6.57758">
        <ele>2862</ele>
        <time>2021-04-08T10:01:17Z</time>
      </trkpt>
      <trkpt lat="44.44853" lon="6.57758">
        <ele>2862</ele>
        <time>2021-04-08T10:01:18Z</time>
      </trkpt>
      <trkpt lat="44.44853" lon="6.57758">
        <ele>2862</ele>
        <time>2021-04-08T10:01:19Z</time>
      </trkpt>
      <trkpt lat="44.44853" lon="6.57758">
        <ele>2862</ele>
        <time>2021-04-08T10:01:20Z</time>
      </trkpt>
      <trkpt lat="44.44853" lon="6.57758">
        <ele>2862</ele>
        <time>2021-04-08T10:01:21Z</time>
      </trkpt>
      <trkpt lat="44.44853" lon="6.57758">
        <ele>2862</ele>
        <time>2021-04-08T10:01:22Z</time>
      </trkpt>
      <trkpt lat="44.44853" lon="6.57758">
        <ele>2862</ele>
        <time>2021-04-08T10:01:23Z</time>
      </trkpt>
      <trkpt lat="44.44853" lon="6.57758">
        <ele>2862</ele>
        <time>2021-04-08T10:01:24Z</time>
      </trkpt>
      <trkpt lat="44.44853" lon="6.57758">
        <ele>2862</ele>
        <time>2021-04-08T10:01:25Z</time>
      </trkpt>
      <trkpt lat="44.44853" lon="6.57758">
        <ele>2862</ele>
        <time>2021-04-08T10:01:26Z</time>
      </trkpt>
      <trkpt lat="44.44853" lon="6.57758">
        <ele>2862</ele>
        <time>2021-04-08T10:01:27Z</time>
      </trkpt>
      <trkpt lat="44.44853" lon="6.57758">
        <ele>2862</ele>
        <time>2021-04-08T10:01:28Z</time>
      </trkpt>
      <trkpt lat="44.44851" lon="6.57758">
        <ele>2862</ele>
        <time>2021-04-08T10:01:29Z</time>
      </trkpt>
      <trkpt lat="44.4485" lon="6.57759">
        <ele>2862</ele>
        <time>2021-04-08T10:01:30Z</time>
      </trkpt>
      <trkpt lat="44.4485" lon="6.57758">
        <ele>2862</ele>
        <time>2021-04-08T10:01:31Z</time>
      </trkpt>
      <trkpt lat="44.4485" lon="6.57758">
        <ele>2862</ele>
        <time>2021-04-08T10:01:32Z</time>
      </trkpt>
      <trkpt lat="44.44851" lon="6.57757">
        <ele>2862</ele>
        <time>2021-04-08T10:01:33Z</time>
      </trkpt>
      <trkpt lat="44.44851" lon="6.57757">
        <ele>2862</ele>
        <time>2021-04-08T10:01:34Z</time>
      </trkpt>
      <trkpt lat="44.44851" lon="6.57757">
        <ele>2862</ele>
        <time>2021-04-08T10:01:35Z</time>
      </trkpt>
      <trkpt lat="44.44851" lon="6.57757">
        <ele>2862</ele>
        <time>2021-04-08T10:01:36Z</time>
      </trkpt>
      <trkpt lat="44.44851" lon="6.57757">
        <ele>2862</ele>
        <time>2021-04-08T10:01:37Z</time>
      </trkpt>
      <trkpt lat="44.44851" lon="6.57757">
        <ele>2862</ele>
        <time>2021-04-08T10:01:38Z</time>
      </trkpt>
      <trkpt lat="44.44851" lon="6.57757">
        <ele>2862</ele>
        <time>2021-04-08T10:01:39Z</time>
      </trkpt>
      <trkpt lat="44.44851" lon="6.57757">
        <ele>2862</ele>
        <time>2021-04-08T10:01:40Z</time>
      </trkpt>
      <trkpt lat="44.44851" lon="6.57757">
        <ele>2862</ele>
        <time>2021-04-08T10:01:41Z</time>
      </trkpt>
      <trkpt lat="44.44851" lon="6.57757">
        <ele>2862</ele>
        <time>2021-04-08T10:01:42Z</time>
      </trkpt>
      <trkpt lat="44.44851" lon="6.57757">
        <ele>2862</ele>
        <time>2021-04-08T10:01:43Z</time>
      </trkpt>
      <trkpt lat="44.44851" lon="6.57757">
        <ele>2862</ele>
        <time>2021-04-08T10:01:44Z</time>
      </trkpt>
      <trkpt lat="44.44851" lon="6.57757">
        <ele>2862</ele>
        <time>2021-04-08T10:01:45Z</time>
      </trkpt>
      <trkpt lat="44.44852" lon="6.57757">
        <ele>2862</ele>
        <time>2021-04-08T10:01:46Z</time>
      </trkpt>
      <trkpt lat="44.44852" lon="6.57757">
        <ele>2862</ele>
        <time>2021-04-08T10:01:47Z</time>
      </trkpt>
      <trkpt lat="44.44852" lon="6.57757">
        <ele>2862</ele>
        <time>2021-04-08T10:01:48Z</time>
      </trkpt>
      <trkpt lat="44.44852" lon="6.57757">
        <ele>2862</ele>
        <time>2021-04-08T10:01:49Z</time>
      </trkpt>
      <trkpt lat="44.44852" lon="6.57757">
        <ele>2862</ele>
        <time>2021-04-08T10:01:50Z</time>
      </trkpt>
      <trkpt lat="44.44852" lon="6.57757">
        <ele>2862</ele>
        <time>2021-04-08T10:01:51Z</time>
      </trkpt>
      <trkpt lat="44.44852" lon="6.57757">
        <ele>2862</ele>
        <time>2021-04-08T10:01:52Z</time>
      </trkpt>
      <trkpt lat="44.44852" lon="6.57757">
        <ele>2862</ele>
        <time>2021-04-08T10:01:53Z</time>
      </trkpt>
      <trkpt lat="44.44852" lon="6.57757">
        <ele>2862</ele>
        <time>2021-04-08T10:01:54Z</time>
      </trkpt>
      <trkpt lat="44.44852" lon="6.57757">
        <ele>2862</ele>
        <time>2021-04-08T10:01:55Z</time>
      </trkpt>
      <trkpt lat="44.44852" lon="6.57757">
        <ele>2862</ele>
        <time>2021-04-08T10:01:56Z</time>
      </trkpt>
      <trkpt lat="44.44852" lon="6.57757">
        <ele>2862</ele>
        <time>2021-04-08T10:01:57Z</time>
      </trkpt>
      <trkpt lat="44.44851" lon="6.57757">
        <ele>2862</ele>
        <time>2021-04-08T10:01:58Z</time>
      </trkpt>
      <trkpt lat="44.44851" lon="6.57757">
        <ele>2862</ele>
        <time>2021-04-08T10:01:59Z</time>
      </trkpt>
      <trkpt lat="44.44851" lon="6.57757">
        <ele>2863</ele>
        <time>2021-04-08T10:02:00Z</time>
      </trkpt>
      <trkpt lat="44.44851" lon="6.57757">
        <ele>2863</ele>
        <time>2021-04-08T10:02:01Z</time>
      </trkpt>
      <trkpt lat="44.44851" lon="6.57757">
        <ele>2863</ele>
        <time>2021-04-08T10:02:02Z</time>
      </trkpt>
      <trkpt lat="44.44851" lon="6.57757">
        <ele>2863</ele>
        <time>2021-04-08T10:02:03Z</time>
      </trkpt>
      <trkpt lat="44.44851" lon="6.57757">
        <ele>2863</ele>
        <time>2021-04-08T10:02:04Z</time>
      </trkpt>
      <trkpt lat="44.44851" lon="6.57757">
        <ele>2863</ele>
        <time>2021-04-08T10:02:05Z</time>
      </trkpt>
      <trkpt lat="44.44851" lon="6.57757">
        <ele>2863</ele>
        <time>2021-04-08T10:02:06Z</time>
      </trkpt>
      <trkpt lat="44.44851" lon="6.57757">
        <ele>2863</ele>
        <time>2021-04-08T10:02:07Z</time>
      </trkpt>
      <trkpt lat="44.44851" lon="6.57757">
        <ele>2863</ele>
        <time>2021-04-08T10:02:08Z</time>
      </trkpt>
      <trkpt lat="44.44851" lon="6.57757">
        <ele>2863</ele>
        <time>2021-04-08T10:02:09Z</time>
      </trkpt>
      <trkpt lat="44.44851" lon="6.57757">
        <ele>2863</ele>
        <time>2021-04-08T10:02:10Z</time>
      </trkpt>
      <trkpt lat="44.44851" lon="6.57757">
        <ele>2863</ele>
        <time>2021-04-08T10:02:11Z</time>
      </trkpt>
      <trkpt lat="44.44851" lon="6.57757">
        <ele>2863</ele>
        <time>2021-04-08T10:02:12Z</time>
      </trkpt>
      <trkpt lat="44.44851" lon="6.57757">
        <ele>2863</ele>
        <time>2021-04-08T10:02:13Z</time>
      </trkpt>
      <trkpt lat="44.44851" lon="6.57757">
        <ele>2863</ele>
        <time>2021-04-08T10:02:14Z</time>
      </trkpt>
      <trkpt lat="44.44851" lon="6.57757">
        <ele>2863</ele>
        <time>2021-04-08T10:02:15Z</time>
      </trkpt>
      <trkpt lat="44.44851" lon="6.57757">
        <ele>2863</ele>
        <time>2021-04-08T10:02:16Z</time>
      </trkpt>
      <trkpt lat="44.44851" lon="6.57757">
        <ele>2863</ele>
        <time>2021-04-08T10:02:17Z</time>
      </trkpt>
      <trkpt lat="44.44851" lon="6.57757">
        <ele>2863</ele>
        <time>2021-04-08T10:02:18Z</time>
      </trkpt>
      <trkpt lat="44.44851" lon="6.57757">
        <ele>2863</ele>
        <time>2021-04-08T10:02:19Z</time>
      </trkpt>
      <trkpt lat="44.44851" lon="6.57757">
        <ele>2863</ele>
        <time>2021-04-08T10:02:20Z</time>
      </trkpt>
      <trkpt lat="44.44851" lon="6.57757">
        <ele>2863</ele>
        <time>2021-04-08T10:02:21Z</time>
      </trkpt>
      <trkpt lat="44.44851" lon="6.57757">
        <ele>2863</ele>
        <time>2021-04-08T10:02:22Z</time>
      </trkpt>
      <trkpt lat="44.44851" lon="6.57757">
        <ele>2863</ele>
        <time>2021-04-08T10:02:23Z</time>
      </trkpt>
      <trkpt lat="44.44851" lon="6.57757">
        <ele>2863</ele>
        <time>2021-04-08T10:02:24Z</time>
      </trkpt>
      <trkpt lat="44.44851" lon="6.57757">
        <ele>2863</ele>
        <time>2021-04-08T10:02:25Z</time>
      </trkpt>
      <trkpt lat="44.44851" lon="6.57757">
        <ele>2863</ele>
        <time>2021-04-08T10:02:26Z</time>
      </trkpt>
      <trkpt lat="44.44851" lon="6.57757">
        <ele>2863</ele>
        <time>2021-04-08T10:02:27Z</time>
      </trkpt>
      <trkpt lat="44.44851" lon="6.57757">
        <ele>2863</ele>
        <time>2021-04-08T10:02:28Z</time>
      </trkpt>
      <trkpt lat="44.44851" lon="6.57757">
        <ele>2863</ele>
        <time>2021-04-08T10:02:29Z</time>
      </trkpt>
      <trkpt lat="44.44851" lon="6.57757">
        <ele>2863</ele>
        <time>2021-04-08T10:02:30Z</time>
      </trkpt>
      <trkpt lat="44.44851" lon="6.57757">
        <ele>2863</ele>
        <time>2021-04-08T10:02:31Z</time>
      </trkpt>
      <trkpt lat="44.44851" lon="6.57757">
        <ele>2863</ele>
        <time>2021-04-08T10:02:32Z</time>
      </trkpt>
      <trkpt lat="44.44851" lon="6.57757">
        <ele>2863</ele>
        <time>2021-04-08T10:02:33Z</time>
      </trkpt>
      <trkpt lat="44.44851" lon="6.57757">
        <ele>2863</ele>
        <time>2021-04-08T10:02:34Z</time>
      </trkpt>
      <trkpt lat="44.44851" lon="6.57757">
        <ele>2863</ele>
        <time>2021-04-08T10:02:35Z</time>
      </trkpt>
      <trkpt lat="44.44851" lon="6.57757">
        <ele>2863</ele>
        <time>2021-04-08T10:02:36Z</time>
      </trkpt>
      <trkpt lat="44.44851" lon="6.57757">
        <ele>2863</ele>
        <time>2021-04-08T10:02:37Z</time>
      </trkpt>
      <trkpt lat="44.44851" lon="6.57757">
        <ele>2863</ele>
        <time>2021-04-08T10:02:38Z</time>
      </trkpt>
      <trkpt lat="44.44851" lon="6.57757">
        <ele>2863</ele>
        <time>2021-04-08T10:02:39Z</time>
      </trkpt>
      <trkpt lat="44.44851" lon="6.57757">
        <ele>2863</ele>
        <time>2021-04-08T10:02:40Z</time>
      </trkpt>
      <trkpt lat="44.44851" lon="6.57757">
        <ele>2863</ele>
        <time>2021-04-08T10:02:41Z</time>
      </trkpt>
      <trkpt lat="44.44851" lon="6.57757">
        <ele>2863</ele>
        <time>2021-04-08T10:02:42Z</time>
      </trkpt>
      <trkpt lat="44.44851" lon="6.57757">
        <ele>2863</ele>
        <time>2021-04-08T10:02:43Z</time>
      </trkpt>
      <trkpt lat="44.44851" lon="6.57757">
        <ele>2863</ele>
        <time>2021-04-08T10:02:44Z</time>
      </trkpt>
      <trkpt lat="44.44851" lon="6.57757">
        <ele>2863</ele>
        <time>2021-04-08T10:02:45Z</time>
      </trkpt>
      <trkpt lat="44.44851" lon="6.57757">
        <ele>2863</ele>
        <time>2021-04-08T10:02:46Z</time>
      </trkpt>
      <trkpt lat="44.44851" lon="6.57757">
        <ele>2863</ele>
        <time>2021-04-08T10:02:47Z</time>
      </trkpt>
      <trkpt lat="44.44851" lon="6.57757">
        <ele>2863</ele>
        <time>2021-04-08T10:02:48Z</time>
      </trkpt>
      <trkpt lat="44.44851" lon="6.57757">
        <ele>2863</ele>
        <time>2021-04-08T10:02:49Z</time>
      </trkpt>
      <trkpt lat="44.44851" lon="6.57757">
        <ele>2863</ele>
        <time>2021-04-08T10:02:50Z</time>
      </trkpt>
      <trkpt lat="44.44851" lon="6.57757">
        <ele>2863</ele>
        <time>2021-04-08T10:02:51Z</time>
      </trkpt>
      <trkpt lat="44.44851" lon="6.57757">
        <ele>2863</ele>
        <time>2021-04-08T10:02:52Z</time>
      </trkpt>
      <trkpt lat="44.44851" lon="6.57757">
        <ele>2863</ele>
        <time>2021-04-08T10:02:53Z</time>
      </trkpt>
      <trkpt lat="44.44851" lon="6.57757">
        <ele>2863</ele>
        <time>2021-04-08T10:02:54Z</time>
      </trkpt>
      <trkpt lat="44.44851" lon="6.57757">
        <ele>2863</ele>
        <time>2021-04-08T10:02:55Z</time>
      </trkpt>
      <trkpt lat="44.44851" lon="6.57757">
        <ele>2863</ele>
        <time>2021-04-08T10:02:56Z</time>
      </trkpt>
      <trkpt lat="44.44851" lon="6.57757">
        <ele>2863</ele>
        <time>2021-04-08T10:02:57Z</time>
      </trkpt>
      <trkpt lat="44.44851" lon="6.57757">
        <ele>2863</ele>
        <time>2021-04-08T10:02:58Z</time>
      </trkpt>
      <trkpt lat="44.44851" lon="6.57757">
        <ele>2863</ele>
        <time>2021-04-08T10:02:59Z</time>
      </trkpt>
      <trkpt lat="44.44851" lon="6.57757">
        <ele>2863</ele>
        <time>2021-04-08T10:03:00Z</time>
      </trkpt>
      <trkpt lat="44.44851" lon="6.57757">
        <ele>2863</ele>
        <time>2021-04-08T10:03:01Z</time>
      </trkpt>
      <trkpt lat="44.44851" lon="6.57757">
        <ele>2863</ele>
        <time>2021-04-08T10:03:02Z</time>
      </trkpt>
      <trkpt lat="44.44851" lon="6.57757">
        <ele>2863</ele>
        <time>2021-04-08T10:03:03Z</time>
      </trkpt>
      <trkpt lat="44.44851" lon="6.57757">
        <ele>2863</ele>
        <time>2021-04-08T10:03:04Z</time>
      </trkpt>
      <trkpt lat="44.44851" lon="6.57757">
        <ele>2863</ele>
        <time>2021-04-08T10:03:05Z</time>
      </trkpt>
      <trkpt lat="44.44851" lon="6.57757">
        <ele>2863</ele>
        <time>2021-04-08T10:03:06Z</time>
      </trkpt>
      <trkpt lat="44.44851" lon="6.57757">
        <ele>2863</ele>
        <time>2021-04-08T10:03:07Z</time>
      </trkpt>
      <trkpt lat="44.44851" lon="6.57757">
        <ele>2863</ele>
        <time>2021-04-08T10:03:08Z</time>
      </trkpt>
      <trkpt lat="44.44851" lon="6.57757">
        <ele>2863</ele>
        <time>2021-04-08T10:03:09Z</time>
      </trkpt>
      <trkpt lat="44.44851" lon="6.57757">
        <ele>2863</ele>
        <time>2021-04-08T10:03:10Z</time>
      </trkpt>
      <trkpt lat="44.44851" lon="6.57757">
        <ele>2863</ele>
        <time>2021-04-08T10:03:11Z</time>
      </trkpt>
      <trkpt lat="44.44851" lon="6.57757">
        <ele>2863</ele>
        <time>2021-04-08T10:03:12Z</time>
      </trkpt>
      <trkpt lat="44.44851" lon="6.57757">
        <ele>2863</ele>
        <time>2021-04-08T10:03:13Z</time>
      </trkpt>
      <trkpt lat="44.44851" lon="6.57757">
        <ele>2863</ele>
        <time>2021-04-08T10:03:14Z</time>
      </trkpt>
      <trkpt lat="44.44851" lon="6.57757">
        <ele>2863</ele>
        <time>2021-04-08T10:03:15Z</time>
      </trkpt>
      <trkpt lat="44.44851" lon="6.57757">
        <ele>2863</ele>
        <time>2021-04-08T10:03:16Z</time>
      </trkpt>
      <trkpt lat="44.44851" lon="6.57757">
        <ele>2863</ele>
        <time>2021-04-08T10:03:17Z</time>
      </trkpt>
      <trkpt lat="44.44851" lon="6.57757">
        <ele>2863</ele>
        <time>2021-04-08T10:03:18Z</time>
      </trkpt>
      <trkpt lat="44.44851" lon="6.57757">
        <ele>2863</ele>
        <time>2021-04-08T10:03:19Z</time>
      </trkpt>
      <trkpt lat="44.44851" lon="6.57757">
        <ele>2863</ele>
        <time>2021-04-08T10:03:20Z</time>
      </trkpt>
      <trkpt lat="44.44851" lon="6.57757">
        <ele>2863</ele>
        <time>2021-04-08T10:03:21Z</time>
      </trkpt>
      <trkpt lat="44.44851" lon="6.57757">
        <ele>2863</ele>
        <time>2021-04-08T10:03:22Z</time>
      </trkpt>
      <trkpt lat="44.44851" lon="6.57757">
        <ele>2863</ele>
        <time>2021-04-08T10:03:23Z</time>
      </trkpt>
      <trkpt lat="44.44851" lon="6.57757">
        <ele>2863</ele>
        <time>2021-04-08T10:03:24Z</time>
      </trkpt>
      <trkpt lat="44.44851" lon="6.57757">
        <ele>2863</ele>
        <time>2021-04-08T10:03:25Z</time>
      </trkpt>
      <trkpt lat="44.44851" lon="6.57757">
        <ele>2863</ele>
        <time>2021-04-08T10:03:26Z</time>
      </trkpt>
      <trkpt lat="44.44851" lon="6.57757">
        <ele>2863</ele>
        <time>2021-04-08T10:03:27Z</time>
      </trkpt>
      <trkpt lat="44.44851" lon="6.57757">
        <ele>2863</ele>
        <time>2021-04-08T10:03:28Z</time>
      </trkpt>
      <trkpt lat="44.44851" lon="6.57757">
        <ele>2863</ele>
        <time>2021-04-08T10:03:29Z</time>
      </trkpt>
      <trkpt lat="44.44851" lon="6.57757">
        <ele>2863</ele>
        <time>2021-04-08T10:03:30Z</time>
      </trkpt>
      <trkpt lat="44.44851" lon="6.57757">
        <ele>2863</ele>
        <time>2021-04-08T10:03:31Z</time>
      </trkpt>
      <trkpt lat="44.44851" lon="6.57757">
        <ele>2863</ele>
        <time>2021-04-08T10:03:32Z</time>
      </trkpt>
      <trkpt lat="44.44851" lon="6.57757">
        <ele>2863</ele>
        <time>2021-04-08T10:03:33Z</time>
      </trkpt>
      <trkpt lat="44.44851" lon="6.57757">
        <ele>2863</ele>
        <time>2021-04-08T10:03:34Z</time>
      </trkpt>
      <trkpt lat="44.44851" lon="6.57757">
        <ele>2863</ele>
        <time>2021-04-08T10:03:35Z</time>
      </trkpt>
      <trkpt lat="44.44851" lon="6.57757">
        <ele>2863</ele>
        <time>2021-04-08T10:03:36Z</time>
      </trkpt>
      <trkpt lat="44.44851" lon="6.57757">
        <ele>2863</ele>
        <time>2021-04-08T10:03:37Z</time>
      </trkpt>
      <trkpt lat="44.44851" lon="6.57757">
        <ele>2863</ele>
        <time>2021-04-08T10:03:38Z</time>
      </trkpt>
      <trkpt lat="44.44851" lon="6.57757">
        <ele>2863</ele>
        <time>2021-04-08T10:03:39Z</time>
      </trkpt>
      <trkpt lat="44.44851" lon="6.57757">
        <ele>2863</ele>
        <time>2021-04-08T10:03:40Z</time>
      </trkpt>
      <trkpt lat="44.44851" lon="6.57757">
        <ele>2863</ele>
        <time>2021-04-08T10:03:41Z</time>
      </trkpt>
      <trkpt lat="44.44851" lon="6.57757">
        <ele>2863</ele>
        <time>2021-04-08T10:03:42Z</time>
      </trkpt>
      <trkpt lat="44.44851" lon="6.57757">
        <ele>2863</ele>
        <time>2021-04-08T10:03:43Z</time>
      </trkpt>
      <trkpt lat="44.44851" lon="6.57757">
        <ele>2863</ele>
        <time>2021-04-08T10:03:44Z</time>
      </trkpt>
      <trkpt lat="44.44851" lon="6.57757">
        <ele>2863</ele>
        <time>2021-04-08T10:03:45Z</time>
      </trkpt>
      <trkpt lat="44.44851" lon="6.57757">
        <ele>2863</ele>
        <time>2021-04-08T10:03:46Z</time>
      </trkpt>
      <trkpt lat="44.44851" lon="6.57757">
        <ele>2863</ele>
        <time>2021-04-08T10:03:47Z</time>
      </trkpt>
      <trkpt lat="44.44851" lon="6.57757">
        <ele>2863</ele>
        <time>2021-04-08T10:03:48Z</time>
      </trkpt>
      <trkpt lat="44.44851" lon="6.57758">
        <ele>2863</ele>
        <time>2021-04-08T10:03:49Z</time>
      </trkpt>
      <trkpt lat="44.44851" lon="6.57758">
        <ele>2863</ele>
        <time>2021-04-08T10:03:50Z</time>
      </trkpt>
      <trkpt lat="44.44852" lon="6.57758">
        <ele>2863</ele>
        <time>2021-04-08T10:03:51Z</time>
      </trkpt>
      <trkpt lat="44.44852" lon="6.57758">
        <ele>2863</ele>
        <time>2021-04-08T10:03:52Z</time>
      </trkpt>
      <trkpt lat="44.44852" lon="6.57758">
        <ele>2863</ele>
        <time>2021-04-08T10:03:53Z</time>
      </trkpt>
      <trkpt lat="44.44852" lon="6.57758">
        <ele>2863</ele>
        <time>2021-04-08T10:03:54Z</time>
      </trkpt>
      <trkpt lat="44.44852" lon="6.57758">
        <ele>2863</ele>
        <time>2021-04-08T10:03:55Z</time>
      </trkpt>
      <trkpt lat="44.44852" lon="6.57758">
        <ele>2863</ele>
        <time>2021-04-08T10:03:56Z</time>
      </trkpt>
      <trkpt lat="44.44852" lon="6.57758">
        <ele>2863</ele>
        <time>2021-04-08T10:03:57Z</time>
      </trkpt>
      <trkpt lat="44.44852" lon="6.57758">
        <ele>2863</ele>
        <time>2021-04-08T10:03:58Z</time>
      </trkpt>
      <trkpt lat="44.44852" lon="6.57758">
        <ele>2863</ele>
        <time>2021-04-08T10:03:59Z</time>
      </trkpt>
      <trkpt lat="44.44852" lon="6.57758">
        <ele>2863</ele>
        <time>2021-04-08T10:04:00Z</time>
      </trkpt>
      <trkpt lat="44.44852" lon="6.57758">
        <ele>2864</ele>
        <time>2021-04-08T10:04:01Z</time>
      </trkpt>
      <trkpt lat="44.44852" lon="6.57758">
        <ele>2864</ele>
        <time>2021-04-08T10:04:02Z</time>
      </trkpt>
      <trkpt lat="44.44852" lon="6.57758">
        <ele>2864</ele>
        <time>2021-04-08T10:04:03Z</time>
      </trkpt>
      <trkpt lat="44.44852" lon="6.57758">
        <ele>2864</ele>
        <time>2021-04-08T10:04:04Z</time>
      </trkpt>
      <trkpt lat="44.44852" lon="6.57758">
        <ele>2864</ele>
        <time>2021-04-08T10:04:05Z</time>
      </trkpt>
      <trkpt lat="44.44852" lon="6.57758">
        <ele>2864</ele>
        <time>2021-04-08T10:04:06Z</time>
      </trkpt>
      <trkpt lat="44.44852" lon="6.57758">
        <ele>2864</ele>
        <time>2021-04-08T10:04:07Z</time>
      </trkpt>
      <trkpt lat="44.44852" lon="6.57758">
        <ele>2864</ele>
        <time>2021-04-08T10:04:08Z</time>
      </trkpt>
      <trkpt lat="44.44852" lon="6.57758">
        <ele>2864</ele>
        <time>2021-04-08T10:04:09Z</time>
      </trkpt>
      <trkpt lat="44.44852" lon="6.57758">
        <ele>2864</ele>
        <time>2021-04-08T10:04:10Z</time>
      </trkpt>
      <trkpt lat="44.44852" lon="6.57758">
        <ele>2864</ele>
        <time>2021-04-08T10:04:11Z</time>
      </trkpt>
      <trkpt lat="44.44852" lon="6.57758">
        <ele>2864</ele>
        <time>2021-04-08T10:04:12Z</time>
      </trkpt>
      <trkpt lat="44.44852" lon="6.57758">
        <ele>2864</ele>
        <time>2021-04-08T10:04:13Z</time>
      </trkpt>
      <trkpt lat="44.44852" lon="6.57758">
        <ele>2864</ele>
        <time>2021-04-08T10:04:14Z</time>
      </trkpt>
      <trkpt lat="44.44852" lon="6.57758">
        <ele>2864</ele>
        <time>2021-04-08T10:04:15Z</time>
      </trkpt>
      <trkpt lat="44.44852" lon="6.57758">
        <ele>2864</ele>
        <time>2021-04-08T10:04:16Z</time>
      </trkpt>
      <trkpt lat="44.44852" lon="6.57758">
        <ele>2864</ele>
        <time>2021-04-08T10:04:17Z</time>
      </trkpt>
      <trkpt lat="44.44852" lon="6.57758">
        <ele>2864</ele>
        <time>2021-04-08T10:04:18Z</time>
      </trkpt>
      <trkpt lat="44.44852" lon="6.57758">
        <ele>2864</ele>
        <time>2021-04-08T10:04:19Z</time>
      </trkpt>
      <trkpt lat="44.44852" lon="6.57758">
        <ele>2864</ele>
        <time>2021-04-08T10:04:20Z</time>
      </trkpt>
      <trkpt lat="44.44852" lon="6.57758">
        <ele>2864</ele>
        <time>2021-04-08T10:04:21Z</time>
      </trkpt>
      <trkpt lat="44.44852" lon="6.57758">
        <ele>2864</ele>
        <time>2021-04-08T10:04:22Z</time>
      </trkpt>
      <trkpt lat="44.44852" lon="6.57758">
        <ele>2864</ele>
        <time>2021-04-08T10:04:23Z</time>
      </trkpt>
      <trkpt lat="44.44852" lon="6.57758">
        <ele>2864</ele>
        <time>2021-04-08T10:04:24Z</time>
      </trkpt>
      <trkpt lat="44.44852" lon="6.57758">
        <ele>2864</ele>
        <time>2021-04-08T10:04:25Z</time>
      </trkpt>
      <trkpt lat="44.44852" lon="6.57758">
        <ele>2864</ele>
        <time>2021-04-08T10:04:26Z</time>
      </trkpt>
      <trkpt lat="44.44852" lon="6.57758">
        <ele>2864</ele>
        <time>2021-04-08T10:04:27Z</time>
      </trkpt>
      <trkpt lat="44.44852" lon="6.57758">
        <ele>2864</ele>
        <time>2021-04-08T10:04:28Z</time>
      </trkpt>
      <trkpt lat="44.44852" lon="6.57758">
        <ele>2864</ele>
        <time>2021-04-08T10:04:29Z</time>
      </trkpt>
      <trkpt lat="44.44852" lon="6.57758">
        <ele>2864</ele>
        <time>2021-04-08T10:04:30Z</time>
      </trkpt>
      <trkpt lat="44.44852" lon="6.57758">
        <ele>2864</ele>
        <time>2021-04-08T10:04:31Z</time>
      </trkpt>
      <trkpt lat="44.44852" lon="6.57758">
        <ele>2864</ele>
        <time>2021-04-08T10:04:32Z</time>
      </trkpt>
      <trkpt lat="44.44852" lon="6.57758">
        <ele>2864</ele>
        <time>2021-04-08T10:04:33Z</time>
      </trkpt>
      <trkpt lat="44.44852" lon="6.57758">
        <ele>2864</ele>
        <time>2021-04-08T10:04:34Z</time>
      </trkpt>
      <trkpt lat="44.44852" lon="6.57758">
        <ele>2864</ele>
        <time>2021-04-08T10:04:35Z</time>
      </trkpt>
      <trkpt lat="44.44852" lon="6.57758">
        <ele>2864</ele>
        <time>2021-04-08T10:04:36Z</time>
      </trkpt>
      <trkpt lat="44.44852" lon="6.57758">
        <ele>2864</ele>
        <time>2021-04-08T10:04:37Z</time>
      </trkpt>
      <trkpt lat="44.44852" lon="6.57758">
        <ele>2864</ele>
        <time>2021-04-08T10:04:38Z</time>
      </trkpt>
      <trkpt lat="44.44852" lon="6.57758">
        <ele>2864</ele>
        <time>2021-04-08T10:04:39Z</time>
      </trkpt>
      <trkpt lat="44.44852" lon="6.57758">
        <ele>2864</ele>
        <time>2021-04-08T10:04:40Z</time>
      </trkpt>
      <trkpt lat="44.44852" lon="6.57758">
        <ele>2864</ele>
        <time>2021-04-08T10:04:41Z</time>
      </trkpt>
      <trkpt lat="44.44852" lon="6.57758">
        <ele>2864</ele>
        <time>2021-04-08T10:04:42Z</time>
      </trkpt>
      <trkpt lat="44.44852" lon="6.57758">
        <ele>2864</ele>
        <time>2021-04-08T10:04:43Z</time>
      </trkpt>
      <trkpt lat="44.44852" lon="6.57758">
        <ele>2864</ele>
        <time>2021-04-08T10:04:44Z</time>
      </trkpt>
      <trkpt lat="44.44852" lon="6.57758">
        <ele>2864</ele>
        <time>2021-04-08T10:04:45Z</time>
      </trkpt>
      <trkpt lat="44.44852" lon="6.57758">
        <ele>2864</ele>
        <time>2021-04-08T10:04:46Z</time>
      </trkpt>
      <trkpt lat="44.44852" lon="6.57758">
        <ele>2864</ele>
        <time>2021-04-08T10:04:47Z</time>
      </trkpt>
      <trkpt lat="44.44852" lon="6.57758">
        <ele>2864</ele>
        <time>2021-04-08T10:04:48Z</time>
      </trkpt>
      <trkpt lat="44.44852" lon="6.57758">
        <ele>2864</ele>
        <time>2021-04-08T10:04:49Z</time>
      </trkpt>
      <trkpt lat="44.44852" lon="6.57758">
        <ele>2864</ele>
        <time>2021-04-08T10:04:50Z</time>
      </trkpt>
      <trkpt lat="44.44852" lon="6.57758">
        <ele>2864</ele>
        <time>2021-04-08T10:04:51Z</time>
      </trkpt>
      <trkpt lat="44.44852" lon="6.57758">
        <ele>2864</ele>
        <time>2021-04-08T10:04:52Z</time>
      </trkpt>
      <trkpt lat="44.44852" lon="6.57758">
        <ele>2864</ele>
        <time>2021-04-08T10:04:53Z</time>
      </trkpt>
      <trkpt lat="44.44852" lon="6.57758">
        <ele>2864</ele>
        <time>2021-04-08T10:04:54Z</time>
      </trkpt>
      <trkpt lat="44.44852" lon="6.57758">
        <ele>2864</ele>
        <time>2021-04-08T10:04:55Z</time>
      </trkpt>
      <trkpt lat="44.44852" lon="6.57758">
        <ele>2864</ele>
        <time>2021-04-08T10:04:56Z</time>
      </trkpt>
      <trkpt lat="44.44852" lon="6.57758">
        <ele>2864</ele>
        <time>2021-04-08T10:04:57Z</time>
      </trkpt>
      <trkpt lat="44.44852" lon="6.57758">
        <ele>2864</ele>
        <time>2021-04-08T10:04:58Z</time>
      </trkpt>
      <trkpt lat="44.44852" lon="6.57758">
        <ele>2864</ele>
        <time>2021-04-08T10:04:59Z</time>
      </trkpt>
      <trkpt lat="44.44852" lon="6.57758">
        <ele>2864</ele>
        <time>2021-04-08T10:05:00Z</time>
      </trkpt>
      <trkpt lat="44.44852" lon="6.57758">
        <ele>2864</ele>
        <time>2021-04-08T10:05:01Z</time>
      </trkpt>
      <trkpt lat="44.44852" lon="6.57758">
        <ele>2864</ele>
        <time>2021-04-08T10:05:02Z</time>
      </trkpt>
      <trkpt lat="44.44852" lon="6.57758">
        <ele>2864</ele>
        <time>2021-04-08T10:05:03Z</time>
      </trkpt>
      <trkpt lat="44.44852" lon="6.57758">
        <ele>2864</ele>
        <time>2021-04-08T10:05:04Z</time>
      </trkpt>
      <trkpt lat="44.44852" lon="6.57758">
        <ele>2864</ele>
        <time>2021-04-08T10:05:05Z</time>
      </trkpt>
      <trkpt lat="44.44852" lon="6.57758">
        <ele>2864</ele>
        <time>2021-04-08T10:05:06Z</time>
      </trkpt>
      <trkpt lat="44.44852" lon="6.57758">
        <ele>2864</ele>
        <time>2021-04-08T10:05:07Z</time>
      </trkpt>
      <trkpt lat="44.44852" lon="6.57758">
        <ele>2864</ele>
        <time>2021-04-08T10:05:08Z</time>
      </trkpt>
      <trkpt lat="44.44852" lon="6.57758">
        <ele>2864</ele>
        <time>2021-04-08T10:05:09Z</time>
      </trkpt>
      <trkpt lat="44.44852" lon="6.57758">
        <ele>2864</ele>
        <time>2021-04-08T10:05:10Z</time>
      </trkpt>
      <trkpt lat="44.44852" lon="6.57758">
        <ele>2864</ele>
        <time>2021-04-08T10:05:11Z</time>
      </trkpt>
      <trkpt lat="44.44852" lon="6.57758">
        <ele>2864</ele>
        <time>2021-04-08T10:05:12Z</time>
      </trkpt>
      <trkpt lat="44.44852" lon="6.57758">
        <ele>2864</ele>
        <time>2021-04-08T10:05:13Z</time>
      </trkpt>
      <trkpt lat="44.44852" lon="6.57758">
        <ele>2864</ele>
        <time>2021-04-08T10:05:14Z</time>
      </trkpt>
      <trkpt lat="44.44852" lon="6.57758">
        <ele>2864</ele>
        <time>2021-04-08T10:05:15Z</time>
      </trkpt>
      <trkpt lat="44.44852" lon="6.57758">
        <ele>2864</ele>
        <time>2021-04-08T10:05:16Z</time>
      </trkpt>
      <trkpt lat="44.44852" lon="6.57758">
        <ele>2864</ele>
        <time>2021-04-08T10:05:17Z</time>
      </trkpt>
      <trkpt lat="44.44852" lon="6.57758">
        <ele>2864</ele>
        <time>2021-04-08T10:05:18Z</time>
      </trkpt>
      <trkpt lat="44.44852" lon="6.57758">
        <ele>2864</ele>
        <time>2021-04-08T10:05:19Z</time>
      </trkpt>
      <trkpt lat="44.44852" lon="6.57758">
        <ele>2864</ele>
        <time>2021-04-08T10:05:20Z</time>
      </trkpt>
      <trkpt lat="44.44852" lon="6.57758">
        <ele>2864</ele>
        <time>2021-04-08T10:05:21Z</time>
      </trkpt>
      <trkpt lat="44.44852" lon="6.57758">
        <ele>2864</ele>
        <time>2021-04-08T10:05:22Z</time>
      </trkpt>
      <trkpt lat="44.44852" lon="6.57758">
        <ele>2864</ele>
        <time>2021-04-08T10:05:23Z</time>
      </trkpt>
      <trkpt lat="44.44852" lon="6.57758">
        <ele>2864</ele>
        <time>2021-04-08T10:05:24Z</time>
      </trkpt>
      <trkpt lat="44.44852" lon="6.57758">
        <ele>2864</ele>
        <time>2021-04-08T10:05:25Z</time>
      </trkpt>
      <trkpt lat="44.44852" lon="6.57758">
        <ele>2864</ele>
        <time>2021-04-08T10:05:26Z</time>
      </trkpt>
      <trkpt lat="44.44852" lon="6.57758">
        <ele>2864</ele>
        <time>2021-04-08T10:05:27Z</time>
      </trkpt>
      <trkpt lat="44.44852" lon="6.57758">
        <ele>2864</ele>
        <time>2021-04-08T10:05:28Z</time>
      </trkpt>
      <trkpt lat="44.44852" lon="6.57758">
        <ele>2864</ele>
        <time>2021-04-08T10:05:29Z</time>
      </trkpt>
      <trkpt lat="44.44852" lon="6.57758">
        <ele>2864</ele>
        <time>2021-04-08T10:05:30Z</time>
      </trkpt>
      <trkpt lat="44.44852" lon="6.57758">
        <ele>2864</ele>
        <time>2021-04-08T10:05:31Z</time>
      </trkpt>
      <trkpt lat="44.44852" lon="6.57758">
        <ele>2864</ele>
        <time>2021-04-08T10:05:32Z</time>
      </trkpt>
      <trkpt lat="44.44852" lon="6.57758">
        <ele>2864</ele>
        <time>2021-04-08T10:05:33Z</time>
      </trkpt>
      <trkpt lat="44.44852" lon="6.57758">
        <ele>2864</ele>
        <time>2021-04-08T10:05:34Z</time>
      </trkpt>
      <trkpt lat="44.44852" lon="6.57758">
        <ele>2864</ele>
        <time>2021-04-08T10:05:35Z</time>
      </trkpt>
      <trkpt lat="44.44852" lon="6.57758">
        <ele>2864</ele>
        <time>2021-04-08T10:05:36Z</time>
      </trkpt>
      <trkpt lat="44.44852" lon="6.57758">
        <ele>2864</ele>
        <time>2021-04-08T10:05:37Z</time>
      </trkpt>
      <trkpt lat="44.44852" lon="6.57758">
        <ele>2864</ele>
        <time>2021-04-08T10:05:38Z</time>
      </trkpt>
      <trkpt lat="44.44852" lon="6.57758">
        <ele>2864</ele>
        <time>2021-04-08T10:05:39Z</time>
      </trkpt>
      <trkpt lat="44.44852" lon="6.57758">
        <ele>2864</ele>
        <time>2021-04-08T10:05:40Z</time>
      </trkpt>
      <trkpt lat="44.44852" lon="6.57758">
        <ele>2864</ele>
        <time>2021-04-08T10:05:41Z</time>
      </trkpt>
      <trkpt lat="44.44852" lon="6.57758">
        <ele>2865</ele>
        <time>2021-04-08T10:05:42Z</time>
      </trkpt>
      <trkpt lat="44.44852" lon="6.57758">
        <ele>2865</ele>
        <time>2021-04-08T10:05:43Z</time>
      </trkpt>
      <trkpt lat="44.44852" lon="6.57758">
        <ele>2865</ele>
        <time>2021-04-08T10:05:44Z</time>
      </trkpt>
      <trkpt lat="44.44852" lon="6.57758">
        <ele>2865</ele>
        <time>2021-04-08T10:05:45Z</time>
      </trkpt>
      <trkpt lat="44.44852" lon="6.57758">
        <ele>2865</ele>
        <time>2021-04-08T10:05:46Z</time>
      </trkpt>
      <trkpt lat="44.44852" lon="6.57758">
        <ele>2865</ele>
        <time>2021-04-08T10:05:47Z</time>
      </trkpt>
      <trkpt lat="44.44852" lon="6.57758">
        <ele>2865</ele>
        <time>2021-04-08T10:05:48Z</time>
      </trkpt>
      <trkpt lat="44.44852" lon="6.57758">
        <ele>2865</ele>
        <time>2021-04-08T10:05:49Z</time>
      </trkpt>
      <trkpt lat="44.44852" lon="6.57758">
        <ele>2865</ele>
        <time>2021-04-08T10:05:50Z</time>
      </trkpt>
      <trkpt lat="44.44852" lon="6.57758">
        <ele>2865</ele>
        <time>2021-04-08T10:05:51Z</time>
      </trkpt>
      <trkpt lat="44.44852" lon="6.57758">
        <ele>2865</ele>
        <time>2021-04-08T10:05:52Z</time>
      </trkpt>
      <trkpt lat="44.44853" lon="6.57758">
        <ele>2865</ele>
        <time>2021-04-08T10:05:53Z</time>
      </trkpt>
      <trkpt lat="44.44853" lon="6.57757">
        <ele>2865</ele>
        <time>2021-04-08T10:05:54Z</time>
      </trkpt>
      <trkpt lat="44.44853" lon="6.57757">
        <ele>2865</ele>
        <time>2021-04-08T10:05:55Z</time>
      </trkpt>
      <trkpt lat="44.44853" lon="6.57756">
        <ele>2865</ele>
        <time>2021-04-08T10:05:56Z</time>
      </trkpt>
      <trkpt lat="44.44853" lon="6.57757">
        <ele>2865</ele>
        <time>2021-04-08T10:05:57Z</time>
      </trkpt>
      <trkpt lat="44.44853" lon="6.57757">
        <ele>2865</ele>
        <time>2021-04-08T10:05:58Z</time>
      </trkpt>
      <trkpt lat="44.44853" lon="6.57757">
        <ele>2865</ele>
        <time>2021-04-08T10:05:59Z</time>
      </trkpt>
      <trkpt lat="44.44853" lon="6.57757">
        <ele>2865</ele>
        <time>2021-04-08T10:06:00Z</time>
      </trkpt>
      <trkpt lat="44.44853" lon="6.57757">
        <ele>2865</ele>
        <time>2021-04-08T10:06:01Z</time>
      </trkpt>
      <trkpt lat="44.44853" lon="6.57757">
        <ele>2865</ele>
        <time>2021-04-08T10:06:02Z</time>
      </trkpt>
      <trkpt lat="44.44853" lon="6.57757">
        <ele>2865</ele>
        <time>2021-04-08T10:06:03Z</time>
      </trkpt>
      <trkpt lat="44.44853" lon="6.57757">
        <ele>2865</ele>
        <time>2021-04-08T10:06:04Z</time>
      </trkpt>
      <trkpt lat="44.44853" lon="6.57757">
        <ele>2865</ele>
        <time>2021-04-08T10:06:05Z</time>
      </trkpt>
      <trkpt lat="44.44853" lon="6.57757">
        <ele>2865</ele>
        <time>2021-04-08T10:06:06Z</time>
      </trkpt>
      <trkpt lat="44.44853" lon="6.57757">
        <ele>2865</ele>
        <time>2021-04-08T10:06:07Z</time>
      </trkpt>
      <trkpt lat="44.44853" lon="6.57757">
        <ele>2865</ele>
        <time>2021-04-08T10:06:08Z</time>
      </trkpt>
      <trkpt lat="44.44853" lon="6.57757">
        <ele>2865</ele>
        <time>2021-04-08T10:06:09Z</time>
      </trkpt>
      <trkpt lat="44.44853" lon="6.57757">
        <ele>2865</ele>
        <time>2021-04-08T10:06:10Z</time>
      </trkpt>
      <trkpt lat="44.44853" lon="6.57757">
        <ele>2865</ele>
        <time>2021-04-08T10:06:11Z</time>
      </trkpt>
      <trkpt lat="44.44853" lon="6.57757">
        <ele>2865</ele>
        <time>2021-04-08T10:06:12Z</time>
      </trkpt>
      <trkpt lat="44.44853" lon="6.57757">
        <ele>2865</ele>
        <time>2021-04-08T10:06:13Z</time>
      </trkpt>
      <trkpt lat="44.44853" lon="6.57757">
        <ele>2865</ele>
        <time>2021-04-08T10:06:14Z</time>
      </trkpt>
      <trkpt lat="44.44853" lon="6.57757">
        <ele>2865</ele>
        <time>2021-04-08T10:06:15Z</time>
      </trkpt>
      <trkpt lat="44.44853" lon="6.57757">
        <ele>2865</ele>
        <time>2021-04-08T10:06:16Z</time>
      </trkpt>
      <trkpt lat="44.44853" lon="6.57757">
        <ele>2865</ele>
        <time>2021-04-08T10:06:17Z</time>
      </trkpt>
      <trkpt lat="44.44853" lon="6.57757">
        <ele>2865</ele>
        <time>2021-04-08T10:06:18Z</time>
      </trkpt>
      <trkpt lat="44.44853" lon="6.57757">
        <ele>2865</ele>
        <time>2021-04-08T10:06:19Z</time>
      </trkpt>
      <trkpt lat="44.44853" lon="6.57757">
        <ele>2865</ele>
        <time>2021-04-08T10:06:20Z</time>
      </trkpt>
      <trkpt lat="44.44853" lon="6.57757">
        <ele>2865</ele>
        <time>2021-04-08T10:06:21Z</time>
      </trkpt>
      <trkpt lat="44.44853" lon="6.57757">
        <ele>2865</ele>
        <time>2021-04-08T10:06:22Z</time>
      </trkpt>
      <trkpt lat="44.44853" lon="6.57757">
        <ele>2865</ele>
        <time>2021-04-08T10:06:23Z</time>
      </trkpt>
      <trkpt lat="44.44853" lon="6.57757">
        <ele>2865</ele>
        <time>2021-04-08T10:06:24Z</time>
      </trkpt>
      <trkpt lat="44.44853" lon="6.57757">
        <ele>2865</ele>
        <time>2021-04-08T10:06:25Z</time>
      </trkpt>
      <trkpt lat="44.44853" lon="6.57757">
        <ele>2865</ele>
        <time>2021-04-08T10:06:26Z</time>
      </trkpt>
      <trkpt lat="44.44853" lon="6.57757">
        <ele>2865</ele>
        <time>2021-04-08T10:06:27Z</time>
      </trkpt>
      <trkpt lat="44.44853" lon="6.57757">
        <ele>2865</ele>
        <time>2021-04-08T10:06:28Z</time>
      </trkpt>
      <trkpt lat="44.44853" lon="6.57757">
        <ele>2865</ele>
        <time>2021-04-08T10:06:29Z</time>
      </trkpt>
      <trkpt lat="44.44853" lon="6.57757">
        <ele>2865</ele>
        <time>2021-04-08T10:06:30Z</time>
      </trkpt>
      <trkpt lat="44.44853" lon="6.57757">
        <ele>2865</ele>
        <time>2021-04-08T10:06:31Z</time>
      </trkpt>
      <trkpt lat="44.44853" lon="6.57757">
        <ele>2865</ele>
        <time>2021-04-08T10:06:32Z</time>
      </trkpt>
      <trkpt lat="44.44853" lon="6.57757">
        <ele>2865</ele>
        <time>2021-04-08T10:06:33Z</time>
      </trkpt>
      <trkpt lat="44.44853" lon="6.57757">
        <ele>2865</ele>
        <time>2021-04-08T10:06:34Z</time>
      </trkpt>
      <trkpt lat="44.44853" lon="6.57757">
        <ele>2865</ele>
        <time>2021-04-08T10:06:35Z</time>
      </trkpt>
      <trkpt lat="44.44853" lon="6.57757">
        <ele>2865</ele>
        <time>2021-04-08T10:06:36Z</time>
      </trkpt>
      <trkpt lat="44.44853" lon="6.57757">
        <ele>2865</ele>
        <time>2021-04-08T10:06:37Z</time>
      </trkpt>
      <trkpt lat="44.44853" lon="6.57757">
        <ele>2865</ele>
        <time>2021-04-08T10:06:38Z</time>
      </trkpt>
      <trkpt lat="44.44853" lon="6.57757">
        <ele>2865</ele>
        <time>2021-04-08T10:06:39Z</time>
      </trkpt>
      <trkpt lat="44.44853" lon="6.57757">
        <ele>2865</ele>
        <time>2021-04-08T10:06:40Z</time>
      </trkpt>
      <trkpt lat="44.44853" lon="6.57757">
        <ele>2865</ele>
        <time>2021-04-08T10:06:41Z</time>
      </trkpt>
      <trkpt lat="44.44853" lon="6.57757">
        <ele>2865</ele>
        <time>2021-04-08T10:06:42Z</time>
      </trkpt>
      <trkpt lat="44.44853" lon="6.57757">
        <ele>2865</ele>
        <time>2021-04-08T10:06:43Z</time>
      </trkpt>
      <trkpt lat="44.44853" lon="6.57757">
        <ele>2865</ele>
        <time>2021-04-08T10:06:44Z</time>
      </trkpt>
      <trkpt lat="44.44853" lon="6.57757">
        <ele>2865</ele>
        <time>2021-04-08T10:06:45Z</time>
      </trkpt>
      <trkpt lat="44.44853" lon="6.57757">
        <ele>2865</ele>
        <time>2021-04-08T10:06:46Z</time>
      </trkpt>
      <trkpt lat="44.44853" lon="6.57757">
        <ele>2865</ele>
        <time>2021-04-08T10:06:47Z</time>
      </trkpt>
      <trkpt lat="44.44853" lon="6.57757">
        <ele>2865</ele>
        <time>2021-04-08T10:06:48Z</time>
      </trkpt>
      <trkpt lat="44.44853" lon="6.57757">
        <ele>2865</ele>
        <time>2021-04-08T10:06:49Z</time>
      </trkpt>
      <trkpt lat="44.44853" lon="6.57757">
        <ele>2865</ele>
        <time>2021-04-08T10:06:50Z</time>
      </trkpt>
      <trkpt lat="44.44853" lon="6.57757">
        <ele>2865</ele>
        <time>2021-04-08T10:06:51Z</time>
      </trkpt>
      <trkpt lat="44.44853" lon="6.57757">
        <ele>2865</ele>
        <time>2021-04-08T10:06:52Z</time>
      </trkpt>
      <trkpt lat="44.44853" lon="6.57757">
        <ele>2865</ele>
        <time>2021-04-08T10:06:53Z</time>
      </trkpt>
      <trkpt lat="44.44853" lon="6.57757">
        <ele>2865</ele>
        <time>2021-04-08T10:06:54Z</time>
      </trkpt>
      <trkpt lat="44.44853" lon="6.57757">
        <ele>2865</ele>
        <time>2021-04-08T10:06:55Z</time>
      </trkpt>
      <trkpt lat="44.44853" lon="6.57757">
        <ele>2865</ele>
        <time>2021-04-08T10:06:56Z</time>
      </trkpt>
      <trkpt lat="44.44853" lon="6.57757">
        <ele>2865</ele>
        <time>2021-04-08T10:06:57Z</time>
      </trkpt>
      <trkpt lat="44.44853" lon="6.57757">
        <ele>2865</ele>
        <time>2021-04-08T10:06:58Z</time>
      </trkpt>
      <trkpt lat="44.44853" lon="6.57757">
        <ele>2865</ele>
        <time>2021-04-08T10:06:59Z</time>
      </trkpt>
      <trkpt lat="44.44853" lon="6.57757">
        <ele>2865</ele>
        <time>2021-04-08T10:07:00Z</time>
      </trkpt>
      <trkpt lat="44.44853" lon="6.57757">
        <ele>2865</ele>
        <time>2021-04-08T10:07:01Z</time>
      </trkpt>
      <trkpt lat="44.44853" lon="6.57757">
        <ele>2865</ele>
        <time>2021-04-08T10:07:02Z</time>
      </trkpt>
      <trkpt lat="44.44853" lon="6.57757">
        <ele>2865</ele>
        <time>2021-04-08T10:07:03Z</time>
      </trkpt>
      <trkpt lat="44.44853" lon="6.57757">
        <ele>2865</ele>
        <time>2021-04-08T10:07:04Z</time>
      </trkpt>
      <trkpt lat="44.44853" lon="6.57757">
        <ele>2865</ele>
        <time>2021-04-08T10:07:05Z</time>
      </trkpt>
      <trkpt lat="44.44853" lon="6.57757">
        <ele>2865</ele>
        <time>2021-04-08T10:07:06Z</time>
      </trkpt>
      <trkpt lat="44.44853" lon="6.57757">
        <ele>2865</ele>
        <time>2021-04-08T10:07:07Z</time>
      </trkpt>
      <trkpt lat="44.44853" lon="6.57757">
        <ele>2865</ele>
        <time>2021-04-08T10:07:08Z</time>
      </trkpt>
      <trkpt lat="44.44851" lon="6.57759">
        <ele>2865</ele>
        <time>2021-04-08T10:07:09Z</time>
      </trkpt>
      <trkpt lat="44.4485" lon="6.57759">
        <ele>2865</ele>
        <time>2021-04-08T10:07:10Z</time>
      </trkpt>
      <trkpt lat="44.4485" lon="6.57758">
        <ele>2865</ele>
        <time>2021-04-08T10:07:11Z</time>
      </trkpt>
      <trkpt lat="44.4485" lon="6.57758">
        <ele>2865</ele>
        <time>2021-04-08T10:07:12Z</time>
      </trkpt>
      <trkpt lat="44.4485" lon="6.57758">
        <ele>2865</ele>
        <time>2021-04-08T10:07:13Z</time>
      </trkpt>
      <trkpt lat="44.44851" lon="6.57758">
        <ele>2865</ele>
        <time>2021-04-08T10:07:14Z</time>
      </trkpt>
      <trkpt lat="44.44851" lon="6.57758">
        <ele>2865</ele>
        <time>2021-04-08T10:07:15Z</time>
      </trkpt>
      <trkpt lat="44.44851" lon="6.57758">
        <ele>2865</ele>
        <time>2021-04-08T10:07:16Z</time>
      </trkpt>
      <trkpt lat="44.44851" lon="6.57758">
        <ele>2865</ele>
        <time>2021-04-08T10:07:17Z</time>
      </trkpt>
      <trkpt lat="44.44851" lon="6.57758">
        <ele>2865</ele>
        <time>2021-04-08T10:07:18Z</time>
      </trkpt>
      <trkpt lat="44.44851" lon="6.57758">
        <ele>2865</ele>
        <time>2021-04-08T10:07:19Z</time>
      </trkpt>
      <trkpt lat="44.44851" lon="6.57758">
        <ele>2865</ele>
        <time>2021-04-08T10:07:20Z</time>
      </trkpt>
      <trkpt lat="44.44851" lon="6.57758">
        <ele>2865</ele>
        <time>2021-04-08T10:07:21Z</time>
      </trkpt>
      <trkpt lat="44.44851" lon="6.57758">
        <ele>2865</ele>
        <time>2021-04-08T10:07:22Z</time>
      </trkpt>
      <trkpt lat="44.44851" lon="6.57758">
        <ele>2865</ele>
        <time>2021-04-08T10:07:23Z</time>
      </trkpt>
      <trkpt lat="44.44851" lon="6.57758">
        <ele>2865</ele>
        <time>2021-04-08T10:07:24Z</time>
      </trkpt>
      <trkpt lat="44.44851" lon="6.57758">
        <ele>2865</ele>
        <time>2021-04-08T10:07:25Z</time>
      </trkpt>
      <trkpt lat="44.44851" lon="6.57758">
        <ele>2865</ele>
        <time>2021-04-08T10:07:26Z</time>
      </trkpt>
      <trkpt lat="44.44851" lon="6.57758">
        <ele>2865</ele>
        <time>2021-04-08T10:07:27Z</time>
      </trkpt>
      <trkpt lat="44.44851" lon="6.57758">
        <ele>2865</ele>
        <time>2021-04-08T10:07:28Z</time>
      </trkpt>
      <trkpt lat="44.44851" lon="6.57758">
        <ele>2865</ele>
        <time>2021-04-08T10:07:29Z</time>
      </trkpt>
      <trkpt lat="44.44851" lon="6.57758">
        <ele>2865</ele>
        <time>2021-04-08T10:07:30Z</time>
      </trkpt>
      <trkpt lat="44.44851" lon="6.57758">
        <ele>2865</ele>
        <time>2021-04-08T10:07:31Z</time>
      </trkpt>
      <trkpt lat="44.44851" lon="6.57758">
        <ele>2865</ele>
        <time>2021-04-08T10:07:32Z</time>
      </trkpt>
      <trkpt lat="44.44851" lon="6.57758">
        <ele>2865</ele>
        <time>2021-04-08T10:07:33Z</time>
      </trkpt>
      <trkpt lat="44.44851" lon="6.57758">
        <ele>2865</ele>
        <time>2021-04-08T10:07:34Z</time>
      </trkpt>
      <trkpt lat="44.44851" lon="6.57758">
        <ele>2865</ele>
        <time>2021-04-08T10:07:35Z</time>
      </trkpt>
      <trkpt lat="44.44851" lon="6.57758">
        <ele>2865</ele>
        <time>2021-04-08T10:07:36Z</time>
      </trkpt>
      <trkpt lat="44.44851" lon="6.57758">
        <ele>2865</ele>
        <time>2021-04-08T10:07:37Z</time>
      </trkpt>
      <trkpt lat="44.44851" lon="6.57758">
        <ele>2866</ele>
        <time>2021-04-08T10:07:38Z</time>
      </trkpt>
      <trkpt lat="44.44851" lon="6.57758">
        <ele>2866</ele>
        <time>2021-04-08T10:07:39Z</time>
      </trkpt>
      <trkpt lat="44.44851" lon="6.57758">
        <ele>2866</ele>
        <time>2021-04-08T10:07:40Z</time>
      </trkpt>
      <trkpt lat="44.44851" lon="6.57758">
        <ele>2866</ele>
        <time>2021-04-08T10:07:41Z</time>
      </trkpt>
      <trkpt lat="44.44851" lon="6.57758">
        <ele>2866</ele>
        <time>2021-04-08T10:07:42Z</time>
      </trkpt>
      <trkpt lat="44.44851" lon="6.57758">
        <ele>2866</ele>
        <time>2021-04-08T10:07:43Z</time>
      </trkpt>
      <trkpt lat="44.44851" lon="6.57758">
        <ele>2866</ele>
        <time>2021-04-08T10:07:44Z</time>
      </trkpt>
      <trkpt lat="44.44851" lon="6.57758">
        <ele>2866</ele>
        <time>2021-04-08T10:07:45Z</time>
      </trkpt>
      <trkpt lat="44.44851" lon="6.57758">
        <ele>2866</ele>
        <time>2021-04-08T10:07:46Z</time>
      </trkpt>
      <trkpt lat="44.44851" lon="6.57758">
        <ele>2866</ele>
        <time>2021-04-08T10:07:47Z</time>
      </trkpt>
      <trkpt lat="44.44851" lon="6.57758">
        <ele>2866</ele>
        <time>2021-04-08T10:07:48Z</time>
      </trkpt>
      <trkpt lat="44.44851" lon="6.57758">
        <ele>2866</ele>
        <time>2021-04-08T10:07:49Z</time>
      </trkpt>
      <trkpt lat="44.44851" lon="6.57758">
        <ele>2866</ele>
        <time>2021-04-08T10:07:50Z</time>
      </trkpt>
      <trkpt lat="44.44851" lon="6.57758">
        <ele>2866</ele>
        <time>2021-04-08T10:07:51Z</time>
      </trkpt>
      <trkpt lat="44.44851" lon="6.57758">
        <ele>2866</ele>
        <time>2021-04-08T10:07:52Z</time>
      </trkpt>
      <trkpt lat="44.44851" lon="6.57758">
        <ele>2866</ele>
        <time>2021-04-08T10:07:53Z</time>
      </trkpt>
      <trkpt lat="44.44851" lon="6.57758">
        <ele>2866</ele>
        <time>2021-04-08T10:07:54Z</time>
      </trkpt>
      <trkpt lat="44.44851" lon="6.57758">
        <ele>2866</ele>
        <time>2021-04-08T10:07:55Z</time>
      </trkpt>
      <trkpt lat="44.44851" lon="6.57758">
        <ele>2866</ele>
        <time>2021-04-08T10:07:56Z</time>
      </trkpt>
      <trkpt lat="44.44851" lon="6.57758">
        <ele>2866</ele>
        <time>2021-04-08T10:07:57Z</time>
      </trkpt>
      <trkpt lat="44.44851" lon="6.57758">
        <ele>2866</ele>
        <time>2021-04-08T10:07:58Z</time>
      </trkpt>
      <trkpt lat="44.44851" lon="6.57758">
        <ele>2866</ele>
        <time>2021-04-08T10:07:59Z</time>
      </trkpt>
      <trkpt lat="44.44851" lon="6.57758">
        <ele>2866</ele>
        <time>2021-04-08T10:08:00Z</time>
      </trkpt>
      <trkpt lat="44.44851" lon="6.57758">
        <ele>2866</ele>
        <time>2021-04-08T10:08:01Z</time>
      </trkpt>
      <trkpt lat="44.44851" lon="6.57758">
        <ele>2866</ele>
        <time>2021-04-08T10:08:02Z</time>
      </trkpt>
      <trkpt lat="44.44851" lon="6.57758">
        <ele>2866</ele>
        <time>2021-04-08T10:08:03Z</time>
      </trkpt>
      <trkpt lat="44.44851" lon="6.57758">
        <ele>2866</ele>
        <time>2021-04-08T10:08:04Z</time>
      </trkpt>
      <trkpt lat="44.44851" lon="6.57758">
        <ele>2866</ele>
        <time>2021-04-08T10:08:05Z</time>
      </trkpt>
      <trkpt lat="44.44852" lon="6.57757">
        <ele>2866</ele>
        <time>2021-04-08T10:08:06Z</time>
      </trkpt>
      <trkpt lat="44.44851" lon="6.57757">
        <ele>2866</ele>
        <time>2021-04-08T10:08:07Z</time>
      </trkpt>
      <trkpt lat="44.44851" lon="6.57757">
        <ele>2866</ele>
        <time>2021-04-08T10:08:08Z</time>
      </trkpt>
      <trkpt lat="44.44851" lon="6.57757">
        <ele>2866</ele>
        <time>2021-04-08T10:08:09Z</time>
      </trkpt>
      <trkpt lat="44.44851" lon="6.57757">
        <ele>2866</ele>
        <time>2021-04-08T10:08:10Z</time>
      </trkpt>
      <trkpt lat="44.44851" lon="6.57757">
        <ele>2866</ele>
        <time>2021-04-08T10:08:11Z</time>
      </trkpt>
      <trkpt lat="44.44851" lon="6.57757">
        <ele>2866</ele>
        <time>2021-04-08T10:08:12Z</time>
      </trkpt>
      <trkpt lat="44.44851" lon="6.57757">
        <ele>2866</ele>
        <time>2021-04-08T10:08:13Z</time>
      </trkpt>
      <trkpt lat="44.44849" lon="6.57758">
        <ele>2866</ele>
        <time>2021-04-08T10:08:14Z</time>
      </trkpt>
      <trkpt lat="44.44849" lon="6.57758">
        <ele>2866</ele>
        <time>2021-04-08T10:08:15Z</time>
      </trkpt>
      <trkpt lat="44.4485" lon="6.57758">
        <ele>2866</ele>
        <time>2021-04-08T10:08:16Z</time>
      </trkpt>
      <trkpt lat="44.4485" lon="6.57758">
        <ele>2866</ele>
        <time>2021-04-08T10:08:17Z</time>
      </trkpt>
      <trkpt lat="44.4485" lon="6.57758">
        <ele>2866</ele>
        <time>2021-04-08T10:08:18Z</time>
      </trkpt>
      <trkpt lat="44.4485" lon="6.57758">
        <ele>2866</ele>
        <time>2021-04-08T10:08:19Z</time>
      </trkpt>
      <trkpt lat="44.4485" lon="6.57758">
        <ele>2866</ele>
        <time>2021-04-08T10:08:20Z</time>
      </trkpt>
      <trkpt lat="44.4485" lon="6.57758">
        <ele>2866</ele>
        <time>2021-04-08T10:08:21Z</time>
      </trkpt>
      <trkpt lat="44.4485" lon="6.57758">
        <ele>2866</ele>
        <time>2021-04-08T10:08:22Z</time>
      </trkpt>
      <trkpt lat="44.4485" lon="6.57758">
        <ele>2866</ele>
        <time>2021-04-08T10:08:23Z</time>
      </trkpt>
      <trkpt lat="44.4485" lon="6.57758">
        <ele>2866</ele>
        <time>2021-04-08T10:08:24Z</time>
      </trkpt>
      <trkpt lat="44.4485" lon="6.57758">
        <ele>2866</ele>
        <time>2021-04-08T10:08:25Z</time>
      </trkpt>
      <trkpt lat="44.4485" lon="6.57758">
        <ele>2866</ele>
        <time>2021-04-08T10:08:26Z</time>
      </trkpt>
      <trkpt lat="44.4485" lon="6.57758">
        <ele>2866</ele>
        <time>2021-04-08T10:08:27Z</time>
      </trkpt>
      <trkpt lat="44.4485" lon="6.57758">
        <ele>2866</ele>
        <time>2021-04-08T10:08:28Z</time>
      </trkpt>
      <trkpt lat="44.4485" lon="6.57758">
        <ele>2866</ele>
        <time>2021-04-08T10:08:29Z</time>
      </trkpt>
      <trkpt lat="44.4485" lon="6.57758">
        <ele>2866</ele>
        <time>2021-04-08T10:08:30Z</time>
      </trkpt>
      <trkpt lat="44.4485" lon="6.57758">
        <ele>2866</ele>
        <time>2021-04-08T10:08:31Z</time>
      </trkpt>
      <trkpt lat="44.4485" lon="6.57758">
        <ele>2866</ele>
        <time>2021-04-08T10:08:32Z</time>
      </trkpt>
      <trkpt lat="44.4485" lon="6.57758">
        <ele>2866</ele>
        <time>2021-04-08T10:08:33Z</time>
      </trkpt>
      <trkpt lat="44.4485" lon="6.57758">
        <ele>2866</ele>
        <time>2021-04-08T10:08:34Z</time>
      </trkpt>
      <trkpt lat="44.4485" lon="6.57758">
        <ele>2866</ele>
        <time>2021-04-08T10:08:35Z</time>
      </trkpt>
      <trkpt lat="44.4485" lon="6.57758">
        <ele>2866</ele>
        <time>2021-04-08T10:08:36Z</time>
      </trkpt>
      <trkpt lat="44.4485" lon="6.57758">
        <ele>2866</ele>
        <time>2021-04-08T10:08:37Z</time>
      </trkpt>
      <trkpt lat="44.4485" lon="6.57758">
        <ele>2866</ele>
        <time>2021-04-08T10:08:38Z</time>
      </trkpt>
      <trkpt lat="44.4485" lon="6.57758">
        <ele>2866</ele>
        <time>2021-04-08T10:08:39Z</time>
      </trkpt>
      <trkpt lat="44.4485" lon="6.57758">
        <ele>2866</ele>
        <time>2021-04-08T10:08:40Z</time>
      </trkpt>
      <trkpt lat="44.4485" lon="6.57758">
        <ele>2866</ele>
        <time>2021-04-08T10:08:41Z</time>
      </trkpt>
      <trkpt lat="44.4485" lon="6.57758">
        <ele>2866</ele>
        <time>2021-04-08T10:08:42Z</time>
      </trkpt>
      <trkpt lat="44.4485" lon="6.57758">
        <ele>2866</ele>
        <time>2021-04-08T10:08:43Z</time>
      </trkpt>
      <trkpt lat="44.4485" lon="6.57758">
        <ele>2866</ele>
        <time>2021-04-08T10:08:44Z</time>
      </trkpt>
      <trkpt lat="44.4485" lon="6.57758">
        <ele>2866</ele>
        <time>2021-04-08T10:08:45Z</time>
      </trkpt>
      <trkpt lat="44.4485" lon="6.57758">
        <ele>2866</ele>
        <time>2021-04-08T10:08:46Z</time>
      </trkpt>
      <trkpt lat="44.4485" lon="6.57758">
        <ele>2866</ele>
        <time>2021-04-08T10:08:47Z</time>
      </trkpt>
      <trkpt lat="44.4485" lon="6.57758">
        <ele>2866</ele>
        <time>2021-04-08T10:08:48Z</time>
      </trkpt>
      <trkpt lat="44.4485" lon="6.57758">
        <ele>2866</ele>
        <time>2021-04-08T10:08:49Z</time>
      </trkpt>
      <trkpt lat="44.4485" lon="6.57758">
        <ele>2866</ele>
        <time>2021-04-08T10:08:50Z</time>
      </trkpt>
      <trkpt lat="44.4485" lon="6.57758">
        <ele>2866</ele>
        <time>2021-04-08T10:08:51Z</time>
      </trkpt>
      <trkpt lat="44.4485" lon="6.57758">
        <ele>2866</ele>
        <time>2021-04-08T10:08:52Z</time>
      </trkpt>
      <trkpt lat="44.4485" lon="6.57758">
        <ele>2866</ele>
        <time>2021-04-08T10:08:53Z</time>
      </trkpt>
      <trkpt lat="44.4485" lon="6.57758">
        <ele>2866</ele>
        <time>2021-04-08T10:08:54Z</time>
      </trkpt>
      <trkpt lat="44.4485" lon="6.57758">
        <ele>2866</ele>
        <time>2021-04-08T10:08:55Z</time>
      </trkpt>
      <trkpt lat="44.4485" lon="6.57758">
        <ele>2866</ele>
        <time>2021-04-08T10:08:56Z</time>
      </trkpt>
      <trkpt lat="44.4485" lon="6.57758">
        <ele>2866</ele>
        <time>2021-04-08T10:08:57Z</time>
      </trkpt>
      <trkpt lat="44.4485" lon="6.57758">
        <ele>2866</ele>
        <time>2021-04-08T10:08:58Z</time>
      </trkpt>
      <trkpt lat="44.4485" lon="6.57758">
        <ele>2866</ele>
        <time>2021-04-08T10:08:59Z</time>
      </trkpt>
      <trkpt lat="44.4485" lon="6.57758">
        <ele>2866</ele>
        <time>2021-04-08T10:09:00Z</time>
      </trkpt>
      <trkpt lat="44.4485" lon="6.57758">
        <ele>2866</ele>
        <time>2021-04-08T10:09:01Z</time>
      </trkpt>
      <trkpt lat="44.4485" lon="6.57758">
        <ele>2866</ele>
        <time>2021-04-08T10:09:02Z</time>
      </trkpt>
      <trkpt lat="44.4485" lon="6.57758">
        <ele>2866</ele>
        <time>2021-04-08T10:09:03Z</time>
      </trkpt>
      <trkpt lat="44.4485" lon="6.57758">
        <ele>2866</ele>
        <time>2021-04-08T10:09:04Z</time>
      </trkpt>
      <trkpt lat="44.4485" lon="6.57758">
        <ele>2866</ele>
        <time>2021-04-08T10:09:05Z</time>
      </trkpt>
      <trkpt lat="44.4485" lon="6.57758">
        <ele>2866</ele>
        <time>2021-04-08T10:09:06Z</time>
      </trkpt>
      <trkpt lat="44.4485" lon="6.57758">
        <ele>2866</ele>
        <time>2021-04-08T10:09:07Z</time>
      </trkpt>
      <trkpt lat="44.4485" lon="6.57758">
        <ele>2866</ele>
        <time>2021-04-08T10:09:08Z</time>
      </trkpt>
      <trkpt lat="44.4485" lon="6.57758">
        <ele>2866</ele>
        <time>2021-04-08T10:09:09Z</time>
      </trkpt>
      <trkpt lat="44.4485" lon="6.57758">
        <ele>2866</ele>
        <time>2021-04-08T10:09:10Z</time>
      </trkpt>
      <trkpt lat="44.4485" lon="6.57758">
        <ele>2866</ele>
        <time>2021-04-08T10:09:11Z</time>
      </trkpt>
      <trkpt lat="44.4485" lon="6.57758">
        <ele>2866</ele>
        <time>2021-04-08T10:09:12Z</time>
      </trkpt>
      <trkpt lat="44.4485" lon="6.57758">
        <ele>2866</ele>
        <time>2021-04-08T10:09:13Z</time>
      </trkpt>
      <trkpt lat="44.4485" lon="6.57758">
        <ele>2866</ele>
        <time>2021-04-08T10:09:14Z</time>
      </trkpt>
      <trkpt lat="44.4485" lon="6.57758">
        <ele>2866</ele>
        <time>2021-04-08T10:09:15Z</time>
      </trkpt>
      <trkpt lat="44.4485" lon="6.57758">
        <ele>2866</ele>
        <time>2021-04-08T10:09:16Z</time>
      </trkpt>
      <trkpt lat="44.4485" lon="6.57758">
        <ele>2866</ele>
        <time>2021-04-08T10:09:17Z</time>
      </trkpt>
      <trkpt lat="44.4485" lon="6.57758">
        <ele>2866</ele>
        <time>2021-04-08T10:09:18Z</time>
      </trkpt>
      <trkpt lat="44.4485" lon="6.57758">
        <ele>2866</ele>
        <time>2021-04-08T10:09:19Z</time>
      </trkpt>
      <trkpt lat="44.4485" lon="6.57758">
        <ele>2866</ele>
        <time>2021-04-08T10:09:20Z</time>
      </trkpt>
      <trkpt lat="44.4485" lon="6.57758">
        <ele>2866</ele>
        <time>2021-04-08T10:09:21Z</time>
      </trkpt>
      <trkpt lat="44.4485" lon="6.57758">
        <ele>2866</ele>
        <time>2021-04-08T10:09:22Z</time>
      </trkpt>
      <trkpt lat="44.4485" lon="6.57758">
        <ele>2866</ele>
        <time>2021-04-08T10:09:23Z</time>
      </trkpt>
      <trkpt lat="44.4485" lon="6.57758">
        <ele>2866</ele>
        <time>2021-04-08T10:09:24Z</time>
      </trkpt>
      <trkpt lat="44.4485" lon="6.57758">
        <ele>2866</ele>
        <time>2021-04-08T10:09:25Z</time>
      </trkpt>
      <trkpt lat="44.4485" lon="6.57758">
        <ele>2866</ele>
        <time>2021-04-08T10:09:26Z</time>
      </trkpt>
      <trkpt lat="44.4485" lon="6.57758">
        <ele>2866</ele>
        <time>2021-04-08T10:09:27Z</time>
      </trkpt>
      <trkpt lat="44.4485" lon="6.57758">
        <ele>2866</ele>
        <time>2021-04-08T10:09:28Z</time>
      </trkpt>
      <trkpt lat="44.4485" lon="6.57758">
        <ele>2866</ele>
        <time>2021-04-08T10:09:29Z</time>
      </trkpt>
      <trkpt lat="44.4485" lon="6.57758">
        <ele>2866</ele>
        <time>2021-04-08T10:09:30Z</time>
      </trkpt>
      <trkpt lat="44.4485" lon="6.57758">
        <ele>2866</ele>
        <time>2021-04-08T10:09:31Z</time>
      </trkpt>
      <trkpt lat="44.4485" lon="6.57758">
        <ele>2866</ele>
        <time>2021-04-08T10:09:32Z</time>
      </trkpt>
      <trkpt lat="44.4485" lon="6.57758">
        <ele>2866</ele>
        <time>2021-04-08T10:09:33Z</time>
      </trkpt>
      <trkpt lat="44.4485" lon="6.57758">
        <ele>2866</ele>
        <time>2021-04-08T10:09:34Z</time>
      </trkpt>
      <trkpt lat="44.4485" lon="6.57758">
        <ele>2866</ele>
        <time>2021-04-08T10:09:35Z</time>
      </trkpt>
      <trkpt lat="44.4485" lon="6.57758">
        <ele>2866</ele>
        <time>2021-04-08T10:09:36Z</time>
      </trkpt>
      <trkpt lat="44.4485" lon="6.57758">
        <ele>2866</ele>
        <time>2021-04-08T10:09:37Z</time>
      </trkpt>
      <trkpt lat="44.4485" lon="6.57758">
        <ele>2866</ele>
        <time>2021-04-08T10:09:38Z</time>
      </trkpt>
      <trkpt lat="44.4485" lon="6.57758">
        <ele>2866</ele>
        <time>2021-04-08T10:09:39Z</time>
      </trkpt>
      <trkpt lat="44.4485" lon="6.57758">
        <ele>2866</ele>
        <time>2021-04-08T10:09:40Z</time>
      </trkpt>
      <trkpt lat="44.4485" lon="6.57758">
        <ele>2866</ele>
        <time>2021-04-08T10:09:41Z</time>
      </trkpt>
      <trkpt lat="44.4485" lon="6.57758">
        <ele>2866</ele>
        <time>2021-04-08T10:09:42Z</time>
      </trkpt>
      <trkpt lat="44.4485" lon="6.57758">
        <ele>2866</ele>
        <time>2021-04-08T10:09:43Z</time>
      </trkpt>
      <trkpt lat="44.4485" lon="6.57758">
        <ele>2866</ele>
        <time>2021-04-08T10:09:44Z</time>
      </trkpt>
      <trkpt lat="44.4485" lon="6.57758">
        <ele>2866</ele>
        <time>2021-04-08T10:09:45Z</time>
      </trkpt>
      <trkpt lat="44.4485" lon="6.57758">
        <ele>2866</ele>
        <time>2021-04-08T10:09:46Z</time>
      </trkpt>
      <trkpt lat="44.4485" lon="6.57758">
        <ele>2866</ele>
        <time>2021-04-08T10:09:47Z</time>
      </trkpt>
      <trkpt lat="44.4485" lon="6.57758">
        <ele>2866</ele>
        <time>2021-04-08T10:09:48Z</time>
      </trkpt>
      <trkpt lat="44.4485" lon="6.57758">
        <ele>2866</ele>
        <time>2021-04-08T10:09:49Z</time>
      </trkpt>
      <trkpt lat="44.4485" lon="6.57758">
        <ele>2866</ele>
        <time>2021-04-08T10:09:50Z</time>
      </trkpt>
      <trkpt lat="44.4485" lon="6.57758">
        <ele>2866</ele>
        <time>2021-04-08T10:09:51Z</time>
      </trkpt>
      <trkpt lat="44.4485" lon="6.57758">
        <ele>2866</ele>
        <time>2021-04-08T10:09:52Z</time>
      </trkpt>
      <trkpt lat="44.4485" lon="6.57758">
        <ele>2866</ele>
        <time>2021-04-08T10:09:53Z</time>
      </trkpt>
      <trkpt lat="44.4485" lon="6.57758">
        <ele>2866</ele>
        <time>2021-04-08T10:09:54Z</time>
      </trkpt>
      <trkpt lat="44.4485" lon="6.57758">
        <ele>2866</ele>
        <time>2021-04-08T10:09:55Z</time>
      </trkpt>
      <trkpt lat="44.4485" lon="6.57758">
        <ele>2866</ele>
        <time>2021-04-08T10:09:56Z</time>
      </trkpt>
      <trkpt lat="44.4485" lon="6.57758">
        <ele>2866</ele>
        <time>2021-04-08T10:09:57Z</time>
      </trkpt>
      <trkpt lat="44.4485" lon="6.57758">
        <ele>2866</ele>
        <time>2021-04-08T10:09:58Z</time>
      </trkpt>
      <trkpt lat="44.4485" lon="6.57758">
        <ele>2866</ele>
        <time>2021-04-08T10:09:59Z</time>
      </trkpt>
      <trkpt lat="44.4485" lon="6.57758">
        <ele>2866</ele>
        <time>2021-04-08T10:10:00Z</time>
      </trkpt>
      <trkpt lat="44.44856" lon="6.57759">
        <ele>2864</ele>
        <time>2021-04-08T10:10:01Z</time>
      </trkpt>
      <trkpt lat="44.44856" lon="6.57759">
        <ele>2863</ele>
        <time>2021-04-08T10:10:02Z</time>
      </trkpt>
      <trkpt lat="44.44856" lon="6.57758">
        <ele>2863</ele>
        <time>2021-04-08T10:10:03Z</time>
      </trkpt>
      <trkpt lat="44.44856" lon="6.57758">
        <ele>2863</ele>
        <time>2021-04-08T10:10:04Z</time>
      </trkpt>
      <trkpt lat="44.44856" lon="6.57758">
        <ele>2863</ele>
        <time>2021-04-08T10:10:05Z</time>
      </trkpt>
      <trkpt lat="44.44856" lon="6.57758">
        <ele>2863</ele>
        <time>2021-04-08T10:10:06Z</time>
      </trkpt>
      <trkpt lat="44.44856" lon="6.57758">
        <ele>2863</ele>
        <time>2021-04-08T10:10:07Z</time>
      </trkpt>
      <trkpt lat="44.44856" lon="6.57758">
        <ele>2863</ele>
        <time>2021-04-08T10:10:08Z</time>
      </trkpt>
      <trkpt lat="44.44856" lon="6.57758">
        <ele>2863</ele>
        <time>2021-04-08T10:10:09Z</time>
      </trkpt>
      <trkpt lat="44.44855" lon="6.57758">
        <ele>2863</ele>
        <time>2021-04-08T10:10:10Z</time>
      </trkpt>
      <trkpt lat="44.44854" lon="6.57759">
        <ele>2863</ele>
        <time>2021-04-08T10:10:11Z</time>
      </trkpt>
      <trkpt lat="44.44854" lon="6.57759">
        <ele>2863</ele>
        <time>2021-04-08T10:10:12Z</time>
      </trkpt>
      <trkpt lat="44.44854" lon="6.57759">
        <ele>2863</ele>
        <time>2021-04-08T10:10:13Z</time>
      </trkpt>
      <trkpt lat="44.44853" lon="6.57759">
        <ele>2863</ele>
        <time>2021-04-08T10:10:14Z</time>
      </trkpt>
      <trkpt lat="44.44853" lon="6.57759">
        <ele>2863</ele>
        <time>2021-04-08T10:10:15Z</time>
      </trkpt>
      <trkpt lat="44.44853" lon="6.57759">
        <ele>2863</ele>
        <time>2021-04-08T10:10:16Z</time>
      </trkpt>
      <trkpt lat="44.44853" lon="6.57759">
        <ele>2864</ele>
        <time>2021-04-08T10:10:17Z</time>
      </trkpt>
      <trkpt lat="44.44853" lon="6.57759">
        <ele>2864</ele>
        <time>2021-04-08T10:10:18Z</time>
      </trkpt>
      <trkpt lat="44.44853" lon="6.57759">
        <ele>2864</ele>
        <time>2021-04-08T10:10:19Z</time>
      </trkpt>
      <trkpt lat="44.44853" lon="6.57759">
        <ele>2864</ele>
        <time>2021-04-08T10:10:20Z</time>
      </trkpt>
      <trkpt lat="44.44853" lon="6.57759">
        <ele>2864</ele>
        <time>2021-04-08T10:10:21Z</time>
      </trkpt>
      <trkpt lat="44.44853" lon="6.57759">
        <ele>2864</ele>
        <time>2021-04-08T10:10:22Z</time>
      </trkpt>
      <trkpt lat="44.44853" lon="6.57759">
        <ele>2864</ele>
        <time>2021-04-08T10:10:23Z</time>
      </trkpt>
      <trkpt lat="44.44853" lon="6.57759">
        <ele>2864</ele>
        <time>2021-04-08T10:10:24Z</time>
      </trkpt>
      <trkpt lat="44.44853" lon="6.57759">
        <ele>2864</ele>
        <time>2021-04-08T10:10:25Z</time>
      </trkpt>
      <trkpt lat="44.44853" lon="6.57759">
        <ele>2864</ele>
        <time>2021-04-08T10:10:26Z</time>
      </trkpt>
      <trkpt lat="44.44853" lon="6.57759">
        <ele>2864</ele>
        <time>2021-04-08T10:10:27Z</time>
      </trkpt>
      <trkpt lat="44.44853" lon="6.57759">
        <ele>2864</ele>
        <time>2021-04-08T10:10:28Z</time>
      </trkpt>
      <trkpt lat="44.44853" lon="6.57759">
        <ele>2865</ele>
        <time>2021-04-08T10:10:29Z</time>
      </trkpt>
      <trkpt lat="44.44853" lon="6.57759">
        <ele>2865</ele>
        <time>2021-04-08T10:10:30Z</time>
      </trkpt>
      <trkpt lat="44.44853" lon="6.57759">
        <ele>2865</ele>
        <time>2021-04-08T10:10:31Z</time>
      </trkpt>
      <trkpt lat="44.44853" lon="6.57759">
        <ele>2865</ele>
        <time>2021-04-08T10:10:32Z</time>
      </trkpt>
      <trkpt lat="44.44853" lon="6.57759">
        <ele>2865</ele>
        <time>2021-04-08T10:10:33Z</time>
      </trkpt>
      <trkpt lat="44.44853" lon="6.57759">
        <ele>2865</ele>
        <time>2021-04-08T10:10:34Z</time>
      </trkpt>
      <trkpt lat="44.44853" lon="6.57759">
        <ele>2865</ele>
        <time>2021-04-08T10:10:35Z</time>
      </trkpt>
      <trkpt lat="44.44853" lon="6.57759">
        <ele>2865</ele>
        <time>2021-04-08T10:10:36Z</time>
      </trkpt>
      <trkpt lat="44.44853" lon="6.57759">
        <ele>2865</ele>
        <time>2021-04-08T10:10:37Z</time>
      </trkpt>
      <trkpt lat="44.44853" lon="6.57759">
        <ele>2865</ele>
        <time>2021-04-08T10:10:38Z</time>
      </trkpt>
      <trkpt lat="44.44853" lon="6.57759">
        <ele>2865</ele>
        <time>2021-04-08T10:10:39Z</time>
      </trkpt>
      <trkpt lat="44.44853" lon="6.57759">
        <ele>2865</ele>
        <time>2021-04-08T10:10:40Z</time>
      </trkpt>
      <trkpt lat="44.44853" lon="6.57759">
        <ele>2865</ele>
        <time>2021-04-08T10:10:41Z</time>
      </trkpt>
      <trkpt lat="44.44853" lon="6.57759">
        <ele>2865</ele>
        <time>2021-04-08T10:10:42Z</time>
      </trkpt>
      <trkpt lat="44.44853" lon="6.57759">
        <ele>2865</ele>
        <time>2021-04-08T10:10:43Z</time>
      </trkpt>
      <trkpt lat="44.44853" lon="6.57759">
        <ele>2865</ele>
        <time>2021-04-08T10:10:44Z</time>
      </trkpt>
      <trkpt lat="44.44853" lon="6.57759">
        <ele>2865</ele>
        <time>2021-04-08T10:10:45Z</time>
      </trkpt>
      <trkpt lat="44.44852" lon="6.5776">
        <ele>2865</ele>
        <time>2021-04-08T10:10:46Z</time>
      </trkpt>
      <trkpt lat="44.44852" lon="6.5776">
        <ele>2866</ele>
        <time>2021-04-08T10:10:47Z</time>
      </trkpt>
      <trkpt lat="44.44852" lon="6.5776">
        <ele>2866</ele>
        <time>2021-04-08T10:10:48Z</time>
      </trkpt>
      <trkpt lat="44.44852" lon="6.5776">
        <ele>2866</ele>
        <time>2021-04-08T10:10:49Z</time>
      </trkpt>
      <trkpt lat="44.44852" lon="6.5776">
        <ele>2866</ele>
        <time>2021-04-08T10:10:50Z</time>
      </trkpt>
      <trkpt lat="44.44852" lon="6.5776">
        <ele>2866</ele>
        <time>2021-04-08T10:10:51Z</time>
      </trkpt>
      <trkpt lat="44.44852" lon="6.5776">
        <ele>2866</ele>
        <time>2021-04-08T10:10:52Z</time>
      </trkpt>
      <trkpt lat="44.44851" lon="6.57761">
        <ele>2866</ele>
        <time>2021-04-08T10:10:53Z</time>
      </trkpt>
      <trkpt lat="44.44851" lon="6.57761">
        <ele>2866</ele>
        <time>2021-04-08T10:10:54Z</time>
      </trkpt>
      <trkpt lat="44.44851" lon="6.57762">
        <ele>2866</ele>
        <time>2021-04-08T10:10:55Z</time>
      </trkpt>
      <trkpt lat="44.44851" lon="6.57761">
        <ele>2866</ele>
        <time>2021-04-08T10:10:56Z</time>
      </trkpt>
      <trkpt lat="44.44851" lon="6.57761">
        <ele>2866</ele>
        <time>2021-04-08T10:10:57Z</time>
      </trkpt>
      <trkpt lat="44.44851" lon="6.57761">
        <ele>2866</ele>
        <time>2021-04-08T10:10:58Z</time>
      </trkpt>
      <trkpt lat="44.44851" lon="6.57761">
        <ele>2866</ele>
        <time>2021-04-08T10:10:59Z</time>
      </trkpt>
      <trkpt lat="44.44851" lon="6.57761">
        <ele>2866</ele>
        <time>2021-04-08T10:11:00Z</time>
      </trkpt>
      <trkpt lat="44.44851" lon="6.57761">
        <ele>2866</ele>
        <time>2021-04-08T10:11:01Z</time>
      </trkpt>
      <trkpt lat="44.44851" lon="6.57761">
        <ele>2866</ele>
        <time>2021-04-08T10:11:02Z</time>
      </trkpt>
      <trkpt lat="44.44851" lon="6.57761">
        <ele>2866</ele>
        <time>2021-04-08T10:11:03Z</time>
      </trkpt>
      <trkpt lat="44.44851" lon="6.57761">
        <ele>2866</ele>
        <time>2021-04-08T10:11:04Z</time>
      </trkpt>
      <trkpt lat="44.44851" lon="6.57761">
        <ele>2866</ele>
        <time>2021-04-08T10:11:05Z</time>
      </trkpt>
      <trkpt lat="44.44851" lon="6.57761">
        <ele>2866</ele>
        <time>2021-04-08T10:11:06Z</time>
      </trkpt>
      <trkpt lat="44.44851" lon="6.57761">
        <ele>2866</ele>
        <time>2021-04-08T10:11:07Z</time>
      </trkpt>
      <trkpt lat="44.44851" lon="6.57761">
        <ele>2866</ele>
        <time>2021-04-08T10:11:08Z</time>
      </trkpt>
      <trkpt lat="44.44851" lon="6.57761">
        <ele>2867</ele>
        <time>2021-04-08T10:11:09Z</time>
      </trkpt>
      <trkpt lat="44.44851" lon="6.57761">
        <ele>2867</ele>
        <time>2021-04-08T10:11:10Z</time>
      </trkpt>
      <trkpt lat="44.44851" lon="6.57761">
        <ele>2867</ele>
        <time>2021-04-08T10:11:11Z</time>
      </trkpt>
      <trkpt lat="44.44851" lon="6.57761">
        <ele>2867</ele>
        <time>2021-04-08T10:11:12Z</time>
      </trkpt>
      <trkpt lat="44.44851" lon="6.57761">
        <ele>2867</ele>
        <time>2021-04-08T10:11:13Z</time>
      </trkpt>
      <trkpt lat="44.44851" lon="6.57761">
        <ele>2867</ele>
        <time>2021-04-08T10:11:14Z</time>
      </trkpt>
      <trkpt lat="44.44851" lon="6.57761">
        <ele>2867</ele>
        <time>2021-04-08T10:11:15Z</time>
      </trkpt>
      <trkpt lat="44.44851" lon="6.57761">
        <ele>2867</ele>
        <time>2021-04-08T10:11:16Z</time>
      </trkpt>
      <trkpt lat="44.44851" lon="6.57761">
        <ele>2867</ele>
        <time>2021-04-08T10:11:17Z</time>
      </trkpt>
      <trkpt lat="44.44851" lon="6.57761">
        <ele>2867</ele>
        <time>2021-04-08T10:11:18Z</time>
      </trkpt>
      <trkpt lat="44.44851" lon="6.57761">
        <ele>2867</ele>
        <time>2021-04-08T10:11:19Z</time>
      </trkpt>
      <trkpt lat="44.44851" lon="6.57761">
        <ele>2867</ele>
        <time>2021-04-08T10:11:20Z</time>
      </trkpt>
      <trkpt lat="44.44851" lon="6.57761">
        <ele>2867</ele>
        <time>2021-04-08T10:11:21Z</time>
      </trkpt>
      <trkpt lat="44.44851" lon="6.57761">
        <ele>2867</ele>
        <time>2021-04-08T10:11:22Z</time>
      </trkpt>
      <trkpt lat="44.44851" lon="6.57761">
        <ele>2867</ele>
        <time>2021-04-08T10:11:23Z</time>
      </trkpt>
      <trkpt lat="44.44851" lon="6.57761">
        <ele>2867</ele>
        <time>2021-04-08T10:11:24Z</time>
      </trkpt>
      <trkpt lat="44.44851" lon="6.57761">
        <ele>2867</ele>
        <time>2021-04-08T10:11:25Z</time>
      </trkpt>
      <trkpt lat="44.44851" lon="6.57761">
        <ele>2867</ele>
        <time>2021-04-08T10:11:26Z</time>
      </trkpt>
      <trkpt lat="44.44851" lon="6.57761">
        <ele>2867</ele>
        <time>2021-04-08T10:11:27Z</time>
      </trkpt>
      <trkpt lat="44.44851" lon="6.57761">
        <ele>2867</ele>
        <time>2021-04-08T10:11:28Z</time>
      </trkpt>
      <trkpt lat="44.44851" lon="6.57761">
        <ele>2867</ele>
        <time>2021-04-08T10:11:29Z</time>
      </trkpt>
      <trkpt lat="44.44851" lon="6.57761">
        <ele>2867</ele>
        <time>2021-04-08T10:11:30Z</time>
      </trkpt>
      <trkpt lat="44.44851" lon="6.57761">
        <ele>2867</ele>
        <time>2021-04-08T10:11:31Z</time>
      </trkpt>
      <trkpt lat="44.44851" lon="6.57761">
        <ele>2867</ele>
        <time>2021-04-08T10:11:32Z</time>
      </trkpt>
      <trkpt lat="44.44851" lon="6.57761">
        <ele>2867</ele>
        <time>2021-04-08T10:11:33Z</time>
      </trkpt>
      <trkpt lat="44.44851" lon="6.57761">
        <ele>2867</ele>
        <time>2021-04-08T10:11:34Z</time>
      </trkpt>
      <trkpt lat="44.44851" lon="6.57761">
        <ele>2867</ele>
        <time>2021-04-08T10:11:35Z</time>
      </trkpt>
      <trkpt lat="44.44851" lon="6.57761">
        <ele>2867</ele>
        <time>2021-04-08T10:11:36Z</time>
      </trkpt>
      <trkpt lat="44.44851" lon="6.57761">
        <ele>2867</ele>
        <time>2021-04-08T10:11:37Z</time>
      </trkpt>
      <trkpt lat="44.44851" lon="6.57761">
        <ele>2867</ele>
        <time>2021-04-08T10:11:38Z</time>
      </trkpt>
      <trkpt lat="44.44851" lon="6.57761">
        <ele>2867</ele>
        <time>2021-04-08T10:11:39Z</time>
      </trkpt>
      <trkpt lat="44.44851" lon="6.57761">
        <ele>2867</ele>
        <time>2021-04-08T10:11:40Z</time>
      </trkpt>
      <trkpt lat="44.44851" lon="6.57761">
        <ele>2867</ele>
        <time>2021-04-08T10:11:41Z</time>
      </trkpt>
      <trkpt lat="44.44851" lon="6.57761">
        <ele>2867</ele>
        <time>2021-04-08T10:11:42Z</time>
      </trkpt>
      <trkpt lat="44.44851" lon="6.57761">
        <ele>2867</ele>
        <time>2021-04-08T10:11:43Z</time>
      </trkpt>
      <trkpt lat="44.44851" lon="6.57761">
        <ele>2867</ele>
        <time>2021-04-08T10:11:44Z</time>
      </trkpt>
      <trkpt lat="44.44851" lon="6.57761">
        <ele>2867</ele>
        <time>2021-04-08T10:11:45Z</time>
      </trkpt>
      <trkpt lat="44.44851" lon="6.57761">
        <ele>2867</ele>
        <time>2021-04-08T10:11:46Z</time>
      </trkpt>
      <trkpt lat="44.44851" lon="6.57761">
        <ele>2867</ele>
        <time>2021-04-08T10:11:47Z</time>
      </trkpt>
      <trkpt lat="44.44851" lon="6.57761">
        <ele>2867</ele>
        <time>2021-04-08T10:11:48Z</time>
      </trkpt>
      <trkpt lat="44.44851" lon="6.57761">
        <ele>2867</ele>
        <time>2021-04-08T10:11:49Z</time>
      </trkpt>
      <trkpt lat="44.44851" lon="6.57761">
        <ele>2867</ele>
        <time>2021-04-08T10:11:50Z</time>
      </trkpt>
      <trkpt lat="44.44851" lon="6.57761">
        <ele>2867</ele>
        <time>2021-04-08T10:11:51Z</time>
      </trkpt>
      <trkpt lat="44.44851" lon="6.57761">
        <ele>2867</ele>
        <time>2021-04-08T10:11:52Z</time>
      </trkpt>
      <trkpt lat="44.44851" lon="6.57761">
        <ele>2867</ele>
        <time>2021-04-08T10:11:53Z</time>
      </trkpt>
      <trkpt lat="44.44851" lon="6.57761">
        <ele>2867</ele>
        <time>2021-04-08T10:11:54Z</time>
      </trkpt>
      <trkpt lat="44.44851" lon="6.57761">
        <ele>2867</ele>
        <time>2021-04-08T10:11:55Z</time>
      </trkpt>
      <trkpt lat="44.44851" lon="6.57761">
        <ele>2867</ele>
        <time>2021-04-08T10:11:56Z</time>
      </trkpt>
      <trkpt lat="44.44851" lon="6.57761">
        <ele>2867</ele>
        <time>2021-04-08T10:11:57Z</time>
      </trkpt>
      <trkpt lat="44.44851" lon="6.57761">
        <ele>2867</ele>
        <time>2021-04-08T10:11:58Z</time>
      </trkpt>
      <trkpt lat="44.44851" lon="6.57761">
        <ele>2867</ele>
        <time>2021-04-08T10:11:59Z</time>
      </trkpt>
      <trkpt lat="44.44851" lon="6.57761">
        <ele>2867</ele>
        <time>2021-04-08T10:12:00Z</time>
      </trkpt>
      <trkpt lat="44.44851" lon="6.57761">
        <ele>2867</ele>
        <time>2021-04-08T10:12:01Z</time>
      </trkpt>
      <trkpt lat="44.44851" lon="6.57761">
        <ele>2867</ele>
        <time>2021-04-08T10:12:02Z</time>
      </trkpt>
      <trkpt lat="44.44851" lon="6.57761">
        <ele>2867</ele>
        <time>2021-04-08T10:12:03Z</time>
      </trkpt>
      <trkpt lat="44.44851" lon="6.57761">
        <ele>2867</ele>
        <time>2021-04-08T10:12:04Z</time>
      </trkpt>
      <trkpt lat="44.44851" lon="6.57761">
        <ele>2867</ele>
        <time>2021-04-08T10:12:05Z</time>
      </trkpt>
      <trkpt lat="44.44851" lon="6.57761">
        <ele>2867</ele>
        <time>2021-04-08T10:12:06Z</time>
      </trkpt>
      <trkpt lat="44.44851" lon="6.57761">
        <ele>2867</ele>
        <time>2021-04-08T10:12:07Z</time>
      </trkpt>
      <trkpt lat="44.44851" lon="6.57761">
        <ele>2867</ele>
        <time>2021-04-08T10:12:08Z</time>
      </trkpt>
      <trkpt lat="44.44851" lon="6.57761">
        <ele>2867</ele>
        <time>2021-04-08T10:12:09Z</time>
      </trkpt>
      <trkpt lat="44.44851" lon="6.57761">
        <ele>2867</ele>
        <time>2021-04-08T10:12:10Z</time>
      </trkpt>
      <trkpt lat="44.44851" lon="6.57761">
        <ele>2867</ele>
        <time>2021-04-08T10:12:11Z</time>
      </trkpt>
      <trkpt lat="44.44851" lon="6.57761">
        <ele>2867</ele>
        <time>2021-04-08T10:12:12Z</time>
      </trkpt>
      <trkpt lat="44.44851" lon="6.57761">
        <ele>2867</ele>
        <time>2021-04-08T10:12:13Z</time>
      </trkpt>
      <trkpt lat="44.44851" lon="6.57761">
        <ele>2867</ele>
        <time>2021-04-08T10:12:14Z</time>
      </trkpt>
      <trkpt lat="44.44851" lon="6.57761">
        <ele>2867</ele>
        <time>2021-04-08T10:12:15Z</time>
      </trkpt>
      <trkpt lat="44.44851" lon="6.57761">
        <ele>2867</ele>
        <time>2021-04-08T10:12:17Z</time>
      </trkpt>
      <trkpt lat="44.44851" lon="6.57761">
        <ele>2867</ele>
        <time>2021-04-08T10:12:18Z</time>
      </trkpt>
      <trkpt lat="44.44851" lon="6.57761">
        <ele>2867</ele>
        <time>2021-04-08T10:12:19Z</time>
      </trkpt>
      <trkpt lat="44.44851" lon="6.57761">
        <ele>2867</ele>
        <time>2021-04-08T10:12:20Z</time>
      </trkpt>
      <trkpt lat="44.44851" lon="6.57761">
        <ele>2867</ele>
        <time>2021-04-08T10:12:21Z</time>
      </trkpt>
      <trkpt lat="44.44851" lon="6.57761">
        <ele>2867</ele>
        <time>2021-04-08T10:12:22Z</time>
      </trkpt>
      <trkpt lat="44.44853" lon="6.5776">
        <ele>2867</ele>
        <time>2021-04-08T10:12:23Z</time>
      </trkpt>
      <trkpt lat="44.44852" lon="6.57759">
        <ele>2867</ele>
        <time>2021-04-08T10:12:24Z</time>
      </trkpt>
      <trkpt lat="44.44853" lon="6.57759">
        <ele>2867</ele>
        <time>2021-04-08T10:12:25Z</time>
      </trkpt>
      <trkpt lat="44.44853" lon="6.57759">
        <ele>2867</ele>
        <time>2021-04-08T10:12:26Z</time>
      </trkpt>
      <trkpt lat="44.44853" lon="6.57759">
        <ele>2867</ele>
        <time>2021-04-08T10:12:27Z</time>
      </trkpt>
      <trkpt lat="44.44853" lon="6.57759">
        <ele>2867</ele>
        <time>2021-04-08T10:12:28Z</time>
      </trkpt>
      <trkpt lat="44.44853" lon="6.57759">
        <ele>2867</ele>
        <time>2021-04-08T10:12:29Z</time>
      </trkpt>
      <trkpt lat="44.44853" lon="6.57759">
        <ele>2867</ele>
        <time>2021-04-08T10:12:30Z</time>
      </trkpt>
      <trkpt lat="44.44853" lon="6.57759">
        <ele>2867</ele>
        <time>2021-04-08T10:12:31Z</time>
      </trkpt>
      <trkpt lat="44.44853" lon="6.57759">
        <ele>2867</ele>
        <time>2021-04-08T10:12:32Z</time>
      </trkpt>
      <trkpt lat="44.44853" lon="6.57759">
        <ele>2867</ele>
        <time>2021-04-08T10:12:33Z</time>
      </trkpt>
      <trkpt lat="44.44853" lon="6.57759">
        <ele>2867</ele>
        <time>2021-04-08T10:12:34Z</time>
      </trkpt>
      <trkpt lat="44.44853" lon="6.57759">
        <ele>2867</ele>
        <time>2021-04-08T10:12:35Z</time>
      </trkpt>
      <trkpt lat="44.44853" lon="6.57759">
        <ele>2867</ele>
        <time>2021-04-08T10:12:36Z</time>
      </trkpt>
      <trkpt lat="44.44853" lon="6.57759">
        <ele>2867</ele>
        <time>2021-04-08T10:12:37Z</time>
      </trkpt>
      <trkpt lat="44.44853" lon="6.57759">
        <ele>2867</ele>
        <time>2021-04-08T10:12:38Z</time>
      </trkpt>
      <trkpt lat="44.44853" lon="6.57759">
        <ele>2867</ele>
        <time>2021-04-08T10:12:39Z</time>
      </trkpt>
      <trkpt lat="44.44853" lon="6.57759">
        <ele>2867</ele>
        <time>2021-04-08T10:12:40Z</time>
      </trkpt>
      <trkpt lat="44.44853" lon="6.57759">
        <ele>2867</ele>
        <time>2021-04-08T10:12:41Z</time>
      </trkpt>
      <trkpt lat="44.44853" lon="6.57759">
        <ele>2867</ele>
        <time>2021-04-08T10:12:42Z</time>
      </trkpt>
      <trkpt lat="44.44853" lon="6.57759">
        <ele>2867</ele>
        <time>2021-04-08T10:12:43Z</time>
      </trkpt>
      <trkpt lat="44.44853" lon="6.57759">
        <ele>2867</ele>
        <time>2021-04-08T10:12:44Z</time>
      </trkpt>
      <trkpt lat="44.44853" lon="6.57759">
        <ele>2867</ele>
        <time>2021-04-08T10:12:45Z</time>
      </trkpt>
      <trkpt lat="44.44853" lon="6.57759">
        <ele>2867</ele>
        <time>2021-04-08T10:12:46Z</time>
      </trkpt>
      <trkpt lat="44.44853" lon="6.57759">
        <ele>2867</ele>
        <time>2021-04-08T10:12:47Z</time>
      </trkpt>
      <trkpt lat="44.44853" lon="6.57759">
        <ele>2867</ele>
        <time>2021-04-08T10:12:48Z</time>
      </trkpt>
      <trkpt lat="44.44853" lon="6.57759">
        <ele>2867</ele>
        <time>2021-04-08T10:12:49Z</time>
      </trkpt>
      <trkpt lat="44.44853" lon="6.57759">
        <ele>2867</ele>
        <time>2021-04-08T10:12:50Z</time>
      </trkpt>
      <trkpt lat="44.44853" lon="6.57759">
        <ele>2867</ele>
        <time>2021-04-08T10:12:51Z</time>
      </trkpt>
      <trkpt lat="44.44852" lon="6.57763">
        <ele>2867</ele>
        <time>2021-04-08T10:12:52Z</time>
      </trkpt>
      <trkpt lat="44.44852" lon="6.57763">
        <ele>2867</ele>
        <time>2021-04-08T10:12:53Z</time>
      </trkpt>
      <trkpt lat="44.44852" lon="6.57763">
        <ele>2867</ele>
        <time>2021-04-08T10:12:54Z</time>
      </trkpt>
      <trkpt lat="44.44852" lon="6.57763">
        <ele>2867</ele>
        <time>2021-04-08T10:12:55Z</time>
      </trkpt>
      <trkpt lat="44.44852" lon="6.57763">
        <ele>2867</ele>
        <time>2021-04-08T10:12:56Z</time>
      </trkpt>
      <trkpt lat="44.44852" lon="6.57763">
        <ele>2867</ele>
        <time>2021-04-08T10:12:57Z</time>
      </trkpt>
      <trkpt lat="44.44852" lon="6.57763">
        <ele>2867</ele>
        <time>2021-04-08T10:12:58Z</time>
      </trkpt>
      <trkpt lat="44.44853" lon="6.57763">
        <ele>2867</ele>
        <time>2021-04-08T10:12:59Z</time>
      </trkpt>
      <trkpt lat="44.44853" lon="6.57763">
        <ele>2867</ele>
        <time>2021-04-08T10:13:00Z</time>
      </trkpt>
      <trkpt lat="44.44853" lon="6.57762">
        <ele>2867</ele>
        <time>2021-04-08T10:13:01Z</time>
      </trkpt>
      <trkpt lat="44.44853" lon="6.57762">
        <ele>2867</ele>
        <time>2021-04-08T10:13:02Z</time>
      </trkpt>
      <trkpt lat="44.44853" lon="6.57762">
        <ele>2867</ele>
        <time>2021-04-08T10:13:03Z</time>
      </trkpt>
      <trkpt lat="44.44853" lon="6.57762">
        <ele>2867</ele>
        <time>2021-04-08T10:13:04Z</time>
      </trkpt>
      <trkpt lat="44.44853" lon="6.57762">
        <ele>2867</ele>
        <time>2021-04-08T10:13:05Z</time>
      </trkpt>
      <trkpt lat="44.44853" lon="6.57762">
        <ele>2867</ele>
        <time>2021-04-08T10:13:06Z</time>
      </trkpt>
      <trkpt lat="44.44853" lon="6.57762">
        <ele>2867</ele>
        <time>2021-04-08T10:13:07Z</time>
      </trkpt>
      <trkpt lat="44.44853" lon="6.57762">
        <ele>2867</ele>
        <time>2021-04-08T10:13:08Z</time>
      </trkpt>
      <trkpt lat="44.44853" lon="6.57762">
        <ele>2867</ele>
        <time>2021-04-08T10:13:09Z</time>
      </trkpt>
      <trkpt lat="44.44853" lon="6.57762">
        <ele>2867</ele>
        <time>2021-04-08T10:13:10Z</time>
      </trkpt>
      <trkpt lat="44.44853" lon="6.57762">
        <ele>2867</ele>
        <time>2021-04-08T10:13:11Z</time>
      </trkpt>
      <trkpt lat="44.44853" lon="6.57762">
        <ele>2867</ele>
        <time>2021-04-08T10:13:12Z</time>
      </trkpt>
      <trkpt lat="44.44853" lon="6.57762">
        <ele>2867</ele>
        <time>2021-04-08T10:13:13Z</time>
      </trkpt>
      <trkpt lat="44.44853" lon="6.57762">
        <ele>2867</ele>
        <time>2021-04-08T10:13:14Z</time>
      </trkpt>
      <trkpt lat="44.44853" lon="6.57762">
        <ele>2867</ele>
        <time>2021-04-08T10:13:15Z</time>
      </trkpt>
      <trkpt lat="44.44853" lon="6.57762">
        <ele>2867</ele>
        <time>2021-04-08T10:13:16Z</time>
      </trkpt>
      <trkpt lat="44.44853" lon="6.57762">
        <ele>2866</ele>
        <time>2021-04-08T10:13:17Z</time>
      </trkpt>
      <trkpt lat="44.44852" lon="6.57764">
        <ele>2866</ele>
        <time>2021-04-08T10:13:18Z</time>
      </trkpt>
      <trkpt lat="44.44852" lon="6.57765">
        <ele>2866</ele>
        <time>2021-04-08T10:13:19Z</time>
      </trkpt>
      <trkpt lat="44.44852" lon="6.57765">
        <ele>2866</ele>
        <time>2021-04-08T10:13:20Z</time>
      </trkpt>
      <trkpt lat="44.44852" lon="6.57764">
        <ele>2866</ele>
        <time>2021-04-08T10:13:21Z</time>
      </trkpt>
      <trkpt lat="44.44852" lon="6.57765">
        <ele>2866</ele>
        <time>2021-04-08T10:13:22Z</time>
      </trkpt>
      <trkpt lat="44.44852" lon="6.57765">
        <ele>2866</ele>
        <time>2021-04-08T10:13:23Z</time>
      </trkpt>
      <trkpt lat="44.44853" lon="6.57765">
        <ele>2866</ele>
        <time>2021-04-08T10:13:24Z</time>
      </trkpt>
      <trkpt lat="44.44853" lon="6.57764">
        <ele>2866</ele>
        <time>2021-04-08T10:13:25Z</time>
      </trkpt>
      <trkpt lat="44.44853" lon="6.57764">
        <ele>2866</ele>
        <time>2021-04-08T10:13:26Z</time>
      </trkpt>
      <trkpt lat="44.44853" lon="6.57764">
        <ele>2866</ele>
        <time>2021-04-08T10:13:27Z</time>
      </trkpt>
      <trkpt lat="44.44853" lon="6.57764">
        <ele>2866</ele>
        <time>2021-04-08T10:13:28Z</time>
      </trkpt>
      <trkpt lat="44.44853" lon="6.57764">
        <ele>2866</ele>
        <time>2021-04-08T10:13:29Z</time>
      </trkpt>
      <trkpt lat="44.44853" lon="6.57764">
        <ele>2866</ele>
        <time>2021-04-08T10:13:30Z</time>
      </trkpt>
      <trkpt lat="44.44853" lon="6.57764">
        <ele>2866</ele>
        <time>2021-04-08T10:13:31Z</time>
      </trkpt>
      <trkpt lat="44.44853" lon="6.57764">
        <ele>2866</ele>
        <time>2021-04-08T10:13:32Z</time>
      </trkpt>
      <trkpt lat="44.44853" lon="6.57764">
        <ele>2866</ele>
        <time>2021-04-08T10:13:33Z</time>
      </trkpt>
      <trkpt lat="44.44853" lon="6.57764">
        <ele>2866</ele>
        <time>2021-04-08T10:13:34Z</time>
      </trkpt>
      <trkpt lat="44.44853" lon="6.57764">
        <ele>2866</ele>
        <time>2021-04-08T10:13:35Z</time>
      </trkpt>
      <trkpt lat="44.44853" lon="6.57764">
        <ele>2866</ele>
        <time>2021-04-08T10:13:36Z</time>
      </trkpt>
      <trkpt lat="44.44853" lon="6.57764">
        <ele>2866</ele>
        <time>2021-04-08T10:13:37Z</time>
      </trkpt>
      <trkpt lat="44.44853" lon="6.57764">
        <ele>2866</ele>
        <time>2021-04-08T10:13:38Z</time>
      </trkpt>
      <trkpt lat="44.44853" lon="6.57764">
        <ele>2866</ele>
        <time>2021-04-08T10:13:39Z</time>
      </trkpt>
      <trkpt lat="44.44853" lon="6.57764">
        <ele>2866</ele>
        <time>2021-04-08T10:13:40Z</time>
      </trkpt>
      <trkpt lat="44.44853" lon="6.57764">
        <ele>2866</ele>
        <time>2021-04-08T10:13:41Z</time>
      </trkpt>
      <trkpt lat="44.44853" lon="6.57764">
        <ele>2866</ele>
        <time>2021-04-08T10:13:42Z</time>
      </trkpt>
      <trkpt lat="44.44853" lon="6.57764">
        <ele>2866</ele>
        <time>2021-04-08T10:13:43Z</time>
      </trkpt>
      <trkpt lat="44.44853" lon="6.57764">
        <ele>2866</ele>
        <time>2021-04-08T10:13:44Z</time>
      </trkpt>
      <trkpt lat="44.44853" lon="6.57764">
        <ele>2866</ele>
        <time>2021-04-08T10:13:45Z</time>
      </trkpt>
      <trkpt lat="44.44853" lon="6.57764">
        <ele>2866</ele>
        <time>2021-04-08T10:13:46Z</time>
      </trkpt>
      <trkpt lat="44.44853" lon="6.57764">
        <ele>2866</ele>
        <time>2021-04-08T10:13:47Z</time>
      </trkpt>
      <trkpt lat="44.44853" lon="6.57764">
        <ele>2866</ele>
        <time>2021-04-08T10:13:48Z</time>
      </trkpt>
      <trkpt lat="44.44853" lon="6.57764">
        <ele>2866</ele>
        <time>2021-04-08T10:13:49Z</time>
      </trkpt>
      <trkpt lat="44.44853" lon="6.57764">
        <ele>2866</ele>
        <time>2021-04-08T10:13:50Z</time>
      </trkpt>
      <trkpt lat="44.44853" lon="6.57764">
        <ele>2866</ele>
        <time>2021-04-08T10:13:51Z</time>
      </trkpt>
      <trkpt lat="44.44853" lon="6.57764">
        <ele>2866</ele>
        <time>2021-04-08T10:13:52Z</time>
      </trkpt>
      <trkpt lat="44.44853" lon="6.57764">
        <ele>2866</ele>
        <time>2021-04-08T10:13:53Z</time>
      </trkpt>
      <trkpt lat="44.44853" lon="6.57764">
        <ele>2866</ele>
        <time>2021-04-08T10:13:54Z</time>
      </trkpt>
      <trkpt lat="44.44853" lon="6.57764">
        <ele>2866</ele>
        <time>2021-04-08T10:13:55Z</time>
      </trkpt>
      <trkpt lat="44.44853" lon="6.57765">
        <ele>2866</ele>
        <time>2021-04-08T10:13:56Z</time>
      </trkpt>
      <trkpt lat="44.44853" lon="6.57765">
        <ele>2866</ele>
        <time>2021-04-08T10:13:57Z</time>
      </trkpt>
      <trkpt lat="44.44854" lon="6.57766">
        <ele>2866</ele>
        <time>2021-04-08T10:13:58Z</time>
      </trkpt>
      <trkpt lat="44.44855" lon="6.57766">
        <ele>2866</ele>
        <time>2021-04-08T10:13:59Z</time>
      </trkpt>
      <trkpt lat="44.44855" lon="6.57766">
        <ele>2866</ele>
        <time>2021-04-08T10:14:00Z</time>
      </trkpt>
      <trkpt lat="44.44856" lon="6.57766">
        <ele>2866</ele>
        <time>2021-04-08T10:14:01Z</time>
      </trkpt>
      <trkpt lat="44.44856" lon="6.57767">
        <ele>2866</ele>
        <time>2021-04-08T10:14:02Z</time>
      </trkpt>
      <trkpt lat="44.44856" lon="6.57767">
        <ele>2866</ele>
        <time>2021-04-08T10:14:03Z</time>
      </trkpt>
      <trkpt lat="44.44856" lon="6.57767">
        <ele>2866</ele>
        <time>2021-04-08T10:14:04Z</time>
      </trkpt>
      <trkpt lat="44.44856" lon="6.57766">
        <ele>2866</ele>
        <time>2021-04-08T10:14:05Z</time>
      </trkpt>
      <trkpt lat="44.44856" lon="6.57765">
        <ele>2866</ele>
        <time>2021-04-08T10:14:06Z</time>
      </trkpt>
      <trkpt lat="44.44856" lon="6.57765">
        <ele>2866</ele>
        <time>2021-04-08T10:14:07Z</time>
      </trkpt>
      <trkpt lat="44.44856" lon="6.57765">
        <ele>2866</ele>
        <time>2021-04-08T10:14:08Z</time>
      </trkpt>
      <trkpt lat="44.44857" lon="6.57764">
        <ele>2866</ele>
        <time>2021-04-08T10:14:09Z</time>
      </trkpt>
      <trkpt lat="44.44858" lon="6.57764">
        <ele>2866</ele>
        <time>2021-04-08T10:14:10Z</time>
      </trkpt>
      <trkpt lat="44.44858" lon="6.57764">
        <ele>2867</ele>
        <time>2021-04-08T10:14:11Z</time>
      </trkpt>
      <trkpt lat="44.44858" lon="6.57764">
        <ele>2867</ele>
        <time>2021-04-08T10:14:12Z</time>
      </trkpt>
      <trkpt lat="44.44858" lon="6.57764">
        <ele>2867</ele>
        <time>2021-04-08T10:14:13Z</time>
      </trkpt>
      <trkpt lat="44.44858" lon="6.57764">
        <ele>2867</ele>
        <time>2021-04-08T10:14:14Z</time>
      </trkpt>
      <trkpt lat="44.44858" lon="6.57765">
        <ele>2867</ele>
        <time>2021-04-08T10:14:15Z</time>
      </trkpt>
      <trkpt lat="44.44858" lon="6.57765">
        <ele>2867</ele>
        <time>2021-04-08T10:14:16Z</time>
      </trkpt>
      <trkpt lat="44.44858" lon="6.57765">
        <ele>2867</ele>
        <time>2021-04-08T10:14:17Z</time>
      </trkpt>
      <trkpt lat="44.44857" lon="6.57764">
        <ele>2867</ele>
        <time>2021-04-08T10:14:18Z</time>
      </trkpt>
      <trkpt lat="44.44857" lon="6.57764">
        <ele>2867</ele>
        <time>2021-04-08T10:14:19Z</time>
      </trkpt>
      <trkpt lat="44.44857" lon="6.57764">
        <ele>2867</ele>
        <time>2021-04-08T10:14:20Z</time>
      </trkpt>
      <trkpt lat="44.44856" lon="6.57763">
        <ele>2867</ele>
        <time>2021-04-08T10:14:21Z</time>
      </trkpt>
      <trkpt lat="44.44857" lon="6.57762">
        <ele>2867</ele>
        <time>2021-04-08T10:14:22Z</time>
      </trkpt>
      <trkpt lat="44.44858" lon="6.57761">
        <ele>2867</ele>
        <time>2021-04-08T10:14:23Z</time>
      </trkpt>
      <trkpt lat="44.44859" lon="6.57761">
        <ele>2867</ele>
        <time>2021-04-08T10:14:24Z</time>
      </trkpt>
      <trkpt lat="44.44859" lon="6.5776">
        <ele>2867</ele>
        <time>2021-04-08T10:14:25Z</time>
      </trkpt>
      <trkpt lat="44.4486" lon="6.5776">
        <ele>2867</ele>
        <time>2021-04-08T10:14:26Z</time>
      </trkpt>
      <trkpt lat="44.4486" lon="6.5776">
        <ele>2867</ele>
        <time>2021-04-08T10:14:27Z</time>
      </trkpt>
      <trkpt lat="44.4486" lon="6.5776">
        <ele>2867</ele>
        <time>2021-04-08T10:14:28Z</time>
      </trkpt>
      <trkpt lat="44.4486" lon="6.5776">
        <ele>2868</ele>
        <time>2021-04-08T10:14:29Z</time>
      </trkpt>
      <trkpt lat="44.4486" lon="6.5776">
        <ele>2868</ele>
        <time>2021-04-08T10:14:30Z</time>
      </trkpt>
      <trkpt lat="44.44861" lon="6.5776">
        <ele>2868</ele>
        <time>2021-04-08T10:14:31Z</time>
      </trkpt>
      <trkpt lat="44.44862" lon="6.5776">
        <ele>2868</ele>
        <time>2021-04-08T10:14:32Z</time>
      </trkpt>
      <trkpt lat="44.44862" lon="6.5776">
        <ele>2868</ele>
        <time>2021-04-08T10:14:33Z</time>
      </trkpt>
      <trkpt lat="44.44862" lon="6.5776">
        <ele>2868</ele>
        <time>2021-04-08T10:14:34Z</time>
      </trkpt>
      <trkpt lat="44.44862" lon="6.57761">
        <ele>2868</ele>
        <time>2021-04-08T10:14:35Z</time>
      </trkpt>
      <trkpt lat="44.4486" lon="6.5776">
        <ele>2868</ele>
        <time>2021-04-08T10:14:36Z</time>
      </trkpt>
      <trkpt lat="44.44859" lon="6.5776">
        <ele>2868</ele>
        <time>2021-04-08T10:14:37Z</time>
      </trkpt>
      <trkpt lat="44.4486" lon="6.57763">
        <ele>2868</ele>
        <time>2021-04-08T10:14:38Z</time>
      </trkpt>
      <trkpt lat="44.44861" lon="6.57762">
        <ele>2868</ele>
        <time>2021-04-08T10:14:39Z</time>
      </trkpt>
      <trkpt lat="44.44861" lon="6.57761">
        <ele>2867</ele>
        <time>2021-04-08T10:14:40Z</time>
      </trkpt>
      <trkpt lat="44.4486" lon="6.57761">
        <ele>2867</ele>
        <time>2021-04-08T10:14:41Z</time>
      </trkpt>
      <trkpt lat="44.44861" lon="6.57762">
        <ele>2867</ele>
        <time>2021-04-08T10:14:42Z</time>
      </trkpt>
      <trkpt lat="44.44861" lon="6.57761">
        <ele>2867</ele>
        <time>2021-04-08T10:14:43Z</time>
      </trkpt>
      <trkpt lat="44.44861" lon="6.57761">
        <ele>2867</ele>
        <time>2021-04-08T10:14:44Z</time>
      </trkpt>
      <trkpt lat="44.4486" lon="6.5776">
        <ele>2867</ele>
        <time>2021-04-08T10:14:45Z</time>
      </trkpt>
      <trkpt lat="44.44859" lon="6.5776">
        <ele>2867</ele>
        <time>2021-04-08T10:14:46Z</time>
      </trkpt>
      <trkpt lat="44.44859" lon="6.57759">
        <ele>2867</ele>
        <time>2021-04-08T10:14:47Z</time>
      </trkpt>
      <trkpt lat="44.44859" lon="6.57759">
        <ele>2867</ele>
        <time>2021-04-08T10:14:48Z</time>
      </trkpt>
      <trkpt lat="44.44859" lon="6.5776">
        <ele>2867</ele>
        <time>2021-04-08T10:14:49Z</time>
      </trkpt>
      <trkpt lat="44.44859" lon="6.5776">
        <ele>2867</ele>
        <time>2021-04-08T10:14:50Z</time>
      </trkpt>
      <trkpt lat="44.44859" lon="6.5776">
        <ele>2867</ele>
        <time>2021-04-08T10:14:51Z</time>
      </trkpt>
      <trkpt lat="44.44859" lon="6.5776">
        <ele>2867</ele>
        <time>2021-04-08T10:14:52Z</time>
      </trkpt>
      <trkpt lat="44.44859" lon="6.5776">
        <ele>2867</ele>
        <time>2021-04-08T10:14:53Z</time>
      </trkpt>
      <trkpt lat="44.44859" lon="6.5776">
        <ele>2867</ele>
        <time>2021-04-08T10:14:54Z</time>
      </trkpt>
      <trkpt lat="44.44859" lon="6.5776">
        <ele>2867</ele>
        <time>2021-04-08T10:14:55Z</time>
      </trkpt>
      <trkpt lat="44.44861" lon="6.5776">
        <ele>2867</ele>
        <time>2021-04-08T10:14:56Z</time>
      </trkpt>
      <trkpt lat="44.44862" lon="6.57759">
        <ele>2866</ele>
        <time>2021-04-08T10:14:57Z</time>
      </trkpt>
      <trkpt lat="44.44863" lon="6.57758">
        <ele>2866</ele>
        <time>2021-04-08T10:14:58Z</time>
      </trkpt>
      <trkpt lat="44.44865" lon="6.57759">
        <ele>2866</ele>
        <time>2021-04-08T10:14:59Z</time>
      </trkpt>
      <trkpt lat="44.44865" lon="6.57758">
        <ele>2866</ele>
        <time>2021-04-08T10:15:00Z</time>
      </trkpt>
      <trkpt lat="44.44865" lon="6.57758">
        <ele>2866</ele>
        <time>2021-04-08T10:15:01Z</time>
      </trkpt>
      <trkpt lat="44.44865" lon="6.57758">
        <ele>2866</ele>
        <time>2021-04-08T10:15:02Z</time>
      </trkpt>
      <trkpt lat="44.44864" lon="6.57758">
        <ele>2866</ele>
        <time>2021-04-08T10:15:03Z</time>
      </trkpt>
      <trkpt lat="44.44864" lon="6.57757">
        <ele>2865</ele>
        <time>2021-04-08T10:15:04Z</time>
      </trkpt>
      <trkpt lat="44.44863" lon="6.57757">
        <ele>2865</ele>
        <time>2021-04-08T10:15:05Z</time>
      </trkpt>
      <trkpt lat="44.44863" lon="6.57757">
        <ele>2865</ele>
        <time>2021-04-08T10:15:06Z</time>
      </trkpt>
      <trkpt lat="44.44863" lon="6.57756">
        <ele>2865</ele>
        <time>2021-04-08T10:15:07Z</time>
      </trkpt>
      <trkpt lat="44.44863" lon="6.57756">
        <ele>2865</ele>
        <time>2021-04-08T10:15:08Z</time>
      </trkpt>
      <trkpt lat="44.44863" lon="6.57756">
        <ele>2865</ele>
        <time>2021-04-08T10:15:09Z</time>
      </trkpt>
      <trkpt lat="44.44863" lon="6.57756">
        <ele>2865</ele>
        <time>2021-04-08T10:15:10Z</time>
      </trkpt>
      <trkpt lat="44.44863" lon="6.57756">
        <ele>2864</ele>
        <time>2021-04-08T10:15:11Z</time>
      </trkpt>
      <trkpt lat="44.44863" lon="6.57756">
        <ele>2862</ele>
        <time>2021-04-08T10:15:12Z</time>
      </trkpt>
      <trkpt lat="44.44863" lon="6.57756">
        <ele>2861</ele>
        <time>2021-04-08T10:15:13Z</time>
      </trkpt>
      <trkpt lat="44.44863" lon="6.57756">
        <ele>2860</ele>
        <time>2021-04-08T10:15:14Z</time>
      </trkpt>
      <trkpt lat="44.44863" lon="6.57756">
        <ele>2860</ele>
        <time>2021-04-08T10:15:15Z</time>
      </trkpt>
      <trkpt lat="44.44863" lon="6.57756">
        <ele>2860</ele>
        <time>2021-04-08T10:15:16Z</time>
      </trkpt>
      <trkpt lat="44.44863" lon="6.57756">
        <ele>2860</ele>
        <time>2021-04-08T10:15:17Z</time>
      </trkpt>
      <trkpt lat="44.44863" lon="6.57756">
        <ele>2860</ele>
        <time>2021-04-08T10:15:18Z</time>
      </trkpt>
      <trkpt lat="44.44863" lon="6.57756">
        <ele>2860</ele>
        <time>2021-04-08T10:15:19Z</time>
      </trkpt>
      <trkpt lat="44.44863" lon="6.57756">
        <ele>2860</ele>
        <time>2021-04-08T10:15:20Z</time>
      </trkpt>
      <trkpt lat="44.44863" lon="6.57756">
        <ele>2860</ele>
        <time>2021-04-08T10:15:21Z</time>
      </trkpt>
      <trkpt lat="44.44863" lon="6.57756">
        <ele>2860</ele>
        <time>2021-04-08T10:15:22Z</time>
      </trkpt>
      <trkpt lat="44.44863" lon="6.57756">
        <ele>2860</ele>
        <time>2021-04-08T10:15:23Z</time>
      </trkpt>
      <trkpt lat="44.44863" lon="6.57756">
        <ele>2860</ele>
        <time>2021-04-08T10:15:24Z</time>
      </trkpt>
      <trkpt lat="44.44865" lon="6.57754">
        <ele>2859</ele>
        <time>2021-04-08T10:15:25Z</time>
      </trkpt>
      <trkpt lat="44.44865" lon="6.57753">
        <ele>2859</ele>
        <time>2021-04-08T10:15:26Z</time>
      </trkpt>
      <trkpt lat="44.44866" lon="6.57753">
        <ele>2859</ele>
        <time>2021-04-08T10:15:27Z</time>
      </trkpt>
      <trkpt lat="44.44867" lon="6.57752">
        <ele>2859</ele>
        <time>2021-04-08T10:15:28Z</time>
      </trkpt>
      <trkpt lat="44.44867" lon="6.57752">
        <ele>2858</ele>
        <time>2021-04-08T10:15:29Z</time>
      </trkpt>
      <trkpt lat="44.44867" lon="6.57751">
        <ele>2858</ele>
        <time>2021-04-08T10:15:30Z</time>
      </trkpt>
      <trkpt lat="44.44869" lon="6.57749">
        <ele>2858</ele>
        <time>2021-04-08T10:15:31Z</time>
      </trkpt>
      <trkpt lat="44.44871" lon="6.57746">
        <ele>2858</ele>
        <time>2021-04-08T10:15:32Z</time>
      </trkpt>
      <trkpt lat="44.44872" lon="6.57744">
        <ele>2857</ele>
        <time>2021-04-08T10:15:33Z</time>
      </trkpt>
      <trkpt lat="44.44874" lon="6.57742">
        <ele>2856</ele>
        <time>2021-04-08T10:15:34Z</time>
      </trkpt>
      <trkpt lat="44.44876" lon="6.5774">
        <ele>2855</ele>
        <time>2021-04-08T10:15:35Z</time>
      </trkpt>
      <trkpt lat="44.44876" lon="6.57738">
        <ele>2854</ele>
        <time>2021-04-08T10:15:36Z</time>
      </trkpt>
      <trkpt lat="44.44877" lon="6.57736">
        <ele>2854</ele>
        <time>2021-04-08T10:15:37Z</time>
      </trkpt>
      <trkpt lat="44.44877" lon="6.57735">
        <ele>2851</ele>
        <time>2021-04-08T10:15:38Z</time>
      </trkpt>
      <trkpt lat="44.44877" lon="6.57733">
        <ele>2850</ele>
        <time>2021-04-08T10:15:39Z</time>
      </trkpt>
      <trkpt lat="44.44879" lon="6.57733">
        <ele>2849</ele>
        <time>2021-04-08T10:15:40Z</time>
      </trkpt>
      <trkpt lat="44.4488" lon="6.57732">
        <ele>2847</ele>
        <time>2021-04-08T10:15:41Z</time>
      </trkpt>
      <trkpt lat="44.4488" lon="6.57731">
        <ele>2845</ele>
        <time>2021-04-08T10:15:42Z</time>
      </trkpt>
      <trkpt lat="44.4488" lon="6.57731">
        <ele>2844</ele>
        <time>2021-04-08T10:15:43Z</time>
      </trkpt>
      <trkpt lat="44.4488" lon="6.57732">
        <ele>2844</ele>
        <time>2021-04-08T10:15:44Z</time>
      </trkpt>
      <trkpt lat="44.4488" lon="6.57732">
        <ele>2843</ele>
        <time>2021-04-08T10:15:45Z</time>
      </trkpt>
      <trkpt lat="44.4488" lon="6.57733">
        <ele>2843</ele>
        <time>2021-04-08T10:15:46Z</time>
      </trkpt>
      <trkpt lat="44.4488" lon="6.57733">
        <ele>2843</ele>
        <time>2021-04-08T10:15:47Z</time>
      </trkpt>
      <trkpt lat="44.4488" lon="6.57733">
        <ele>2842</ele>
        <time>2021-04-08T10:15:48Z</time>
      </trkpt>
      <trkpt lat="44.4488" lon="6.57733">
        <ele>2842</ele>
        <time>2021-04-08T10:15:49Z</time>
      </trkpt>
      <trkpt lat="44.44881" lon="6.57732">
        <ele>2842</ele>
        <time>2021-04-08T10:15:50Z</time>
      </trkpt>
      <trkpt lat="44.4488" lon="6.57733">
        <ele>2842</ele>
        <time>2021-04-08T10:15:51Z</time>
      </trkpt>
      <trkpt lat="44.4488" lon="6.57733">
        <ele>2841</ele>
        <time>2021-04-08T10:15:52Z</time>
      </trkpt>
      <trkpt lat="44.4488" lon="6.57733">
        <ele>2841</ele>
        <time>2021-04-08T10:15:53Z</time>
      </trkpt>
      <trkpt lat="44.4488" lon="6.57733">
        <ele>2841</ele>
        <time>2021-04-08T10:15:54Z</time>
      </trkpt>
      <trkpt lat="44.4488" lon="6.57733">
        <ele>2841</ele>
        <time>2021-04-08T10:15:55Z</time>
      </trkpt>
      <trkpt lat="44.4488" lon="6.57733">
        <ele>2841</ele>
        <time>2021-04-08T10:15:56Z</time>
      </trkpt>
      <trkpt lat="44.4488" lon="6.57733">
        <ele>2841</ele>
        <time>2021-04-08T10:15:57Z</time>
      </trkpt>
      <trkpt lat="44.4488" lon="6.57733">
        <ele>2841</ele>
        <time>2021-04-08T10:15:58Z</time>
      </trkpt>
      <trkpt lat="44.44881" lon="6.57731">
        <ele>2841</ele>
        <time>2021-04-08T10:15:59Z</time>
      </trkpt>
      <trkpt lat="44.44881" lon="6.5773">
        <ele>2841</ele>
        <time>2021-04-08T10:16:00Z</time>
      </trkpt>
      <trkpt lat="44.44881" lon="6.5773">
        <ele>2841</ele>
        <time>2021-04-08T10:16:01Z</time>
      </trkpt>
      <trkpt lat="44.44881" lon="6.57729">
        <ele>2841</ele>
        <time>2021-04-08T10:16:02Z</time>
      </trkpt>
      <trkpt lat="44.44881" lon="6.57729">
        <ele>2841</ele>
        <time>2021-04-08T10:16:03Z</time>
      </trkpt>
      <trkpt lat="44.44881" lon="6.57729">
        <ele>2841</ele>
        <time>2021-04-08T10:16:04Z</time>
      </trkpt>
      <trkpt lat="44.44881" lon="6.57729">
        <ele>2841</ele>
        <time>2021-04-08T10:16:05Z</time>
      </trkpt>
      <trkpt lat="44.44881" lon="6.57729">
        <ele>2841</ele>
        <time>2021-04-08T10:16:06Z</time>
      </trkpt>
      <trkpt lat="44.44881" lon="6.57729">
        <ele>2841</ele>
        <time>2021-04-08T10:16:07Z</time>
      </trkpt>
      <trkpt lat="44.44881" lon="6.57729">
        <ele>2841</ele>
        <time>2021-04-08T10:16:08Z</time>
      </trkpt>
      <trkpt lat="44.44881" lon="6.57729">
        <ele>2841</ele>
        <time>2021-04-08T10:16:09Z</time>
      </trkpt>
      <trkpt lat="44.44881" lon="6.57729">
        <ele>2841</ele>
        <time>2021-04-08T10:16:10Z</time>
      </trkpt>
      <trkpt lat="44.44881" lon="6.57729">
        <ele>2841</ele>
        <time>2021-04-08T10:16:11Z</time>
      </trkpt>
      <trkpt lat="44.44881" lon="6.57729">
        <ele>2841</ele>
        <time>2021-04-08T10:16:12Z</time>
      </trkpt>
      <trkpt lat="44.44881" lon="6.57729">
        <ele>2841</ele>
        <time>2021-04-08T10:16:13Z</time>
      </trkpt>
      <trkpt lat="44.44881" lon="6.57729">
        <ele>2841</ele>
        <time>2021-04-08T10:16:14Z</time>
      </trkpt>
      <trkpt lat="44.44881" lon="6.57729">
        <ele>2841</ele>
        <time>2021-04-08T10:16:15Z</time>
      </trkpt>
      <trkpt lat="44.44881" lon="6.57729">
        <ele>2841</ele>
        <time>2021-04-08T10:16:16Z</time>
      </trkpt>
      <trkpt lat="44.44881" lon="6.57729">
        <ele>2841</ele>
        <time>2021-04-08T10:16:17Z</time>
      </trkpt>
      <trkpt lat="44.44881" lon="6.57729">
        <ele>2841</ele>
        <time>2021-04-08T10:16:18Z</time>
      </trkpt>
      <trkpt lat="44.44881" lon="6.57729">
        <ele>2841</ele>
        <time>2021-04-08T10:16:19Z</time>
      </trkpt>
      <trkpt lat="44.44881" lon="6.57729">
        <ele>2841</ele>
        <time>2021-04-08T10:16:20Z</time>
      </trkpt>
      <trkpt lat="44.44881" lon="6.57729">
        <ele>2841</ele>
        <time>2021-04-08T10:16:21Z</time>
      </trkpt>
      <trkpt lat="44.44881" lon="6.57729">
        <ele>2841</ele>
        <time>2021-04-08T10:16:22Z</time>
      </trkpt>
      <trkpt lat="44.44879" lon="6.57733">
        <ele>2841</ele>
        <time>2021-04-08T10:16:23Z</time>
      </trkpt>
      <trkpt lat="44.44879" lon="6.57733">
        <ele>2841</ele>
        <time>2021-04-08T10:16:24Z</time>
      </trkpt>
      <trkpt lat="44.44879" lon="6.57733">
        <ele>2840</ele>
        <time>2021-04-08T10:16:25Z</time>
      </trkpt>
      <trkpt lat="44.44879" lon="6.57733">
        <ele>2840</ele>
        <time>2021-04-08T10:16:26Z</time>
      </trkpt>
      <trkpt lat="44.44879" lon="6.57733">
        <ele>2840</ele>
        <time>2021-04-08T10:16:27Z</time>
      </trkpt>
      <trkpt lat="44.44879" lon="6.57733">
        <ele>2840</ele>
        <time>2021-04-08T10:16:29Z</time>
      </trkpt>
      <trkpt lat="44.44879" lon="6.57733">
        <ele>2840</ele>
        <time>2021-04-08T10:16:30Z</time>
      </trkpt>
      <trkpt lat="44.44879" lon="6.57733">
        <ele>2838</ele>
        <time>2021-04-08T10:16:31Z</time>
      </trkpt>
      <trkpt lat="44.44879" lon="6.57733">
        <ele>2838</ele>
        <time>2021-04-08T10:16:32Z</time>
      </trkpt>
      <trkpt lat="44.44879" lon="6.57733">
        <ele>2838</ele>
        <time>2021-04-08T10:16:33Z</time>
      </trkpt>
      <trkpt lat="44.44879" lon="6.57733">
        <ele>2837</ele>
        <time>2021-04-08T10:16:35Z</time>
      </trkpt>
      <trkpt lat="44.44879" lon="6.57733">
        <ele>2837</ele>
        <time>2021-04-08T10:16:36Z</time>
      </trkpt>
      <trkpt lat="44.44879" lon="6.57733">
        <ele>2837</ele>
        <time>2021-04-08T10:16:37Z</time>
      </trkpt>
      <trkpt lat="44.44879" lon="6.57733">
        <ele>2837</ele>
        <time>2021-04-08T10:16:38Z</time>
      </trkpt>
      <trkpt lat="44.44879" lon="6.57733">
        <ele>2837</ele>
        <time>2021-04-08T10:16:39Z</time>
      </trkpt>
      <trkpt lat="44.44879" lon="6.57733">
        <ele>2837</ele>
        <time>2021-04-08T10:16:40Z</time>
      </trkpt>
      <trkpt lat="44.44879" lon="6.57733">
        <ele>2837</ele>
        <time>2021-04-08T10:16:41Z</time>
      </trkpt>
      <trkpt lat="44.44879" lon="6.57733">
        <ele>2837</ele>
        <time>2021-04-08T10:16:42Z</time>
      </trkpt>
      <trkpt lat="44.44879" lon="6.57733">
        <ele>2837</ele>
        <time>2021-04-08T10:16:43Z</time>
      </trkpt>
      <trkpt lat="44.44879" lon="6.57733">
        <ele>2837</ele>
        <time>2021-04-08T10:16:44Z</time>
      </trkpt>
      <trkpt lat="44.44879" lon="6.57733">
        <ele>2837</ele>
        <time>2021-04-08T10:16:45Z</time>
      </trkpt>
      <trkpt lat="44.44879" lon="6.57733">
        <ele>2837</ele>
        <time>2021-04-08T10:16:46Z</time>
      </trkpt>
      <trkpt lat="44.44879" lon="6.57733">
        <ele>2837</ele>
        <time>2021-04-08T10:16:47Z</time>
      </trkpt>
      <trkpt lat="44.44879" lon="6.57733">
        <ele>2837</ele>
        <time>2021-04-08T10:16:48Z</time>
      </trkpt>
      <trkpt lat="44.44879" lon="6.57733">
        <ele>2837</ele>
        <time>2021-04-08T10:16:49Z</time>
      </trkpt>
      <trkpt lat="44.44879" lon="6.57733">
        <ele>2837</ele>
        <time>2021-04-08T10:16:50Z</time>
      </trkpt>
      <trkpt lat="44.44879" lon="6.57733">
        <ele>2837</ele>
        <time>2021-04-08T10:16:51Z</time>
      </trkpt>
      <trkpt lat="44.44879" lon="6.57733">
        <ele>2837</ele>
        <time>2021-04-08T10:16:52Z</time>
      </trkpt>
      <trkpt lat="44.44879" lon="6.57733">
        <ele>2837</ele>
        <time>2021-04-08T10:16:53Z</time>
      </trkpt>
      <trkpt lat="44.44879" lon="6.57733">
        <ele>2837</ele>
        <time>2021-04-08T10:16:54Z</time>
      </trkpt>
      <trkpt lat="44.44879" lon="6.57733">
        <ele>2837</ele>
        <time>2021-04-08T10:16:55Z</time>
      </trkpt>
      <trkpt lat="44.44879" lon="6.57733">
        <ele>2837</ele>
        <time>2021-04-08T10:16:56Z</time>
      </trkpt>
      <trkpt lat="44.44879" lon="6.57733">
        <ele>2837</ele>
        <time>2021-04-08T10:16:57Z</time>
      </trkpt>
      <trkpt lat="44.44879" lon="6.57733">
        <ele>2837</ele>
        <time>2021-04-08T10:16:58Z</time>
      </trkpt>
      <trkpt lat="44.44879" lon="6.57733">
        <ele>2837</ele>
        <time>2021-04-08T10:16:59Z</time>
      </trkpt>
      <trkpt lat="44.44879" lon="6.57733">
        <ele>2837</ele>
        <time>2021-04-08T10:17:00Z</time>
      </trkpt>
      <trkpt lat="44.44879" lon="6.57733">
        <ele>2837</ele>
        <time>2021-04-08T10:17:01Z</time>
      </trkpt>
      <trkpt lat="44.44879" lon="6.57733">
        <ele>2837</ele>
        <time>2021-04-08T10:17:02Z</time>
      </trkpt>
      <trkpt lat="44.44879" lon="6.57733">
        <ele>2837</ele>
        <time>2021-04-08T10:17:03Z</time>
      </trkpt>
      <trkpt lat="44.44879" lon="6.57733">
        <ele>2837</ele>
        <time>2021-04-08T10:17:04Z</time>
      </trkpt>
      <trkpt lat="44.44879" lon="6.57733">
        <ele>2837</ele>
        <time>2021-04-08T10:17:05Z</time>
      </trkpt>
      <trkpt lat="44.44879" lon="6.57733">
        <ele>2837</ele>
        <time>2021-04-08T10:17:06Z</time>
      </trkpt>
      <trkpt lat="44.44879" lon="6.57733">
        <ele>2837</ele>
        <time>2021-04-08T10:17:07Z</time>
      </trkpt>
      <trkpt lat="44.44879" lon="6.57733">
        <ele>2837</ele>
        <time>2021-04-08T10:17:08Z</time>
      </trkpt>
      <trkpt lat="44.44879" lon="6.57733">
        <ele>2837</ele>
        <time>2021-04-08T10:17:09Z</time>
      </trkpt>
      <trkpt lat="44.44879" lon="6.57733">
        <ele>2837</ele>
        <time>2021-04-08T10:17:10Z</time>
      </trkpt>
      <trkpt lat="44.44879" lon="6.57733">
        <ele>2837</ele>
        <time>2021-04-08T10:17:11Z</time>
      </trkpt>
      <trkpt lat="44.44879" lon="6.57733">
        <ele>2837</ele>
        <time>2021-04-08T10:17:12Z</time>
      </trkpt>
      <trkpt lat="44.44879" lon="6.57733">
        <ele>2837</ele>
        <time>2021-04-08T10:17:13Z</time>
      </trkpt>
      <trkpt lat="44.44879" lon="6.57733">
        <ele>2837</ele>
        <time>2021-04-08T10:17:14Z</time>
      </trkpt>
      <trkpt lat="44.44879" lon="6.57733">
        <ele>2837</ele>
        <time>2021-04-08T10:17:15Z</time>
      </trkpt>
      <trkpt lat="44.44879" lon="6.57733">
        <ele>2837</ele>
        <time>2021-04-08T10:17:16Z</time>
      </trkpt>
      <trkpt lat="44.44879" lon="6.57733">
        <ele>2837</ele>
        <time>2021-04-08T10:17:17Z</time>
      </trkpt>
      <trkpt lat="44.44879" lon="6.57733">
        <ele>2837</ele>
        <time>2021-04-08T10:17:18Z</time>
      </trkpt>
      <trkpt lat="44.44879" lon="6.57733">
        <ele>2837</ele>
        <time>2021-04-08T10:17:19Z</time>
      </trkpt>
      <trkpt lat="44.44879" lon="6.57733">
        <ele>2837</ele>
        <time>2021-04-08T10:17:20Z</time>
      </trkpt>
      <trkpt lat="44.44879" lon="6.57733">
        <ele>2837</ele>
        <time>2021-04-08T10:17:21Z</time>
      </trkpt>
      <trkpt lat="44.44879" lon="6.57733">
        <ele>2837</ele>
        <time>2021-04-08T10:17:22Z</time>
      </trkpt>
      <trkpt lat="44.44879" lon="6.57733">
        <ele>2837</ele>
        <time>2021-04-08T10:17:23Z</time>
      </trkpt>
      <trkpt lat="44.44879" lon="6.57733">
        <ele>2837</ele>
        <time>2021-04-08T10:17:24Z</time>
      </trkpt>
      <trkpt lat="44.44879" lon="6.57733">
        <ele>2837</ele>
        <time>2021-04-08T10:17:25Z</time>
      </trkpt>
      <trkpt lat="44.44879" lon="6.57733">
        <ele>2837</ele>
        <time>2021-04-08T10:17:26Z</time>
      </trkpt>
      <trkpt lat="44.44879" lon="6.57733">
        <ele>2837</ele>
        <time>2021-04-08T10:17:27Z</time>
      </trkpt>
      <trkpt lat="44.44879" lon="6.57733">
        <ele>2837</ele>
        <time>2021-04-08T10:17:28Z</time>
      </trkpt>
      <trkpt lat="44.44879" lon="6.57733">
        <ele>2837</ele>
        <time>2021-04-08T10:17:29Z</time>
      </trkpt>
      <trkpt lat="44.44879" lon="6.57733">
        <ele>2837</ele>
        <time>2021-04-08T10:17:30Z</time>
      </trkpt>
      <trkpt lat="44.44879" lon="6.57733">
        <ele>2837</ele>
        <time>2021-04-08T10:17:31Z</time>
      </trkpt>
      <trkpt lat="44.44879" lon="6.57733">
        <ele>2837</ele>
        <time>2021-04-08T10:17:32Z</time>
      </trkpt>
      <trkpt lat="44.44879" lon="6.57733">
        <ele>2837</ele>
        <time>2021-04-08T10:17:33Z</time>
      </trkpt>
      <trkpt lat="44.44879" lon="6.57733">
        <ele>2837</ele>
        <time>2021-04-08T10:17:34Z</time>
      </trkpt>
      <trkpt lat="44.44879" lon="6.57733">
        <ele>2837</ele>
        <time>2021-04-08T10:17:35Z</time>
      </trkpt>
      <trkpt lat="44.44879" lon="6.57733">
        <ele>2837</ele>
        <time>2021-04-08T10:17:36Z</time>
      </trkpt>
      <trkpt lat="44.44879" lon="6.57733">
        <ele>2837</ele>
        <time>2021-04-08T10:17:37Z</time>
      </trkpt>
      <trkpt lat="44.44879" lon="6.57733">
        <ele>2837</ele>
        <time>2021-04-08T10:17:38Z</time>
      </trkpt>
      <trkpt lat="44.44879" lon="6.57733">
        <ele>2837</ele>
        <time>2021-04-08T10:17:39Z</time>
      </trkpt>
      <trkpt lat="44.44879" lon="6.57733">
        <ele>2837</ele>
        <time>2021-04-08T10:17:40Z</time>
      </trkpt>
      <trkpt lat="44.44879" lon="6.57733">
        <ele>2837</ele>
        <time>2021-04-08T10:17:41Z</time>
      </trkpt>
      <trkpt lat="44.4488" lon="6.57731">
        <ele>2837</ele>
        <time>2021-04-08T10:17:42Z</time>
      </trkpt>
      <trkpt lat="44.4488" lon="6.57731">
        <ele>2837</ele>
        <time>2021-04-08T10:17:43Z</time>
      </trkpt>
      <trkpt lat="44.4488" lon="6.57731">
        <ele>2837</ele>
        <time>2021-04-08T10:17:44Z</time>
      </trkpt>
      <trkpt lat="44.4488" lon="6.57731">
        <ele>2837</ele>
        <time>2021-04-08T10:17:45Z</time>
      </trkpt>
      <trkpt lat="44.4488" lon="6.57731">
        <ele>2837</ele>
        <time>2021-04-08T10:17:46Z</time>
      </trkpt>
      <trkpt lat="44.4488" lon="6.57731">
        <ele>2837</ele>
        <time>2021-04-08T10:17:47Z</time>
      </trkpt>
      <trkpt lat="44.4488" lon="6.57731">
        <ele>2837</ele>
        <time>2021-04-08T10:17:48Z</time>
      </trkpt>
      <trkpt lat="44.4488" lon="6.57731">
        <ele>2837</ele>
        <time>2021-04-08T10:17:49Z</time>
      </trkpt>
      <trkpt lat="44.4488" lon="6.57731">
        <ele>2837</ele>
        <time>2021-04-08T10:17:50Z</time>
      </trkpt>
      <trkpt lat="44.4488" lon="6.57731">
        <ele>2837</ele>
        <time>2021-04-08T10:17:51Z</time>
      </trkpt>
      <trkpt lat="44.4488" lon="6.57731">
        <ele>2837</ele>
        <time>2021-04-08T10:17:52Z</time>
      </trkpt>
      <trkpt lat="44.4488" lon="6.57731">
        <ele>2837</ele>
        <time>2021-04-08T10:17:53Z</time>
      </trkpt>
      <trkpt lat="44.4488" lon="6.57731">
        <ele>2837</ele>
        <time>2021-04-08T10:17:54Z</time>
      </trkpt>
      <trkpt lat="44.4488" lon="6.57731">
        <ele>2837</ele>
        <time>2021-04-08T10:17:55Z</time>
      </trkpt>
      <trkpt lat="44.4488" lon="6.57731">
        <ele>2837</ele>
        <time>2021-04-08T10:17:56Z</time>
      </trkpt>
      <trkpt lat="44.4488" lon="6.57731">
        <ele>2837</ele>
        <time>2021-04-08T10:17:57Z</time>
      </trkpt>
      <trkpt lat="44.4488" lon="6.57731">
        <ele>2837</ele>
        <time>2021-04-08T10:17:58Z</time>
      </trkpt>
      <trkpt lat="44.4488" lon="6.57731">
        <ele>2837</ele>
        <time>2021-04-08T10:17:59Z</time>
      </trkpt>
      <trkpt lat="44.4488" lon="6.5773">
        <ele>2837</ele>
        <time>2021-04-08T10:18:00Z</time>
      </trkpt>
      <trkpt lat="44.4488" lon="6.5773">
        <ele>2837</ele>
        <time>2021-04-08T10:18:01Z</time>
      </trkpt>
      <trkpt lat="44.4488" lon="6.5773">
        <ele>2837</ele>
        <time>2021-04-08T10:18:02Z</time>
      </trkpt>
      <trkpt lat="44.44881" lon="6.5773">
        <ele>2836</ele>
        <time>2021-04-08T10:18:03Z</time>
      </trkpt>
      <trkpt lat="44.44881" lon="6.5773">
        <ele>2835</ele>
        <time>2021-04-08T10:18:04Z</time>
      </trkpt>
      <trkpt lat="44.44881" lon="6.5773">
        <ele>2835</ele>
        <time>2021-04-08T10:18:05Z</time>
      </trkpt>
      <trkpt lat="44.44881" lon="6.5773">
        <ele>2834</ele>
        <time>2021-04-08T10:18:06Z</time>
      </trkpt>
      <trkpt lat="44.44881" lon="6.5773">
        <ele>2834</ele>
        <time>2021-04-08T10:18:07Z</time>
      </trkpt>
      <trkpt lat="44.44882" lon="6.57731">
        <ele>2834</ele>
        <time>2021-04-08T10:18:08Z</time>
      </trkpt>
      <trkpt lat="44.44882" lon="6.57731">
        <ele>2834</ele>
        <time>2021-04-08T10:18:09Z</time>
      </trkpt>
      <trkpt lat="44.44883" lon="6.57731">
        <ele>2834</ele>
        <time>2021-04-08T10:18:10Z</time>
      </trkpt>
      <trkpt lat="44.44883" lon="6.5773">
        <ele>2833</ele>
        <time>2021-04-08T10:18:11Z</time>
      </trkpt>
      <trkpt lat="44.44883" lon="6.57729">
        <ele>2833</ele>
        <time>2021-04-08T10:18:12Z</time>
      </trkpt>
      <trkpt lat="44.44884" lon="6.57729">
        <ele>2833</ele>
        <time>2021-04-08T10:18:13Z</time>
      </trkpt>
      <trkpt lat="44.44884" lon="6.57728">
        <ele>2832</ele>
        <time>2021-04-08T10:18:14Z</time>
      </trkpt>
      <trkpt lat="44.44884" lon="6.57728">
        <ele>2832</ele>
        <time>2021-04-08T10:18:15Z</time>
      </trkpt>
      <trkpt lat="44.44884" lon="6.57728">
        <ele>2832</ele>
        <time>2021-04-08T10:18:16Z</time>
      </trkpt>
      <trkpt lat="44.44884" lon="6.57728">
        <ele>2832</ele>
        <time>2021-04-08T10:18:17Z</time>
      </trkpt>
      <trkpt lat="44.44884" lon="6.57728">
        <ele>2832</ele>
        <time>2021-04-08T10:18:18Z</time>
      </trkpt>
      <trkpt lat="44.44884" lon="6.57728">
        <ele>2832</ele>
        <time>2021-04-08T10:18:19Z</time>
      </trkpt>
      <trkpt lat="44.44884" lon="6.57728">
        <ele>2832</ele>
        <time>2021-04-08T10:18:20Z</time>
      </trkpt>
      <trkpt lat="44.44884" lon="6.57728">
        <ele>2832</ele>
        <time>2021-04-08T10:18:21Z</time>
      </trkpt>
      <trkpt lat="44.44884" lon="6.57728">
        <ele>2832</ele>
        <time>2021-04-08T10:18:22Z</time>
      </trkpt>
      <trkpt lat="44.44884" lon="6.57728">
        <ele>2832</ele>
        <time>2021-04-08T10:18:23Z</time>
      </trkpt>
      <trkpt lat="44.44884" lon="6.57728">
        <ele>2832</ele>
        <time>2021-04-08T10:18:24Z</time>
      </trkpt>
      <trkpt lat="44.44884" lon="6.57728">
        <ele>2832</ele>
        <time>2021-04-08T10:18:25Z</time>
      </trkpt>
      <trkpt lat="44.44884" lon="6.57728">
        <ele>2832</ele>
        <time>2021-04-08T10:18:26Z</time>
      </trkpt>
      <trkpt lat="44.44884" lon="6.57728">
        <ele>2832</ele>
        <time>2021-04-08T10:18:27Z</time>
      </trkpt>
      <trkpt lat="44.44884" lon="6.57728">
        <ele>2832</ele>
        <time>2021-04-08T10:18:28Z</time>
      </trkpt>
      <trkpt lat="44.44884" lon="6.57728">
        <ele>2832</ele>
        <time>2021-04-08T10:18:29Z</time>
      </trkpt>
      <trkpt lat="44.44884" lon="6.57728">
        <ele>2832</ele>
        <time>2021-04-08T10:18:30Z</time>
      </trkpt>
      <trkpt lat="44.44884" lon="6.57728">
        <ele>2832</ele>
        <time>2021-04-08T10:18:31Z</time>
      </trkpt>
      <trkpt lat="44.44884" lon="6.57728">
        <ele>2832</ele>
        <time>2021-04-08T10:18:32Z</time>
      </trkpt>
      <trkpt lat="44.44884" lon="6.57728">
        <ele>2832</ele>
        <time>2021-04-08T10:18:33Z</time>
      </trkpt>
      <trkpt lat="44.44884" lon="6.57728">
        <ele>2832</ele>
        <time>2021-04-08T10:18:34Z</time>
      </trkpt>
      <trkpt lat="44.44884" lon="6.57728">
        <ele>2832</ele>
        <time>2021-04-08T10:18:35Z</time>
      </trkpt>
      <trkpt lat="44.44884" lon="6.57728">
        <ele>2832</ele>
        <time>2021-04-08T10:18:36Z</time>
      </trkpt>
      <trkpt lat="44.44884" lon="6.57728">
        <ele>2832</ele>
        <time>2021-04-08T10:18:37Z</time>
      </trkpt>
      <trkpt lat="44.44884" lon="6.57728">
        <ele>2832</ele>
        <time>2021-04-08T10:18:38Z</time>
      </trkpt>
      <trkpt lat="44.44884" lon="6.57728">
        <ele>2832</ele>
        <time>2021-04-08T10:18:39Z</time>
      </trkpt>
      <trkpt lat="44.44884" lon="6.57728">
        <ele>2832</ele>
        <time>2021-04-08T10:18:40Z</time>
      </trkpt>
      <trkpt lat="44.44884" lon="6.57728">
        <ele>2832</ele>
        <time>2021-04-08T10:18:41Z</time>
      </trkpt>
      <trkpt lat="44.44884" lon="6.57728">
        <ele>2832</ele>
        <time>2021-04-08T10:18:42Z</time>
      </trkpt>
      <trkpt lat="44.44884" lon="6.57728">
        <ele>2832</ele>
        <time>2021-04-08T10:18:43Z</time>
      </trkpt>
      <trkpt lat="44.44884" lon="6.57728">
        <ele>2832</ele>
        <time>2021-04-08T10:18:44Z</time>
      </trkpt>
      <trkpt lat="44.44884" lon="6.57728">
        <ele>2832</ele>
        <time>2021-04-08T10:18:45Z</time>
      </trkpt>
      <trkpt lat="44.44884" lon="6.57728">
        <ele>2832</ele>
        <time>2021-04-08T10:18:46Z</time>
      </trkpt>
      <trkpt lat="44.44884" lon="6.57728">
        <ele>2832</ele>
        <time>2021-04-08T10:18:47Z</time>
      </trkpt>
      <trkpt lat="44.44884" lon="6.57728">
        <ele>2832</ele>
        <time>2021-04-08T10:18:48Z</time>
      </trkpt>
      <trkpt lat="44.44884" lon="6.57728">
        <ele>2832</ele>
        <time>2021-04-08T10:18:49Z</time>
      </trkpt>
      <trkpt lat="44.44884" lon="6.57728">
        <ele>2832</ele>
        <time>2021-04-08T10:18:50Z</time>
      </trkpt>
      <trkpt lat="44.44884" lon="6.57728">
        <ele>2832</ele>
        <time>2021-04-08T10:18:51Z</time>
      </trkpt>
      <trkpt lat="44.44884" lon="6.57728">
        <ele>2832</ele>
        <time>2021-04-08T10:18:52Z</time>
      </trkpt>
      <trkpt lat="44.44884" lon="6.57728">
        <ele>2832</ele>
        <time>2021-04-08T10:18:53Z</time>
      </trkpt>
      <trkpt lat="44.44884" lon="6.57728">
        <ele>2832</ele>
        <time>2021-04-08T10:18:54Z</time>
      </trkpt>
      <trkpt lat="44.44884" lon="6.57728">
        <ele>2832</ele>
        <time>2021-04-08T10:18:55Z</time>
      </trkpt>
      <trkpt lat="44.44884" lon="6.57728">
        <ele>2832</ele>
        <time>2021-04-08T10:18:56Z</time>
      </trkpt>
      <trkpt lat="44.44884" lon="6.57728">
        <ele>2832</ele>
        <time>2021-04-08T10:18:57Z</time>
      </trkpt>
      <trkpt lat="44.44884" lon="6.57728">
        <ele>2832</ele>
        <time>2021-04-08T10:18:58Z</time>
      </trkpt>
      <trkpt lat="44.44884" lon="6.57728">
        <ele>2832</ele>
        <time>2021-04-08T10:18:59Z</time>
      </trkpt>
      <trkpt lat="44.44884" lon="6.57728">
        <ele>2832</ele>
        <time>2021-04-08T10:19:00Z</time>
      </trkpt>
      <trkpt lat="44.44884" lon="6.57728">
        <ele>2832</ele>
        <time>2021-04-08T10:19:01Z</time>
      </trkpt>
      <trkpt lat="44.44884" lon="6.57728">
        <ele>2832</ele>
        <time>2021-04-08T10:19:02Z</time>
      </trkpt>
      <trkpt lat="44.44884" lon="6.57728">
        <ele>2832</ele>
        <time>2021-04-08T10:19:03Z</time>
      </trkpt>
      <trkpt lat="44.44884" lon="6.57728">
        <ele>2832</ele>
        <time>2021-04-08T10:19:04Z</time>
      </trkpt>
      <trkpt lat="44.44884" lon="6.57728">
        <ele>2832</ele>
        <time>2021-04-08T10:19:05Z</time>
      </trkpt>
      <trkpt lat="44.44884" lon="6.57728">
        <ele>2832</ele>
        <time>2021-04-08T10:19:06Z</time>
      </trkpt>
      <trkpt lat="44.44884" lon="6.57728">
        <ele>2832</ele>
        <time>2021-04-08T10:19:07Z</time>
      </trkpt>
      <trkpt lat="44.44884" lon="6.57728">
        <ele>2832</ele>
        <time>2021-04-08T10:19:08Z</time>
      </trkpt>
      <trkpt lat="44.44884" lon="6.57728">
        <ele>2832</ele>
        <time>2021-04-08T10:19:09Z</time>
      </trkpt>
      <trkpt lat="44.44884" lon="6.57728">
        <ele>2832</ele>
        <time>2021-04-08T10:19:10Z</time>
      </trkpt>
      <trkpt lat="44.44884" lon="6.57728">
        <ele>2832</ele>
        <time>2021-04-08T10:19:11Z</time>
      </trkpt>
      <trkpt lat="44.44884" lon="6.57728">
        <ele>2832</ele>
        <time>2021-04-08T10:19:12Z</time>
      </trkpt>
      <trkpt lat="44.44884" lon="6.57728">
        <ele>2832</ele>
        <time>2021-04-08T10:19:13Z</time>
      </trkpt>
      <trkpt lat="44.44884" lon="6.57728">
        <ele>2832</ele>
        <time>2021-04-08T10:19:14Z</time>
      </trkpt>
      <trkpt lat="44.44884" lon="6.57728">
        <ele>2832</ele>
        <time>2021-04-08T10:19:15Z</time>
      </trkpt>
      <trkpt lat="44.44884" lon="6.57728">
        <ele>2832</ele>
        <time>2021-04-08T10:19:16Z</time>
      </trkpt>
      <trkpt lat="44.44884" lon="6.57728">
        <ele>2832</ele>
        <time>2021-04-08T10:19:17Z</time>
      </trkpt>
      <trkpt lat="44.44884" lon="6.57728">
        <ele>2832</ele>
        <time>2021-04-08T10:19:18Z</time>
      </trkpt>
      <trkpt lat="44.44884" lon="6.57728">
        <ele>2832</ele>
        <time>2021-04-08T10:19:19Z</time>
      </trkpt>
      <trkpt lat="44.44884" lon="6.57728">
        <ele>2832</ele>
        <time>2021-04-08T10:19:20Z</time>
      </trkpt>
      <trkpt lat="44.44884" lon="6.57728">
        <ele>2832</ele>
        <time>2021-04-08T10:19:21Z</time>
      </trkpt>
      <trkpt lat="44.44884" lon="6.57728">
        <ele>2832</ele>
        <time>2021-04-08T10:19:22Z</time>
      </trkpt>
      <trkpt lat="44.44884" lon="6.57728">
        <ele>2832</ele>
        <time>2021-04-08T10:19:23Z</time>
      </trkpt>
      <trkpt lat="44.44883" lon="6.57735">
        <ele>2831</ele>
        <time>2021-04-08T10:19:24Z</time>
      </trkpt>
      <trkpt lat="44.44883" lon="6.57734">
        <ele>2831</ele>
        <time>2021-04-08T10:19:25Z</time>
      </trkpt>
      <trkpt lat="44.44883" lon="6.57734">
        <ele>2831</ele>
        <time>2021-04-08T10:19:26Z</time>
      </trkpt>
      <trkpt lat="44.44883" lon="6.57734">
        <ele>2831</ele>
        <time>2021-04-08T10:19:27Z</time>
      </trkpt>
      <trkpt lat="44.44883" lon="6.57733">
        <ele>2831</ele>
        <time>2021-04-08T10:19:28Z</time>
      </trkpt>
      <trkpt lat="44.44883" lon="6.57733">
        <ele>2830</ele>
        <time>2021-04-08T10:19:29Z</time>
      </trkpt>
      <trkpt lat="44.44883" lon="6.57733">
        <ele>2830</ele>
        <time>2021-04-08T10:19:30Z</time>
      </trkpt>
      <trkpt lat="44.44883" lon="6.57733">
        <ele>2830</ele>
        <time>2021-04-08T10:19:31Z</time>
      </trkpt>
      <trkpt lat="44.44883" lon="6.57733">
        <ele>2830</ele>
        <time>2021-04-08T10:19:32Z</time>
      </trkpt>
      <trkpt lat="44.44883" lon="6.57733">
        <ele>2830</ele>
        <time>2021-04-08T10:19:33Z</time>
      </trkpt>
      <trkpt lat="44.44883" lon="6.57733">
        <ele>2830</ele>
        <time>2021-04-08T10:19:34Z</time>
      </trkpt>
      <trkpt lat="44.44884" lon="6.57733">
        <ele>2830</ele>
        <time>2021-04-08T10:19:35Z</time>
      </trkpt>
      <trkpt lat="44.44885" lon="6.57732">
        <ele>2830</ele>
        <time>2021-04-08T10:19:36Z</time>
      </trkpt>
      <trkpt lat="44.44885" lon="6.57731">
        <ele>2830</ele>
        <time>2021-04-08T10:19:37Z</time>
      </trkpt>
      <trkpt lat="44.44885" lon="6.5773">
        <ele>2830</ele>
        <time>2021-04-08T10:19:38Z</time>
      </trkpt>
      <trkpt lat="44.44885" lon="6.5773">
        <ele>2830</ele>
        <time>2021-04-08T10:19:39Z</time>
      </trkpt>
      <trkpt lat="44.44885" lon="6.57731">
        <ele>2830</ele>
        <time>2021-04-08T10:19:40Z</time>
      </trkpt>
      <trkpt lat="44.44886" lon="6.57732">
        <ele>2830</ele>
        <time>2021-04-08T10:19:41Z</time>
      </trkpt>
      <trkpt lat="44.44886" lon="6.57732">
        <ele>2830</ele>
        <time>2021-04-08T10:19:42Z</time>
      </trkpt>
      <trkpt lat="44.44887" lon="6.57731">
        <ele>2829</ele>
        <time>2021-04-08T10:19:43Z</time>
      </trkpt>
      <trkpt lat="44.44886" lon="6.57733">
        <ele>2829</ele>
        <time>2021-04-08T10:19:44Z</time>
      </trkpt>
      <trkpt lat="44.44886" lon="6.57734">
        <ele>2829</ele>
        <time>2021-04-08T10:19:45Z</time>
      </trkpt>
      <trkpt lat="44.44886" lon="6.57734">
        <ele>2829</ele>
        <time>2021-04-08T10:19:46Z</time>
      </trkpt>
      <trkpt lat="44.44886" lon="6.57734">
        <ele>2828</ele>
        <time>2021-04-08T10:19:47Z</time>
      </trkpt>
      <trkpt lat="44.44886" lon="6.57734">
        <ele>2828</ele>
        <time>2021-04-08T10:19:48Z</time>
      </trkpt>
      <trkpt lat="44.44886" lon="6.57734">
        <ele>2828</ele>
        <time>2021-04-08T10:19:49Z</time>
      </trkpt>
      <trkpt lat="44.44885" lon="6.57733">
        <ele>2827</ele>
        <time>2021-04-08T10:19:50Z</time>
      </trkpt>
      <trkpt lat="44.44885" lon="6.57733">
        <ele>2827</ele>
        <time>2021-04-08T10:19:51Z</time>
      </trkpt>
      <trkpt lat="44.44886" lon="6.57733">
        <ele>2826</ele>
        <time>2021-04-08T10:19:52Z</time>
      </trkpt>
      <trkpt lat="44.44887" lon="6.57733">
        <ele>2826</ele>
        <time>2021-04-08T10:19:53Z</time>
      </trkpt>
      <trkpt lat="44.44888" lon="6.57732">
        <ele>2824</ele>
        <time>2021-04-08T10:19:54Z</time>
      </trkpt>
      <trkpt lat="44.44888" lon="6.57732">
        <ele>2823</ele>
        <time>2021-04-08T10:19:55Z</time>
      </trkpt>
      <trkpt lat="44.44888" lon="6.57732">
        <ele>2822</ele>
        <time>2021-04-08T10:19:56Z</time>
      </trkpt>
      <trkpt lat="44.44889" lon="6.57731">
        <ele>2822</ele>
        <time>2021-04-08T10:19:57Z</time>
      </trkpt>
      <trkpt lat="44.44889" lon="6.5773">
        <ele>2822</ele>
        <time>2021-04-08T10:19:58Z</time>
      </trkpt>
      <trkpt lat="44.44889" lon="6.5773">
        <ele>2822</ele>
        <time>2021-04-08T10:19:59Z</time>
      </trkpt>
      <trkpt lat="44.44889" lon="6.5773">
        <ele>2822</ele>
        <time>2021-04-08T10:20:00Z</time>
      </trkpt>
      <trkpt lat="44.44889" lon="6.57731">
        <ele>2822</ele>
        <time>2021-04-08T10:20:01Z</time>
      </trkpt>
      <trkpt lat="44.44889" lon="6.57731">
        <ele>2821</ele>
        <time>2021-04-08T10:20:02Z</time>
      </trkpt>
      <trkpt lat="44.4489" lon="6.57733">
        <ele>2821</ele>
        <time>2021-04-08T10:20:03Z</time>
      </trkpt>
      <trkpt lat="44.44891" lon="6.57732">
        <ele>2821</ele>
        <time>2021-04-08T10:20:04Z</time>
      </trkpt>
      <trkpt lat="44.44892" lon="6.57731">
        <ele>2821</ele>
        <time>2021-04-08T10:20:05Z</time>
      </trkpt>
      <trkpt lat="44.44892" lon="6.57731">
        <ele>2820</ele>
        <time>2021-04-08T10:20:06Z</time>
      </trkpt>
      <trkpt lat="44.44893" lon="6.57732">
        <ele>2820</ele>
        <time>2021-04-08T10:20:07Z</time>
      </trkpt>
      <trkpt lat="44.44893" lon="6.57732">
        <ele>2820</ele>
        <time>2021-04-08T10:20:08Z</time>
      </trkpt>
      <trkpt lat="44.44893" lon="6.57732">
        <ele>2820</ele>
        <time>2021-04-08T10:20:09Z</time>
      </trkpt>
      <trkpt lat="44.44892" lon="6.57733">
        <ele>2820</ele>
        <time>2021-04-08T10:20:10Z</time>
      </trkpt>
      <trkpt lat="44.44892" lon="6.57733">
        <ele>2820</ele>
        <time>2021-04-08T10:20:11Z</time>
      </trkpt>
      <trkpt lat="44.44892" lon="6.57733">
        <ele>2819</ele>
        <time>2021-04-08T10:20:12Z</time>
      </trkpt>
      <trkpt lat="44.44892" lon="6.57734">
        <ele>2819</ele>
        <time>2021-04-08T10:20:13Z</time>
      </trkpt>
      <trkpt lat="44.44892" lon="6.57734">
        <ele>2819</ele>
        <time>2021-04-08T10:20:14Z</time>
      </trkpt>
      <trkpt lat="44.44893" lon="6.57733">
        <ele>2819</ele>
        <time>2021-04-08T10:20:15Z</time>
      </trkpt>
      <trkpt lat="44.44894" lon="6.57734">
        <ele>2819</ele>
        <time>2021-04-08T10:20:16Z</time>
      </trkpt>
      <trkpt lat="44.44894" lon="6.57734">
        <ele>2819</ele>
        <time>2021-04-08T10:20:17Z</time>
      </trkpt>
      <trkpt lat="44.44894" lon="6.57734">
        <ele>2819</ele>
        <time>2021-04-08T10:20:18Z</time>
      </trkpt>
      <trkpt lat="44.44894" lon="6.57734">
        <ele>2819</ele>
        <time>2021-04-08T10:20:19Z</time>
      </trkpt>
      <trkpt lat="44.44894" lon="6.57734">
        <ele>2819</ele>
        <time>2021-04-08T10:20:20Z</time>
      </trkpt>
      <trkpt lat="44.44894" lon="6.57734">
        <ele>2819</ele>
        <time>2021-04-08T10:20:21Z</time>
      </trkpt>
      <trkpt lat="44.44894" lon="6.57734">
        <ele>2819</ele>
        <time>2021-04-08T10:20:22Z</time>
      </trkpt>
      <trkpt lat="44.44894" lon="6.57734">
        <ele>2819</ele>
        <time>2021-04-08T10:20:23Z</time>
      </trkpt>
      <trkpt lat="44.44894" lon="6.57734">
        <ele>2819</ele>
        <time>2021-04-08T10:20:24Z</time>
      </trkpt>
      <trkpt lat="44.44894" lon="6.57734">
        <ele>2819</ele>
        <time>2021-04-08T10:20:25Z</time>
      </trkpt>
      <trkpt lat="44.44894" lon="6.57734">
        <ele>2819</ele>
        <time>2021-04-08T10:20:26Z</time>
      </trkpt>
      <trkpt lat="44.44894" lon="6.57734">
        <ele>2819</ele>
        <time>2021-04-08T10:20:27Z</time>
      </trkpt>
      <trkpt lat="44.44894" lon="6.57734">
        <ele>2819</ele>
        <time>2021-04-08T10:20:28Z</time>
      </trkpt>
      <trkpt lat="44.44894" lon="6.57734">
        <ele>2819</ele>
        <time>2021-04-08T10:20:29Z</time>
      </trkpt>
      <trkpt lat="44.44894" lon="6.57734">
        <ele>2819</ele>
        <time>2021-04-08T10:20:30Z</time>
      </trkpt>
      <trkpt lat="44.44894" lon="6.57734">
        <ele>2819</ele>
        <time>2021-04-08T10:20:31Z</time>
      </trkpt>
      <trkpt lat="44.44898" lon="6.57735">
        <ele>2817</ele>
        <time>2021-04-08T10:20:32Z</time>
      </trkpt>
      <trkpt lat="44.44898" lon="6.57735">
        <ele>2817</ele>
        <time>2021-04-08T10:20:33Z</time>
      </trkpt>
      <trkpt lat="44.44898" lon="6.57736">
        <ele>2817</ele>
        <time>2021-04-08T10:20:34Z</time>
      </trkpt>
      <trkpt lat="44.44899" lon="6.57736">
        <ele>2817</ele>
        <time>2021-04-08T10:20:35Z</time>
      </trkpt>
      <trkpt lat="44.449" lon="6.57736">
        <ele>2817</ele>
        <time>2021-04-08T10:20:36Z</time>
      </trkpt>
      <trkpt lat="44.449" lon="6.57736">
        <ele>2816</ele>
        <time>2021-04-08T10:20:37Z</time>
      </trkpt>
      <trkpt lat="44.449" lon="6.57735">
        <ele>2816</ele>
        <time>2021-04-08T10:20:38Z</time>
      </trkpt>
      <trkpt lat="44.449" lon="6.57735">
        <ele>2816</ele>
        <time>2021-04-08T10:20:39Z</time>
      </trkpt>
      <trkpt lat="44.449" lon="6.57734">
        <ele>2816</ele>
        <time>2021-04-08T10:20:40Z</time>
      </trkpt>
      <trkpt lat="44.449" lon="6.57734">
        <ele>2816</ele>
        <time>2021-04-08T10:20:41Z</time>
      </trkpt>
      <trkpt lat="44.449" lon="6.57733">
        <ele>2816</ele>
        <time>2021-04-08T10:20:42Z</time>
      </trkpt>
      <trkpt lat="44.44899" lon="6.57734">
        <ele>2816</ele>
        <time>2021-04-08T10:20:43Z</time>
      </trkpt>
      <trkpt lat="44.44899" lon="6.57734">
        <ele>2816</ele>
        <time>2021-04-08T10:20:44Z</time>
      </trkpt>
      <trkpt lat="44.44899" lon="6.57734">
        <ele>2816</ele>
        <time>2021-04-08T10:20:45Z</time>
      </trkpt>
      <trkpt lat="44.44899" lon="6.57734">
        <ele>2816</ele>
        <time>2021-04-08T10:20:46Z</time>
      </trkpt>
      <trkpt lat="44.44899" lon="6.57734">
        <ele>2815</ele>
        <time>2021-04-08T10:20:47Z</time>
      </trkpt>
      <trkpt lat="44.449" lon="6.57734">
        <ele>2815</ele>
        <time>2021-04-08T10:20:48Z</time>
      </trkpt>
      <trkpt lat="44.449" lon="6.57734">
        <ele>2815</ele>
        <time>2021-04-08T10:20:49Z</time>
      </trkpt>
      <trkpt lat="44.449" lon="6.57734">
        <ele>2815</ele>
        <time>2021-04-08T10:20:50Z</time>
      </trkpt>
      <trkpt lat="44.449" lon="6.57734">
        <ele>2815</ele>
        <time>2021-04-08T10:20:51Z</time>
      </trkpt>
      <trkpt lat="44.449" lon="6.57734">
        <ele>2815</ele>
        <time>2021-04-08T10:20:52Z</time>
      </trkpt>
      <trkpt lat="44.449" lon="6.57734">
        <ele>2815</ele>
        <time>2021-04-08T10:20:53Z</time>
      </trkpt>
      <trkpt lat="44.449" lon="6.57734">
        <ele>2815</ele>
        <time>2021-04-08T10:20:54Z</time>
      </trkpt>
      <trkpt lat="44.449" lon="6.57734">
        <ele>2815</ele>
        <time>2021-04-08T10:20:55Z</time>
      </trkpt>
      <trkpt lat="44.449" lon="6.57734">
        <ele>2815</ele>
        <time>2021-04-08T10:20:56Z</time>
      </trkpt>
      <trkpt lat="44.449" lon="6.57734">
        <ele>2815</ele>
        <time>2021-04-08T10:20:57Z</time>
      </trkpt>
      <trkpt lat="44.449" lon="6.57734">
        <ele>2815</ele>
        <time>2021-04-08T10:20:58Z</time>
      </trkpt>
      <trkpt lat="44.449" lon="6.57734">
        <ele>2815</ele>
        <time>2021-04-08T10:20:59Z</time>
      </trkpt>
      <trkpt lat="44.449" lon="6.57734">
        <ele>2815</ele>
        <time>2021-04-08T10:21:00Z</time>
      </trkpt>
      <trkpt lat="44.44901" lon="6.57734">
        <ele>2814</ele>
        <time>2021-04-08T10:21:01Z</time>
      </trkpt>
      <trkpt lat="44.44901" lon="6.57734">
        <ele>2814</ele>
        <time>2021-04-08T10:21:02Z</time>
      </trkpt>
      <trkpt lat="44.44901" lon="6.57733">
        <ele>2814</ele>
        <time>2021-04-08T10:21:03Z</time>
      </trkpt>
      <trkpt lat="44.44901" lon="6.57732">
        <ele>2812</ele>
        <time>2021-04-08T10:21:04Z</time>
      </trkpt>
      <trkpt lat="44.44901" lon="6.5773">
        <ele>2812</ele>
        <time>2021-04-08T10:21:05Z</time>
      </trkpt>
      <trkpt lat="44.44902" lon="6.57731">
        <ele>2811</ele>
        <time>2021-04-08T10:21:06Z</time>
      </trkpt>
      <trkpt lat="44.44903" lon="6.5773">
        <ele>2811</ele>
        <time>2021-04-08T10:21:07Z</time>
      </trkpt>
      <trkpt lat="44.44903" lon="6.5773">
        <ele>2811</ele>
        <time>2021-04-08T10:21:08Z</time>
      </trkpt>
      <trkpt lat="44.44904" lon="6.57729">
        <ele>2811</ele>
        <time>2021-04-08T10:21:09Z</time>
      </trkpt>
      <trkpt lat="44.44905" lon="6.57729">
        <ele>2810</ele>
        <time>2021-04-08T10:21:10Z</time>
      </trkpt>
      <trkpt lat="44.44905" lon="6.57729">
        <ele>2810</ele>
        <time>2021-04-08T10:21:11Z</time>
      </trkpt>
      <trkpt lat="44.44905" lon="6.57729">
        <ele>2810</ele>
        <time>2021-04-08T10:21:12Z</time>
      </trkpt>
      <trkpt lat="44.44905" lon="6.57729">
        <ele>2809</ele>
        <time>2021-04-08T10:21:13Z</time>
      </trkpt>
      <trkpt lat="44.44905" lon="6.57729">
        <ele>2809</ele>
        <time>2021-04-08T10:21:14Z</time>
      </trkpt>
      <trkpt lat="44.44906" lon="6.57728">
        <ele>2809</ele>
        <time>2021-04-08T10:21:15Z</time>
      </trkpt>
      <trkpt lat="44.44907" lon="6.57728">
        <ele>2809</ele>
        <time>2021-04-08T10:21:16Z</time>
      </trkpt>
      <trkpt lat="44.4491" lon="6.57728">
        <ele>2808</ele>
        <time>2021-04-08T10:21:17Z</time>
      </trkpt>
      <trkpt lat="44.44913" lon="6.57727">
        <ele>2808</ele>
        <time>2021-04-08T10:21:18Z</time>
      </trkpt>
      <trkpt lat="44.44914" lon="6.57727">
        <ele>2808</ele>
        <time>2021-04-08T10:21:19Z</time>
      </trkpt>
      <trkpt lat="44.44914" lon="6.57726">
        <ele>2808</ele>
        <time>2021-04-08T10:21:20Z</time>
      </trkpt>
      <trkpt lat="44.44915" lon="6.57726">
        <ele>2808</ele>
        <time>2021-04-08T10:21:21Z</time>
      </trkpt>
      <trkpt lat="44.44916" lon="6.57726">
        <ele>2807</ele>
        <time>2021-04-08T10:21:22Z</time>
      </trkpt>
      <trkpt lat="44.44916" lon="6.57726">
        <ele>2807</ele>
        <time>2021-04-08T10:21:23Z</time>
      </trkpt>
      <trkpt lat="44.44916" lon="6.57726">
        <ele>2807</ele>
        <time>2021-04-08T10:21:24Z</time>
      </trkpt>
      <trkpt lat="44.44915" lon="6.57725">
        <ele>2806</ele>
        <time>2021-04-08T10:21:25Z</time>
      </trkpt>
      <trkpt lat="44.44915" lon="6.57723">
        <ele>2806</ele>
        <time>2021-04-08T10:21:26Z</time>
      </trkpt>
      <trkpt lat="44.44913" lon="6.5772">
        <ele>2804</ele>
        <time>2021-04-08T10:21:27Z</time>
      </trkpt>
      <trkpt lat="44.44911" lon="6.57718">
        <ele>2803</ele>
        <time>2021-04-08T10:21:28Z</time>
      </trkpt>
      <trkpt lat="44.4491" lon="6.57717">
        <ele>2802</ele>
        <time>2021-04-08T10:21:29Z</time>
      </trkpt>
      <trkpt lat="44.4491" lon="6.57717">
        <ele>2801</ele>
        <time>2021-04-08T10:21:30Z</time>
      </trkpt>
      <trkpt lat="44.4491" lon="6.57717">
        <ele>2801</ele>
        <time>2021-04-08T10:21:31Z</time>
      </trkpt>
      <trkpt lat="44.4491" lon="6.57717">
        <ele>2801</ele>
        <time>2021-04-08T10:21:32Z</time>
      </trkpt>
      <trkpt lat="44.4491" lon="6.57717">
        <ele>2800</ele>
        <time>2021-04-08T10:21:33Z</time>
      </trkpt>
      <trkpt lat="44.4491" lon="6.57717">
        <ele>2800</ele>
        <time>2021-04-08T10:21:34Z</time>
      </trkpt>
      <trkpt lat="44.4491" lon="6.57717">
        <ele>2800</ele>
        <time>2021-04-08T10:21:35Z</time>
      </trkpt>
      <trkpt lat="44.4491" lon="6.57716">
        <ele>2800</ele>
        <time>2021-04-08T10:21:36Z</time>
      </trkpt>
      <trkpt lat="44.44911" lon="6.57716">
        <ele>2800</ele>
        <time>2021-04-08T10:21:37Z</time>
      </trkpt>
      <trkpt lat="44.4491" lon="6.57716">
        <ele>2800</ele>
        <time>2021-04-08T10:21:38Z</time>
      </trkpt>
      <trkpt lat="44.4491" lon="6.57716">
        <ele>2800</ele>
        <time>2021-04-08T10:21:39Z</time>
      </trkpt>
      <trkpt lat="44.4491" lon="6.57716">
        <ele>2800</ele>
        <time>2021-04-08T10:21:40Z</time>
      </trkpt>
      <trkpt lat="44.4491" lon="6.57716">
        <ele>2800</ele>
        <time>2021-04-08T10:21:41Z</time>
      </trkpt>
      <trkpt lat="44.4491" lon="6.57716">
        <ele>2799</ele>
        <time>2021-04-08T10:21:42Z</time>
      </trkpt>
      <trkpt lat="44.44911" lon="6.57716">
        <ele>2799</ele>
        <time>2021-04-08T10:21:43Z</time>
      </trkpt>
      <trkpt lat="44.44912" lon="6.57716">
        <ele>2799</ele>
        <time>2021-04-08T10:21:44Z</time>
      </trkpt>
      <trkpt lat="44.44914" lon="6.57717">
        <ele>2799</ele>
        <time>2021-04-08T10:21:45Z</time>
      </trkpt>
      <trkpt lat="44.44916" lon="6.57718">
        <ele>2799</ele>
        <time>2021-04-08T10:21:46Z</time>
      </trkpt>
      <trkpt lat="44.44917" lon="6.57719">
        <ele>2798</ele>
        <time>2021-04-08T10:21:47Z</time>
      </trkpt>
      <trkpt lat="44.44919" lon="6.57719">
        <ele>2798</ele>
        <time>2021-04-08T10:21:48Z</time>
      </trkpt>
      <trkpt lat="44.4492" lon="6.57719">
        <ele>2798</ele>
        <time>2021-04-08T10:21:49Z</time>
      </trkpt>
      <trkpt lat="44.44922" lon="6.5772">
        <ele>2797</ele>
        <time>2021-04-08T10:21:50Z</time>
      </trkpt>
      <trkpt lat="44.44922" lon="6.57721">
        <ele>2797</ele>
        <time>2021-04-08T10:21:51Z</time>
      </trkpt>
      <trkpt lat="44.44922" lon="6.57722">
        <ele>2796</ele>
        <time>2021-04-08T10:21:52Z</time>
      </trkpt>
      <trkpt lat="44.44922" lon="6.57722">
        <ele>2796</ele>
        <time>2021-04-08T10:21:53Z</time>
      </trkpt>
      <trkpt lat="44.44922" lon="6.57722">
        <ele>2796</ele>
        <time>2021-04-08T10:21:54Z</time>
      </trkpt>
      <trkpt lat="44.44923" lon="6.57722">
        <ele>2796</ele>
        <time>2021-04-08T10:21:55Z</time>
      </trkpt>
      <trkpt lat="44.44922" lon="6.57723">
        <ele>2796</ele>
        <time>2021-04-08T10:21:56Z</time>
      </trkpt>
      <trkpt lat="44.44923" lon="6.57723">
        <ele>2796</ele>
        <time>2021-04-08T10:21:57Z</time>
      </trkpt>
      <trkpt lat="44.44923" lon="6.57723">
        <ele>2795</ele>
        <time>2021-04-08T10:21:58Z</time>
      </trkpt>
      <trkpt lat="44.44923" lon="6.57723">
        <ele>2795</ele>
        <time>2021-04-08T10:21:59Z</time>
      </trkpt>
      <trkpt lat="44.44922" lon="6.57723">
        <ele>2795</ele>
        <time>2021-04-08T10:22:00Z</time>
      </trkpt>
      <trkpt lat="44.44923" lon="6.57723">
        <ele>2795</ele>
        <time>2021-04-08T10:22:01Z</time>
      </trkpt>
      <trkpt lat="44.44923" lon="6.57723">
        <ele>2795</ele>
        <time>2021-04-08T10:22:02Z</time>
      </trkpt>
      <trkpt lat="44.44923" lon="6.57723">
        <ele>2795</ele>
        <time>2021-04-08T10:22:03Z</time>
      </trkpt>
      <trkpt lat="44.44923" lon="6.57723">
        <ele>2795</ele>
        <time>2021-04-08T10:22:04Z</time>
      </trkpt>
      <trkpt lat="44.44923" lon="6.57723">
        <ele>2795</ele>
        <time>2021-04-08T10:22:05Z</time>
      </trkpt>
      <trkpt lat="44.44923" lon="6.57723">
        <ele>2795</ele>
        <time>2021-04-08T10:22:06Z</time>
      </trkpt>
      <trkpt lat="44.44923" lon="6.57723">
        <ele>2795</ele>
        <time>2021-04-08T10:22:07Z</time>
      </trkpt>
      <trkpt lat="44.44925" lon="6.57724">
        <ele>2795</ele>
        <time>2021-04-08T10:22:08Z</time>
      </trkpt>
      <trkpt lat="44.44928" lon="6.57724">
        <ele>2795</ele>
        <time>2021-04-08T10:22:09Z</time>
      </trkpt>
      <trkpt lat="44.44928" lon="6.57721">
        <ele>2795</ele>
        <time>2021-04-08T10:22:10Z</time>
      </trkpt>
      <trkpt lat="44.44929" lon="6.57718">
        <ele>2794</ele>
        <time>2021-04-08T10:22:11Z</time>
      </trkpt>
      <trkpt lat="44.44931" lon="6.57717">
        <ele>2793</ele>
        <time>2021-04-08T10:22:12Z</time>
      </trkpt>
      <trkpt lat="44.44933" lon="6.57715">
        <ele>2791</ele>
        <time>2021-04-08T10:22:13Z</time>
      </trkpt>
      <trkpt lat="44.44933" lon="6.57711">
        <ele>2790</ele>
        <time>2021-04-08T10:22:14Z</time>
      </trkpt>
      <trkpt lat="44.44933" lon="6.57709">
        <ele>2789</ele>
        <time>2021-04-08T10:22:15Z</time>
      </trkpt>
      <trkpt lat="44.44934" lon="6.57707">
        <ele>2788</ele>
        <time>2021-04-08T10:22:16Z</time>
      </trkpt>
      <trkpt lat="44.44936" lon="6.57707">
        <ele>2787</ele>
        <time>2021-04-08T10:22:17Z</time>
      </trkpt>
      <trkpt lat="44.44938" lon="6.57709">
        <ele>2784</ele>
        <time>2021-04-08T10:22:18Z</time>
      </trkpt>
      <trkpt lat="44.44939" lon="6.57708">
        <ele>2783</ele>
        <time>2021-04-08T10:22:19Z</time>
      </trkpt>
      <trkpt lat="44.4494" lon="6.57706">
        <ele>2781</ele>
        <time>2021-04-08T10:22:20Z</time>
      </trkpt>
      <trkpt lat="44.4494" lon="6.57704">
        <ele>2778</ele>
        <time>2021-04-08T10:22:21Z</time>
      </trkpt>
      <trkpt lat="44.44941" lon="6.57702">
        <ele>2777</ele>
        <time>2021-04-08T10:22:22Z</time>
      </trkpt>
      <trkpt lat="44.44943" lon="6.57702">
        <ele>2774</ele>
        <time>2021-04-08T10:22:23Z</time>
      </trkpt>
      <trkpt lat="44.44947" lon="6.57705">
        <ele>2771</ele>
        <time>2021-04-08T10:22:24Z</time>
      </trkpt>
      <trkpt lat="44.4495" lon="6.57708">
        <ele>2769</ele>
        <time>2021-04-08T10:22:25Z</time>
      </trkpt>
      <trkpt lat="44.44953" lon="6.5771">
        <ele>2768</ele>
        <time>2021-04-08T10:22:26Z</time>
      </trkpt>
      <trkpt lat="44.44955" lon="6.57709">
        <ele>2766</ele>
        <time>2021-04-08T10:22:27Z</time>
      </trkpt>
      <trkpt lat="44.44955" lon="6.57704">
        <ele>2765</ele>
        <time>2021-04-08T10:22:28Z</time>
      </trkpt>
      <trkpt lat="44.44956" lon="6.57699">
        <ele>2762</ele>
        <time>2021-04-08T10:22:29Z</time>
      </trkpt>
      <trkpt lat="44.44961" lon="6.577">
        <ele>2759</ele>
        <time>2021-04-08T10:22:30Z</time>
      </trkpt>
      <trkpt lat="44.44965" lon="6.57702">
        <ele>2757</ele>
        <time>2021-04-08T10:22:31Z</time>
      </trkpt>
      <trkpt lat="44.44967" lon="6.57701">
        <ele>2756</ele>
        <time>2021-04-08T10:22:32Z</time>
      </trkpt>
      <trkpt lat="44.44969" lon="6.57696">
        <ele>2755</ele>
        <time>2021-04-08T10:22:33Z</time>
      </trkpt>
      <trkpt lat="44.44968" lon="6.57691">
        <ele>2754</ele>
        <time>2021-04-08T10:22:34Z</time>
      </trkpt>
      <trkpt lat="44.44967" lon="6.57686">
        <ele>2751</ele>
        <time>2021-04-08T10:22:35Z</time>
      </trkpt>
      <trkpt lat="44.4497" lon="6.57682">
        <ele>2750</ele>
        <time>2021-04-08T10:22:36Z</time>
      </trkpt>
      <trkpt lat="44.44975" lon="6.57682">
        <ele>2747</ele>
        <time>2021-04-08T10:22:37Z</time>
      </trkpt>
      <trkpt lat="44.4498" lon="6.57684">
        <ele>2745</ele>
        <time>2021-04-08T10:22:38Z</time>
      </trkpt>
      <trkpt lat="44.44983" lon="6.57682">
        <ele>2743</ele>
        <time>2021-04-08T10:22:39Z</time>
      </trkpt>
      <trkpt lat="44.44985" lon="6.57677">
        <ele>2739</ele>
        <time>2021-04-08T10:22:40Z</time>
      </trkpt>
      <trkpt lat="44.44986" lon="6.57672">
        <ele>2737</ele>
        <time>2021-04-08T10:22:41Z</time>
      </trkpt>
      <trkpt lat="44.44989" lon="6.57667">
        <ele>2735</ele>
        <time>2021-04-08T10:22:42Z</time>
      </trkpt>
      <trkpt lat="44.44995" lon="6.57666">
        <ele>2732</ele>
        <time>2021-04-08T10:22:43Z</time>
      </trkpt>
      <trkpt lat="44.44998" lon="6.57663">
        <ele>2730</ele>
        <time>2021-04-08T10:22:44Z</time>
      </trkpt>
      <trkpt lat="44.45" lon="6.57657">
        <ele>2725</ele>
        <time>2021-04-08T10:22:45Z</time>
      </trkpt>
      <trkpt lat="44.45" lon="6.57647">
        <ele>2723</ele>
        <time>2021-04-08T10:22:46Z</time>
      </trkpt>
      <trkpt lat="44.45001" lon="6.57638">
        <ele>2719</ele>
        <time>2021-04-08T10:22:47Z</time>
      </trkpt>
      <trkpt lat="44.45006" lon="6.57638">
        <ele>2716</ele>
        <time>2021-04-08T10:22:48Z</time>
      </trkpt>
      <trkpt lat="44.45012" lon="6.5764">
        <ele>2713</ele>
        <time>2021-04-08T10:22:49Z</time>
      </trkpt>
      <trkpt lat="44.45016" lon="6.57637">
        <ele>2711</ele>
        <time>2021-04-08T10:22:50Z</time>
      </trkpt>
      <trkpt lat="44.4502" lon="6.57631">
        <ele>2708</ele>
        <time>2021-04-08T10:22:51Z</time>
      </trkpt>
      <trkpt lat="44.45021" lon="6.57623">
        <ele>2705</ele>
        <time>2021-04-08T10:22:52Z</time>
      </trkpt>
      <trkpt lat="44.45021" lon="6.57615">
        <ele>2703</ele>
        <time>2021-04-08T10:22:53Z</time>
      </trkpt>
      <trkpt lat="44.45024" lon="6.57611">
        <ele>2699</ele>
        <time>2021-04-08T10:22:54Z</time>
      </trkpt>
      <trkpt lat="44.45028" lon="6.57609">
        <ele>2697</ele>
        <time>2021-04-08T10:22:55Z</time>
      </trkpt>
      <trkpt lat="44.45032" lon="6.57608">
        <ele>2694</ele>
        <time>2021-04-08T10:22:56Z</time>
      </trkpt>
      <trkpt lat="44.45036" lon="6.57604">
        <ele>2691</ele>
        <time>2021-04-08T10:22:57Z</time>
      </trkpt>
      <trkpt lat="44.45037" lon="6.57596">
        <ele>2687</ele>
        <time>2021-04-08T10:22:58Z</time>
      </trkpt>
      <trkpt lat="44.45039" lon="6.57587">
        <ele>2686</ele>
        <time>2021-04-08T10:22:59Z</time>
      </trkpt>
      <trkpt lat="44.45044" lon="6.57581">
        <ele>2683</ele>
        <time>2021-04-08T10:23:00Z</time>
      </trkpt>
      <trkpt lat="44.45048" lon="6.57575">
        <ele>2680</ele>
        <time>2021-04-08T10:23:01Z</time>
      </trkpt>
      <trkpt lat="44.45051" lon="6.57567">
        <ele>2677</ele>
        <time>2021-04-08T10:23:02Z</time>
      </trkpt>
      <trkpt lat="44.45057" lon="6.57559">
        <ele>2675</ele>
        <time>2021-04-08T10:23:03Z</time>
      </trkpt>
      <trkpt lat="44.45064" lon="6.57557">
        <ele>2672</ele>
        <time>2021-04-08T10:23:04Z</time>
      </trkpt>
      <trkpt lat="44.45071" lon="6.57554">
        <ele>2669</ele>
        <time>2021-04-08T10:23:05Z</time>
      </trkpt>
      <trkpt lat="44.45075" lon="6.57546">
        <ele>2666</ele>
        <time>2021-04-08T10:23:06Z</time>
      </trkpt>
      <trkpt lat="44.45079" lon="6.57538">
        <ele>2662</ele>
        <time>2021-04-08T10:23:07Z</time>
      </trkpt>
      <trkpt lat="44.45083" lon="6.57536">
        <ele>2660</ele>
        <time>2021-04-08T10:23:08Z</time>
      </trkpt>
      <trkpt lat="44.45086" lon="6.57538">
        <ele>2657</ele>
        <time>2021-04-08T10:23:09Z</time>
      </trkpt>
      <trkpt lat="44.45087" lon="6.57541">
        <ele>2655</ele>
        <time>2021-04-08T10:23:10Z</time>
      </trkpt>
      <trkpt lat="44.45088" lon="6.57543">
        <ele>2652</ele>
        <time>2021-04-08T10:23:11Z</time>
      </trkpt>
      <trkpt lat="44.45089" lon="6.57545">
        <ele>2650</ele>
        <time>2021-04-08T10:23:12Z</time>
      </trkpt>
      <trkpt lat="44.45089" lon="6.57544">
        <ele>2649</ele>
        <time>2021-04-08T10:23:13Z</time>
      </trkpt>
      <trkpt lat="44.45089" lon="6.57544">
        <ele>2649</ele>
        <time>2021-04-08T10:23:14Z</time>
      </trkpt>
      <trkpt lat="44.45089" lon="6.57544">
        <ele>2649</ele>
        <time>2021-04-08T10:23:15Z</time>
      </trkpt>
      <trkpt lat="44.45089" lon="6.57544">
        <ele>2649</ele>
        <time>2021-04-08T10:23:16Z</time>
      </trkpt>
      <trkpt lat="44.45089" lon="6.57544">
        <ele>2648</ele>
        <time>2021-04-08T10:23:17Z</time>
      </trkpt>
      <trkpt lat="44.45089" lon="6.57544">
        <ele>2648</ele>
        <time>2021-04-08T10:23:18Z</time>
      </trkpt>
      <trkpt lat="44.45089" lon="6.57544">
        <ele>2648</ele>
        <time>2021-04-08T10:23:19Z</time>
      </trkpt>
      <trkpt lat="44.45089" lon="6.57544">
        <ele>2648</ele>
        <time>2021-04-08T10:23:20Z</time>
      </trkpt>
      <trkpt lat="44.45089" lon="6.57544">
        <ele>2648</ele>
        <time>2021-04-08T10:23:21Z</time>
      </trkpt>
      <trkpt lat="44.45089" lon="6.57544">
        <ele>2648</ele>
        <time>2021-04-08T10:23:22Z</time>
      </trkpt>
      <trkpt lat="44.45085" lon="6.57541">
        <ele>2646</ele>
        <time>2021-04-08T10:23:23Z</time>
      </trkpt>
      <trkpt lat="44.45083" lon="6.57539">
        <ele>2644</ele>
        <time>2021-04-08T10:23:24Z</time>
      </trkpt>
      <trkpt lat="44.45082" lon="6.57538">
        <ele>2641</ele>
        <time>2021-04-08T10:23:25Z</time>
      </trkpt>
      <trkpt lat="44.45083" lon="6.57538">
        <ele>2641</ele>
        <time>2021-04-08T10:23:26Z</time>
      </trkpt>
      <trkpt lat="44.45083" lon="6.57539">
        <ele>2640</ele>
        <time>2021-04-08T10:23:27Z</time>
      </trkpt>
      <trkpt lat="44.45083" lon="6.57539">
        <ele>2640</ele>
        <time>2021-04-08T10:23:28Z</time>
      </trkpt>
      <trkpt lat="44.45083" lon="6.57539">
        <ele>2640</ele>
        <time>2021-04-08T10:23:29Z</time>
      </trkpt>
      <trkpt lat="44.45083" lon="6.57539">
        <ele>2640</ele>
        <time>2021-04-08T10:23:30Z</time>
      </trkpt>
      <trkpt lat="44.45083" lon="6.57539">
        <ele>2640</ele>
        <time>2021-04-08T10:23:31Z</time>
      </trkpt>
      <trkpt lat="44.45083" lon="6.57539">
        <ele>2639</ele>
        <time>2021-04-08T10:23:32Z</time>
      </trkpt>
      <trkpt lat="44.45083" lon="6.57539">
        <ele>2639</ele>
        <time>2021-04-08T10:23:33Z</time>
      </trkpt>
      <trkpt lat="44.45083" lon="6.57539">
        <ele>2639</ele>
        <time>2021-04-08T10:23:34Z</time>
      </trkpt>
      <trkpt lat="44.45083" lon="6.57539">
        <ele>2639</ele>
        <time>2021-04-08T10:23:35Z</time>
      </trkpt>
      <trkpt lat="44.45083" lon="6.57539">
        <ele>2639</ele>
        <time>2021-04-08T10:23:36Z</time>
      </trkpt>
      <trkpt lat="44.45083" lon="6.57539">
        <ele>2639</ele>
        <time>2021-04-08T10:23:37Z</time>
      </trkpt>
      <trkpt lat="44.45083" lon="6.57539">
        <ele>2639</ele>
        <time>2021-04-08T10:23:38Z</time>
      </trkpt>
      <trkpt lat="44.45083" lon="6.57539">
        <ele>2639</ele>
        <time>2021-04-08T10:23:39Z</time>
      </trkpt>
      <trkpt lat="44.45083" lon="6.57539">
        <ele>2639</ele>
        <time>2021-04-08T10:23:40Z</time>
      </trkpt>
      <trkpt lat="44.45083" lon="6.57539">
        <ele>2639</ele>
        <time>2021-04-08T10:23:41Z</time>
      </trkpt>
      <trkpt lat="44.45083" lon="6.57539">
        <ele>2639</ele>
        <time>2021-04-08T10:23:42Z</time>
      </trkpt>
      <trkpt lat="44.45083" lon="6.57539">
        <ele>2639</ele>
        <time>2021-04-08T10:23:43Z</time>
      </trkpt>
      <trkpt lat="44.45083" lon="6.57539">
        <ele>2639</ele>
        <time>2021-04-08T10:23:44Z</time>
      </trkpt>
      <trkpt lat="44.45083" lon="6.57539">
        <ele>2639</ele>
        <time>2021-04-08T10:23:45Z</time>
      </trkpt>
      <trkpt lat="44.45083" lon="6.57539">
        <ele>2639</ele>
        <time>2021-04-08T10:23:46Z</time>
      </trkpt>
      <trkpt lat="44.45083" lon="6.57539">
        <ele>2639</ele>
        <time>2021-04-08T10:23:47Z</time>
      </trkpt>
      <trkpt lat="44.45083" lon="6.57539">
        <ele>2639</ele>
        <time>2021-04-08T10:23:48Z</time>
      </trkpt>
      <trkpt lat="44.45083" lon="6.57539">
        <ele>2639</ele>
        <time>2021-04-08T10:23:49Z</time>
      </trkpt>
      <trkpt lat="44.45083" lon="6.57539">
        <ele>2639</ele>
        <time>2021-04-08T10:23:50Z</time>
      </trkpt>
      <trkpt lat="44.45083" lon="6.57539">
        <ele>2639</ele>
        <time>2021-04-08T10:23:51Z</time>
      </trkpt>
      <trkpt lat="44.45083" lon="6.57539">
        <ele>2639</ele>
        <time>2021-04-08T10:23:52Z</time>
      </trkpt>
      <trkpt lat="44.45083" lon="6.57539">
        <ele>2639</ele>
        <time>2021-04-08T10:23:53Z</time>
      </trkpt>
      <trkpt lat="44.45087" lon="6.57511">
        <ele>2639</ele>
        <time>2021-04-08T10:23:54Z</time>
      </trkpt>
      <trkpt lat="44.45076" lon="6.57489">
        <ele>2639</ele>
        <time>2021-04-08T10:23:55Z</time>
      </trkpt>
      <trkpt lat="44.45073" lon="6.57486">
        <ele>2639</ele>
        <time>2021-04-08T10:23:56Z</time>
      </trkpt>
      <trkpt lat="44.45076" lon="6.57497">
        <ele>2639</ele>
        <time>2021-04-08T10:23:57Z</time>
      </trkpt>
      <trkpt lat="44.4508" lon="6.57514">
        <ele>2638</ele>
        <time>2021-04-08T10:23:58Z</time>
      </trkpt>
      <trkpt lat="44.45082" lon="6.57521">
        <ele>2636</ele>
        <time>2021-04-08T10:23:59Z</time>
      </trkpt>
      <trkpt lat="44.45083" lon="6.5753">
        <ele>2633</ele>
        <time>2021-04-08T10:24:00Z</time>
      </trkpt>
      <trkpt lat="44.45084" lon="6.57536">
        <ele>2631</ele>
        <time>2021-04-08T10:24:01Z</time>
      </trkpt>
      <trkpt lat="44.45083" lon="6.57537">
        <ele>2628</ele>
        <time>2021-04-08T10:24:02Z</time>
      </trkpt>
      <trkpt lat="44.45083" lon="6.57538">
        <ele>2627</ele>
        <time>2021-04-08T10:24:03Z</time>
      </trkpt>
      <trkpt lat="44.45083" lon="6.57538">
        <ele>2626</ele>
        <time>2021-04-08T10:24:04Z</time>
      </trkpt>
      <trkpt lat="44.45083" lon="6.57538">
        <ele>2626</ele>
        <time>2021-04-08T10:24:05Z</time>
      </trkpt>
      <trkpt lat="44.45083" lon="6.57538">
        <ele>2625</ele>
        <time>2021-04-08T10:24:06Z</time>
      </trkpt>
      <trkpt lat="44.45083" lon="6.57538">
        <ele>2625</ele>
        <time>2021-04-08T10:24:07Z</time>
      </trkpt>
      <trkpt lat="44.45083" lon="6.57538">
        <ele>2625</ele>
        <time>2021-04-08T10:24:08Z</time>
      </trkpt>
      <trkpt lat="44.45083" lon="6.57538">
        <ele>2625</ele>
        <time>2021-04-08T10:24:09Z</time>
      </trkpt>
      <trkpt lat="44.45083" lon="6.57538">
        <ele>2625</ele>
        <time>2021-04-08T10:24:10Z</time>
      </trkpt>
      <trkpt lat="44.45083" lon="6.57538">
        <ele>2625</ele>
        <time>2021-04-08T10:24:11Z</time>
      </trkpt>
      <trkpt lat="44.45083" lon="6.57538">
        <ele>2625</ele>
        <time>2021-04-08T10:24:12Z</time>
      </trkpt>
      <trkpt lat="44.45083" lon="6.57538">
        <ele>2625</ele>
        <time>2021-04-08T10:24:13Z</time>
      </trkpt>
      <trkpt lat="44.45083" lon="6.57538">
        <ele>2625</ele>
        <time>2021-04-08T10:24:14Z</time>
      </trkpt>
      <trkpt lat="44.45083" lon="6.57538">
        <ele>2625</ele>
        <time>2021-04-08T10:24:15Z</time>
      </trkpt>
      <trkpt lat="44.45083" lon="6.57538">
        <ele>2625</ele>
        <time>2021-04-08T10:24:16Z</time>
      </trkpt>
      <trkpt lat="44.45083" lon="6.57538">
        <ele>2625</ele>
        <time>2021-04-08T10:24:17Z</time>
      </trkpt>
      <trkpt lat="44.45083" lon="6.57538">
        <ele>2625</ele>
        <time>2021-04-08T10:24:18Z</time>
      </trkpt>
      <trkpt lat="44.45083" lon="6.57538">
        <ele>2625</ele>
        <time>2021-04-08T10:24:19Z</time>
      </trkpt>
      <trkpt lat="44.45083" lon="6.57538">
        <ele>2625</ele>
        <time>2021-04-08T10:24:20Z</time>
      </trkpt>
      <trkpt lat="44.45083" lon="6.57538">
        <ele>2625</ele>
        <time>2021-04-08T10:24:21Z</time>
      </trkpt>
      <trkpt lat="44.45083" lon="6.57538">
        <ele>2625</ele>
        <time>2021-04-08T10:24:22Z</time>
      </trkpt>
      <trkpt lat="44.45083" lon="6.57538">
        <ele>2625</ele>
        <time>2021-04-08T10:24:23Z</time>
      </trkpt>
      <trkpt lat="44.45083" lon="6.57538">
        <ele>2625</ele>
        <time>2021-04-08T10:24:24Z</time>
      </trkpt>
      <trkpt lat="44.45083" lon="6.57538">
        <ele>2625</ele>
        <time>2021-04-08T10:24:25Z</time>
      </trkpt>
      <trkpt lat="44.45083" lon="6.57538">
        <ele>2625</ele>
        <time>2021-04-08T10:24:26Z</time>
      </trkpt>
      <trkpt lat="44.45083" lon="6.57538">
        <ele>2625</ele>
        <time>2021-04-08T10:24:27Z</time>
      </trkpt>
      <trkpt lat="44.45083" lon="6.57538">
        <ele>2625</ele>
        <time>2021-04-08T10:24:28Z</time>
      </trkpt>
      <trkpt lat="44.45083" lon="6.57538">
        <ele>2625</ele>
        <time>2021-04-08T10:24:29Z</time>
      </trkpt>
      <trkpt lat="44.45083" lon="6.57538">
        <ele>2625</ele>
        <time>2021-04-08T10:24:30Z</time>
      </trkpt>
      <trkpt lat="44.45083" lon="6.57538">
        <ele>2625</ele>
        <time>2021-04-08T10:24:31Z</time>
      </trkpt>
      <trkpt lat="44.45083" lon="6.57538">
        <ele>2625</ele>
        <time>2021-04-08T10:24:32Z</time>
      </trkpt>
      <trkpt lat="44.45083" lon="6.57538">
        <ele>2625</ele>
        <time>2021-04-08T10:24:33Z</time>
      </trkpt>
      <trkpt lat="44.45083" lon="6.57538">
        <ele>2625</ele>
        <time>2021-04-08T10:24:34Z</time>
      </trkpt>
      <trkpt lat="44.45083" lon="6.57538">
        <ele>2625</ele>
        <time>2021-04-08T10:24:35Z</time>
      </trkpt>
      <trkpt lat="44.45083" lon="6.57538">
        <ele>2625</ele>
        <time>2021-04-08T10:24:36Z</time>
      </trkpt>
      <trkpt lat="44.45083" lon="6.57538">
        <ele>2625</ele>
        <time>2021-04-08T10:24:37Z</time>
      </trkpt>
      <trkpt lat="44.45083" lon="6.57538">
        <ele>2625</ele>
        <time>2021-04-08T10:24:38Z</time>
      </trkpt>
      <trkpt lat="44.45083" lon="6.57538">
        <ele>2625</ele>
        <time>2021-04-08T10:24:39Z</time>
      </trkpt>
      <trkpt lat="44.45083" lon="6.57538">
        <ele>2625</ele>
        <time>2021-04-08T10:24:40Z</time>
      </trkpt>
      <trkpt lat="44.45083" lon="6.57538">
        <ele>2625</ele>
        <time>2021-04-08T10:24:41Z</time>
      </trkpt>
      <trkpt lat="44.45083" lon="6.57538">
        <ele>2625</ele>
        <time>2021-04-08T10:24:42Z</time>
      </trkpt>
      <trkpt lat="44.45083" lon="6.57538">
        <ele>2625</ele>
        <time>2021-04-08T10:24:43Z</time>
      </trkpt>
      <trkpt lat="44.45083" lon="6.57538">
        <ele>2625</ele>
        <time>2021-04-08T10:24:44Z</time>
      </trkpt>
      <trkpt lat="44.45083" lon="6.57538">
        <ele>2625</ele>
        <time>2021-04-08T10:24:45Z</time>
      </trkpt>
      <trkpt lat="44.45083" lon="6.57538">
        <ele>2625</ele>
        <time>2021-04-08T10:24:46Z</time>
      </trkpt>
      <trkpt lat="44.45083" lon="6.57538">
        <ele>2625</ele>
        <time>2021-04-08T10:24:47Z</time>
      </trkpt>
      <trkpt lat="44.45083" lon="6.57538">
        <ele>2625</ele>
        <time>2021-04-08T10:24:48Z</time>
      </trkpt>
      <trkpt lat="44.45083" lon="6.57538">
        <ele>2625</ele>
        <time>2021-04-08T10:24:49Z</time>
      </trkpt>
      <trkpt lat="44.45083" lon="6.57538">
        <ele>2625</ele>
        <time>2021-04-08T10:24:50Z</time>
      </trkpt>
      <trkpt lat="44.45083" lon="6.57538">
        <ele>2625</ele>
        <time>2021-04-08T10:24:51Z</time>
      </trkpt>
      <trkpt lat="44.45083" lon="6.57538">
        <ele>2625</ele>
        <time>2021-04-08T10:24:52Z</time>
      </trkpt>
      <trkpt lat="44.45083" lon="6.57538">
        <ele>2625</ele>
        <time>2021-04-08T10:24:53Z</time>
      </trkpt>
      <trkpt lat="44.45083" lon="6.57538">
        <ele>2625</ele>
        <time>2021-04-08T10:24:54Z</time>
      </trkpt>
      <trkpt lat="44.45083" lon="6.57538">
        <ele>2625</ele>
        <time>2021-04-08T10:24:55Z</time>
      </trkpt>
      <trkpt lat="44.45083" lon="6.57538">
        <ele>2625</ele>
        <time>2021-04-08T10:24:56Z</time>
      </trkpt>
      <trkpt lat="44.45083" lon="6.57538">
        <ele>2625</ele>
        <time>2021-04-08T10:24:57Z</time>
      </trkpt>
      <trkpt lat="44.45083" lon="6.57538">
        <ele>2625</ele>
        <time>2021-04-08T10:24:58Z</time>
      </trkpt>
      <trkpt lat="44.45083" lon="6.57538">
        <ele>2625</ele>
        <time>2021-04-08T10:24:59Z</time>
      </trkpt>
      <trkpt lat="44.45083" lon="6.57538">
        <ele>2625</ele>
        <time>2021-04-08T10:25:00Z</time>
      </trkpt>
      <trkpt lat="44.45083" lon="6.57538">
        <ele>2625</ele>
        <time>2021-04-08T10:25:01Z</time>
      </trkpt>
      <trkpt lat="44.45083" lon="6.57538">
        <ele>2625</ele>
        <time>2021-04-08T10:25:02Z</time>
      </trkpt>
      <trkpt lat="44.45083" lon="6.57538">
        <ele>2624</ele>
        <time>2021-04-08T10:25:03Z</time>
      </trkpt>
      <trkpt lat="44.45083" lon="6.57538">
        <ele>2624</ele>
        <time>2021-04-08T10:25:04Z</time>
      </trkpt>
      <trkpt lat="44.45083" lon="6.57538">
        <ele>2624</ele>
        <time>2021-04-08T10:25:05Z</time>
      </trkpt>
      <trkpt lat="44.45083" lon="6.57538">
        <ele>2624</ele>
        <time>2021-04-08T10:25:06Z</time>
      </trkpt>
      <trkpt lat="44.45083" lon="6.57538">
        <ele>2624</ele>
        <time>2021-04-08T10:25:07Z</time>
      </trkpt>
      <trkpt lat="44.45083" lon="6.57538">
        <ele>2624</ele>
        <time>2021-04-08T10:25:08Z</time>
      </trkpt>
      <trkpt lat="44.45083" lon="6.57538">
        <ele>2624</ele>
        <time>2021-04-08T10:25:09Z</time>
      </trkpt>
      <trkpt lat="44.45083" lon="6.57538">
        <ele>2624</ele>
        <time>2021-04-08T10:25:10Z</time>
      </trkpt>
      <trkpt lat="44.45083" lon="6.57538">
        <ele>2624</ele>
        <time>2021-04-08T10:25:11Z</time>
      </trkpt>
      <trkpt lat="44.45083" lon="6.57538">
        <ele>2624</ele>
        <time>2021-04-08T10:25:12Z</time>
      </trkpt>
      <trkpt lat="44.45083" lon="6.57538">
        <ele>2624</ele>
        <time>2021-04-08T10:25:13Z</time>
      </trkpt>
      <trkpt lat="44.45083" lon="6.57538">
        <ele>2624</ele>
        <time>2021-04-08T10:25:14Z</time>
      </trkpt>
      <trkpt lat="44.45083" lon="6.57538">
        <ele>2624</ele>
        <time>2021-04-08T10:25:15Z</time>
      </trkpt>
      <trkpt lat="44.45083" lon="6.57538">
        <ele>2624</ele>
        <time>2021-04-08T10:25:16Z</time>
      </trkpt>
      <trkpt lat="44.45083" lon="6.57538">
        <ele>2624</ele>
        <time>2021-04-08T10:25:17Z</time>
      </trkpt>
      <trkpt lat="44.45083" lon="6.57538">
        <ele>2624</ele>
        <time>2021-04-08T10:25:18Z</time>
      </trkpt>
      <trkpt lat="44.45083" lon="6.57538">
        <ele>2624</ele>
        <time>2021-04-08T10:25:19Z</time>
      </trkpt>
      <trkpt lat="44.45083" lon="6.57538">
        <ele>2624</ele>
        <time>2021-04-08T10:25:20Z</time>
      </trkpt>
      <trkpt lat="44.45083" lon="6.57538">
        <ele>2624</ele>
        <time>2021-04-08T10:25:21Z</time>
      </trkpt>
      <trkpt lat="44.45083" lon="6.57538">
        <ele>2624</ele>
        <time>2021-04-08T10:25:22Z</time>
      </trkpt>
      <trkpt lat="44.45083" lon="6.57538">
        <ele>2624</ele>
        <time>2021-04-08T10:25:23Z</time>
      </trkpt>
      <trkpt lat="44.45083" lon="6.57538">
        <ele>2624</ele>
        <time>2021-04-08T10:25:24Z</time>
      </trkpt>
      <trkpt lat="44.45083" lon="6.57538">
        <ele>2624</ele>
        <time>2021-04-08T10:25:25Z</time>
      </trkpt>
      <trkpt lat="44.45083" lon="6.57538">
        <ele>2624</ele>
        <time>2021-04-08T10:25:26Z</time>
      </trkpt>
      <trkpt lat="44.45083" lon="6.57538">
        <ele>2624</ele>
        <time>2021-04-08T10:25:27Z</time>
      </trkpt>
      <trkpt lat="44.45083" lon="6.57538">
        <ele>2624</ele>
        <time>2021-04-08T10:25:28Z</time>
      </trkpt>
      <trkpt lat="44.45083" lon="6.57538">
        <ele>2624</ele>
        <time>2021-04-08T10:25:29Z</time>
      </trkpt>
      <trkpt lat="44.45083" lon="6.57538">
        <ele>2624</ele>
        <time>2021-04-08T10:25:30Z</time>
      </trkpt>
      <trkpt lat="44.45083" lon="6.57538">
        <ele>2624</ele>
        <time>2021-04-08T10:25:31Z</time>
      </trkpt>
      <trkpt lat="44.45083" lon="6.57538">
        <ele>2624</ele>
        <time>2021-04-08T10:25:32Z</time>
      </trkpt>
      <trkpt lat="44.45083" lon="6.57538">
        <ele>2624</ele>
        <time>2021-04-08T10:25:33Z</time>
      </trkpt>
      <trkpt lat="44.45083" lon="6.57538">
        <ele>2624</ele>
        <time>2021-04-08T10:25:34Z</time>
      </trkpt>
      <trkpt lat="44.45083" lon="6.57538">
        <ele>2624</ele>
        <time>2021-04-08T10:25:35Z</time>
      </trkpt>
      <trkpt lat="44.45083" lon="6.57538">
        <ele>2624</ele>
        <time>2021-04-08T10:25:36Z</time>
      </trkpt>
      <trkpt lat="44.45083" lon="6.57538">
        <ele>2624</ele>
        <time>2021-04-08T10:25:37Z</time>
      </trkpt>
      <trkpt lat="44.45083" lon="6.57538">
        <ele>2624</ele>
        <time>2021-04-08T10:25:38Z</time>
      </trkpt>
      <trkpt lat="44.45083" lon="6.57538">
        <ele>2624</ele>
        <time>2021-04-08T10:25:39Z</time>
      </trkpt>
      <trkpt lat="44.45083" lon="6.57538">
        <ele>2624</ele>
        <time>2021-04-08T10:25:40Z</time>
      </trkpt>
      <trkpt lat="44.45083" lon="6.57538">
        <ele>2624</ele>
        <time>2021-04-08T10:25:41Z</time>
      </trkpt>
      <trkpt lat="44.45083" lon="6.57538">
        <ele>2624</ele>
        <time>2021-04-08T10:25:42Z</time>
      </trkpt>
      <trkpt lat="44.45083" lon="6.57538">
        <ele>2624</ele>
        <time>2021-04-08T10:25:43Z</time>
      </trkpt>
      <trkpt lat="44.45083" lon="6.57538">
        <ele>2624</ele>
        <time>2021-04-08T10:25:44Z</time>
      </trkpt>
      <trkpt lat="44.45083" lon="6.57538">
        <ele>2624</ele>
        <time>2021-04-08T10:25:45Z</time>
      </trkpt>
      <trkpt lat="44.45083" lon="6.57538">
        <ele>2624</ele>
        <time>2021-04-08T10:25:46Z</time>
      </trkpt>
      <trkpt lat="44.45083" lon="6.57538">
        <ele>2624</ele>
        <time>2021-04-08T10:25:47Z</time>
      </trkpt>
      <trkpt lat="44.45083" lon="6.57538">
        <ele>2624</ele>
        <time>2021-04-08T10:25:48Z</time>
      </trkpt>
      <trkpt lat="44.45083" lon="6.57538">
        <ele>2624</ele>
        <time>2021-04-08T10:25:49Z</time>
      </trkpt>
      <trkpt lat="44.45083" lon="6.57538">
        <ele>2624</ele>
        <time>2021-04-08T10:25:50Z</time>
      </trkpt>
      <trkpt lat="44.45083" lon="6.57538">
        <ele>2624</ele>
        <time>2021-04-08T10:25:51Z</time>
      </trkpt>
      <trkpt lat="44.45083" lon="6.57538">
        <ele>2624</ele>
        <time>2021-04-08T10:25:52Z</time>
      </trkpt>
      <trkpt lat="44.45083" lon="6.57538">
        <ele>2624</ele>
        <time>2021-04-08T10:25:53Z</time>
      </trkpt>
      <trkpt lat="44.45083" lon="6.57538">
        <ele>2624</ele>
        <time>2021-04-08T10:25:54Z</time>
      </trkpt>
      <trkpt lat="44.45083" lon="6.57538">
        <ele>2624</ele>
        <time>2021-04-08T10:25:55Z</time>
      </trkpt>
      <trkpt lat="44.45083" lon="6.57538">
        <ele>2624</ele>
        <time>2021-04-08T10:25:56Z</time>
      </trkpt>
      <trkpt lat="44.45083" lon="6.57538">
        <ele>2624</ele>
        <time>2021-04-08T10:25:57Z</time>
      </trkpt>
      <trkpt lat="44.45083" lon="6.57538">
        <ele>2624</ele>
        <time>2021-04-08T10:25:58Z</time>
      </trkpt>
      <trkpt lat="44.45083" lon="6.57538">
        <ele>2624</ele>
        <time>2021-04-08T10:25:59Z</time>
      </trkpt>
      <trkpt lat="44.45083" lon="6.57538">
        <ele>2624</ele>
        <time>2021-04-08T10:26:00Z</time>
      </trkpt>
      <trkpt lat="44.45083" lon="6.57538">
        <ele>2624</ele>
        <time>2021-04-08T10:26:01Z</time>
      </trkpt>
      <trkpt lat="44.45083" lon="6.57538">
        <ele>2624</ele>
        <time>2021-04-08T10:26:02Z</time>
      </trkpt>
      <trkpt lat="44.45083" lon="6.57538">
        <ele>2624</ele>
        <time>2021-04-08T10:26:03Z</time>
      </trkpt>
      <trkpt lat="44.45083" lon="6.57538">
        <ele>2624</ele>
        <time>2021-04-08T10:26:04Z</time>
      </trkpt>
      <trkpt lat="44.45083" lon="6.57538">
        <ele>2624</ele>
        <time>2021-04-08T10:26:05Z</time>
      </trkpt>
      <trkpt lat="44.45083" lon="6.57538">
        <ele>2624</ele>
        <time>2021-04-08T10:26:06Z</time>
      </trkpt>
      <trkpt lat="44.45083" lon="6.57538">
        <ele>2624</ele>
        <time>2021-04-08T10:26:07Z</time>
      </trkpt>
      <trkpt lat="44.45083" lon="6.57538">
        <ele>2624</ele>
        <time>2021-04-08T10:26:08Z</time>
      </trkpt>
      <trkpt lat="44.45083" lon="6.57538">
        <ele>2624</ele>
        <time>2021-04-08T10:26:09Z</time>
      </trkpt>
      <trkpt lat="44.45083" lon="6.57538">
        <ele>2624</ele>
        <time>2021-04-08T10:26:10Z</time>
      </trkpt>
      <trkpt lat="44.45083" lon="6.57538">
        <ele>2624</ele>
        <time>2021-04-08T10:26:11Z</time>
      </trkpt>
      <trkpt lat="44.45083" lon="6.57538">
        <ele>2624</ele>
        <time>2021-04-08T10:26:12Z</time>
      </trkpt>
      <trkpt lat="44.45083" lon="6.57538">
        <ele>2624</ele>
        <time>2021-04-08T10:26:13Z</time>
      </trkpt>
      <trkpt lat="44.45083" lon="6.57538">
        <ele>2624</ele>
        <time>2021-04-08T10:26:14Z</time>
      </trkpt>
      <trkpt lat="44.45083" lon="6.57538">
        <ele>2624</ele>
        <time>2021-04-08T10:26:15Z</time>
      </trkpt>
      <trkpt lat="44.45083" lon="6.57538">
        <ele>2624</ele>
        <time>2021-04-08T10:26:16Z</time>
      </trkpt>
      <trkpt lat="44.45083" lon="6.57538">
        <ele>2624</ele>
        <time>2021-04-08T10:26:17Z</time>
      </trkpt>
      <trkpt lat="44.45083" lon="6.57538">
        <ele>2624</ele>
        <time>2021-04-08T10:26:18Z</time>
      </trkpt>
      <trkpt lat="44.45083" lon="6.57538">
        <ele>2624</ele>
        <time>2021-04-08T10:26:19Z</time>
      </trkpt>
      <trkpt lat="44.45083" lon="6.57538">
        <ele>2624</ele>
        <time>2021-04-08T10:26:20Z</time>
      </trkpt>
      <trkpt lat="44.45083" lon="6.57538">
        <ele>2624</ele>
        <time>2021-04-08T10:26:21Z</time>
      </trkpt>
      <trkpt lat="44.45083" lon="6.57538">
        <ele>2624</ele>
        <time>2021-04-08T10:26:22Z</time>
      </trkpt>
      <trkpt lat="44.45083" lon="6.57538">
        <ele>2624</ele>
        <time>2021-04-08T10:26:23Z</time>
      </trkpt>
      <trkpt lat="44.45083" lon="6.57538">
        <ele>2624</ele>
        <time>2021-04-08T10:26:24Z</time>
      </trkpt>
      <trkpt lat="44.45083" lon="6.57538">
        <ele>2624</ele>
        <time>2021-04-08T10:26:25Z</time>
      </trkpt>
      <trkpt lat="44.45083" lon="6.57538">
        <ele>2624</ele>
        <time>2021-04-08T10:26:26Z</time>
      </trkpt>
      <trkpt lat="44.45083" lon="6.57538">
        <ele>2624</ele>
        <time>2021-04-08T10:26:27Z</time>
      </trkpt>
      <trkpt lat="44.45083" lon="6.57538">
        <ele>2624</ele>
        <time>2021-04-08T10:26:28Z</time>
      </trkpt>
      <trkpt lat="44.45083" lon="6.57538">
        <ele>2624</ele>
        <time>2021-04-08T10:26:29Z</time>
      </trkpt>
      <trkpt lat="44.45083" lon="6.57538">
        <ele>2624</ele>
        <time>2021-04-08T10:26:30Z</time>
      </trkpt>
      <trkpt lat="44.45083" lon="6.57538">
        <ele>2624</ele>
        <time>2021-04-08T10:26:31Z</time>
      </trkpt>
      <trkpt lat="44.45083" lon="6.57538">
        <ele>2624</ele>
        <time>2021-04-08T10:26:32Z</time>
      </trkpt>
      <trkpt lat="44.45083" lon="6.57538">
        <ele>2624</ele>
        <time>2021-04-08T10:26:33Z</time>
      </trkpt>
      <trkpt lat="44.45083" lon="6.57538">
        <ele>2624</ele>
        <time>2021-04-08T10:26:34Z</time>
      </trkpt>
      <trkpt lat="44.45083" lon="6.57538">
        <ele>2624</ele>
        <time>2021-04-08T10:26:35Z</time>
      </trkpt>
      <trkpt lat="44.45083" lon="6.57538">
        <ele>2624</ele>
        <time>2021-04-08T10:26:36Z</time>
      </trkpt>
      <trkpt lat="44.45083" lon="6.57538">
        <ele>2624</ele>
        <time>2021-04-08T10:26:37Z</time>
      </trkpt>
      <trkpt lat="44.45083" lon="6.57538">
        <ele>2624</ele>
        <time>2021-04-08T10:26:38Z</time>
      </trkpt>
      <trkpt lat="44.45083" lon="6.57538">
        <ele>2624</ele>
        <time>2021-04-08T10:26:39Z</time>
      </trkpt>
      <trkpt lat="44.45083" lon="6.57538">
        <ele>2624</ele>
        <time>2021-04-08T10:26:40Z</time>
      </trkpt>
      <trkpt lat="44.45083" lon="6.57538">
        <ele>2624</ele>
        <time>2021-04-08T10:26:41Z</time>
      </trkpt>
      <trkpt lat="44.45083" lon="6.57538">
        <ele>2624</ele>
        <time>2021-04-08T10:26:42Z</time>
      </trkpt>
      <trkpt lat="44.45083" lon="6.57538">
        <ele>2624</ele>
        <time>2021-04-08T10:26:43Z</time>
      </trkpt>
      <trkpt lat="44.45083" lon="6.57538">
        <ele>2624</ele>
        <time>2021-04-08T10:26:44Z</time>
      </trkpt>
      <trkpt lat="44.45083" lon="6.57538">
        <ele>2624</ele>
        <time>2021-04-08T10:26:45Z</time>
      </trkpt>
      <trkpt lat="44.45083" lon="6.57538">
        <ele>2624</ele>
        <time>2021-04-08T10:26:46Z</time>
      </trkpt>
      <trkpt lat="44.45083" lon="6.57538">
        <ele>2624</ele>
        <time>2021-04-08T10:26:47Z</time>
      </trkpt>
      <trkpt lat="44.45083" lon="6.57538">
        <ele>2624</ele>
        <time>2021-04-08T10:26:48Z</time>
      </trkpt>
      <trkpt lat="44.45083" lon="6.57538">
        <ele>2624</ele>
        <time>2021-04-08T10:26:49Z</time>
      </trkpt>
      <trkpt lat="44.45083" lon="6.57538">
        <ele>2624</ele>
        <time>2021-04-08T10:26:50Z</time>
      </trkpt>
      <trkpt lat="44.45083" lon="6.57538">
        <ele>2624</ele>
        <time>2021-04-08T10:26:51Z</time>
      </trkpt>
      <trkpt lat="44.45083" lon="6.57538">
        <ele>2624</ele>
        <time>2021-04-08T10:26:52Z</time>
      </trkpt>
      <trkpt lat="44.45083" lon="6.57538">
        <ele>2624</ele>
        <time>2021-04-08T10:26:53Z</time>
      </trkpt>
      <trkpt lat="44.45083" lon="6.57538">
        <ele>2624</ele>
        <time>2021-04-08T10:26:54Z</time>
      </trkpt>
      <trkpt lat="44.45083" lon="6.57538">
        <ele>2624</ele>
        <time>2021-04-08T10:26:55Z</time>
      </trkpt>
      <trkpt lat="44.45083" lon="6.57538">
        <ele>2624</ele>
        <time>2021-04-08T10:26:56Z</time>
      </trkpt>
      <trkpt lat="44.45083" lon="6.57538">
        <ele>2624</ele>
        <time>2021-04-08T10:26:57Z</time>
      </trkpt>
      <trkpt lat="44.45083" lon="6.57538">
        <ele>2624</ele>
        <time>2021-04-08T10:26:58Z</time>
      </trkpt>
      <trkpt lat="44.45083" lon="6.57538">
        <ele>2624</ele>
        <time>2021-04-08T10:26:59Z</time>
      </trkpt>
      <trkpt lat="44.45083" lon="6.57538">
        <ele>2624</ele>
        <time>2021-04-08T10:27:00Z</time>
      </trkpt>
      <trkpt lat="44.45083" lon="6.57538">
        <ele>2624</ele>
        <time>2021-04-08T10:27:01Z</time>
      </trkpt>
      <trkpt lat="44.45083" lon="6.57538">
        <ele>2624</ele>
        <time>2021-04-08T10:27:02Z</time>
      </trkpt>
      <trkpt lat="44.45083" lon="6.57538">
        <ele>2624</ele>
        <time>2021-04-08T10:27:03Z</time>
      </trkpt>
      <trkpt lat="44.45083" lon="6.57538">
        <ele>2624</ele>
        <time>2021-04-08T10:27:04Z</time>
      </trkpt>
      <trkpt lat="44.45083" lon="6.57538">
        <ele>2624</ele>
        <time>2021-04-08T10:27:05Z</time>
      </trkpt>
      <trkpt lat="44.45083" lon="6.57538">
        <ele>2624</ele>
        <time>2021-04-08T10:27:06Z</time>
      </trkpt>
      <trkpt lat="44.45083" lon="6.57538">
        <ele>2624</ele>
        <time>2021-04-08T10:27:07Z</time>
      </trkpt>
      <trkpt lat="44.45083" lon="6.57538">
        <ele>2624</ele>
        <time>2021-04-08T10:27:08Z</time>
      </trkpt>
      <trkpt lat="44.45083" lon="6.57538">
        <ele>2624</ele>
        <time>2021-04-08T10:27:09Z</time>
      </trkpt>
      <trkpt lat="44.45083" lon="6.57538">
        <ele>2624</ele>
        <time>2021-04-08T10:27:10Z</time>
      </trkpt>
      <trkpt lat="44.45083" lon="6.57538">
        <ele>2624</ele>
        <time>2021-04-08T10:27:11Z</time>
      </trkpt>
      <trkpt lat="44.45083" lon="6.57538">
        <ele>2624</ele>
        <time>2021-04-08T10:27:12Z</time>
      </trkpt>
      <trkpt lat="44.45083" lon="6.57538">
        <ele>2624</ele>
        <time>2021-04-08T10:27:13Z</time>
      </trkpt>
      <trkpt lat="44.45083" lon="6.57538">
        <ele>2624</ele>
        <time>2021-04-08T10:27:14Z</time>
      </trkpt>
      <trkpt lat="44.45083" lon="6.57538">
        <ele>2624</ele>
        <time>2021-04-08T10:27:15Z</time>
      </trkpt>
      <trkpt lat="44.45083" lon="6.57538">
        <ele>2624</ele>
        <time>2021-04-08T10:27:16Z</time>
      </trkpt>
      <trkpt lat="44.45083" lon="6.57538">
        <ele>2624</ele>
        <time>2021-04-08T10:27:17Z</time>
      </trkpt>
      <trkpt lat="44.45083" lon="6.57538">
        <ele>2624</ele>
        <time>2021-04-08T10:27:18Z</time>
      </trkpt>
      <trkpt lat="44.45083" lon="6.57538">
        <ele>2624</ele>
        <time>2021-04-08T10:27:19Z</time>
      </trkpt>
      <trkpt lat="44.45083" lon="6.57538">
        <ele>2624</ele>
        <time>2021-04-08T10:27:20Z</time>
      </trkpt>
      <trkpt lat="44.45083" lon="6.57538">
        <ele>2624</ele>
        <time>2021-04-08T10:27:21Z</time>
      </trkpt>
      <trkpt lat="44.45083" lon="6.57538">
        <ele>2624</ele>
        <time>2021-04-08T10:27:22Z</time>
      </trkpt>
      <trkpt lat="44.45083" lon="6.57538">
        <ele>2624</ele>
        <time>2021-04-08T10:27:23Z</time>
      </trkpt>
      <trkpt lat="44.45083" lon="6.57538">
        <ele>2624</ele>
        <time>2021-04-08T10:27:24Z</time>
      </trkpt>
      <trkpt lat="44.45083" lon="6.57538">
        <ele>2624</ele>
        <time>2021-04-08T10:27:25Z</time>
      </trkpt>
      <trkpt lat="44.45083" lon="6.57538">
        <ele>2624</ele>
        <time>2021-04-08T10:27:26Z</time>
      </trkpt>
      <trkpt lat="44.45083" lon="6.57538">
        <ele>2624</ele>
        <time>2021-04-08T10:27:27Z</time>
      </trkpt>
      <trkpt lat="44.45083" lon="6.57538">
        <ele>2624</ele>
        <time>2021-04-08T10:27:28Z</time>
      </trkpt>
      <trkpt lat="44.45083" lon="6.57538">
        <ele>2624</ele>
        <time>2021-04-08T10:27:29Z</time>
      </trkpt>
      <trkpt lat="44.45083" lon="6.57538">
        <ele>2624</ele>
        <time>2021-04-08T10:27:30Z</time>
      </trkpt>
      <trkpt lat="44.45083" lon="6.57538">
        <ele>2624</ele>
        <time>2021-04-08T10:27:31Z</time>
      </trkpt>
      <trkpt lat="44.45083" lon="6.57538">
        <ele>2624</ele>
        <time>2021-04-08T10:27:32Z</time>
      </trkpt>
      <trkpt lat="44.45083" lon="6.57538">
        <ele>2624</ele>
        <time>2021-04-08T10:27:33Z</time>
      </trkpt>
      <trkpt lat="44.45083" lon="6.57538">
        <ele>2624</ele>
        <time>2021-04-08T10:27:34Z</time>
      </trkpt>
      <trkpt lat="44.45083" lon="6.57538">
        <ele>2624</ele>
        <time>2021-04-08T10:27:35Z</time>
      </trkpt>
      <trkpt lat="44.45083" lon="6.57538">
        <ele>2624</ele>
        <time>2021-04-08T10:27:36Z</time>
      </trkpt>
      <trkpt lat="44.45083" lon="6.57538">
        <ele>2624</ele>
        <time>2021-04-08T10:27:37Z</time>
      </trkpt>
      <trkpt lat="44.45083" lon="6.57538">
        <ele>2624</ele>
        <time>2021-04-08T10:27:38Z</time>
      </trkpt>
      <trkpt lat="44.45083" lon="6.57538">
        <ele>2624</ele>
        <time>2021-04-08T10:27:39Z</time>
      </trkpt>
      <trkpt lat="44.45083" lon="6.57538">
        <ele>2624</ele>
        <time>2021-04-08T10:27:40Z</time>
      </trkpt>
      <trkpt lat="44.45083" lon="6.57538">
        <ele>2624</ele>
        <time>2021-04-08T10:27:41Z</time>
      </trkpt>
      <trkpt lat="44.45083" lon="6.57538">
        <ele>2624</ele>
        <time>2021-04-08T10:27:42Z</time>
      </trkpt>
      <trkpt lat="44.45083" lon="6.57538">
        <ele>2624</ele>
        <time>2021-04-08T10:27:43Z</time>
      </trkpt>
      <trkpt lat="44.45083" lon="6.57538">
        <ele>2624</ele>
        <time>2021-04-08T10:27:44Z</time>
      </trkpt>
      <trkpt lat="44.45083" lon="6.57538">
        <ele>2624</ele>
        <time>2021-04-08T10:27:45Z</time>
      </trkpt>
      <trkpt lat="44.45083" lon="6.57538">
        <ele>2624</ele>
        <time>2021-04-08T10:27:46Z</time>
      </trkpt>
      <trkpt lat="44.45083" lon="6.57538">
        <ele>2624</ele>
        <time>2021-04-08T10:27:47Z</time>
      </trkpt>
      <trkpt lat="44.45083" lon="6.57538">
        <ele>2624</ele>
        <time>2021-04-08T10:27:48Z</time>
      </trkpt>
      <trkpt lat="44.45083" lon="6.57538">
        <ele>2624</ele>
        <time>2021-04-08T10:27:49Z</time>
      </trkpt>
      <trkpt lat="44.45083" lon="6.57538">
        <ele>2624</ele>
        <time>2021-04-08T10:27:50Z</time>
      </trkpt>
      <trkpt lat="44.45083" lon="6.57538">
        <ele>2624</ele>
        <time>2021-04-08T10:27:51Z</time>
      </trkpt>
      <trkpt lat="44.45083" lon="6.57538">
        <ele>2624</ele>
        <time>2021-04-08T10:27:52Z</time>
      </trkpt>
      <trkpt lat="44.45083" lon="6.57538">
        <ele>2624</ele>
        <time>2021-04-08T10:27:53Z</time>
      </trkpt>
      <trkpt lat="44.45083" lon="6.57538">
        <ele>2624</ele>
        <time>2021-04-08T10:27:54Z</time>
      </trkpt>
      <trkpt lat="44.45083" lon="6.57538">
        <ele>2624</ele>
        <time>2021-04-08T10:27:55Z</time>
      </trkpt>
      <trkpt lat="44.45083" lon="6.57538">
        <ele>2624</ele>
        <time>2021-04-08T10:27:56Z</time>
      </trkpt>
      <trkpt lat="44.45083" lon="6.57538">
        <ele>2624</ele>
        <time>2021-04-08T10:27:57Z</time>
      </trkpt>
      <trkpt lat="44.45083" lon="6.57538">
        <ele>2624</ele>
        <time>2021-04-08T10:27:58Z</time>
      </trkpt>
      <trkpt lat="44.45083" lon="6.57538">
        <ele>2624</ele>
        <time>2021-04-08T10:27:59Z</time>
      </trkpt>
      <trkpt lat="44.45083" lon="6.57538">
        <ele>2624</ele>
        <time>2021-04-08T10:28:00Z</time>
      </trkpt>
      <trkpt lat="44.45083" lon="6.57538">
        <ele>2624</ele>
        <time>2021-04-08T10:28:01Z</time>
      </trkpt>
      <trkpt lat="44.45083" lon="6.57538">
        <ele>2624</ele>
        <time>2021-04-08T10:28:02Z</time>
      </trkpt>
      <trkpt lat="44.45083" lon="6.57538">
        <ele>2624</ele>
        <time>2021-04-08T10:28:03Z</time>
      </trkpt>
      <trkpt lat="44.45083" lon="6.57538">
        <ele>2624</ele>
        <time>2021-04-08T10:28:04Z</time>
      </trkpt>
      <trkpt lat="44.45083" lon="6.57538">
        <ele>2624</ele>
        <time>2021-04-08T10:28:05Z</time>
      </trkpt>
      <trkpt lat="44.45083" lon="6.57538">
        <ele>2624</ele>
        <time>2021-04-08T10:28:06Z</time>
      </trkpt>
      <trkpt lat="44.45083" lon="6.57538">
        <ele>2624</ele>
        <time>2021-04-08T10:28:07Z</time>
      </trkpt>
      <trkpt lat="44.45083" lon="6.57538">
        <ele>2624</ele>
        <time>2021-04-08T10:28:08Z</time>
      </trkpt>
      <trkpt lat="44.45083" lon="6.57538">
        <ele>2624</ele>
        <time>2021-04-08T10:28:09Z</time>
      </trkpt>
      <trkpt lat="44.45083" lon="6.57538">
        <ele>2624</ele>
        <time>2021-04-08T10:28:10Z</time>
      </trkpt>
      <trkpt lat="44.45083" lon="6.57538">
        <ele>2624</ele>
        <time>2021-04-08T10:28:11Z</time>
      </trkpt>
      <trkpt lat="44.45083" lon="6.57538">
        <ele>2624</ele>
        <time>2021-04-08T10:28:12Z</time>
      </trkpt>
      <trkpt lat="44.45083" lon="6.57538">
        <ele>2624</ele>
        <time>2021-04-08T10:28:13Z</time>
      </trkpt>
      <trkpt lat="44.45083" lon="6.57538">
        <ele>2624</ele>
        <time>2021-04-08T10:28:14Z</time>
      </trkpt>
      <trkpt lat="44.45083" lon="6.57538">
        <ele>2624</ele>
        <time>2021-04-08T10:28:15Z</time>
      </trkpt>
      <trkpt lat="44.45083" lon="6.57538">
        <ele>2624</ele>
        <time>2021-04-08T10:28:16Z</time>
      </trkpt>
      <trkpt lat="44.45083" lon="6.57538">
        <ele>2624</ele>
        <time>2021-04-08T10:28:17Z</time>
      </trkpt>
      <trkpt lat="44.45083" lon="6.57538">
        <ele>2624</ele>
        <time>2021-04-08T10:28:18Z</time>
      </trkpt>
      <trkpt lat="44.45083" lon="6.57538">
        <ele>2624</ele>
        <time>2021-04-08T10:28:19Z</time>
      </trkpt>
      <trkpt lat="44.45083" lon="6.57538">
        <ele>2624</ele>
        <time>2021-04-08T10:28:20Z</time>
      </trkpt>
      <trkpt lat="44.45083" lon="6.57538">
        <ele>2624</ele>
        <time>2021-04-08T10:28:21Z</time>
      </trkpt>
      <trkpt lat="44.45083" lon="6.57538">
        <ele>2624</ele>
        <time>2021-04-08T10:28:22Z</time>
      </trkpt>
      <trkpt lat="44.45083" lon="6.57538">
        <ele>2624</ele>
        <time>2021-04-08T10:28:23Z</time>
      </trkpt>
      <trkpt lat="44.45083" lon="6.57538">
        <ele>2624</ele>
        <time>2021-04-08T10:28:24Z</time>
      </trkpt>
      <trkpt lat="44.45083" lon="6.57538">
        <ele>2624</ele>
        <time>2021-04-08T10:28:25Z</time>
      </trkpt>
      <trkpt lat="44.45083" lon="6.57538">
        <ele>2624</ele>
        <time>2021-04-08T10:28:26Z</time>
      </trkpt>
      <trkpt lat="44.45083" lon="6.57538">
        <ele>2624</ele>
        <time>2021-04-08T10:28:27Z</time>
      </trkpt>
      <trkpt lat="44.45083" lon="6.57538">
        <ele>2624</ele>
        <time>2021-04-08T10:28:28Z</time>
      </trkpt>
      <trkpt lat="44.45083" lon="6.57538">
        <ele>2624</ele>
        <time>2021-04-08T10:28:29Z</time>
      </trkpt>
      <trkpt lat="44.45083" lon="6.57538">
        <ele>2624</ele>
        <time>2021-04-08T10:28:30Z</time>
      </trkpt>
      <trkpt lat="44.45083" lon="6.57538">
        <ele>2624</ele>
        <time>2021-04-08T10:28:31Z</time>
      </trkpt>
      <trkpt lat="44.45083" lon="6.57538">
        <ele>2624</ele>
        <time>2021-04-08T10:28:32Z</time>
      </trkpt>
      <trkpt lat="44.45083" lon="6.57538">
        <ele>2624</ele>
        <time>2021-04-08T10:28:33Z</time>
      </trkpt>
      <trkpt lat="44.45083" lon="6.57538">
        <ele>2624</ele>
        <time>2021-04-08T10:28:34Z</time>
      </trkpt>
      <trkpt lat="44.45083" lon="6.57538">
        <ele>2624</ele>
        <time>2021-04-08T10:28:35Z</time>
      </trkpt>
      <trkpt lat="44.45083" lon="6.57538">
        <ele>2624</ele>
        <time>2021-04-08T10:28:36Z</time>
      </trkpt>
      <trkpt lat="44.45083" lon="6.57538">
        <ele>2624</ele>
        <time>2021-04-08T10:28:37Z</time>
      </trkpt>
      <trkpt lat="44.45083" lon="6.57538">
        <ele>2624</ele>
        <time>2021-04-08T10:28:38Z</time>
      </trkpt>
      <trkpt lat="44.45083" lon="6.57538">
        <ele>2624</ele>
        <time>2021-04-08T10:28:39Z</time>
      </trkpt>
      <trkpt lat="44.45083" lon="6.57538">
        <ele>2624</ele>
        <time>2021-04-08T10:28:40Z</time>
      </trkpt>
      <trkpt lat="44.45083" lon="6.57538">
        <ele>2624</ele>
        <time>2021-04-08T10:28:41Z</time>
      </trkpt>
      <trkpt lat="44.45083" lon="6.57538">
        <ele>2624</ele>
        <time>2021-04-08T10:28:42Z</time>
      </trkpt>
      <trkpt lat="44.45083" lon="6.57538">
        <ele>2624</ele>
        <time>2021-04-08T10:28:43Z</time>
      </trkpt>
      <trkpt lat="44.45083" lon="6.57538">
        <ele>2624</ele>
        <time>2021-04-08T10:28:44Z</time>
      </trkpt>
      <trkpt lat="44.45083" lon="6.57538">
        <ele>2624</ele>
        <time>2021-04-08T10:28:45Z</time>
      </trkpt>
      <trkpt lat="44.45083" lon="6.57538">
        <ele>2624</ele>
        <time>2021-04-08T10:28:46Z</time>
      </trkpt>
      <trkpt lat="44.45083" lon="6.57538">
        <ele>2624</ele>
        <time>2021-04-08T10:28:47Z</time>
      </trkpt>
      <trkpt lat="44.45083" lon="6.57538">
        <ele>2624</ele>
        <time>2021-04-08T10:28:48Z</time>
      </trkpt>
      <trkpt lat="44.45083" lon="6.57538">
        <ele>2624</ele>
        <time>2021-04-08T10:28:49Z</time>
      </trkpt>
      <trkpt lat="44.45083" lon="6.57538">
        <ele>2624</ele>
        <time>2021-04-08T10:28:50Z</time>
      </trkpt>
      <trkpt lat="44.45083" lon="6.57538">
        <ele>2624</ele>
        <time>2021-04-08T10:28:51Z</time>
      </trkpt>
      <trkpt lat="44.45083" lon="6.57538">
        <ele>2624</ele>
        <time>2021-04-08T10:28:52Z</time>
      </trkpt>
      <trkpt lat="44.45083" lon="6.57538">
        <ele>2624</ele>
        <time>2021-04-08T10:28:53Z</time>
      </trkpt>
      <trkpt lat="44.45083" lon="6.57538">
        <ele>2624</ele>
        <time>2021-04-08T10:28:54Z</time>
      </trkpt>
      <trkpt lat="44.45083" lon="6.57538">
        <ele>2624</ele>
        <time>2021-04-08T10:28:55Z</time>
      </trkpt>
      <trkpt lat="44.45083" lon="6.57538">
        <ele>2624</ele>
        <time>2021-04-08T10:28:56Z</time>
      </trkpt>
      <trkpt lat="44.45083" lon="6.57538">
        <ele>2624</ele>
        <time>2021-04-08T10:28:57Z</time>
      </trkpt>
      <trkpt lat="44.45083" lon="6.57538">
        <ele>2624</ele>
        <time>2021-04-08T10:28:58Z</time>
      </trkpt>
      <trkpt lat="44.45083" lon="6.57538">
        <ele>2624</ele>
        <time>2021-04-08T10:28:59Z</time>
      </trkpt>
      <trkpt lat="44.45083" lon="6.57538">
        <ele>2624</ele>
        <time>2021-04-08T10:29:00Z</time>
      </trkpt>
      <trkpt lat="44.45083" lon="6.57538">
        <ele>2624</ele>
        <time>2021-04-08T10:29:01Z</time>
      </trkpt>
      <trkpt lat="44.45083" lon="6.57538">
        <ele>2624</ele>
        <time>2021-04-08T10:29:02Z</time>
      </trkpt>
      <trkpt lat="44.45083" lon="6.57538">
        <ele>2624</ele>
        <time>2021-04-08T10:29:03Z</time>
      </trkpt>
      <trkpt lat="44.45083" lon="6.57538">
        <ele>2624</ele>
        <time>2021-04-08T10:29:04Z</time>
      </trkpt>
      <trkpt lat="44.45083" lon="6.57538">
        <ele>2624</ele>
        <time>2021-04-08T10:29:05Z</time>
      </trkpt>
      <trkpt lat="44.45083" lon="6.57538">
        <ele>2624</ele>
        <time>2021-04-08T10:29:06Z</time>
      </trkpt>
      <trkpt lat="44.45083" lon="6.57538">
        <ele>2624</ele>
        <time>2021-04-08T10:29:07Z</time>
      </trkpt>
      <trkpt lat="44.45083" lon="6.57538">
        <ele>2624</ele>
        <time>2021-04-08T10:29:08Z</time>
      </trkpt>
      <trkpt lat="44.45083" lon="6.57538">
        <ele>2624</ele>
        <time>2021-04-08T10:29:09Z</time>
      </trkpt>
      <trkpt lat="44.45083" lon="6.57538">
        <ele>2624</ele>
        <time>2021-04-08T10:29:10Z</time>
      </trkpt>
      <trkpt lat="44.45083" lon="6.57538">
        <ele>2624</ele>
        <time>2021-04-08T10:29:11Z</time>
      </trkpt>
      <trkpt lat="44.45083" lon="6.57538">
        <ele>2624</ele>
        <time>2021-04-08T10:29:12Z</time>
      </trkpt>
      <trkpt lat="44.45083" lon="6.57538">
        <ele>2624</ele>
        <time>2021-04-08T10:29:13Z</time>
      </trkpt>
      <trkpt lat="44.45083" lon="6.57538">
        <ele>2624</ele>
        <time>2021-04-08T10:29:14Z</time>
      </trkpt>
      <trkpt lat="44.45083" lon="6.57538">
        <ele>2624</ele>
        <time>2021-04-08T10:29:15Z</time>
      </trkpt>
      <trkpt lat="44.45083" lon="6.57538">
        <ele>2624</ele>
        <time>2021-04-08T10:29:16Z</time>
      </trkpt>
      <trkpt lat="44.45083" lon="6.57538">
        <ele>2624</ele>
        <time>2021-04-08T10:29:17Z</time>
      </trkpt>
      <trkpt lat="44.45083" lon="6.57538">
        <ele>2624</ele>
        <time>2021-04-08T10:29:18Z</time>
      </trkpt>
      <trkpt lat="44.45083" lon="6.57538">
        <ele>2624</ele>
        <time>2021-04-08T10:29:19Z</time>
      </trkpt>
      <trkpt lat="44.45083" lon="6.57538">
        <ele>2624</ele>
        <time>2021-04-08T10:29:20Z</time>
      </trkpt>
      <trkpt lat="44.45083" lon="6.57538">
        <ele>2624</ele>
        <time>2021-04-08T10:29:21Z</time>
      </trkpt>
      <trkpt lat="44.45083" lon="6.57538">
        <ele>2624</ele>
        <time>2021-04-08T10:29:22Z</time>
      </trkpt>
      <trkpt lat="44.45083" lon="6.57538">
        <ele>2624</ele>
        <time>2021-04-08T10:29:23Z</time>
      </trkpt>
      <trkpt lat="44.45083" lon="6.57538">
        <ele>2624</ele>
        <time>2021-04-08T10:29:24Z</time>
      </trkpt>
      <trkpt lat="44.45083" lon="6.57538">
        <ele>2624</ele>
        <time>2021-04-08T10:29:25Z</time>
      </trkpt>
      <trkpt lat="44.45083" lon="6.57538">
        <ele>2624</ele>
        <time>2021-04-08T10:29:26Z</time>
      </trkpt>
      <trkpt lat="44.45083" lon="6.57538">
        <ele>2624</ele>
        <time>2021-04-08T10:29:27Z</time>
      </trkpt>
      <trkpt lat="44.45083" lon="6.57538">
        <ele>2624</ele>
        <time>2021-04-08T10:29:28Z</time>
      </trkpt>
      <trkpt lat="44.45083" lon="6.57538">
        <ele>2624</ele>
        <time>2021-04-08T10:29:29Z</time>
      </trkpt>
      <trkpt lat="44.45083" lon="6.57538">
        <ele>2624</ele>
        <time>2021-04-08T10:29:30Z</time>
      </trkpt>
      <trkpt lat="44.45083" lon="6.57538">
        <ele>2624</ele>
        <time>2021-04-08T10:29:31Z</time>
      </trkpt>
      <trkpt lat="44.45083" lon="6.57538">
        <ele>2624</ele>
        <time>2021-04-08T10:29:32Z</time>
      </trkpt>
      <trkpt lat="44.45083" lon="6.57538">
        <ele>2624</ele>
        <time>2021-04-08T10:29:33Z</time>
      </trkpt>
      <trkpt lat="44.45083" lon="6.57538">
        <ele>2624</ele>
        <time>2021-04-08T10:29:34Z</time>
      </trkpt>
      <trkpt lat="44.45083" lon="6.57538">
        <ele>2624</ele>
        <time>2021-04-08T10:29:35Z</time>
      </trkpt>
      <trkpt lat="44.45083" lon="6.57538">
        <ele>2624</ele>
        <time>2021-04-08T10:29:36Z</time>
      </trkpt>
      <trkpt lat="44.45083" lon="6.57538">
        <ele>2624</ele>
        <time>2021-04-08T10:29:37Z</time>
      </trkpt>
      <trkpt lat="44.45083" lon="6.57538">
        <ele>2624</ele>
        <time>2021-04-08T10:29:38Z</time>
      </trkpt>
      <trkpt lat="44.45083" lon="6.57538">
        <ele>2624</ele>
        <time>2021-04-08T10:29:39Z</time>
      </trkpt>
      <trkpt lat="44.45083" lon="6.57538">
        <ele>2624</ele>
        <time>2021-04-08T10:29:40Z</time>
      </trkpt>
      <trkpt lat="44.45083" lon="6.57538">
        <ele>2624</ele>
        <time>2021-04-08T10:29:41Z</time>
      </trkpt>
      <trkpt lat="44.45083" lon="6.57538">
        <ele>2624</ele>
        <time>2021-04-08T10:29:42Z</time>
      </trkpt>
      <trkpt lat="44.45083" lon="6.57538">
        <ele>2624</ele>
        <time>2021-04-08T10:29:43Z</time>
      </trkpt>
      <trkpt lat="44.45083" lon="6.57538">
        <ele>2624</ele>
        <time>2021-04-08T10:29:44Z</time>
      </trkpt>
      <trkpt lat="44.45083" lon="6.57538">
        <ele>2624</ele>
        <time>2021-04-08T10:29:45Z</time>
      </trkpt>
      <trkpt lat="44.45083" lon="6.57538">
        <ele>2624</ele>
        <time>2021-04-08T10:29:46Z</time>
      </trkpt>
      <trkpt lat="44.45083" lon="6.57538">
        <ele>2624</ele>
        <time>2021-04-08T10:29:47Z</time>
      </trkpt>
      <trkpt lat="44.45083" lon="6.57538">
        <ele>2624</ele>
        <time>2021-04-08T10:29:48Z</time>
      </trkpt>
      <trkpt lat="44.45083" lon="6.57538">
        <ele>2624</ele>
        <time>2021-04-08T10:29:49Z</time>
      </trkpt>
      <trkpt lat="44.45083" lon="6.57538">
        <ele>2624</ele>
        <time>2021-04-08T10:29:50Z</time>
      </trkpt>
      <trkpt lat="44.45083" lon="6.57538">
        <ele>2624</ele>
        <time>2021-04-08T10:29:51Z</time>
      </trkpt>
      <trkpt lat="44.45083" lon="6.57538">
        <ele>2624</ele>
        <time>2021-04-08T10:29:52Z</time>
      </trkpt>
      <trkpt lat="44.45083" lon="6.57538">
        <ele>2624</ele>
        <time>2021-04-08T10:29:53Z</time>
      </trkpt>
      <trkpt lat="44.45083" lon="6.57538">
        <ele>2624</ele>
        <time>2021-04-08T10:29:54Z</time>
      </trkpt>
      <trkpt lat="44.45083" lon="6.57538">
        <ele>2624</ele>
        <time>2021-04-08T10:29:55Z</time>
      </trkpt>
      <trkpt lat="44.45083" lon="6.57538">
        <ele>2624</ele>
        <time>2021-04-08T10:29:56Z</time>
      </trkpt>
      <trkpt lat="44.45083" lon="6.57538">
        <ele>2624</ele>
        <time>2021-04-08T10:29:57Z</time>
      </trkpt>
      <trkpt lat="44.45083" lon="6.57538">
        <ele>2624</ele>
        <time>2021-04-08T10:29:58Z</time>
      </trkpt>
      <trkpt lat="44.45083" lon="6.57538">
        <ele>2624</ele>
        <time>2021-04-08T10:29:59Z</time>
      </trkpt>
      <trkpt lat="44.45083" lon="6.57538">
        <ele>2624</ele>
        <time>2021-04-08T10:30:00Z</time>
      </trkpt>
      <trkpt lat="44.45083" lon="6.57538">
        <ele>2624</ele>
        <time>2021-04-08T10:30:01Z</time>
      </trkpt>
      <trkpt lat="44.45083" lon="6.57538">
        <ele>2624</ele>
        <time>2021-04-08T10:30:02Z</time>
      </trkpt>
      <trkpt lat="44.45083" lon="6.57538">
        <ele>2624</ele>
        <time>2021-04-08T10:30:03Z</time>
      </trkpt>
      <trkpt lat="44.45083" lon="6.57538">
        <ele>2624</ele>
        <time>2021-04-08T10:30:04Z</time>
      </trkpt>
      <trkpt lat="44.45083" lon="6.57538">
        <ele>2624</ele>
        <time>2021-04-08T10:30:05Z</time>
      </trkpt>
      <trkpt lat="44.45083" lon="6.57538">
        <ele>2624</ele>
        <time>2021-04-08T10:30:06Z</time>
      </trkpt>
      <trkpt lat="44.45083" lon="6.57538">
        <ele>2624</ele>
        <time>2021-04-08T10:30:07Z</time>
      </trkpt>
      <trkpt lat="44.45083" lon="6.57538">
        <ele>2624</ele>
        <time>2021-04-08T10:30:08Z</time>
      </trkpt>
      <trkpt lat="44.45083" lon="6.57538">
        <ele>2624</ele>
        <time>2021-04-08T10:30:09Z</time>
      </trkpt>
      <trkpt lat="44.45083" lon="6.57538">
        <ele>2624</ele>
        <time>2021-04-08T10:30:10Z</time>
      </trkpt>
      <trkpt lat="44.45083" lon="6.57538">
        <ele>2624</ele>
        <time>2021-04-08T10:30:11Z</time>
      </trkpt>
      <trkpt lat="44.45083" lon="6.57538">
        <ele>2624</ele>
        <time>2021-04-08T10:30:12Z</time>
      </trkpt>
      <trkpt lat="44.45083" lon="6.57538">
        <ele>2624</ele>
        <time>2021-04-08T10:30:13Z</time>
      </trkpt>
      <trkpt lat="44.45083" lon="6.57538">
        <ele>2624</ele>
        <time>2021-04-08T10:30:14Z</time>
      </trkpt>
      <trkpt lat="44.45083" lon="6.57538">
        <ele>2624</ele>
        <time>2021-04-08T10:30:15Z</time>
      </trkpt>
      <trkpt lat="44.45083" lon="6.57538">
        <ele>2624</ele>
        <time>2021-04-08T10:30:16Z</time>
      </trkpt>
      <trkpt lat="44.45083" lon="6.57538">
        <ele>2624</ele>
        <time>2021-04-08T10:30:17Z</time>
      </trkpt>
      <trkpt lat="44.45083" lon="6.57538">
        <ele>2624</ele>
        <time>2021-04-08T10:30:18Z</time>
      </trkpt>
      <trkpt lat="44.45083" lon="6.57538">
        <ele>2624</ele>
        <time>2021-04-08T10:30:19Z</time>
      </trkpt>
      <trkpt lat="44.45083" lon="6.57538">
        <ele>2624</ele>
        <time>2021-04-08T10:30:20Z</time>
      </trkpt>
      <trkpt lat="44.45083" lon="6.57538">
        <ele>2624</ele>
        <time>2021-04-08T10:30:21Z</time>
      </trkpt>
      <trkpt lat="44.45083" lon="6.57538">
        <ele>2624</ele>
        <time>2021-04-08T10:30:22Z</time>
      </trkpt>
      <trkpt lat="44.45083" lon="6.57538">
        <ele>2624</ele>
        <time>2021-04-08T10:30:23Z</time>
      </trkpt>
      <trkpt lat="44.45083" lon="6.57538">
        <ele>2624</ele>
        <time>2021-04-08T10:30:24Z</time>
      </trkpt>
      <trkpt lat="44.45083" lon="6.57538">
        <ele>2624</ele>
        <time>2021-04-08T10:30:25Z</time>
      </trkpt>
      <trkpt lat="44.45083" lon="6.57538">
        <ele>2624</ele>
        <time>2021-04-08T10:30:26Z</time>
      </trkpt>
      <trkpt lat="44.45083" lon="6.57538">
        <ele>2624</ele>
        <time>2021-04-08T10:30:27Z</time>
      </trkpt>
      <trkpt lat="44.45083" lon="6.57538">
        <ele>2624</ele>
        <time>2021-04-08T10:30:28Z</time>
      </trkpt>
      <trkpt lat="44.45083" lon="6.57538">
        <ele>2624</ele>
        <time>2021-04-08T10:30:29Z</time>
      </trkpt>
      <trkpt lat="44.45083" lon="6.57538">
        <ele>2624</ele>
        <time>2021-04-08T10:30:30Z</time>
      </trkpt>
      <trkpt lat="44.45083" lon="6.57538">
        <ele>2624</ele>
        <time>2021-04-08T10:30:31Z</time>
      </trkpt>
      <trkpt lat="44.45083" lon="6.57538">
        <ele>2624</ele>
        <time>2021-04-08T10:30:32Z</time>
      </trkpt>
      <trkpt lat="44.45083" lon="6.57538">
        <ele>2624</ele>
        <time>2021-04-08T10:30:33Z</time>
      </trkpt>
      <trkpt lat="44.45083" lon="6.57538">
        <ele>2624</ele>
        <time>2021-04-08T10:30:34Z</time>
      </trkpt>
      <trkpt lat="44.45083" lon="6.57538">
        <ele>2624</ele>
        <time>2021-04-08T10:30:35Z</time>
      </trkpt>
      <trkpt lat="44.45083" lon="6.57538">
        <ele>2624</ele>
        <time>2021-04-08T10:30:36Z</time>
      </trkpt>
      <trkpt lat="44.45083" lon="6.57538">
        <ele>2624</ele>
        <time>2021-04-08T10:30:37Z</time>
      </trkpt>
      <trkpt lat="44.45083" lon="6.57538">
        <ele>2624</ele>
        <time>2021-04-08T10:30:38Z</time>
      </trkpt>
      <trkpt lat="44.45083" lon="6.57538">
        <ele>2624</ele>
        <time>2021-04-08T10:30:39Z</time>
      </trkpt>
      <trkpt lat="44.45083" lon="6.57538">
        <ele>2624</ele>
        <time>2021-04-08T10:30:40Z</time>
      </trkpt>
      <trkpt lat="44.45083" lon="6.57538">
        <ele>2624</ele>
        <time>2021-04-08T10:30:41Z</time>
      </trkpt>
      <trkpt lat="44.45083" lon="6.57538">
        <ele>2624</ele>
        <time>2021-04-08T10:30:42Z</time>
      </trkpt>
      <trkpt lat="44.45083" lon="6.57538">
        <ele>2624</ele>
        <time>2021-04-08T10:30:43Z</time>
      </trkpt>
      <trkpt lat="44.45083" lon="6.57538">
        <ele>2624</ele>
        <time>2021-04-08T10:30:44Z</time>
      </trkpt>
      <trkpt lat="44.45083" lon="6.57538">
        <ele>2624</ele>
        <time>2021-04-08T10:30:45Z</time>
      </trkpt>
      <trkpt lat="44.45083" lon="6.57538">
        <ele>2624</ele>
        <time>2021-04-08T10:30:46Z</time>
      </trkpt>
      <trkpt lat="44.45083" lon="6.57538">
        <ele>2624</ele>
        <time>2021-04-08T10:30:47Z</time>
      </trkpt>
      <trkpt lat="44.45083" lon="6.57538">
        <ele>2624</ele>
        <time>2021-04-08T10:30:48Z</time>
      </trkpt>
      <trkpt lat="44.45083" lon="6.57538">
        <ele>2624</ele>
        <time>2021-04-08T10:30:49Z</time>
      </trkpt>
      <trkpt lat="44.45083" lon="6.57538">
        <ele>2624</ele>
        <time>2021-04-08T10:30:50Z</time>
      </trkpt>
      <trkpt lat="44.45083" lon="6.57538">
        <ele>2624</ele>
        <time>2021-04-08T10:30:51Z</time>
      </trkpt>
      <trkpt lat="44.45083" lon="6.57538">
        <ele>2624</ele>
        <time>2021-04-08T10:30:52Z</time>
      </trkpt>
      <trkpt lat="44.45083" lon="6.57538">
        <ele>2624</ele>
        <time>2021-04-08T10:30:53Z</time>
      </trkpt>
      <trkpt lat="44.45083" lon="6.57538">
        <ele>2624</ele>
        <time>2021-04-08T10:30:54Z</time>
      </trkpt>
      <trkpt lat="44.45083" lon="6.57538">
        <ele>2624</ele>
        <time>2021-04-08T10:30:55Z</time>
      </trkpt>
      <trkpt lat="44.45083" lon="6.57538">
        <ele>2624</ele>
        <time>2021-04-08T10:30:56Z</time>
      </trkpt>
      <trkpt lat="44.45083" lon="6.57538">
        <ele>2624</ele>
        <time>2021-04-08T10:30:57Z</time>
      </trkpt>
      <trkpt lat="44.45083" lon="6.57538">
        <ele>2624</ele>
        <time>2021-04-08T10:30:58Z</time>
      </trkpt>
      <trkpt lat="44.45083" lon="6.57538">
        <ele>2624</ele>
        <time>2021-04-08T10:30:59Z</time>
      </trkpt>
      <trkpt lat="44.45083" lon="6.57538">
        <ele>2624</ele>
        <time>2021-04-08T10:31:00Z</time>
      </trkpt>
      <trkpt lat="44.45083" lon="6.57538">
        <ele>2624</ele>
        <time>2021-04-08T10:31:01Z</time>
      </trkpt>
      <trkpt lat="44.45083" lon="6.57538">
        <ele>2624</ele>
        <time>2021-04-08T10:31:02Z</time>
      </trkpt>
      <trkpt lat="44.45083" lon="6.57538">
        <ele>2624</ele>
        <time>2021-04-08T10:31:03Z</time>
      </trkpt>
      <trkpt lat="44.45083" lon="6.57538">
        <ele>2624</ele>
        <time>2021-04-08T10:31:04Z</time>
      </trkpt>
      <trkpt lat="44.45083" lon="6.57538">
        <ele>2624</ele>
        <time>2021-04-08T10:31:05Z</time>
      </trkpt>
      <trkpt lat="44.45083" lon="6.57538">
        <ele>2624</ele>
        <time>2021-04-08T10:31:06Z</time>
      </trkpt>
      <trkpt lat="44.45083" lon="6.57538">
        <ele>2624</ele>
        <time>2021-04-08T10:31:07Z</time>
      </trkpt>
      <trkpt lat="44.45083" lon="6.57538">
        <ele>2624</ele>
        <time>2021-04-08T10:31:08Z</time>
      </trkpt>
      <trkpt lat="44.45083" lon="6.57538">
        <ele>2624</ele>
        <time>2021-04-08T10:31:09Z</time>
      </trkpt>
      <trkpt lat="44.45083" lon="6.57538">
        <ele>2624</ele>
        <time>2021-04-08T10:31:10Z</time>
      </trkpt>
      <trkpt lat="44.45083" lon="6.57538">
        <ele>2624</ele>
        <time>2021-04-08T10:31:11Z</time>
      </trkpt>
      <trkpt lat="44.45083" lon="6.57538">
        <ele>2624</ele>
        <time>2021-04-08T10:31:12Z</time>
      </trkpt>
      <trkpt lat="44.45083" lon="6.57538">
        <ele>2624</ele>
        <time>2021-04-08T10:31:13Z</time>
      </trkpt>
      <trkpt lat="44.45083" lon="6.57538">
        <ele>2624</ele>
        <time>2021-04-08T10:31:14Z</time>
      </trkpt>
      <trkpt lat="44.45083" lon="6.57538">
        <ele>2624</ele>
        <time>2021-04-08T10:31:15Z</time>
      </trkpt>
      <trkpt lat="44.45083" lon="6.57538">
        <ele>2624</ele>
        <time>2021-04-08T10:31:16Z</time>
      </trkpt>
      <trkpt lat="44.45083" lon="6.57538">
        <ele>2624</ele>
        <time>2021-04-08T10:31:17Z</time>
      </trkpt>
      <trkpt lat="44.45083" lon="6.57538">
        <ele>2624</ele>
        <time>2021-04-08T10:31:18Z</time>
      </trkpt>
      <trkpt lat="44.45083" lon="6.57538">
        <ele>2624</ele>
        <time>2021-04-08T10:31:19Z</time>
      </trkpt>
      <trkpt lat="44.45083" lon="6.57538">
        <ele>2624</ele>
        <time>2021-04-08T10:31:20Z</time>
      </trkpt>
      <trkpt lat="44.45083" lon="6.57538">
        <ele>2624</ele>
        <time>2021-04-08T10:31:21Z</time>
      </trkpt>
      <trkpt lat="44.45083" lon="6.57538">
        <ele>2624</ele>
        <time>2021-04-08T10:31:22Z</time>
      </trkpt>
      <trkpt lat="44.45083" lon="6.57538">
        <ele>2624</ele>
        <time>2021-04-08T10:31:23Z</time>
      </trkpt>
      <trkpt lat="44.45083" lon="6.57538">
        <ele>2624</ele>
        <time>2021-04-08T10:31:24Z</time>
      </trkpt>
      <trkpt lat="44.45083" lon="6.57538">
        <ele>2624</ele>
        <time>2021-04-08T10:31:25Z</time>
      </trkpt>
      <trkpt lat="44.45083" lon="6.57538">
        <ele>2624</ele>
        <time>2021-04-08T10:31:26Z</time>
      </trkpt>
      <trkpt lat="44.45083" lon="6.57538">
        <ele>2624</ele>
        <time>2021-04-08T10:31:27Z</time>
      </trkpt>
      <trkpt lat="44.45083" lon="6.57538">
        <ele>2624</ele>
        <time>2021-04-08T10:31:28Z</time>
      </trkpt>
      <trkpt lat="44.45083" lon="6.57538">
        <ele>2624</ele>
        <time>2021-04-08T10:31:29Z</time>
      </trkpt>
      <trkpt lat="44.45083" lon="6.57538">
        <ele>2624</ele>
        <time>2021-04-08T10:31:30Z</time>
      </trkpt>
      <trkpt lat="44.45083" lon="6.57538">
        <ele>2624</ele>
        <time>2021-04-08T10:31:31Z</time>
      </trkpt>
      <trkpt lat="44.45083" lon="6.57538">
        <ele>2624</ele>
        <time>2021-04-08T10:31:32Z</time>
      </trkpt>
      <trkpt lat="44.45083" lon="6.57538">
        <ele>2624</ele>
        <time>2021-04-08T10:31:33Z</time>
      </trkpt>
      <trkpt lat="44.45083" lon="6.57538">
        <ele>2624</ele>
        <time>2021-04-08T10:31:34Z</time>
      </trkpt>
      <trkpt lat="44.45083" lon="6.57538">
        <ele>2624</ele>
        <time>2021-04-08T10:31:35Z</time>
      </trkpt>
      <trkpt lat="44.45083" lon="6.57538">
        <ele>2624</ele>
        <time>2021-04-08T10:31:36Z</time>
      </trkpt>
      <trkpt lat="44.45083" lon="6.57538">
        <ele>2624</ele>
        <time>2021-04-08T10:31:37Z</time>
      </trkpt>
      <trkpt lat="44.45083" lon="6.57538">
        <ele>2624</ele>
        <time>2021-04-08T10:31:38Z</time>
      </trkpt>
      <trkpt lat="44.45083" lon="6.57538">
        <ele>2624</ele>
        <time>2021-04-08T10:31:39Z</time>
      </trkpt>
      <trkpt lat="44.45083" lon="6.57538">
        <ele>2624</ele>
        <time>2021-04-08T10:31:40Z</time>
      </trkpt>
      <trkpt lat="44.45083" lon="6.57538">
        <ele>2624</ele>
        <time>2021-04-08T10:31:41Z</time>
      </trkpt>
      <trkpt lat="44.45083" lon="6.57538">
        <ele>2624</ele>
        <time>2021-04-08T10:31:42Z</time>
      </trkpt>
      <trkpt lat="44.45083" lon="6.57538">
        <ele>2624</ele>
        <time>2021-04-08T10:31:43Z</time>
      </trkpt>
      <trkpt lat="44.45083" lon="6.57538">
        <ele>2624</ele>
        <time>2021-04-08T10:31:44Z</time>
      </trkpt>
      <trkpt lat="44.45083" lon="6.57538">
        <ele>2624</ele>
        <time>2021-04-08T10:31:45Z</time>
      </trkpt>
      <trkpt lat="44.45083" lon="6.57538">
        <ele>2624</ele>
        <time>2021-04-08T10:31:46Z</time>
      </trkpt>
      <trkpt lat="44.45083" lon="6.57538">
        <ele>2624</ele>
        <time>2021-04-08T10:31:47Z</time>
      </trkpt>
      <trkpt lat="44.45083" lon="6.57538">
        <ele>2624</ele>
        <time>2021-04-08T10:31:48Z</time>
      </trkpt>
      <trkpt lat="44.45083" lon="6.57538">
        <ele>2624</ele>
        <time>2021-04-08T10:31:49Z</time>
      </trkpt>
      <trkpt lat="44.45083" lon="6.57538">
        <ele>2624</ele>
        <time>2021-04-08T10:31:50Z</time>
      </trkpt>
      <trkpt lat="44.45083" lon="6.57538">
        <ele>2624</ele>
        <time>2021-04-08T10:31:51Z</time>
      </trkpt>
      <trkpt lat="44.45083" lon="6.57538">
        <ele>2624</ele>
        <time>2021-04-08T10:31:52Z</time>
      </trkpt>
      <trkpt lat="44.45083" lon="6.57538">
        <ele>2624</ele>
        <time>2021-04-08T10:31:53Z</time>
      </trkpt>
      <trkpt lat="44.45083" lon="6.57538">
        <ele>2624</ele>
        <time>2021-04-08T10:31:54Z</time>
      </trkpt>
      <trkpt lat="44.45083" lon="6.57538">
        <ele>2624</ele>
        <time>2021-04-08T10:31:55Z</time>
      </trkpt>
      <trkpt lat="44.45083" lon="6.57538">
        <ele>2624</ele>
        <time>2021-04-08T10:31:56Z</time>
      </trkpt>
      <trkpt lat="44.45083" lon="6.57538">
        <ele>2624</ele>
        <time>2021-04-08T10:31:57Z</time>
      </trkpt>
      <trkpt lat="44.45083" lon="6.57538">
        <ele>2624</ele>
        <time>2021-04-08T10:31:58Z</time>
      </trkpt>
      <trkpt lat="44.45083" lon="6.57538">
        <ele>2624</ele>
        <time>2021-04-08T10:31:59Z</time>
      </trkpt>
      <trkpt lat="44.45083" lon="6.57538">
        <ele>2624</ele>
        <time>2021-04-08T10:32:00Z</time>
      </trkpt>
      <trkpt lat="44.45083" lon="6.57538">
        <ele>2624</ele>
        <time>2021-04-08T10:32:01Z</time>
      </trkpt>
      <trkpt lat="44.45083" lon="6.57538">
        <ele>2624</ele>
        <time>2021-04-08T10:32:02Z</time>
      </trkpt>
      <trkpt lat="44.45083" lon="6.57538">
        <ele>2624</ele>
        <time>2021-04-08T10:32:03Z</time>
      </trkpt>
      <trkpt lat="44.45083" lon="6.57538">
        <ele>2624</ele>
        <time>2021-04-08T10:32:04Z</time>
      </trkpt>
      <trkpt lat="44.45083" lon="6.57538">
        <ele>2624</ele>
        <time>2021-04-08T10:32:05Z</time>
      </trkpt>
      <trkpt lat="44.45083" lon="6.57538">
        <ele>2624</ele>
        <time>2021-04-08T10:32:06Z</time>
      </trkpt>
      <trkpt lat="44.45083" lon="6.57538">
        <ele>2624</ele>
        <time>2021-04-08T10:32:07Z</time>
      </trkpt>
      <trkpt lat="44.45083" lon="6.57538">
        <ele>2624</ele>
        <time>2021-04-08T10:32:08Z</time>
      </trkpt>
      <trkpt lat="44.45083" lon="6.57538">
        <ele>2624</ele>
        <time>2021-04-08T10:32:09Z</time>
      </trkpt>
      <trkpt lat="44.45083" lon="6.57538">
        <ele>2624</ele>
        <time>2021-04-08T10:32:10Z</time>
      </trkpt>
      <trkpt lat="44.45083" lon="6.57538">
        <ele>2624</ele>
        <time>2021-04-08T10:32:11Z</time>
      </trkpt>
      <trkpt lat="44.45083" lon="6.57538">
        <ele>2624</ele>
        <time>2021-04-08T10:32:12Z</time>
      </trkpt>
      <trkpt lat="44.45083" lon="6.57538">
        <ele>2624</ele>
        <time>2021-04-08T10:32:13Z</time>
      </trkpt>
      <trkpt lat="44.45083" lon="6.57538">
        <ele>2624</ele>
        <time>2021-04-08T10:32:14Z</time>
      </trkpt>
      <trkpt lat="44.45083" lon="6.57538">
        <ele>2624</ele>
        <time>2021-04-08T10:32:15Z</time>
      </trkpt>
      <trkpt lat="44.45083" lon="6.57538">
        <ele>2624</ele>
        <time>2021-04-08T10:32:16Z</time>
      </trkpt>
      <trkpt lat="44.45083" lon="6.57538">
        <ele>2624</ele>
        <time>2021-04-08T10:32:17Z</time>
      </trkpt>
      <trkpt lat="44.45083" lon="6.57538">
        <ele>2624</ele>
        <time>2021-04-08T10:32:18Z</time>
      </trkpt>
      <trkpt lat="44.45083" lon="6.57538">
        <ele>2624</ele>
        <time>2021-04-08T10:32:19Z</time>
      </trkpt>
      <trkpt lat="44.45083" lon="6.57538">
        <ele>2624</ele>
        <time>2021-04-08T10:32:20Z</time>
      </trkpt>
      <trkpt lat="44.45083" lon="6.57538">
        <ele>2624</ele>
        <time>2021-04-08T10:32:21Z</time>
      </trkpt>
      <trkpt lat="44.45083" lon="6.57538">
        <ele>2624</ele>
        <time>2021-04-08T10:32:22Z</time>
      </trkpt>
      <trkpt lat="44.45083" lon="6.57538">
        <ele>2624</ele>
        <time>2021-04-08T10:32:23Z</time>
      </trkpt>
      <trkpt lat="44.45083" lon="6.57538">
        <ele>2624</ele>
        <time>2021-04-08T10:32:24Z</time>
      </trkpt>
      <trkpt lat="44.45083" lon="6.57538">
        <ele>2624</ele>
        <time>2021-04-08T10:32:25Z</time>
      </trkpt>
      <trkpt lat="44.45083" lon="6.57538">
        <ele>2624</ele>
        <time>2021-04-08T10:32:26Z</time>
      </trkpt>
      <trkpt lat="44.45083" lon="6.57538">
        <ele>2624</ele>
        <time>2021-04-08T10:32:27Z</time>
      </trkpt>
      <trkpt lat="44.45083" lon="6.57538">
        <ele>2624</ele>
        <time>2021-04-08T10:32:28Z</time>
      </trkpt>
      <trkpt lat="44.45083" lon="6.57538">
        <ele>2624</ele>
        <time>2021-04-08T10:32:29Z</time>
      </trkpt>
      <trkpt lat="44.45083" lon="6.57538">
        <ele>2624</ele>
        <time>2021-04-08T10:32:30Z</time>
      </trkpt>
      <trkpt lat="44.45083" lon="6.57538">
        <ele>2624</ele>
        <time>2021-04-08T10:32:31Z</time>
      </trkpt>
      <trkpt lat="44.45083" lon="6.57538">
        <ele>2624</ele>
        <time>2021-04-08T10:32:32Z</time>
      </trkpt>
      <trkpt lat="44.45083" lon="6.57538">
        <ele>2624</ele>
        <time>2021-04-08T10:32:33Z</time>
      </trkpt>
      <trkpt lat="44.45083" lon="6.57538">
        <ele>2624</ele>
        <time>2021-04-08T10:32:34Z</time>
      </trkpt>
      <trkpt lat="44.45083" lon="6.57538">
        <ele>2624</ele>
        <time>2021-04-08T10:32:35Z</time>
      </trkpt>
      <trkpt lat="44.45083" lon="6.57538">
        <ele>2624</ele>
        <time>2021-04-08T10:32:36Z</time>
      </trkpt>
      <trkpt lat="44.45083" lon="6.57538">
        <ele>2624</ele>
        <time>2021-04-08T10:32:37Z</time>
      </trkpt>
      <trkpt lat="44.45083" lon="6.57538">
        <ele>2624</ele>
        <time>2021-04-08T10:32:38Z</time>
      </trkpt>
      <trkpt lat="44.45083" lon="6.57538">
        <ele>2624</ele>
        <time>2021-04-08T10:32:39Z</time>
      </trkpt>
      <trkpt lat="44.45083" lon="6.57538">
        <ele>2624</ele>
        <time>2021-04-08T10:32:40Z</time>
      </trkpt>
      <trkpt lat="44.45083" lon="6.57538">
        <ele>2624</ele>
        <time>2021-04-08T10:32:41Z</time>
      </trkpt>
      <trkpt lat="44.45083" lon="6.57538">
        <ele>2624</ele>
        <time>2021-04-08T10:32:42Z</time>
      </trkpt>
      <trkpt lat="44.45083" lon="6.57538">
        <ele>2624</ele>
        <time>2021-04-08T10:32:43Z</time>
      </trkpt>
      <trkpt lat="44.45083" lon="6.57538">
        <ele>2624</ele>
        <time>2021-04-08T10:32:44Z</time>
      </trkpt>
      <trkpt lat="44.45083" lon="6.57538">
        <ele>2624</ele>
        <time>2021-04-08T10:32:45Z</time>
      </trkpt>
      <trkpt lat="44.45083" lon="6.57538">
        <ele>2624</ele>
        <time>2021-04-08T10:32:46Z</time>
      </trkpt>
      <trkpt lat="44.45083" lon="6.57538">
        <ele>2624</ele>
        <time>2021-04-08T10:32:47Z</time>
      </trkpt>
      <trkpt lat="44.45083" lon="6.57538">
        <ele>2624</ele>
        <time>2021-04-08T10:32:48Z</time>
      </trkpt>
      <trkpt lat="44.45083" lon="6.57538">
        <ele>2624</ele>
        <time>2021-04-08T10:32:49Z</time>
      </trkpt>
      <trkpt lat="44.45083" lon="6.57538">
        <ele>2624</ele>
        <time>2021-04-08T10:32:50Z</time>
      </trkpt>
      <trkpt lat="44.45083" lon="6.57538">
        <ele>2624</ele>
        <time>2021-04-08T10:32:51Z</time>
      </trkpt>
      <trkpt lat="44.45083" lon="6.57538">
        <ele>2624</ele>
        <time>2021-04-08T10:32:52Z</time>
      </trkpt>
      <trkpt lat="44.45083" lon="6.57538">
        <ele>2624</ele>
        <time>2021-04-08T10:32:53Z</time>
      </trkpt>
      <trkpt lat="44.45083" lon="6.57538">
        <ele>2624</ele>
        <time>2021-04-08T10:32:54Z</time>
      </trkpt>
      <trkpt lat="44.45083" lon="6.57538">
        <ele>2624</ele>
        <time>2021-04-08T10:32:55Z</time>
      </trkpt>
      <trkpt lat="44.45083" lon="6.57538">
        <ele>2624</ele>
        <time>2021-04-08T10:32:56Z</time>
      </trkpt>
      <trkpt lat="44.45083" lon="6.57538">
        <ele>2624</ele>
        <time>2021-04-08T10:32:57Z</time>
      </trkpt>
      <trkpt lat="44.45083" lon="6.57538">
        <ele>2624</ele>
        <time>2021-04-08T10:32:58Z</time>
      </trkpt>
      <trkpt lat="44.45083" lon="6.57538">
        <ele>2624</ele>
        <time>2021-04-08T10:32:59Z</time>
      </trkpt>
      <trkpt lat="44.45083" lon="6.57538">
        <ele>2624</ele>
        <time>2021-04-08T10:33:00Z</time>
      </trkpt>
      <trkpt lat="44.45083" lon="6.57538">
        <ele>2624</ele>
        <time>2021-04-08T10:33:01Z</time>
      </trkpt>
      <trkpt lat="44.45083" lon="6.57538">
        <ele>2624</ele>
        <time>2021-04-08T10:33:02Z</time>
      </trkpt>
      <trkpt lat="44.45083" lon="6.57538">
        <ele>2624</ele>
        <time>2021-04-08T10:33:03Z</time>
      </trkpt>
      <trkpt lat="44.45083" lon="6.57538">
        <ele>2624</ele>
        <time>2021-04-08T10:33:04Z</time>
      </trkpt>
      <trkpt lat="44.45083" lon="6.57538">
        <ele>2624</ele>
        <time>2021-04-08T10:33:05Z</time>
      </trkpt>
      <trkpt lat="44.45083" lon="6.57538">
        <ele>2624</ele>
        <time>2021-04-08T10:33:06Z</time>
      </trkpt>
      <trkpt lat="44.45083" lon="6.57538">
        <ele>2624</ele>
        <time>2021-04-08T10:33:07Z</time>
      </trkpt>
      <trkpt lat="44.45083" lon="6.57538">
        <ele>2624</ele>
        <time>2021-04-08T10:33:08Z</time>
      </trkpt>
      <trkpt lat="44.45083" lon="6.57538">
        <ele>2624</ele>
        <time>2021-04-08T10:33:09Z</time>
      </trkpt>
      <trkpt lat="44.45083" lon="6.57538">
        <ele>2624</ele>
        <time>2021-04-08T10:33:10Z</time>
      </trkpt>
      <trkpt lat="44.45083" lon="6.57538">
        <ele>2624</ele>
        <time>2021-04-08T10:33:11Z</time>
      </trkpt>
      <trkpt lat="44.45083" lon="6.57538">
        <ele>2624</ele>
        <time>2021-04-08T10:33:12Z</time>
      </trkpt>
      <trkpt lat="44.45083" lon="6.57538">
        <ele>2624</ele>
        <time>2021-04-08T10:33:13Z</time>
      </trkpt>
      <trkpt lat="44.45083" lon="6.57538">
        <ele>2624</ele>
        <time>2021-04-08T10:33:14Z</time>
      </trkpt>
      <trkpt lat="44.45083" lon="6.57538">
        <ele>2624</ele>
        <time>2021-04-08T10:33:15Z</time>
      </trkpt>
      <trkpt lat="44.45083" lon="6.57538">
        <ele>2624</ele>
        <time>2021-04-08T10:33:16Z</time>
      </trkpt>
      <trkpt lat="44.45083" lon="6.57538">
        <ele>2624</ele>
        <time>2021-04-08T10:33:17Z</time>
      </trkpt>
      <trkpt lat="44.45083" lon="6.57538">
        <ele>2624</ele>
        <time>2021-04-08T10:33:18Z</time>
      </trkpt>
      <trkpt lat="44.45083" lon="6.57538">
        <ele>2624</ele>
        <time>2021-04-08T10:33:19Z</time>
      </trkpt>
      <trkpt lat="44.45083" lon="6.57538">
        <ele>2624</ele>
        <time>2021-04-08T10:33:20Z</time>
      </trkpt>
      <trkpt lat="44.45083" lon="6.57538">
        <ele>2624</ele>
        <time>2021-04-08T10:33:21Z</time>
      </trkpt>
      <trkpt lat="44.45083" lon="6.57538">
        <ele>2624</ele>
        <time>2021-04-08T10:33:22Z</time>
      </trkpt>
      <trkpt lat="44.45083" lon="6.57538">
        <ele>2624</ele>
        <time>2021-04-08T10:33:23Z</time>
      </trkpt>
      <trkpt lat="44.45083" lon="6.57538">
        <ele>2624</ele>
        <time>2021-04-08T10:33:24Z</time>
      </trkpt>
      <trkpt lat="44.45083" lon="6.57538">
        <ele>2624</ele>
        <time>2021-04-08T10:33:25Z</time>
      </trkpt>
      <trkpt lat="44.45083" lon="6.57538">
        <ele>2624</ele>
        <time>2021-04-08T10:33:26Z</time>
      </trkpt>
      <trkpt lat="44.45083" lon="6.57538">
        <ele>2624</ele>
        <time>2021-04-08T10:33:27Z</time>
      </trkpt>
      <trkpt lat="44.45083" lon="6.57538">
        <ele>2624</ele>
        <time>2021-04-08T10:33:28Z</time>
      </trkpt>
      <trkpt lat="44.45083" lon="6.57538">
        <ele>2624</ele>
        <time>2021-04-08T10:33:29Z</time>
      </trkpt>
      <trkpt lat="44.45083" lon="6.57538">
        <ele>2624</ele>
        <time>2021-04-08T10:33:30Z</time>
      </trkpt>
      <trkpt lat="44.45083" lon="6.57538">
        <ele>2624</ele>
        <time>2021-04-08T10:33:31Z</time>
      </trkpt>
      <trkpt lat="44.45083" lon="6.57538">
        <ele>2624</ele>
        <time>2021-04-08T10:33:32Z</time>
      </trkpt>
      <trkpt lat="44.45083" lon="6.57538">
        <ele>2624</ele>
        <time>2021-04-08T10:33:33Z</time>
      </trkpt>
      <trkpt lat="44.45083" lon="6.57538">
        <ele>2624</ele>
        <time>2021-04-08T10:33:34Z</time>
      </trkpt>
      <trkpt lat="44.45083" lon="6.57538">
        <ele>2624</ele>
        <time>2021-04-08T10:33:35Z</time>
      </trkpt>
      <trkpt lat="44.45083" lon="6.57538">
        <ele>2624</ele>
        <time>2021-04-08T10:33:36Z</time>
      </trkpt>
      <trkpt lat="44.45083" lon="6.57538">
        <ele>2624</ele>
        <time>2021-04-08T10:33:37Z</time>
      </trkpt>
      <trkpt lat="44.45083" lon="6.57538">
        <ele>2624</ele>
        <time>2021-04-08T10:33:38Z</time>
      </trkpt>
      <trkpt lat="44.45083" lon="6.57538">
        <ele>2624</ele>
        <time>2021-04-08T10:33:39Z</time>
      </trkpt>
      <trkpt lat="44.45083" lon="6.57538">
        <ele>2624</ele>
        <time>2021-04-08T10:33:40Z</time>
      </trkpt>
      <trkpt lat="44.45083" lon="6.57538">
        <ele>2624</ele>
        <time>2021-04-08T10:33:41Z</time>
      </trkpt>
      <trkpt lat="44.45083" lon="6.57538">
        <ele>2624</ele>
        <time>2021-04-08T10:33:42Z</time>
      </trkpt>
      <trkpt lat="44.45083" lon="6.57538">
        <ele>2624</ele>
        <time>2021-04-08T10:33:43Z</time>
      </trkpt>
      <trkpt lat="44.45083" lon="6.57538">
        <ele>2624</ele>
        <time>2021-04-08T10:33:44Z</time>
      </trkpt>
      <trkpt lat="44.45083" lon="6.57538">
        <ele>2624</ele>
        <time>2021-04-08T10:33:45Z</time>
      </trkpt>
      <trkpt lat="44.45083" lon="6.57538">
        <ele>2624</ele>
        <time>2021-04-08T10:33:46Z</time>
      </trkpt>
      <trkpt lat="44.45083" lon="6.57538">
        <ele>2624</ele>
        <time>2021-04-08T10:33:47Z</time>
      </trkpt>
      <trkpt lat="44.45083" lon="6.57538">
        <ele>2624</ele>
        <time>2021-04-08T10:33:48Z</time>
      </trkpt>
      <trkpt lat="44.45083" lon="6.57538">
        <ele>2624</ele>
        <time>2021-04-08T10:33:49Z</time>
      </trkpt>
      <trkpt lat="44.45083" lon="6.57538">
        <ele>2624</ele>
        <time>2021-04-08T10:33:50Z</time>
      </trkpt>
      <trkpt lat="44.45083" lon="6.57538">
        <ele>2624</ele>
        <time>2021-04-08T10:33:51Z</time>
      </trkpt>
      <trkpt lat="44.45083" lon="6.57538">
        <ele>2624</ele>
        <time>2021-04-08T10:33:52Z</time>
      </trkpt>
      <trkpt lat="44.45083" lon="6.57538">
        <ele>2624</ele>
        <time>2021-04-08T10:33:53Z</time>
      </trkpt>
      <trkpt lat="44.45083" lon="6.57538">
        <ele>2624</ele>
        <time>2021-04-08T10:33:54Z</time>
      </trkpt>
      <trkpt lat="44.45083" lon="6.57538">
        <ele>2624</ele>
        <time>2021-04-08T10:33:55Z</time>
      </trkpt>
      <trkpt lat="44.45083" lon="6.57538">
        <ele>2624</ele>
        <time>2021-04-08T10:33:56Z</time>
      </trkpt>
      <trkpt lat="44.45083" lon="6.57538">
        <ele>2624</ele>
        <time>2021-04-08T10:33:57Z</time>
      </trkpt>
      <trkpt lat="44.45083" lon="6.57538">
        <ele>2624</ele>
        <time>2021-04-08T10:33:58Z</time>
      </trkpt>
      <trkpt lat="44.45083" lon="6.57538">
        <ele>2624</ele>
        <time>2021-04-08T10:33:59Z</time>
      </trkpt>
      <trkpt lat="44.45083" lon="6.57538">
        <ele>2624</ele>
        <time>2021-04-08T10:34:00Z</time>
      </trkpt>
      <trkpt lat="44.45083" lon="6.57538">
        <ele>2624</ele>
        <time>2021-04-08T10:34:01Z</time>
      </trkpt>
      <trkpt lat="44.45083" lon="6.57538">
        <ele>2624</ele>
        <time>2021-04-08T10:34:02Z</time>
      </trkpt>
      <trkpt lat="44.45083" lon="6.57538">
        <ele>2624</ele>
        <time>2021-04-08T10:34:03Z</time>
      </trkpt>
      <trkpt lat="44.45083" lon="6.57538">
        <ele>2624</ele>
        <time>2021-04-08T10:34:04Z</time>
      </trkpt>
      <trkpt lat="44.45083" lon="6.57538">
        <ele>2624</ele>
        <time>2021-04-08T10:34:05Z</time>
      </trkpt>
      <trkpt lat="44.45083" lon="6.57538">
        <ele>2624</ele>
        <time>2021-04-08T10:34:06Z</time>
      </trkpt>
      <trkpt lat="44.45083" lon="6.57538">
        <ele>2624</ele>
        <time>2021-04-08T10:34:07Z</time>
      </trkpt>
      <trkpt lat="44.45083" lon="6.57538">
        <ele>2624</ele>
        <time>2021-04-08T10:34:08Z</time>
      </trkpt>
      <trkpt lat="44.45083" lon="6.57538">
        <ele>2624</ele>
        <time>2021-04-08T10:34:09Z</time>
      </trkpt>
      <trkpt lat="44.45083" lon="6.57538">
        <ele>2624</ele>
        <time>2021-04-08T10:34:10Z</time>
      </trkpt>
      <trkpt lat="44.45083" lon="6.57538">
        <ele>2624</ele>
        <time>2021-04-08T10:34:11Z</time>
      </trkpt>
      <trkpt lat="44.45083" lon="6.57538">
        <ele>2624</ele>
        <time>2021-04-08T10:34:12Z</time>
      </trkpt>
      <trkpt lat="44.45083" lon="6.57538">
        <ele>2624</ele>
        <time>2021-04-08T10:34:13Z</time>
      </trkpt>
      <trkpt lat="44.45083" lon="6.57538">
        <ele>2624</ele>
        <time>2021-04-08T10:34:14Z</time>
      </trkpt>
      <trkpt lat="44.45083" lon="6.57538">
        <ele>2624</ele>
        <time>2021-04-08T10:34:15Z</time>
      </trkpt>
      <trkpt lat="44.45083" lon="6.57538">
        <ele>2624</ele>
        <time>2021-04-08T10:34:16Z</time>
      </trkpt>
      <trkpt lat="44.45083" lon="6.57538">
        <ele>2624</ele>
        <time>2021-04-08T10:34:17Z</time>
      </trkpt>
      <trkpt lat="44.45083" lon="6.57538">
        <ele>2624</ele>
        <time>2021-04-08T10:34:18Z</time>
      </trkpt>
      <trkpt lat="44.45083" lon="6.57538">
        <ele>2624</ele>
        <time>2021-04-08T10:34:19Z</time>
      </trkpt>
      <trkpt lat="44.45083" lon="6.57538">
        <ele>2624</ele>
        <time>2021-04-08T10:34:20Z</time>
      </trkpt>
      <trkpt lat="44.45083" lon="6.57538">
        <ele>2624</ele>
        <time>2021-04-08T10:34:21Z</time>
      </trkpt>
      <trkpt lat="44.45083" lon="6.57538">
        <ele>2624</ele>
        <time>2021-04-08T10:34:22Z</time>
      </trkpt>
      <trkpt lat="44.45083" lon="6.57538">
        <ele>2624</ele>
        <time>2021-04-08T10:34:23Z</time>
      </trkpt>
      <trkpt lat="44.45083" lon="6.57538">
        <ele>2624</ele>
        <time>2021-04-08T10:34:24Z</time>
      </trkpt>
      <trkpt lat="44.45083" lon="6.57538">
        <ele>2624</ele>
        <time>2021-04-08T10:34:25Z</time>
      </trkpt>
      <trkpt lat="44.45083" lon="6.57538">
        <ele>2624</ele>
        <time>2021-04-08T10:34:26Z</time>
      </trkpt>
      <trkpt lat="44.45083" lon="6.57538">
        <ele>2624</ele>
        <time>2021-04-08T10:34:27Z</time>
      </trkpt>
      <trkpt lat="44.45083" lon="6.57538">
        <ele>2624</ele>
        <time>2021-04-08T10:34:28Z</time>
      </trkpt>
      <trkpt lat="44.45083" lon="6.57538">
        <ele>2624</ele>
        <time>2021-04-08T10:34:29Z</time>
      </trkpt>
      <trkpt lat="44.45083" lon="6.57538">
        <ele>2624</ele>
        <time>2021-04-08T10:34:30Z</time>
      </trkpt>
      <trkpt lat="44.45083" lon="6.57538">
        <ele>2624</ele>
        <time>2021-04-08T10:34:31Z</time>
      </trkpt>
      <trkpt lat="44.45083" lon="6.57538">
        <ele>2624</ele>
        <time>2021-04-08T10:34:32Z</time>
      </trkpt>
      <trkpt lat="44.45083" lon="6.57538">
        <ele>2624</ele>
        <time>2021-04-08T10:34:33Z</time>
      </trkpt>
      <trkpt lat="44.45083" lon="6.57538">
        <ele>2624</ele>
        <time>2021-04-08T10:34:34Z</time>
      </trkpt>
      <trkpt lat="44.45083" lon="6.57538">
        <ele>2624</ele>
        <time>2021-04-08T10:34:35Z</time>
      </trkpt>
      <trkpt lat="44.45083" lon="6.57538">
        <ele>2624</ele>
        <time>2021-04-08T10:34:36Z</time>
      </trkpt>
      <trkpt lat="44.45083" lon="6.57538">
        <ele>2624</ele>
        <time>2021-04-08T10:34:37Z</time>
      </trkpt>
      <trkpt lat="44.45083" lon="6.57538">
        <ele>2624</ele>
        <time>2021-04-08T10:34:38Z</time>
      </trkpt>
      <trkpt lat="44.45083" lon="6.57538">
        <ele>2624</ele>
        <time>2021-04-08T10:34:39Z</time>
      </trkpt>
      <trkpt lat="44.45083" lon="6.57538">
        <ele>2624</ele>
        <time>2021-04-08T10:34:40Z</time>
      </trkpt>
      <trkpt lat="44.45083" lon="6.57538">
        <ele>2624</ele>
        <time>2021-04-08T10:34:41Z</time>
      </trkpt>
      <trkpt lat="44.45083" lon="6.57538">
        <ele>2624</ele>
        <time>2021-04-08T10:34:42Z</time>
      </trkpt>
      <trkpt lat="44.45083" lon="6.57538">
        <ele>2624</ele>
        <time>2021-04-08T10:34:43Z</time>
      </trkpt>
      <trkpt lat="44.45083" lon="6.57538">
        <ele>2624</ele>
        <time>2021-04-08T10:34:44Z</time>
      </trkpt>
      <trkpt lat="44.45083" lon="6.57538">
        <ele>2624</ele>
        <time>2021-04-08T10:34:45Z</time>
      </trkpt>
      <trkpt lat="44.45083" lon="6.57538">
        <ele>2624</ele>
        <time>2021-04-08T10:34:46Z</time>
      </trkpt>
      <trkpt lat="44.45083" lon="6.57538">
        <ele>2624</ele>
        <time>2021-04-08T10:34:47Z</time>
      </trkpt>
      <trkpt lat="44.45083" lon="6.57538">
        <ele>2624</ele>
        <time>2021-04-08T10:34:48Z</time>
      </trkpt>
      <trkpt lat="44.45083" lon="6.57538">
        <ele>2624</ele>
        <time>2021-04-08T10:34:49Z</time>
      </trkpt>
      <trkpt lat="44.45083" lon="6.57538">
        <ele>2624</ele>
        <time>2021-04-08T10:34:50Z</time>
      </trkpt>
      <trkpt lat="44.45083" lon="6.57538">
        <ele>2624</ele>
        <time>2021-04-08T10:34:51Z</time>
      </trkpt>
      <trkpt lat="44.45083" lon="6.57538">
        <ele>2624</ele>
        <time>2021-04-08T10:34:52Z</time>
      </trkpt>
      <trkpt lat="44.45083" lon="6.57538">
        <ele>2624</ele>
        <time>2021-04-08T10:34:53Z</time>
      </trkpt>
      <trkpt lat="44.45083" lon="6.57538">
        <ele>2624</ele>
        <time>2021-04-08T10:34:54Z</time>
      </trkpt>
      <trkpt lat="44.45083" lon="6.57538">
        <ele>2624</ele>
        <time>2021-04-08T10:34:55Z</time>
      </trkpt>
      <trkpt lat="44.45083" lon="6.57538">
        <ele>2624</ele>
        <time>2021-04-08T10:34:56Z</time>
      </trkpt>
      <trkpt lat="44.45083" lon="6.57538">
        <ele>2624</ele>
        <time>2021-04-08T10:34:57Z</time>
      </trkpt>
      <trkpt lat="44.45083" lon="6.57538">
        <ele>2624</ele>
        <time>2021-04-08T10:34:58Z</time>
      </trkpt>
      <trkpt lat="44.45083" lon="6.57538">
        <ele>2624</ele>
        <time>2021-04-08T10:34:59Z</time>
      </trkpt>
      <trkpt lat="44.45083" lon="6.57538">
        <ele>2624</ele>
        <time>2021-04-08T10:35:00Z</time>
      </trkpt>
      <trkpt lat="44.45083" lon="6.57538">
        <ele>2624</ele>
        <time>2021-04-08T10:35:01Z</time>
      </trkpt>
      <trkpt lat="44.45083" lon="6.57538">
        <ele>2624</ele>
        <time>2021-04-08T10:35:02Z</time>
      </trkpt>
      <trkpt lat="44.45083" lon="6.57538">
        <ele>2624</ele>
        <time>2021-04-08T10:35:03Z</time>
      </trkpt>
      <trkpt lat="44.45083" lon="6.57538">
        <ele>2624</ele>
        <time>2021-04-08T10:35:04Z</time>
      </trkpt>
      <trkpt lat="44.45083" lon="6.57538">
        <ele>2624</ele>
        <time>2021-04-08T10:35:05Z</time>
      </trkpt>
      <trkpt lat="44.45083" lon="6.57538">
        <ele>2624</ele>
        <time>2021-04-08T10:35:06Z</time>
      </trkpt>
      <trkpt lat="44.45083" lon="6.57538">
        <ele>2624</ele>
        <time>2021-04-08T10:35:07Z</time>
      </trkpt>
      <trkpt lat="44.45083" lon="6.57538">
        <ele>2624</ele>
        <time>2021-04-08T10:35:08Z</time>
      </trkpt>
      <trkpt lat="44.45083" lon="6.57538">
        <ele>2624</ele>
        <time>2021-04-08T10:35:09Z</time>
      </trkpt>
      <trkpt lat="44.45083" lon="6.57538">
        <ele>2624</ele>
        <time>2021-04-08T10:35:10Z</time>
      </trkpt>
      <trkpt lat="44.45083" lon="6.57538">
        <ele>2624</ele>
        <time>2021-04-08T10:35:11Z</time>
      </trkpt>
      <trkpt lat="44.45083" lon="6.57538">
        <ele>2624</ele>
        <time>2021-04-08T10:35:12Z</time>
      </trkpt>
      <trkpt lat="44.45083" lon="6.57538">
        <ele>2624</ele>
        <time>2021-04-08T10:35:13Z</time>
      </trkpt>
      <trkpt lat="44.45083" lon="6.57538">
        <ele>2624</ele>
        <time>2021-04-08T10:35:14Z</time>
      </trkpt>
      <trkpt lat="44.45083" lon="6.57538">
        <ele>2624</ele>
        <time>2021-04-08T10:35:15Z</time>
      </trkpt>
      <trkpt lat="44.45083" lon="6.57538">
        <ele>2624</ele>
        <time>2021-04-08T10:35:16Z</time>
      </trkpt>
      <trkpt lat="44.45083" lon="6.57538">
        <ele>2624</ele>
        <time>2021-04-08T10:35:17Z</time>
      </trkpt>
      <trkpt lat="44.45083" lon="6.57538">
        <ele>2624</ele>
        <time>2021-04-08T10:35:18Z</time>
      </trkpt>
      <trkpt lat="44.45083" lon="6.57538">
        <ele>2624</ele>
        <time>2021-04-08T10:35:19Z</time>
      </trkpt>
      <trkpt lat="44.45083" lon="6.57538">
        <ele>2624</ele>
        <time>2021-04-08T10:35:20Z</time>
      </trkpt>
      <trkpt lat="44.45083" lon="6.57538">
        <ele>2624</ele>
        <time>2021-04-08T10:35:21Z</time>
      </trkpt>
      <trkpt lat="44.45083" lon="6.57538">
        <ele>2624</ele>
        <time>2021-04-08T10:35:22Z</time>
      </trkpt>
      <trkpt lat="44.45083" lon="6.57538">
        <ele>2624</ele>
        <time>2021-04-08T10:35:23Z</time>
      </trkpt>
      <trkpt lat="44.45083" lon="6.57538">
        <ele>2624</ele>
        <time>2021-04-08T10:35:24Z</time>
      </trkpt>
      <trkpt lat="44.45083" lon="6.57538">
        <ele>2624</ele>
        <time>2021-04-08T10:35:25Z</time>
      </trkpt>
      <trkpt lat="44.45083" lon="6.57538">
        <ele>2624</ele>
        <time>2021-04-08T10:35:26Z</time>
      </trkpt>
      <trkpt lat="44.45083" lon="6.57538">
        <ele>2624</ele>
        <time>2021-04-08T10:35:27Z</time>
      </trkpt>
      <trkpt lat="44.45083" lon="6.57538">
        <ele>2624</ele>
        <time>2021-04-08T10:35:28Z</time>
      </trkpt>
      <trkpt lat="44.45083" lon="6.57538">
        <ele>2624</ele>
        <time>2021-04-08T10:35:29Z</time>
      </trkpt>
      <trkpt lat="44.45083" lon="6.57538">
        <ele>2624</ele>
        <time>2021-04-08T10:35:30Z</time>
      </trkpt>
      <trkpt lat="44.45083" lon="6.57538">
        <ele>2624</ele>
        <time>2021-04-08T10:35:31Z</time>
      </trkpt>
      <trkpt lat="44.45083" lon="6.57538">
        <ele>2624</ele>
        <time>2021-04-08T10:35:32Z</time>
      </trkpt>
      <trkpt lat="44.45083" lon="6.57538">
        <ele>2624</ele>
        <time>2021-04-08T10:35:33Z</time>
      </trkpt>
      <trkpt lat="44.45083" lon="6.57538">
        <ele>2624</ele>
        <time>2021-04-08T10:35:34Z</time>
      </trkpt>
      <trkpt lat="44.45083" lon="6.57538">
        <ele>2624</ele>
        <time>2021-04-08T10:35:35Z</time>
      </trkpt>
      <trkpt lat="44.45083" lon="6.57538">
        <ele>2624</ele>
        <time>2021-04-08T10:35:36Z</time>
      </trkpt>
      <trkpt lat="44.45083" lon="6.57538">
        <ele>2624</ele>
        <time>2021-04-08T10:35:37Z</time>
      </trkpt>
      <trkpt lat="44.45083" lon="6.57538">
        <ele>2624</ele>
        <time>2021-04-08T10:35:38Z</time>
      </trkpt>
      <trkpt lat="44.45083" lon="6.57538">
        <ele>2624</ele>
        <time>2021-04-08T10:35:39Z</time>
      </trkpt>
      <trkpt lat="44.45083" lon="6.57538">
        <ele>2624</ele>
        <time>2021-04-08T10:35:40Z</time>
      </trkpt>
      <trkpt lat="44.45083" lon="6.57538">
        <ele>2624</ele>
        <time>2021-04-08T10:35:41Z</time>
      </trkpt>
      <trkpt lat="44.45083" lon="6.57538">
        <ele>2624</ele>
        <time>2021-04-08T10:35:42Z</time>
      </trkpt>
      <trkpt lat="44.45083" lon="6.57538">
        <ele>2624</ele>
        <time>2021-04-08T10:35:43Z</time>
      </trkpt>
      <trkpt lat="44.45083" lon="6.57538">
        <ele>2624</ele>
        <time>2021-04-08T10:35:44Z</time>
      </trkpt>
      <trkpt lat="44.45083" lon="6.57538">
        <ele>2624</ele>
        <time>2021-04-08T10:35:45Z</time>
      </trkpt>
      <trkpt lat="44.45083" lon="6.57538">
        <ele>2624</ele>
        <time>2021-04-08T10:35:46Z</time>
      </trkpt>
      <trkpt lat="44.45083" lon="6.57538">
        <ele>2624</ele>
        <time>2021-04-08T10:35:47Z</time>
      </trkpt>
      <trkpt lat="44.45083" lon="6.57538">
        <ele>2624</ele>
        <time>2021-04-08T10:35:48Z</time>
      </trkpt>
      <trkpt lat="44.45083" lon="6.57538">
        <ele>2624</ele>
        <time>2021-04-08T10:35:49Z</time>
      </trkpt>
      <trkpt lat="44.45083" lon="6.57538">
        <ele>2624</ele>
        <time>2021-04-08T10:35:50Z</time>
      </trkpt>
      <trkpt lat="44.45083" lon="6.57538">
        <ele>2624</ele>
        <time>2021-04-08T10:35:51Z</time>
      </trkpt>
      <trkpt lat="44.45083" lon="6.57538">
        <ele>2624</ele>
        <time>2021-04-08T10:35:52Z</time>
      </trkpt>
      <trkpt lat="44.45083" lon="6.57538">
        <ele>2624</ele>
        <time>2021-04-08T10:35:53Z</time>
      </trkpt>
      <trkpt lat="44.45083" lon="6.57538">
        <ele>2624</ele>
        <time>2021-04-08T10:35:54Z</time>
      </trkpt>
      <trkpt lat="44.45083" lon="6.57538">
        <ele>2624</ele>
        <time>2021-04-08T10:35:55Z</time>
      </trkpt>
      <trkpt lat="44.45083" lon="6.57538">
        <ele>2624</ele>
        <time>2021-04-08T10:35:56Z</time>
      </trkpt>
      <trkpt lat="44.45083" lon="6.57538">
        <ele>2624</ele>
        <time>2021-04-08T10:35:57Z</time>
      </trkpt>
      <trkpt lat="44.45083" lon="6.57538">
        <ele>2624</ele>
        <time>2021-04-08T10:35:58Z</time>
      </trkpt>
      <trkpt lat="44.45083" lon="6.57538">
        <ele>2624</ele>
        <time>2021-04-08T10:35:59Z</time>
      </trkpt>
      <trkpt lat="44.45083" lon="6.57538">
        <ele>2624</ele>
        <time>2021-04-08T10:36:00Z</time>
      </trkpt>
      <trkpt lat="44.45083" lon="6.57538">
        <ele>2624</ele>
        <time>2021-04-08T10:36:01Z</time>
      </trkpt>
      <trkpt lat="44.45083" lon="6.57538">
        <ele>2624</ele>
        <time>2021-04-08T10:36:02Z</time>
      </trkpt>
      <trkpt lat="44.45083" lon="6.57538">
        <ele>2624</ele>
        <time>2021-04-08T10:36:03Z</time>
      </trkpt>
      <trkpt lat="44.45083" lon="6.57538">
        <ele>2624</ele>
        <time>2021-04-08T10:36:04Z</time>
      </trkpt>
      <trkpt lat="44.45083" lon="6.57538">
        <ele>2624</ele>
        <time>2021-04-08T10:36:05Z</time>
      </trkpt>
      <trkpt lat="44.45083" lon="6.57538">
        <ele>2624</ele>
        <time>2021-04-08T10:36:06Z</time>
      </trkpt>
      <trkpt lat="44.45083" lon="6.57538">
        <ele>2624</ele>
        <time>2021-04-08T10:36:07Z</time>
      </trkpt>
      <trkpt lat="44.45083" lon="6.57538">
        <ele>2624</ele>
        <time>2021-04-08T10:36:08Z</time>
      </trkpt>
      <trkpt lat="44.45083" lon="6.57538">
        <ele>2624</ele>
        <time>2021-04-08T10:36:09Z</time>
      </trkpt>
      <trkpt lat="44.45083" lon="6.57538">
        <ele>2624</ele>
        <time>2021-04-08T10:36:10Z</time>
      </trkpt>
      <trkpt lat="44.45083" lon="6.57538">
        <ele>2624</ele>
        <time>2021-04-08T10:36:11Z</time>
      </trkpt>
      <trkpt lat="44.45083" lon="6.57538">
        <ele>2624</ele>
        <time>2021-04-08T10:36:12Z</time>
      </trkpt>
      <trkpt lat="44.45083" lon="6.57538">
        <ele>2624</ele>
        <time>2021-04-08T10:36:13Z</time>
      </trkpt>
      <trkpt lat="44.45083" lon="6.57538">
        <ele>2624</ele>
        <time>2021-04-08T10:36:14Z</time>
      </trkpt>
      <trkpt lat="44.45083" lon="6.57538">
        <ele>2624</ele>
        <time>2021-04-08T10:36:15Z</time>
      </trkpt>
      <trkpt lat="44.45083" lon="6.57538">
        <ele>2624</ele>
        <time>2021-04-08T10:36:16Z</time>
      </trkpt>
      <trkpt lat="44.45083" lon="6.57538">
        <ele>2624</ele>
        <time>2021-04-08T10:36:17Z</time>
      </trkpt>
      <trkpt lat="44.45083" lon="6.57538">
        <ele>2624</ele>
        <time>2021-04-08T10:36:18Z</time>
      </trkpt>
      <trkpt lat="44.45083" lon="6.57538">
        <ele>2624</ele>
        <time>2021-04-08T10:36:19Z</time>
      </trkpt>
      <trkpt lat="44.45083" lon="6.57538">
        <ele>2624</ele>
        <time>2021-04-08T10:36:20Z</time>
      </trkpt>
      <trkpt lat="44.45083" lon="6.57538">
        <ele>2624</ele>
        <time>2021-04-08T10:36:21Z</time>
      </trkpt>
      <trkpt lat="44.45083" lon="6.57538">
        <ele>2624</ele>
        <time>2021-04-08T10:36:22Z</time>
      </trkpt>
      <trkpt lat="44.45083" lon="6.57538">
        <ele>2624</ele>
        <time>2021-04-08T10:36:23Z</time>
      </trkpt>
      <trkpt lat="44.45083" lon="6.57538">
        <ele>2624</ele>
        <time>2021-04-08T10:36:24Z</time>
      </trkpt>
      <trkpt lat="44.45083" lon="6.57538">
        <ele>2624</ele>
        <time>2021-04-08T10:36:25Z</time>
      </trkpt>
      <trkpt lat="44.45083" lon="6.57538">
        <ele>2624</ele>
        <time>2021-04-08T10:36:26Z</time>
      </trkpt>
      <trkpt lat="44.45083" lon="6.57538">
        <ele>2624</ele>
        <time>2021-04-08T10:36:27Z</time>
      </trkpt>
      <trkpt lat="44.45083" lon="6.57538">
        <ele>2624</ele>
        <time>2021-04-08T10:36:28Z</time>
      </trkpt>
      <trkpt lat="44.45083" lon="6.57538">
        <ele>2624</ele>
        <time>2021-04-08T10:36:29Z</time>
      </trkpt>
      <trkpt lat="44.45083" lon="6.57538">
        <ele>2624</ele>
        <time>2021-04-08T10:36:30Z</time>
      </trkpt>
      <trkpt lat="44.45083" lon="6.57538">
        <ele>2624</ele>
        <time>2021-04-08T10:36:31Z</time>
      </trkpt>
      <trkpt lat="44.45083" lon="6.57538">
        <ele>2624</ele>
        <time>2021-04-08T10:36:32Z</time>
      </trkpt>
      <trkpt lat="44.45083" lon="6.57538">
        <ele>2624</ele>
        <time>2021-04-08T10:36:33Z</time>
      </trkpt>
      <trkpt lat="44.45083" lon="6.57538">
        <ele>2624</ele>
        <time>2021-04-08T10:36:34Z</time>
      </trkpt>
      <trkpt lat="44.45083" lon="6.57538">
        <ele>2624</ele>
        <time>2021-04-08T10:36:35Z</time>
      </trkpt>
      <trkpt lat="44.45083" lon="6.57538">
        <ele>2624</ele>
        <time>2021-04-08T10:36:36Z</time>
      </trkpt>
      <trkpt lat="44.45083" lon="6.57538">
        <ele>2624</ele>
        <time>2021-04-08T10:36:37Z</time>
      </trkpt>
      <trkpt lat="44.45083" lon="6.57538">
        <ele>2624</ele>
        <time>2021-04-08T10:36:38Z</time>
      </trkpt>
      <trkpt lat="44.45083" lon="6.57538">
        <ele>2624</ele>
        <time>2021-04-08T10:36:39Z</time>
      </trkpt>
      <trkpt lat="44.45083" lon="6.57538">
        <ele>2624</ele>
        <time>2021-04-08T10:36:40Z</time>
      </trkpt>
      <trkpt lat="44.45083" lon="6.57538">
        <ele>2624</ele>
        <time>2021-04-08T10:36:41Z</time>
      </trkpt>
      <trkpt lat="44.45083" lon="6.57538">
        <ele>2624</ele>
        <time>2021-04-08T10:36:42Z</time>
      </trkpt>
      <trkpt lat="44.45083" lon="6.57538">
        <ele>2624</ele>
        <time>2021-04-08T10:36:43Z</time>
      </trkpt>
      <trkpt lat="44.45083" lon="6.57538">
        <ele>2624</ele>
        <time>2021-04-08T10:36:44Z</time>
      </trkpt>
      <trkpt lat="44.45083" lon="6.57538">
        <ele>2624</ele>
        <time>2021-04-08T10:36:45Z</time>
      </trkpt>
      <trkpt lat="44.45083" lon="6.57538">
        <ele>2624</ele>
        <time>2021-04-08T10:36:46Z</time>
      </trkpt>
      <trkpt lat="44.45083" lon="6.57538">
        <ele>2624</ele>
        <time>2021-04-08T10:36:47Z</time>
      </trkpt>
      <trkpt lat="44.45083" lon="6.57538">
        <ele>2624</ele>
        <time>2021-04-08T10:36:48Z</time>
      </trkpt>
      <trkpt lat="44.45083" lon="6.57538">
        <ele>2624</ele>
        <time>2021-04-08T10:36:49Z</time>
      </trkpt>
      <trkpt lat="44.45083" lon="6.57538">
        <ele>2624</ele>
        <time>2021-04-08T10:36:50Z</time>
      </trkpt>
      <trkpt lat="44.45083" lon="6.57538">
        <ele>2624</ele>
        <time>2021-04-08T10:36:51Z</time>
      </trkpt>
      <trkpt lat="44.45083" lon="6.57538">
        <ele>2624</ele>
        <time>2021-04-08T10:36:52Z</time>
      </trkpt>
      <trkpt lat="44.45083" lon="6.57538">
        <ele>2624</ele>
        <time>2021-04-08T10:36:53Z</time>
      </trkpt>
      <trkpt lat="44.45083" lon="6.57538">
        <ele>2624</ele>
        <time>2021-04-08T10:36:54Z</time>
      </trkpt>
      <trkpt lat="44.45083" lon="6.57538">
        <ele>2624</ele>
        <time>2021-04-08T10:36:55Z</time>
      </trkpt>
      <trkpt lat="44.45083" lon="6.57538">
        <ele>2624</ele>
        <time>2021-04-08T10:36:56Z</time>
      </trkpt>
      <trkpt lat="44.45083" lon="6.57538">
        <ele>2624</ele>
        <time>2021-04-08T10:36:57Z</time>
      </trkpt>
      <trkpt lat="44.45083" lon="6.57538">
        <ele>2624</ele>
        <time>2021-04-08T10:36:58Z</time>
      </trkpt>
      <trkpt lat="44.45083" lon="6.57538">
        <ele>2624</ele>
        <time>2021-04-08T10:36:59Z</time>
      </trkpt>
      <trkpt lat="44.45083" lon="6.57538">
        <ele>2624</ele>
        <time>2021-04-08T10:37:00Z</time>
      </trkpt>
      <trkpt lat="44.45083" lon="6.57538">
        <ele>2624</ele>
        <time>2021-04-08T10:37:01Z</time>
      </trkpt>
      <trkpt lat="44.45083" lon="6.57538">
        <ele>2624</ele>
        <time>2021-04-08T10:37:02Z</time>
      </trkpt>
      <trkpt lat="44.45083" lon="6.57538">
        <ele>2624</ele>
        <time>2021-04-08T10:37:03Z</time>
      </trkpt>
      <trkpt lat="44.45083" lon="6.57538">
        <ele>2624</ele>
        <time>2021-04-08T10:37:04Z</time>
      </trkpt>
      <trkpt lat="44.45083" lon="6.57538">
        <ele>2624</ele>
        <time>2021-04-08T10:37:05Z</time>
      </trkpt>
      <trkpt lat="44.45083" lon="6.57538">
        <ele>2624</ele>
        <time>2021-04-08T10:37:06Z</time>
      </trkpt>
      <trkpt lat="44.45083" lon="6.57538">
        <ele>2624</ele>
        <time>2021-04-08T10:37:07Z</time>
      </trkpt>
      <trkpt lat="44.45083" lon="6.57538">
        <ele>2624</ele>
        <time>2021-04-08T10:37:08Z</time>
      </trkpt>
      <trkpt lat="44.45083" lon="6.57538">
        <ele>2624</ele>
        <time>2021-04-08T10:37:09Z</time>
      </trkpt>
      <trkpt lat="44.45083" lon="6.57538">
        <ele>2624</ele>
        <time>2021-04-08T10:37:10Z</time>
      </trkpt>
      <trkpt lat="44.45083" lon="6.57538">
        <ele>2624</ele>
        <time>2021-04-08T10:37:11Z</time>
      </trkpt>
      <trkpt lat="44.45083" lon="6.57538">
        <ele>2624</ele>
        <time>2021-04-08T10:37:12Z</time>
      </trkpt>
      <trkpt lat="44.45083" lon="6.57538">
        <ele>2624</ele>
        <time>2021-04-08T10:37:13Z</time>
      </trkpt>
      <trkpt lat="44.45083" lon="6.57538">
        <ele>2624</ele>
        <time>2021-04-08T10:37:14Z</time>
      </trkpt>
      <trkpt lat="44.45083" lon="6.57538">
        <ele>2624</ele>
        <time>2021-04-08T10:37:15Z</time>
      </trkpt>
      <trkpt lat="44.45083" lon="6.57538">
        <ele>2624</ele>
        <time>2021-04-08T10:37:16Z</time>
      </trkpt>
      <trkpt lat="44.45083" lon="6.57538">
        <ele>2624</ele>
        <time>2021-04-08T10:37:17Z</time>
      </trkpt>
      <trkpt lat="44.45083" lon="6.57538">
        <ele>2624</ele>
        <time>2021-04-08T10:37:18Z</time>
      </trkpt>
      <trkpt lat="44.45083" lon="6.57538">
        <ele>2624</ele>
        <time>2021-04-08T10:37:19Z</time>
      </trkpt>
      <trkpt lat="44.45083" lon="6.57538">
        <ele>2624</ele>
        <time>2021-04-08T10:37:20Z</time>
      </trkpt>
      <trkpt lat="44.45083" lon="6.57538">
        <ele>2624</ele>
        <time>2021-04-08T10:37:21Z</time>
      </trkpt>
      <trkpt lat="44.45083" lon="6.57538">
        <ele>2624</ele>
        <time>2021-04-08T10:37:22Z</time>
      </trkpt>
      <trkpt lat="44.45083" lon="6.57538">
        <ele>2624</ele>
        <time>2021-04-08T10:37:23Z</time>
      </trkpt>
      <trkpt lat="44.45083" lon="6.57538">
        <ele>2624</ele>
        <time>2021-04-08T10:37:24Z</time>
      </trkpt>
      <trkpt lat="44.45083" lon="6.57538">
        <ele>2624</ele>
        <time>2021-04-08T10:37:25Z</time>
      </trkpt>
      <trkpt lat="44.45083" lon="6.57538">
        <ele>2624</ele>
        <time>2021-04-08T10:37:26Z</time>
      </trkpt>
      <trkpt lat="44.45083" lon="6.57538">
        <ele>2624</ele>
        <time>2021-04-08T10:37:27Z</time>
      </trkpt>
      <trkpt lat="44.45083" lon="6.57538">
        <ele>2624</ele>
        <time>2021-04-08T10:37:28Z</time>
      </trkpt>
      <trkpt lat="44.45083" lon="6.57538">
        <ele>2624</ele>
        <time>2021-04-08T10:37:29Z</time>
      </trkpt>
      <trkpt lat="44.45083" lon="6.57538">
        <ele>2624</ele>
        <time>2021-04-08T10:37:30Z</time>
      </trkpt>
      <trkpt lat="44.45083" lon="6.57538">
        <ele>2624</ele>
        <time>2021-04-08T10:37:31Z</time>
      </trkpt>
      <trkpt lat="44.45083" lon="6.57538">
        <ele>2624</ele>
        <time>2021-04-08T10:37:32Z</time>
      </trkpt>
      <trkpt lat="44.45083" lon="6.57538">
        <ele>2624</ele>
        <time>2021-04-08T10:37:33Z</time>
      </trkpt>
      <trkpt lat="44.45083" lon="6.57538">
        <ele>2624</ele>
        <time>2021-04-08T10:37:34Z</time>
      </trkpt>
      <trkpt lat="44.45083" lon="6.57538">
        <ele>2624</ele>
        <time>2021-04-08T10:37:35Z</time>
      </trkpt>
      <trkpt lat="44.45083" lon="6.57538">
        <ele>2624</ele>
        <time>2021-04-08T10:37:36Z</time>
      </trkpt>
      <trkpt lat="44.45083" lon="6.57538">
        <ele>2624</ele>
        <time>2021-04-08T10:37:37Z</time>
      </trkpt>
      <trkpt lat="44.45083" lon="6.57538">
        <ele>2624</ele>
        <time>2021-04-08T10:37:38Z</time>
      </trkpt>
      <trkpt lat="44.45083" lon="6.57538">
        <ele>2624</ele>
        <time>2021-04-08T10:37:39Z</time>
      </trkpt>
      <trkpt lat="44.45083" lon="6.57538">
        <ele>2624</ele>
        <time>2021-04-08T10:37:40Z</time>
      </trkpt>
      <trkpt lat="44.45083" lon="6.57538">
        <ele>2624</ele>
        <time>2021-04-08T10:37:41Z</time>
      </trkpt>
      <trkpt lat="44.45083" lon="6.57538">
        <ele>2624</ele>
        <time>2021-04-08T10:37:42Z</time>
      </trkpt>
      <trkpt lat="44.45083" lon="6.57538">
        <ele>2624</ele>
        <time>2021-04-08T10:37:43Z</time>
      </trkpt>
      <trkpt lat="44.45083" lon="6.57538">
        <ele>2624</ele>
        <time>2021-04-08T10:37:44Z</time>
      </trkpt>
      <trkpt lat="44.45083" lon="6.57538">
        <ele>2624</ele>
        <time>2021-04-08T10:37:45Z</time>
      </trkpt>
      <trkpt lat="44.45083" lon="6.57538">
        <ele>2624</ele>
        <time>2021-04-08T10:37:46Z</time>
      </trkpt>
      <trkpt lat="44.45083" lon="6.57538">
        <ele>2624</ele>
        <time>2021-04-08T10:37:47Z</time>
      </trkpt>
      <trkpt lat="44.45083" lon="6.57538">
        <ele>2624</ele>
        <time>2021-04-08T10:37:48Z</time>
      </trkpt>
      <trkpt lat="44.45083" lon="6.57538">
        <ele>2624</ele>
        <time>2021-04-08T10:37:49Z</time>
      </trkpt>
      <trkpt lat="44.45083" lon="6.57538">
        <ele>2624</ele>
        <time>2021-04-08T10:37:50Z</time>
      </trkpt>
      <trkpt lat="44.45083" lon="6.57538">
        <ele>2624</ele>
        <time>2021-04-08T10:37:51Z</time>
      </trkpt>
      <trkpt lat="44.45083" lon="6.57538">
        <ele>2624</ele>
        <time>2021-04-08T10:37:52Z</time>
      </trkpt>
      <trkpt lat="44.45083" lon="6.57538">
        <ele>2624</ele>
        <time>2021-04-08T10:37:53Z</time>
      </trkpt>
      <trkpt lat="44.45083" lon="6.57538">
        <ele>2624</ele>
        <time>2021-04-08T10:37:54Z</time>
      </trkpt>
      <trkpt lat="44.45083" lon="6.57538">
        <ele>2624</ele>
        <time>2021-04-08T10:37:55Z</time>
      </trkpt>
      <trkpt lat="44.45083" lon="6.57538">
        <ele>2624</ele>
        <time>2021-04-08T10:37:56Z</time>
      </trkpt>
      <trkpt lat="44.45083" lon="6.57538">
        <ele>2624</ele>
        <time>2021-04-08T10:37:57Z</time>
      </trkpt>
      <trkpt lat="44.45083" lon="6.57538">
        <ele>2624</ele>
        <time>2021-04-08T10:37:58Z</time>
      </trkpt>
      <trkpt lat="44.45083" lon="6.57538">
        <ele>2624</ele>
        <time>2021-04-08T10:37:59Z</time>
      </trkpt>
      <trkpt lat="44.45083" lon="6.57538">
        <ele>2624</ele>
        <time>2021-04-08T10:38:00Z</time>
      </trkpt>
      <trkpt lat="44.45083" lon="6.57538">
        <ele>2624</ele>
        <time>2021-04-08T10:38:01Z</time>
      </trkpt>
      <trkpt lat="44.45083" lon="6.57538">
        <ele>2624</ele>
        <time>2021-04-08T10:38:02Z</time>
      </trkpt>
      <trkpt lat="44.45083" lon="6.57538">
        <ele>2624</ele>
        <time>2021-04-08T10:38:03Z</time>
      </trkpt>
      <trkpt lat="44.45083" lon="6.57538">
        <ele>2624</ele>
        <time>2021-04-08T10:38:04Z</time>
      </trkpt>
      <trkpt lat="44.45083" lon="6.57538">
        <ele>2624</ele>
        <time>2021-04-08T10:38:05Z</time>
      </trkpt>
      <trkpt lat="44.45083" lon="6.57538">
        <ele>2624</ele>
        <time>2021-04-08T10:38:06Z</time>
      </trkpt>
      <trkpt lat="44.45083" lon="6.57538">
        <ele>2624</ele>
        <time>2021-04-08T10:38:07Z</time>
      </trkpt>
      <trkpt lat="44.45083" lon="6.57538">
        <ele>2624</ele>
        <time>2021-04-08T10:38:08Z</time>
      </trkpt>
      <trkpt lat="44.45083" lon="6.57538">
        <ele>2624</ele>
        <time>2021-04-08T10:38:09Z</time>
      </trkpt>
      <trkpt lat="44.45083" lon="6.57538">
        <ele>2624</ele>
        <time>2021-04-08T10:38:10Z</time>
      </trkpt>
      <trkpt lat="44.45083" lon="6.57538">
        <ele>2624</ele>
        <time>2021-04-08T10:38:11Z</time>
      </trkpt>
      <trkpt lat="44.45083" lon="6.57538">
        <ele>2624</ele>
        <time>2021-04-08T10:38:12Z</time>
      </trkpt>
      <trkpt lat="44.45083" lon="6.57538">
        <ele>2624</ele>
        <time>2021-04-08T10:38:13Z</time>
      </trkpt>
      <trkpt lat="44.45083" lon="6.57538">
        <ele>2624</ele>
        <time>2021-04-08T10:38:14Z</time>
      </trkpt>
      <trkpt lat="44.45083" lon="6.57538">
        <ele>2624</ele>
        <time>2021-04-08T10:38:15Z</time>
      </trkpt>
      <trkpt lat="44.45083" lon="6.57538">
        <ele>2624</ele>
        <time>2021-04-08T10:38:16Z</time>
      </trkpt>
      <trkpt lat="44.45083" lon="6.57538">
        <ele>2624</ele>
        <time>2021-04-08T10:38:17Z</time>
      </trkpt>
      <trkpt lat="44.45083" lon="6.57538">
        <ele>2624</ele>
        <time>2021-04-08T10:38:18Z</time>
      </trkpt>
      <trkpt lat="44.45083" lon="6.57538">
        <ele>2624</ele>
        <time>2021-04-08T10:38:19Z</time>
      </trkpt>
      <trkpt lat="44.45083" lon="6.57538">
        <ele>2624</ele>
        <time>2021-04-08T10:38:20Z</time>
      </trkpt>
      <trkpt lat="44.45083" lon="6.57538">
        <ele>2624</ele>
        <time>2021-04-08T10:38:21Z</time>
      </trkpt>
      <trkpt lat="44.45083" lon="6.57538">
        <ele>2624</ele>
        <time>2021-04-08T10:38:22Z</time>
      </trkpt>
      <trkpt lat="44.45083" lon="6.57538">
        <ele>2624</ele>
        <time>2021-04-08T10:38:23Z</time>
      </trkpt>
      <trkpt lat="44.45083" lon="6.57538">
        <ele>2624</ele>
        <time>2021-04-08T10:38:24Z</time>
      </trkpt>
      <trkpt lat="44.45083" lon="6.57538">
        <ele>2624</ele>
        <time>2021-04-08T10:38:25Z</time>
      </trkpt>
      <trkpt lat="44.45083" lon="6.57538">
        <ele>2624</ele>
        <time>2021-04-08T10:38:26Z</time>
      </trkpt>
      <trkpt lat="44.45083" lon="6.57538">
        <ele>2624</ele>
        <time>2021-04-08T10:38:27Z</time>
      </trkpt>
      <trkpt lat="44.45083" lon="6.57538">
        <ele>2624</ele>
        <time>2021-04-08T10:38:28Z</time>
      </trkpt>
      <trkpt lat="44.45083" lon="6.57538">
        <ele>2624</ele>
        <time>2021-04-08T10:38:29Z</time>
      </trkpt>
      <trkpt lat="44.45083" lon="6.57538">
        <ele>2624</ele>
        <time>2021-04-08T10:38:30Z</time>
      </trkpt>
      <trkpt lat="44.45083" lon="6.57538">
        <ele>2624</ele>
        <time>2021-04-08T10:38:31Z</time>
      </trkpt>
      <trkpt lat="44.45083" lon="6.57538">
        <ele>2624</ele>
        <time>2021-04-08T10:38:32Z</time>
      </trkpt>
      <trkpt lat="44.45083" lon="6.57538">
        <ele>2624</ele>
        <time>2021-04-08T10:38:33Z</time>
      </trkpt>
      <trkpt lat="44.45083" lon="6.57538">
        <ele>2624</ele>
        <time>2021-04-08T10:38:34Z</time>
      </trkpt>
      <trkpt lat="44.45083" lon="6.57538">
        <ele>2624</ele>
        <time>2021-04-08T10:38:35Z</time>
      </trkpt>
      <trkpt lat="44.45083" lon="6.57538">
        <ele>2624</ele>
        <time>2021-04-08T10:38:36Z</time>
      </trkpt>
      <trkpt lat="44.45083" lon="6.57538">
        <ele>2624</ele>
        <time>2021-04-08T10:38:37Z</time>
      </trkpt>
      <trkpt lat="44.45083" lon="6.57538">
        <ele>2624</ele>
        <time>2021-04-08T10:38:38Z</time>
      </trkpt>
      <trkpt lat="44.45083" lon="6.57538">
        <ele>2624</ele>
        <time>2021-04-08T10:38:39Z</time>
      </trkpt>
      <trkpt lat="44.45083" lon="6.57538">
        <ele>2624</ele>
        <time>2021-04-08T10:38:40Z</time>
      </trkpt>
      <trkpt lat="44.45083" lon="6.57538">
        <ele>2624</ele>
        <time>2021-04-08T10:38:41Z</time>
      </trkpt>
      <trkpt lat="44.45083" lon="6.57538">
        <ele>2624</ele>
        <time>2021-04-08T10:38:42Z</time>
      </trkpt>
      <trkpt lat="44.45083" lon="6.57538">
        <ele>2624</ele>
        <time>2021-04-08T10:38:43Z</time>
      </trkpt>
      <trkpt lat="44.45083" lon="6.57538">
        <ele>2624</ele>
        <time>2021-04-08T10:38:44Z</time>
      </trkpt>
      <trkpt lat="44.45083" lon="6.57538">
        <ele>2624</ele>
        <time>2021-04-08T10:38:45Z</time>
      </trkpt>
      <trkpt lat="44.45083" lon="6.57538">
        <ele>2624</ele>
        <time>2021-04-08T10:38:46Z</time>
      </trkpt>
      <trkpt lat="44.45083" lon="6.57538">
        <ele>2624</ele>
        <time>2021-04-08T10:38:47Z</time>
      </trkpt>
      <trkpt lat="44.45083" lon="6.57538">
        <ele>2624</ele>
        <time>2021-04-08T10:38:48Z</time>
      </trkpt>
      <trkpt lat="44.45083" lon="6.57538">
        <ele>2624</ele>
        <time>2021-04-08T10:38:49Z</time>
      </trkpt>
      <trkpt lat="44.45083" lon="6.57538">
        <ele>2624</ele>
        <time>2021-04-08T10:38:50Z</time>
      </trkpt>
      <trkpt lat="44.45083" lon="6.57538">
        <ele>2624</ele>
        <time>2021-04-08T10:38:51Z</time>
      </trkpt>
      <trkpt lat="44.45083" lon="6.57538">
        <ele>2624</ele>
        <time>2021-04-08T10:38:52Z</time>
      </trkpt>
      <trkpt lat="44.45084" lon="6.57524">
        <ele>2621</ele>
        <time>2021-04-08T10:38:53Z</time>
      </trkpt>
      <trkpt lat="44.45082" lon="6.5752">
        <ele>2619</ele>
        <time>2021-04-08T10:38:54Z</time>
      </trkpt>
      <trkpt lat="44.4508" lon="6.57515">
        <ele>2618</ele>
        <time>2021-04-08T10:38:55Z</time>
      </trkpt>
      <trkpt lat="44.45078" lon="6.57509">
        <ele>2617</ele>
        <time>2021-04-08T10:38:56Z</time>
      </trkpt>
      <trkpt lat="44.45075" lon="6.57502">
        <ele>2615</ele>
        <time>2021-04-08T10:38:57Z</time>
      </trkpt>
      <trkpt lat="44.45075" lon="6.57495">
        <ele>2614</ele>
        <time>2021-04-08T10:38:58Z</time>
      </trkpt>
      <trkpt lat="44.45077" lon="6.57489">
        <ele>2613</ele>
        <time>2021-04-08T10:38:59Z</time>
      </trkpt>
      <trkpt lat="44.45082" lon="6.57487">
        <ele>2612</ele>
        <time>2021-04-08T10:39:00Z</time>
      </trkpt>
      <trkpt lat="44.4509" lon="6.57487">
        <ele>2611</ele>
        <time>2021-04-08T10:39:01Z</time>
      </trkpt>
      <trkpt lat="44.45096" lon="6.57483">
        <ele>2610</ele>
        <time>2021-04-08T10:39:02Z</time>
      </trkpt>
      <trkpt lat="44.45099" lon="6.5747">
        <ele>2608</ele>
        <time>2021-04-08T10:39:03Z</time>
      </trkpt>
      <trkpt lat="44.45102" lon="6.57458">
        <ele>2606</ele>
        <time>2021-04-08T10:39:04Z</time>
      </trkpt>
      <trkpt lat="44.45107" lon="6.57447">
        <ele>2604</ele>
        <time>2021-04-08T10:39:05Z</time>
      </trkpt>
      <trkpt lat="44.45116" lon="6.57439">
        <ele>2601</ele>
        <time>2021-04-08T10:39:06Z</time>
      </trkpt>
      <trkpt lat="44.45122" lon="6.57429">
        <ele>2597</ele>
        <time>2021-04-08T10:39:07Z</time>
      </trkpt>
      <trkpt lat="44.45123" lon="6.57416">
        <ele>2593</ele>
        <time>2021-04-08T10:39:08Z</time>
      </trkpt>
      <trkpt lat="44.45119" lon="6.57403">
        <ele>2589</ele>
        <time>2021-04-08T10:39:09Z</time>
      </trkpt>
      <trkpt lat="44.45113" lon="6.57393">
        <ele>2584</ele>
        <time>2021-04-08T10:39:10Z</time>
      </trkpt>
      <trkpt lat="44.45107" lon="6.57381">
        <ele>2580</ele>
        <time>2021-04-08T10:39:11Z</time>
      </trkpt>
      <trkpt lat="44.45105" lon="6.57366">
        <ele>2577</ele>
        <time>2021-04-08T10:39:12Z</time>
      </trkpt>
      <trkpt lat="44.45105" lon="6.57352">
        <ele>2576</ele>
        <time>2021-04-08T10:39:13Z</time>
      </trkpt>
      <trkpt lat="44.45109" lon="6.57341">
        <ele>2574</ele>
        <time>2021-04-08T10:39:14Z</time>
      </trkpt>
      <trkpt lat="44.45126" lon="6.57334">
        <ele>2572</ele>
        <time>2021-04-08T10:39:15Z</time>
      </trkpt>
      <trkpt lat="44.45145" lon="6.57335">
        <ele>2556</ele>
        <time>2021-04-08T10:39:16Z</time>
      </trkpt>
      <trkpt lat="44.45151" lon="6.5732">
        <ele>2546</ele>
        <time>2021-04-08T10:39:17Z</time>
      </trkpt>
      <trkpt lat="44.4515" lon="6.57302">
        <ele>2540</ele>
        <time>2021-04-08T10:39:18Z</time>
      </trkpt>
      <trkpt lat="44.45142" lon="6.57284">
        <ele>2534</ele>
        <time>2021-04-08T10:39:19Z</time>
      </trkpt>
      <trkpt lat="44.45132" lon="6.57265">
        <ele>2531</ele>
        <time>2021-04-08T10:39:20Z</time>
      </trkpt>
      <trkpt lat="44.45121" lon="6.57248">
        <ele>2529</ele>
        <time>2021-04-08T10:39:21Z</time>
      </trkpt>
      <trkpt lat="44.4511" lon="6.57233">
        <ele>2527</ele>
        <time>2021-04-08T10:39:22Z</time>
      </trkpt>
      <trkpt lat="44.451" lon="6.5722">
        <ele>2525</ele>
        <time>2021-04-08T10:39:23Z</time>
      </trkpt>
      <trkpt lat="44.4509" lon="6.57209">
        <ele>2524</ele>
        <time>2021-04-08T10:39:24Z</time>
      </trkpt>
      <trkpt lat="44.45084" lon="6.57197">
        <ele>2522</ele>
        <time>2021-04-08T10:39:25Z</time>
      </trkpt>
      <trkpt lat="44.45084" lon="6.57185">
        <ele>2520</ele>
        <time>2021-04-08T10:39:26Z</time>
      </trkpt>
      <trkpt lat="44.45083" lon="6.5717">
        <ele>2517</ele>
        <time>2021-04-08T10:39:27Z</time>
      </trkpt>
      <trkpt lat="44.45081" lon="6.57158">
        <ele>2514</ele>
        <time>2021-04-08T10:39:28Z</time>
      </trkpt>
      <trkpt lat="44.45075" lon="6.57149">
        <ele>2510</ele>
        <time>2021-04-08T10:39:29Z</time>
      </trkpt>
      <trkpt lat="44.45071" lon="6.57146">
        <ele>2507</ele>
        <time>2021-04-08T10:39:30Z</time>
      </trkpt>
      <trkpt lat="44.45066" lon="6.57145">
        <ele>2505</ele>
        <time>2021-04-08T10:39:31Z</time>
      </trkpt>
      <trkpt lat="44.45065" lon="6.57145">
        <ele>2504</ele>
        <time>2021-04-08T10:39:32Z</time>
      </trkpt>
      <trkpt lat="44.45066" lon="6.57146">
        <ele>2503</ele>
        <time>2021-04-08T10:39:33Z</time>
      </trkpt>
      <trkpt lat="44.45066" lon="6.57147">
        <ele>2502</ele>
        <time>2021-04-08T10:39:34Z</time>
      </trkpt>
      <trkpt lat="44.45068" lon="6.57147">
        <ele>2501</ele>
        <time>2021-04-08T10:39:35Z</time>
      </trkpt>
      <trkpt lat="44.45068" lon="6.57147">
        <ele>2501</ele>
        <time>2021-04-08T10:39:36Z</time>
      </trkpt>
      <trkpt lat="44.45068" lon="6.57147">
        <ele>2500</ele>
        <time>2021-04-08T10:39:37Z</time>
      </trkpt>
      <trkpt lat="44.45068" lon="6.57147">
        <ele>2500</ele>
        <time>2021-04-08T10:39:38Z</time>
      </trkpt>
      <trkpt lat="44.45068" lon="6.57147">
        <ele>2500</ele>
        <time>2021-04-08T10:39:39Z</time>
      </trkpt>
      <trkpt lat="44.45068" lon="6.57147">
        <ele>2500</ele>
        <time>2021-04-08T10:39:40Z</time>
      </trkpt>
      <trkpt lat="44.45068" lon="6.57147">
        <ele>2500</ele>
        <time>2021-04-08T10:39:41Z</time>
      </trkpt>
      <trkpt lat="44.45068" lon="6.57147">
        <ele>2499</ele>
        <time>2021-04-08T10:39:42Z</time>
      </trkpt>
      <trkpt lat="44.45068" lon="6.57147">
        <ele>2499</ele>
        <time>2021-04-08T10:39:43Z</time>
      </trkpt>
      <trkpt lat="44.45068" lon="6.57147">
        <ele>2499</ele>
        <time>2021-04-08T10:39:44Z</time>
      </trkpt>
      <trkpt lat="44.45068" lon="6.57147">
        <ele>2499</ele>
        <time>2021-04-08T10:39:45Z</time>
      </trkpt>
      <trkpt lat="44.45068" lon="6.57147">
        <ele>2499</ele>
        <time>2021-04-08T10:39:46Z</time>
      </trkpt>
      <trkpt lat="44.45068" lon="6.57147">
        <ele>2499</ele>
        <time>2021-04-08T10:39:47Z</time>
      </trkpt>
      <trkpt lat="44.45068" lon="6.57147">
        <ele>2499</ele>
        <time>2021-04-08T10:39:48Z</time>
      </trkpt>
      <trkpt lat="44.45068" lon="6.57147">
        <ele>2499</ele>
        <time>2021-04-08T10:39:49Z</time>
      </trkpt>
      <trkpt lat="44.45068" lon="6.57147">
        <ele>2499</ele>
        <time>2021-04-08T10:39:50Z</time>
      </trkpt>
      <trkpt lat="44.45068" lon="6.57147">
        <ele>2499</ele>
        <time>2021-04-08T10:39:51Z</time>
      </trkpt>
      <trkpt lat="44.45068" lon="6.57147">
        <ele>2499</ele>
        <time>2021-04-08T10:39:52Z</time>
      </trkpt>
      <trkpt lat="44.45073" lon="6.57143">
        <ele>2497</ele>
        <time>2021-04-08T10:39:53Z</time>
      </trkpt>
      <trkpt lat="44.45072" lon="6.57137">
        <ele>2496</ele>
        <time>2021-04-08T10:39:54Z</time>
      </trkpt>
      <trkpt lat="44.45072" lon="6.57131">
        <ele>2495</ele>
        <time>2021-04-08T10:39:55Z</time>
      </trkpt>
      <trkpt lat="44.45075" lon="6.57125">
        <ele>2494</ele>
        <time>2021-04-08T10:39:56Z</time>
      </trkpt>
      <trkpt lat="44.45082" lon="6.57118">
        <ele>2493</ele>
        <time>2021-04-08T10:39:57Z</time>
      </trkpt>
      <trkpt lat="44.45084" lon="6.57109">
        <ele>2491</ele>
        <time>2021-04-08T10:39:58Z</time>
      </trkpt>
      <trkpt lat="44.45083" lon="6.57099">
        <ele>2490</ele>
        <time>2021-04-08T10:39:59Z</time>
      </trkpt>
      <trkpt lat="44.45075" lon="6.57091">
        <ele>2488</ele>
        <time>2021-04-08T10:40:00Z</time>
      </trkpt>
      <trkpt lat="44.45068" lon="6.57085">
        <ele>2486</ele>
        <time>2021-04-08T10:40:01Z</time>
      </trkpt>
      <trkpt lat="44.4506" lon="6.57078">
        <ele>2485</ele>
        <time>2021-04-08T10:40:02Z</time>
      </trkpt>
      <trkpt lat="44.45055" lon="6.57069">
        <ele>2483</ele>
        <time>2021-04-08T10:40:03Z</time>
      </trkpt>
      <trkpt lat="44.4505" lon="6.5706">
        <ele>2482</ele>
        <time>2021-04-08T10:40:04Z</time>
      </trkpt>
      <trkpt lat="44.45051" lon="6.57052">
        <ele>2480</ele>
        <time>2021-04-08T10:40:05Z</time>
      </trkpt>
      <trkpt lat="44.45053" lon="6.57045">
        <ele>2479</ele>
        <time>2021-04-08T10:40:06Z</time>
      </trkpt>
      <trkpt lat="44.45058" lon="6.57034">
        <ele>2477</ele>
        <time>2021-04-08T10:40:07Z</time>
      </trkpt>
      <trkpt lat="44.45064" lon="6.57022">
        <ele>2474</ele>
        <time>2021-04-08T10:40:08Z</time>
      </trkpt>
      <trkpt lat="44.45069" lon="6.5701">
        <ele>2472</ele>
        <time>2021-04-08T10:40:09Z</time>
      </trkpt>
      <trkpt lat="44.4508" lon="6.57">
        <ele>2470</ele>
        <time>2021-04-08T10:40:10Z</time>
      </trkpt>
      <trkpt lat="44.45089" lon="6.56991">
        <ele>2467</ele>
        <time>2021-04-08T10:40:11Z</time>
      </trkpt>
      <trkpt lat="44.45093" lon="6.56978">
        <ele>2464</ele>
        <time>2021-04-08T10:40:12Z</time>
      </trkpt>
      <trkpt lat="44.45095" lon="6.56964">
        <ele>2462</ele>
        <time>2021-04-08T10:40:13Z</time>
      </trkpt>
      <trkpt lat="44.451" lon="6.56951">
        <ele>2459</ele>
        <time>2021-04-08T10:40:14Z</time>
      </trkpt>
      <trkpt lat="44.45101" lon="6.56937">
        <ele>2456</ele>
        <time>2021-04-08T10:40:15Z</time>
      </trkpt>
      <trkpt lat="44.451" lon="6.56924">
        <ele>2453</ele>
        <time>2021-04-08T10:40:16Z</time>
      </trkpt>
      <trkpt lat="44.45091" lon="6.56913">
        <ele>2450</ele>
        <time>2021-04-08T10:40:17Z</time>
      </trkpt>
      <trkpt lat="44.45085" lon="6.56906">
        <ele>2447</ele>
        <time>2021-04-08T10:40:18Z</time>
      </trkpt>
      <trkpt lat="44.4508" lon="6.56901">
        <ele>2444</ele>
        <time>2021-04-08T10:40:19Z</time>
      </trkpt>
      <trkpt lat="44.45075" lon="6.56898">
        <ele>2441</ele>
        <time>2021-04-08T10:40:20Z</time>
      </trkpt>
      <trkpt lat="44.4507" lon="6.56896">
        <ele>2438</ele>
        <time>2021-04-08T10:40:21Z</time>
      </trkpt>
      <trkpt lat="44.45066" lon="6.56894">
        <ele>2436</ele>
        <time>2021-04-08T10:40:22Z</time>
      </trkpt>
      <trkpt lat="44.45064" lon="6.56893">
        <ele>2434</ele>
        <time>2021-04-08T10:40:23Z</time>
      </trkpt>
      <trkpt lat="44.45065" lon="6.56892">
        <ele>2433</ele>
        <time>2021-04-08T10:40:24Z</time>
      </trkpt>
      <trkpt lat="44.45065" lon="6.56892">
        <ele>2432</ele>
        <time>2021-04-08T10:40:25Z</time>
      </trkpt>
      <trkpt lat="44.45065" lon="6.56892">
        <ele>2431</ele>
        <time>2021-04-08T10:40:26Z</time>
      </trkpt>
      <trkpt lat="44.45065" lon="6.56892">
        <ele>2431</ele>
        <time>2021-04-08T10:40:27Z</time>
      </trkpt>
      <trkpt lat="44.45065" lon="6.56892">
        <ele>2431</ele>
        <time>2021-04-08T10:40:28Z</time>
      </trkpt>
      <trkpt lat="44.45065" lon="6.56892">
        <ele>2430</ele>
        <time>2021-04-08T10:40:29Z</time>
      </trkpt>
      <trkpt lat="44.45065" lon="6.56892">
        <ele>2430</ele>
        <time>2021-04-08T10:40:30Z</time>
      </trkpt>
      <trkpt lat="44.45065" lon="6.56892">
        <ele>2430</ele>
        <time>2021-04-08T10:40:31Z</time>
      </trkpt>
      <trkpt lat="44.4507" lon="6.56888">
        <ele>2430</ele>
        <time>2021-04-08T10:40:32Z</time>
      </trkpt>
      <trkpt lat="44.45071" lon="6.56883">
        <ele>2429</ele>
        <time>2021-04-08T10:40:33Z</time>
      </trkpt>
      <trkpt lat="44.45073" lon="6.56875">
        <ele>2429</ele>
        <time>2021-04-08T10:40:34Z</time>
      </trkpt>
      <trkpt lat="44.45079" lon="6.56867">
        <ele>2428</ele>
        <time>2021-04-08T10:40:35Z</time>
      </trkpt>
      <trkpt lat="44.45089" lon="6.56863">
        <ele>2427</ele>
        <time>2021-04-08T10:40:36Z</time>
      </trkpt>
      <trkpt lat="44.45094" lon="6.56856">
        <ele>2425</ele>
        <time>2021-04-08T10:40:37Z</time>
      </trkpt>
      <trkpt lat="44.45097" lon="6.56846">
        <ele>2422</ele>
        <time>2021-04-08T10:40:38Z</time>
      </trkpt>
      <trkpt lat="44.45096" lon="6.56835">
        <ele>2419</ele>
        <time>2021-04-08T10:40:39Z</time>
      </trkpt>
      <trkpt lat="44.45088" lon="6.56826">
        <ele>2416</ele>
        <time>2021-04-08T10:40:40Z</time>
      </trkpt>
      <trkpt lat="44.45081" lon="6.56817">
        <ele>2413</ele>
        <time>2021-04-08T10:40:41Z</time>
      </trkpt>
      <trkpt lat="44.45074" lon="6.56808">
        <ele>2410</ele>
        <time>2021-04-08T10:40:42Z</time>
      </trkpt>
      <trkpt lat="44.45067" lon="6.56798">
        <ele>2409</ele>
        <time>2021-04-08T10:40:43Z</time>
      </trkpt>
      <trkpt lat="44.45061" lon="6.56788">
        <ele>2407</ele>
        <time>2021-04-08T10:40:44Z</time>
      </trkpt>
      <trkpt lat="44.45056" lon="6.56779">
        <ele>2405</ele>
        <time>2021-04-08T10:40:45Z</time>
      </trkpt>
      <trkpt lat="44.45051" lon="6.56771">
        <ele>2403</ele>
        <time>2021-04-08T10:40:46Z</time>
      </trkpt>
      <trkpt lat="44.45046" lon="6.56763">
        <ele>2402</ele>
        <time>2021-04-08T10:40:47Z</time>
      </trkpt>
      <trkpt lat="44.45042" lon="6.56756">
        <ele>2400</ele>
        <time>2021-04-08T10:40:48Z</time>
      </trkpt>
      <trkpt lat="44.45038" lon="6.56751">
        <ele>2398</ele>
        <time>2021-04-08T10:40:49Z</time>
      </trkpt>
      <trkpt lat="44.45034" lon="6.56747">
        <ele>2397</ele>
        <time>2021-04-08T10:40:50Z</time>
      </trkpt>
      <trkpt lat="44.45031" lon="6.56744">
        <ele>2396</ele>
        <time>2021-04-08T10:40:51Z</time>
      </trkpt>
      <trkpt lat="44.45029" lon="6.56741">
        <ele>2395</ele>
        <time>2021-04-08T10:40:52Z</time>
      </trkpt>
      <trkpt lat="44.45027" lon="6.5674">
        <ele>2394</ele>
        <time>2021-04-08T10:40:53Z</time>
      </trkpt>
      <trkpt lat="44.45025" lon="6.56738">
        <ele>2394</ele>
        <time>2021-04-08T10:40:54Z</time>
      </trkpt>
      <trkpt lat="44.45024" lon="6.56737">
        <ele>2393</ele>
        <time>2021-04-08T10:40:55Z</time>
      </trkpt>
      <trkpt lat="44.45024" lon="6.56737">
        <ele>2393</ele>
        <time>2021-04-08T10:40:56Z</time>
      </trkpt>
      <trkpt lat="44.45024" lon="6.56736">
        <ele>2393</ele>
        <time>2021-04-08T10:40:57Z</time>
      </trkpt>
      <trkpt lat="44.45024" lon="6.56735">
        <ele>2393</ele>
        <time>2021-04-08T10:40:58Z</time>
      </trkpt>
      <trkpt lat="44.45024" lon="6.56735">
        <ele>2393</ele>
        <time>2021-04-08T10:40:59Z</time>
      </trkpt>
      <trkpt lat="44.45022" lon="6.56729">
        <ele>2393</ele>
        <time>2021-04-08T10:41:00Z</time>
      </trkpt>
      <trkpt lat="44.45019" lon="6.56724">
        <ele>2392</ele>
        <time>2021-04-08T10:41:01Z</time>
      </trkpt>
      <trkpt lat="44.45015" lon="6.56719">
        <ele>2391</ele>
        <time>2021-04-08T10:41:02Z</time>
      </trkpt>
      <trkpt lat="44.45011" lon="6.56714">
        <ele>2391</ele>
        <time>2021-04-08T10:41:03Z</time>
      </trkpt>
      <trkpt lat="44.45006" lon="6.56709">
        <ele>2390</ele>
        <time>2021-04-08T10:41:04Z</time>
      </trkpt>
      <trkpt lat="44.45002" lon="6.56704">
        <ele>2389</ele>
        <time>2021-04-08T10:41:05Z</time>
      </trkpt>
      <trkpt lat="44.44998" lon="6.56699">
        <ele>2388</ele>
        <time>2021-04-08T10:41:06Z</time>
      </trkpt>
      <trkpt lat="44.44993" lon="6.56694">
        <ele>2387</ele>
        <time>2021-04-08T10:41:07Z</time>
      </trkpt>
      <trkpt lat="44.44989" lon="6.56689">
        <ele>2387</ele>
        <time>2021-04-08T10:41:08Z</time>
      </trkpt>
      <trkpt lat="44.44985" lon="6.56685">
        <ele>2386</ele>
        <time>2021-04-08T10:41:09Z</time>
      </trkpt>
      <trkpt lat="44.4498" lon="6.56681">
        <ele>2385</ele>
        <time>2021-04-08T10:41:10Z</time>
      </trkpt>
      <trkpt lat="44.44974" lon="6.56675">
        <ele>2384</ele>
        <time>2021-04-08T10:41:11Z</time>
      </trkpt>
      <trkpt lat="44.44968" lon="6.56669">
        <ele>2383</ele>
        <time>2021-04-08T10:41:12Z</time>
      </trkpt>
      <trkpt lat="44.44962" lon="6.56661">
        <ele>2381</ele>
        <time>2021-04-08T10:41:13Z</time>
      </trkpt>
      <trkpt lat="44.44955" lon="6.56652">
        <ele>2380</ele>
        <time>2021-04-08T10:41:14Z</time>
      </trkpt>
      <trkpt lat="44.44948" lon="6.56643">
        <ele>2379</ele>
        <time>2021-04-08T10:41:15Z</time>
      </trkpt>
      <trkpt lat="44.44943" lon="6.56634">
        <ele>2378</ele>
        <time>2021-04-08T10:41:16Z</time>
      </trkpt>
      <trkpt lat="44.44939" lon="6.56627">
        <ele>2377</ele>
        <time>2021-04-08T10:41:17Z</time>
      </trkpt>
      <trkpt lat="44.44936" lon="6.5662">
        <ele>2376</ele>
        <time>2021-04-08T10:41:18Z</time>
      </trkpt>
      <trkpt lat="44.44934" lon="6.56615">
        <ele>2376</ele>
        <time>2021-04-08T10:41:19Z</time>
      </trkpt>
      <trkpt lat="44.44933" lon="6.5661">
        <ele>2376</ele>
        <time>2021-04-08T10:41:20Z</time>
      </trkpt>
      <trkpt lat="44.44931" lon="6.56606">
        <ele>2375</ele>
        <time>2021-04-08T10:41:21Z</time>
      </trkpt>
      <trkpt lat="44.4493" lon="6.56603">
        <ele>2375</ele>
        <time>2021-04-08T10:41:22Z</time>
      </trkpt>
      <trkpt lat="44.44929" lon="6.56599">
        <ele>2375</ele>
        <time>2021-04-08T10:41:23Z</time>
      </trkpt>
      <trkpt lat="44.44928" lon="6.56597">
        <ele>2375</ele>
        <time>2021-04-08T10:41:24Z</time>
      </trkpt>
      <trkpt lat="44.44927" lon="6.56595">
        <ele>2375</ele>
        <time>2021-04-08T10:41:25Z</time>
      </trkpt>
      <trkpt lat="44.44926" lon="6.56595">
        <ele>2375</ele>
        <time>2021-04-08T10:41:26Z</time>
      </trkpt>
      <trkpt lat="44.44926" lon="6.56595">
        <ele>2375</ele>
        <time>2021-04-08T10:41:27Z</time>
      </trkpt>
      <trkpt lat="44.44926" lon="6.56595">
        <ele>2375</ele>
        <time>2021-04-08T10:41:28Z</time>
      </trkpt>
      <trkpt lat="44.44926" lon="6.56595">
        <ele>2375</ele>
        <time>2021-04-08T10:41:29Z</time>
      </trkpt>
      <trkpt lat="44.44926" lon="6.56595">
        <ele>2375</ele>
        <time>2021-04-08T10:41:30Z</time>
      </trkpt>
      <trkpt lat="44.44926" lon="6.56595">
        <ele>2375</ele>
        <time>2021-04-08T10:41:31Z</time>
      </trkpt>
      <trkpt lat="44.44926" lon="6.56595">
        <ele>2375</ele>
        <time>2021-04-08T10:41:32Z</time>
      </trkpt>
      <trkpt lat="44.44926" lon="6.56595">
        <ele>2375</ele>
        <time>2021-04-08T10:41:33Z</time>
      </trkpt>
      <trkpt lat="44.44925" lon="6.56588">
        <ele>2375</ele>
        <time>2021-04-08T10:41:34Z</time>
      </trkpt>
      <trkpt lat="44.44925" lon="6.56586">
        <ele>2375</ele>
        <time>2021-04-08T10:41:35Z</time>
      </trkpt>
      <trkpt lat="44.44925" lon="6.56582">
        <ele>2375</ele>
        <time>2021-04-08T10:41:36Z</time>
      </trkpt>
      <trkpt lat="44.44924" lon="6.56579">
        <ele>2375</ele>
        <time>2021-04-08T10:41:37Z</time>
      </trkpt>
      <trkpt lat="44.44923" lon="6.56575">
        <ele>2374</ele>
        <time>2021-04-08T10:41:38Z</time>
      </trkpt>
      <trkpt lat="44.44922" lon="6.56571">
        <ele>2374</ele>
        <time>2021-04-08T10:41:39Z</time>
      </trkpt>
      <trkpt lat="44.44921" lon="6.56566">
        <ele>2373</ele>
        <time>2021-04-08T10:41:40Z</time>
      </trkpt>
      <trkpt lat="44.4492" lon="6.56562">
        <ele>2372</ele>
        <time>2021-04-08T10:41:41Z</time>
      </trkpt>
      <trkpt lat="44.44919" lon="6.56558">
        <ele>2372</ele>
        <time>2021-04-08T10:41:42Z</time>
      </trkpt>
      <trkpt lat="44.44919" lon="6.56553">
        <ele>2371</ele>
        <time>2021-04-08T10:41:43Z</time>
      </trkpt>
      <trkpt lat="44.44918" lon="6.56548">
        <ele>2370</ele>
        <time>2021-04-08T10:41:44Z</time>
      </trkpt>
      <trkpt lat="44.44917" lon="6.56542">
        <ele>2369</ele>
        <time>2021-04-08T10:41:45Z</time>
      </trkpt>
      <trkpt lat="44.44916" lon="6.56536">
        <ele>2368</ele>
        <time>2021-04-08T10:41:46Z</time>
      </trkpt>
      <trkpt lat="44.44915" lon="6.56529">
        <ele>2367</ele>
        <time>2021-04-08T10:41:47Z</time>
      </trkpt>
      <trkpt lat="44.44914" lon="6.56521">
        <ele>2366</ele>
        <time>2021-04-08T10:41:48Z</time>
      </trkpt>
      <trkpt lat="44.44915" lon="6.56511">
        <ele>2364</ele>
        <time>2021-04-08T10:41:49Z</time>
      </trkpt>
      <trkpt lat="44.44915" lon="6.56502">
        <ele>2363</ele>
        <time>2021-04-08T10:41:50Z</time>
      </trkpt>
      <trkpt lat="44.44916" lon="6.56492">
        <ele>2362</ele>
        <time>2021-04-08T10:41:51Z</time>
      </trkpt>
      <trkpt lat="44.44916" lon="6.56482">
        <ele>2361</ele>
        <time>2021-04-08T10:41:52Z</time>
      </trkpt>
      <trkpt lat="44.44918" lon="6.56474">
        <ele>2361</ele>
        <time>2021-04-08T10:41:53Z</time>
      </trkpt>
      <trkpt lat="44.4492" lon="6.56466">
        <ele>2361</ele>
        <time>2021-04-08T10:41:54Z</time>
      </trkpt>
      <trkpt lat="44.44922" lon="6.5646">
        <ele>2361</ele>
        <time>2021-04-08T10:41:55Z</time>
      </trkpt>
      <trkpt lat="44.44924" lon="6.56456">
        <ele>2361</ele>
        <time>2021-04-08T10:41:56Z</time>
      </trkpt>
      <trkpt lat="44.44926" lon="6.56451">
        <ele>2362</ele>
        <time>2021-04-08T10:41:57Z</time>
      </trkpt>
      <trkpt lat="44.44928" lon="6.56448">
        <ele>2362</ele>
        <time>2021-04-08T10:41:58Z</time>
      </trkpt>
      <trkpt lat="44.4493" lon="6.56444">
        <ele>2362</ele>
        <time>2021-04-08T10:41:59Z</time>
      </trkpt>
      <trkpt lat="44.44931" lon="6.5644">
        <ele>2362</ele>
        <time>2021-04-08T10:42:00Z</time>
      </trkpt>
      <trkpt lat="44.44933" lon="6.56436">
        <ele>2362</ele>
        <time>2021-04-08T10:42:01Z</time>
      </trkpt>
      <trkpt lat="44.44934" lon="6.56433">
        <ele>2362</ele>
        <time>2021-04-08T10:42:02Z</time>
      </trkpt>
      <trkpt lat="44.44936" lon="6.5643">
        <ele>2362</ele>
        <time>2021-04-08T10:42:03Z</time>
      </trkpt>
      <trkpt lat="44.44937" lon="6.56427">
        <ele>2361</ele>
        <time>2021-04-08T10:42:04Z</time>
      </trkpt>
      <trkpt lat="44.44938" lon="6.56424">
        <ele>2361</ele>
        <time>2021-04-08T10:42:05Z</time>
      </trkpt>
      <trkpt lat="44.44938" lon="6.56421">
        <ele>2360</ele>
        <time>2021-04-08T10:42:06Z</time>
      </trkpt>
      <trkpt lat="44.44939" lon="6.56418">
        <ele>2359</ele>
        <time>2021-04-08T10:42:07Z</time>
      </trkpt>
      <trkpt lat="44.4494" lon="6.56414">
        <ele>2357</ele>
        <time>2021-04-08T10:42:08Z</time>
      </trkpt>
      <trkpt lat="44.44941" lon="6.5641">
        <ele>2356</ele>
        <time>2021-04-08T10:42:09Z</time>
      </trkpt>
      <trkpt lat="44.44942" lon="6.56405">
        <ele>2356</ele>
        <time>2021-04-08T10:42:10Z</time>
      </trkpt>
      <trkpt lat="44.44944" lon="6.56399">
        <ele>2355</ele>
        <time>2021-04-08T10:42:11Z</time>
      </trkpt>
      <trkpt lat="44.44945" lon="6.56394">
        <ele>2354</ele>
        <time>2021-04-08T10:42:12Z</time>
      </trkpt>
      <trkpt lat="44.44946" lon="6.5639">
        <ele>2354</ele>
        <time>2021-04-08T10:42:13Z</time>
      </trkpt>
      <trkpt lat="44.44948" lon="6.56386">
        <ele>2353</ele>
        <time>2021-04-08T10:42:14Z</time>
      </trkpt>
      <trkpt lat="44.44948" lon="6.56382">
        <ele>2352</ele>
        <time>2021-04-08T10:42:15Z</time>
      </trkpt>
      <trkpt lat="44.4495" lon="6.56377">
        <ele>2351</ele>
        <time>2021-04-08T10:42:16Z</time>
      </trkpt>
      <trkpt lat="44.44951" lon="6.56372">
        <ele>2351</ele>
        <time>2021-04-08T10:42:17Z</time>
      </trkpt>
      <trkpt lat="44.44952" lon="6.56366">
        <ele>2351</ele>
        <time>2021-04-08T10:42:18Z</time>
      </trkpt>
      <trkpt lat="44.44952" lon="6.56362">
        <ele>2351</ele>
        <time>2021-04-08T10:42:19Z</time>
      </trkpt>
      <trkpt lat="44.44952" lon="6.56357">
        <ele>2351</ele>
        <time>2021-04-08T10:42:20Z</time>
      </trkpt>
      <trkpt lat="44.44952" lon="6.56352">
        <ele>2351</ele>
        <time>2021-04-08T10:42:21Z</time>
      </trkpt>
      <trkpt lat="44.44952" lon="6.56347">
        <ele>2351</ele>
        <time>2021-04-08T10:42:22Z</time>
      </trkpt>
      <trkpt lat="44.44952" lon="6.56342">
        <ele>2350</ele>
        <time>2021-04-08T10:42:23Z</time>
      </trkpt>
      <trkpt lat="44.44952" lon="6.56338">
        <ele>2350</ele>
        <time>2021-04-08T10:42:24Z</time>
      </trkpt>
      <trkpt lat="44.44951" lon="6.56334">
        <ele>2350</ele>
        <time>2021-04-08T10:42:25Z</time>
      </trkpt>
      <trkpt lat="44.44951" lon="6.5633">
        <ele>2350</ele>
        <time>2021-04-08T10:42:26Z</time>
      </trkpt>
      <trkpt lat="44.4495" lon="6.56326">
        <ele>2350</ele>
        <time>2021-04-08T10:42:27Z</time>
      </trkpt>
      <trkpt lat="44.44949" lon="6.56324">
        <ele>2350</ele>
        <time>2021-04-08T10:42:28Z</time>
      </trkpt>
      <trkpt lat="44.44949" lon="6.56321">
        <ele>2350</ele>
        <time>2021-04-08T10:42:29Z</time>
      </trkpt>
      <trkpt lat="44.44948" lon="6.56319">
        <ele>2350</ele>
        <time>2021-04-08T10:42:30Z</time>
      </trkpt>
      <trkpt lat="44.44948" lon="6.56316">
        <ele>2350</ele>
        <time>2021-04-08T10:42:31Z</time>
      </trkpt>
      <trkpt lat="44.44948" lon="6.56313">
        <ele>2350</ele>
        <time>2021-04-08T10:42:32Z</time>
      </trkpt>
      <trkpt lat="44.44948" lon="6.56309">
        <ele>2349</ele>
        <time>2021-04-08T10:42:33Z</time>
      </trkpt>
      <trkpt lat="44.44947" lon="6.56306">
        <ele>2349</ele>
        <time>2021-04-08T10:42:34Z</time>
      </trkpt>
      <trkpt lat="44.44946" lon="6.56303">
        <ele>2348</ele>
        <time>2021-04-08T10:42:35Z</time>
      </trkpt>
      <trkpt lat="44.44945" lon="6.563">
        <ele>2348</ele>
        <time>2021-04-08T10:42:36Z</time>
      </trkpt>
      <trkpt lat="44.44944" lon="6.56296">
        <ele>2347</ele>
        <time>2021-04-08T10:42:37Z</time>
      </trkpt>
      <trkpt lat="44.44943" lon="6.56293">
        <ele>2347</ele>
        <time>2021-04-08T10:42:38Z</time>
      </trkpt>
      <trkpt lat="44.44943" lon="6.56289">
        <ele>2347</ele>
        <time>2021-04-08T10:42:39Z</time>
      </trkpt>
      <trkpt lat="44.44942" lon="6.56286">
        <ele>2346</ele>
        <time>2021-04-08T10:42:40Z</time>
      </trkpt>
      <trkpt lat="44.44942" lon="6.56285">
        <ele>2346</ele>
        <time>2021-04-08T10:42:41Z</time>
      </trkpt>
      <trkpt lat="44.44942" lon="6.56284">
        <ele>2346</ele>
        <time>2021-04-08T10:42:42Z</time>
      </trkpt>
      <trkpt lat="44.44942" lon="6.56284">
        <ele>2346</ele>
        <time>2021-04-08T10:42:43Z</time>
      </trkpt>
      <trkpt lat="44.44942" lon="6.56284">
        <ele>2346</ele>
        <time>2021-04-08T10:42:44Z</time>
      </trkpt>
      <trkpt lat="44.44942" lon="6.56284">
        <ele>2346</ele>
        <time>2021-04-08T10:42:45Z</time>
      </trkpt>
      <trkpt lat="44.44942" lon="6.56284">
        <ele>2346</ele>
        <time>2021-04-08T10:42:46Z</time>
      </trkpt>
      <trkpt lat="44.44942" lon="6.56284">
        <ele>2346</ele>
        <time>2021-04-08T10:42:47Z</time>
      </trkpt>
      <trkpt lat="44.44942" lon="6.56284">
        <ele>2346</ele>
        <time>2021-04-08T10:42:48Z</time>
      </trkpt>
      <trkpt lat="44.44942" lon="6.56284">
        <ele>2346</ele>
        <time>2021-04-08T10:42:49Z</time>
      </trkpt>
      <trkpt lat="44.44947" lon="6.56285">
        <ele>2345</ele>
        <time>2021-04-08T10:42:50Z</time>
      </trkpt>
      <trkpt lat="44.44952" lon="6.56287">
        <ele>2344</ele>
        <time>2021-04-08T10:42:51Z</time>
      </trkpt>
      <trkpt lat="44.44956" lon="6.56282">
        <ele>2342</ele>
        <time>2021-04-08T10:42:52Z</time>
      </trkpt>
      <trkpt lat="44.44957" lon="6.56275">
        <ele>2341</ele>
        <time>2021-04-08T10:42:53Z</time>
      </trkpt>
      <trkpt lat="44.44958" lon="6.56268">
        <ele>2340</ele>
        <time>2021-04-08T10:42:54Z</time>
      </trkpt>
      <trkpt lat="44.44963" lon="6.56266">
        <ele>2338</ele>
        <time>2021-04-08T10:42:55Z</time>
      </trkpt>
      <trkpt lat="44.4497" lon="6.56268">
        <ele>2336</ele>
        <time>2021-04-08T10:42:56Z</time>
      </trkpt>
      <trkpt lat="44.44974" lon="6.56264">
        <ele>2333</ele>
        <time>2021-04-08T10:42:57Z</time>
      </trkpt>
      <trkpt lat="44.44974" lon="6.56255">
        <ele>2329</ele>
        <time>2021-04-08T10:42:58Z</time>
      </trkpt>
      <trkpt lat="44.44978" lon="6.5625">
        <ele>2325</ele>
        <time>2021-04-08T10:42:59Z</time>
      </trkpt>
      <trkpt lat="44.44983" lon="6.56247">
        <ele>2321</ele>
        <time>2021-04-08T10:43:00Z</time>
      </trkpt>
      <trkpt lat="44.44987" lon="6.56246">
        <ele>2316</ele>
        <time>2021-04-08T10:43:01Z</time>
      </trkpt>
      <trkpt lat="44.4499" lon="6.56238">
        <ele>2311</ele>
        <time>2021-04-08T10:43:02Z</time>
      </trkpt>
      <trkpt lat="44.44991" lon="6.56226">
        <ele>2306</ele>
        <time>2021-04-08T10:43:03Z</time>
      </trkpt>
      <trkpt lat="44.44991" lon="6.56216">
        <ele>2303</ele>
        <time>2021-04-08T10:43:04Z</time>
      </trkpt>
      <trkpt lat="44.44999" lon="6.56213">
        <ele>2301</ele>
        <time>2021-04-08T10:43:05Z</time>
      </trkpt>
      <trkpt lat="44.45004" lon="6.56207">
        <ele>2298</ele>
        <time>2021-04-08T10:43:06Z</time>
      </trkpt>
      <trkpt lat="44.45006" lon="6.56197">
        <ele>2294</ele>
        <time>2021-04-08T10:43:07Z</time>
      </trkpt>
      <trkpt lat="44.45009" lon="6.56187">
        <ele>2291</ele>
        <time>2021-04-08T10:43:08Z</time>
      </trkpt>
      <trkpt lat="44.45012" lon="6.56179">
        <ele>2288</ele>
        <time>2021-04-08T10:43:09Z</time>
      </trkpt>
      <trkpt lat="44.4502" lon="6.56174">
        <ele>2287</ele>
        <time>2021-04-08T10:43:10Z</time>
      </trkpt>
      <trkpt lat="44.45027" lon="6.56169">
        <ele>2285</ele>
        <time>2021-04-08T10:43:11Z</time>
      </trkpt>
      <trkpt lat="44.45032" lon="6.56159">
        <ele>2282</ele>
        <time>2021-04-08T10:43:12Z</time>
      </trkpt>
      <trkpt lat="44.45035" lon="6.56146">
        <ele>2279</ele>
        <time>2021-04-08T10:43:13Z</time>
      </trkpt>
      <trkpt lat="44.45035" lon="6.56134">
        <ele>2276</ele>
        <time>2021-04-08T10:43:14Z</time>
      </trkpt>
      <trkpt lat="44.45038" lon="6.56123">
        <ele>2273</ele>
        <time>2021-04-08T10:43:15Z</time>
      </trkpt>
      <trkpt lat="44.45044" lon="6.56116">
        <ele>2272</ele>
        <time>2021-04-08T10:43:16Z</time>
      </trkpt>
      <trkpt lat="44.45054" lon="6.56121">
        <ele>2266</ele>
        <time>2021-04-08T10:43:17Z</time>
      </trkpt>
      <trkpt lat="44.45064" lon="6.5612">
        <ele>2262</ele>
        <time>2021-04-08T10:43:18Z</time>
      </trkpt>
      <trkpt lat="44.45071" lon="6.56112">
        <ele>2260</ele>
        <time>2021-04-08T10:43:19Z</time>
      </trkpt>
      <trkpt lat="44.45079" lon="6.56104">
        <ele>2257</ele>
        <time>2021-04-08T10:43:20Z</time>
      </trkpt>
      <trkpt lat="44.45087" lon="6.561">
        <ele>2256</ele>
        <time>2021-04-08T10:43:21Z</time>
      </trkpt>
      <trkpt lat="44.45091" lon="6.56098">
        <ele>2255</ele>
        <time>2021-04-08T10:43:22Z</time>
      </trkpt>
      <trkpt lat="44.45092" lon="6.56095">
        <ele>2254</ele>
        <time>2021-04-08T10:43:23Z</time>
      </trkpt>
      <trkpt lat="44.45092" lon="6.56094">
        <ele>2254</ele>
        <time>2021-04-08T10:43:24Z</time>
      </trkpt>
      <trkpt lat="44.45089" lon="6.56096">
        <ele>2253</ele>
        <time>2021-04-08T10:43:25Z</time>
      </trkpt>
      <trkpt lat="44.45088" lon="6.56096">
        <ele>2253</ele>
        <time>2021-04-08T10:43:26Z</time>
      </trkpt>
      <trkpt lat="44.45088" lon="6.56097">
        <ele>2252</ele>
        <time>2021-04-08T10:43:27Z</time>
      </trkpt>
      <trkpt lat="44.45088" lon="6.56097">
        <ele>2252</ele>
        <time>2021-04-08T10:43:28Z</time>
      </trkpt>
      <trkpt lat="44.45088" lon="6.56097">
        <ele>2251</ele>
        <time>2021-04-08T10:43:29Z</time>
      </trkpt>
      <trkpt lat="44.45088" lon="6.56097">
        <ele>2251</ele>
        <time>2021-04-08T10:43:30Z</time>
      </trkpt>
      <trkpt lat="44.45088" lon="6.56097">
        <ele>2251</ele>
        <time>2021-04-08T10:43:31Z</time>
      </trkpt>
      <trkpt lat="44.45088" lon="6.56097">
        <ele>2251</ele>
        <time>2021-04-08T10:43:32Z</time>
      </trkpt>
      <trkpt lat="44.45088" lon="6.56097">
        <ele>2251</ele>
        <time>2021-04-08T10:43:33Z</time>
      </trkpt>
      <trkpt lat="44.45088" lon="6.56097">
        <ele>2251</ele>
        <time>2021-04-08T10:43:34Z</time>
      </trkpt>
      <trkpt lat="44.45088" lon="6.56097">
        <ele>2250</ele>
        <time>2021-04-08T10:43:35Z</time>
      </trkpt>
      <trkpt lat="44.45088" lon="6.56097">
        <ele>2250</ele>
        <time>2021-04-08T10:43:36Z</time>
      </trkpt>
      <trkpt lat="44.45088" lon="6.56097">
        <ele>2250</ele>
        <time>2021-04-08T10:43:37Z</time>
      </trkpt>
      <trkpt lat="44.45088" lon="6.56097">
        <ele>2250</ele>
        <time>2021-04-08T10:43:38Z</time>
      </trkpt>
      <trkpt lat="44.45088" lon="6.56097">
        <ele>2250</ele>
        <time>2021-04-08T10:43:39Z</time>
      </trkpt>
      <trkpt lat="44.45088" lon="6.56097">
        <ele>2250</ele>
        <time>2021-04-08T10:43:40Z</time>
      </trkpt>
      <trkpt lat="44.45088" lon="6.56097">
        <ele>2250</ele>
        <time>2021-04-08T10:43:41Z</time>
      </trkpt>
      <trkpt lat="44.45088" lon="6.56097">
        <ele>2250</ele>
        <time>2021-04-08T10:43:42Z</time>
      </trkpt>
      <trkpt lat="44.45088" lon="6.56097">
        <ele>2250</ele>
        <time>2021-04-08T10:43:43Z</time>
      </trkpt>
      <trkpt lat="44.45088" lon="6.56097">
        <ele>2250</ele>
        <time>2021-04-08T10:43:44Z</time>
      </trkpt>
      <trkpt lat="44.45088" lon="6.56097">
        <ele>2250</ele>
        <time>2021-04-08T10:43:45Z</time>
      </trkpt>
      <trkpt lat="44.45088" lon="6.56097">
        <ele>2250</ele>
        <time>2021-04-08T10:43:46Z</time>
      </trkpt>
      <trkpt lat="44.45088" lon="6.56097">
        <ele>2250</ele>
        <time>2021-04-08T10:43:47Z</time>
      </trkpt>
      <trkpt lat="44.45088" lon="6.56097">
        <ele>2250</ele>
        <time>2021-04-08T10:43:48Z</time>
      </trkpt>
      <trkpt lat="44.45088" lon="6.56097">
        <ele>2250</ele>
        <time>2021-04-08T10:43:49Z</time>
      </trkpt>
      <trkpt lat="44.45088" lon="6.56097">
        <ele>2250</ele>
        <time>2021-04-08T10:43:50Z</time>
      </trkpt>
      <trkpt lat="44.45088" lon="6.56097">
        <ele>2250</ele>
        <time>2021-04-08T10:43:51Z</time>
      </trkpt>
      <trkpt lat="44.45088" lon="6.56097">
        <ele>2250</ele>
        <time>2021-04-08T10:43:52Z</time>
      </trkpt>
      <trkpt lat="44.45088" lon="6.56097">
        <ele>2250</ele>
        <time>2021-04-08T10:43:53Z</time>
      </trkpt>
      <trkpt lat="44.45088" lon="6.56097">
        <ele>2250</ele>
        <time>2021-04-08T10:43:54Z</time>
      </trkpt>
      <trkpt lat="44.45088" lon="6.56097">
        <ele>2250</ele>
        <time>2021-04-08T10:43:55Z</time>
      </trkpt>
      <trkpt lat="44.45088" lon="6.56097">
        <ele>2250</ele>
        <time>2021-04-08T10:43:56Z</time>
      </trkpt>
      <trkpt lat="44.45088" lon="6.56097">
        <ele>2250</ele>
        <time>2021-04-08T10:43:57Z</time>
      </trkpt>
      <trkpt lat="44.45088" lon="6.56097">
        <ele>2250</ele>
        <time>2021-04-08T10:43:58Z</time>
      </trkpt>
      <trkpt lat="44.45088" lon="6.56097">
        <ele>2250</ele>
        <time>2021-04-08T10:43:59Z</time>
      </trkpt>
      <trkpt lat="44.45088" lon="6.56097">
        <ele>2250</ele>
        <time>2021-04-08T10:44:00Z</time>
      </trkpt>
      <trkpt lat="44.45088" lon="6.56097">
        <ele>2250</ele>
        <time>2021-04-08T10:44:01Z</time>
      </trkpt>
      <trkpt lat="44.45088" lon="6.56097">
        <ele>2250</ele>
        <time>2021-04-08T10:44:02Z</time>
      </trkpt>
      <trkpt lat="44.45088" lon="6.56097">
        <ele>2250</ele>
        <time>2021-04-08T10:44:03Z</time>
      </trkpt>
      <trkpt lat="44.45088" lon="6.56097">
        <ele>2250</ele>
        <time>2021-04-08T10:44:04Z</time>
      </trkpt>
      <trkpt lat="44.45088" lon="6.56097">
        <ele>2250</ele>
        <time>2021-04-08T10:44:05Z</time>
      </trkpt>
      <trkpt lat="44.45088" lon="6.56097">
        <ele>2250</ele>
        <time>2021-04-08T10:44:06Z</time>
      </trkpt>
      <trkpt lat="44.45088" lon="6.56097">
        <ele>2250</ele>
        <time>2021-04-08T10:44:07Z</time>
      </trkpt>
      <trkpt lat="44.45088" lon="6.56097">
        <ele>2250</ele>
        <time>2021-04-08T10:44:08Z</time>
      </trkpt>
      <trkpt lat="44.45088" lon="6.56097">
        <ele>2250</ele>
        <time>2021-04-08T10:44:09Z</time>
      </trkpt>
      <trkpt lat="44.45088" lon="6.56097">
        <ele>2250</ele>
        <time>2021-04-08T10:44:10Z</time>
      </trkpt>
      <trkpt lat="44.45088" lon="6.56097">
        <ele>2250</ele>
        <time>2021-04-08T10:44:11Z</time>
      </trkpt>
      <trkpt lat="44.45088" lon="6.56097">
        <ele>2249</ele>
        <time>2021-04-08T10:44:12Z</time>
      </trkpt>
      <trkpt lat="44.45088" lon="6.56097">
        <ele>2249</ele>
        <time>2021-04-08T10:44:13Z</time>
      </trkpt>
      <trkpt lat="44.45088" lon="6.56097">
        <ele>2249</ele>
        <time>2021-04-08T10:44:14Z</time>
      </trkpt>
      <trkpt lat="44.45088" lon="6.56097">
        <ele>2249</ele>
        <time>2021-04-08T10:44:15Z</time>
      </trkpt>
      <trkpt lat="44.45088" lon="6.56097">
        <ele>2249</ele>
        <time>2021-04-08T10:44:16Z</time>
      </trkpt>
      <trkpt lat="44.45088" lon="6.56097">
        <ele>2249</ele>
        <time>2021-04-08T10:44:17Z</time>
      </trkpt>
      <trkpt lat="44.45088" lon="6.56097">
        <ele>2249</ele>
        <time>2021-04-08T10:44:18Z</time>
      </trkpt>
      <trkpt lat="44.45088" lon="6.56097">
        <ele>2249</ele>
        <time>2021-04-08T10:44:19Z</time>
      </trkpt>
      <trkpt lat="44.45088" lon="6.56097">
        <ele>2249</ele>
        <time>2021-04-08T10:44:20Z</time>
      </trkpt>
      <trkpt lat="44.45088" lon="6.56097">
        <ele>2249</ele>
        <time>2021-04-08T10:44:21Z</time>
      </trkpt>
      <trkpt lat="44.45088" lon="6.56097">
        <ele>2249</ele>
        <time>2021-04-08T10:44:22Z</time>
      </trkpt>
      <trkpt lat="44.45081" lon="6.56093">
        <ele>2245</ele>
        <time>2021-04-08T10:44:23Z</time>
      </trkpt>
      <trkpt lat="44.45082" lon="6.56088">
        <ele>2244</ele>
        <time>2021-04-08T10:44:24Z</time>
      </trkpt>
      <trkpt lat="44.45083" lon="6.56082">
        <ele>2243</ele>
        <time>2021-04-08T10:44:25Z</time>
      </trkpt>
      <trkpt lat="44.45085" lon="6.56076">
        <ele>2242</ele>
        <time>2021-04-08T10:44:26Z</time>
      </trkpt>
      <trkpt lat="44.45088" lon="6.5607">
        <ele>2242</ele>
        <time>2021-04-08T10:44:27Z</time>
      </trkpt>
      <trkpt lat="44.45091" lon="6.56063">
        <ele>2242</ele>
        <time>2021-04-08T10:44:28Z</time>
      </trkpt>
      <trkpt lat="44.45096" lon="6.56056">
        <ele>2242</ele>
        <time>2021-04-08T10:44:29Z</time>
      </trkpt>
      <trkpt lat="44.45101" lon="6.5605">
        <ele>2241</ele>
        <time>2021-04-08T10:44:30Z</time>
      </trkpt>
      <trkpt lat="44.45105" lon="6.56043">
        <ele>2241</ele>
        <time>2021-04-08T10:44:31Z</time>
      </trkpt>
      <trkpt lat="44.45108" lon="6.56037">
        <ele>2241</ele>
        <time>2021-04-08T10:44:32Z</time>
      </trkpt>
      <trkpt lat="44.4511" lon="6.56033">
        <ele>2241</ele>
        <time>2021-04-08T10:44:33Z</time>
      </trkpt>
      <trkpt lat="44.4511" lon="6.56031">
        <ele>2241</ele>
        <time>2021-04-08T10:44:34Z</time>
      </trkpt>
      <trkpt lat="44.45111" lon="6.5603">
        <ele>2241</ele>
        <time>2021-04-08T10:44:35Z</time>
      </trkpt>
      <trkpt lat="44.45111" lon="6.5603">
        <ele>2241</ele>
        <time>2021-04-08T10:44:36Z</time>
      </trkpt>
      <trkpt lat="44.45111" lon="6.56031">
        <ele>2241</ele>
        <time>2021-04-08T10:44:37Z</time>
      </trkpt>
      <trkpt lat="44.45111" lon="6.56031">
        <ele>2241</ele>
        <time>2021-04-08T10:44:38Z</time>
      </trkpt>
      <trkpt lat="44.45111" lon="6.56031">
        <ele>2241</ele>
        <time>2021-04-08T10:44:39Z</time>
      </trkpt>
      <trkpt lat="44.45111" lon="6.56031">
        <ele>2241</ele>
        <time>2021-04-08T10:44:40Z</time>
      </trkpt>
      <trkpt lat="44.45114" lon="6.56031">
        <ele>2242</ele>
        <time>2021-04-08T10:44:41Z</time>
      </trkpt>
      <trkpt lat="44.45115" lon="6.5603">
        <ele>2242</ele>
        <time>2021-04-08T10:44:42Z</time>
      </trkpt>
      <trkpt lat="44.45117" lon="6.56028">
        <ele>2242</ele>
        <time>2021-04-08T10:44:43Z</time>
      </trkpt>
      <trkpt lat="44.45119" lon="6.56025">
        <ele>2242</ele>
        <time>2021-04-08T10:44:44Z</time>
      </trkpt>
      <trkpt lat="44.45122" lon="6.56022">
        <ele>2242</ele>
        <time>2021-04-08T10:44:45Z</time>
      </trkpt>
      <trkpt lat="44.45125" lon="6.56019">
        <ele>2242</ele>
        <time>2021-04-08T10:44:46Z</time>
      </trkpt>
      <trkpt lat="44.45128" lon="6.56015">
        <ele>2242</ele>
        <time>2021-04-08T10:44:47Z</time>
      </trkpt>
      <trkpt lat="44.45131" lon="6.5601">
        <ele>2241</ele>
        <time>2021-04-08T10:44:48Z</time>
      </trkpt>
      <trkpt lat="44.45133" lon="6.56004">
        <ele>2240</ele>
        <time>2021-04-08T10:44:49Z</time>
      </trkpt>
      <trkpt lat="44.45134" lon="6.55999">
        <ele>2239</ele>
        <time>2021-04-08T10:44:50Z</time>
      </trkpt>
      <trkpt lat="44.45135" lon="6.55993">
        <ele>2238</ele>
        <time>2021-04-08T10:44:51Z</time>
      </trkpt>
      <trkpt lat="44.45136" lon="6.55988">
        <ele>2237</ele>
        <time>2021-04-08T10:44:52Z</time>
      </trkpt>
      <trkpt lat="44.45137" lon="6.55983">
        <ele>2236</ele>
        <time>2021-04-08T10:44:53Z</time>
      </trkpt>
      <trkpt lat="44.45138" lon="6.55977">
        <ele>2235</ele>
        <time>2021-04-08T10:44:54Z</time>
      </trkpt>
      <trkpt lat="44.45139" lon="6.55972">
        <ele>2234</ele>
        <time>2021-04-08T10:44:55Z</time>
      </trkpt>
      <trkpt lat="44.4514" lon="6.55965">
        <ele>2233</ele>
        <time>2021-04-08T10:44:56Z</time>
      </trkpt>
      <trkpt lat="44.45141" lon="6.55959">
        <ele>2232</ele>
        <time>2021-04-08T10:44:57Z</time>
      </trkpt>
      <trkpt lat="44.45143" lon="6.55952">
        <ele>2231</ele>
        <time>2021-04-08T10:44:58Z</time>
      </trkpt>
      <trkpt lat="44.45145" lon="6.55945">
        <ele>2230</ele>
        <time>2021-04-08T10:44:59Z</time>
      </trkpt>
      <trkpt lat="44.45146" lon="6.55938">
        <ele>2229</ele>
        <time>2021-04-08T10:45:00Z</time>
      </trkpt>
      <trkpt lat="44.45147" lon="6.55933">
        <ele>2229</ele>
        <time>2021-04-08T10:45:01Z</time>
      </trkpt>
      <trkpt lat="44.45148" lon="6.55929">
        <ele>2228</ele>
        <time>2021-04-08T10:45:02Z</time>
      </trkpt>
      <trkpt lat="44.45148" lon="6.55925">
        <ele>2228</ele>
        <time>2021-04-08T10:45:03Z</time>
      </trkpt>
      <trkpt lat="44.45148" lon="6.55922">
        <ele>2227</ele>
        <time>2021-04-08T10:45:04Z</time>
      </trkpt>
      <trkpt lat="44.45149" lon="6.55918">
        <ele>2227</ele>
        <time>2021-04-08T10:45:05Z</time>
      </trkpt>
      <trkpt lat="44.45149" lon="6.55915">
        <ele>2226</ele>
        <time>2021-04-08T10:45:06Z</time>
      </trkpt>
      <trkpt lat="44.45149" lon="6.55913">
        <ele>2226</ele>
        <time>2021-04-08T10:45:07Z</time>
      </trkpt>
      <trkpt lat="44.45149" lon="6.55912">
        <ele>2225</ele>
        <time>2021-04-08T10:45:08Z</time>
      </trkpt>
      <trkpt lat="44.45149" lon="6.55912">
        <ele>2225</ele>
        <time>2021-04-08T10:45:09Z</time>
      </trkpt>
      <trkpt lat="44.45149" lon="6.55911">
        <ele>2225</ele>
        <time>2021-04-08T10:45:10Z</time>
      </trkpt>
      <trkpt lat="44.45149" lon="6.55911">
        <ele>2224</ele>
        <time>2021-04-08T10:45:11Z</time>
      </trkpt>
      <trkpt lat="44.45149" lon="6.55911">
        <ele>2224</ele>
        <time>2021-04-08T10:45:12Z</time>
      </trkpt>
      <trkpt lat="44.45149" lon="6.55911">
        <ele>2224</ele>
        <time>2021-04-08T10:45:13Z</time>
      </trkpt>
      <trkpt lat="44.45149" lon="6.55911">
        <ele>2224</ele>
        <time>2021-04-08T10:45:14Z</time>
      </trkpt>
      <trkpt lat="44.45149" lon="6.55911">
        <ele>2224</ele>
        <time>2021-04-08T10:45:15Z</time>
      </trkpt>
      <trkpt lat="44.45149" lon="6.55911">
        <ele>2224</ele>
        <time>2021-04-08T10:45:16Z</time>
      </trkpt>
      <trkpt lat="44.45149" lon="6.55911">
        <ele>2224</ele>
        <time>2021-04-08T10:45:17Z</time>
      </trkpt>
      <trkpt lat="44.45149" lon="6.55911">
        <ele>2224</ele>
        <time>2021-04-08T10:45:18Z</time>
      </trkpt>
      <trkpt lat="44.4515" lon="6.55906">
        <ele>2224</ele>
        <time>2021-04-08T10:45:19Z</time>
      </trkpt>
      <trkpt lat="44.4515" lon="6.55904">
        <ele>2224</ele>
        <time>2021-04-08T10:45:20Z</time>
      </trkpt>
      <trkpt lat="44.4515" lon="6.55901">
        <ele>2224</ele>
        <time>2021-04-08T10:45:21Z</time>
      </trkpt>
      <trkpt lat="44.4515" lon="6.55898">
        <ele>2224</ele>
        <time>2021-04-08T10:45:22Z</time>
      </trkpt>
      <trkpt lat="44.4515" lon="6.55894">
        <ele>2224</ele>
        <time>2021-04-08T10:45:23Z</time>
      </trkpt>
      <trkpt lat="44.45151" lon="6.55891">
        <ele>2223</ele>
        <time>2021-04-08T10:45:24Z</time>
      </trkpt>
      <trkpt lat="44.45151" lon="6.55889">
        <ele>2223</ele>
        <time>2021-04-08T10:45:25Z</time>
      </trkpt>
      <trkpt lat="44.45151" lon="6.55887">
        <ele>2223</ele>
        <time>2021-04-08T10:45:26Z</time>
      </trkpt>
      <trkpt lat="44.45151" lon="6.55884">
        <ele>2223</ele>
        <time>2021-04-08T10:45:27Z</time>
      </trkpt>
      <trkpt lat="44.45152" lon="6.5588">
        <ele>2222</ele>
        <time>2021-04-08T10:45:28Z</time>
      </trkpt>
      <trkpt lat="44.45152" lon="6.55873">
        <ele>2222</ele>
        <time>2021-04-08T10:45:29Z</time>
      </trkpt>
      <trkpt lat="44.45154" lon="6.55865">
        <ele>2221</ele>
        <time>2021-04-08T10:45:30Z</time>
      </trkpt>
      <trkpt lat="44.45157" lon="6.55858">
        <ele>2221</ele>
        <time>2021-04-08T10:45:31Z</time>
      </trkpt>
      <trkpt lat="44.4516" lon="6.55849">
        <ele>2220</ele>
        <time>2021-04-08T10:45:32Z</time>
      </trkpt>
      <trkpt lat="44.45164" lon="6.55841">
        <ele>2219</ele>
        <time>2021-04-08T10:45:33Z</time>
      </trkpt>
      <trkpt lat="44.45167" lon="6.55833">
        <ele>2217</ele>
        <time>2021-04-08T10:45:34Z</time>
      </trkpt>
      <trkpt lat="44.4517" lon="6.55825">
        <ele>2216</ele>
        <time>2021-04-08T10:45:35Z</time>
      </trkpt>
      <trkpt lat="44.45171" lon="6.55818">
        <ele>2216</ele>
        <time>2021-04-08T10:45:36Z</time>
      </trkpt>
      <trkpt lat="44.45172" lon="6.55812">
        <ele>2215</ele>
        <time>2021-04-08T10:45:37Z</time>
      </trkpt>
      <trkpt lat="44.45173" lon="6.55807">
        <ele>2215</ele>
        <time>2021-04-08T10:45:38Z</time>
      </trkpt>
      <trkpt lat="44.45173" lon="6.55803">
        <ele>2214</ele>
        <time>2021-04-08T10:45:39Z</time>
      </trkpt>
      <trkpt lat="44.45173" lon="6.558">
        <ele>2214</ele>
        <time>2021-04-08T10:45:40Z</time>
      </trkpt>
      <trkpt lat="44.45173" lon="6.55797">
        <ele>2214</ele>
        <time>2021-04-08T10:45:41Z</time>
      </trkpt>
      <trkpt lat="44.45174" lon="6.55794">
        <ele>2214</ele>
        <time>2021-04-08T10:45:42Z</time>
      </trkpt>
      <trkpt lat="44.45175" lon="6.5579">
        <ele>2213</ele>
        <time>2021-04-08T10:45:43Z</time>
      </trkpt>
      <trkpt lat="44.45176" lon="6.55787">
        <ele>2213</ele>
        <time>2021-04-08T10:45:44Z</time>
      </trkpt>
      <trkpt lat="44.45177" lon="6.55782">
        <ele>2213</ele>
        <time>2021-04-08T10:45:45Z</time>
      </trkpt>
      <trkpt lat="44.45178" lon="6.55778">
        <ele>2213</ele>
        <time>2021-04-08T10:45:46Z</time>
      </trkpt>
      <trkpt lat="44.45179" lon="6.55772">
        <ele>2212</ele>
        <time>2021-04-08T10:45:47Z</time>
      </trkpt>
      <trkpt lat="44.45181" lon="6.55767">
        <ele>2212</ele>
        <time>2021-04-08T10:45:48Z</time>
      </trkpt>
      <trkpt lat="44.45183" lon="6.55762">
        <ele>2212</ele>
        <time>2021-04-08T10:45:49Z</time>
      </trkpt>
      <trkpt lat="44.45184" lon="6.55756">
        <ele>2212</ele>
        <time>2021-04-08T10:45:50Z</time>
      </trkpt>
      <trkpt lat="44.45186" lon="6.55752">
        <ele>2212</ele>
        <time>2021-04-08T10:45:51Z</time>
      </trkpt>
      <trkpt lat="44.45187" lon="6.55747">
        <ele>2213</ele>
        <time>2021-04-08T10:45:52Z</time>
      </trkpt>
      <trkpt lat="44.45188" lon="6.55743">
        <ele>2213</ele>
        <time>2021-04-08T10:45:53Z</time>
      </trkpt>
      <trkpt lat="44.45189" lon="6.55738">
        <ele>2213</ele>
        <time>2021-04-08T10:45:54Z</time>
      </trkpt>
      <trkpt lat="44.45191" lon="6.55732">
        <ele>2213</ele>
        <time>2021-04-08T10:45:55Z</time>
      </trkpt>
      <trkpt lat="44.45193" lon="6.55726">
        <ele>2213</ele>
        <time>2021-04-08T10:45:56Z</time>
      </trkpt>
      <trkpt lat="44.45195" lon="6.55718">
        <ele>2213</ele>
        <time>2021-04-08T10:45:57Z</time>
      </trkpt>
      <trkpt lat="44.45197" lon="6.55711">
        <ele>2212</ele>
        <time>2021-04-08T10:45:58Z</time>
      </trkpt>
      <trkpt lat="44.45199" lon="6.55705">
        <ele>2212</ele>
        <time>2021-04-08T10:45:59Z</time>
      </trkpt>
      <trkpt lat="44.452" lon="6.55699">
        <ele>2212</ele>
        <time>2021-04-08T10:46:00Z</time>
      </trkpt>
      <trkpt lat="44.45201" lon="6.55694">
        <ele>2211</ele>
        <time>2021-04-08T10:46:01Z</time>
      </trkpt>
      <trkpt lat="44.45202" lon="6.55689">
        <ele>2211</ele>
        <time>2021-04-08T10:46:02Z</time>
      </trkpt>
      <trkpt lat="44.45203" lon="6.55685">
        <ele>2210</ele>
        <time>2021-04-08T10:46:03Z</time>
      </trkpt>
      <trkpt lat="44.45205" lon="6.5568">
        <ele>2210</ele>
        <time>2021-04-08T10:46:04Z</time>
      </trkpt>
      <trkpt lat="44.45207" lon="6.55675">
        <ele>2210</ele>
        <time>2021-04-08T10:46:05Z</time>
      </trkpt>
      <trkpt lat="44.4521" lon="6.5567">
        <ele>2210</ele>
        <time>2021-04-08T10:46:06Z</time>
      </trkpt>
      <trkpt lat="44.45214" lon="6.55665">
        <ele>2209</ele>
        <time>2021-04-08T10:46:07Z</time>
      </trkpt>
      <trkpt lat="44.45218" lon="6.5566">
        <ele>2209</ele>
        <time>2021-04-08T10:46:08Z</time>
      </trkpt>
      <trkpt lat="44.45223" lon="6.55655">
        <ele>2209</ele>
        <time>2021-04-08T10:46:09Z</time>
      </trkpt>
      <trkpt lat="44.45229" lon="6.55652">
        <ele>2209</ele>
        <time>2021-04-08T10:46:10Z</time>
      </trkpt>
      <trkpt lat="44.45235" lon="6.55649">
        <ele>2209</ele>
        <time>2021-04-08T10:46:11Z</time>
      </trkpt>
      <trkpt lat="44.45242" lon="6.55648">
        <ele>2209</ele>
        <time>2021-04-08T10:46:12Z</time>
      </trkpt>
      <trkpt lat="44.4525" lon="6.55648">
        <ele>2209</ele>
        <time>2021-04-08T10:46:13Z</time>
      </trkpt>
      <trkpt lat="44.45257" lon="6.55649">
        <ele>2209</ele>
        <time>2021-04-08T10:46:14Z</time>
      </trkpt>
      <trkpt lat="44.45263" lon="6.5565">
        <ele>2209</ele>
        <time>2021-04-08T10:46:15Z</time>
      </trkpt>
      <trkpt lat="44.45269" lon="6.55651">
        <ele>2209</ele>
        <time>2021-04-08T10:46:16Z</time>
      </trkpt>
      <trkpt lat="44.45275" lon="6.55651">
        <ele>2208</ele>
        <time>2021-04-08T10:46:17Z</time>
      </trkpt>
      <trkpt lat="44.45281" lon="6.55654">
        <ele>2208</ele>
        <time>2021-04-08T10:46:18Z</time>
      </trkpt>
      <trkpt lat="44.45287" lon="6.55657">
        <ele>2207</ele>
        <time>2021-04-08T10:46:19Z</time>
      </trkpt>
      <trkpt lat="44.45293" lon="6.55659">
        <ele>2206</ele>
        <time>2021-04-08T10:46:20Z</time>
      </trkpt>
      <trkpt lat="44.453" lon="6.55663">
        <ele>2205</ele>
        <time>2021-04-08T10:46:21Z</time>
      </trkpt>
      <trkpt lat="44.45306" lon="6.55668">
        <ele>2205</ele>
        <time>2021-04-08T10:46:22Z</time>
      </trkpt>
      <trkpt lat="44.45311" lon="6.55673">
        <ele>2205</ele>
        <time>2021-04-08T10:46:23Z</time>
      </trkpt>
      <trkpt lat="44.45316" lon="6.55677">
        <ele>2205</ele>
        <time>2021-04-08T10:46:24Z</time>
      </trkpt>
      <trkpt lat="44.45319" lon="6.5568">
        <ele>2205</ele>
        <time>2021-04-08T10:46:25Z</time>
      </trkpt>
      <trkpt lat="44.45321" lon="6.55682">
        <ele>2205</ele>
        <time>2021-04-08T10:46:26Z</time>
      </trkpt>
      <trkpt lat="44.45322" lon="6.55685">
        <ele>2205</ele>
        <time>2021-04-08T10:46:27Z</time>
      </trkpt>
      <trkpt lat="44.45325" lon="6.55688">
        <ele>2205</ele>
        <time>2021-04-08T10:46:28Z</time>
      </trkpt>
      <trkpt lat="44.45327" lon="6.55692">
        <ele>2205</ele>
        <time>2021-04-08T10:46:29Z</time>
      </trkpt>
      <trkpt lat="44.4533" lon="6.55695">
        <ele>2205</ele>
        <time>2021-04-08T10:46:30Z</time>
      </trkpt>
      <trkpt lat="44.45333" lon="6.55699">
        <ele>2205</ele>
        <time>2021-04-08T10:46:31Z</time>
      </trkpt>
      <trkpt lat="44.45337" lon="6.55704">
        <ele>2205</ele>
        <time>2021-04-08T10:46:32Z</time>
      </trkpt>
      <trkpt lat="44.4534" lon="6.55707">
        <ele>2205</ele>
        <time>2021-04-08T10:46:33Z</time>
      </trkpt>
      <trkpt lat="44.45343" lon="6.5571">
        <ele>2205</ele>
        <time>2021-04-08T10:46:34Z</time>
      </trkpt>
      <trkpt lat="44.45346" lon="6.55713">
        <ele>2205</ele>
        <time>2021-04-08T10:46:35Z</time>
      </trkpt>
      <trkpt lat="44.45349" lon="6.55716">
        <ele>2205</ele>
        <time>2021-04-08T10:46:36Z</time>
      </trkpt>
      <trkpt lat="44.45351" lon="6.55719">
        <ele>2205</ele>
        <time>2021-04-08T10:46:37Z</time>
      </trkpt>
      <trkpt lat="44.45354" lon="6.55721">
        <ele>2205</ele>
        <time>2021-04-08T10:46:38Z</time>
      </trkpt>
      <trkpt lat="44.45357" lon="6.55724">
        <ele>2205</ele>
        <time>2021-04-08T10:46:39Z</time>
      </trkpt>
      <trkpt lat="44.4536" lon="6.55726">
        <ele>2205</ele>
        <time>2021-04-08T10:46:40Z</time>
      </trkpt>
      <trkpt lat="44.45363" lon="6.55726">
        <ele>2205</ele>
        <time>2021-04-08T10:46:41Z</time>
      </trkpt>
      <trkpt lat="44.45367" lon="6.55726">
        <ele>2205</ele>
        <time>2021-04-08T10:46:42Z</time>
      </trkpt>
      <trkpt lat="44.45371" lon="6.55725">
        <ele>2205</ele>
        <time>2021-04-08T10:46:43Z</time>
      </trkpt>
      <trkpt lat="44.45376" lon="6.55725">
        <ele>2204</ele>
        <time>2021-04-08T10:46:44Z</time>
      </trkpt>
      <trkpt lat="44.45383" lon="6.55724">
        <ele>2203</ele>
        <time>2021-04-08T10:46:45Z</time>
      </trkpt>
      <trkpt lat="44.4539" lon="6.55723">
        <ele>2202</ele>
        <time>2021-04-08T10:46:46Z</time>
      </trkpt>
      <trkpt lat="44.45397" lon="6.55722">
        <ele>2202</ele>
        <time>2021-04-08T10:46:47Z</time>
      </trkpt>
      <trkpt lat="44.45403" lon="6.55721">
        <ele>2201</ele>
        <time>2021-04-08T10:46:48Z</time>
      </trkpt>
      <trkpt lat="44.45408" lon="6.5572">
        <ele>2200</ele>
        <time>2021-04-08T10:46:49Z</time>
      </trkpt>
      <trkpt lat="44.45413" lon="6.5572">
        <ele>2199</ele>
        <time>2021-04-08T10:46:50Z</time>
      </trkpt>
      <trkpt lat="44.45418" lon="6.55719">
        <ele>2198</ele>
        <time>2021-04-08T10:46:51Z</time>
      </trkpt>
      <trkpt lat="44.45422" lon="6.55718">
        <ele>2197</ele>
        <time>2021-04-08T10:46:52Z</time>
      </trkpt>
      <trkpt lat="44.45427" lon="6.55716">
        <ele>2197</ele>
        <time>2021-04-08T10:46:53Z</time>
      </trkpt>
      <trkpt lat="44.45432" lon="6.55715">
        <ele>2196</ele>
        <time>2021-04-08T10:46:54Z</time>
      </trkpt>
      <trkpt lat="44.45436" lon="6.55714">
        <ele>2195</ele>
        <time>2021-04-08T10:46:55Z</time>
      </trkpt>
      <trkpt lat="44.45441" lon="6.55713">
        <ele>2194</ele>
        <time>2021-04-08T10:46:56Z</time>
      </trkpt>
      <trkpt lat="44.45445" lon="6.55712">
        <ele>2193</ele>
        <time>2021-04-08T10:46:57Z</time>
      </trkpt>
      <trkpt lat="44.4545" lon="6.5571">
        <ele>2193</ele>
        <time>2021-04-08T10:46:58Z</time>
      </trkpt>
      <trkpt lat="44.45455" lon="6.55707">
        <ele>2192</ele>
        <time>2021-04-08T10:46:59Z</time>
      </trkpt>
      <trkpt lat="44.4546" lon="6.55705">
        <ele>2191</ele>
        <time>2021-04-08T10:47:00Z</time>
      </trkpt>
      <trkpt lat="44.45466" lon="6.55702">
        <ele>2191</ele>
        <time>2021-04-08T10:47:01Z</time>
      </trkpt>
      <trkpt lat="44.45471" lon="6.557">
        <ele>2190</ele>
        <time>2021-04-08T10:47:02Z</time>
      </trkpt>
      <trkpt lat="44.45477" lon="6.55699">
        <ele>2190</ele>
        <time>2021-04-08T10:47:03Z</time>
      </trkpt>
      <trkpt lat="44.45482" lon="6.55698">
        <ele>2189</ele>
        <time>2021-04-08T10:47:04Z</time>
      </trkpt>
      <trkpt lat="44.45487" lon="6.55697">
        <ele>2189</ele>
        <time>2021-04-08T10:47:05Z</time>
      </trkpt>
      <trkpt lat="44.45492" lon="6.55696">
        <ele>2188</ele>
        <time>2021-04-08T10:47:06Z</time>
      </trkpt>
      <trkpt lat="44.45496" lon="6.55695">
        <ele>2188</ele>
        <time>2021-04-08T10:47:07Z</time>
      </trkpt>
      <trkpt lat="44.45499" lon="6.55694">
        <ele>2188</ele>
        <time>2021-04-08T10:47:08Z</time>
      </trkpt>
      <trkpt lat="44.45503" lon="6.55693">
        <ele>2187</ele>
        <time>2021-04-08T10:47:09Z</time>
      </trkpt>
      <trkpt lat="44.45508" lon="6.55692">
        <ele>2187</ele>
        <time>2021-04-08T10:47:10Z</time>
      </trkpt>
      <trkpt lat="44.45511" lon="6.55691">
        <ele>2186</ele>
        <time>2021-04-08T10:47:11Z</time>
      </trkpt>
      <trkpt lat="44.45514" lon="6.55689">
        <ele>2186</ele>
        <time>2021-04-08T10:47:12Z</time>
      </trkpt>
      <trkpt lat="44.45518" lon="6.55688">
        <ele>2185</ele>
        <time>2021-04-08T10:47:13Z</time>
      </trkpt>
      <trkpt lat="44.45521" lon="6.55686">
        <ele>2185</ele>
        <time>2021-04-08T10:47:14Z</time>
      </trkpt>
      <trkpt lat="44.45525" lon="6.55684">
        <ele>2184</ele>
        <time>2021-04-08T10:47:15Z</time>
      </trkpt>
      <trkpt lat="44.45528" lon="6.55682">
        <ele>2184</ele>
        <time>2021-04-08T10:47:16Z</time>
      </trkpt>
      <trkpt lat="44.45529" lon="6.55679">
        <ele>2184</ele>
        <time>2021-04-08T10:47:17Z</time>
      </trkpt>
      <trkpt lat="44.45529" lon="6.55679">
        <ele>2184</ele>
        <time>2021-04-08T10:47:18Z</time>
      </trkpt>
      <trkpt lat="44.45529" lon="6.55678">
        <ele>2183</ele>
        <time>2021-04-08T10:47:19Z</time>
      </trkpt>
      <trkpt lat="44.45529" lon="6.55678">
        <ele>2183</ele>
        <time>2021-04-08T10:47:20Z</time>
      </trkpt>
      <trkpt lat="44.45529" lon="6.55678">
        <ele>2183</ele>
        <time>2021-04-08T10:47:21Z</time>
      </trkpt>
      <trkpt lat="44.45529" lon="6.55678">
        <ele>2183</ele>
        <time>2021-04-08T10:47:22Z</time>
      </trkpt>
      <trkpt lat="44.45529" lon="6.55678">
        <ele>2183</ele>
        <time>2021-04-08T10:47:23Z</time>
      </trkpt>
      <trkpt lat="44.45529" lon="6.55678">
        <ele>2183</ele>
        <time>2021-04-08T10:47:24Z</time>
      </trkpt>
      <trkpt lat="44.45529" lon="6.55678">
        <ele>2183</ele>
        <time>2021-04-08T10:47:25Z</time>
      </trkpt>
      <trkpt lat="44.45529" lon="6.55678">
        <ele>2183</ele>
        <time>2021-04-08T10:47:26Z</time>
      </trkpt>
      <trkpt lat="44.45529" lon="6.55678">
        <ele>2183</ele>
        <time>2021-04-08T10:47:27Z</time>
      </trkpt>
      <trkpt lat="44.45529" lon="6.55678">
        <ele>2183</ele>
        <time>2021-04-08T10:47:28Z</time>
      </trkpt>
      <trkpt lat="44.45529" lon="6.55678">
        <ele>2183</ele>
        <time>2021-04-08T10:47:29Z</time>
      </trkpt>
      <trkpt lat="44.45529" lon="6.55678">
        <ele>2183</ele>
        <time>2021-04-08T10:47:30Z</time>
      </trkpt>
      <trkpt lat="44.45529" lon="6.55678">
        <ele>2183</ele>
        <time>2021-04-08T10:47:31Z</time>
      </trkpt>
      <trkpt lat="44.45529" lon="6.55678">
        <ele>2183</ele>
        <time>2021-04-08T10:47:32Z</time>
      </trkpt>
      <trkpt lat="44.45529" lon="6.55678">
        <ele>2183</ele>
        <time>2021-04-08T10:47:33Z</time>
      </trkpt>
      <trkpt lat="44.45529" lon="6.55678">
        <ele>2183</ele>
        <time>2021-04-08T10:47:34Z</time>
      </trkpt>
      <trkpt lat="44.45529" lon="6.55678">
        <ele>2183</ele>
        <time>2021-04-08T10:47:35Z</time>
      </trkpt>
      <trkpt lat="44.45529" lon="6.55678">
        <ele>2183</ele>
        <time>2021-04-08T10:47:36Z</time>
      </trkpt>
      <trkpt lat="44.45529" lon="6.55678">
        <ele>2183</ele>
        <time>2021-04-08T10:47:37Z</time>
      </trkpt>
      <trkpt lat="44.45529" lon="6.55678">
        <ele>2183</ele>
        <time>2021-04-08T10:47:38Z</time>
      </trkpt>
      <trkpt lat="44.45529" lon="6.55678">
        <ele>2183</ele>
        <time>2021-04-08T10:47:39Z</time>
      </trkpt>
      <trkpt lat="44.45529" lon="6.55678">
        <ele>2183</ele>
        <time>2021-04-08T10:47:40Z</time>
      </trkpt>
      <trkpt lat="44.45529" lon="6.55678">
        <ele>2183</ele>
        <time>2021-04-08T10:47:41Z</time>
      </trkpt>
      <trkpt lat="44.45529" lon="6.55678">
        <ele>2183</ele>
        <time>2021-04-08T10:47:42Z</time>
      </trkpt>
      <trkpt lat="44.45529" lon="6.55678">
        <ele>2183</ele>
        <time>2021-04-08T10:47:43Z</time>
      </trkpt>
      <trkpt lat="44.45529" lon="6.55678">
        <ele>2183</ele>
        <time>2021-04-08T10:47:44Z</time>
      </trkpt>
      <trkpt lat="44.45529" lon="6.55678">
        <ele>2183</ele>
        <time>2021-04-08T10:47:45Z</time>
      </trkpt>
      <trkpt lat="44.45529" lon="6.55678">
        <ele>2183</ele>
        <time>2021-04-08T10:47:46Z</time>
      </trkpt>
      <trkpt lat="44.45529" lon="6.55678">
        <ele>2183</ele>
        <time>2021-04-08T10:47:47Z</time>
      </trkpt>
      <trkpt lat="44.45529" lon="6.55678">
        <ele>2183</ele>
        <time>2021-04-08T10:47:48Z</time>
      </trkpt>
      <trkpt lat="44.45529" lon="6.55678">
        <ele>2183</ele>
        <time>2021-04-08T10:47:49Z</time>
      </trkpt>
      <trkpt lat="44.45529" lon="6.55678">
        <ele>2183</ele>
        <time>2021-04-08T10:47:50Z</time>
      </trkpt>
      <trkpt lat="44.45529" lon="6.55678">
        <ele>2183</ele>
        <time>2021-04-08T10:47:51Z</time>
      </trkpt>
      <trkpt lat="44.45529" lon="6.55678">
        <ele>2183</ele>
        <time>2021-04-08T10:47:52Z</time>
      </trkpt>
      <trkpt lat="44.45529" lon="6.55678">
        <ele>2183</ele>
        <time>2021-04-08T10:47:53Z</time>
      </trkpt>
      <trkpt lat="44.45529" lon="6.55678">
        <ele>2183</ele>
        <time>2021-04-08T10:47:54Z</time>
      </trkpt>
      <trkpt lat="44.45529" lon="6.55678">
        <ele>2183</ele>
        <time>2021-04-08T10:47:55Z</time>
      </trkpt>
      <trkpt lat="44.45529" lon="6.55678">
        <ele>2183</ele>
        <time>2021-04-08T10:47:56Z</time>
      </trkpt>
      <trkpt lat="44.45529" lon="6.55678">
        <ele>2183</ele>
        <time>2021-04-08T10:47:57Z</time>
      </trkpt>
      <trkpt lat="44.45529" lon="6.55678">
        <ele>2183</ele>
        <time>2021-04-08T10:47:58Z</time>
      </trkpt>
      <trkpt lat="44.45529" lon="6.55678">
        <ele>2183</ele>
        <time>2021-04-08T10:47:59Z</time>
      </trkpt>
      <trkpt lat="44.45529" lon="6.55678">
        <ele>2183</ele>
        <time>2021-04-08T10:48:00Z</time>
      </trkpt>
      <trkpt lat="44.45529" lon="6.55678">
        <ele>2183</ele>
        <time>2021-04-08T10:48:01Z</time>
      </trkpt>
      <trkpt lat="44.45529" lon="6.55678">
        <ele>2183</ele>
        <time>2021-04-08T10:48:02Z</time>
      </trkpt>
      <trkpt lat="44.45529" lon="6.55678">
        <ele>2183</ele>
        <time>2021-04-08T10:48:03Z</time>
      </trkpt>
      <trkpt lat="44.45529" lon="6.55678">
        <ele>2183</ele>
        <time>2021-04-08T10:48:04Z</time>
      </trkpt>
      <trkpt lat="44.45529" lon="6.55678">
        <ele>2183</ele>
        <time>2021-04-08T10:48:05Z</time>
      </trkpt>
      <trkpt lat="44.45529" lon="6.55678">
        <ele>2183</ele>
        <time>2021-04-08T10:48:06Z</time>
      </trkpt>
      <trkpt lat="44.45529" lon="6.55678">
        <ele>2183</ele>
        <time>2021-04-08T10:48:07Z</time>
      </trkpt>
      <trkpt lat="44.45529" lon="6.55678">
        <ele>2183</ele>
        <time>2021-04-08T10:48:08Z</time>
      </trkpt>
      <trkpt lat="44.45529" lon="6.55678">
        <ele>2183</ele>
        <time>2021-04-08T10:48:09Z</time>
      </trkpt>
      <trkpt lat="44.45529" lon="6.55678">
        <ele>2183</ele>
        <time>2021-04-08T10:48:10Z</time>
      </trkpt>
      <trkpt lat="44.45529" lon="6.55678">
        <ele>2183</ele>
        <time>2021-04-08T10:48:11Z</time>
      </trkpt>
      <trkpt lat="44.45529" lon="6.55678">
        <ele>2183</ele>
        <time>2021-04-08T10:48:12Z</time>
      </trkpt>
      <trkpt lat="44.45529" lon="6.55678">
        <ele>2183</ele>
        <time>2021-04-08T10:48:13Z</time>
      </trkpt>
      <trkpt lat="44.45529" lon="6.55678">
        <ele>2183</ele>
        <time>2021-04-08T10:48:14Z</time>
      </trkpt>
      <trkpt lat="44.45529" lon="6.55678">
        <ele>2183</ele>
        <time>2021-04-08T10:48:15Z</time>
      </trkpt>
      <trkpt lat="44.45529" lon="6.55678">
        <ele>2183</ele>
        <time>2021-04-08T10:48:16Z</time>
      </trkpt>
      <trkpt lat="44.45529" lon="6.55678">
        <ele>2183</ele>
        <time>2021-04-08T10:48:17Z</time>
      </trkpt>
      <trkpt lat="44.45529" lon="6.55678">
        <ele>2183</ele>
        <time>2021-04-08T10:48:18Z</time>
      </trkpt>
      <trkpt lat="44.45529" lon="6.55678">
        <ele>2183</ele>
        <time>2021-04-08T10:48:19Z</time>
      </trkpt>
      <trkpt lat="44.45529" lon="6.55678">
        <ele>2183</ele>
        <time>2021-04-08T10:48:20Z</time>
      </trkpt>
      <trkpt lat="44.45529" lon="6.55678">
        <ele>2183</ele>
        <time>2021-04-08T10:48:21Z</time>
      </trkpt>
      <trkpt lat="44.45529" lon="6.55678">
        <ele>2183</ele>
        <time>2021-04-08T10:48:22Z</time>
      </trkpt>
      <trkpt lat="44.45529" lon="6.55678">
        <ele>2183</ele>
        <time>2021-04-08T10:48:23Z</time>
      </trkpt>
      <trkpt lat="44.45529" lon="6.55678">
        <ele>2183</ele>
        <time>2021-04-08T10:48:24Z</time>
      </trkpt>
      <trkpt lat="44.45529" lon="6.55678">
        <ele>2183</ele>
        <time>2021-04-08T10:48:25Z</time>
      </trkpt>
      <trkpt lat="44.45529" lon="6.55678">
        <ele>2183</ele>
        <time>2021-04-08T10:48:26Z</time>
      </trkpt>
      <trkpt lat="44.45529" lon="6.55678">
        <ele>2183</ele>
        <time>2021-04-08T10:48:27Z</time>
      </trkpt>
      <trkpt lat="44.45529" lon="6.55678">
        <ele>2183</ele>
        <time>2021-04-08T10:48:28Z</time>
      </trkpt>
      <trkpt lat="44.45529" lon="6.55678">
        <ele>2183</ele>
        <time>2021-04-08T10:48:29Z</time>
      </trkpt>
      <trkpt lat="44.45529" lon="6.55678">
        <ele>2183</ele>
        <time>2021-04-08T10:48:30Z</time>
      </trkpt>
      <trkpt lat="44.45529" lon="6.55678">
        <ele>2183</ele>
        <time>2021-04-08T10:48:31Z</time>
      </trkpt>
      <trkpt lat="44.45529" lon="6.55678">
        <ele>2183</ele>
        <time>2021-04-08T10:48:32Z</time>
      </trkpt>
      <trkpt lat="44.45529" lon="6.55678">
        <ele>2183</ele>
        <time>2021-04-08T10:48:33Z</time>
      </trkpt>
      <trkpt lat="44.45529" lon="6.55678">
        <ele>2183</ele>
        <time>2021-04-08T10:48:34Z</time>
      </trkpt>
      <trkpt lat="44.45529" lon="6.55678">
        <ele>2183</ele>
        <time>2021-04-08T10:48:35Z</time>
      </trkpt>
      <trkpt lat="44.45529" lon="6.55678">
        <ele>2183</ele>
        <time>2021-04-08T10:48:36Z</time>
      </trkpt>
      <trkpt lat="44.45529" lon="6.55678">
        <ele>2183</ele>
        <time>2021-04-08T10:48:37Z</time>
      </trkpt>
      <trkpt lat="44.45529" lon="6.55678">
        <ele>2183</ele>
        <time>2021-04-08T10:48:38Z</time>
      </trkpt>
      <trkpt lat="44.45529" lon="6.55678">
        <ele>2183</ele>
        <time>2021-04-08T10:48:39Z</time>
      </trkpt>
      <trkpt lat="44.45529" lon="6.55678">
        <ele>2183</ele>
        <time>2021-04-08T10:48:40Z</time>
      </trkpt>
      <trkpt lat="44.45529" lon="6.55678">
        <ele>2183</ele>
        <time>2021-04-08T10:48:41Z</time>
      </trkpt>
      <trkpt lat="44.45529" lon="6.55678">
        <ele>2183</ele>
        <time>2021-04-08T10:48:42Z</time>
      </trkpt>
      <trkpt lat="44.45529" lon="6.55678">
        <ele>2183</ele>
        <time>2021-04-08T10:48:43Z</time>
      </trkpt>
      <trkpt lat="44.45529" lon="6.55678">
        <ele>2183</ele>
        <time>2021-04-08T10:48:44Z</time>
      </trkpt>
      <trkpt lat="44.45529" lon="6.55678">
        <ele>2183</ele>
        <time>2021-04-08T10:48:45Z</time>
      </trkpt>
      <trkpt lat="44.45529" lon="6.55678">
        <ele>2183</ele>
        <time>2021-04-08T10:48:46Z</time>
      </trkpt>
      <trkpt lat="44.45529" lon="6.55678">
        <ele>2183</ele>
        <time>2021-04-08T10:48:47Z</time>
      </trkpt>
      <trkpt lat="44.45529" lon="6.55678">
        <ele>2183</ele>
        <time>2021-04-08T10:48:48Z</time>
      </trkpt>
      <trkpt lat="44.45529" lon="6.55678">
        <ele>2183</ele>
        <time>2021-04-08T10:48:49Z</time>
      </trkpt>
      <trkpt lat="44.45529" lon="6.55678">
        <ele>2183</ele>
        <time>2021-04-08T10:48:50Z</time>
      </trkpt>
      <trkpt lat="44.45529" lon="6.55678">
        <ele>2183</ele>
        <time>2021-04-08T10:48:51Z</time>
      </trkpt>
      <trkpt lat="44.45529" lon="6.55678">
        <ele>2183</ele>
        <time>2021-04-08T10:48:52Z</time>
      </trkpt>
      <trkpt lat="44.45529" lon="6.55678">
        <ele>2183</ele>
        <time>2021-04-08T10:48:53Z</time>
      </trkpt>
      <trkpt lat="44.45529" lon="6.55678">
        <ele>2183</ele>
        <time>2021-04-08T10:48:54Z</time>
      </trkpt>
      <trkpt lat="44.45529" lon="6.55678">
        <ele>2183</ele>
        <time>2021-04-08T10:48:55Z</time>
      </trkpt>
      <trkpt lat="44.45529" lon="6.55678">
        <ele>2183</ele>
        <time>2021-04-08T10:48:56Z</time>
      </trkpt>
      <trkpt lat="44.45529" lon="6.55678">
        <ele>2183</ele>
        <time>2021-04-08T10:48:57Z</time>
      </trkpt>
      <trkpt lat="44.45529" lon="6.55678">
        <ele>2183</ele>
        <time>2021-04-08T10:48:58Z</time>
      </trkpt>
      <trkpt lat="44.45529" lon="6.55678">
        <ele>2183</ele>
        <time>2021-04-08T10:48:59Z</time>
      </trkpt>
      <trkpt lat="44.45529" lon="6.55678">
        <ele>2183</ele>
        <time>2021-04-08T10:49:00Z</time>
      </trkpt>
      <trkpt lat="44.45529" lon="6.55678">
        <ele>2183</ele>
        <time>2021-04-08T10:49:01Z</time>
      </trkpt>
      <trkpt lat="44.45529" lon="6.55678">
        <ele>2183</ele>
        <time>2021-04-08T10:49:02Z</time>
      </trkpt>
      <trkpt lat="44.45529" lon="6.55678">
        <ele>2183</ele>
        <time>2021-04-08T10:49:03Z</time>
      </trkpt>
      <trkpt lat="44.45529" lon="6.55678">
        <ele>2183</ele>
        <time>2021-04-08T10:49:04Z</time>
      </trkpt>
      <trkpt lat="44.45529" lon="6.55678">
        <ele>2183</ele>
        <time>2021-04-08T10:49:05Z</time>
      </trkpt>
      <trkpt lat="44.45529" lon="6.55678">
        <ele>2183</ele>
        <time>2021-04-08T10:49:06Z</time>
      </trkpt>
      <trkpt lat="44.4553" lon="6.5567">
        <ele>2184</ele>
        <time>2021-04-08T10:49:07Z</time>
      </trkpt>
      <trkpt lat="44.45532" lon="6.55668">
        <ele>2184</ele>
        <time>2021-04-08T10:49:08Z</time>
      </trkpt>
      <trkpt lat="44.45533" lon="6.55666">
        <ele>2184</ele>
        <time>2021-04-08T10:49:09Z</time>
      </trkpt>
      <trkpt lat="44.45534" lon="6.55663">
        <ele>2184</ele>
        <time>2021-04-08T10:49:10Z</time>
      </trkpt>
      <trkpt lat="44.45535" lon="6.55661">
        <ele>2184</ele>
        <time>2021-04-08T10:49:11Z</time>
      </trkpt>
      <trkpt lat="44.45535" lon="6.55659">
        <ele>2184</ele>
        <time>2021-04-08T10:49:12Z</time>
      </trkpt>
      <trkpt lat="44.45535" lon="6.55658">
        <ele>2184</ele>
        <time>2021-04-08T10:49:13Z</time>
      </trkpt>
      <trkpt lat="44.45536" lon="6.55657">
        <ele>2184</ele>
        <time>2021-04-08T10:49:14Z</time>
      </trkpt>
      <trkpt lat="44.45537" lon="6.55655">
        <ele>2184</ele>
        <time>2021-04-08T10:49:15Z</time>
      </trkpt>
      <trkpt lat="44.45539" lon="6.55653">
        <ele>2183</ele>
        <time>2021-04-08T10:49:16Z</time>
      </trkpt>
      <trkpt lat="44.45542" lon="6.5565">
        <ele>2182</ele>
        <time>2021-04-08T10:49:17Z</time>
      </trkpt>
      <trkpt lat="44.45546" lon="6.55647">
        <ele>2182</ele>
        <time>2021-04-08T10:49:18Z</time>
      </trkpt>
      <trkpt lat="44.45551" lon="6.55645">
        <ele>2181</ele>
        <time>2021-04-08T10:49:19Z</time>
      </trkpt>
      <trkpt lat="44.45557" lon="6.55645">
        <ele>2180</ele>
        <time>2021-04-08T10:49:20Z</time>
      </trkpt>
      <trkpt lat="44.45564" lon="6.55648">
        <ele>2180</ele>
        <time>2021-04-08T10:49:21Z</time>
      </trkpt>
      <trkpt lat="44.4557" lon="6.55654">
        <ele>2179</ele>
        <time>2021-04-08T10:49:22Z</time>
      </trkpt>
      <trkpt lat="44.45578" lon="6.5566">
        <ele>2179</ele>
        <time>2021-04-08T10:49:23Z</time>
      </trkpt>
      <trkpt lat="44.45585" lon="6.55663">
        <ele>2178</ele>
        <time>2021-04-08T10:49:24Z</time>
      </trkpt>
      <trkpt lat="44.45593" lon="6.55661">
        <ele>2177</ele>
        <time>2021-04-08T10:49:25Z</time>
      </trkpt>
      <trkpt lat="44.45598" lon="6.55652">
        <ele>2176</ele>
        <time>2021-04-08T10:49:26Z</time>
      </trkpt>
      <trkpt lat="44.45604" lon="6.55644">
        <ele>2174</ele>
        <time>2021-04-08T10:49:27Z</time>
      </trkpt>
      <trkpt lat="44.45612" lon="6.55642">
        <ele>2173</ele>
        <time>2021-04-08T10:49:28Z</time>
      </trkpt>
      <trkpt lat="44.45619" lon="6.55648">
        <ele>2170</ele>
        <time>2021-04-08T10:49:29Z</time>
      </trkpt>
      <trkpt lat="44.45626" lon="6.55655">
        <ele>2167</ele>
        <time>2021-04-08T10:49:30Z</time>
      </trkpt>
      <trkpt lat="44.45633" lon="6.55659">
        <ele>2165</ele>
        <time>2021-04-08T10:49:31Z</time>
      </trkpt>
      <trkpt lat="44.45641" lon="6.55657">
        <ele>2163</ele>
        <time>2021-04-08T10:49:32Z</time>
      </trkpt>
      <trkpt lat="44.45645" lon="6.55648">
        <ele>2162</ele>
        <time>2021-04-08T10:49:33Z</time>
      </trkpt>
      <trkpt lat="44.45648" lon="6.55638">
        <ele>2160</ele>
        <time>2021-04-08T10:49:34Z</time>
      </trkpt>
      <trkpt lat="44.4565" lon="6.55627">
        <ele>2157</ele>
        <time>2021-04-08T10:49:35Z</time>
      </trkpt>
      <trkpt lat="44.4565" lon="6.55615">
        <ele>2154</ele>
        <time>2021-04-08T10:49:36Z</time>
      </trkpt>
      <trkpt lat="44.45651" lon="6.55603">
        <ele>2152</ele>
        <time>2021-04-08T10:49:37Z</time>
      </trkpt>
      <trkpt lat="44.45651" lon="6.55591">
        <ele>2150</ele>
        <time>2021-04-08T10:49:38Z</time>
      </trkpt>
      <trkpt lat="44.45651" lon="6.55579">
        <ele>2149</ele>
        <time>2021-04-08T10:49:39Z</time>
      </trkpt>
      <trkpt lat="44.45651" lon="6.55567">
        <ele>2148</ele>
        <time>2021-04-08T10:49:40Z</time>
      </trkpt>
      <trkpt lat="44.45652" lon="6.55556">
        <ele>2146</ele>
        <time>2021-04-08T10:49:41Z</time>
      </trkpt>
      <trkpt lat="44.45652" lon="6.55544">
        <ele>2145</ele>
        <time>2021-04-08T10:49:42Z</time>
      </trkpt>
      <trkpt lat="44.45652" lon="6.55534">
        <ele>2145</ele>
        <time>2021-04-08T10:49:43Z</time>
      </trkpt>
      <trkpt lat="44.45651" lon="6.55524">
        <ele>2144</ele>
        <time>2021-04-08T10:49:44Z</time>
      </trkpt>
      <trkpt lat="44.45648" lon="6.55515">
        <ele>2144</ele>
        <time>2021-04-08T10:49:45Z</time>
      </trkpt>
      <trkpt lat="44.45645" lon="6.55506">
        <ele>2142</ele>
        <time>2021-04-08T10:49:46Z</time>
      </trkpt>
      <trkpt lat="44.45644" lon="6.55495">
        <ele>2140</ele>
        <time>2021-04-08T10:49:47Z</time>
      </trkpt>
      <trkpt lat="44.45645" lon="6.55484">
        <ele>2139</ele>
        <time>2021-04-08T10:49:48Z</time>
      </trkpt>
      <trkpt lat="44.45647" lon="6.55474">
        <ele>2138</ele>
        <time>2021-04-08T10:49:49Z</time>
      </trkpt>
      <trkpt lat="44.45651" lon="6.55465">
        <ele>2137</ele>
        <time>2021-04-08T10:49:50Z</time>
      </trkpt>
      <trkpt lat="44.45658" lon="6.55459">
        <ele>2136</ele>
        <time>2021-04-08T10:49:51Z</time>
      </trkpt>
      <trkpt lat="44.45665" lon="6.55454">
        <ele>2135</ele>
        <time>2021-04-08T10:49:52Z</time>
      </trkpt>
      <trkpt lat="44.45673" lon="6.5545">
        <ele>2134</ele>
        <time>2021-04-08T10:49:53Z</time>
      </trkpt>
      <trkpt lat="44.45682" lon="6.55448">
        <ele>2134</ele>
        <time>2021-04-08T10:49:54Z</time>
      </trkpt>
      <trkpt lat="44.45689" lon="6.55446">
        <ele>2134</ele>
        <time>2021-04-08T10:49:55Z</time>
      </trkpt>
      <trkpt lat="44.45696" lon="6.55445">
        <ele>2134</ele>
        <time>2021-04-08T10:49:56Z</time>
      </trkpt>
      <trkpt lat="44.45703" lon="6.55444">
        <ele>2134</ele>
        <time>2021-04-08T10:49:57Z</time>
      </trkpt>
      <trkpt lat="44.45708" lon="6.55443">
        <ele>2134</ele>
        <time>2021-04-08T10:49:58Z</time>
      </trkpt>
      <trkpt lat="44.45713" lon="6.55443">
        <ele>2135</ele>
        <time>2021-04-08T10:49:59Z</time>
      </trkpt>
      <trkpt lat="44.45718" lon="6.55443">
        <ele>2136</ele>
        <time>2021-04-08T10:50:00Z</time>
      </trkpt>
      <trkpt lat="44.45722" lon="6.55444">
        <ele>2137</ele>
        <time>2021-04-08T10:50:01Z</time>
      </trkpt>
      <trkpt lat="44.45724" lon="6.55445">
        <ele>2137</ele>
        <time>2021-04-08T10:50:02Z</time>
      </trkpt>
      <trkpt lat="44.45726" lon="6.55445">
        <ele>2138</ele>
        <time>2021-04-08T10:50:03Z</time>
      </trkpt>
      <trkpt lat="44.45727" lon="6.55446">
        <ele>2138</ele>
        <time>2021-04-08T10:50:04Z</time>
      </trkpt>
      <trkpt lat="44.45729" lon="6.55447">
        <ele>2139</ele>
        <time>2021-04-08T10:50:05Z</time>
      </trkpt>
      <trkpt lat="44.4573" lon="6.55447">
        <ele>2139</ele>
        <time>2021-04-08T10:50:06Z</time>
      </trkpt>
      <trkpt lat="44.4573" lon="6.55447">
        <ele>2139</ele>
        <time>2021-04-08T10:50:07Z</time>
      </trkpt>
      <trkpt lat="44.45731" lon="6.55447">
        <ele>2139</ele>
        <time>2021-04-08T10:50:08Z</time>
      </trkpt>
      <trkpt lat="44.45732" lon="6.55447">
        <ele>2139</ele>
        <time>2021-04-08T10:50:09Z</time>
      </trkpt>
      <trkpt lat="44.45734" lon="6.55448">
        <ele>2139</ele>
        <time>2021-04-08T10:50:10Z</time>
      </trkpt>
      <trkpt lat="44.45735" lon="6.55451">
        <ele>2139</ele>
        <time>2021-04-08T10:50:11Z</time>
      </trkpt>
      <trkpt lat="44.45734" lon="6.55456">
        <ele>2139</ele>
        <time>2021-04-08T10:50:12Z</time>
      </trkpt>
      <trkpt lat="44.45733" lon="6.55463">
        <ele>2139</ele>
        <time>2021-04-08T10:50:13Z</time>
      </trkpt>
      <trkpt lat="44.45734" lon="6.55468">
        <ele>2138</ele>
        <time>2021-04-08T10:50:14Z</time>
      </trkpt>
      <trkpt lat="44.45736" lon="6.5547">
        <ele>2137</ele>
        <time>2021-04-08T10:50:15Z</time>
      </trkpt>
      <trkpt lat="44.45738" lon="6.55471">
        <ele>2136</ele>
        <time>2021-04-08T10:50:16Z</time>
      </trkpt>
      <trkpt lat="44.45738" lon="6.55474">
        <ele>2135</ele>
        <time>2021-04-08T10:50:17Z</time>
      </trkpt>
      <trkpt lat="44.45739" lon="6.55477">
        <ele>2134</ele>
        <time>2021-04-08T10:50:18Z</time>
      </trkpt>
      <trkpt lat="44.4574" lon="6.55479">
        <ele>2133</ele>
        <time>2021-04-08T10:50:19Z</time>
      </trkpt>
      <trkpt lat="44.45742" lon="6.55482">
        <ele>2131</ele>
        <time>2021-04-08T10:50:20Z</time>
      </trkpt>
      <trkpt lat="44.45744" lon="6.55487">
        <ele>2130</ele>
        <time>2021-04-08T10:50:21Z</time>
      </trkpt>
      <trkpt lat="44.45745" lon="6.55492">
        <ele>2128</ele>
        <time>2021-04-08T10:50:22Z</time>
      </trkpt>
      <trkpt lat="44.45745" lon="6.55498">
        <ele>2127</ele>
        <time>2021-04-08T10:50:23Z</time>
      </trkpt>
      <trkpt lat="44.45744" lon="6.55501">
        <ele>2126</ele>
        <time>2021-04-08T10:50:24Z</time>
      </trkpt>
      <trkpt lat="44.45742" lon="6.55504">
        <ele>2125</ele>
        <time>2021-04-08T10:50:25Z</time>
      </trkpt>
      <trkpt lat="44.4574" lon="6.5551">
        <ele>2124</ele>
        <time>2021-04-08T10:50:26Z</time>
      </trkpt>
      <trkpt lat="44.45738" lon="6.55515">
        <ele>2122</ele>
        <time>2021-04-08T10:50:27Z</time>
      </trkpt>
      <trkpt lat="44.45739" lon="6.55522">
        <ele>2121</ele>
        <time>2021-04-08T10:50:28Z</time>
      </trkpt>
      <trkpt lat="44.45742" lon="6.55531">
        <ele>2120</ele>
        <time>2021-04-08T10:50:29Z</time>
      </trkpt>
      <trkpt lat="44.45746" lon="6.5554">
        <ele>2119</ele>
        <time>2021-04-08T10:50:30Z</time>
      </trkpt>
      <trkpt lat="44.4575" lon="6.55548">
        <ele>2117</ele>
        <time>2021-04-08T10:50:31Z</time>
      </trkpt>
      <trkpt lat="44.45753" lon="6.55556">
        <ele>2116</ele>
        <time>2021-04-08T10:50:32Z</time>
      </trkpt>
      <trkpt lat="44.45756" lon="6.55565">
        <ele>2115</ele>
        <time>2021-04-08T10:50:33Z</time>
      </trkpt>
      <trkpt lat="44.45759" lon="6.55574">
        <ele>2114</ele>
        <time>2021-04-08T10:50:34Z</time>
      </trkpt>
      <trkpt lat="44.4576" lon="6.55582">
        <ele>2113</ele>
        <time>2021-04-08T10:50:35Z</time>
      </trkpt>
      <trkpt lat="44.45761" lon="6.5559">
        <ele>2112</ele>
        <time>2021-04-08T10:50:36Z</time>
      </trkpt>
      <trkpt lat="44.45762" lon="6.55599">
        <ele>2111</ele>
        <time>2021-04-08T10:50:37Z</time>
      </trkpt>
      <trkpt lat="44.45762" lon="6.55608">
        <ele>2109</ele>
        <time>2021-04-08T10:50:38Z</time>
      </trkpt>
      <trkpt lat="44.45762" lon="6.55617">
        <ele>2108</ele>
        <time>2021-04-08T10:50:39Z</time>
      </trkpt>
      <trkpt lat="44.45762" lon="6.55627">
        <ele>2107</ele>
        <time>2021-04-08T10:50:40Z</time>
      </trkpt>
      <trkpt lat="44.45761" lon="6.55635">
        <ele>2106</ele>
        <time>2021-04-08T10:50:41Z</time>
      </trkpt>
      <trkpt lat="44.4576" lon="6.55643">
        <ele>2104</ele>
        <time>2021-04-08T10:50:42Z</time>
      </trkpt>
      <trkpt lat="44.45762" lon="6.5565">
        <ele>2104</ele>
        <time>2021-04-08T10:50:43Z</time>
      </trkpt>
      <trkpt lat="44.45764" lon="6.55657">
        <ele>2103</ele>
        <time>2021-04-08T10:50:44Z</time>
      </trkpt>
      <trkpt lat="44.45769" lon="6.55662">
        <ele>2102</ele>
        <time>2021-04-08T10:50:45Z</time>
      </trkpt>
      <trkpt lat="44.45773" lon="6.55668">
        <ele>2101</ele>
        <time>2021-04-08T10:50:46Z</time>
      </trkpt>
      <trkpt lat="44.45778" lon="6.55673">
        <ele>2101</ele>
        <time>2021-04-08T10:50:47Z</time>
      </trkpt>
      <trkpt lat="44.45783" lon="6.55678">
        <ele>2100</ele>
        <time>2021-04-08T10:50:48Z</time>
      </trkpt>
      <trkpt lat="44.45789" lon="6.55681">
        <ele>2100</ele>
        <time>2021-04-08T10:50:49Z</time>
      </trkpt>
      <trkpt lat="44.45795" lon="6.55681">
        <ele>2100</ele>
        <time>2021-04-08T10:50:50Z</time>
      </trkpt>
      <trkpt lat="44.45801" lon="6.55679">
        <ele>2099</ele>
        <time>2021-04-08T10:50:51Z</time>
      </trkpt>
      <trkpt lat="44.45807" lon="6.55675">
        <ele>2098</ele>
        <time>2021-04-08T10:50:52Z</time>
      </trkpt>
      <trkpt lat="44.45813" lon="6.55672">
        <ele>2096</ele>
        <time>2021-04-08T10:50:53Z</time>
      </trkpt>
      <trkpt lat="44.4582" lon="6.55669">
        <ele>2095</ele>
        <time>2021-04-08T10:50:54Z</time>
      </trkpt>
      <trkpt lat="44.45826" lon="6.55668">
        <ele>2094</ele>
        <time>2021-04-08T10:50:55Z</time>
      </trkpt>
      <trkpt lat="44.45833" lon="6.55667">
        <ele>2094</ele>
        <time>2021-04-08T10:50:56Z</time>
      </trkpt>
      <trkpt lat="44.45839" lon="6.55667">
        <ele>2093</ele>
        <time>2021-04-08T10:50:57Z</time>
      </trkpt>
      <trkpt lat="44.45846" lon="6.55667">
        <ele>2092</ele>
        <time>2021-04-08T10:50:58Z</time>
      </trkpt>
      <trkpt lat="44.45851" lon="6.55667">
        <ele>2092</ele>
        <time>2021-04-08T10:50:59Z</time>
      </trkpt>
      <trkpt lat="44.45855" lon="6.55667">
        <ele>2091</ele>
        <time>2021-04-08T10:51:00Z</time>
      </trkpt>
      <trkpt lat="44.45858" lon="6.55667">
        <ele>2091</ele>
        <time>2021-04-08T10:51:01Z</time>
      </trkpt>
      <trkpt lat="44.45861" lon="6.55664">
        <ele>2091</ele>
        <time>2021-04-08T10:51:02Z</time>
      </trkpt>
      <trkpt lat="44.45866" lon="6.55658">
        <ele>2089</ele>
        <time>2021-04-08T10:51:03Z</time>
      </trkpt>
      <trkpt lat="44.45873" lon="6.55649">
        <ele>2088</ele>
        <time>2021-04-08T10:51:04Z</time>
      </trkpt>
      <trkpt lat="44.45882" lon="6.5564">
        <ele>2085</ele>
        <time>2021-04-08T10:51:05Z</time>
      </trkpt>
      <trkpt lat="44.4589" lon="6.55632">
        <ele>2082</ele>
        <time>2021-04-08T10:51:06Z</time>
      </trkpt>
      <trkpt lat="44.45898" lon="6.55624">
        <ele>2079</ele>
        <time>2021-04-08T10:51:07Z</time>
      </trkpt>
      <trkpt lat="44.45906" lon="6.55615">
        <ele>2077</ele>
        <time>2021-04-08T10:51:08Z</time>
      </trkpt>
      <trkpt lat="44.45914" lon="6.55608">
        <ele>2074</ele>
        <time>2021-04-08T10:51:09Z</time>
      </trkpt>
      <trkpt lat="44.45921" lon="6.55603">
        <ele>2072</ele>
        <time>2021-04-08T10:51:10Z</time>
      </trkpt>
      <trkpt lat="44.45929" lon="6.55598">
        <ele>2069</ele>
        <time>2021-04-08T10:51:11Z</time>
      </trkpt>
      <trkpt lat="44.45938" lon="6.55593">
        <ele>2069</ele>
        <time>2021-04-08T10:51:12Z</time>
      </trkpt>
      <trkpt lat="44.45946" lon="6.55589">
        <ele>2069</ele>
        <time>2021-04-08T10:51:13Z</time>
      </trkpt>
      <trkpt lat="44.45954" lon="6.55586">
        <ele>2068</ele>
        <time>2021-04-08T10:51:14Z</time>
      </trkpt>
      <trkpt lat="44.45963" lon="6.55585">
        <ele>2068</ele>
        <time>2021-04-08T10:51:15Z</time>
      </trkpt>
      <trkpt lat="44.45971" lon="6.55584">
        <ele>2068</ele>
        <time>2021-04-08T10:51:16Z</time>
      </trkpt>
      <trkpt lat="44.45979" lon="6.55585">
        <ele>2068</ele>
        <time>2021-04-08T10:51:17Z</time>
      </trkpt>
      <trkpt lat="44.45986" lon="6.55585">
        <ele>2068</ele>
        <time>2021-04-08T10:51:18Z</time>
      </trkpt>
      <trkpt lat="44.45991" lon="6.55585">
        <ele>2068</ele>
        <time>2021-04-08T10:51:19Z</time>
      </trkpt>
      <trkpt lat="44.45995" lon="6.55586">
        <ele>2069</ele>
        <time>2021-04-08T10:51:20Z</time>
      </trkpt>
      <trkpt lat="44.45998" lon="6.55586">
        <ele>2069</ele>
        <time>2021-04-08T10:51:21Z</time>
      </trkpt>
      <trkpt lat="44.46001" lon="6.55586">
        <ele>2069</ele>
        <time>2021-04-08T10:51:22Z</time>
      </trkpt>
      <trkpt lat="44.46002" lon="6.55587">
        <ele>2070</ele>
        <time>2021-04-08T10:51:23Z</time>
      </trkpt>
      <trkpt lat="44.46004" lon="6.55587">
        <ele>2070</ele>
        <time>2021-04-08T10:51:24Z</time>
      </trkpt>
      <trkpt lat="44.46005" lon="6.55586">
        <ele>2070</ele>
        <time>2021-04-08T10:51:25Z</time>
      </trkpt>
      <trkpt lat="44.46006" lon="6.55584">
        <ele>2070</ele>
        <time>2021-04-08T10:51:26Z</time>
      </trkpt>
      <trkpt lat="44.46007" lon="6.55583">
        <ele>2070</ele>
        <time>2021-04-08T10:51:27Z</time>
      </trkpt>
      <trkpt lat="44.46009" lon="6.5558">
        <ele>2069</ele>
        <time>2021-04-08T10:51:28Z</time>
      </trkpt>
      <trkpt lat="44.46011" lon="6.55578">
        <ele>2069</ele>
        <time>2021-04-08T10:51:29Z</time>
      </trkpt>
      <trkpt lat="44.46014" lon="6.55575">
        <ele>2068</ele>
        <time>2021-04-08T10:51:30Z</time>
      </trkpt>
      <trkpt lat="44.46016" lon="6.55572">
        <ele>2067</ele>
        <time>2021-04-08T10:51:31Z</time>
      </trkpt>
      <trkpt lat="44.46018" lon="6.55569">
        <ele>2067</ele>
        <time>2021-04-08T10:51:32Z</time>
      </trkpt>
      <trkpt lat="44.4602" lon="6.55566">
        <ele>2066</ele>
        <time>2021-04-08T10:51:33Z</time>
      </trkpt>
      <trkpt lat="44.46023" lon="6.55562">
        <ele>2065</ele>
        <time>2021-04-08T10:51:34Z</time>
      </trkpt>
      <trkpt lat="44.46025" lon="6.55558">
        <ele>2065</ele>
        <time>2021-04-08T10:51:35Z</time>
      </trkpt>
      <trkpt lat="44.46028" lon="6.55553">
        <ele>2063</ele>
        <time>2021-04-08T10:51:36Z</time>
      </trkpt>
      <trkpt lat="44.46031" lon="6.55548">
        <ele>2062</ele>
        <time>2021-04-08T10:51:37Z</time>
      </trkpt>
      <trkpt lat="44.46035" lon="6.55542">
        <ele>2061</ele>
        <time>2021-04-08T10:51:38Z</time>
      </trkpt>
      <trkpt lat="44.4604" lon="6.55535">
        <ele>2060</ele>
        <time>2021-04-08T10:51:39Z</time>
      </trkpt>
      <trkpt lat="44.46044" lon="6.55529">
        <ele>2059</ele>
        <time>2021-04-08T10:51:40Z</time>
      </trkpt>
      <trkpt lat="44.46048" lon="6.55523">
        <ele>2058</ele>
        <time>2021-04-08T10:51:41Z</time>
      </trkpt>
      <trkpt lat="44.46052" lon="6.55517">
        <ele>2057</ele>
        <time>2021-04-08T10:51:42Z</time>
      </trkpt>
      <trkpt lat="44.46056" lon="6.55512">
        <ele>2057</ele>
        <time>2021-04-08T10:51:43Z</time>
      </trkpt>
      <trkpt lat="44.4606" lon="6.55507">
        <ele>2056</ele>
        <time>2021-04-08T10:51:44Z</time>
      </trkpt>
      <trkpt lat="44.46065" lon="6.55502">
        <ele>2057</ele>
        <time>2021-04-08T10:51:45Z</time>
      </trkpt>
      <trkpt lat="44.46069" lon="6.55496">
        <ele>2057</ele>
        <time>2021-04-08T10:51:46Z</time>
      </trkpt>
      <trkpt lat="44.46073" lon="6.55491">
        <ele>2056</ele>
        <time>2021-04-08T10:51:47Z</time>
      </trkpt>
      <trkpt lat="44.46076" lon="6.55486">
        <ele>2056</ele>
        <time>2021-04-08T10:51:48Z</time>
      </trkpt>
      <trkpt lat="44.46079" lon="6.55482">
        <ele>2056</ele>
        <time>2021-04-08T10:51:49Z</time>
      </trkpt>
      <trkpt lat="44.46083" lon="6.55479">
        <ele>2056</ele>
        <time>2021-04-08T10:51:50Z</time>
      </trkpt>
      <trkpt lat="44.46086" lon="6.55476">
        <ele>2056</ele>
        <time>2021-04-08T10:51:51Z</time>
      </trkpt>
      <trkpt lat="44.46088" lon="6.55473">
        <ele>2056</ele>
        <time>2021-04-08T10:51:52Z</time>
      </trkpt>
      <trkpt lat="44.46091" lon="6.5547">
        <ele>2056</ele>
        <time>2021-04-08T10:51:53Z</time>
      </trkpt>
      <trkpt lat="44.46093" lon="6.55468">
        <ele>2056</ele>
        <time>2021-04-08T10:51:54Z</time>
      </trkpt>
      <trkpt lat="44.46095" lon="6.55466">
        <ele>2056</ele>
        <time>2021-04-08T10:51:55Z</time>
      </trkpt>
      <trkpt lat="44.46097" lon="6.55464">
        <ele>2056</ele>
        <time>2021-04-08T10:51:56Z</time>
      </trkpt>
      <trkpt lat="44.46099" lon="6.55463">
        <ele>2056</ele>
        <time>2021-04-08T10:51:57Z</time>
      </trkpt>
      <trkpt lat="44.461" lon="6.55463">
        <ele>2057</ele>
        <time>2021-04-08T10:51:58Z</time>
      </trkpt>
      <trkpt lat="44.46101" lon="6.55462">
        <ele>2057</ele>
        <time>2021-04-08T10:51:59Z</time>
      </trkpt>
      <trkpt lat="44.46102" lon="6.55461">
        <ele>2057</ele>
        <time>2021-04-08T10:52:00Z</time>
      </trkpt>
      <trkpt lat="44.46102" lon="6.55461">
        <ele>2057</ele>
        <time>2021-04-08T10:52:01Z</time>
      </trkpt>
      <trkpt lat="44.46102" lon="6.55461">
        <ele>2057</ele>
        <time>2021-04-08T10:52:02Z</time>
      </trkpt>
      <trkpt lat="44.46102" lon="6.55461">
        <ele>2057</ele>
        <time>2021-04-08T10:52:03Z</time>
      </trkpt>
      <trkpt lat="44.46102" lon="6.55461">
        <ele>2057</ele>
        <time>2021-04-08T10:52:04Z</time>
      </trkpt>
      <trkpt lat="44.46102" lon="6.55461">
        <ele>2057</ele>
        <time>2021-04-08T10:52:05Z</time>
      </trkpt>
      <trkpt lat="44.46102" lon="6.55461">
        <ele>2058</ele>
        <time>2021-04-08T10:52:06Z</time>
      </trkpt>
      <trkpt lat="44.46102" lon="6.55461">
        <ele>2058</ele>
        <time>2021-04-08T10:52:07Z</time>
      </trkpt>
      <trkpt lat="44.46102" lon="6.55461">
        <ele>2058</ele>
        <time>2021-04-08T10:52:08Z</time>
      </trkpt>
      <trkpt lat="44.46102" lon="6.55461">
        <ele>2058</ele>
        <time>2021-04-08T10:52:09Z</time>
      </trkpt>
      <trkpt lat="44.46102" lon="6.55461">
        <ele>2058</ele>
        <time>2021-04-08T10:52:10Z</time>
      </trkpt>
      <trkpt lat="44.46102" lon="6.55461">
        <ele>2058</ele>
        <time>2021-04-08T10:52:11Z</time>
      </trkpt>
      <trkpt lat="44.46102" lon="6.55461">
        <ele>2058</ele>
        <time>2021-04-08T10:52:12Z</time>
      </trkpt>
      <trkpt lat="44.46102" lon="6.55461">
        <ele>2058</ele>
        <time>2021-04-08T10:52:13Z</time>
      </trkpt>
      <trkpt lat="44.46102" lon="6.55461">
        <ele>2058</ele>
        <time>2021-04-08T10:52:14Z</time>
      </trkpt>
      <trkpt lat="44.46102" lon="6.55461">
        <ele>2058</ele>
        <time>2021-04-08T10:52:15Z</time>
      </trkpt>
      <trkpt lat="44.46102" lon="6.55461">
        <ele>2058</ele>
        <time>2021-04-08T10:52:16Z</time>
      </trkpt>
      <trkpt lat="44.46102" lon="6.55461">
        <ele>2058</ele>
        <time>2021-04-08T10:52:17Z</time>
      </trkpt>
      <trkpt lat="44.46102" lon="6.55461">
        <ele>2058</ele>
        <time>2021-04-08T10:52:18Z</time>
      </trkpt>
      <trkpt lat="44.46102" lon="6.55461">
        <ele>2058</ele>
        <time>2021-04-08T10:52:19Z</time>
      </trkpt>
      <trkpt lat="44.46102" lon="6.55461">
        <ele>2058</ele>
        <time>2021-04-08T10:52:20Z</time>
      </trkpt>
      <trkpt lat="44.46102" lon="6.55461">
        <ele>2058</ele>
        <time>2021-04-08T10:52:21Z</time>
      </trkpt>
      <trkpt lat="44.46102" lon="6.55461">
        <ele>2058</ele>
        <time>2021-04-08T10:52:22Z</time>
      </trkpt>
      <trkpt lat="44.46102" lon="6.55461">
        <ele>2058</ele>
        <time>2021-04-08T10:52:23Z</time>
      </trkpt>
      <trkpt lat="44.46102" lon="6.55461">
        <ele>2058</ele>
        <time>2021-04-08T10:52:24Z</time>
      </trkpt>
      <trkpt lat="44.46102" lon="6.55461">
        <ele>2058</ele>
        <time>2021-04-08T10:52:25Z</time>
      </trkpt>
      <trkpt lat="44.46102" lon="6.55461">
        <ele>2058</ele>
        <time>2021-04-08T10:52:26Z</time>
      </trkpt>
      <trkpt lat="44.46102" lon="6.55461">
        <ele>2058</ele>
        <time>2021-04-08T10:52:27Z</time>
      </trkpt>
      <trkpt lat="44.46102" lon="6.55461">
        <ele>2058</ele>
        <time>2021-04-08T10:52:28Z</time>
      </trkpt>
      <trkpt lat="44.46102" lon="6.55461">
        <ele>2058</ele>
        <time>2021-04-08T10:52:29Z</time>
      </trkpt>
      <trkpt lat="44.46102" lon="6.55461">
        <ele>2058</ele>
        <time>2021-04-08T10:52:30Z</time>
      </trkpt>
      <trkpt lat="44.46102" lon="6.55461">
        <ele>2058</ele>
        <time>2021-04-08T10:52:31Z</time>
      </trkpt>
      <trkpt lat="44.46102" lon="6.55461">
        <ele>2058</ele>
        <time>2021-04-08T10:52:32Z</time>
      </trkpt>
      <trkpt lat="44.46102" lon="6.55461">
        <ele>2058</ele>
        <time>2021-04-08T10:52:33Z</time>
      </trkpt>
      <trkpt lat="44.46102" lon="6.55461">
        <ele>2058</ele>
        <time>2021-04-08T10:52:34Z</time>
      </trkpt>
      <trkpt lat="44.46102" lon="6.55461">
        <ele>2058</ele>
        <time>2021-04-08T10:52:35Z</time>
      </trkpt>
      <trkpt lat="44.46102" lon="6.55461">
        <ele>2058</ele>
        <time>2021-04-08T10:52:36Z</time>
      </trkpt>
      <trkpt lat="44.46102" lon="6.55461">
        <ele>2058</ele>
        <time>2021-04-08T10:52:37Z</time>
      </trkpt>
      <trkpt lat="44.46102" lon="6.55461">
        <ele>2058</ele>
        <time>2021-04-08T10:52:38Z</time>
      </trkpt>
      <trkpt lat="44.46102" lon="6.55461">
        <ele>2058</ele>
        <time>2021-04-08T10:52:39Z</time>
      </trkpt>
      <trkpt lat="44.46102" lon="6.55461">
        <ele>2058</ele>
        <time>2021-04-08T10:52:40Z</time>
      </trkpt>
      <trkpt lat="44.46102" lon="6.55461">
        <ele>2058</ele>
        <time>2021-04-08T10:52:41Z</time>
      </trkpt>
      <trkpt lat="44.46102" lon="6.55461">
        <ele>2058</ele>
        <time>2021-04-08T10:52:42Z</time>
      </trkpt>
      <trkpt lat="44.46102" lon="6.55461">
        <ele>2058</ele>
        <time>2021-04-08T10:52:43Z</time>
      </trkpt>
      <trkpt lat="44.46102" lon="6.55461">
        <ele>2058</ele>
        <time>2021-04-08T10:52:44Z</time>
      </trkpt>
      <trkpt lat="44.46102" lon="6.55461">
        <ele>2058</ele>
        <time>2021-04-08T10:52:45Z</time>
      </trkpt>
      <trkpt lat="44.46102" lon="6.55461">
        <ele>2058</ele>
        <time>2021-04-08T10:52:46Z</time>
      </trkpt>
      <trkpt lat="44.46102" lon="6.55461">
        <ele>2058</ele>
        <time>2021-04-08T10:52:47Z</time>
      </trkpt>
      <trkpt lat="44.46102" lon="6.55461">
        <ele>2058</ele>
        <time>2021-04-08T10:52:48Z</time>
      </trkpt>
      <trkpt lat="44.46102" lon="6.55461">
        <ele>2058</ele>
        <time>2021-04-08T10:52:49Z</time>
      </trkpt>
      <trkpt lat="44.46102" lon="6.55461">
        <ele>2058</ele>
        <time>2021-04-08T10:52:50Z</time>
      </trkpt>
      <trkpt lat="44.46102" lon="6.55461">
        <ele>2058</ele>
        <time>2021-04-08T10:52:51Z</time>
      </trkpt>
      <trkpt lat="44.46102" lon="6.55461">
        <ele>2058</ele>
        <time>2021-04-08T10:52:52Z</time>
      </trkpt>
      <trkpt lat="44.46102" lon="6.55461">
        <ele>2058</ele>
        <time>2021-04-08T10:52:53Z</time>
      </trkpt>
      <trkpt lat="44.46102" lon="6.55461">
        <ele>2058</ele>
        <time>2021-04-08T10:52:54Z</time>
      </trkpt>
      <trkpt lat="44.46102" lon="6.55461">
        <ele>2058</ele>
        <time>2021-04-08T10:52:55Z</time>
      </trkpt>
      <trkpt lat="44.46105" lon="6.55458">
        <ele>2058</ele>
        <time>2021-04-08T10:52:56Z</time>
      </trkpt>
      <trkpt lat="44.46107" lon="6.55457">
        <ele>2058</ele>
        <time>2021-04-08T10:52:57Z</time>
      </trkpt>
      <trkpt lat="44.46109" lon="6.55455">
        <ele>2059</ele>
        <time>2021-04-08T10:52:58Z</time>
      </trkpt>
      <trkpt lat="44.46112" lon="6.55451">
        <ele>2059</ele>
        <time>2021-04-08T10:52:59Z</time>
      </trkpt>
      <trkpt lat="44.46116" lon="6.55447">
        <ele>2059</ele>
        <time>2021-04-08T10:53:00Z</time>
      </trkpt>
      <trkpt lat="44.46119" lon="6.55444">
        <ele>2059</ele>
        <time>2021-04-08T10:53:01Z</time>
      </trkpt>
      <trkpt lat="44.46122" lon="6.55442">
        <ele>2059</ele>
        <time>2021-04-08T10:53:02Z</time>
      </trkpt>
      <trkpt lat="44.46124" lon="6.55439">
        <ele>2059</ele>
        <time>2021-04-08T10:53:03Z</time>
      </trkpt>
      <trkpt lat="44.46127" lon="6.55438">
        <ele>2059</ele>
        <time>2021-04-08T10:53:04Z</time>
      </trkpt>
      <trkpt lat="44.46127" lon="6.55437">
        <ele>2059</ele>
        <time>2021-04-08T10:53:05Z</time>
      </trkpt>
      <trkpt lat="44.46128" lon="6.55436">
        <ele>2058</ele>
        <time>2021-04-08T10:53:06Z</time>
      </trkpt>
      <trkpt lat="44.46129" lon="6.55436">
        <ele>2058</ele>
        <time>2021-04-08T10:53:07Z</time>
      </trkpt>
      <trkpt lat="44.46129" lon="6.55435">
        <ele>2058</ele>
        <time>2021-04-08T10:53:08Z</time>
      </trkpt>
      <trkpt lat="44.4613" lon="6.55435">
        <ele>2058</ele>
        <time>2021-04-08T10:53:09Z</time>
      </trkpt>
      <trkpt lat="44.4613" lon="6.55434">
        <ele>2058</ele>
        <time>2021-04-08T10:53:10Z</time>
      </trkpt>
      <trkpt lat="44.4613" lon="6.55434">
        <ele>2058</ele>
        <time>2021-04-08T10:53:11Z</time>
      </trkpt>
      <trkpt lat="44.4613" lon="6.55434">
        <ele>2058</ele>
        <time>2021-04-08T10:53:12Z</time>
      </trkpt>
      <trkpt lat="44.4613" lon="6.55434">
        <ele>2058</ele>
        <time>2021-04-08T10:53:13Z</time>
      </trkpt>
      <trkpt lat="44.4613" lon="6.55434">
        <ele>2058</ele>
        <time>2021-04-08T10:53:14Z</time>
      </trkpt>
      <trkpt lat="44.46132" lon="6.55432">
        <ele>2057</ele>
        <time>2021-04-08T10:53:15Z</time>
      </trkpt>
      <trkpt lat="44.46134" lon="6.5543">
        <ele>2057</ele>
        <time>2021-04-08T10:53:16Z</time>
      </trkpt>
      <trkpt lat="44.46136" lon="6.55428">
        <ele>2057</ele>
        <time>2021-04-08T10:53:17Z</time>
      </trkpt>
      <trkpt lat="44.46138" lon="6.55425">
        <ele>2057</ele>
        <time>2021-04-08T10:53:18Z</time>
      </trkpt>
      <trkpt lat="44.46141" lon="6.55423">
        <ele>2056</ele>
        <time>2021-04-08T10:53:19Z</time>
      </trkpt>
      <trkpt lat="44.46143" lon="6.55421">
        <ele>2056</ele>
        <time>2021-04-08T10:53:20Z</time>
      </trkpt>
      <trkpt lat="44.46146" lon="6.55419">
        <ele>2056</ele>
        <time>2021-04-08T10:53:21Z</time>
      </trkpt>
      <trkpt lat="44.46148" lon="6.55418">
        <ele>2056</ele>
        <time>2021-04-08T10:53:22Z</time>
      </trkpt>
      <trkpt lat="44.46151" lon="6.55416">
        <ele>2056</ele>
        <time>2021-04-08T10:53:23Z</time>
      </trkpt>
      <trkpt lat="44.46154" lon="6.55415">
        <ele>2057</ele>
        <time>2021-04-08T10:53:24Z</time>
      </trkpt>
      <trkpt lat="44.46157" lon="6.55414">
        <ele>2057</ele>
        <time>2021-04-08T10:53:25Z</time>
      </trkpt>
      <trkpt lat="44.46159" lon="6.55413">
        <ele>2057</ele>
        <time>2021-04-08T10:53:26Z</time>
      </trkpt>
      <trkpt lat="44.46161" lon="6.55413">
        <ele>2058</ele>
        <time>2021-04-08T10:53:27Z</time>
      </trkpt>
      <trkpt lat="44.46163" lon="6.55411">
        <ele>2058</ele>
        <time>2021-04-08T10:53:28Z</time>
      </trkpt>
      <trkpt lat="44.46165" lon="6.55408">
        <ele>2058</ele>
        <time>2021-04-08T10:53:29Z</time>
      </trkpt>
      <trkpt lat="44.46167" lon="6.55405">
        <ele>2058</ele>
        <time>2021-04-08T10:53:30Z</time>
      </trkpt>
      <trkpt lat="44.46168" lon="6.55402">
        <ele>2058</ele>
        <time>2021-04-08T10:53:31Z</time>
      </trkpt>
      <trkpt lat="44.46168" lon="6.55401">
        <ele>2058</ele>
        <time>2021-04-08T10:53:32Z</time>
      </trkpt>
      <trkpt lat="44.46169" lon="6.554">
        <ele>2058</ele>
        <time>2021-04-08T10:53:33Z</time>
      </trkpt>
      <trkpt lat="44.46169" lon="6.554">
        <ele>2058</ele>
        <time>2021-04-08T10:53:34Z</time>
      </trkpt>
      <trkpt lat="44.46169" lon="6.554">
        <ele>2058</ele>
        <time>2021-04-08T10:53:35Z</time>
      </trkpt>
      <trkpt lat="44.46169" lon="6.554">
        <ele>2058</ele>
        <time>2021-04-08T10:53:36Z</time>
      </trkpt>
      <trkpt lat="44.46169" lon="6.554">
        <ele>2058</ele>
        <time>2021-04-08T10:53:37Z</time>
      </trkpt>
      <trkpt lat="44.46169" lon="6.554">
        <ele>2058</ele>
        <time>2021-04-08T10:53:38Z</time>
      </trkpt>
      <trkpt lat="44.46169" lon="6.554">
        <ele>2058</ele>
        <time>2021-04-08T10:53:39Z</time>
      </trkpt>
      <trkpt lat="44.46169" lon="6.554">
        <ele>2058</ele>
        <time>2021-04-08T10:53:40Z</time>
      </trkpt>
      <trkpt lat="44.46169" lon="6.554">
        <ele>2058</ele>
        <time>2021-04-08T10:53:41Z</time>
      </trkpt>
      <trkpt lat="44.46169" lon="6.554">
        <ele>2058</ele>
        <time>2021-04-08T10:53:42Z</time>
      </trkpt>
      <trkpt lat="44.46169" lon="6.554">
        <ele>2058</ele>
        <time>2021-04-08T10:53:43Z</time>
      </trkpt>
      <trkpt lat="44.46169" lon="6.554">
        <ele>2058</ele>
        <time>2021-04-08T10:53:44Z</time>
      </trkpt>
      <trkpt lat="44.46169" lon="6.554">
        <ele>2058</ele>
        <time>2021-04-08T10:53:45Z</time>
      </trkpt>
      <trkpt lat="44.46169" lon="6.554">
        <ele>2058</ele>
        <time>2021-04-08T10:53:46Z</time>
      </trkpt>
      <trkpt lat="44.46169" lon="6.554">
        <ele>2058</ele>
        <time>2021-04-08T10:53:47Z</time>
      </trkpt>
      <trkpt lat="44.46169" lon="6.554">
        <ele>2058</ele>
        <time>2021-04-08T10:53:48Z</time>
      </trkpt>
      <trkpt lat="44.46169" lon="6.554">
        <ele>2058</ele>
        <time>2021-04-08T10:53:49Z</time>
      </trkpt>
      <trkpt lat="44.46169" lon="6.554">
        <ele>2058</ele>
        <time>2021-04-08T10:53:50Z</time>
      </trkpt>
      <trkpt lat="44.46169" lon="6.554">
        <ele>2058</ele>
        <time>2021-04-08T10:53:51Z</time>
      </trkpt>
      <trkpt lat="44.46176" lon="6.5539">
        <ele>2057</ele>
        <time>2021-04-08T10:53:52Z</time>
      </trkpt>
      <trkpt lat="44.46178" lon="6.55388">
        <ele>2057</ele>
        <time>2021-04-08T10:53:53Z</time>
      </trkpt>
      <trkpt lat="44.4618" lon="6.55386">
        <ele>2057</ele>
        <time>2021-04-08T10:53:54Z</time>
      </trkpt>
      <trkpt lat="44.46181" lon="6.55383">
        <ele>2057</ele>
        <time>2021-04-08T10:53:55Z</time>
      </trkpt>
      <trkpt lat="44.46182" lon="6.55382">
        <ele>2057</ele>
        <time>2021-04-08T10:53:56Z</time>
      </trkpt>
      <trkpt lat="44.46184" lon="6.5538">
        <ele>2057</ele>
        <time>2021-04-08T10:53:57Z</time>
      </trkpt>
      <trkpt lat="44.46186" lon="6.55378">
        <ele>2057</ele>
        <time>2021-04-08T10:53:58Z</time>
      </trkpt>
      <trkpt lat="44.46188" lon="6.55376">
        <ele>2057</ele>
        <time>2021-04-08T10:53:59Z</time>
      </trkpt>
      <trkpt lat="44.4619" lon="6.55374">
        <ele>2057</ele>
        <time>2021-04-08T10:54:00Z</time>
      </trkpt>
      <trkpt lat="44.46193" lon="6.55372">
        <ele>2057</ele>
        <time>2021-04-08T10:54:01Z</time>
      </trkpt>
      <trkpt lat="44.46195" lon="6.55371">
        <ele>2057</ele>
        <time>2021-04-08T10:54:02Z</time>
      </trkpt>
      <trkpt lat="44.46197" lon="6.55369">
        <ele>2058</ele>
        <time>2021-04-08T10:54:03Z</time>
      </trkpt>
      <trkpt lat="44.46199" lon="6.55368">
        <ele>2058</ele>
        <time>2021-04-08T10:54:04Z</time>
      </trkpt>
      <trkpt lat="44.462" lon="6.55367">
        <ele>2058</ele>
        <time>2021-04-08T10:54:05Z</time>
      </trkpt>
      <trkpt lat="44.46202" lon="6.55366">
        <ele>2058</ele>
        <time>2021-04-08T10:54:06Z</time>
      </trkpt>
      <trkpt lat="44.46203" lon="6.55365">
        <ele>2058</ele>
        <time>2021-04-08T10:54:07Z</time>
      </trkpt>
      <trkpt lat="44.46202" lon="6.55365">
        <ele>2058</ele>
        <time>2021-04-08T10:54:08Z</time>
      </trkpt>
      <trkpt lat="44.46202" lon="6.55364">
        <ele>2058</ele>
        <time>2021-04-08T10:54:09Z</time>
      </trkpt>
      <trkpt lat="44.46202" lon="6.55364">
        <ele>2057</ele>
        <time>2021-04-08T10:54:10Z</time>
      </trkpt>
      <trkpt lat="44.46202" lon="6.55364">
        <ele>2057</ele>
        <time>2021-04-08T10:54:11Z</time>
      </trkpt>
      <trkpt lat="44.46202" lon="6.55364">
        <ele>2057</ele>
        <time>2021-04-08T10:54:12Z</time>
      </trkpt>
      <trkpt lat="44.46202" lon="6.55364">
        <ele>2057</ele>
        <time>2021-04-08T10:54:13Z</time>
      </trkpt>
      <trkpt lat="44.46202" lon="6.55364">
        <ele>2057</ele>
        <time>2021-04-08T10:54:14Z</time>
      </trkpt>
      <trkpt lat="44.46202" lon="6.55364">
        <ele>2057</ele>
        <time>2021-04-08T10:54:15Z</time>
      </trkpt>
      <trkpt lat="44.46202" lon="6.55364">
        <ele>2057</ele>
        <time>2021-04-08T10:54:16Z</time>
      </trkpt>
      <trkpt lat="44.46202" lon="6.55364">
        <ele>2057</ele>
        <time>2021-04-08T10:54:17Z</time>
      </trkpt>
      <trkpt lat="44.46202" lon="6.55364">
        <ele>2057</ele>
        <time>2021-04-08T10:54:18Z</time>
      </trkpt>
      <trkpt lat="44.46202" lon="6.55364">
        <ele>2057</ele>
        <time>2021-04-08T10:54:19Z</time>
      </trkpt>
      <trkpt lat="44.46202" lon="6.55364">
        <ele>2057</ele>
        <time>2021-04-08T10:54:20Z</time>
      </trkpt>
      <trkpt lat="44.46202" lon="6.55364">
        <ele>2057</ele>
        <time>2021-04-08T10:54:21Z</time>
      </trkpt>
      <trkpt lat="44.46202" lon="6.55364">
        <ele>2057</ele>
        <time>2021-04-08T10:54:22Z</time>
      </trkpt>
      <trkpt lat="44.46208" lon="6.55355">
        <ele>2057</ele>
        <time>2021-04-08T10:54:23Z</time>
      </trkpt>
      <trkpt lat="44.46209" lon="6.55353">
        <ele>2057</ele>
        <time>2021-04-08T10:54:24Z</time>
      </trkpt>
      <trkpt lat="44.46209" lon="6.55352">
        <ele>2057</ele>
        <time>2021-04-08T10:54:25Z</time>
      </trkpt>
      <trkpt lat="44.4621" lon="6.55351">
        <ele>2057</ele>
        <time>2021-04-08T10:54:26Z</time>
      </trkpt>
      <trkpt lat="44.46211" lon="6.55349">
        <ele>2056</ele>
        <time>2021-04-08T10:54:27Z</time>
      </trkpt>
      <trkpt lat="44.46211" lon="6.55348">
        <ele>2056</ele>
        <time>2021-04-08T10:54:28Z</time>
      </trkpt>
      <trkpt lat="44.46212" lon="6.55347">
        <ele>2056</ele>
        <time>2021-04-08T10:54:29Z</time>
      </trkpt>
      <trkpt lat="44.46212" lon="6.55346">
        <ele>2056</ele>
        <time>2021-04-08T10:54:30Z</time>
      </trkpt>
      <trkpt lat="44.46212" lon="6.55346">
        <ele>2056</ele>
        <time>2021-04-08T10:54:31Z</time>
      </trkpt>
      <trkpt lat="44.46212" lon="6.55346">
        <ele>2056</ele>
        <time>2021-04-08T10:54:32Z</time>
      </trkpt>
      <trkpt lat="44.46212" lon="6.55346">
        <ele>2056</ele>
        <time>2021-04-08T10:54:33Z</time>
      </trkpt>
      <trkpt lat="44.46212" lon="6.55346">
        <ele>2056</ele>
        <time>2021-04-08T10:54:34Z</time>
      </trkpt>
      <trkpt lat="44.46212" lon="6.55346">
        <ele>2056</ele>
        <time>2021-04-08T10:54:35Z</time>
      </trkpt>
      <trkpt lat="44.46212" lon="6.55346">
        <ele>2056</ele>
        <time>2021-04-08T10:54:36Z</time>
      </trkpt>
      <trkpt lat="44.46217" lon="6.55339">
        <ele>2057</ele>
        <time>2021-04-08T10:54:37Z</time>
      </trkpt>
      <trkpt lat="44.46218" lon="6.55338">
        <ele>2058</ele>
        <time>2021-04-08T10:54:38Z</time>
      </trkpt>
      <trkpt lat="44.4622" lon="6.55337">
        <ele>2059</ele>
        <time>2021-04-08T10:54:39Z</time>
      </trkpt>
      <trkpt lat="44.46222" lon="6.55335">
        <ele>2059</ele>
        <time>2021-04-08T10:54:40Z</time>
      </trkpt>
      <trkpt lat="44.46223" lon="6.55334">
        <ele>2059</ele>
        <time>2021-04-08T10:54:41Z</time>
      </trkpt>
      <trkpt lat="44.46226" lon="6.55333">
        <ele>2060</ele>
        <time>2021-04-08T10:54:42Z</time>
      </trkpt>
      <trkpt lat="44.46227" lon="6.55332">
        <ele>2060</ele>
        <time>2021-04-08T10:54:43Z</time>
      </trkpt>
      <trkpt lat="44.46228" lon="6.55332">
        <ele>2060</ele>
        <time>2021-04-08T10:54:44Z</time>
      </trkpt>
      <trkpt lat="44.4623" lon="6.55332">
        <ele>2060</ele>
        <time>2021-04-08T10:54:45Z</time>
      </trkpt>
      <trkpt lat="44.46231" lon="6.55332">
        <ele>2060</ele>
        <time>2021-04-08T10:54:46Z</time>
      </trkpt>
      <trkpt lat="44.46231" lon="6.55332">
        <ele>2061</ele>
        <time>2021-04-08T10:54:47Z</time>
      </trkpt>
      <trkpt lat="44.46232" lon="6.55332">
        <ele>2061</ele>
        <time>2021-04-08T10:54:48Z</time>
      </trkpt>
      <trkpt lat="44.46232" lon="6.55332">
        <ele>2061</ele>
        <time>2021-04-08T10:54:49Z</time>
      </trkpt>
      <trkpt lat="44.46234" lon="6.55333">
        <ele>2061</ele>
        <time>2021-04-08T10:54:50Z</time>
      </trkpt>
      <trkpt lat="44.46235" lon="6.55333">
        <ele>2062</ele>
        <time>2021-04-08T10:54:51Z</time>
      </trkpt>
      <trkpt lat="44.46236" lon="6.55333">
        <ele>2062</ele>
        <time>2021-04-08T10:54:52Z</time>
      </trkpt>
      <trkpt lat="44.46237" lon="6.55332">
        <ele>2062</ele>
        <time>2021-04-08T10:54:53Z</time>
      </trkpt>
      <trkpt lat="44.46238" lon="6.55332">
        <ele>2063</ele>
        <time>2021-04-08T10:54:54Z</time>
      </trkpt>
      <trkpt lat="44.4624" lon="6.55331">
        <ele>2063</ele>
        <time>2021-04-08T10:54:55Z</time>
      </trkpt>
      <trkpt lat="44.46241" lon="6.55331">
        <ele>2063</ele>
        <time>2021-04-08T10:54:56Z</time>
      </trkpt>
      <trkpt lat="44.46241" lon="6.55331">
        <ele>2064</ele>
        <time>2021-04-08T10:54:57Z</time>
      </trkpt>
      <trkpt lat="44.46241" lon="6.55332">
        <ele>2064</ele>
        <time>2021-04-08T10:54:58Z</time>
      </trkpt>
      <trkpt lat="44.46241" lon="6.55332">
        <ele>2064</ele>
        <time>2021-04-08T10:54:59Z</time>
      </trkpt>
      <trkpt lat="44.46241" lon="6.55332">
        <ele>2064</ele>
        <time>2021-04-08T10:55:00Z</time>
      </trkpt>
      <trkpt lat="44.46241" lon="6.55332">
        <ele>2064</ele>
        <time>2021-04-08T10:55:01Z</time>
      </trkpt>
      <trkpt lat="44.46241" lon="6.55332">
        <ele>2064</ele>
        <time>2021-04-08T10:55:02Z</time>
      </trkpt>
      <trkpt lat="44.46241" lon="6.55332">
        <ele>2064</ele>
        <time>2021-04-08T10:55:03Z</time>
      </trkpt>
      <trkpt lat="44.46241" lon="6.55332">
        <ele>2064</ele>
        <time>2021-04-08T10:55:04Z</time>
      </trkpt>
      <trkpt lat="44.46241" lon="6.55332">
        <ele>2064</ele>
        <time>2021-04-08T10:55:05Z</time>
      </trkpt>
      <trkpt lat="44.46241" lon="6.55332">
        <ele>2064</ele>
        <time>2021-04-08T10:55:06Z</time>
      </trkpt>
      <trkpt lat="44.46241" lon="6.55332">
        <ele>2064</ele>
        <time>2021-04-08T10:55:07Z</time>
      </trkpt>
      <trkpt lat="44.46241" lon="6.55332">
        <ele>2064</ele>
        <time>2021-04-08T10:55:08Z</time>
      </trkpt>
      <trkpt lat="44.46241" lon="6.55332">
        <ele>2064</ele>
        <time>2021-04-08T10:55:09Z</time>
      </trkpt>
      <trkpt lat="44.46241" lon="6.55332">
        <ele>2064</ele>
        <time>2021-04-08T10:55:10Z</time>
      </trkpt>
      <trkpt lat="44.46241" lon="6.55332">
        <ele>2064</ele>
        <time>2021-04-08T10:55:11Z</time>
      </trkpt>
      <trkpt lat="44.46241" lon="6.55332">
        <ele>2064</ele>
        <time>2021-04-08T10:55:12Z</time>
      </trkpt>
      <trkpt lat="44.46241" lon="6.55332">
        <ele>2064</ele>
        <time>2021-04-08T10:55:13Z</time>
      </trkpt>
      <trkpt lat="44.46241" lon="6.55332">
        <ele>2064</ele>
        <time>2021-04-08T10:55:14Z</time>
      </trkpt>
      <trkpt lat="44.46241" lon="6.55332">
        <ele>2064</ele>
        <time>2021-04-08T10:55:15Z</time>
      </trkpt>
      <trkpt lat="44.46241" lon="6.55332">
        <ele>2064</ele>
        <time>2021-04-08T10:55:16Z</time>
      </trkpt>
      <trkpt lat="44.46241" lon="6.55332">
        <ele>2064</ele>
        <time>2021-04-08T10:55:17Z</time>
      </trkpt>
      <trkpt lat="44.46241" lon="6.55332">
        <ele>2064</ele>
        <time>2021-04-08T10:55:18Z</time>
      </trkpt>
      <trkpt lat="44.46241" lon="6.55332">
        <ele>2064</ele>
        <time>2021-04-08T10:55:19Z</time>
      </trkpt>
      <trkpt lat="44.46241" lon="6.55332">
        <ele>2064</ele>
        <time>2021-04-08T10:55:20Z</time>
      </trkpt>
      <trkpt lat="44.46241" lon="6.55332">
        <ele>2064</ele>
        <time>2021-04-08T10:55:21Z</time>
      </trkpt>
      <trkpt lat="44.46241" lon="6.55332">
        <ele>2064</ele>
        <time>2021-04-08T10:55:22Z</time>
      </trkpt>
      <trkpt lat="44.46241" lon="6.55332">
        <ele>2064</ele>
        <time>2021-04-08T10:55:23Z</time>
      </trkpt>
      <trkpt lat="44.46241" lon="6.55332">
        <ele>2064</ele>
        <time>2021-04-08T10:55:24Z</time>
      </trkpt>
      <trkpt lat="44.46241" lon="6.55332">
        <ele>2064</ele>
        <time>2021-04-08T10:55:25Z</time>
      </trkpt>
      <trkpt lat="44.46241" lon="6.55332">
        <ele>2064</ele>
        <time>2021-04-08T10:55:26Z</time>
      </trkpt>
      <trkpt lat="44.46241" lon="6.55332">
        <ele>2064</ele>
        <time>2021-04-08T10:55:27Z</time>
      </trkpt>
      <trkpt lat="44.46241" lon="6.55332">
        <ele>2064</ele>
        <time>2021-04-08T10:55:28Z</time>
      </trkpt>
      <trkpt lat="44.46241" lon="6.55332">
        <ele>2064</ele>
        <time>2021-04-08T10:55:29Z</time>
      </trkpt>
      <trkpt lat="44.46241" lon="6.55332">
        <ele>2064</ele>
        <time>2021-04-08T10:55:30Z</time>
      </trkpt>
      <trkpt lat="44.46241" lon="6.55332">
        <ele>2064</ele>
        <time>2021-04-08T10:55:31Z</time>
      </trkpt>
      <trkpt lat="44.46241" lon="6.55332">
        <ele>2064</ele>
        <time>2021-04-08T10:55:32Z</time>
      </trkpt>
      <trkpt lat="44.46241" lon="6.55332">
        <ele>2064</ele>
        <time>2021-04-08T10:55:33Z</time>
      </trkpt>
      <trkpt lat="44.46241" lon="6.55332">
        <ele>2064</ele>
        <time>2021-04-08T10:55:34Z</time>
      </trkpt>
      <trkpt lat="44.46241" lon="6.55332">
        <ele>2064</ele>
        <time>2021-04-08T10:55:35Z</time>
      </trkpt>
      <trkpt lat="44.46241" lon="6.55332">
        <ele>2064</ele>
        <time>2021-04-08T10:55:36Z</time>
      </trkpt>
      <trkpt lat="44.46241" lon="6.55332">
        <ele>2064</ele>
        <time>2021-04-08T10:55:37Z</time>
      </trkpt>
      <trkpt lat="44.46241" lon="6.55332">
        <ele>2064</ele>
        <time>2021-04-08T10:55:38Z</time>
      </trkpt>
      <trkpt lat="44.46241" lon="6.55332">
        <ele>2064</ele>
        <time>2021-04-08T10:55:39Z</time>
      </trkpt>
      <trkpt lat="44.46241" lon="6.55332">
        <ele>2064</ele>
        <time>2021-04-08T10:55:40Z</time>
      </trkpt>
      <trkpt lat="44.46241" lon="6.55332">
        <ele>2064</ele>
        <time>2021-04-08T10:55:41Z</time>
      </trkpt>
      <trkpt lat="44.46241" lon="6.55332">
        <ele>2064</ele>
        <time>2021-04-08T10:55:42Z</time>
      </trkpt>
      <trkpt lat="44.46241" lon="6.55332">
        <ele>2064</ele>
        <time>2021-04-08T10:55:43Z</time>
      </trkpt>
      <trkpt lat="44.46241" lon="6.55332">
        <ele>2064</ele>
        <time>2021-04-08T10:55:44Z</time>
      </trkpt>
      <trkpt lat="44.46241" lon="6.55332">
        <ele>2064</ele>
        <time>2021-04-08T10:55:45Z</time>
      </trkpt>
      <trkpt lat="44.46241" lon="6.55332">
        <ele>2064</ele>
        <time>2021-04-08T10:55:46Z</time>
      </trkpt>
      <trkpt lat="44.46241" lon="6.55332">
        <ele>2064</ele>
        <time>2021-04-08T10:55:47Z</time>
      </trkpt>
      <trkpt lat="44.46241" lon="6.55332">
        <ele>2064</ele>
        <time>2021-04-08T10:55:48Z</time>
      </trkpt>
      <trkpt lat="44.46241" lon="6.55332">
        <ele>2064</ele>
        <time>2021-04-08T10:55:49Z</time>
      </trkpt>
      <trkpt lat="44.46241" lon="6.55332">
        <ele>2064</ele>
        <time>2021-04-08T10:55:50Z</time>
      </trkpt>
      <trkpt lat="44.46241" lon="6.55332">
        <ele>2064</ele>
        <time>2021-04-08T10:55:51Z</time>
      </trkpt>
      <trkpt lat="44.46241" lon="6.55332">
        <ele>2064</ele>
        <time>2021-04-08T10:55:52Z</time>
      </trkpt>
      <trkpt lat="44.46241" lon="6.55332">
        <ele>2064</ele>
        <time>2021-04-08T10:55:53Z</time>
      </trkpt>
      <trkpt lat="44.46241" lon="6.55332">
        <ele>2064</ele>
        <time>2021-04-08T10:55:54Z</time>
      </trkpt>
      <trkpt lat="44.46241" lon="6.55332">
        <ele>2064</ele>
        <time>2021-04-08T10:55:55Z</time>
      </trkpt>
      <trkpt lat="44.46241" lon="6.55332">
        <ele>2064</ele>
        <time>2021-04-08T10:55:56Z</time>
      </trkpt>
      <trkpt lat="44.46241" lon="6.55332">
        <ele>2064</ele>
        <time>2021-04-08T10:55:57Z</time>
      </trkpt>
      <trkpt lat="44.46241" lon="6.55332">
        <ele>2064</ele>
        <time>2021-04-08T10:55:58Z</time>
      </trkpt>
      <trkpt lat="44.46241" lon="6.55332">
        <ele>2064</ele>
        <time>2021-04-08T10:55:59Z</time>
      </trkpt>
      <trkpt lat="44.46241" lon="6.55332">
        <ele>2064</ele>
        <time>2021-04-08T10:56:00Z</time>
      </trkpt>
      <trkpt lat="44.46241" lon="6.55332">
        <ele>2064</ele>
        <time>2021-04-08T10:56:01Z</time>
      </trkpt>
      <trkpt lat="44.46241" lon="6.55332">
        <ele>2064</ele>
        <time>2021-04-08T10:56:02Z</time>
      </trkpt>
      <trkpt lat="44.46241" lon="6.55332">
        <ele>2064</ele>
        <time>2021-04-08T10:56:03Z</time>
      </trkpt>
      <trkpt lat="44.46241" lon="6.55332">
        <ele>2064</ele>
        <time>2021-04-08T10:56:04Z</time>
      </trkpt>
      <trkpt lat="44.46241" lon="6.55332">
        <ele>2064</ele>
        <time>2021-04-08T10:56:05Z</time>
      </trkpt>
      <trkpt lat="44.46241" lon="6.55332">
        <ele>2064</ele>
        <time>2021-04-08T10:56:06Z</time>
      </trkpt>
      <trkpt lat="44.46241" lon="6.55332">
        <ele>2064</ele>
        <time>2021-04-08T10:56:07Z</time>
      </trkpt>
      <trkpt lat="44.46241" lon="6.55332">
        <ele>2064</ele>
        <time>2021-04-08T10:56:08Z</time>
      </trkpt>
      <trkpt lat="44.46241" lon="6.55332">
        <ele>2064</ele>
        <time>2021-04-08T10:56:09Z</time>
      </trkpt>
      <trkpt lat="44.46241" lon="6.55332">
        <ele>2064</ele>
        <time>2021-04-08T10:56:10Z</time>
      </trkpt>
      <trkpt lat="44.46241" lon="6.55332">
        <ele>2064</ele>
        <time>2021-04-08T10:56:11Z</time>
      </trkpt>
      <trkpt lat="44.46241" lon="6.55332">
        <ele>2064</ele>
        <time>2021-04-08T10:56:12Z</time>
      </trkpt>
      <trkpt lat="44.46241" lon="6.55332">
        <ele>2064</ele>
        <time>2021-04-08T10:56:13Z</time>
      </trkpt>
      <trkpt lat="44.46241" lon="6.55332">
        <ele>2064</ele>
        <time>2021-04-08T10:56:14Z</time>
      </trkpt>
      <trkpt lat="44.46241" lon="6.55332">
        <ele>2064</ele>
        <time>2021-04-08T10:56:15Z</time>
      </trkpt>
      <trkpt lat="44.46241" lon="6.55332">
        <ele>2064</ele>
        <time>2021-04-08T10:56:16Z</time>
      </trkpt>
      <trkpt lat="44.46241" lon="6.55332">
        <ele>2064</ele>
        <time>2021-04-08T10:56:17Z</time>
      </trkpt>
      <trkpt lat="44.46241" lon="6.55332">
        <ele>2064</ele>
        <time>2021-04-08T10:56:18Z</time>
      </trkpt>
      <trkpt lat="44.46241" lon="6.55332">
        <ele>2064</ele>
        <time>2021-04-08T10:56:19Z</time>
      </trkpt>
      <trkpt lat="44.46241" lon="6.55332">
        <ele>2064</ele>
        <time>2021-04-08T10:56:20Z</time>
      </trkpt>
      <trkpt lat="44.46241" lon="6.55332">
        <ele>2064</ele>
        <time>2021-04-08T10:56:21Z</time>
      </trkpt>
      <trkpt lat="44.46241" lon="6.55332">
        <ele>2064</ele>
        <time>2021-04-08T10:56:22Z</time>
      </trkpt>
      <trkpt lat="44.46241" lon="6.55332">
        <ele>2064</ele>
        <time>2021-04-08T10:56:23Z</time>
      </trkpt>
      <trkpt lat="44.46241" lon="6.55332">
        <ele>2064</ele>
        <time>2021-04-08T10:56:24Z</time>
      </trkpt>
      <trkpt lat="44.46241" lon="6.55332">
        <ele>2064</ele>
        <time>2021-04-08T10:56:25Z</time>
      </trkpt>
      <trkpt lat="44.46241" lon="6.55332">
        <ele>2064</ele>
        <time>2021-04-08T10:56:26Z</time>
      </trkpt>
      <trkpt lat="44.46241" lon="6.55332">
        <ele>2064</ele>
        <time>2021-04-08T10:56:27Z</time>
      </trkpt>
      <trkpt lat="44.46241" lon="6.55332">
        <ele>2064</ele>
        <time>2021-04-08T10:56:28Z</time>
      </trkpt>
      <trkpt lat="44.46241" lon="6.55332">
        <ele>2064</ele>
        <time>2021-04-08T10:56:29Z</time>
      </trkpt>
      <trkpt lat="44.46241" lon="6.55332">
        <ele>2064</ele>
        <time>2021-04-08T10:56:30Z</time>
      </trkpt>
      <trkpt lat="44.46241" lon="6.55332">
        <ele>2064</ele>
        <time>2021-04-08T10:56:31Z</time>
      </trkpt>
      <trkpt lat="44.46241" lon="6.55332">
        <ele>2064</ele>
        <time>2021-04-08T10:56:32Z</time>
      </trkpt>
      <trkpt lat="44.46241" lon="6.55332">
        <ele>2064</ele>
        <time>2021-04-08T10:56:33Z</time>
      </trkpt>
      <trkpt lat="44.46241" lon="6.55332">
        <ele>2064</ele>
        <time>2021-04-08T10:56:34Z</time>
      </trkpt>
      <trkpt lat="44.46241" lon="6.55332">
        <ele>2064</ele>
        <time>2021-04-08T10:56:35Z</time>
      </trkpt>
      <trkpt lat="44.46241" lon="6.55332">
        <ele>2064</ele>
        <time>2021-04-08T10:56:36Z</time>
      </trkpt>
      <trkpt lat="44.46241" lon="6.55332">
        <ele>2064</ele>
        <time>2021-04-08T10:56:37Z</time>
      </trkpt>
      <trkpt lat="44.46241" lon="6.55332">
        <ele>2064</ele>
        <time>2021-04-08T10:56:38Z</time>
      </trkpt>
      <trkpt lat="44.46241" lon="6.55332">
        <ele>2064</ele>
        <time>2021-04-08T10:56:39Z</time>
      </trkpt>
      <trkpt lat="44.46241" lon="6.55332">
        <ele>2064</ele>
        <time>2021-04-08T10:56:40Z</time>
      </trkpt>
      <trkpt lat="44.46241" lon="6.55332">
        <ele>2064</ele>
        <time>2021-04-08T10:56:41Z</time>
      </trkpt>
      <trkpt lat="44.46241" lon="6.55332">
        <ele>2064</ele>
        <time>2021-04-08T10:56:42Z</time>
      </trkpt>
      <trkpt lat="44.46241" lon="6.55332">
        <ele>2064</ele>
        <time>2021-04-08T10:56:43Z</time>
      </trkpt>
      <trkpt lat="44.46241" lon="6.55332">
        <ele>2064</ele>
        <time>2021-04-08T10:56:44Z</time>
      </trkpt>
      <trkpt lat="44.46241" lon="6.55332">
        <ele>2064</ele>
        <time>2021-04-08T10:56:45Z</time>
      </trkpt>
      <trkpt lat="44.46241" lon="6.55332">
        <ele>2064</ele>
        <time>2021-04-08T10:56:46Z</time>
      </trkpt>
      <trkpt lat="44.46241" lon="6.55332">
        <ele>2064</ele>
        <time>2021-04-08T10:56:47Z</time>
      </trkpt>
      <trkpt lat="44.46241" lon="6.55332">
        <ele>2064</ele>
        <time>2021-04-08T10:56:48Z</time>
      </trkpt>
      <trkpt lat="44.46241" lon="6.55332">
        <ele>2064</ele>
        <time>2021-04-08T10:56:49Z</time>
      </trkpt>
      <trkpt lat="44.46241" lon="6.55332">
        <ele>2064</ele>
        <time>2021-04-08T10:56:50Z</time>
      </trkpt>
      <trkpt lat="44.46241" lon="6.55332">
        <ele>2064</ele>
        <time>2021-04-08T10:56:51Z</time>
      </trkpt>
      <trkpt lat="44.46241" lon="6.55332">
        <ele>2064</ele>
        <time>2021-04-08T10:56:52Z</time>
      </trkpt>
      <trkpt lat="44.46241" lon="6.55332">
        <ele>2064</ele>
        <time>2021-04-08T10:56:53Z</time>
      </trkpt>
      <trkpt lat="44.46241" lon="6.55332">
        <ele>2064</ele>
        <time>2021-04-08T10:56:54Z</time>
      </trkpt>
      <trkpt lat="44.46241" lon="6.55332">
        <ele>2064</ele>
        <time>2021-04-08T10:56:55Z</time>
      </trkpt>
      <trkpt lat="44.46241" lon="6.55332">
        <ele>2064</ele>
        <time>2021-04-08T10:56:56Z</time>
      </trkpt>
      <trkpt lat="44.46241" lon="6.55332">
        <ele>2064</ele>
        <time>2021-04-08T10:56:57Z</time>
      </trkpt>
      <trkpt lat="44.46241" lon="6.55332">
        <ele>2064</ele>
        <time>2021-04-08T10:56:58Z</time>
      </trkpt>
      <trkpt lat="44.46241" lon="6.55332">
        <ele>2064</ele>
        <time>2021-04-08T10:56:59Z</time>
      </trkpt>
      <trkpt lat="44.46241" lon="6.55332">
        <ele>2064</ele>
        <time>2021-04-08T10:57:00Z</time>
      </trkpt>
      <trkpt lat="44.46241" lon="6.55332">
        <ele>2064</ele>
        <time>2021-04-08T10:57:01Z</time>
      </trkpt>
      <trkpt lat="44.46241" lon="6.55332">
        <ele>2064</ele>
        <time>2021-04-08T10:57:02Z</time>
      </trkpt>
      <trkpt lat="44.46241" lon="6.55332">
        <ele>2064</ele>
        <time>2021-04-08T10:57:03Z</time>
      </trkpt>
      <trkpt lat="44.46241" lon="6.55332">
        <ele>2064</ele>
        <time>2021-04-08T10:57:04Z</time>
      </trkpt>
      <trkpt lat="44.46241" lon="6.55332">
        <ele>2064</ele>
        <time>2021-04-08T10:57:05Z</time>
      </trkpt>
      <trkpt lat="44.46241" lon="6.55332">
        <ele>2064</ele>
        <time>2021-04-08T10:57:06Z</time>
      </trkpt>
      <trkpt lat="44.46241" lon="6.55332">
        <ele>2064</ele>
        <time>2021-04-08T10:57:07Z</time>
      </trkpt>
      <trkpt lat="44.46241" lon="6.55332">
        <ele>2064</ele>
        <time>2021-04-08T10:57:08Z</time>
      </trkpt>
      <trkpt lat="44.46241" lon="6.55332">
        <ele>2064</ele>
        <time>2021-04-08T10:57:09Z</time>
      </trkpt>
      <trkpt lat="44.46241" lon="6.55332">
        <ele>2064</ele>
        <time>2021-04-08T10:57:10Z</time>
      </trkpt>
      <trkpt lat="44.46241" lon="6.55332">
        <ele>2064</ele>
        <time>2021-04-08T10:57:11Z</time>
      </trkpt>
      <trkpt lat="44.46241" lon="6.55332">
        <ele>2064</ele>
        <time>2021-04-08T10:57:12Z</time>
      </trkpt>
      <trkpt lat="44.46241" lon="6.55332">
        <ele>2064</ele>
        <time>2021-04-08T10:57:13Z</time>
      </trkpt>
      <trkpt lat="44.46241" lon="6.55332">
        <ele>2064</ele>
        <time>2021-04-08T10:57:14Z</time>
      </trkpt>
      <trkpt lat="44.46241" lon="6.55332">
        <ele>2064</ele>
        <time>2021-04-08T10:57:15Z</time>
      </trkpt>
      <trkpt lat="44.46241" lon="6.55332">
        <ele>2064</ele>
        <time>2021-04-08T10:57:16Z</time>
      </trkpt>
      <trkpt lat="44.46241" lon="6.55332">
        <ele>2064</ele>
        <time>2021-04-08T10:57:17Z</time>
      </trkpt>
      <trkpt lat="44.46241" lon="6.55332">
        <ele>2064</ele>
        <time>2021-04-08T10:57:18Z</time>
      </trkpt>
      <trkpt lat="44.46241" lon="6.55332">
        <ele>2064</ele>
        <time>2021-04-08T10:57:19Z</time>
      </trkpt>
      <trkpt lat="44.46241" lon="6.55332">
        <ele>2064</ele>
        <time>2021-04-08T10:57:20Z</time>
      </trkpt>
      <trkpt lat="44.46241" lon="6.55332">
        <ele>2064</ele>
        <time>2021-04-08T10:57:21Z</time>
      </trkpt>
      <trkpt lat="44.46241" lon="6.55332">
        <ele>2064</ele>
        <time>2021-04-08T10:57:22Z</time>
      </trkpt>
      <trkpt lat="44.46241" lon="6.55332">
        <ele>2064</ele>
        <time>2021-04-08T10:57:23Z</time>
      </trkpt>
      <trkpt lat="44.46241" lon="6.55332">
        <ele>2064</ele>
        <time>2021-04-08T10:57:24Z</time>
      </trkpt>
      <trkpt lat="44.46241" lon="6.55332">
        <ele>2064</ele>
        <time>2021-04-08T10:57:25Z</time>
      </trkpt>
      <trkpt lat="44.46241" lon="6.55332">
        <ele>2064</ele>
        <time>2021-04-08T10:57:26Z</time>
      </trkpt>
      <trkpt lat="44.46242" lon="6.55319">
        <ele>2064</ele>
        <time>2021-04-08T10:57:27Z</time>
      </trkpt>
      <trkpt lat="44.46242" lon="6.55318">
        <ele>2064</ele>
        <time>2021-04-08T10:57:28Z</time>
      </trkpt>
      <trkpt lat="44.46242" lon="6.55317">
        <ele>2064</ele>
        <time>2021-04-08T10:57:29Z</time>
      </trkpt>
      <trkpt lat="44.46241" lon="6.55317">
        <ele>2064</ele>
        <time>2021-04-08T10:57:30Z</time>
      </trkpt>
      <trkpt lat="44.46241" lon="6.55317">
        <ele>2064</ele>
        <time>2021-04-08T10:57:31Z</time>
      </trkpt>
      <trkpt lat="44.46241" lon="6.55317">
        <ele>2063</ele>
        <time>2021-04-08T10:57:32Z</time>
      </trkpt>
      <trkpt lat="44.46241" lon="6.55317">
        <ele>2063</ele>
        <time>2021-04-08T10:57:33Z</time>
      </trkpt>
      <trkpt lat="44.46241" lon="6.55317">
        <ele>2063</ele>
        <time>2021-04-08T10:57:34Z</time>
      </trkpt>
      <trkpt lat="44.46241" lon="6.55317">
        <ele>2063</ele>
        <time>2021-04-08T10:57:35Z</time>
      </trkpt>
      <trkpt lat="44.46241" lon="6.55317">
        <ele>2063</ele>
        <time>2021-04-08T10:57:36Z</time>
      </trkpt>
      <trkpt lat="44.46241" lon="6.55317">
        <ele>2063</ele>
        <time>2021-04-08T10:57:37Z</time>
      </trkpt>
      <trkpt lat="44.46241" lon="6.55317">
        <ele>2063</ele>
        <time>2021-04-08T10:57:38Z</time>
      </trkpt>
      <trkpt lat="44.46241" lon="6.55317">
        <ele>2063</ele>
        <time>2021-04-08T10:57:39Z</time>
      </trkpt>
      <trkpt lat="44.46241" lon="6.55317">
        <ele>2063</ele>
        <time>2021-04-08T10:57:40Z</time>
      </trkpt>
      <trkpt lat="44.46241" lon="6.55317">
        <ele>2063</ele>
        <time>2021-04-08T10:57:41Z</time>
      </trkpt>
      <trkpt lat="44.46241" lon="6.55317">
        <ele>2063</ele>
        <time>2021-04-08T10:57:42Z</time>
      </trkpt>
      <trkpt lat="44.46241" lon="6.55317">
        <ele>2063</ele>
        <time>2021-04-08T10:57:43Z</time>
      </trkpt>
      <trkpt lat="44.46241" lon="6.55317">
        <ele>2063</ele>
        <time>2021-04-08T10:57:44Z</time>
      </trkpt>
      <trkpt lat="44.46241" lon="6.55317">
        <ele>2063</ele>
        <time>2021-04-08T10:57:45Z</time>
      </trkpt>
      <trkpt lat="44.46241" lon="6.55317">
        <ele>2063</ele>
        <time>2021-04-08T10:57:46Z</time>
      </trkpt>
      <trkpt lat="44.46241" lon="6.55317">
        <ele>2063</ele>
        <time>2021-04-08T10:57:47Z</time>
      </trkpt>
      <trkpt lat="44.46241" lon="6.55317">
        <ele>2063</ele>
        <time>2021-04-08T10:57:48Z</time>
      </trkpt>
      <trkpt lat="44.46241" lon="6.55317">
        <ele>2063</ele>
        <time>2021-04-08T10:57:49Z</time>
      </trkpt>
      <trkpt lat="44.46241" lon="6.55317">
        <ele>2063</ele>
        <time>2021-04-08T10:57:50Z</time>
      </trkpt>
      <trkpt lat="44.46241" lon="6.55304">
        <ele>2063</ele>
        <time>2021-04-08T10:57:51Z</time>
      </trkpt>
      <trkpt lat="44.46241" lon="6.55304">
        <ele>2063</ele>
        <time>2021-04-08T10:57:52Z</time>
      </trkpt>
      <trkpt lat="44.46241" lon="6.55303">
        <ele>2063</ele>
        <time>2021-04-08T10:57:53Z</time>
      </trkpt>
      <trkpt lat="44.46242" lon="6.55303">
        <ele>2063</ele>
        <time>2021-04-08T10:57:54Z</time>
      </trkpt>
      <trkpt lat="44.46242" lon="6.55303">
        <ele>2063</ele>
        <time>2021-04-08T10:57:55Z</time>
      </trkpt>
      <trkpt lat="44.46242" lon="6.55303">
        <ele>2063</ele>
        <time>2021-04-08T10:57:56Z</time>
      </trkpt>
      <trkpt lat="44.46242" lon="6.55303">
        <ele>2063</ele>
        <time>2021-04-08T10:57:57Z</time>
      </trkpt>
      <trkpt lat="44.46242" lon="6.55303">
        <ele>2063</ele>
        <time>2021-04-08T10:57:58Z</time>
      </trkpt>
      <trkpt lat="44.46242" lon="6.55303">
        <ele>2063</ele>
        <time>2021-04-08T10:57:59Z</time>
      </trkpt>
      <trkpt lat="44.46242" lon="6.55303">
        <ele>2063</ele>
        <time>2021-04-08T10:58:00Z</time>
      </trkpt>
      <trkpt lat="44.46242" lon="6.55303">
        <ele>2063</ele>
        <time>2021-04-08T10:58:01Z</time>
      </trkpt>
      <trkpt lat="44.46242" lon="6.55303">
        <ele>2063</ele>
        <time>2021-04-08T10:58:02Z</time>
      </trkpt>
      <trkpt lat="44.46242" lon="6.55303">
        <ele>2063</ele>
        <time>2021-04-08T10:58:03Z</time>
      </trkpt>
      <trkpt lat="44.46242" lon="6.55303">
        <ele>2063</ele>
        <time>2021-04-08T10:58:04Z</time>
      </trkpt>
      <trkpt lat="44.46242" lon="6.55303">
        <ele>2063</ele>
        <time>2021-04-08T10:58:05Z</time>
      </trkpt>
      <trkpt lat="44.46242" lon="6.55303">
        <ele>2063</ele>
        <time>2021-04-08T10:58:06Z</time>
      </trkpt>
      <trkpt lat="44.46242" lon="6.55303">
        <ele>2063</ele>
        <time>2021-04-08T10:58:07Z</time>
      </trkpt>
      <trkpt lat="44.46242" lon="6.55303">
        <ele>2063</ele>
        <time>2021-04-08T10:58:08Z</time>
      </trkpt>
      <trkpt lat="44.46242" lon="6.55303">
        <ele>2063</ele>
        <time>2021-04-08T10:58:09Z</time>
      </trkpt>
      <trkpt lat="44.46242" lon="6.55303">
        <ele>2063</ele>
        <time>2021-04-08T10:58:10Z</time>
      </trkpt>
      <trkpt lat="44.46242" lon="6.55303">
        <ele>2063</ele>
        <time>2021-04-08T10:58:11Z</time>
      </trkpt>
      <trkpt lat="44.46242" lon="6.55303">
        <ele>2063</ele>
        <time>2021-04-08T10:58:12Z</time>
      </trkpt>
      <trkpt lat="44.46242" lon="6.55303">
        <ele>2063</ele>
        <time>2021-04-08T10:58:13Z</time>
      </trkpt>
      <trkpt lat="44.46242" lon="6.55303">
        <ele>2063</ele>
        <time>2021-04-08T10:58:14Z</time>
      </trkpt>
      <trkpt lat="44.46242" lon="6.55303">
        <ele>2063</ele>
        <time>2021-04-08T10:58:15Z</time>
      </trkpt>
      <trkpt lat="44.46242" lon="6.55303">
        <ele>2063</ele>
        <time>2021-04-08T10:58:16Z</time>
      </trkpt>
      <trkpt lat="44.46242" lon="6.55303">
        <ele>2063</ele>
        <time>2021-04-08T10:58:17Z</time>
      </trkpt>
      <trkpt lat="44.46242" lon="6.55303">
        <ele>2063</ele>
        <time>2021-04-08T10:58:18Z</time>
      </trkpt>
      <trkpt lat="44.46242" lon="6.55303">
        <ele>2063</ele>
        <time>2021-04-08T10:58:19Z</time>
      </trkpt>
      <trkpt lat="44.46242" lon="6.55303">
        <ele>2063</ele>
        <time>2021-04-08T10:58:20Z</time>
      </trkpt>
      <trkpt lat="44.46242" lon="6.55303">
        <ele>2063</ele>
        <time>2021-04-08T10:58:21Z</time>
      </trkpt>
      <trkpt lat="44.46242" lon="6.55303">
        <ele>2063</ele>
        <time>2021-04-08T10:58:22Z</time>
      </trkpt>
      <trkpt lat="44.46242" lon="6.55303">
        <ele>2063</ele>
        <time>2021-04-08T10:58:23Z</time>
      </trkpt>
      <trkpt lat="44.46242" lon="6.55303">
        <ele>2063</ele>
        <time>2021-04-08T10:58:24Z</time>
      </trkpt>
      <trkpt lat="44.46242" lon="6.55303">
        <ele>2063</ele>
        <time>2021-04-08T10:58:25Z</time>
      </trkpt>
      <trkpt lat="44.46242" lon="6.55303">
        <ele>2063</ele>
        <time>2021-04-08T10:58:26Z</time>
      </trkpt>
      <trkpt lat="44.46242" lon="6.55303">
        <ele>2063</ele>
        <time>2021-04-08T10:58:27Z</time>
      </trkpt>
      <trkpt lat="44.46242" lon="6.55303">
        <ele>2063</ele>
        <time>2021-04-08T10:58:28Z</time>
      </trkpt>
      <trkpt lat="44.46242" lon="6.55303">
        <ele>2063</ele>
        <time>2021-04-08T10:58:29Z</time>
      </trkpt>
      <trkpt lat="44.46242" lon="6.55303">
        <ele>2063</ele>
        <time>2021-04-08T10:58:30Z</time>
      </trkpt>
      <trkpt lat="44.46242" lon="6.55303">
        <ele>2063</ele>
        <time>2021-04-08T10:58:31Z</time>
      </trkpt>
      <trkpt lat="44.46242" lon="6.55303">
        <ele>2063</ele>
        <time>2021-04-08T10:58:32Z</time>
      </trkpt>
      <trkpt lat="44.46242" lon="6.55303">
        <ele>2063</ele>
        <time>2021-04-08T10:58:33Z</time>
      </trkpt>
      <trkpt lat="44.46242" lon="6.55303">
        <ele>2063</ele>
        <time>2021-04-08T10:58:34Z</time>
      </trkpt>
      <trkpt lat="44.46241" lon="6.5529">
        <ele>2064</ele>
        <time>2021-04-08T10:58:35Z</time>
      </trkpt>
      <trkpt lat="44.4624" lon="6.5529">
        <ele>2064</ele>
        <time>2021-04-08T10:58:36Z</time>
      </trkpt>
      <trkpt lat="44.4624" lon="6.55289">
        <ele>2064</ele>
        <time>2021-04-08T10:58:37Z</time>
      </trkpt>
      <trkpt lat="44.4624" lon="6.55288">
        <ele>2064</ele>
        <time>2021-04-08T10:58:38Z</time>
      </trkpt>
      <trkpt lat="44.4624" lon="6.55288">
        <ele>2064</ele>
        <time>2021-04-08T10:58:39Z</time>
      </trkpt>
      <trkpt lat="44.4624" lon="6.55288">
        <ele>2064</ele>
        <time>2021-04-08T10:58:40Z</time>
      </trkpt>
      <trkpt lat="44.4624" lon="6.55288">
        <ele>2064</ele>
        <time>2021-04-08T10:58:41Z</time>
      </trkpt>
      <trkpt lat="44.4624" lon="6.55288">
        <ele>2064</ele>
        <time>2021-04-08T10:58:42Z</time>
      </trkpt>
      <trkpt lat="44.4624" lon="6.55288">
        <ele>2064</ele>
        <time>2021-04-08T10:58:43Z</time>
      </trkpt>
      <trkpt lat="44.4624" lon="6.55288">
        <ele>2064</ele>
        <time>2021-04-08T10:58:44Z</time>
      </trkpt>
      <trkpt lat="44.4624" lon="6.55288">
        <ele>2064</ele>
        <time>2021-04-08T10:58:45Z</time>
      </trkpt>
      <trkpt lat="44.4624" lon="6.55288">
        <ele>2064</ele>
        <time>2021-04-08T10:58:46Z</time>
      </trkpt>
      <trkpt lat="44.4624" lon="6.55288">
        <ele>2064</ele>
        <time>2021-04-08T10:58:47Z</time>
      </trkpt>
      <trkpt lat="44.4624" lon="6.55288">
        <ele>2064</ele>
        <time>2021-04-08T10:58:48Z</time>
      </trkpt>
      <trkpt lat="44.4624" lon="6.55288">
        <ele>2064</ele>
        <time>2021-04-08T10:58:49Z</time>
      </trkpt>
      <trkpt lat="44.4624" lon="6.55288">
        <ele>2064</ele>
        <time>2021-04-08T10:58:50Z</time>
      </trkpt>
      <trkpt lat="44.46234" lon="6.55278">
        <ele>2066</ele>
        <time>2021-04-08T10:58:51Z</time>
      </trkpt>
      <trkpt lat="44.46234" lon="6.55277">
        <ele>2066</ele>
        <time>2021-04-08T10:58:52Z</time>
      </trkpt>
      <trkpt lat="44.46233" lon="6.55276">
        <ele>2067</ele>
        <time>2021-04-08T10:58:53Z</time>
      </trkpt>
      <trkpt lat="44.46233" lon="6.55275">
        <ele>2067</ele>
        <time>2021-04-08T10:58:54Z</time>
      </trkpt>
      <trkpt lat="44.46233" lon="6.55275">
        <ele>2067</ele>
        <time>2021-04-08T10:58:55Z</time>
      </trkpt>
      <trkpt lat="44.46233" lon="6.55275">
        <ele>2067</ele>
        <time>2021-04-08T10:58:56Z</time>
      </trkpt>
      <trkpt lat="44.46233" lon="6.55275">
        <ele>2067</ele>
        <time>2021-04-08T10:58:57Z</time>
      </trkpt>
      <trkpt lat="44.46233" lon="6.55275">
        <ele>2067</ele>
        <time>2021-04-08T10:58:58Z</time>
      </trkpt>
      <trkpt lat="44.46233" lon="6.55275">
        <ele>2067</ele>
        <time>2021-04-08T10:58:59Z</time>
      </trkpt>
      <trkpt lat="44.46233" lon="6.55275">
        <ele>2067</ele>
        <time>2021-04-08T10:59:00Z</time>
      </trkpt>
      <trkpt lat="44.46233" lon="6.55275">
        <ele>2067</ele>
        <time>2021-04-08T10:59:01Z</time>
      </trkpt>
      <trkpt lat="44.46233" lon="6.55275">
        <ele>2067</ele>
        <time>2021-04-08T10:59:02Z</time>
      </trkpt>
      <trkpt lat="44.46233" lon="6.55275">
        <ele>2067</ele>
        <time>2021-04-08T10:59:03Z</time>
      </trkpt>
      <trkpt lat="44.46233" lon="6.55275">
        <ele>2067</ele>
        <time>2021-04-08T10:59:04Z</time>
      </trkpt>
      <trkpt lat="44.46233" lon="6.55275">
        <ele>2067</ele>
        <time>2021-04-08T10:59:05Z</time>
      </trkpt>
      <trkpt lat="44.46233" lon="6.55275">
        <ele>2067</ele>
        <time>2021-04-08T10:59:06Z</time>
      </trkpt>
      <trkpt lat="44.46233" lon="6.55275">
        <ele>2067</ele>
        <time>2021-04-08T10:59:07Z</time>
      </trkpt>
      <trkpt lat="44.46233" lon="6.55275">
        <ele>2067</ele>
        <time>2021-04-08T10:59:08Z</time>
      </trkpt>
      <trkpt lat="44.46226" lon="6.55267">
        <ele>2067</ele>
        <time>2021-04-08T10:59:09Z</time>
      </trkpt>
      <trkpt lat="44.46226" lon="6.55267">
        <ele>2067</ele>
        <time>2021-04-08T10:59:10Z</time>
      </trkpt>
      <trkpt lat="44.46226" lon="6.55266">
        <ele>2067</ele>
        <time>2021-04-08T10:59:11Z</time>
      </trkpt>
      <trkpt lat="44.46225" lon="6.55266">
        <ele>2067</ele>
        <time>2021-04-08T10:59:12Z</time>
      </trkpt>
      <trkpt lat="44.46225" lon="6.55266">
        <ele>2067</ele>
        <time>2021-04-08T10:59:13Z</time>
      </trkpt>
      <trkpt lat="44.46225" lon="6.55266">
        <ele>2068</ele>
        <time>2021-04-08T10:59:14Z</time>
      </trkpt>
      <trkpt lat="44.46225" lon="6.55266">
        <ele>2068</ele>
        <time>2021-04-08T10:59:15Z</time>
      </trkpt>
      <trkpt lat="44.46225" lon="6.55266">
        <ele>2068</ele>
        <time>2021-04-08T10:59:16Z</time>
      </trkpt>
      <trkpt lat="44.46225" lon="6.55266">
        <ele>2068</ele>
        <time>2021-04-08T10:59:17Z</time>
      </trkpt>
      <trkpt lat="44.46225" lon="6.55266">
        <ele>2068</ele>
        <time>2021-04-08T10:59:18Z</time>
      </trkpt>
      <trkpt lat="44.46225" lon="6.55266">
        <ele>2068</ele>
        <time>2021-04-08T10:59:19Z</time>
      </trkpt>
      <trkpt lat="44.46225" lon="6.55266">
        <ele>2068</ele>
        <time>2021-04-08T10:59:20Z</time>
      </trkpt>
      <trkpt lat="44.46225" lon="6.55266">
        <ele>2068</ele>
        <time>2021-04-08T10:59:21Z</time>
      </trkpt>
      <trkpt lat="44.46225" lon="6.55266">
        <ele>2068</ele>
        <time>2021-04-08T10:59:22Z</time>
      </trkpt>
      <trkpt lat="44.46225" lon="6.55266">
        <ele>2068</ele>
        <time>2021-04-08T10:59:23Z</time>
      </trkpt>
      <trkpt lat="44.46225" lon="6.55266">
        <ele>2068</ele>
        <time>2021-04-08T10:59:24Z</time>
      </trkpt>
      <trkpt lat="44.46225" lon="6.55266">
        <ele>2068</ele>
        <time>2021-04-08T10:59:25Z</time>
      </trkpt>
      <trkpt lat="44.46225" lon="6.55266">
        <ele>2068</ele>
        <time>2021-04-08T10:59:26Z</time>
      </trkpt>
      <trkpt lat="44.46225" lon="6.55266">
        <ele>2068</ele>
        <time>2021-04-08T10:59:27Z</time>
      </trkpt>
      <trkpt lat="44.46225" lon="6.55266">
        <ele>2068</ele>
        <time>2021-04-08T10:59:28Z</time>
      </trkpt>
      <trkpt lat="44.46234" lon="6.55262">
        <ele>2074</ele>
        <time>2021-04-08T10:59:29Z</time>
      </trkpt>
      <trkpt lat="44.46235" lon="6.55261">
        <ele>2075</ele>
        <time>2021-04-08T10:59:30Z</time>
      </trkpt>
      <trkpt lat="44.46235" lon="6.55262">
        <ele>2076</ele>
        <time>2021-04-08T10:59:31Z</time>
      </trkpt>
      <trkpt lat="44.46235" lon="6.55262">
        <ele>2077</ele>
        <time>2021-04-08T10:59:32Z</time>
      </trkpt>
      <trkpt lat="44.46235" lon="6.55262">
        <ele>2077</ele>
        <time>2021-04-08T10:59:33Z</time>
      </trkpt>
      <trkpt lat="44.46235" lon="6.55262">
        <ele>2078</ele>
        <time>2021-04-08T10:59:34Z</time>
      </trkpt>
      <trkpt lat="44.46235" lon="6.55262">
        <ele>2078</ele>
        <time>2021-04-08T10:59:35Z</time>
      </trkpt>
      <trkpt lat="44.46235" lon="6.55262">
        <ele>2078</ele>
        <time>2021-04-08T10:59:36Z</time>
      </trkpt>
      <trkpt lat="44.46235" lon="6.55262">
        <ele>2078</ele>
        <time>2021-04-08T10:59:37Z</time>
      </trkpt>
      <trkpt lat="44.46235" lon="6.55262">
        <ele>2078</ele>
        <time>2021-04-08T10:59:38Z</time>
      </trkpt>
      <trkpt lat="44.46235" lon="6.55262">
        <ele>2078</ele>
        <time>2021-04-08T10:59:39Z</time>
      </trkpt>
      <trkpt lat="44.46235" lon="6.55262">
        <ele>2078</ele>
        <time>2021-04-08T10:59:40Z</time>
      </trkpt>
      <trkpt lat="44.46235" lon="6.55262">
        <ele>2078</ele>
        <time>2021-04-08T10:59:41Z</time>
      </trkpt>
      <trkpt lat="44.46235" lon="6.55262">
        <ele>2078</ele>
        <time>2021-04-08T10:59:42Z</time>
      </trkpt>
      <trkpt lat="44.46235" lon="6.55262">
        <ele>2078</ele>
        <time>2021-04-08T10:59:43Z</time>
      </trkpt>
      <trkpt lat="44.46235" lon="6.55262">
        <ele>2079</ele>
        <time>2021-04-08T10:59:44Z</time>
      </trkpt>
      <trkpt lat="44.46235" lon="6.55262">
        <ele>2079</ele>
        <time>2021-04-08T10:59:45Z</time>
      </trkpt>
      <trkpt lat="44.46235" lon="6.55262">
        <ele>2079</ele>
        <time>2021-04-08T10:59:46Z</time>
      </trkpt>
      <trkpt lat="44.46235" lon="6.55262">
        <ele>2079</ele>
        <time>2021-04-08T10:59:47Z</time>
      </trkpt>
      <trkpt lat="44.46235" lon="6.55262">
        <ele>2079</ele>
        <time>2021-04-08T10:59:48Z</time>
      </trkpt>
      <trkpt lat="44.46235" lon="6.55262">
        <ele>2079</ele>
        <time>2021-04-08T10:59:49Z</time>
      </trkpt>
      <trkpt lat="44.46235" lon="6.55262">
        <ele>2079</ele>
        <time>2021-04-08T10:59:50Z</time>
      </trkpt>
      <trkpt lat="44.46235" lon="6.55262">
        <ele>2079</ele>
        <time>2021-04-08T10:59:51Z</time>
      </trkpt>
      <trkpt lat="44.46235" lon="6.55262">
        <ele>2079</ele>
        <time>2021-04-08T10:59:52Z</time>
      </trkpt>
      <trkpt lat="44.46235" lon="6.55262">
        <ele>2079</ele>
        <time>2021-04-08T10:59:53Z</time>
      </trkpt>
      <trkpt lat="44.46235" lon="6.55262">
        <ele>2079</ele>
        <time>2021-04-08T10:59:54Z</time>
      </trkpt>
      <trkpt lat="44.46235" lon="6.55262">
        <ele>2079</ele>
        <time>2021-04-08T10:59:55Z</time>
      </trkpt>
      <trkpt lat="44.46235" lon="6.55262">
        <ele>2079</ele>
        <time>2021-04-08T10:59:56Z</time>
      </trkpt>
      <trkpt lat="44.46235" lon="6.55262">
        <ele>2079</ele>
        <time>2021-04-08T10:59:57Z</time>
      </trkpt>
      <trkpt lat="44.46235" lon="6.55262">
        <ele>2079</ele>
        <time>2021-04-08T10:59:58Z</time>
      </trkpt>
      <trkpt lat="44.46235" lon="6.55262">
        <ele>2079</ele>
        <time>2021-04-08T10:59:59Z</time>
      </trkpt>
      <trkpt lat="44.46235" lon="6.55262">
        <ele>2079</ele>
        <time>2021-04-08T11:00:00Z</time>
      </trkpt>
      <trkpt lat="44.46235" lon="6.55262">
        <ele>2079</ele>
        <time>2021-04-08T11:00:01Z</time>
      </trkpt>
      <trkpt lat="44.46235" lon="6.55262">
        <ele>2079</ele>
        <time>2021-04-08T11:00:02Z</time>
      </trkpt>
      <trkpt lat="44.46235" lon="6.55262">
        <ele>2079</ele>
        <time>2021-04-08T11:00:03Z</time>
      </trkpt>
      <trkpt lat="44.46235" lon="6.55262">
        <ele>2079</ele>
        <time>2021-04-08T11:00:04Z</time>
      </trkpt>
      <trkpt lat="44.46231" lon="6.5525">
        <ele>2080</ele>
        <time>2021-04-08T11:00:05Z</time>
      </trkpt>
      <trkpt lat="44.46231" lon="6.5525">
        <ele>2080</ele>
        <time>2021-04-08T11:00:06Z</time>
      </trkpt>
      <trkpt lat="44.46231" lon="6.55249">
        <ele>2080</ele>
        <time>2021-04-08T11:00:07Z</time>
      </trkpt>
      <trkpt lat="44.46231" lon="6.55249">
        <ele>2080</ele>
        <time>2021-04-08T11:00:08Z</time>
      </trkpt>
      <trkpt lat="44.46231" lon="6.55249">
        <ele>2081</ele>
        <time>2021-04-08T11:00:09Z</time>
      </trkpt>
      <trkpt lat="44.46231" lon="6.55249">
        <ele>2081</ele>
        <time>2021-04-08T11:00:10Z</time>
      </trkpt>
      <trkpt lat="44.46231" lon="6.55249">
        <ele>2081</ele>
        <time>2021-04-08T11:00:11Z</time>
      </trkpt>
      <trkpt lat="44.46231" lon="6.55249">
        <ele>2081</ele>
        <time>2021-04-08T11:00:12Z</time>
      </trkpt>
      <trkpt lat="44.46231" lon="6.55249">
        <ele>2081</ele>
        <time>2021-04-08T11:00:13Z</time>
      </trkpt>
      <trkpt lat="44.46231" lon="6.55249">
        <ele>2081</ele>
        <time>2021-04-08T11:00:14Z</time>
      </trkpt>
      <trkpt lat="44.46231" lon="6.55249">
        <ele>2081</ele>
        <time>2021-04-08T11:00:15Z</time>
      </trkpt>
      <trkpt lat="44.46231" lon="6.55249">
        <ele>2081</ele>
        <time>2021-04-08T11:00:16Z</time>
      </trkpt>
      <trkpt lat="44.46231" lon="6.55249">
        <ele>2081</ele>
        <time>2021-04-08T11:00:17Z</time>
      </trkpt>
      <trkpt lat="44.46231" lon="6.55249">
        <ele>2081</ele>
        <time>2021-04-08T11:00:18Z</time>
      </trkpt>
      <trkpt lat="44.46231" lon="6.55249">
        <ele>2081</ele>
        <time>2021-04-08T11:00:19Z</time>
      </trkpt>
      <trkpt lat="44.46231" lon="6.55249">
        <ele>2081</ele>
        <time>2021-04-08T11:00:20Z</time>
      </trkpt>
      <trkpt lat="44.46231" lon="6.55249">
        <ele>2081</ele>
        <time>2021-04-08T11:00:21Z</time>
      </trkpt>
      <trkpt lat="44.46231" lon="6.55249">
        <ele>2081</ele>
        <time>2021-04-08T11:00:22Z</time>
      </trkpt>
      <trkpt lat="44.46231" lon="6.55249">
        <ele>2081</ele>
        <time>2021-04-08T11:00:23Z</time>
      </trkpt>
      <trkpt lat="44.46225" lon="6.55238">
        <ele>2081</ele>
        <time>2021-04-08T11:00:24Z</time>
      </trkpt>
      <trkpt lat="44.46225" lon="6.55238">
        <ele>2082</ele>
        <time>2021-04-08T11:00:25Z</time>
      </trkpt>
      <trkpt lat="44.46224" lon="6.55237">
        <ele>2082</ele>
        <time>2021-04-08T11:00:26Z</time>
      </trkpt>
      <trkpt lat="44.46223" lon="6.55237">
        <ele>2082</ele>
        <time>2021-04-08T11:00:27Z</time>
      </trkpt>
      <trkpt lat="44.46223" lon="6.55237">
        <ele>2082</ele>
        <time>2021-04-08T11:00:28Z</time>
      </trkpt>
      <trkpt lat="44.46223" lon="6.55237">
        <ele>2082</ele>
        <time>2021-04-08T11:00:29Z</time>
      </trkpt>
      <trkpt lat="44.46223" lon="6.55237">
        <ele>2082</ele>
        <time>2021-04-08T11:00:30Z</time>
      </trkpt>
      <trkpt lat="44.46223" lon="6.55237">
        <ele>2082</ele>
        <time>2021-04-08T11:00:31Z</time>
      </trkpt>
      <trkpt lat="44.46223" lon="6.55237">
        <ele>2082</ele>
        <time>2021-04-08T11:00:32Z</time>
      </trkpt>
      <trkpt lat="44.46223" lon="6.55237">
        <ele>2082</ele>
        <time>2021-04-08T11:00:33Z</time>
      </trkpt>
      <trkpt lat="44.46223" lon="6.55237">
        <ele>2082</ele>
        <time>2021-04-08T11:00:34Z</time>
      </trkpt>
      <trkpt lat="44.46223" lon="6.55237">
        <ele>2082</ele>
        <time>2021-04-08T11:00:35Z</time>
      </trkpt>
      <trkpt lat="44.46223" lon="6.55237">
        <ele>2082</ele>
        <time>2021-04-08T11:00:36Z</time>
      </trkpt>
      <trkpt lat="44.46223" lon="6.55237">
        <ele>2082</ele>
        <time>2021-04-08T11:00:37Z</time>
      </trkpt>
      <trkpt lat="44.46223" lon="6.55237">
        <ele>2082</ele>
        <time>2021-04-08T11:00:38Z</time>
      </trkpt>
      <trkpt lat="44.46223" lon="6.55237">
        <ele>2082</ele>
        <time>2021-04-08T11:00:39Z</time>
      </trkpt>
      <trkpt lat="44.46223" lon="6.55237">
        <ele>2082</ele>
        <time>2021-04-08T11:00:40Z</time>
      </trkpt>
      <trkpt lat="44.46223" lon="6.55237">
        <ele>2082</ele>
        <time>2021-04-08T11:00:41Z</time>
      </trkpt>
      <trkpt lat="44.46232" lon="6.55232">
        <ele>2085</ele>
        <time>2021-04-08T11:00:42Z</time>
      </trkpt>
      <trkpt lat="44.46233" lon="6.55233">
        <ele>2087</ele>
        <time>2021-04-08T11:00:43Z</time>
      </trkpt>
      <trkpt lat="44.46234" lon="6.55233">
        <ele>2088</ele>
        <time>2021-04-08T11:00:44Z</time>
      </trkpt>
      <trkpt lat="44.46235" lon="6.55233">
        <ele>2091</ele>
        <time>2021-04-08T11:00:45Z</time>
      </trkpt>
      <trkpt lat="44.46235" lon="6.55233">
        <ele>2091</ele>
        <time>2021-04-08T11:00:46Z</time>
      </trkpt>
      <trkpt lat="44.46235" lon="6.55233">
        <ele>2092</ele>
        <time>2021-04-08T11:00:47Z</time>
      </trkpt>
      <trkpt lat="44.46235" lon="6.55233">
        <ele>2092</ele>
        <time>2021-04-08T11:00:48Z</time>
      </trkpt>
      <trkpt lat="44.46235" lon="6.55233">
        <ele>2092</ele>
        <time>2021-04-08T11:00:49Z</time>
      </trkpt>
      <trkpt lat="44.46235" lon="6.55233">
        <ele>2092</ele>
        <time>2021-04-08T11:00:50Z</time>
      </trkpt>
      <trkpt lat="44.46235" lon="6.55233">
        <ele>2092</ele>
        <time>2021-04-08T11:00:51Z</time>
      </trkpt>
      <trkpt lat="44.46235" lon="6.55233">
        <ele>2092</ele>
        <time>2021-04-08T11:00:52Z</time>
      </trkpt>
      <trkpt lat="44.46235" lon="6.55233">
        <ele>2092</ele>
        <time>2021-04-08T11:00:53Z</time>
      </trkpt>
      <trkpt lat="44.46235" lon="6.55233">
        <ele>2092</ele>
        <time>2021-04-08T11:00:54Z</time>
      </trkpt>
      <trkpt lat="44.46235" lon="6.55233">
        <ele>2092</ele>
        <time>2021-04-08T11:00:55Z</time>
      </trkpt>
      <trkpt lat="44.46235" lon="6.55233">
        <ele>2092</ele>
        <time>2021-04-08T11:00:56Z</time>
      </trkpt>
      <trkpt lat="44.46235" lon="6.55233">
        <ele>2093</ele>
        <time>2021-04-08T11:00:57Z</time>
      </trkpt>
      <trkpt lat="44.46235" lon="6.55233">
        <ele>2093</ele>
        <time>2021-04-08T11:00:58Z</time>
      </trkpt>
      <trkpt lat="44.46235" lon="6.55233">
        <ele>2093</ele>
        <time>2021-04-08T11:00:59Z</time>
      </trkpt>
      <trkpt lat="44.46235" lon="6.55233">
        <ele>2093</ele>
        <time>2021-04-08T11:01:00Z</time>
      </trkpt>
      <trkpt lat="44.46235" lon="6.55233">
        <ele>2093</ele>
        <time>2021-04-08T11:01:01Z</time>
      </trkpt>
      <trkpt lat="44.46235" lon="6.55233">
        <ele>2093</ele>
        <time>2021-04-08T11:01:02Z</time>
      </trkpt>
      <trkpt lat="44.46235" lon="6.55233">
        <ele>2093</ele>
        <time>2021-04-08T11:01:03Z</time>
      </trkpt>
      <trkpt lat="44.46235" lon="6.55233">
        <ele>2093</ele>
        <time>2021-04-08T11:01:04Z</time>
      </trkpt>
      <trkpt lat="44.46235" lon="6.55233">
        <ele>2093</ele>
        <time>2021-04-08T11:01:05Z</time>
      </trkpt>
      <trkpt lat="44.46235" lon="6.55233">
        <ele>2093</ele>
        <time>2021-04-08T11:01:06Z</time>
      </trkpt>
      <trkpt lat="44.46235" lon="6.55233">
        <ele>2093</ele>
        <time>2021-04-08T11:01:07Z</time>
      </trkpt>
      <trkpt lat="44.4623" lon="6.55223">
        <ele>2095</ele>
        <time>2021-04-08T11:01:08Z</time>
      </trkpt>
      <trkpt lat="44.46229" lon="6.55221">
        <ele>2095</ele>
        <time>2021-04-08T11:01:09Z</time>
      </trkpt>
      <trkpt lat="44.46229" lon="6.5522">
        <ele>2096</ele>
        <time>2021-04-08T11:01:10Z</time>
      </trkpt>
      <trkpt lat="44.46229" lon="6.55219">
        <ele>2096</ele>
        <time>2021-04-08T11:01:11Z</time>
      </trkpt>
      <trkpt lat="44.46229" lon="6.55219">
        <ele>2096</ele>
        <time>2021-04-08T11:01:12Z</time>
      </trkpt>
      <trkpt lat="44.46229" lon="6.55219">
        <ele>2096</ele>
        <time>2021-04-08T11:01:13Z</time>
      </trkpt>
      <trkpt lat="44.46229" lon="6.55219">
        <ele>2096</ele>
        <time>2021-04-08T11:01:14Z</time>
      </trkpt>
      <trkpt lat="44.46229" lon="6.55219">
        <ele>2096</ele>
        <time>2021-04-08T11:01:15Z</time>
      </trkpt>
      <trkpt lat="44.46229" lon="6.55219">
        <ele>2096</ele>
        <time>2021-04-08T11:01:16Z</time>
      </trkpt>
      <trkpt lat="44.46229" lon="6.55219">
        <ele>2096</ele>
        <time>2021-04-08T11:01:17Z</time>
      </trkpt>
      <trkpt lat="44.46229" lon="6.55219">
        <ele>2096</ele>
        <time>2021-04-08T11:01:18Z</time>
      </trkpt>
      <trkpt lat="44.46229" lon="6.55219">
        <ele>2097</ele>
        <time>2021-04-08T11:01:19Z</time>
      </trkpt>
      <trkpt lat="44.46229" lon="6.55219">
        <ele>2097</ele>
        <time>2021-04-08T11:01:20Z</time>
      </trkpt>
      <trkpt lat="44.46229" lon="6.55219">
        <ele>2097</ele>
        <time>2021-04-08T11:01:21Z</time>
      </trkpt>
      <trkpt lat="44.46229" lon="6.55219">
        <ele>2097</ele>
        <time>2021-04-08T11:01:22Z</time>
      </trkpt>
      <trkpt lat="44.46229" lon="6.55219">
        <ele>2097</ele>
        <time>2021-04-08T11:01:23Z</time>
      </trkpt>
      <trkpt lat="44.46229" lon="6.55219">
        <ele>2097</ele>
        <time>2021-04-08T11:01:24Z</time>
      </trkpt>
      <trkpt lat="44.46229" lon="6.55219">
        <ele>2097</ele>
        <time>2021-04-08T11:01:25Z</time>
      </trkpt>
      <trkpt lat="44.46229" lon="6.55219">
        <ele>2097</ele>
        <time>2021-04-08T11:01:26Z</time>
      </trkpt>
      <trkpt lat="44.46229" lon="6.55219">
        <ele>2097</ele>
        <time>2021-04-08T11:01:27Z</time>
      </trkpt>
      <trkpt lat="44.46229" lon="6.55219">
        <ele>2097</ele>
        <time>2021-04-08T11:01:28Z</time>
      </trkpt>
      <trkpt lat="44.46229" lon="6.55219">
        <ele>2097</ele>
        <time>2021-04-08T11:01:29Z</time>
      </trkpt>
      <trkpt lat="44.46229" lon="6.55219">
        <ele>2097</ele>
        <time>2021-04-08T11:01:30Z</time>
      </trkpt>
      <trkpt lat="44.46229" lon="6.55219">
        <ele>2097</ele>
        <time>2021-04-08T11:01:31Z</time>
      </trkpt>
      <trkpt lat="44.46229" lon="6.55219">
        <ele>2097</ele>
        <time>2021-04-08T11:01:32Z</time>
      </trkpt>
      <trkpt lat="44.46229" lon="6.55219">
        <ele>2097</ele>
        <time>2021-04-08T11:01:33Z</time>
      </trkpt>
      <trkpt lat="44.46229" lon="6.55219">
        <ele>2097</ele>
        <time>2021-04-08T11:01:34Z</time>
      </trkpt>
      <trkpt lat="44.46229" lon="6.55219">
        <ele>2097</ele>
        <time>2021-04-08T11:01:35Z</time>
      </trkpt>
      <trkpt lat="44.46229" lon="6.55219">
        <ele>2097</ele>
        <time>2021-04-08T11:01:36Z</time>
      </trkpt>
      <trkpt lat="44.46229" lon="6.55219">
        <ele>2097</ele>
        <time>2021-04-08T11:01:37Z</time>
      </trkpt>
      <trkpt lat="44.46229" lon="6.55219">
        <ele>2097</ele>
        <time>2021-04-08T11:01:38Z</time>
      </trkpt>
      <trkpt lat="44.46229" lon="6.55219">
        <ele>2097</ele>
        <time>2021-04-08T11:01:39Z</time>
      </trkpt>
      <trkpt lat="44.46229" lon="6.55219">
        <ele>2097</ele>
        <time>2021-04-08T11:01:40Z</time>
      </trkpt>
      <trkpt lat="44.46229" lon="6.55219">
        <ele>2097</ele>
        <time>2021-04-08T11:01:41Z</time>
      </trkpt>
      <trkpt lat="44.46229" lon="6.55219">
        <ele>2097</ele>
        <time>2021-04-08T11:01:42Z</time>
      </trkpt>
      <trkpt lat="44.4623" lon="6.55206">
        <ele>2098</ele>
        <time>2021-04-08T11:01:43Z</time>
      </trkpt>
      <trkpt lat="44.46231" lon="6.55205">
        <ele>2098</ele>
        <time>2021-04-08T11:01:44Z</time>
      </trkpt>
      <trkpt lat="44.46232" lon="6.55205">
        <ele>2099</ele>
        <time>2021-04-08T11:01:45Z</time>
      </trkpt>
      <trkpt lat="44.46232" lon="6.55205">
        <ele>2099</ele>
        <time>2021-04-08T11:01:46Z</time>
      </trkpt>
      <trkpt lat="44.46232" lon="6.55205">
        <ele>2099</ele>
        <time>2021-04-08T11:01:47Z</time>
      </trkpt>
      <trkpt lat="44.46232" lon="6.55205">
        <ele>2099</ele>
        <time>2021-04-08T11:01:48Z</time>
      </trkpt>
      <trkpt lat="44.46232" lon="6.55205">
        <ele>2099</ele>
        <time>2021-04-08T11:01:49Z</time>
      </trkpt>
      <trkpt lat="44.46232" lon="6.55205">
        <ele>2099</ele>
        <time>2021-04-08T11:01:50Z</time>
      </trkpt>
      <trkpt lat="44.46232" lon="6.55205">
        <ele>2099</ele>
        <time>2021-04-08T11:01:51Z</time>
      </trkpt>
      <trkpt lat="44.46232" lon="6.55205">
        <ele>2099</ele>
        <time>2021-04-08T11:01:52Z</time>
      </trkpt>
      <trkpt lat="44.46232" lon="6.55205">
        <ele>2099</ele>
        <time>2021-04-08T11:01:53Z</time>
      </trkpt>
      <trkpt lat="44.46232" lon="6.55205">
        <ele>2099</ele>
        <time>2021-04-08T11:01:54Z</time>
      </trkpt>
      <trkpt lat="44.46232" lon="6.55205">
        <ele>2099</ele>
        <time>2021-04-08T11:01:55Z</time>
      </trkpt>
      <trkpt lat="44.46232" lon="6.55205">
        <ele>2099</ele>
        <time>2021-04-08T11:01:56Z</time>
      </trkpt>
      <trkpt lat="44.46232" lon="6.55205">
        <ele>2099</ele>
        <time>2021-04-08T11:01:57Z</time>
      </trkpt>
      <trkpt lat="44.46232" lon="6.55205">
        <ele>2099</ele>
        <time>2021-04-08T11:01:58Z</time>
      </trkpt>
      <trkpt lat="44.46232" lon="6.55205">
        <ele>2099</ele>
        <time>2021-04-08T11:01:59Z</time>
      </trkpt>
      <trkpt lat="44.46241" lon="6.55205">
        <ele>2100</ele>
        <time>2021-04-08T11:02:00Z</time>
      </trkpt>
      <trkpt lat="44.46242" lon="6.55206">
        <ele>2101</ele>
        <time>2021-04-08T11:02:01Z</time>
      </trkpt>
      <trkpt lat="44.46243" lon="6.55206">
        <ele>2101</ele>
        <time>2021-04-08T11:02:02Z</time>
      </trkpt>
      <trkpt lat="44.46243" lon="6.55205">
        <ele>2101</ele>
        <time>2021-04-08T11:02:03Z</time>
      </trkpt>
      <trkpt lat="44.46243" lon="6.55205">
        <ele>2101</ele>
        <time>2021-04-08T11:02:04Z</time>
      </trkpt>
      <trkpt lat="44.46243" lon="6.55205">
        <ele>2101</ele>
        <time>2021-04-08T11:02:05Z</time>
      </trkpt>
      <trkpt lat="44.46243" lon="6.55205">
        <ele>2101</ele>
        <time>2021-04-08T11:02:06Z</time>
      </trkpt>
      <trkpt lat="44.46243" lon="6.55205">
        <ele>2101</ele>
        <time>2021-04-08T11:02:07Z</time>
      </trkpt>
      <trkpt lat="44.46243" lon="6.55205">
        <ele>2101</ele>
        <time>2021-04-08T11:02:08Z</time>
      </trkpt>
      <trkpt lat="44.46243" lon="6.55205">
        <ele>2101</ele>
        <time>2021-04-08T11:02:09Z</time>
      </trkpt>
      <trkpt lat="44.46243" lon="6.55205">
        <ele>2101</ele>
        <time>2021-04-08T11:02:10Z</time>
      </trkpt>
      <trkpt lat="44.46243" lon="6.55205">
        <ele>2101</ele>
        <time>2021-04-08T11:02:11Z</time>
      </trkpt>
      <trkpt lat="44.46243" lon="6.55205">
        <ele>2101</ele>
        <time>2021-04-08T11:02:12Z</time>
      </trkpt>
      <trkpt lat="44.46243" lon="6.55205">
        <ele>2102</ele>
        <time>2021-04-08T11:02:13Z</time>
      </trkpt>
      <trkpt lat="44.46243" lon="6.55205">
        <ele>2102</ele>
        <time>2021-04-08T11:02:14Z</time>
      </trkpt>
      <trkpt lat="44.46243" lon="6.55205">
        <ele>2102</ele>
        <time>2021-04-08T11:02:15Z</time>
      </trkpt>
      <trkpt lat="44.46243" lon="6.55205">
        <ele>2102</ele>
        <time>2021-04-08T11:02:16Z</time>
      </trkpt>
      <trkpt lat="44.46243" lon="6.55205">
        <ele>2102</ele>
        <time>2021-04-08T11:02:17Z</time>
      </trkpt>
      <trkpt lat="44.46243" lon="6.55205">
        <ele>2102</ele>
        <time>2021-04-08T11:02:18Z</time>
      </trkpt>
      <trkpt lat="44.46237" lon="6.55195">
        <ele>2103</ele>
        <time>2021-04-08T11:02:19Z</time>
      </trkpt>
      <trkpt lat="44.46237" lon="6.55194">
        <ele>2103</ele>
        <time>2021-04-08T11:02:20Z</time>
      </trkpt>
      <trkpt lat="44.46236" lon="6.55193">
        <ele>2104</ele>
        <time>2021-04-08T11:02:21Z</time>
      </trkpt>
      <trkpt lat="44.46235" lon="6.55193">
        <ele>2104</ele>
        <time>2021-04-08T11:02:22Z</time>
      </trkpt>
      <trkpt lat="44.46235" lon="6.55193">
        <ele>2104</ele>
        <time>2021-04-08T11:02:23Z</time>
      </trkpt>
      <trkpt lat="44.46235" lon="6.55193">
        <ele>2104</ele>
        <time>2021-04-08T11:02:24Z</time>
      </trkpt>
      <trkpt lat="44.46235" lon="6.5519">
        <ele>2105</ele>
        <time>2021-04-08T11:02:25Z</time>
      </trkpt>
      <trkpt lat="44.46235" lon="6.55188">
        <ele>2105</ele>
        <time>2021-04-08T11:02:26Z</time>
      </trkpt>
      <trkpt lat="44.46235" lon="6.55187">
        <ele>2105</ele>
        <time>2021-04-08T11:02:27Z</time>
      </trkpt>
      <trkpt lat="44.46235" lon="6.55186">
        <ele>2105</ele>
        <time>2021-04-08T11:02:28Z</time>
      </trkpt>
      <trkpt lat="44.46235" lon="6.55186">
        <ele>2105</ele>
        <time>2021-04-08T11:02:29Z</time>
      </trkpt>
      <trkpt lat="44.46235" lon="6.55186">
        <ele>2105</ele>
        <time>2021-04-08T11:02:30Z</time>
      </trkpt>
      <trkpt lat="44.46235" lon="6.55186">
        <ele>2105</ele>
        <time>2021-04-08T11:02:31Z</time>
      </trkpt>
      <trkpt lat="44.46235" lon="6.55186">
        <ele>2105</ele>
        <time>2021-04-08T11:02:32Z</time>
      </trkpt>
      <trkpt lat="44.46235" lon="6.55186">
        <ele>2105</ele>
        <time>2021-04-08T11:02:33Z</time>
      </trkpt>
      <trkpt lat="44.46235" lon="6.55186">
        <ele>2105</ele>
        <time>2021-04-08T11:02:34Z</time>
      </trkpt>
      <trkpt lat="44.46235" lon="6.55186">
        <ele>2105</ele>
        <time>2021-04-08T11:02:35Z</time>
      </trkpt>
      <trkpt lat="44.46235" lon="6.55186">
        <ele>2105</ele>
        <time>2021-04-08T11:02:36Z</time>
      </trkpt>
      <trkpt lat="44.46235" lon="6.55186">
        <ele>2105</ele>
        <time>2021-04-08T11:02:37Z</time>
      </trkpt>
      <trkpt lat="44.46235" lon="6.55186">
        <ele>2105</ele>
        <time>2021-04-08T11:02:38Z</time>
      </trkpt>
      <trkpt lat="44.46235" lon="6.55186">
        <ele>2105</ele>
        <time>2021-04-08T11:02:39Z</time>
      </trkpt>
      <trkpt lat="44.46235" lon="6.55186">
        <ele>2105</ele>
        <time>2021-04-08T11:02:40Z</time>
      </trkpt>
      <trkpt lat="44.46235" lon="6.55186">
        <ele>2105</ele>
        <time>2021-04-08T11:02:41Z</time>
      </trkpt>
      <trkpt lat="44.46235" lon="6.55186">
        <ele>2105</ele>
        <time>2021-04-08T11:02:42Z</time>
      </trkpt>
      <trkpt lat="44.46229" lon="6.55176">
        <ele>2108</ele>
        <time>2021-04-08T11:02:43Z</time>
      </trkpt>
      <trkpt lat="44.46229" lon="6.55175">
        <ele>2109</ele>
        <time>2021-04-08T11:02:44Z</time>
      </trkpt>
      <trkpt lat="44.46228" lon="6.55175">
        <ele>2109</ele>
        <time>2021-04-08T11:02:45Z</time>
      </trkpt>
      <trkpt lat="44.46228" lon="6.55174">
        <ele>2110</ele>
        <time>2021-04-08T11:02:46Z</time>
      </trkpt>
      <trkpt lat="44.46228" lon="6.55174">
        <ele>2110</ele>
        <time>2021-04-08T11:02:47Z</time>
      </trkpt>
      <trkpt lat="44.46228" lon="6.55174">
        <ele>2110</ele>
        <time>2021-04-08T11:02:48Z</time>
      </trkpt>
      <trkpt lat="44.46228" lon="6.55174">
        <ele>2110</ele>
        <time>2021-04-08T11:02:49Z</time>
      </trkpt>
      <trkpt lat="44.46228" lon="6.55174">
        <ele>2110</ele>
        <time>2021-04-08T11:02:50Z</time>
      </trkpt>
      <trkpt lat="44.46228" lon="6.55174">
        <ele>2110</ele>
        <time>2021-04-08T11:02:51Z</time>
      </trkpt>
      <trkpt lat="44.46228" lon="6.55174">
        <ele>2110</ele>
        <time>2021-04-08T11:02:52Z</time>
      </trkpt>
      <trkpt lat="44.46228" lon="6.55174">
        <ele>2110</ele>
        <time>2021-04-08T11:02:53Z</time>
      </trkpt>
      <trkpt lat="44.46228" lon="6.55174">
        <ele>2110</ele>
        <time>2021-04-08T11:02:54Z</time>
      </trkpt>
      <trkpt lat="44.46228" lon="6.55174">
        <ele>2110</ele>
        <time>2021-04-08T11:02:55Z</time>
      </trkpt>
      <trkpt lat="44.46228" lon="6.55174">
        <ele>2110</ele>
        <time>2021-04-08T11:02:56Z</time>
      </trkpt>
      <trkpt lat="44.46228" lon="6.55174">
        <ele>2111</ele>
        <time>2021-04-08T11:02:57Z</time>
      </trkpt>
      <trkpt lat="44.46228" lon="6.55174">
        <ele>2111</ele>
        <time>2021-04-08T11:02:58Z</time>
      </trkpt>
      <trkpt lat="44.46228" lon="6.55174">
        <ele>2111</ele>
        <time>2021-04-08T11:02:59Z</time>
      </trkpt>
      <trkpt lat="44.46228" lon="6.55174">
        <ele>2111</ele>
        <time>2021-04-08T11:03:00Z</time>
      </trkpt>
      <trkpt lat="44.46228" lon="6.55174">
        <ele>2111</ele>
        <time>2021-04-08T11:03:01Z</time>
      </trkpt>
      <trkpt lat="44.46228" lon="6.55174">
        <ele>2111</ele>
        <time>2021-04-08T11:03:02Z</time>
      </trkpt>
      <trkpt lat="44.46228" lon="6.55174">
        <ele>2111</ele>
        <time>2021-04-08T11:03:03Z</time>
      </trkpt>
      <trkpt lat="44.46228" lon="6.55174">
        <ele>2111</ele>
        <time>2021-04-08T11:03:04Z</time>
      </trkpt>
      <trkpt lat="44.46228" lon="6.55174">
        <ele>2111</ele>
        <time>2021-04-08T11:03:05Z</time>
      </trkpt>
      <trkpt lat="44.46228" lon="6.55174">
        <ele>2111</ele>
        <time>2021-04-08T11:03:06Z</time>
      </trkpt>
      <trkpt lat="44.46238" lon="6.55173">
        <ele>2115</ele>
        <time>2021-04-08T11:03:07Z</time>
      </trkpt>
      <trkpt lat="44.46238" lon="6.55173">
        <ele>2116</ele>
        <time>2021-04-08T11:03:08Z</time>
      </trkpt>
      <trkpt lat="44.46239" lon="6.55173">
        <ele>2116</ele>
        <time>2021-04-08T11:03:09Z</time>
      </trkpt>
      <trkpt lat="44.46238" lon="6.55173">
        <ele>2117</ele>
        <time>2021-04-08T11:03:10Z</time>
      </trkpt>
      <trkpt lat="44.46238" lon="6.55173">
        <ele>2117</ele>
        <time>2021-04-08T11:03:11Z</time>
      </trkpt>
      <trkpt lat="44.46238" lon="6.55173">
        <ele>2117</ele>
        <time>2021-04-08T11:03:12Z</time>
      </trkpt>
      <trkpt lat="44.46238" lon="6.55173">
        <ele>2118</ele>
        <time>2021-04-08T11:03:13Z</time>
      </trkpt>
      <trkpt lat="44.46238" lon="6.55173">
        <ele>2118</ele>
        <time>2021-04-08T11:03:14Z</time>
      </trkpt>
      <trkpt lat="44.46238" lon="6.55173">
        <ele>2118</ele>
        <time>2021-04-08T11:03:15Z</time>
      </trkpt>
      <trkpt lat="44.46238" lon="6.55173">
        <ele>2118</ele>
        <time>2021-04-08T11:03:16Z</time>
      </trkpt>
      <trkpt lat="44.46238" lon="6.55173">
        <ele>2118</ele>
        <time>2021-04-08T11:03:17Z</time>
      </trkpt>
      <trkpt lat="44.46238" lon="6.55173">
        <ele>2118</ele>
        <time>2021-04-08T11:03:18Z</time>
      </trkpt>
      <trkpt lat="44.46238" lon="6.55173">
        <ele>2118</ele>
        <time>2021-04-08T11:03:19Z</time>
      </trkpt>
      <trkpt lat="44.46238" lon="6.55173">
        <ele>2118</ele>
        <time>2021-04-08T11:03:20Z</time>
      </trkpt>
      <trkpt lat="44.46238" lon="6.55173">
        <ele>2118</ele>
        <time>2021-04-08T11:03:21Z</time>
      </trkpt>
      <trkpt lat="44.46238" lon="6.55173">
        <ele>2118</ele>
        <time>2021-04-08T11:03:22Z</time>
      </trkpt>
      <trkpt lat="44.46238" lon="6.55173">
        <ele>2118</ele>
        <time>2021-04-08T11:03:23Z</time>
      </trkpt>
      <trkpt lat="44.46234" lon="6.55161">
        <ele>2119</ele>
        <time>2021-04-08T11:03:24Z</time>
      </trkpt>
      <trkpt lat="44.46234" lon="6.5516">
        <ele>2119</ele>
        <time>2021-04-08T11:03:25Z</time>
      </trkpt>
      <trkpt lat="44.46234" lon="6.55159">
        <ele>2119</ele>
        <time>2021-04-08T11:03:26Z</time>
      </trkpt>
      <trkpt lat="44.46233" lon="6.55158">
        <ele>2119</ele>
        <time>2021-04-08T11:03:27Z</time>
      </trkpt>
      <trkpt lat="44.46233" lon="6.55158">
        <ele>2119</ele>
        <time>2021-04-08T11:03:28Z</time>
      </trkpt>
      <trkpt lat="44.46233" lon="6.55158">
        <ele>2119</ele>
        <time>2021-04-08T11:03:29Z</time>
      </trkpt>
      <trkpt lat="44.46233" lon="6.55158">
        <ele>2119</ele>
        <time>2021-04-08T11:03:30Z</time>
      </trkpt>
      <trkpt lat="44.46233" lon="6.55158">
        <ele>2120</ele>
        <time>2021-04-08T11:03:31Z</time>
      </trkpt>
      <trkpt lat="44.46233" lon="6.55158">
        <ele>2120</ele>
        <time>2021-04-08T11:03:32Z</time>
      </trkpt>
      <trkpt lat="44.46233" lon="6.55158">
        <ele>2120</ele>
        <time>2021-04-08T11:03:33Z</time>
      </trkpt>
      <trkpt lat="44.46233" lon="6.55158">
        <ele>2120</ele>
        <time>2021-04-08T11:03:34Z</time>
      </trkpt>
      <trkpt lat="44.46233" lon="6.55158">
        <ele>2120</ele>
        <time>2021-04-08T11:03:35Z</time>
      </trkpt>
      <trkpt lat="44.46233" lon="6.55158">
        <ele>2120</ele>
        <time>2021-04-08T11:03:36Z</time>
      </trkpt>
      <trkpt lat="44.46233" lon="6.55158">
        <ele>2120</ele>
        <time>2021-04-08T11:03:37Z</time>
      </trkpt>
      <trkpt lat="44.46233" lon="6.55158">
        <ele>2120</ele>
        <time>2021-04-08T11:03:38Z</time>
      </trkpt>
      <trkpt lat="44.46233" lon="6.55158">
        <ele>2120</ele>
        <time>2021-04-08T11:03:39Z</time>
      </trkpt>
      <trkpt lat="44.46233" lon="6.55158">
        <ele>2120</ele>
        <time>2021-04-08T11:03:40Z</time>
      </trkpt>
      <trkpt lat="44.46233" lon="6.55158">
        <ele>2120</ele>
        <time>2021-04-08T11:03:41Z</time>
      </trkpt>
      <trkpt lat="44.46229" lon="6.55146">
        <ele>2120</ele>
        <time>2021-04-08T11:03:42Z</time>
      </trkpt>
      <trkpt lat="44.46229" lon="6.55146">
        <ele>2121</ele>
        <time>2021-04-08T11:03:43Z</time>
      </trkpt>
      <trkpt lat="44.46229" lon="6.55145">
        <ele>2121</ele>
        <time>2021-04-08T11:03:44Z</time>
      </trkpt>
      <trkpt lat="44.46228" lon="6.55144">
        <ele>2121</ele>
        <time>2021-04-08T11:03:45Z</time>
      </trkpt>
      <trkpt lat="44.46228" lon="6.55144">
        <ele>2121</ele>
        <time>2021-04-08T11:03:46Z</time>
      </trkpt>
      <trkpt lat="44.46228" lon="6.55144">
        <ele>2121</ele>
        <time>2021-04-08T11:03:47Z</time>
      </trkpt>
      <trkpt lat="44.46228" lon="6.55144">
        <ele>2121</ele>
        <time>2021-04-08T11:03:48Z</time>
      </trkpt>
      <trkpt lat="44.46228" lon="6.55144">
        <ele>2121</ele>
        <time>2021-04-08T11:03:49Z</time>
      </trkpt>
      <trkpt lat="44.46228" lon="6.55144">
        <ele>2121</ele>
        <time>2021-04-08T11:03:50Z</time>
      </trkpt>
      <trkpt lat="44.46228" lon="6.55144">
        <ele>2121</ele>
        <time>2021-04-08T11:03:51Z</time>
      </trkpt>
      <trkpt lat="44.46228" lon="6.55144">
        <ele>2121</ele>
        <time>2021-04-08T11:03:52Z</time>
      </trkpt>
      <trkpt lat="44.46228" lon="6.55144">
        <ele>2121</ele>
        <time>2021-04-08T11:03:53Z</time>
      </trkpt>
      <trkpt lat="44.46228" lon="6.55144">
        <ele>2122</ele>
        <time>2021-04-08T11:03:54Z</time>
      </trkpt>
      <trkpt lat="44.46228" lon="6.55144">
        <ele>2122</ele>
        <time>2021-04-08T11:03:55Z</time>
      </trkpt>
      <trkpt lat="44.46228" lon="6.55144">
        <ele>2122</ele>
        <time>2021-04-08T11:03:56Z</time>
      </trkpt>
      <trkpt lat="44.46228" lon="6.55144">
        <ele>2122</ele>
        <time>2021-04-08T11:03:57Z</time>
      </trkpt>
      <trkpt lat="44.46228" lon="6.55144">
        <ele>2122</ele>
        <time>2021-04-08T11:03:58Z</time>
      </trkpt>
      <trkpt lat="44.46228" lon="6.55144">
        <ele>2122</ele>
        <time>2021-04-08T11:03:59Z</time>
      </trkpt>
      <trkpt lat="44.46223" lon="6.55133">
        <ele>2123</ele>
        <time>2021-04-08T11:04:00Z</time>
      </trkpt>
      <trkpt lat="44.46223" lon="6.55133">
        <ele>2123</ele>
        <time>2021-04-08T11:04:01Z</time>
      </trkpt>
      <trkpt lat="44.46224" lon="6.55132">
        <ele>2123</ele>
        <time>2021-04-08T11:04:02Z</time>
      </trkpt>
      <trkpt lat="44.46224" lon="6.55131">
        <ele>2124</ele>
        <time>2021-04-08T11:04:03Z</time>
      </trkpt>
      <trkpt lat="44.46224" lon="6.55131">
        <ele>2124</ele>
        <time>2021-04-08T11:04:04Z</time>
      </trkpt>
      <trkpt lat="44.46224" lon="6.55131">
        <ele>2124</ele>
        <time>2021-04-08T11:04:05Z</time>
      </trkpt>
      <trkpt lat="44.46224" lon="6.55131">
        <ele>2124</ele>
        <time>2021-04-08T11:04:06Z</time>
      </trkpt>
      <trkpt lat="44.46224" lon="6.55131">
        <ele>2124</ele>
        <time>2021-04-08T11:04:07Z</time>
      </trkpt>
      <trkpt lat="44.46224" lon="6.55131">
        <ele>2124</ele>
        <time>2021-04-08T11:04:08Z</time>
      </trkpt>
      <trkpt lat="44.46224" lon="6.55131">
        <ele>2124</ele>
        <time>2021-04-08T11:04:09Z</time>
      </trkpt>
      <trkpt lat="44.46224" lon="6.55131">
        <ele>2124</ele>
        <time>2021-04-08T11:04:10Z</time>
      </trkpt>
      <trkpt lat="44.46224" lon="6.55131">
        <ele>2124</ele>
        <time>2021-04-08T11:04:11Z</time>
      </trkpt>
      <trkpt lat="44.46224" lon="6.55131">
        <ele>2124</ele>
        <time>2021-04-08T11:04:12Z</time>
      </trkpt>
      <trkpt lat="44.46224" lon="6.55131">
        <ele>2124</ele>
        <time>2021-04-08T11:04:13Z</time>
      </trkpt>
      <trkpt lat="44.46224" lon="6.55131">
        <ele>2124</ele>
        <time>2021-04-08T11:04:14Z</time>
      </trkpt>
      <trkpt lat="44.46224" lon="6.55131">
        <ele>2124</ele>
        <time>2021-04-08T11:04:15Z</time>
      </trkpt>
      <trkpt lat="44.46224" lon="6.55131">
        <ele>2124</ele>
        <time>2021-04-08T11:04:16Z</time>
      </trkpt>
      <trkpt lat="44.46224" lon="6.55131">
        <ele>2124</ele>
        <time>2021-04-08T11:04:17Z</time>
      </trkpt>
      <trkpt lat="44.46224" lon="6.55131">
        <ele>2124</ele>
        <time>2021-04-08T11:04:18Z</time>
      </trkpt>
      <trkpt lat="44.46224" lon="6.55131">
        <ele>2124</ele>
        <time>2021-04-08T11:04:19Z</time>
      </trkpt>
      <trkpt lat="44.46233" lon="6.55127">
        <ele>2125</ele>
        <time>2021-04-08T11:04:20Z</time>
      </trkpt>
      <trkpt lat="44.46234" lon="6.55127">
        <ele>2125</ele>
        <time>2021-04-08T11:04:21Z</time>
      </trkpt>
      <trkpt lat="44.46234" lon="6.55126">
        <ele>2125</ele>
        <time>2021-04-08T11:04:22Z</time>
      </trkpt>
      <trkpt lat="44.46235" lon="6.55126">
        <ele>2125</ele>
        <time>2021-04-08T11:04:23Z</time>
      </trkpt>
      <trkpt lat="44.46235" lon="6.55126">
        <ele>2126</ele>
        <time>2021-04-08T11:04:24Z</time>
      </trkpt>
      <trkpt lat="44.46235" lon="6.55126">
        <ele>2126</ele>
        <time>2021-04-08T11:04:25Z</time>
      </trkpt>
      <trkpt lat="44.46235" lon="6.55126">
        <ele>2126</ele>
        <time>2021-04-08T11:04:26Z</time>
      </trkpt>
      <trkpt lat="44.46235" lon="6.55126">
        <ele>2126</ele>
        <time>2021-04-08T11:04:27Z</time>
      </trkpt>
      <trkpt lat="44.46235" lon="6.55126">
        <ele>2126</ele>
        <time>2021-04-08T11:04:28Z</time>
      </trkpt>
      <trkpt lat="44.46235" lon="6.55126">
        <ele>2126</ele>
        <time>2021-04-08T11:04:29Z</time>
      </trkpt>
      <trkpt lat="44.46235" lon="6.55126">
        <ele>2126</ele>
        <time>2021-04-08T11:04:30Z</time>
      </trkpt>
      <trkpt lat="44.46235" lon="6.55126">
        <ele>2126</ele>
        <time>2021-04-08T11:04:31Z</time>
      </trkpt>
      <trkpt lat="44.46235" lon="6.55126">
        <ele>2126</ele>
        <time>2021-04-08T11:04:32Z</time>
      </trkpt>
      <trkpt lat="44.46235" lon="6.55126">
        <ele>2126</ele>
        <time>2021-04-08T11:04:33Z</time>
      </trkpt>
      <trkpt lat="44.46235" lon="6.55126">
        <ele>2126</ele>
        <time>2021-04-08T11:04:34Z</time>
      </trkpt>
      <trkpt lat="44.46235" lon="6.55126">
        <ele>2126</ele>
        <time>2021-04-08T11:04:35Z</time>
      </trkpt>
      <trkpt lat="44.46235" lon="6.55126">
        <ele>2126</ele>
        <time>2021-04-08T11:04:36Z</time>
      </trkpt>
      <trkpt lat="44.46235" lon="6.55126">
        <ele>2126</ele>
        <time>2021-04-08T11:04:37Z</time>
      </trkpt>
      <trkpt lat="44.46235" lon="6.55126">
        <ele>2126</ele>
        <time>2021-04-08T11:04:38Z</time>
      </trkpt>
      <trkpt lat="44.46235" lon="6.55126">
        <ele>2126</ele>
        <time>2021-04-08T11:04:39Z</time>
      </trkpt>
      <trkpt lat="44.46235" lon="6.55126">
        <ele>2126</ele>
        <time>2021-04-08T11:04:40Z</time>
      </trkpt>
      <trkpt lat="44.46235" lon="6.55126">
        <ele>2126</ele>
        <time>2021-04-08T11:04:41Z</time>
      </trkpt>
      <trkpt lat="44.46242" lon="6.55118">
        <ele>2126</ele>
        <time>2021-04-08T11:04:42Z</time>
      </trkpt>
      <trkpt lat="44.46242" lon="6.55118">
        <ele>2127</ele>
        <time>2021-04-08T11:04:43Z</time>
      </trkpt>
      <trkpt lat="44.46241" lon="6.55117">
        <ele>2127</ele>
        <time>2021-04-08T11:04:44Z</time>
      </trkpt>
      <trkpt lat="44.46241" lon="6.55116">
        <ele>2127</ele>
        <time>2021-04-08T11:04:45Z</time>
      </trkpt>
      <trkpt lat="44.46241" lon="6.55116">
        <ele>2127</ele>
        <time>2021-04-08T11:04:46Z</time>
      </trkpt>
      <trkpt lat="44.46241" lon="6.55116">
        <ele>2127</ele>
        <time>2021-04-08T11:04:47Z</time>
      </trkpt>
      <trkpt lat="44.46241" lon="6.55116">
        <ele>2127</ele>
        <time>2021-04-08T11:04:48Z</time>
      </trkpt>
      <trkpt lat="44.46241" lon="6.55116">
        <ele>2127</ele>
        <time>2021-04-08T11:04:49Z</time>
      </trkpt>
      <trkpt lat="44.46241" lon="6.55116">
        <ele>2127</ele>
        <time>2021-04-08T11:04:50Z</time>
      </trkpt>
      <trkpt lat="44.46241" lon="6.55116">
        <ele>2127</ele>
        <time>2021-04-08T11:04:51Z</time>
      </trkpt>
      <trkpt lat="44.46241" lon="6.55116">
        <ele>2127</ele>
        <time>2021-04-08T11:04:52Z</time>
      </trkpt>
      <trkpt lat="44.46241" lon="6.55116">
        <ele>2127</ele>
        <time>2021-04-08T11:04:53Z</time>
      </trkpt>
      <trkpt lat="44.46241" lon="6.55116">
        <ele>2127</ele>
        <time>2021-04-08T11:04:54Z</time>
      </trkpt>
      <trkpt lat="44.46241" lon="6.55116">
        <ele>2127</ele>
        <time>2021-04-08T11:04:55Z</time>
      </trkpt>
      <trkpt lat="44.46241" lon="6.55116">
        <ele>2127</ele>
        <time>2021-04-08T11:04:56Z</time>
      </trkpt>
      <trkpt lat="44.46241" lon="6.55116">
        <ele>2127</ele>
        <time>2021-04-08T11:04:57Z</time>
      </trkpt>
      <trkpt lat="44.46241" lon="6.55116">
        <ele>2127</ele>
        <time>2021-04-08T11:04:58Z</time>
      </trkpt>
      <trkpt lat="44.46241" lon="6.55116">
        <ele>2127</ele>
        <time>2021-04-08T11:04:59Z</time>
      </trkpt>
      <trkpt lat="44.46241" lon="6.55116">
        <ele>2127</ele>
        <time>2021-04-08T11:05:00Z</time>
      </trkpt>
      <trkpt lat="44.46241" lon="6.55116">
        <ele>2127</ele>
        <time>2021-04-08T11:05:01Z</time>
      </trkpt>
      <trkpt lat="44.46241" lon="6.55116">
        <ele>2127</ele>
        <time>2021-04-08T11:05:02Z</time>
      </trkpt>
      <trkpt lat="44.46241" lon="6.55116">
        <ele>2127</ele>
        <time>2021-04-08T11:05:03Z</time>
      </trkpt>
      <trkpt lat="44.46241" lon="6.55116">
        <ele>2127</ele>
        <time>2021-04-08T11:05:04Z</time>
      </trkpt>
      <trkpt lat="44.46241" lon="6.55116">
        <ele>2127</ele>
        <time>2021-04-08T11:05:05Z</time>
      </trkpt>
      <trkpt lat="44.46241" lon="6.55116">
        <ele>2127</ele>
        <time>2021-04-08T11:05:06Z</time>
      </trkpt>
      <trkpt lat="44.46241" lon="6.55116">
        <ele>2127</ele>
        <time>2021-04-08T11:05:07Z</time>
      </trkpt>
      <trkpt lat="44.46241" lon="6.55116">
        <ele>2127</ele>
        <time>2021-04-08T11:05:08Z</time>
      </trkpt>
      <trkpt lat="44.46241" lon="6.55116">
        <ele>2127</ele>
        <time>2021-04-08T11:05:09Z</time>
      </trkpt>
      <trkpt lat="44.46241" lon="6.55116">
        <ele>2127</ele>
        <time>2021-04-08T11:05:10Z</time>
      </trkpt>
      <trkpt lat="44.46241" lon="6.55116">
        <ele>2127</ele>
        <time>2021-04-08T11:05:11Z</time>
      </trkpt>
      <trkpt lat="44.46241" lon="6.55116">
        <ele>2127</ele>
        <time>2021-04-08T11:05:12Z</time>
      </trkpt>
      <trkpt lat="44.46241" lon="6.55116">
        <ele>2127</ele>
        <time>2021-04-08T11:05:13Z</time>
      </trkpt>
      <trkpt lat="44.46241" lon="6.55116">
        <ele>2127</ele>
        <time>2021-04-08T11:05:14Z</time>
      </trkpt>
      <trkpt lat="44.46241" lon="6.55116">
        <ele>2127</ele>
        <time>2021-04-08T11:05:15Z</time>
      </trkpt>
      <trkpt lat="44.46241" lon="6.55116">
        <ele>2127</ele>
        <time>2021-04-08T11:05:16Z</time>
      </trkpt>
      <trkpt lat="44.46241" lon="6.55116">
        <ele>2127</ele>
        <time>2021-04-08T11:05:17Z</time>
      </trkpt>
      <trkpt lat="44.46241" lon="6.55116">
        <ele>2127</ele>
        <time>2021-04-08T11:05:18Z</time>
      </trkpt>
      <trkpt lat="44.46241" lon="6.55116">
        <ele>2127</ele>
        <time>2021-04-08T11:05:19Z</time>
      </trkpt>
      <trkpt lat="44.46241" lon="6.55116">
        <ele>2127</ele>
        <time>2021-04-08T11:05:20Z</time>
      </trkpt>
      <trkpt lat="44.46241" lon="6.55116">
        <ele>2127</ele>
        <time>2021-04-08T11:05:21Z</time>
      </trkpt>
      <trkpt lat="44.46241" lon="6.55116">
        <ele>2127</ele>
        <time>2021-04-08T11:05:22Z</time>
      </trkpt>
      <trkpt lat="44.46241" lon="6.55116">
        <ele>2127</ele>
        <time>2021-04-08T11:05:23Z</time>
      </trkpt>
      <trkpt lat="44.46241" lon="6.55116">
        <ele>2127</ele>
        <time>2021-04-08T11:05:24Z</time>
      </trkpt>
      <trkpt lat="44.46241" lon="6.55116">
        <ele>2127</ele>
        <time>2021-04-08T11:05:25Z</time>
      </trkpt>
      <trkpt lat="44.46241" lon="6.55116">
        <ele>2127</ele>
        <time>2021-04-08T11:05:26Z</time>
      </trkpt>
      <trkpt lat="44.46244" lon="6.55104">
        <ele>2127</ele>
        <time>2021-04-08T11:05:27Z</time>
      </trkpt>
      <trkpt lat="44.46244" lon="6.55104">
        <ele>2127</ele>
        <time>2021-04-08T11:05:28Z</time>
      </trkpt>
      <trkpt lat="44.46243" lon="6.55103">
        <ele>2127</ele>
        <time>2021-04-08T11:05:29Z</time>
      </trkpt>
      <trkpt lat="44.46243" lon="6.55103">
        <ele>2127</ele>
        <time>2021-04-08T11:05:30Z</time>
      </trkpt>
      <trkpt lat="44.46243" lon="6.55103">
        <ele>2127</ele>
        <time>2021-04-08T11:05:31Z</time>
      </trkpt>
      <trkpt lat="44.46243" lon="6.55103">
        <ele>2127</ele>
        <time>2021-04-08T11:05:32Z</time>
      </trkpt>
      <trkpt lat="44.46243" lon="6.55103">
        <ele>2127</ele>
        <time>2021-04-08T11:05:33Z</time>
      </trkpt>
      <trkpt lat="44.46243" lon="6.55103">
        <ele>2127</ele>
        <time>2021-04-08T11:05:34Z</time>
      </trkpt>
      <trkpt lat="44.46243" lon="6.55103">
        <ele>2127</ele>
        <time>2021-04-08T11:05:35Z</time>
      </trkpt>
      <trkpt lat="44.46243" lon="6.55103">
        <ele>2127</ele>
        <time>2021-04-08T11:05:36Z</time>
      </trkpt>
      <trkpt lat="44.46243" lon="6.55103">
        <ele>2127</ele>
        <time>2021-04-08T11:05:37Z</time>
      </trkpt>
      <trkpt lat="44.46243" lon="6.55103">
        <ele>2127</ele>
        <time>2021-04-08T11:05:38Z</time>
      </trkpt>
      <trkpt lat="44.46243" lon="6.55103">
        <ele>2127</ele>
        <time>2021-04-08T11:05:39Z</time>
      </trkpt>
      <trkpt lat="44.46243" lon="6.55103">
        <ele>2127</ele>
        <time>2021-04-08T11:05:40Z</time>
      </trkpt>
      <trkpt lat="44.46243" lon="6.55103">
        <ele>2127</ele>
        <time>2021-04-08T11:05:41Z</time>
      </trkpt>
      <trkpt lat="44.46243" lon="6.55103">
        <ele>2127</ele>
        <time>2021-04-08T11:05:42Z</time>
      </trkpt>
      <trkpt lat="44.46243" lon="6.55103">
        <ele>2127</ele>
        <time>2021-04-08T11:05:43Z</time>
      </trkpt>
      <trkpt lat="44.46243" lon="6.55103">
        <ele>2127</ele>
        <time>2021-04-08T11:05:44Z</time>
      </trkpt>
      <trkpt lat="44.46243" lon="6.55103">
        <ele>2127</ele>
        <time>2021-04-08T11:05:45Z</time>
      </trkpt>
      <trkpt lat="44.46243" lon="6.55103">
        <ele>2127</ele>
        <time>2021-04-08T11:05:46Z</time>
      </trkpt>
      <trkpt lat="44.46243" lon="6.55103">
        <ele>2127</ele>
        <time>2021-04-08T11:05:47Z</time>
      </trkpt>
      <trkpt lat="44.46243" lon="6.55103">
        <ele>2127</ele>
        <time>2021-04-08T11:05:48Z</time>
      </trkpt>
      <trkpt lat="44.46243" lon="6.55103">
        <ele>2127</ele>
        <time>2021-04-08T11:05:49Z</time>
      </trkpt>
      <trkpt lat="44.46243" lon="6.55103">
        <ele>2127</ele>
        <time>2021-04-08T11:05:50Z</time>
      </trkpt>
      <trkpt lat="44.46243" lon="6.55103">
        <ele>2127</ele>
        <time>2021-04-08T11:05:51Z</time>
      </trkpt>
      <trkpt lat="44.46243" lon="6.55103">
        <ele>2127</ele>
        <time>2021-04-08T11:05:52Z</time>
      </trkpt>
      <trkpt lat="44.46243" lon="6.55103">
        <ele>2127</ele>
        <time>2021-04-08T11:05:53Z</time>
      </trkpt>
      <trkpt lat="44.46243" lon="6.55103">
        <ele>2127</ele>
        <time>2021-04-08T11:05:54Z</time>
      </trkpt>
      <trkpt lat="44.46243" lon="6.55103">
        <ele>2127</ele>
        <time>2021-04-08T11:05:55Z</time>
      </trkpt>
      <trkpt lat="44.46243" lon="6.55103">
        <ele>2127</ele>
        <time>2021-04-08T11:05:56Z</time>
      </trkpt>
      <trkpt lat="44.46243" lon="6.55103">
        <ele>2127</ele>
        <time>2021-04-08T11:05:57Z</time>
      </trkpt>
      <trkpt lat="44.46243" lon="6.55103">
        <ele>2127</ele>
        <time>2021-04-08T11:05:58Z</time>
      </trkpt>
      <trkpt lat="44.46243" lon="6.55103">
        <ele>2127</ele>
        <time>2021-04-08T11:05:59Z</time>
      </trkpt>
      <trkpt lat="44.46243" lon="6.55103">
        <ele>2127</ele>
        <time>2021-04-08T11:06:00Z</time>
      </trkpt>
      <trkpt lat="44.46243" lon="6.55103">
        <ele>2127</ele>
        <time>2021-04-08T11:06:01Z</time>
      </trkpt>
      <trkpt lat="44.46243" lon="6.55103">
        <ele>2127</ele>
        <time>2021-04-08T11:06:02Z</time>
      </trkpt>
      <trkpt lat="44.46243" lon="6.55103">
        <ele>2127</ele>
        <time>2021-04-08T11:06:03Z</time>
      </trkpt>
      <trkpt lat="44.46243" lon="6.55103">
        <ele>2127</ele>
        <time>2021-04-08T11:06:04Z</time>
      </trkpt>
      <trkpt lat="44.46243" lon="6.55103">
        <ele>2127</ele>
        <time>2021-04-08T11:06:05Z</time>
      </trkpt>
      <trkpt lat="44.46243" lon="6.55103">
        <ele>2127</ele>
        <time>2021-04-08T11:06:06Z</time>
      </trkpt>
      <trkpt lat="44.46243" lon="6.55103">
        <ele>2127</ele>
        <time>2021-04-08T11:06:07Z</time>
      </trkpt>
      <trkpt lat="44.46243" lon="6.55103">
        <ele>2127</ele>
        <time>2021-04-08T11:06:08Z</time>
      </trkpt>
      <trkpt lat="44.46243" lon="6.55103">
        <ele>2127</ele>
        <time>2021-04-08T11:06:09Z</time>
      </trkpt>
      <trkpt lat="44.46243" lon="6.55103">
        <ele>2127</ele>
        <time>2021-04-08T11:06:10Z</time>
      </trkpt>
      <trkpt lat="44.46243" lon="6.55103">
        <ele>2127</ele>
        <time>2021-04-08T11:06:11Z</time>
      </trkpt>
      <trkpt lat="44.46243" lon="6.55103">
        <ele>2127</ele>
        <time>2021-04-08T11:06:12Z</time>
      </trkpt>
      <trkpt lat="44.46243" lon="6.55103">
        <ele>2127</ele>
        <time>2021-04-08T11:06:13Z</time>
      </trkpt>
      <trkpt lat="44.46243" lon="6.55103">
        <ele>2127</ele>
        <time>2021-04-08T11:06:14Z</time>
      </trkpt>
      <trkpt lat="44.46243" lon="6.55103">
        <ele>2127</ele>
        <time>2021-04-08T11:06:15Z</time>
      </trkpt>
      <trkpt lat="44.46243" lon="6.55103">
        <ele>2127</ele>
        <time>2021-04-08T11:06:16Z</time>
      </trkpt>
      <trkpt lat="44.46243" lon="6.55103">
        <ele>2127</ele>
        <time>2021-04-08T11:06:17Z</time>
      </trkpt>
      <trkpt lat="44.46243" lon="6.55103">
        <ele>2127</ele>
        <time>2021-04-08T11:06:18Z</time>
      </trkpt>
      <trkpt lat="44.46243" lon="6.55103">
        <ele>2127</ele>
        <time>2021-04-08T11:06:19Z</time>
      </trkpt>
      <trkpt lat="44.46243" lon="6.55103">
        <ele>2127</ele>
        <time>2021-04-08T11:06:20Z</time>
      </trkpt>
      <trkpt lat="44.46243" lon="6.55103">
        <ele>2127</ele>
        <time>2021-04-08T11:06:21Z</time>
      </trkpt>
      <trkpt lat="44.46243" lon="6.55103">
        <ele>2127</ele>
        <time>2021-04-08T11:06:22Z</time>
      </trkpt>
      <trkpt lat="44.46243" lon="6.55103">
        <ele>2127</ele>
        <time>2021-04-08T11:06:23Z</time>
      </trkpt>
      <trkpt lat="44.46243" lon="6.55103">
        <ele>2127</ele>
        <time>2021-04-08T11:06:24Z</time>
      </trkpt>
      <trkpt lat="44.46243" lon="6.55103">
        <ele>2127</ele>
        <time>2021-04-08T11:06:25Z</time>
      </trkpt>
      <trkpt lat="44.46243" lon="6.55103">
        <ele>2127</ele>
        <time>2021-04-08T11:06:26Z</time>
      </trkpt>
      <trkpt lat="44.46243" lon="6.55103">
        <ele>2127</ele>
        <time>2021-04-08T11:06:27Z</time>
      </trkpt>
      <trkpt lat="44.46243" lon="6.55103">
        <ele>2127</ele>
        <time>2021-04-08T11:06:28Z</time>
      </trkpt>
      <trkpt lat="44.46243" lon="6.55103">
        <ele>2127</ele>
        <time>2021-04-08T11:06:29Z</time>
      </trkpt>
      <trkpt lat="44.46243" lon="6.55103">
        <ele>2127</ele>
        <time>2021-04-08T11:06:30Z</time>
      </trkpt>
      <trkpt lat="44.46243" lon="6.55103">
        <ele>2127</ele>
        <time>2021-04-08T11:06:31Z</time>
      </trkpt>
      <trkpt lat="44.46243" lon="6.55103">
        <ele>2127</ele>
        <time>2021-04-08T11:06:32Z</time>
      </trkpt>
      <trkpt lat="44.46243" lon="6.55103">
        <ele>2127</ele>
        <time>2021-04-08T11:06:33Z</time>
      </trkpt>
      <trkpt lat="44.46243" lon="6.55103">
        <ele>2127</ele>
        <time>2021-04-08T11:06:34Z</time>
      </trkpt>
      <trkpt lat="44.46243" lon="6.55103">
        <ele>2127</ele>
        <time>2021-04-08T11:06:35Z</time>
      </trkpt>
      <trkpt lat="44.46243" lon="6.55103">
        <ele>2127</ele>
        <time>2021-04-08T11:06:36Z</time>
      </trkpt>
      <trkpt lat="44.46243" lon="6.55103">
        <ele>2127</ele>
        <time>2021-04-08T11:06:37Z</time>
      </trkpt>
      <trkpt lat="44.46243" lon="6.55103">
        <ele>2127</ele>
        <time>2021-04-08T11:06:38Z</time>
      </trkpt>
      <trkpt lat="44.46243" lon="6.55103">
        <ele>2127</ele>
        <time>2021-04-08T11:06:39Z</time>
      </trkpt>
      <trkpt lat="44.46243" lon="6.55103">
        <ele>2127</ele>
        <time>2021-04-08T11:06:40Z</time>
      </trkpt>
      <trkpt lat="44.46243" lon="6.55103">
        <ele>2127</ele>
        <time>2021-04-08T11:06:41Z</time>
      </trkpt>
      <trkpt lat="44.46243" lon="6.55103">
        <ele>2127</ele>
        <time>2021-04-08T11:06:42Z</time>
      </trkpt>
      <trkpt lat="44.46243" lon="6.55103">
        <ele>2127</ele>
        <time>2021-04-08T11:06:43Z</time>
      </trkpt>
      <trkpt lat="44.46243" lon="6.55103">
        <ele>2127</ele>
        <time>2021-04-08T11:06:44Z</time>
      </trkpt>
      <trkpt lat="44.46243" lon="6.55103">
        <ele>2127</ele>
        <time>2021-04-08T11:06:45Z</time>
      </trkpt>
      <trkpt lat="44.46243" lon="6.55103">
        <ele>2127</ele>
        <time>2021-04-08T11:06:46Z</time>
      </trkpt>
      <trkpt lat="44.46243" lon="6.55103">
        <ele>2127</ele>
        <time>2021-04-08T11:06:47Z</time>
      </trkpt>
      <trkpt lat="44.46243" lon="6.55103">
        <ele>2127</ele>
        <time>2021-04-08T11:06:48Z</time>
      </trkpt>
      <trkpt lat="44.46243" lon="6.55103">
        <ele>2127</ele>
        <time>2021-04-08T11:06:49Z</time>
      </trkpt>
      <trkpt lat="44.46243" lon="6.55103">
        <ele>2127</ele>
        <time>2021-04-08T11:06:50Z</time>
      </trkpt>
      <trkpt lat="44.46243" lon="6.55103">
        <ele>2127</ele>
        <time>2021-04-08T11:06:51Z</time>
      </trkpt>
      <trkpt lat="44.46243" lon="6.55103">
        <ele>2127</ele>
        <time>2021-04-08T11:06:52Z</time>
      </trkpt>
      <trkpt lat="44.46243" lon="6.55103">
        <ele>2127</ele>
        <time>2021-04-08T11:06:53Z</time>
      </trkpt>
      <trkpt lat="44.46243" lon="6.55103">
        <ele>2127</ele>
        <time>2021-04-08T11:06:54Z</time>
      </trkpt>
      <trkpt lat="44.46243" lon="6.55103">
        <ele>2127</ele>
        <time>2021-04-08T11:06:55Z</time>
      </trkpt>
      <trkpt lat="44.46243" lon="6.55103">
        <ele>2127</ele>
        <time>2021-04-08T11:06:56Z</time>
      </trkpt>
      <trkpt lat="44.46243" lon="6.55103">
        <ele>2127</ele>
        <time>2021-04-08T11:06:57Z</time>
      </trkpt>
      <trkpt lat="44.46243" lon="6.55103">
        <ele>2127</ele>
        <time>2021-04-08T11:06:58Z</time>
      </trkpt>
      <trkpt lat="44.46243" lon="6.55103">
        <ele>2127</ele>
        <time>2021-04-08T11:06:59Z</time>
      </trkpt>
      <trkpt lat="44.46243" lon="6.55103">
        <ele>2127</ele>
        <time>2021-04-08T11:07:00Z</time>
      </trkpt>
      <trkpt lat="44.46243" lon="6.55103">
        <ele>2127</ele>
        <time>2021-04-08T11:07:01Z</time>
      </trkpt>
      <trkpt lat="44.46243" lon="6.55103">
        <ele>2127</ele>
        <time>2021-04-08T11:07:02Z</time>
      </trkpt>
      <trkpt lat="44.46243" lon="6.55103">
        <ele>2127</ele>
        <time>2021-04-08T11:07:03Z</time>
      </trkpt>
      <trkpt lat="44.46243" lon="6.55103">
        <ele>2127</ele>
        <time>2021-04-08T11:07:04Z</time>
      </trkpt>
      <trkpt lat="44.46243" lon="6.55103">
        <ele>2127</ele>
        <time>2021-04-08T11:07:05Z</time>
      </trkpt>
      <trkpt lat="44.46243" lon="6.55103">
        <ele>2127</ele>
        <time>2021-04-08T11:07:06Z</time>
      </trkpt>
      <trkpt lat="44.46243" lon="6.55103">
        <ele>2127</ele>
        <time>2021-04-08T11:07:07Z</time>
      </trkpt>
      <trkpt lat="44.46243" lon="6.55103">
        <ele>2127</ele>
        <time>2021-04-08T11:07:08Z</time>
      </trkpt>
      <trkpt lat="44.46243" lon="6.55103">
        <ele>2127</ele>
        <time>2021-04-08T11:07:09Z</time>
      </trkpt>
      <trkpt lat="44.46243" lon="6.55103">
        <ele>2127</ele>
        <time>2021-04-08T11:07:10Z</time>
      </trkpt>
      <trkpt lat="44.46243" lon="6.55103">
        <ele>2127</ele>
        <time>2021-04-08T11:07:11Z</time>
      </trkpt>
      <trkpt lat="44.46243" lon="6.55103">
        <ele>2127</ele>
        <time>2021-04-08T11:07:12Z</time>
      </trkpt>
      <trkpt lat="44.46243" lon="6.55103">
        <ele>2127</ele>
        <time>2021-04-08T11:07:13Z</time>
      </trkpt>
      <trkpt lat="44.46243" lon="6.55103">
        <ele>2127</ele>
        <time>2021-04-08T11:07:14Z</time>
      </trkpt>
      <trkpt lat="44.46243" lon="6.55103">
        <ele>2127</ele>
        <time>2021-04-08T11:07:15Z</time>
      </trkpt>
      <trkpt lat="44.46243" lon="6.55103">
        <ele>2127</ele>
        <time>2021-04-08T11:07:16Z</time>
      </trkpt>
      <trkpt lat="44.46243" lon="6.55103">
        <ele>2127</ele>
        <time>2021-04-08T11:07:17Z</time>
      </trkpt>
      <trkpt lat="44.46243" lon="6.55103">
        <ele>2127</ele>
        <time>2021-04-08T11:07:18Z</time>
      </trkpt>
      <trkpt lat="44.46243" lon="6.55103">
        <ele>2127</ele>
        <time>2021-04-08T11:07:19Z</time>
      </trkpt>
      <trkpt lat="44.46243" lon="6.55103">
        <ele>2127</ele>
        <time>2021-04-08T11:07:20Z</time>
      </trkpt>
      <trkpt lat="44.46243" lon="6.55103">
        <ele>2127</ele>
        <time>2021-04-08T11:07:21Z</time>
      </trkpt>
      <trkpt lat="44.46243" lon="6.55103">
        <ele>2127</ele>
        <time>2021-04-08T11:07:22Z</time>
      </trkpt>
      <trkpt lat="44.46243" lon="6.55103">
        <ele>2127</ele>
        <time>2021-04-08T11:07:23Z</time>
      </trkpt>
      <trkpt lat="44.46243" lon="6.55103">
        <ele>2127</ele>
        <time>2021-04-08T11:07:24Z</time>
      </trkpt>
      <trkpt lat="44.46243" lon="6.55103">
        <ele>2127</ele>
        <time>2021-04-08T11:07:25Z</time>
      </trkpt>
      <trkpt lat="44.46243" lon="6.55103">
        <ele>2127</ele>
        <time>2021-04-08T11:07:26Z</time>
      </trkpt>
      <trkpt lat="44.46243" lon="6.55103">
        <ele>2127</ele>
        <time>2021-04-08T11:07:27Z</time>
      </trkpt>
      <trkpt lat="44.46243" lon="6.55103">
        <ele>2127</ele>
        <time>2021-04-08T11:07:28Z</time>
      </trkpt>
      <trkpt lat="44.46243" lon="6.55103">
        <ele>2127</ele>
        <time>2021-04-08T11:07:29Z</time>
      </trkpt>
      <trkpt lat="44.46243" lon="6.55103">
        <ele>2127</ele>
        <time>2021-04-08T11:07:30Z</time>
      </trkpt>
      <trkpt lat="44.46243" lon="6.55103">
        <ele>2127</ele>
        <time>2021-04-08T11:07:31Z</time>
      </trkpt>
      <trkpt lat="44.46243" lon="6.55103">
        <ele>2127</ele>
        <time>2021-04-08T11:07:32Z</time>
      </trkpt>
      <trkpt lat="44.46243" lon="6.55103">
        <ele>2127</ele>
        <time>2021-04-08T11:07:33Z</time>
      </trkpt>
      <trkpt lat="44.46243" lon="6.55103">
        <ele>2127</ele>
        <time>2021-04-08T11:07:34Z</time>
      </trkpt>
      <trkpt lat="44.46243" lon="6.55103">
        <ele>2127</ele>
        <time>2021-04-08T11:07:35Z</time>
      </trkpt>
      <trkpt lat="44.46243" lon="6.55103">
        <ele>2127</ele>
        <time>2021-04-08T11:07:36Z</time>
      </trkpt>
      <trkpt lat="44.46243" lon="6.55103">
        <ele>2127</ele>
        <time>2021-04-08T11:07:37Z</time>
      </trkpt>
      <trkpt lat="44.46243" lon="6.55103">
        <ele>2127</ele>
        <time>2021-04-08T11:07:38Z</time>
      </trkpt>
      <trkpt lat="44.46243" lon="6.55103">
        <ele>2127</ele>
        <time>2021-04-08T11:07:39Z</time>
      </trkpt>
      <trkpt lat="44.46243" lon="6.55103">
        <ele>2127</ele>
        <time>2021-04-08T11:07:40Z</time>
      </trkpt>
      <trkpt lat="44.46243" lon="6.55103">
        <ele>2127</ele>
        <time>2021-04-08T11:07:41Z</time>
      </trkpt>
      <trkpt lat="44.46243" lon="6.55103">
        <ele>2127</ele>
        <time>2021-04-08T11:07:42Z</time>
      </trkpt>
      <trkpt lat="44.46243" lon="6.55103">
        <ele>2127</ele>
        <time>2021-04-08T11:07:43Z</time>
      </trkpt>
      <trkpt lat="44.46243" lon="6.55103">
        <ele>2127</ele>
        <time>2021-04-08T11:07:44Z</time>
      </trkpt>
      <trkpt lat="44.46243" lon="6.55103">
        <ele>2127</ele>
        <time>2021-04-08T11:07:45Z</time>
      </trkpt>
      <trkpt lat="44.46243" lon="6.55103">
        <ele>2127</ele>
        <time>2021-04-08T11:07:46Z</time>
      </trkpt>
      <trkpt lat="44.46243" lon="6.55103">
        <ele>2127</ele>
        <time>2021-04-08T11:07:47Z</time>
      </trkpt>
      <trkpt lat="44.46243" lon="6.55103">
        <ele>2127</ele>
        <time>2021-04-08T11:07:48Z</time>
      </trkpt>
      <trkpt lat="44.46243" lon="6.55103">
        <ele>2127</ele>
        <time>2021-04-08T11:07:49Z</time>
      </trkpt>
      <trkpt lat="44.46243" lon="6.55103">
        <ele>2127</ele>
        <time>2021-04-08T11:07:50Z</time>
      </trkpt>
      <trkpt lat="44.46252" lon="6.55107">
        <ele>2128</ele>
        <time>2021-04-08T11:07:51Z</time>
      </trkpt>
      <trkpt lat="44.46253" lon="6.55108">
        <ele>2128</ele>
        <time>2021-04-08T11:07:52Z</time>
      </trkpt>
      <trkpt lat="44.46255" lon="6.5511">
        <ele>2128</ele>
        <time>2021-04-08T11:07:53Z</time>
      </trkpt>
      <trkpt lat="44.46258" lon="6.55114">
        <ele>2128</ele>
        <time>2021-04-08T11:07:54Z</time>
      </trkpt>
      <trkpt lat="44.4626" lon="6.55118">
        <ele>2128</ele>
        <time>2021-04-08T11:07:55Z</time>
      </trkpt>
      <trkpt lat="44.46263" lon="6.55122">
        <ele>2128</ele>
        <time>2021-04-08T11:07:56Z</time>
      </trkpt>
      <trkpt lat="44.46265" lon="6.55124">
        <ele>2128</ele>
        <time>2021-04-08T11:07:57Z</time>
      </trkpt>
      <trkpt lat="44.46266" lon="6.55125">
        <ele>2128</ele>
        <time>2021-04-08T11:07:58Z</time>
      </trkpt>
      <trkpt lat="44.46267" lon="6.55126">
        <ele>2128</ele>
        <time>2021-04-08T11:07:59Z</time>
      </trkpt>
      <trkpt lat="44.46267" lon="6.55127">
        <ele>2128</ele>
        <time>2021-04-08T11:08:00Z</time>
      </trkpt>
      <trkpt lat="44.46267" lon="6.55128">
        <ele>2128</ele>
        <time>2021-04-08T11:08:01Z</time>
      </trkpt>
      <trkpt lat="44.46267" lon="6.55128">
        <ele>2128</ele>
        <time>2021-04-08T11:08:02Z</time>
      </trkpt>
      <trkpt lat="44.46267" lon="6.55128">
        <ele>2128</ele>
        <time>2021-04-08T11:08:03Z</time>
      </trkpt>
      <trkpt lat="44.46267" lon="6.55128">
        <ele>2128</ele>
        <time>2021-04-08T11:08:04Z</time>
      </trkpt>
      <trkpt lat="44.46267" lon="6.55128">
        <ele>2128</ele>
        <time>2021-04-08T11:08:05Z</time>
      </trkpt>
      <trkpt lat="44.46267" lon="6.55128">
        <ele>2128</ele>
        <time>2021-04-08T11:08:06Z</time>
      </trkpt>
      <trkpt lat="44.46267" lon="6.55128">
        <ele>2128</ele>
        <time>2021-04-08T11:08:07Z</time>
      </trkpt>
      <trkpt lat="44.46267" lon="6.55128">
        <ele>2128</ele>
        <time>2021-04-08T11:08:08Z</time>
      </trkpt>
      <trkpt lat="44.46267" lon="6.55128">
        <ele>2128</ele>
        <time>2021-04-08T11:08:09Z</time>
      </trkpt>
      <trkpt lat="44.46267" lon="6.55128">
        <ele>2128</ele>
        <time>2021-04-08T11:08:10Z</time>
      </trkpt>
      <trkpt lat="44.46267" lon="6.55128">
        <ele>2128</ele>
        <time>2021-04-08T11:08:11Z</time>
      </trkpt>
      <trkpt lat="44.46267" lon="6.55128">
        <ele>2128</ele>
        <time>2021-04-08T11:08:12Z</time>
      </trkpt>
      <trkpt lat="44.46267" lon="6.55128">
        <ele>2128</ele>
        <time>2021-04-08T11:08:13Z</time>
      </trkpt>
      <trkpt lat="44.46267" lon="6.55128">
        <ele>2128</ele>
        <time>2021-04-08T11:08:14Z</time>
      </trkpt>
      <trkpt lat="44.46267" lon="6.55128">
        <ele>2128</ele>
        <time>2021-04-08T11:08:15Z</time>
      </trkpt>
      <trkpt lat="44.46267" lon="6.55128">
        <ele>2128</ele>
        <time>2021-04-08T11:08:16Z</time>
      </trkpt>
      <trkpt lat="44.46267" lon="6.55128">
        <ele>2128</ele>
        <time>2021-04-08T11:08:17Z</time>
      </trkpt>
      <trkpt lat="44.46267" lon="6.55128">
        <ele>2128</ele>
        <time>2021-04-08T11:08:18Z</time>
      </trkpt>
      <trkpt lat="44.46267" lon="6.55128">
        <ele>2128</ele>
        <time>2021-04-08T11:08:19Z</time>
      </trkpt>
      <trkpt lat="44.46267" lon="6.55128">
        <ele>2128</ele>
        <time>2021-04-08T11:08:20Z</time>
      </trkpt>
      <trkpt lat="44.46267" lon="6.55128">
        <ele>2128</ele>
        <time>2021-04-08T11:08:21Z</time>
      </trkpt>
      <trkpt lat="44.46267" lon="6.55128">
        <ele>2128</ele>
        <time>2021-04-08T11:08:22Z</time>
      </trkpt>
      <trkpt lat="44.46267" lon="6.55128">
        <ele>2128</ele>
        <time>2021-04-08T11:08:23Z</time>
      </trkpt>
      <trkpt lat="44.46267" lon="6.55128">
        <ele>2128</ele>
        <time>2021-04-08T11:08:24Z</time>
      </trkpt>
      <trkpt lat="44.46267" lon="6.55128">
        <ele>2128</ele>
        <time>2021-04-08T11:08:25Z</time>
      </trkpt>
      <trkpt lat="44.46267" lon="6.55128">
        <ele>2128</ele>
        <time>2021-04-08T11:08:26Z</time>
      </trkpt>
      <trkpt lat="44.46267" lon="6.55128">
        <ele>2128</ele>
        <time>2021-04-08T11:08:27Z</time>
      </trkpt>
      <trkpt lat="44.46267" lon="6.55128">
        <ele>2128</ele>
        <time>2021-04-08T11:08:28Z</time>
      </trkpt>
      <trkpt lat="44.46267" lon="6.55128">
        <ele>2128</ele>
        <time>2021-04-08T11:08:29Z</time>
      </trkpt>
      <trkpt lat="44.46267" lon="6.55128">
        <ele>2128</ele>
        <time>2021-04-08T11:08:30Z</time>
      </trkpt>
      <trkpt lat="44.46267" lon="6.55128">
        <ele>2128</ele>
        <time>2021-04-08T11:08:31Z</time>
      </trkpt>
      <trkpt lat="44.46267" lon="6.55128">
        <ele>2128</ele>
        <time>2021-04-08T11:08:32Z</time>
      </trkpt>
      <trkpt lat="44.46267" lon="6.55128">
        <ele>2128</ele>
        <time>2021-04-08T11:08:33Z</time>
      </trkpt>
      <trkpt lat="44.46267" lon="6.55128">
        <ele>2128</ele>
        <time>2021-04-08T11:08:34Z</time>
      </trkpt>
      <trkpt lat="44.46268" lon="6.5514">
        <ele>2129</ele>
        <time>2021-04-08T11:08:35Z</time>
      </trkpt>
      <trkpt lat="44.46269" lon="6.55141">
        <ele>2130</ele>
        <time>2021-04-08T11:08:36Z</time>
      </trkpt>
      <trkpt lat="44.46269" lon="6.55141">
        <ele>2130</ele>
        <time>2021-04-08T11:08:37Z</time>
      </trkpt>
      <trkpt lat="44.46269" lon="6.55141">
        <ele>2130</ele>
        <time>2021-04-08T11:08:38Z</time>
      </trkpt>
      <trkpt lat="44.46269" lon="6.55141">
        <ele>2130</ele>
        <time>2021-04-08T11:08:39Z</time>
      </trkpt>
      <trkpt lat="44.46269" lon="6.55141">
        <ele>2130</ele>
        <time>2021-04-08T11:08:40Z</time>
      </trkpt>
      <trkpt lat="44.46269" lon="6.55141">
        <ele>2130</ele>
        <time>2021-04-08T11:08:41Z</time>
      </trkpt>
      <trkpt lat="44.46269" lon="6.55141">
        <ele>2130</ele>
        <time>2021-04-08T11:08:42Z</time>
      </trkpt>
      <trkpt lat="44.46269" lon="6.55141">
        <ele>2130</ele>
        <time>2021-04-08T11:08:43Z</time>
      </trkpt>
      <trkpt lat="44.46269" lon="6.55141">
        <ele>2130</ele>
        <time>2021-04-08T11:08:44Z</time>
      </trkpt>
      <trkpt lat="44.46269" lon="6.55141">
        <ele>2130</ele>
        <time>2021-04-08T11:08:45Z</time>
      </trkpt>
      <trkpt lat="44.46269" lon="6.55141">
        <ele>2130</ele>
        <time>2021-04-08T11:08:46Z</time>
      </trkpt>
      <trkpt lat="44.46269" lon="6.55141">
        <ele>2130</ele>
        <time>2021-04-08T11:08:47Z</time>
      </trkpt>
      <trkpt lat="44.46269" lon="6.55141">
        <ele>2130</ele>
        <time>2021-04-08T11:08:48Z</time>
      </trkpt>
      <trkpt lat="44.46269" lon="6.55141">
        <ele>2130</ele>
        <time>2021-04-08T11:08:49Z</time>
      </trkpt>
      <trkpt lat="44.46269" lon="6.55141">
        <ele>2130</ele>
        <time>2021-04-08T11:08:50Z</time>
      </trkpt>
      <trkpt lat="44.46269" lon="6.55141">
        <ele>2130</ele>
        <time>2021-04-08T11:08:51Z</time>
      </trkpt>
      <trkpt lat="44.46269" lon="6.55141">
        <ele>2130</ele>
        <time>2021-04-08T11:08:52Z</time>
      </trkpt>
      <trkpt lat="44.46269" lon="6.55141">
        <ele>2130</ele>
        <time>2021-04-08T11:08:53Z</time>
      </trkpt>
      <trkpt lat="44.46269" lon="6.55141">
        <ele>2130</ele>
        <time>2021-04-08T11:08:54Z</time>
      </trkpt>
      <trkpt lat="44.46269" lon="6.55141">
        <ele>2130</ele>
        <time>2021-04-08T11:08:55Z</time>
      </trkpt>
      <trkpt lat="44.46269" lon="6.55141">
        <ele>2130</ele>
        <time>2021-04-08T11:08:56Z</time>
      </trkpt>
      <trkpt lat="44.46269" lon="6.55141">
        <ele>2130</ele>
        <time>2021-04-08T11:08:57Z</time>
      </trkpt>
      <trkpt lat="44.46269" lon="6.55141">
        <ele>2130</ele>
        <time>2021-04-08T11:08:58Z</time>
      </trkpt>
      <trkpt lat="44.46269" lon="6.55141">
        <ele>2130</ele>
        <time>2021-04-08T11:08:59Z</time>
      </trkpt>
      <trkpt lat="44.46269" lon="6.55141">
        <ele>2130</ele>
        <time>2021-04-08T11:09:00Z</time>
      </trkpt>
      <trkpt lat="44.46269" lon="6.55141">
        <ele>2130</ele>
        <time>2021-04-08T11:09:01Z</time>
      </trkpt>
      <trkpt lat="44.46269" lon="6.55141">
        <ele>2130</ele>
        <time>2021-04-08T11:09:02Z</time>
      </trkpt>
      <trkpt lat="44.46269" lon="6.55141">
        <ele>2130</ele>
        <time>2021-04-08T11:09:03Z</time>
      </trkpt>
      <trkpt lat="44.46269" lon="6.55141">
        <ele>2130</ele>
        <time>2021-04-08T11:09:04Z</time>
      </trkpt>
      <trkpt lat="44.46269" lon="6.55141">
        <ele>2130</ele>
        <time>2021-04-08T11:09:05Z</time>
      </trkpt>
      <trkpt lat="44.46269" lon="6.55141">
        <ele>2130</ele>
        <time>2021-04-08T11:09:06Z</time>
      </trkpt>
      <trkpt lat="44.46269" lon="6.55141">
        <ele>2130</ele>
        <time>2021-04-08T11:09:07Z</time>
      </trkpt>
      <trkpt lat="44.46269" lon="6.55141">
        <ele>2130</ele>
        <time>2021-04-08T11:09:08Z</time>
      </trkpt>
      <trkpt lat="44.46269" lon="6.55141">
        <ele>2130</ele>
        <time>2021-04-08T11:09:09Z</time>
      </trkpt>
      <trkpt lat="44.46269" lon="6.55141">
        <ele>2130</ele>
        <time>2021-04-08T11:09:10Z</time>
      </trkpt>
      <trkpt lat="44.46269" lon="6.55141">
        <ele>2130</ele>
        <time>2021-04-08T11:09:11Z</time>
      </trkpt>
      <trkpt lat="44.46269" lon="6.55141">
        <ele>2130</ele>
        <time>2021-04-08T11:09:12Z</time>
      </trkpt>
      <trkpt lat="44.46269" lon="6.55141">
        <ele>2130</ele>
        <time>2021-04-08T11:09:13Z</time>
      </trkpt>
      <trkpt lat="44.46269" lon="6.55141">
        <ele>2130</ele>
        <time>2021-04-08T11:09:14Z</time>
      </trkpt>
      <trkpt lat="44.46269" lon="6.55141">
        <ele>2130</ele>
        <time>2021-04-08T11:09:15Z</time>
      </trkpt>
      <trkpt lat="44.46269" lon="6.55141">
        <ele>2130</ele>
        <time>2021-04-08T11:09:16Z</time>
      </trkpt>
      <trkpt lat="44.46269" lon="6.55141">
        <ele>2130</ele>
        <time>2021-04-08T11:09:17Z</time>
      </trkpt>
      <trkpt lat="44.46269" lon="6.55141">
        <ele>2130</ele>
        <time>2021-04-08T11:09:18Z</time>
      </trkpt>
      <trkpt lat="44.46269" lon="6.55141">
        <ele>2130</ele>
        <time>2021-04-08T11:09:19Z</time>
      </trkpt>
      <trkpt lat="44.46269" lon="6.55141">
        <ele>2130</ele>
        <time>2021-04-08T11:09:20Z</time>
      </trkpt>
      <trkpt lat="44.46269" lon="6.55141">
        <ele>2130</ele>
        <time>2021-04-08T11:09:21Z</time>
      </trkpt>
      <trkpt lat="44.46269" lon="6.55141">
        <ele>2130</ele>
        <time>2021-04-08T11:09:22Z</time>
      </trkpt>
      <trkpt lat="44.46269" lon="6.55141">
        <ele>2130</ele>
        <time>2021-04-08T11:09:23Z</time>
      </trkpt>
      <trkpt lat="44.46269" lon="6.55141">
        <ele>2130</ele>
        <time>2021-04-08T11:09:24Z</time>
      </trkpt>
      <trkpt lat="44.46269" lon="6.55141">
        <ele>2130</ele>
        <time>2021-04-08T11:09:25Z</time>
      </trkpt>
      <trkpt lat="44.46269" lon="6.55141">
        <ele>2130</ele>
        <time>2021-04-08T11:09:26Z</time>
      </trkpt>
      <trkpt lat="44.46269" lon="6.55141">
        <ele>2130</ele>
        <time>2021-04-08T11:09:27Z</time>
      </trkpt>
      <trkpt lat="44.46269" lon="6.55141">
        <ele>2130</ele>
        <time>2021-04-08T11:09:28Z</time>
      </trkpt>
      <trkpt lat="44.46269" lon="6.55141">
        <ele>2130</ele>
        <time>2021-04-08T11:09:29Z</time>
      </trkpt>
      <trkpt lat="44.46269" lon="6.55141">
        <ele>2130</ele>
        <time>2021-04-08T11:09:30Z</time>
      </trkpt>
      <trkpt lat="44.46269" lon="6.55141">
        <ele>2130</ele>
        <time>2021-04-08T11:09:31Z</time>
      </trkpt>
      <trkpt lat="44.46269" lon="6.55141">
        <ele>2130</ele>
        <time>2021-04-08T11:09:32Z</time>
      </trkpt>
      <trkpt lat="44.46269" lon="6.55141">
        <ele>2130</ele>
        <time>2021-04-08T11:09:33Z</time>
      </trkpt>
      <trkpt lat="44.46269" lon="6.55141">
        <ele>2130</ele>
        <time>2021-04-08T11:09:34Z</time>
      </trkpt>
      <trkpt lat="44.46269" lon="6.55141">
        <ele>2130</ele>
        <time>2021-04-08T11:09:35Z</time>
      </trkpt>
      <trkpt lat="44.46269" lon="6.55141">
        <ele>2130</ele>
        <time>2021-04-08T11:09:36Z</time>
      </trkpt>
      <trkpt lat="44.46269" lon="6.55141">
        <ele>2130</ele>
        <time>2021-04-08T11:09:37Z</time>
      </trkpt>
      <trkpt lat="44.46269" lon="6.55141">
        <ele>2130</ele>
        <time>2021-04-08T11:09:38Z</time>
      </trkpt>
      <trkpt lat="44.46269" lon="6.55141">
        <ele>2130</ele>
        <time>2021-04-08T11:09:39Z</time>
      </trkpt>
      <trkpt lat="44.46269" lon="6.55141">
        <ele>2130</ele>
        <time>2021-04-08T11:09:40Z</time>
      </trkpt>
      <trkpt lat="44.46269" lon="6.55141">
        <ele>2130</ele>
        <time>2021-04-08T11:09:41Z</time>
      </trkpt>
      <trkpt lat="44.46269" lon="6.55141">
        <ele>2130</ele>
        <time>2021-04-08T11:09:42Z</time>
      </trkpt>
      <trkpt lat="44.46269" lon="6.55141">
        <ele>2130</ele>
        <time>2021-04-08T11:09:43Z</time>
      </trkpt>
      <trkpt lat="44.46269" lon="6.55141">
        <ele>2130</ele>
        <time>2021-04-08T11:09:44Z</time>
      </trkpt>
      <trkpt lat="44.46269" lon="6.55141">
        <ele>2130</ele>
        <time>2021-04-08T11:09:45Z</time>
      </trkpt>
      <trkpt lat="44.46269" lon="6.55141">
        <ele>2130</ele>
        <time>2021-04-08T11:09:46Z</time>
      </trkpt>
      <trkpt lat="44.46269" lon="6.55141">
        <ele>2130</ele>
        <time>2021-04-08T11:09:47Z</time>
      </trkpt>
      <trkpt lat="44.46269" lon="6.55141">
        <ele>2130</ele>
        <time>2021-04-08T11:09:48Z</time>
      </trkpt>
      <trkpt lat="44.46269" lon="6.55141">
        <ele>2130</ele>
        <time>2021-04-08T11:09:49Z</time>
      </trkpt>
      <trkpt lat="44.46269" lon="6.55141">
        <ele>2130</ele>
        <time>2021-04-08T11:09:50Z</time>
      </trkpt>
      <trkpt lat="44.46269" lon="6.55141">
        <ele>2130</ele>
        <time>2021-04-08T11:09:51Z</time>
      </trkpt>
      <trkpt lat="44.46269" lon="6.55141">
        <ele>2130</ele>
        <time>2021-04-08T11:09:52Z</time>
      </trkpt>
      <trkpt lat="44.46269" lon="6.55141">
        <ele>2130</ele>
        <time>2021-04-08T11:09:53Z</time>
      </trkpt>
      <trkpt lat="44.46269" lon="6.55141">
        <ele>2130</ele>
        <time>2021-04-08T11:09:54Z</time>
      </trkpt>
      <trkpt lat="44.46269" lon="6.55141">
        <ele>2130</ele>
        <time>2021-04-08T11:09:55Z</time>
      </trkpt>
      <trkpt lat="44.46269" lon="6.55141">
        <ele>2130</ele>
        <time>2021-04-08T11:09:56Z</time>
      </trkpt>
      <trkpt lat="44.46269" lon="6.55141">
        <ele>2130</ele>
        <time>2021-04-08T11:09:57Z</time>
      </trkpt>
      <trkpt lat="44.46269" lon="6.55141">
        <ele>2130</ele>
        <time>2021-04-08T11:09:58Z</time>
      </trkpt>
      <trkpt lat="44.46269" lon="6.55141">
        <ele>2130</ele>
        <time>2021-04-08T11:09:59Z</time>
      </trkpt>
      <trkpt lat="44.46269" lon="6.55141">
        <ele>2130</ele>
        <time>2021-04-08T11:10:00Z</time>
      </trkpt>
      <trkpt lat="44.46269" lon="6.55141">
        <ele>2130</ele>
        <time>2021-04-08T11:10:01Z</time>
      </trkpt>
      <trkpt lat="44.46269" lon="6.55141">
        <ele>2130</ele>
        <time>2021-04-08T11:10:02Z</time>
      </trkpt>
      <trkpt lat="44.46269" lon="6.55141">
        <ele>2130</ele>
        <time>2021-04-08T11:10:03Z</time>
      </trkpt>
      <trkpt lat="44.46269" lon="6.55141">
        <ele>2130</ele>
        <time>2021-04-08T11:10:04Z</time>
      </trkpt>
      <trkpt lat="44.46265" lon="6.5513">
        <ele>2130</ele>
        <time>2021-04-08T11:10:05Z</time>
      </trkpt>
      <trkpt lat="44.46265" lon="6.55127">
        <ele>2130</ele>
        <time>2021-04-08T11:10:06Z</time>
      </trkpt>
      <trkpt lat="44.46265" lon="6.55124">
        <ele>2129</ele>
        <time>2021-04-08T11:10:07Z</time>
      </trkpt>
      <trkpt lat="44.46264" lon="6.55121">
        <ele>2129</ele>
        <time>2021-04-08T11:10:08Z</time>
      </trkpt>
      <trkpt lat="44.46262" lon="6.55117">
        <ele>2129</ele>
        <time>2021-04-08T11:10:09Z</time>
      </trkpt>
      <trkpt lat="44.46259" lon="6.55113">
        <ele>2129</ele>
        <time>2021-04-08T11:10:10Z</time>
      </trkpt>
      <trkpt lat="44.46256" lon="6.5511">
        <ele>2128</ele>
        <time>2021-04-08T11:10:11Z</time>
      </trkpt>
      <trkpt lat="44.46254" lon="6.55108">
        <ele>2128</ele>
        <time>2021-04-08T11:10:12Z</time>
      </trkpt>
      <trkpt lat="44.46253" lon="6.55107">
        <ele>2128</ele>
        <time>2021-04-08T11:10:13Z</time>
      </trkpt>
      <trkpt lat="44.46253" lon="6.55106">
        <ele>2128</ele>
        <time>2021-04-08T11:10:14Z</time>
      </trkpt>
      <trkpt lat="44.46253" lon="6.55106">
        <ele>2128</ele>
        <time>2021-04-08T11:10:15Z</time>
      </trkpt>
      <trkpt lat="44.46253" lon="6.55106">
        <ele>2128</ele>
        <time>2021-04-08T11:10:16Z</time>
      </trkpt>
      <trkpt lat="44.46253" lon="6.55106">
        <ele>2128</ele>
        <time>2021-04-08T11:10:17Z</time>
      </trkpt>
      <trkpt lat="44.46253" lon="6.55106">
        <ele>2128</ele>
        <time>2021-04-08T11:10:18Z</time>
      </trkpt>
      <trkpt lat="44.46253" lon="6.55106">
        <ele>2128</ele>
        <time>2021-04-08T11:10:19Z</time>
      </trkpt>
      <trkpt lat="44.46253" lon="6.55106">
        <ele>2128</ele>
        <time>2021-04-08T11:10:20Z</time>
      </trkpt>
      <trkpt lat="44.46253" lon="6.55106">
        <ele>2128</ele>
        <time>2021-04-08T11:10:21Z</time>
      </trkpt>
      <trkpt lat="44.46253" lon="6.55106">
        <ele>2128</ele>
        <time>2021-04-08T11:10:22Z</time>
      </trkpt>
      <trkpt lat="44.46253" lon="6.55106">
        <ele>2128</ele>
        <time>2021-04-08T11:10:23Z</time>
      </trkpt>
      <trkpt lat="44.46253" lon="6.55106">
        <ele>2128</ele>
        <time>2021-04-08T11:10:24Z</time>
      </trkpt>
      <trkpt lat="44.46252" lon="6.55101">
        <ele>2126</ele>
        <time>2021-04-08T11:10:25Z</time>
      </trkpt>
      <trkpt lat="44.46251" lon="6.55097">
        <ele>2126</ele>
        <time>2021-04-08T11:10:26Z</time>
      </trkpt>
      <trkpt lat="44.46249" lon="6.55093">
        <ele>2125</ele>
        <time>2021-04-08T11:10:27Z</time>
      </trkpt>
      <trkpt lat="44.46248" lon="6.55089">
        <ele>2125</ele>
        <time>2021-04-08T11:10:28Z</time>
      </trkpt>
      <trkpt lat="44.46247" lon="6.55086">
        <ele>2125</ele>
        <time>2021-04-08T11:10:29Z</time>
      </trkpt>
      <trkpt lat="44.46246" lon="6.55084">
        <ele>2125</ele>
        <time>2021-04-08T11:10:30Z</time>
      </trkpt>
      <trkpt lat="44.46245" lon="6.55082">
        <ele>2125</ele>
        <time>2021-04-08T11:10:31Z</time>
      </trkpt>
      <trkpt lat="44.46244" lon="6.55081">
        <ele>2125</ele>
        <time>2021-04-08T11:10:32Z</time>
      </trkpt>
      <trkpt lat="44.46243" lon="6.5508">
        <ele>2125</ele>
        <time>2021-04-08T11:10:33Z</time>
      </trkpt>
      <trkpt lat="44.46243" lon="6.55079">
        <ele>2125</ele>
        <time>2021-04-08T11:10:34Z</time>
      </trkpt>
      <trkpt lat="44.46243" lon="6.55079">
        <ele>2125</ele>
        <time>2021-04-08T11:10:35Z</time>
      </trkpt>
      <trkpt lat="44.46243" lon="6.55079">
        <ele>2125</ele>
        <time>2021-04-08T11:10:36Z</time>
      </trkpt>
      <trkpt lat="44.46243" lon="6.55079">
        <ele>2125</ele>
        <time>2021-04-08T11:10:37Z</time>
      </trkpt>
      <trkpt lat="44.46243" lon="6.55075">
        <ele>2126</ele>
        <time>2021-04-08T11:10:38Z</time>
      </trkpt>
      <trkpt lat="44.46242" lon="6.55072">
        <ele>2126</ele>
        <time>2021-04-08T11:10:39Z</time>
      </trkpt>
      <trkpt lat="44.46242" lon="6.55069">
        <ele>2126</ele>
        <time>2021-04-08T11:10:40Z</time>
      </trkpt>
      <trkpt lat="44.46241" lon="6.55067">
        <ele>2126</ele>
        <time>2021-04-08T11:10:41Z</time>
      </trkpt>
      <trkpt lat="44.4624" lon="6.55066">
        <ele>2126</ele>
        <time>2021-04-08T11:10:42Z</time>
      </trkpt>
      <trkpt lat="44.4624" lon="6.55064">
        <ele>2126</ele>
        <time>2021-04-08T11:10:43Z</time>
      </trkpt>
      <trkpt lat="44.46239" lon="6.55062">
        <ele>2126</ele>
        <time>2021-04-08T11:10:44Z</time>
      </trkpt>
      <trkpt lat="44.46239" lon="6.5506">
        <ele>2126</ele>
        <time>2021-04-08T11:10:45Z</time>
      </trkpt>
      <trkpt lat="44.46238" lon="6.55057">
        <ele>2125</ele>
        <time>2021-04-08T11:10:46Z</time>
      </trkpt>
      <trkpt lat="44.46239" lon="6.55054">
        <ele>2125</ele>
        <time>2021-04-08T11:10:47Z</time>
      </trkpt>
      <trkpt lat="44.46238" lon="6.55051">
        <ele>2125</ele>
        <time>2021-04-08T11:10:48Z</time>
      </trkpt>
      <trkpt lat="44.46238" lon="6.55047">
        <ele>2124</ele>
        <time>2021-04-08T11:10:49Z</time>
      </trkpt>
      <trkpt lat="44.46237" lon="6.55044">
        <ele>2124</ele>
        <time>2021-04-08T11:10:50Z</time>
      </trkpt>
      <trkpt lat="44.46237" lon="6.55042">
        <ele>2124</ele>
        <time>2021-04-08T11:10:51Z</time>
      </trkpt>
      <trkpt lat="44.46238" lon="6.55042">
        <ele>2124</ele>
        <time>2021-04-08T11:10:52Z</time>
      </trkpt>
      <trkpt lat="44.4624" lon="6.55043">
        <ele>2124</ele>
        <time>2021-04-08T11:10:53Z</time>
      </trkpt>
      <trkpt lat="44.46241" lon="6.55042">
        <ele>2123</ele>
        <time>2021-04-08T11:10:54Z</time>
      </trkpt>
      <trkpt lat="44.46242" lon="6.55038">
        <ele>2122</ele>
        <time>2021-04-08T11:10:55Z</time>
      </trkpt>
      <trkpt lat="44.46241" lon="6.55033">
        <ele>2122</ele>
        <time>2021-04-08T11:10:56Z</time>
      </trkpt>
      <trkpt lat="44.4624" lon="6.55028">
        <ele>2121</ele>
        <time>2021-04-08T11:10:57Z</time>
      </trkpt>
      <trkpt lat="44.4624" lon="6.55024">
        <ele>2119</ele>
        <time>2021-04-08T11:10:58Z</time>
      </trkpt>
      <trkpt lat="44.46239" lon="6.55022">
        <ele>2119</ele>
        <time>2021-04-08T11:10:59Z</time>
      </trkpt>
      <trkpt lat="44.46239" lon="6.55022">
        <ele>2118</ele>
        <time>2021-04-08T11:11:00Z</time>
      </trkpt>
      <trkpt lat="44.4624" lon="6.55023">
        <ele>2117</ele>
        <time>2021-04-08T11:11:01Z</time>
      </trkpt>
      <trkpt lat="44.4624" lon="6.55023">
        <ele>2117</ele>
        <time>2021-04-08T11:11:02Z</time>
      </trkpt>
      <trkpt lat="44.4624" lon="6.55023">
        <ele>2117</ele>
        <time>2021-04-08T11:11:03Z</time>
      </trkpt>
      <trkpt lat="44.4624" lon="6.55023">
        <ele>2117</ele>
        <time>2021-04-08T11:11:04Z</time>
      </trkpt>
      <trkpt lat="44.46241" lon="6.55018">
        <ele>2116</ele>
        <time>2021-04-08T11:11:05Z</time>
      </trkpt>
      <trkpt lat="44.46242" lon="6.55016">
        <ele>2116</ele>
        <time>2021-04-08T11:11:06Z</time>
      </trkpt>
      <trkpt lat="44.46243" lon="6.55014">
        <ele>2115</ele>
        <time>2021-04-08T11:11:07Z</time>
      </trkpt>
      <trkpt lat="44.46245" lon="6.55009">
        <ele>2115</ele>
        <time>2021-04-08T11:11:08Z</time>
      </trkpt>
      <trkpt lat="44.46246" lon="6.55004">
        <ele>2114</ele>
        <time>2021-04-08T11:11:09Z</time>
      </trkpt>
      <trkpt lat="44.46247" lon="6.54999">
        <ele>2114</ele>
        <time>2021-04-08T11:11:10Z</time>
      </trkpt>
      <trkpt lat="44.46248" lon="6.54997">
        <ele>2113</ele>
        <time>2021-04-08T11:11:11Z</time>
      </trkpt>
      <trkpt lat="44.4625" lon="6.54997">
        <ele>2113</ele>
        <time>2021-04-08T11:11:12Z</time>
      </trkpt>
      <trkpt lat="44.4625" lon="6.54998">
        <ele>2112</ele>
        <time>2021-04-08T11:11:13Z</time>
      </trkpt>
      <trkpt lat="44.4625" lon="6.54998">
        <ele>2112</ele>
        <time>2021-04-08T11:11:14Z</time>
      </trkpt>
      <trkpt lat="44.4625" lon="6.54998">
        <ele>2112</ele>
        <time>2021-04-08T11:11:15Z</time>
      </trkpt>
      <trkpt lat="44.4625" lon="6.54998">
        <ele>2112</ele>
        <time>2021-04-08T11:11:16Z</time>
      </trkpt>
      <trkpt lat="44.4625" lon="6.54998">
        <ele>2112</ele>
        <time>2021-04-08T11:11:17Z</time>
      </trkpt>
      <trkpt lat="44.4625" lon="6.55004">
        <ele>2110</ele>
        <time>2021-04-08T11:11:18Z</time>
      </trkpt>
      <trkpt lat="44.4625" lon="6.55007">
        <ele>2110</ele>
        <time>2021-04-08T11:11:19Z</time>
      </trkpt>
      <trkpt lat="44.4625" lon="6.55009">
        <ele>2109</ele>
        <time>2021-04-08T11:11:20Z</time>
      </trkpt>
      <trkpt lat="44.4625" lon="6.55011">
        <ele>2108</ele>
        <time>2021-04-08T11:11:21Z</time>
      </trkpt>
      <trkpt lat="44.4625" lon="6.55013">
        <ele>2108</ele>
        <time>2021-04-08T11:11:22Z</time>
      </trkpt>
      <trkpt lat="44.4625" lon="6.55015">
        <ele>2107</ele>
        <time>2021-04-08T11:11:23Z</time>
      </trkpt>
      <trkpt lat="44.4625" lon="6.55016">
        <ele>2107</ele>
        <time>2021-04-08T11:11:24Z</time>
      </trkpt>
      <trkpt lat="44.4625" lon="6.55018">
        <ele>2106</ele>
        <time>2021-04-08T11:11:25Z</time>
      </trkpt>
      <trkpt lat="44.4625" lon="6.55018">
        <ele>2106</ele>
        <time>2021-04-08T11:11:26Z</time>
      </trkpt>
      <trkpt lat="44.4625" lon="6.55018">
        <ele>2106</ele>
        <time>2021-04-08T11:11:27Z</time>
      </trkpt>
      <trkpt lat="44.4625" lon="6.55018">
        <ele>2106</ele>
        <time>2021-04-08T11:11:28Z</time>
      </trkpt>
      <trkpt lat="44.4625" lon="6.55018">
        <ele>2106</ele>
        <time>2021-04-08T11:11:29Z</time>
      </trkpt>
      <trkpt lat="44.4625" lon="6.55018">
        <ele>2106</ele>
        <time>2021-04-08T11:11:30Z</time>
      </trkpt>
      <trkpt lat="44.4625" lon="6.55018">
        <ele>2106</ele>
        <time>2021-04-08T11:11:31Z</time>
      </trkpt>
      <trkpt lat="44.4625" lon="6.55018">
        <ele>2106</ele>
        <time>2021-04-08T11:11:32Z</time>
      </trkpt>
      <trkpt lat="44.4625" lon="6.55018">
        <ele>2106</ele>
        <time>2021-04-08T11:11:33Z</time>
      </trkpt>
      <trkpt lat="44.4625" lon="6.55018">
        <ele>2106</ele>
        <time>2021-04-08T11:11:34Z</time>
      </trkpt>
      <trkpt lat="44.4625" lon="6.55018">
        <ele>2106</ele>
        <time>2021-04-08T11:11:35Z</time>
      </trkpt>
      <trkpt lat="44.4625" lon="6.55018">
        <ele>2106</ele>
        <time>2021-04-08T11:11:36Z</time>
      </trkpt>
      <trkpt lat="44.4625" lon="6.55018">
        <ele>2106</ele>
        <time>2021-04-08T11:11:37Z</time>
      </trkpt>
      <trkpt lat="44.4625" lon="6.55018">
        <ele>2106</ele>
        <time>2021-04-08T11:11:38Z</time>
      </trkpt>
      <trkpt lat="44.4625" lon="6.55018">
        <ele>2106</ele>
        <time>2021-04-08T11:11:39Z</time>
      </trkpt>
      <trkpt lat="44.4625" lon="6.55018">
        <ele>2106</ele>
        <time>2021-04-08T11:11:40Z</time>
      </trkpt>
      <trkpt lat="44.46259" lon="6.5501">
        <ele>2105</ele>
        <time>2021-04-08T11:11:41Z</time>
      </trkpt>
      <trkpt lat="44.4626" lon="6.55006">
        <ele>2104</ele>
        <time>2021-04-08T11:11:42Z</time>
      </trkpt>
      <trkpt lat="44.46262" lon="6.55005">
        <ele>2103</ele>
        <time>2021-04-08T11:11:43Z</time>
      </trkpt>
      <trkpt lat="44.46263" lon="6.55005">
        <ele>2102</ele>
        <time>2021-04-08T11:11:44Z</time>
      </trkpt>
      <trkpt lat="44.46264" lon="6.55007">
        <ele>2102</ele>
        <time>2021-04-08T11:11:45Z</time>
      </trkpt>
      <trkpt lat="44.46264" lon="6.55007">
        <ele>2101</ele>
        <time>2021-04-08T11:11:46Z</time>
      </trkpt>
      <trkpt lat="44.46264" lon="6.55007">
        <ele>2101</ele>
        <time>2021-04-08T11:11:47Z</time>
      </trkpt>
      <trkpt lat="44.46264" lon="6.55007">
        <ele>2101</ele>
        <time>2021-04-08T11:11:48Z</time>
      </trkpt>
      <trkpt lat="44.46264" lon="6.55007">
        <ele>2101</ele>
        <time>2021-04-08T11:11:49Z</time>
      </trkpt>
      <trkpt lat="44.46264" lon="6.55007">
        <ele>2101</ele>
        <time>2021-04-08T11:11:50Z</time>
      </trkpt>
      <trkpt lat="44.46264" lon="6.55007">
        <ele>2101</ele>
        <time>2021-04-08T11:11:51Z</time>
      </trkpt>
      <trkpt lat="44.46264" lon="6.55007">
        <ele>2101</ele>
        <time>2021-04-08T11:11:52Z</time>
      </trkpt>
      <trkpt lat="44.46264" lon="6.55007">
        <ele>2101</ele>
        <time>2021-04-08T11:11:53Z</time>
      </trkpt>
      <trkpt lat="44.46264" lon="6.55007">
        <ele>2100</ele>
        <time>2021-04-08T11:11:54Z</time>
      </trkpt>
      <trkpt lat="44.46264" lon="6.55007">
        <ele>2100</ele>
        <time>2021-04-08T11:11:55Z</time>
      </trkpt>
      <trkpt lat="44.46264" lon="6.55007">
        <ele>2100</ele>
        <time>2021-04-08T11:11:56Z</time>
      </trkpt>
      <trkpt lat="44.46264" lon="6.55007">
        <ele>2100</ele>
        <time>2021-04-08T11:11:57Z</time>
      </trkpt>
      <trkpt lat="44.46264" lon="6.55007">
        <ele>2100</ele>
        <time>2021-04-08T11:11:58Z</time>
      </trkpt>
      <trkpt lat="44.46262" lon="6.55019">
        <ele>2101</ele>
        <time>2021-04-08T11:11:59Z</time>
      </trkpt>
      <trkpt lat="44.46262" lon="6.55019">
        <ele>2101</ele>
        <time>2021-04-08T11:12:00Z</time>
      </trkpt>
      <trkpt lat="44.46264" lon="6.55021">
        <ele>2102</ele>
        <time>2021-04-08T11:12:01Z</time>
      </trkpt>
      <trkpt lat="44.46265" lon="6.55023">
        <ele>2105</ele>
        <time>2021-04-08T11:12:02Z</time>
      </trkpt>
      <trkpt lat="44.46265" lon="6.55023">
        <ele>2105</ele>
        <time>2021-04-08T11:12:03Z</time>
      </trkpt>
      <trkpt lat="44.46265" lon="6.55023">
        <ele>2106</ele>
        <time>2021-04-08T11:12:04Z</time>
      </trkpt>
      <trkpt lat="44.46265" lon="6.55023">
        <ele>2106</ele>
        <time>2021-04-08T11:12:05Z</time>
      </trkpt>
      <trkpt lat="44.46265" lon="6.55023">
        <ele>2106</ele>
        <time>2021-04-08T11:12:06Z</time>
      </trkpt>
      <trkpt lat="44.46265" lon="6.55023">
        <ele>2106</ele>
        <time>2021-04-08T11:12:07Z</time>
      </trkpt>
      <trkpt lat="44.46265" lon="6.55023">
        <ele>2106</ele>
        <time>2021-04-08T11:12:08Z</time>
      </trkpt>
      <trkpt lat="44.46265" lon="6.55023">
        <ele>2106</ele>
        <time>2021-04-08T11:12:09Z</time>
      </trkpt>
      <trkpt lat="44.46265" lon="6.55023">
        <ele>2106</ele>
        <time>2021-04-08T11:12:10Z</time>
      </trkpt>
      <trkpt lat="44.46265" lon="6.55023">
        <ele>2106</ele>
        <time>2021-04-08T11:12:11Z</time>
      </trkpt>
      <trkpt lat="44.46265" lon="6.55023">
        <ele>2106</ele>
        <time>2021-04-08T11:12:12Z</time>
      </trkpt>
      <trkpt lat="44.46265" lon="6.55023">
        <ele>2106</ele>
        <time>2021-04-08T11:12:13Z</time>
      </trkpt>
      <trkpt lat="44.46265" lon="6.55023">
        <ele>2107</ele>
        <time>2021-04-08T11:12:14Z</time>
      </trkpt>
      <trkpt lat="44.46265" lon="6.55023">
        <ele>2107</ele>
        <time>2021-04-08T11:12:15Z</time>
      </trkpt>
      <trkpt lat="44.46265" lon="6.55023">
        <ele>2107</ele>
        <time>2021-04-08T11:12:16Z</time>
      </trkpt>
      <trkpt lat="44.46265" lon="6.55023">
        <ele>2107</ele>
        <time>2021-04-08T11:12:17Z</time>
      </trkpt>
      <trkpt lat="44.46265" lon="6.55023">
        <ele>2107</ele>
        <time>2021-04-08T11:12:18Z</time>
      </trkpt>
      <trkpt lat="44.46265" lon="6.55023">
        <ele>2107</ele>
        <time>2021-04-08T11:12:19Z</time>
      </trkpt>
      <trkpt lat="44.46265" lon="6.55023">
        <ele>2107</ele>
        <time>2021-04-08T11:12:20Z</time>
      </trkpt>
      <trkpt lat="44.46265" lon="6.55023">
        <ele>2107</ele>
        <time>2021-04-08T11:12:21Z</time>
      </trkpt>
      <trkpt lat="44.46265" lon="6.55023">
        <ele>2107</ele>
        <time>2021-04-08T11:12:22Z</time>
      </trkpt>
      <trkpt lat="44.46265" lon="6.55023">
        <ele>2107</ele>
        <time>2021-04-08T11:12:23Z</time>
      </trkpt>
      <trkpt lat="44.46265" lon="6.55023">
        <ele>2107</ele>
        <time>2021-04-08T11:12:24Z</time>
      </trkpt>
      <trkpt lat="44.46265" lon="6.55023">
        <ele>2107</ele>
        <time>2021-04-08T11:12:25Z</time>
      </trkpt>
      <trkpt lat="44.46265" lon="6.55023">
        <ele>2107</ele>
        <time>2021-04-08T11:12:26Z</time>
      </trkpt>
      <trkpt lat="44.46265" lon="6.55023">
        <ele>2107</ele>
        <time>2021-04-08T11:12:27Z</time>
      </trkpt>
      <trkpt lat="44.46265" lon="6.55023">
        <ele>2107</ele>
        <time>2021-04-08T11:12:28Z</time>
      </trkpt>
      <trkpt lat="44.46265" lon="6.55023">
        <ele>2107</ele>
        <time>2021-04-08T11:12:29Z</time>
      </trkpt>
      <trkpt lat="44.46265" lon="6.55023">
        <ele>2107</ele>
        <time>2021-04-08T11:12:30Z</time>
      </trkpt>
      <trkpt lat="44.46265" lon="6.55023">
        <ele>2107</ele>
        <time>2021-04-08T11:12:31Z</time>
      </trkpt>
      <trkpt lat="44.46265" lon="6.55023">
        <ele>2107</ele>
        <time>2021-04-08T11:12:32Z</time>
      </trkpt>
      <trkpt lat="44.46265" lon="6.55023">
        <ele>2107</ele>
        <time>2021-04-08T11:12:33Z</time>
      </trkpt>
      <trkpt lat="44.46265" lon="6.55023">
        <ele>2107</ele>
        <time>2021-04-08T11:12:34Z</time>
      </trkpt>
      <trkpt lat="44.46265" lon="6.55023">
        <ele>2107</ele>
        <time>2021-04-08T11:12:35Z</time>
      </trkpt>
      <trkpt lat="44.46265" lon="6.55023">
        <ele>2107</ele>
        <time>2021-04-08T11:12:36Z</time>
      </trkpt>
      <trkpt lat="44.46265" lon="6.55023">
        <ele>2107</ele>
        <time>2021-04-08T11:12:37Z</time>
      </trkpt>
      <trkpt lat="44.46265" lon="6.55023">
        <ele>2107</ele>
        <time>2021-04-08T11:12:38Z</time>
      </trkpt>
      <trkpt lat="44.46265" lon="6.55023">
        <ele>2107</ele>
        <time>2021-04-08T11:12:39Z</time>
      </trkpt>
      <trkpt lat="44.46265" lon="6.55023">
        <ele>2107</ele>
        <time>2021-04-08T11:12:40Z</time>
      </trkpt>
      <trkpt lat="44.46265" lon="6.55023">
        <ele>2107</ele>
        <time>2021-04-08T11:12:41Z</time>
      </trkpt>
      <trkpt lat="44.46265" lon="6.55023">
        <ele>2107</ele>
        <time>2021-04-08T11:12:42Z</time>
      </trkpt>
      <trkpt lat="44.46265" lon="6.55023">
        <ele>2107</ele>
        <time>2021-04-08T11:12:43Z</time>
      </trkpt>
      <trkpt lat="44.46265" lon="6.55023">
        <ele>2107</ele>
        <time>2021-04-08T11:12:44Z</time>
      </trkpt>
      <trkpt lat="44.46265" lon="6.55023">
        <ele>2107</ele>
        <time>2021-04-08T11:12:45Z</time>
      </trkpt>
      <trkpt lat="44.46265" lon="6.55023">
        <ele>2107</ele>
        <time>2021-04-08T11:12:46Z</time>
      </trkpt>
      <trkpt lat="44.46265" lon="6.55023">
        <ele>2107</ele>
        <time>2021-04-08T11:12:47Z</time>
      </trkpt>
      <trkpt lat="44.46265" lon="6.55023">
        <ele>2107</ele>
        <time>2021-04-08T11:12:48Z</time>
      </trkpt>
      <trkpt lat="44.46265" lon="6.55023">
        <ele>2107</ele>
        <time>2021-04-08T11:12:49Z</time>
      </trkpt>
      <trkpt lat="44.46265" lon="6.55023">
        <ele>2107</ele>
        <time>2021-04-08T11:12:50Z</time>
      </trkpt>
      <trkpt lat="44.46274" lon="6.5502">
        <ele>2106</ele>
        <time>2021-04-08T11:12:51Z</time>
      </trkpt>
      <trkpt lat="44.46274" lon="6.5502">
        <ele>2106</ele>
        <time>2021-04-08T11:12:52Z</time>
      </trkpt>
      <trkpt lat="44.46275" lon="6.5502">
        <ele>2106</ele>
        <time>2021-04-08T11:12:53Z</time>
      </trkpt>
      <trkpt lat="44.46275" lon="6.5502">
        <ele>2106</ele>
        <time>2021-04-08T11:12:54Z</time>
      </trkpt>
      <trkpt lat="44.46275" lon="6.5502">
        <ele>2106</ele>
        <time>2021-04-08T11:12:55Z</time>
      </trkpt>
      <trkpt lat="44.46275" lon="6.5502">
        <ele>2106</ele>
        <time>2021-04-08T11:12:56Z</time>
      </trkpt>
      <trkpt lat="44.46275" lon="6.5502">
        <ele>2106</ele>
        <time>2021-04-08T11:12:57Z</time>
      </trkpt>
      <trkpt lat="44.46278" lon="6.55014">
        <ele>2106</ele>
        <time>2021-04-08T11:12:58Z</time>
      </trkpt>
      <trkpt lat="44.46279" lon="6.55011">
        <ele>2105</ele>
        <time>2021-04-08T11:12:59Z</time>
      </trkpt>
      <trkpt lat="44.46281" lon="6.55008">
        <ele>2104</ele>
        <time>2021-04-08T11:13:00Z</time>
      </trkpt>
      <trkpt lat="44.46283" lon="6.55005">
        <ele>2103</ele>
        <time>2021-04-08T11:13:01Z</time>
      </trkpt>
      <trkpt lat="44.46287" lon="6.55002">
        <ele>2101</ele>
        <time>2021-04-08T11:13:02Z</time>
      </trkpt>
      <trkpt lat="44.46292" lon="6.54999">
        <ele>2100</ele>
        <time>2021-04-08T11:13:03Z</time>
      </trkpt>
      <trkpt lat="44.46297" lon="6.54996">
        <ele>2097</ele>
        <time>2021-04-08T11:13:04Z</time>
      </trkpt>
      <trkpt lat="44.46302" lon="6.54989">
        <ele>2095</ele>
        <time>2021-04-08T11:13:05Z</time>
      </trkpt>
      <trkpt lat="44.46307" lon="6.54981">
        <ele>2093</ele>
        <time>2021-04-08T11:13:06Z</time>
      </trkpt>
      <trkpt lat="44.46313" lon="6.54976">
        <ele>2091</ele>
        <time>2021-04-08T11:13:07Z</time>
      </trkpt>
      <trkpt lat="44.4632" lon="6.54973">
        <ele>2089</ele>
        <time>2021-04-08T11:13:08Z</time>
      </trkpt>
      <trkpt lat="44.46328" lon="6.54971">
        <ele>2087</ele>
        <time>2021-04-08T11:13:09Z</time>
      </trkpt>
      <trkpt lat="44.46336" lon="6.54969">
        <ele>2085</ele>
        <time>2021-04-08T11:13:10Z</time>
      </trkpt>
      <trkpt lat="44.46343" lon="6.54967">
        <ele>2083</ele>
        <time>2021-04-08T11:13:11Z</time>
      </trkpt>
      <trkpt lat="44.4635" lon="6.54966">
        <ele>2081</ele>
        <time>2021-04-08T11:13:12Z</time>
      </trkpt>
      <trkpt lat="44.46356" lon="6.54962">
        <ele>2079</ele>
        <time>2021-04-08T11:13:13Z</time>
      </trkpt>
      <trkpt lat="44.46361" lon="6.54961">
        <ele>2076</ele>
        <time>2021-04-08T11:13:14Z</time>
      </trkpt>
      <trkpt lat="44.46368" lon="6.54959">
        <ele>2073</ele>
        <time>2021-04-08T11:13:15Z</time>
      </trkpt>
      <trkpt lat="44.46373" lon="6.54956">
        <ele>2070</ele>
        <time>2021-04-08T11:13:16Z</time>
      </trkpt>
      <trkpt lat="44.46377" lon="6.54952">
        <ele>2066</ele>
        <time>2021-04-08T11:13:17Z</time>
      </trkpt>
      <trkpt lat="44.4638" lon="6.54949">
        <ele>2063</ele>
        <time>2021-04-08T11:13:18Z</time>
      </trkpt>
      <trkpt lat="44.46381" lon="6.54947">
        <ele>2060</ele>
        <time>2021-04-08T11:13:19Z</time>
      </trkpt>
      <trkpt lat="44.46381" lon="6.54946">
        <ele>2058</ele>
        <time>2021-04-08T11:13:20Z</time>
      </trkpt>
      <trkpt lat="44.46382" lon="6.54945">
        <ele>2057</ele>
        <time>2021-04-08T11:13:21Z</time>
      </trkpt>
      <trkpt lat="44.46383" lon="6.54946">
        <ele>2056</ele>
        <time>2021-04-08T11:13:22Z</time>
      </trkpt>
      <trkpt lat="44.46385" lon="6.54945">
        <ele>2051</ele>
        <time>2021-04-08T11:13:23Z</time>
      </trkpt>
      <trkpt lat="44.46389" lon="6.54943">
        <ele>2048</ele>
        <time>2021-04-08T11:13:24Z</time>
      </trkpt>
      <trkpt lat="44.46394" lon="6.54943">
        <ele>2045</ele>
        <time>2021-04-08T11:13:25Z</time>
      </trkpt>
      <trkpt lat="44.46399" lon="6.54947">
        <ele>2042</ele>
        <time>2021-04-08T11:13:26Z</time>
      </trkpt>
      <trkpt lat="44.46403" lon="6.54947">
        <ele>2039</ele>
        <time>2021-04-08T11:13:27Z</time>
      </trkpt>
      <trkpt lat="44.46408" lon="6.54944">
        <ele>2038</ele>
        <time>2021-04-08T11:13:28Z</time>
      </trkpt>
      <trkpt lat="44.46413" lon="6.54941">
        <ele>2037</ele>
        <time>2021-04-08T11:13:29Z</time>
      </trkpt>
      <trkpt lat="44.46417" lon="6.5494">
        <ele>2035</ele>
        <time>2021-04-08T11:13:30Z</time>
      </trkpt>
      <trkpt lat="44.46421" lon="6.54938">
        <ele>2034</ele>
        <time>2021-04-08T11:13:31Z</time>
      </trkpt>
      <trkpt lat="44.46426" lon="6.54938">
        <ele>2032</ele>
        <time>2021-04-08T11:13:32Z</time>
      </trkpt>
      <trkpt lat="44.46429" lon="6.54939">
        <ele>2031</ele>
        <time>2021-04-08T11:13:33Z</time>
      </trkpt>
      <trkpt lat="44.46429" lon="6.5494">
        <ele>2030</ele>
        <time>2021-04-08T11:13:34Z</time>
      </trkpt>
      <trkpt lat="44.46429" lon="6.54941">
        <ele>2029</ele>
        <time>2021-04-08T11:13:35Z</time>
      </trkpt>
      <trkpt lat="44.46429" lon="6.54941">
        <ele>2029</ele>
        <time>2021-04-08T11:13:36Z</time>
      </trkpt>
      <trkpt lat="44.46429" lon="6.54941">
        <ele>2029</ele>
        <time>2021-04-08T11:13:37Z</time>
      </trkpt>
      <trkpt lat="44.46429" lon="6.54941">
        <ele>2029</ele>
        <time>2021-04-08T11:13:38Z</time>
      </trkpt>
      <trkpt lat="44.46429" lon="6.54941">
        <ele>2029</ele>
        <time>2021-04-08T11:13:39Z</time>
      </trkpt>
      <trkpt lat="44.46429" lon="6.54941">
        <ele>2029</ele>
        <time>2021-04-08T11:13:40Z</time>
      </trkpt>
      <trkpt lat="44.46429" lon="6.54941">
        <ele>2029</ele>
        <time>2021-04-08T11:13:41Z</time>
      </trkpt>
      <trkpt lat="44.46429" lon="6.54941">
        <ele>2029</ele>
        <time>2021-04-08T11:13:42Z</time>
      </trkpt>
      <trkpt lat="44.46429" lon="6.54941">
        <ele>2029</ele>
        <time>2021-04-08T11:13:43Z</time>
      </trkpt>
      <trkpt lat="44.46429" lon="6.54941">
        <ele>2029</ele>
        <time>2021-04-08T11:13:44Z</time>
      </trkpt>
      <trkpt lat="44.46429" lon="6.54941">
        <ele>2029</ele>
        <time>2021-04-08T11:13:45Z</time>
      </trkpt>
      <trkpt lat="44.46429" lon="6.54941">
        <ele>2029</ele>
        <time>2021-04-08T11:13:46Z</time>
      </trkpt>
      <trkpt lat="44.46429" lon="6.54941">
        <ele>2029</ele>
        <time>2021-04-08T11:13:47Z</time>
      </trkpt>
      <trkpt lat="44.46429" lon="6.54941">
        <ele>2029</ele>
        <time>2021-04-08T11:13:48Z</time>
      </trkpt>
      <trkpt lat="44.46429" lon="6.54941">
        <ele>2029</ele>
        <time>2021-04-08T11:13:49Z</time>
      </trkpt>
      <trkpt lat="44.46429" lon="6.54941">
        <ele>2029</ele>
        <time>2021-04-08T11:13:50Z</time>
      </trkpt>
      <trkpt lat="44.46429" lon="6.54941">
        <ele>2029</ele>
        <time>2021-04-08T11:13:51Z</time>
      </trkpt>
      <trkpt lat="44.46429" lon="6.54941">
        <ele>2029</ele>
        <time>2021-04-08T11:13:52Z</time>
      </trkpt>
      <trkpt lat="44.46429" lon="6.54941">
        <ele>2029</ele>
        <time>2021-04-08T11:13:53Z</time>
      </trkpt>
      <trkpt lat="44.46429" lon="6.54941">
        <ele>2029</ele>
        <time>2021-04-08T11:13:54Z</time>
      </trkpt>
      <trkpt lat="44.46429" lon="6.54941">
        <ele>2029</ele>
        <time>2021-04-08T11:13:55Z</time>
      </trkpt>
      <trkpt lat="44.46429" lon="6.54941">
        <ele>2029</ele>
        <time>2021-04-08T11:13:56Z</time>
      </trkpt>
      <trkpt lat="44.46429" lon="6.54941">
        <ele>2029</ele>
        <time>2021-04-08T11:13:57Z</time>
      </trkpt>
      <trkpt lat="44.46429" lon="6.54941">
        <ele>2029</ele>
        <time>2021-04-08T11:13:58Z</time>
      </trkpt>
      <trkpt lat="44.46429" lon="6.54941">
        <ele>2029</ele>
        <time>2021-04-08T11:13:59Z</time>
      </trkpt>
      <trkpt lat="44.46429" lon="6.54941">
        <ele>2029</ele>
        <time>2021-04-08T11:14:00Z</time>
      </trkpt>
      <trkpt lat="44.46429" lon="6.54941">
        <ele>2029</ele>
        <time>2021-04-08T11:14:01Z</time>
      </trkpt>
      <trkpt lat="44.46429" lon="6.54941">
        <ele>2029</ele>
        <time>2021-04-08T11:14:02Z</time>
      </trkpt>
      <trkpt lat="44.46429" lon="6.54941">
        <ele>2029</ele>
        <time>2021-04-08T11:14:03Z</time>
      </trkpt>
      <trkpt lat="44.46429" lon="6.54941">
        <ele>2029</ele>
        <time>2021-04-08T11:14:04Z</time>
      </trkpt>
      <trkpt lat="44.46428" lon="6.54945">
        <ele>2027</ele>
        <time>2021-04-08T11:14:05Z</time>
      </trkpt>
      <trkpt lat="44.46429" lon="6.54948">
        <ele>2026</ele>
        <time>2021-04-08T11:14:06Z</time>
      </trkpt>
      <trkpt lat="44.4643" lon="6.5495">
        <ele>2025</ele>
        <time>2021-04-08T11:14:07Z</time>
      </trkpt>
      <trkpt lat="44.46432" lon="6.54953">
        <ele>2025</ele>
        <time>2021-04-08T11:14:08Z</time>
      </trkpt>
      <trkpt lat="44.46433" lon="6.54953">
        <ele>2024</ele>
        <time>2021-04-08T11:14:09Z</time>
      </trkpt>
      <trkpt lat="44.46435" lon="6.54952">
        <ele>2024</ele>
        <time>2021-04-08T11:14:10Z</time>
      </trkpt>
      <trkpt lat="44.46437" lon="6.54949">
        <ele>2023</ele>
        <time>2021-04-08T11:14:11Z</time>
      </trkpt>
      <trkpt lat="44.4644" lon="6.54948">
        <ele>2023</ele>
        <time>2021-04-08T11:14:12Z</time>
      </trkpt>
      <trkpt lat="44.46443" lon="6.54947">
        <ele>2023</ele>
        <time>2021-04-08T11:14:13Z</time>
      </trkpt>
      <trkpt lat="44.46446" lon="6.54945">
        <ele>2022</ele>
        <time>2021-04-08T11:14:14Z</time>
      </trkpt>
      <trkpt lat="44.46448" lon="6.54943">
        <ele>2022</ele>
        <time>2021-04-08T11:14:15Z</time>
      </trkpt>
      <trkpt lat="44.46451" lon="6.54942">
        <ele>2022</ele>
        <time>2021-04-08T11:14:16Z</time>
      </trkpt>
      <trkpt lat="44.46454" lon="6.54943">
        <ele>2021</ele>
        <time>2021-04-08T11:14:17Z</time>
      </trkpt>
      <trkpt lat="44.46456" lon="6.54945">
        <ele>2020</ele>
        <time>2021-04-08T11:14:18Z</time>
      </trkpt>
      <trkpt lat="44.4646" lon="6.54945">
        <ele>2020</ele>
        <time>2021-04-08T11:14:19Z</time>
      </trkpt>
      <trkpt lat="44.46463" lon="6.54944">
        <ele>2019</ele>
        <time>2021-04-08T11:14:20Z</time>
      </trkpt>
      <trkpt lat="44.46465" lon="6.54942">
        <ele>2019</ele>
        <time>2021-04-08T11:14:21Z</time>
      </trkpt>
      <trkpt lat="44.46465" lon="6.54942">
        <ele>2018</ele>
        <time>2021-04-08T11:14:22Z</time>
      </trkpt>
      <trkpt lat="44.46465" lon="6.54942">
        <ele>2018</ele>
        <time>2021-04-08T11:14:23Z</time>
      </trkpt>
      <trkpt lat="44.46465" lon="6.54942">
        <ele>2018</ele>
        <time>2021-04-08T11:14:24Z</time>
      </trkpt>
      <trkpt lat="44.46465" lon="6.54942">
        <ele>2017</ele>
        <time>2021-04-08T11:14:25Z</time>
      </trkpt>
      <trkpt lat="44.46465" lon="6.54942">
        <ele>2017</ele>
        <time>2021-04-08T11:14:26Z</time>
      </trkpt>
      <trkpt lat="44.46465" lon="6.54942">
        <ele>2017</ele>
        <time>2021-04-08T11:14:27Z</time>
      </trkpt>
      <trkpt lat="44.46465" lon="6.54942">
        <ele>2017</ele>
        <time>2021-04-08T11:14:28Z</time>
      </trkpt>
      <trkpt lat="44.46465" lon="6.54942">
        <ele>2017</ele>
        <time>2021-04-08T11:14:29Z</time>
      </trkpt>
      <trkpt lat="44.46465" lon="6.54942">
        <ele>2017</ele>
        <time>2021-04-08T11:14:30Z</time>
      </trkpt>
      <trkpt lat="44.46465" lon="6.54942">
        <ele>2017</ele>
        <time>2021-04-08T11:14:31Z</time>
      </trkpt>
      <trkpt lat="44.46465" lon="6.54942">
        <ele>2017</ele>
        <time>2021-04-08T11:14:32Z</time>
      </trkpt>
      <trkpt lat="44.46465" lon="6.54942">
        <ele>2017</ele>
        <time>2021-04-08T11:14:33Z</time>
      </trkpt>
      <trkpt lat="44.46465" lon="6.54942">
        <ele>2017</ele>
        <time>2021-04-08T11:14:34Z</time>
      </trkpt>
      <trkpt lat="44.46465" lon="6.54942">
        <ele>2017</ele>
        <time>2021-04-08T11:14:35Z</time>
      </trkpt>
      <trkpt lat="44.46465" lon="6.54942">
        <ele>2017</ele>
        <time>2021-04-08T11:14:36Z</time>
      </trkpt>
      <trkpt lat="44.46465" lon="6.54942">
        <ele>2017</ele>
        <time>2021-04-08T11:14:37Z</time>
      </trkpt>
      <trkpt lat="44.46465" lon="6.54942">
        <ele>2017</ele>
        <time>2021-04-08T11:14:38Z</time>
      </trkpt>
      <trkpt lat="44.46465" lon="6.54942">
        <ele>2017</ele>
        <time>2021-04-08T11:14:39Z</time>
      </trkpt>
      <trkpt lat="44.46465" lon="6.54942">
        <ele>2017</ele>
        <time>2021-04-08T11:14:40Z</time>
      </trkpt>
      <trkpt lat="44.46465" lon="6.54942">
        <ele>2017</ele>
        <time>2021-04-08T11:14:41Z</time>
      </trkpt>
      <trkpt lat="44.46465" lon="6.54942">
        <ele>2017</ele>
        <time>2021-04-08T11:14:42Z</time>
      </trkpt>
      <trkpt lat="44.46465" lon="6.54942">
        <ele>2017</ele>
        <time>2021-04-08T11:14:43Z</time>
      </trkpt>
      <trkpt lat="44.46465" lon="6.54942">
        <ele>2017</ele>
        <time>2021-04-08T11:14:44Z</time>
      </trkpt>
      <trkpt lat="44.46465" lon="6.54942">
        <ele>2017</ele>
        <time>2021-04-08T11:14:45Z</time>
      </trkpt>
      <trkpt lat="44.46465" lon="6.54942">
        <ele>2017</ele>
        <time>2021-04-08T11:14:46Z</time>
      </trkpt>
      <trkpt lat="44.46465" lon="6.54942">
        <ele>2017</ele>
        <time>2021-04-08T11:14:47Z</time>
      </trkpt>
      <trkpt lat="44.46465" lon="6.54942">
        <ele>2017</ele>
        <time>2021-04-08T11:14:48Z</time>
      </trkpt>
      <trkpt lat="44.46465" lon="6.54942">
        <ele>2017</ele>
        <time>2021-04-08T11:14:49Z</time>
      </trkpt>
      <trkpt lat="44.4646" lon="6.54932">
        <ele>2006</ele>
        <time>2021-04-08T11:14:50Z</time>
      </trkpt>
      <trkpt lat="44.4646" lon="6.54931">
        <ele>2003</ele>
        <time>2021-04-08T11:14:51Z</time>
      </trkpt>
      <trkpt lat="44.4646" lon="6.54929">
        <ele>2001</ele>
        <time>2021-04-08T11:14:52Z</time>
      </trkpt>
      <trkpt lat="44.46461" lon="6.54926">
        <ele>1999</ele>
        <time>2021-04-08T11:14:53Z</time>
      </trkpt>
      <trkpt lat="44.46462" lon="6.54925">
        <ele>1998</ele>
        <time>2021-04-08T11:14:54Z</time>
      </trkpt>
      <trkpt lat="44.46465" lon="6.54924">
        <ele>1997</ele>
        <time>2021-04-08T11:14:55Z</time>
      </trkpt>
      <trkpt lat="44.46467" lon="6.54925">
        <ele>1996</ele>
        <time>2021-04-08T11:14:56Z</time>
      </trkpt>
      <trkpt lat="44.4647" lon="6.54927">
        <ele>1995</ele>
        <time>2021-04-08T11:14:57Z</time>
      </trkpt>
      <trkpt lat="44.46471" lon="6.54929">
        <ele>1995</ele>
        <time>2021-04-08T11:14:58Z</time>
      </trkpt>
      <trkpt lat="44.46473" lon="6.54929">
        <ele>1994</ele>
        <time>2021-04-08T11:14:59Z</time>
      </trkpt>
      <trkpt lat="44.46474" lon="6.54927">
        <ele>1993</ele>
        <time>2021-04-08T11:15:00Z</time>
      </trkpt>
      <trkpt lat="44.46474" lon="6.54925">
        <ele>1992</ele>
        <time>2021-04-08T11:15:01Z</time>
      </trkpt>
      <trkpt lat="44.46476" lon="6.54922">
        <ele>1991</ele>
        <time>2021-04-08T11:15:02Z</time>
      </trkpt>
      <trkpt lat="44.46477" lon="6.54922">
        <ele>1990</ele>
        <time>2021-04-08T11:15:03Z</time>
      </trkpt>
      <trkpt lat="44.46479" lon="6.54922">
        <ele>1990</ele>
        <time>2021-04-08T11:15:04Z</time>
      </trkpt>
      <trkpt lat="44.4648" lon="6.54919">
        <ele>1988</ele>
        <time>2021-04-08T11:15:05Z</time>
      </trkpt>
      <trkpt lat="44.4648" lon="6.54917">
        <ele>1988</ele>
        <time>2021-04-08T11:15:06Z</time>
      </trkpt>
      <trkpt lat="44.46482" lon="6.54915">
        <ele>1987</ele>
        <time>2021-04-08T11:15:07Z</time>
      </trkpt>
      <trkpt lat="44.46484" lon="6.54914">
        <ele>1985</ele>
        <time>2021-04-08T11:15:08Z</time>
      </trkpt>
      <trkpt lat="44.46486" lon="6.54915">
        <ele>1983</ele>
        <time>2021-04-08T11:15:09Z</time>
      </trkpt>
      <trkpt lat="44.46488" lon="6.54914">
        <ele>1982</ele>
        <time>2021-04-08T11:15:10Z</time>
      </trkpt>
      <trkpt lat="44.4649" lon="6.54913">
        <ele>1980</ele>
        <time>2021-04-08T11:15:11Z</time>
      </trkpt>
      <trkpt lat="44.46491" lon="6.54912">
        <ele>1979</ele>
        <time>2021-04-08T11:15:12Z</time>
      </trkpt>
      <trkpt lat="44.46491" lon="6.54912">
        <ele>1977</ele>
        <time>2021-04-08T11:15:13Z</time>
      </trkpt>
      <trkpt lat="44.46491" lon="6.54912">
        <ele>1976</ele>
        <time>2021-04-08T11:15:14Z</time>
      </trkpt>
      <trkpt lat="44.46492" lon="6.54911">
        <ele>1975</ele>
        <time>2021-04-08T11:15:15Z</time>
      </trkpt>
      <trkpt lat="44.46492" lon="6.54911">
        <ele>1975</ele>
        <time>2021-04-08T11:15:16Z</time>
      </trkpt>
      <trkpt lat="44.46492" lon="6.54911">
        <ele>1974</ele>
        <time>2021-04-08T11:15:17Z</time>
      </trkpt>
      <trkpt lat="44.46492" lon="6.54911">
        <ele>1974</ele>
        <time>2021-04-08T11:15:18Z</time>
      </trkpt>
      <trkpt lat="44.46496" lon="6.54907">
        <ele>1972</ele>
        <time>2021-04-08T11:15:19Z</time>
      </trkpt>
      <trkpt lat="44.46495" lon="6.54906">
        <ele>1970</ele>
        <time>2021-04-08T11:15:20Z</time>
      </trkpt>
      <trkpt lat="44.46496" lon="6.54906">
        <ele>1969</ele>
        <time>2021-04-08T11:15:21Z</time>
      </trkpt>
      <trkpt lat="44.46496" lon="6.54906">
        <ele>1969</ele>
        <time>2021-04-08T11:15:22Z</time>
      </trkpt>
      <trkpt lat="44.46496" lon="6.54907">
        <ele>1968</ele>
        <time>2021-04-08T11:15:23Z</time>
      </trkpt>
      <trkpt lat="44.46496" lon="6.54907">
        <ele>1968</ele>
        <time>2021-04-08T11:15:24Z</time>
      </trkpt>
      <trkpt lat="44.46496" lon="6.54907">
        <ele>1968</ele>
        <time>2021-04-08T11:15:25Z</time>
      </trkpt>
      <trkpt lat="44.46496" lon="6.54907">
        <ele>1968</ele>
        <time>2021-04-08T11:15:26Z</time>
      </trkpt>
      <trkpt lat="44.46496" lon="6.54907">
        <ele>1967</ele>
        <time>2021-04-08T11:15:27Z</time>
      </trkpt>
      <trkpt lat="44.46496" lon="6.54907">
        <ele>1967</ele>
        <time>2021-04-08T11:15:28Z</time>
      </trkpt>
      <trkpt lat="44.46496" lon="6.54907">
        <ele>1967</ele>
        <time>2021-04-08T11:15:29Z</time>
      </trkpt>
      <trkpt lat="44.46496" lon="6.54907">
        <ele>1967</ele>
        <time>2021-04-08T11:15:30Z</time>
      </trkpt>
      <trkpt lat="44.46496" lon="6.54907">
        <ele>1967</ele>
        <time>2021-04-08T11:15:31Z</time>
      </trkpt>
      <trkpt lat="44.46496" lon="6.54907">
        <ele>1967</ele>
        <time>2021-04-08T11:15:32Z</time>
      </trkpt>
      <trkpt lat="44.46496" lon="6.54907">
        <ele>1967</ele>
        <time>2021-04-08T11:15:33Z</time>
      </trkpt>
      <trkpt lat="44.46496" lon="6.54907">
        <ele>1967</ele>
        <time>2021-04-08T11:15:34Z</time>
      </trkpt>
      <trkpt lat="44.46496" lon="6.54907">
        <ele>1967</ele>
        <time>2021-04-08T11:15:35Z</time>
      </trkpt>
      <trkpt lat="44.46496" lon="6.54907">
        <ele>1967</ele>
        <time>2021-04-08T11:15:36Z</time>
      </trkpt>
      <trkpt lat="44.46496" lon="6.54907">
        <ele>1967</ele>
        <time>2021-04-08T11:15:37Z</time>
      </trkpt>
      <trkpt lat="44.46496" lon="6.54907">
        <ele>1967</ele>
        <time>2021-04-08T11:15:38Z</time>
      </trkpt>
      <trkpt lat="44.46496" lon="6.54907">
        <ele>1967</ele>
        <time>2021-04-08T11:15:39Z</time>
      </trkpt>
      <trkpt lat="44.46496" lon="6.54907">
        <ele>1967</ele>
        <time>2021-04-08T11:15:40Z</time>
      </trkpt>
      <trkpt lat="44.46496" lon="6.54907">
        <ele>1967</ele>
        <time>2021-04-08T11:15:41Z</time>
      </trkpt>
      <trkpt lat="44.46496" lon="6.54907">
        <ele>1967</ele>
        <time>2021-04-08T11:15:42Z</time>
      </trkpt>
      <trkpt lat="44.46496" lon="6.54907">
        <ele>1967</ele>
        <time>2021-04-08T11:15:43Z</time>
      </trkpt>
      <trkpt lat="44.46496" lon="6.54907">
        <ele>1967</ele>
        <time>2021-04-08T11:15:44Z</time>
      </trkpt>
      <trkpt lat="44.46496" lon="6.54907">
        <ele>1967</ele>
        <time>2021-04-08T11:15:45Z</time>
      </trkpt>
      <trkpt lat="44.46496" lon="6.54907">
        <ele>1967</ele>
        <time>2021-04-08T11:15:46Z</time>
      </trkpt>
      <trkpt lat="44.46496" lon="6.54907">
        <ele>1967</ele>
        <time>2021-04-08T11:15:47Z</time>
      </trkpt>
      <trkpt lat="44.46496" lon="6.54907">
        <ele>1967</ele>
        <time>2021-04-08T11:15:48Z</time>
      </trkpt>
      <trkpt lat="44.46496" lon="6.54907">
        <ele>1967</ele>
        <time>2021-04-08T11:15:49Z</time>
      </trkpt>
      <trkpt lat="44.46496" lon="6.54907">
        <ele>1967</ele>
        <time>2021-04-08T11:15:50Z</time>
      </trkpt>
      <trkpt lat="44.46496" lon="6.54907">
        <ele>1967</ele>
        <time>2021-04-08T11:15:51Z</time>
      </trkpt>
      <trkpt lat="44.46496" lon="6.54907">
        <ele>1967</ele>
        <time>2021-04-08T11:15:52Z</time>
      </trkpt>
      <trkpt lat="44.46496" lon="6.54907">
        <ele>1967</ele>
        <time>2021-04-08T11:15:53Z</time>
      </trkpt>
      <trkpt lat="44.46496" lon="6.54907">
        <ele>1967</ele>
        <time>2021-04-08T11:15:54Z</time>
      </trkpt>
      <trkpt lat="44.46496" lon="6.54907">
        <ele>1967</ele>
        <time>2021-04-08T11:15:55Z</time>
      </trkpt>
      <trkpt lat="44.46496" lon="6.54907">
        <ele>1967</ele>
        <time>2021-04-08T11:15:56Z</time>
      </trkpt>
      <trkpt lat="44.46496" lon="6.54907">
        <ele>1966</ele>
        <time>2021-04-08T11:15:57Z</time>
      </trkpt>
      <trkpt lat="44.46496" lon="6.54907">
        <ele>1966</ele>
        <time>2021-04-08T11:15:58Z</time>
      </trkpt>
      <trkpt lat="44.46496" lon="6.54907">
        <ele>1966</ele>
        <time>2021-04-08T11:15:59Z</time>
      </trkpt>
      <trkpt lat="44.46496" lon="6.54907">
        <ele>1966</ele>
        <time>2021-04-08T11:16:00Z</time>
      </trkpt>
      <trkpt lat="44.46504" lon="6.54901">
        <ele>1965</ele>
        <time>2021-04-08T11:16:01Z</time>
      </trkpt>
      <trkpt lat="44.46505" lon="6.54901">
        <ele>1965</ele>
        <time>2021-04-08T11:16:02Z</time>
      </trkpt>
      <trkpt lat="44.46505" lon="6.549">
        <ele>1965</ele>
        <time>2021-04-08T11:16:03Z</time>
      </trkpt>
      <trkpt lat="44.46505" lon="6.549">
        <ele>1965</ele>
        <time>2021-04-08T11:16:04Z</time>
      </trkpt>
      <trkpt lat="44.46505" lon="6.549">
        <ele>1965</ele>
        <time>2021-04-08T11:16:05Z</time>
      </trkpt>
      <trkpt lat="44.46505" lon="6.549">
        <ele>1964</ele>
        <time>2021-04-08T11:16:06Z</time>
      </trkpt>
      <trkpt lat="44.46505" lon="6.549">
        <ele>1964</ele>
        <time>2021-04-08T11:16:07Z</time>
      </trkpt>
      <trkpt lat="44.46505" lon="6.549">
        <ele>1964</ele>
        <time>2021-04-08T11:16:08Z</time>
      </trkpt>
      <trkpt lat="44.46505" lon="6.549">
        <ele>1964</ele>
        <time>2021-04-08T11:16:09Z</time>
      </trkpt>
      <trkpt lat="44.46505" lon="6.549">
        <ele>1964</ele>
        <time>2021-04-08T11:16:10Z</time>
      </trkpt>
      <trkpt lat="44.46505" lon="6.549">
        <ele>1964</ele>
        <time>2021-04-08T11:16:11Z</time>
      </trkpt>
      <trkpt lat="44.46505" lon="6.549">
        <ele>1964</ele>
        <time>2021-04-08T11:16:12Z</time>
      </trkpt>
      <trkpt lat="44.46505" lon="6.549">
        <ele>1964</ele>
        <time>2021-04-08T11:16:13Z</time>
      </trkpt>
      <trkpt lat="44.46505" lon="6.549">
        <ele>1964</ele>
        <time>2021-04-08T11:16:14Z</time>
      </trkpt>
      <trkpt lat="44.46505" lon="6.549">
        <ele>1964</ele>
        <time>2021-04-08T11:16:15Z</time>
      </trkpt>
      <trkpt lat="44.46505" lon="6.549">
        <ele>1964</ele>
        <time>2021-04-08T11:16:16Z</time>
      </trkpt>
      <trkpt lat="44.46505" lon="6.549">
        <ele>1964</ele>
        <time>2021-04-08T11:16:17Z</time>
      </trkpt>
      <trkpt lat="44.46505" lon="6.549">
        <ele>1964</ele>
        <time>2021-04-08T11:16:18Z</time>
      </trkpt>
      <trkpt lat="44.46505" lon="6.549">
        <ele>1964</ele>
        <time>2021-04-08T11:16:19Z</time>
      </trkpt>
      <trkpt lat="44.46505" lon="6.549">
        <ele>1964</ele>
        <time>2021-04-08T11:16:20Z</time>
      </trkpt>
      <trkpt lat="44.46505" lon="6.549">
        <ele>1964</ele>
        <time>2021-04-08T11:16:21Z</time>
      </trkpt>
      <trkpt lat="44.46505" lon="6.549">
        <ele>1964</ele>
        <time>2021-04-08T11:16:22Z</time>
      </trkpt>
      <trkpt lat="44.46505" lon="6.549">
        <ele>1964</ele>
        <time>2021-04-08T11:16:23Z</time>
      </trkpt>
      <trkpt lat="44.46505" lon="6.549">
        <ele>1964</ele>
        <time>2021-04-08T11:16:24Z</time>
      </trkpt>
      <trkpt lat="44.46505" lon="6.549">
        <ele>1964</ele>
        <time>2021-04-08T11:16:25Z</time>
      </trkpt>
      <trkpt lat="44.46505" lon="6.549">
        <ele>1964</ele>
        <time>2021-04-08T11:16:26Z</time>
      </trkpt>
      <trkpt lat="44.46505" lon="6.549">
        <ele>1964</ele>
        <time>2021-04-08T11:16:27Z</time>
      </trkpt>
      <trkpt lat="44.46505" lon="6.549">
        <ele>1964</ele>
        <time>2021-04-08T11:16:28Z</time>
      </trkpt>
      <trkpt lat="44.46505" lon="6.549">
        <ele>1964</ele>
        <time>2021-04-08T11:16:29Z</time>
      </trkpt>
      <trkpt lat="44.46505" lon="6.549">
        <ele>1964</ele>
        <time>2021-04-08T11:16:30Z</time>
      </trkpt>
      <trkpt lat="44.46505" lon="6.549">
        <ele>1964</ele>
        <time>2021-04-08T11:16:31Z</time>
      </trkpt>
      <trkpt lat="44.46505" lon="6.549">
        <ele>1964</ele>
        <time>2021-04-08T11:16:32Z</time>
      </trkpt>
      <trkpt lat="44.46505" lon="6.549">
        <ele>1964</ele>
        <time>2021-04-08T11:16:33Z</time>
      </trkpt>
      <trkpt lat="44.46505" lon="6.549">
        <ele>1964</ele>
        <time>2021-04-08T11:16:34Z</time>
      </trkpt>
      <trkpt lat="44.46505" lon="6.549">
        <ele>1964</ele>
        <time>2021-04-08T11:16:35Z</time>
      </trkpt>
      <trkpt lat="44.46505" lon="6.549">
        <ele>1964</ele>
        <time>2021-04-08T11:16:36Z</time>
      </trkpt>
      <trkpt lat="44.46505" lon="6.549">
        <ele>1964</ele>
        <time>2021-04-08T11:16:37Z</time>
      </trkpt>
      <trkpt lat="44.46505" lon="6.549">
        <ele>1964</ele>
        <time>2021-04-08T11:16:38Z</time>
      </trkpt>
      <trkpt lat="44.46505" lon="6.549">
        <ele>1964</ele>
        <time>2021-04-08T11:16:39Z</time>
      </trkpt>
      <trkpt lat="44.46505" lon="6.549">
        <ele>1964</ele>
        <time>2021-04-08T11:16:40Z</time>
      </trkpt>
      <trkpt lat="44.46505" lon="6.549">
        <ele>1964</ele>
        <time>2021-04-08T11:16:41Z</time>
      </trkpt>
      <trkpt lat="44.46505" lon="6.549">
        <ele>1964</ele>
        <time>2021-04-08T11:16:42Z</time>
      </trkpt>
      <trkpt lat="44.46505" lon="6.549">
        <ele>1964</ele>
        <time>2021-04-08T11:16:43Z</time>
      </trkpt>
      <trkpt lat="44.46505" lon="6.549">
        <ele>1964</ele>
        <time>2021-04-08T11:16:44Z</time>
      </trkpt>
      <trkpt lat="44.46505" lon="6.549">
        <ele>1964</ele>
        <time>2021-04-08T11:16:45Z</time>
      </trkpt>
      <trkpt lat="44.46505" lon="6.549">
        <ele>1964</ele>
        <time>2021-04-08T11:16:46Z</time>
      </trkpt>
      <trkpt lat="44.46505" lon="6.549">
        <ele>1964</ele>
        <time>2021-04-08T11:16:47Z</time>
      </trkpt>
      <trkpt lat="44.46505" lon="6.549">
        <ele>1964</ele>
        <time>2021-04-08T11:16:48Z</time>
      </trkpt>
      <trkpt lat="44.46505" lon="6.549">
        <ele>1964</ele>
        <time>2021-04-08T11:16:49Z</time>
      </trkpt>
      <trkpt lat="44.46505" lon="6.549">
        <ele>1964</ele>
        <time>2021-04-08T11:16:50Z</time>
      </trkpt>
      <trkpt lat="44.46505" lon="6.549">
        <ele>1964</ele>
        <time>2021-04-08T11:16:51Z</time>
      </trkpt>
      <trkpt lat="44.46505" lon="6.549">
        <ele>1964</ele>
        <time>2021-04-08T11:16:52Z</time>
      </trkpt>
      <trkpt lat="44.46505" lon="6.549">
        <ele>1964</ele>
        <time>2021-04-08T11:16:53Z</time>
      </trkpt>
      <trkpt lat="44.46505" lon="6.549">
        <ele>1964</ele>
        <time>2021-04-08T11:16:54Z</time>
      </trkpt>
      <trkpt lat="44.46505" lon="6.549">
        <ele>1964</ele>
        <time>2021-04-08T11:16:55Z</time>
      </trkpt>
      <trkpt lat="44.46505" lon="6.549">
        <ele>1964</ele>
        <time>2021-04-08T11:16:56Z</time>
      </trkpt>
      <trkpt lat="44.46505" lon="6.549">
        <ele>1964</ele>
        <time>2021-04-08T11:16:57Z</time>
      </trkpt>
      <trkpt lat="44.46505" lon="6.549">
        <ele>1964</ele>
        <time>2021-04-08T11:16:58Z</time>
      </trkpt>
      <trkpt lat="44.46508" lon="6.54888">
        <ele>1961</ele>
        <time>2021-04-08T11:16:59Z</time>
      </trkpt>
      <trkpt lat="44.46508" lon="6.54887">
        <ele>1960</ele>
        <time>2021-04-08T11:17:00Z</time>
      </trkpt>
      <trkpt lat="44.46508" lon="6.54887">
        <ele>1960</ele>
        <time>2021-04-08T11:17:01Z</time>
      </trkpt>
      <trkpt lat="44.46507" lon="6.54887">
        <ele>1960</ele>
        <time>2021-04-08T11:17:02Z</time>
      </trkpt>
      <trkpt lat="44.46507" lon="6.54887">
        <ele>1960</ele>
        <time>2021-04-08T11:17:03Z</time>
      </trkpt>
      <trkpt lat="44.46507" lon="6.54887">
        <ele>1959</ele>
        <time>2021-04-08T11:17:04Z</time>
      </trkpt>
      <trkpt lat="44.46507" lon="6.54887">
        <ele>1959</ele>
        <time>2021-04-08T11:17:05Z</time>
      </trkpt>
      <trkpt lat="44.46507" lon="6.54887">
        <ele>1959</ele>
        <time>2021-04-08T11:17:06Z</time>
      </trkpt>
      <trkpt lat="44.46507" lon="6.54887">
        <ele>1959</ele>
        <time>2021-04-08T11:17:07Z</time>
      </trkpt>
      <trkpt lat="44.46507" lon="6.54887">
        <ele>1959</ele>
        <time>2021-04-08T11:17:08Z</time>
      </trkpt>
      <trkpt lat="44.46507" lon="6.54887">
        <ele>1959</ele>
        <time>2021-04-08T11:17:09Z</time>
      </trkpt>
      <trkpt lat="44.46507" lon="6.54887">
        <ele>1959</ele>
        <time>2021-04-08T11:17:10Z</time>
      </trkpt>
      <trkpt lat="44.46507" lon="6.54887">
        <ele>1959</ele>
        <time>2021-04-08T11:17:11Z</time>
      </trkpt>
      <trkpt lat="44.46507" lon="6.54887">
        <ele>1959</ele>
        <time>2021-04-08T11:17:12Z</time>
      </trkpt>
      <trkpt lat="44.46507" lon="6.54887">
        <ele>1959</ele>
        <time>2021-04-08T11:17:13Z</time>
      </trkpt>
      <trkpt lat="44.46507" lon="6.54887">
        <ele>1959</ele>
        <time>2021-04-08T11:17:14Z</time>
      </trkpt>
      <trkpt lat="44.46507" lon="6.54887">
        <ele>1959</ele>
        <time>2021-04-08T11:17:15Z</time>
      </trkpt>
      <trkpt lat="44.46507" lon="6.54887">
        <ele>1959</ele>
        <time>2021-04-08T11:17:16Z</time>
      </trkpt>
      <trkpt lat="44.46507" lon="6.54887">
        <ele>1959</ele>
        <time>2021-04-08T11:17:17Z</time>
      </trkpt>
      <trkpt lat="44.46507" lon="6.54887">
        <ele>1959</ele>
        <time>2021-04-08T11:17:18Z</time>
      </trkpt>
      <trkpt lat="44.46507" lon="6.54887">
        <ele>1959</ele>
        <time>2021-04-08T11:17:19Z</time>
      </trkpt>
      <trkpt lat="44.46507" lon="6.54887">
        <ele>1959</ele>
        <time>2021-04-08T11:17:20Z</time>
      </trkpt>
      <trkpt lat="44.46507" lon="6.54887">
        <ele>1959</ele>
        <time>2021-04-08T11:17:21Z</time>
      </trkpt>
      <trkpt lat="44.46507" lon="6.54887">
        <ele>1959</ele>
        <time>2021-04-08T11:17:22Z</time>
      </trkpt>
      <trkpt lat="44.46507" lon="6.54887">
        <ele>1959</ele>
        <time>2021-04-08T11:17:23Z</time>
      </trkpt>
      <trkpt lat="44.46507" lon="6.54887">
        <ele>1959</ele>
        <time>2021-04-08T11:17:24Z</time>
      </trkpt>
      <trkpt lat="44.46507" lon="6.54887">
        <ele>1959</ele>
        <time>2021-04-08T11:17:25Z</time>
      </trkpt>
      <trkpt lat="44.46507" lon="6.54887">
        <ele>1959</ele>
        <time>2021-04-08T11:17:26Z</time>
      </trkpt>
      <trkpt lat="44.46507" lon="6.54887">
        <ele>1959</ele>
        <time>2021-04-08T11:17:27Z</time>
      </trkpt>
      <trkpt lat="44.46507" lon="6.54887">
        <ele>1959</ele>
        <time>2021-04-08T11:17:28Z</time>
      </trkpt>
      <trkpt lat="44.46507" lon="6.54887">
        <ele>1959</ele>
        <time>2021-04-08T11:17:29Z</time>
      </trkpt>
      <trkpt lat="44.46507" lon="6.54887">
        <ele>1959</ele>
        <time>2021-04-08T11:17:30Z</time>
      </trkpt>
      <trkpt lat="44.46507" lon="6.54887">
        <ele>1959</ele>
        <time>2021-04-08T11:17:31Z</time>
      </trkpt>
      <trkpt lat="44.46507" lon="6.54887">
        <ele>1959</ele>
        <time>2021-04-08T11:17:32Z</time>
      </trkpt>
      <trkpt lat="44.46507" lon="6.54887">
        <ele>1959</ele>
        <time>2021-04-08T11:17:33Z</time>
      </trkpt>
      <trkpt lat="44.46507" lon="6.54887">
        <ele>1959</ele>
        <time>2021-04-08T11:17:34Z</time>
      </trkpt>
      <trkpt lat="44.46507" lon="6.54887">
        <ele>1959</ele>
        <time>2021-04-08T11:17:35Z</time>
      </trkpt>
      <trkpt lat="44.46507" lon="6.54887">
        <ele>1959</ele>
        <time>2021-04-08T11:17:36Z</time>
      </trkpt>
      <trkpt lat="44.46507" lon="6.54887">
        <ele>1959</ele>
        <time>2021-04-08T11:17:37Z</time>
      </trkpt>
      <trkpt lat="44.46507" lon="6.54887">
        <ele>1959</ele>
        <time>2021-04-08T11:17:38Z</time>
      </trkpt>
      <trkpt lat="44.46507" lon="6.54887">
        <ele>1959</ele>
        <time>2021-04-08T11:17:39Z</time>
      </trkpt>
      <trkpt lat="44.46507" lon="6.54887">
        <ele>1959</ele>
        <time>2021-04-08T11:17:40Z</time>
      </trkpt>
      <trkpt lat="44.46507" lon="6.54887">
        <ele>1959</ele>
        <time>2021-04-08T11:17:41Z</time>
      </trkpt>
      <trkpt lat="44.46507" lon="6.54887">
        <ele>1959</ele>
        <time>2021-04-08T11:17:42Z</time>
      </trkpt>
      <trkpt lat="44.46509" lon="6.54887">
        <ele>1959</ele>
        <time>2021-04-08T11:17:43Z</time>
      </trkpt>
      <trkpt lat="44.46512" lon="6.54885">
        <ele>1958</ele>
        <time>2021-04-08T11:17:44Z</time>
      </trkpt>
      <trkpt lat="44.46514" lon="6.54885">
        <ele>1957</ele>
        <time>2021-04-08T11:17:45Z</time>
      </trkpt>
      <trkpt lat="44.46516" lon="6.54886">
        <ele>1957</ele>
        <time>2021-04-08T11:17:46Z</time>
      </trkpt>
      <trkpt lat="44.46517" lon="6.54887">
        <ele>1957</ele>
        <time>2021-04-08T11:17:47Z</time>
      </trkpt>
      <trkpt lat="44.46519" lon="6.54887">
        <ele>1957</ele>
        <time>2021-04-08T11:17:48Z</time>
      </trkpt>
      <trkpt lat="44.46518" lon="6.54885">
        <ele>1956</ele>
        <time>2021-04-08T11:17:49Z</time>
      </trkpt>
      <trkpt lat="44.46519" lon="6.54884">
        <ele>1956</ele>
        <time>2021-04-08T11:17:50Z</time>
      </trkpt>
      <trkpt lat="44.46521" lon="6.54884">
        <ele>1956</ele>
        <time>2021-04-08T11:17:51Z</time>
      </trkpt>
      <trkpt lat="44.46523" lon="6.54885">
        <ele>1956</ele>
        <time>2021-04-08T11:17:52Z</time>
      </trkpt>
      <trkpt lat="44.46524" lon="6.54888">
        <ele>1956</ele>
        <time>2021-04-08T11:17:53Z</time>
      </trkpt>
      <trkpt lat="44.46525" lon="6.54889">
        <ele>1955</ele>
        <time>2021-04-08T11:17:54Z</time>
      </trkpt>
      <trkpt lat="44.46527" lon="6.54889">
        <ele>1955</ele>
        <time>2021-04-08T11:17:55Z</time>
      </trkpt>
      <trkpt lat="44.46529" lon="6.5489">
        <ele>1954</ele>
        <time>2021-04-08T11:17:56Z</time>
      </trkpt>
      <trkpt lat="44.46531" lon="6.54892">
        <ele>1953</ele>
        <time>2021-04-08T11:17:57Z</time>
      </trkpt>
      <trkpt lat="44.46533" lon="6.54893">
        <ele>1951</ele>
        <time>2021-04-08T11:17:58Z</time>
      </trkpt>
      <trkpt lat="44.46534" lon="6.54897">
        <ele>1949</ele>
        <time>2021-04-08T11:17:59Z</time>
      </trkpt>
      <trkpt lat="44.46536" lon="6.54897">
        <ele>1947</ele>
        <time>2021-04-08T11:18:00Z</time>
      </trkpt>
      <trkpt lat="44.46539" lon="6.54897">
        <ele>1946</ele>
        <time>2021-04-08T11:18:01Z</time>
      </trkpt>
      <trkpt lat="44.46541" lon="6.54898">
        <ele>1944</ele>
        <time>2021-04-08T11:18:02Z</time>
      </trkpt>
      <trkpt lat="44.46543" lon="6.54898">
        <ele>1943</ele>
        <time>2021-04-08T11:18:03Z</time>
      </trkpt>
      <trkpt lat="44.46545" lon="6.54899">
        <ele>1941</ele>
        <time>2021-04-08T11:18:04Z</time>
      </trkpt>
      <trkpt lat="44.46546" lon="6.54899">
        <ele>1940</ele>
        <time>2021-04-08T11:18:05Z</time>
      </trkpt>
      <trkpt lat="44.46546" lon="6.549">
        <ele>1938</ele>
        <time>2021-04-08T11:18:06Z</time>
      </trkpt>
      <trkpt lat="44.46546" lon="6.549">
        <ele>1937</ele>
        <time>2021-04-08T11:18:07Z</time>
      </trkpt>
      <trkpt lat="44.46546" lon="6.54899">
        <ele>1937</ele>
        <time>2021-04-08T11:18:08Z</time>
      </trkpt>
      <trkpt lat="44.46546" lon="6.54899">
        <ele>1936</ele>
        <time>2021-04-08T11:18:09Z</time>
      </trkpt>
      <trkpt lat="44.46546" lon="6.54899">
        <ele>1936</ele>
        <time>2021-04-08T11:18:10Z</time>
      </trkpt>
      <trkpt lat="44.46546" lon="6.54899">
        <ele>1935</ele>
        <time>2021-04-08T11:18:11Z</time>
      </trkpt>
      <trkpt lat="44.46553" lon="6.54898">
        <ele>1932</ele>
        <time>2021-04-08T11:18:12Z</time>
      </trkpt>
      <trkpt lat="44.46555" lon="6.54898">
        <ele>1931</ele>
        <time>2021-04-08T11:18:13Z</time>
      </trkpt>
      <trkpt lat="44.46557" lon="6.54898">
        <ele>1930</ele>
        <time>2021-04-08T11:18:14Z</time>
      </trkpt>
      <trkpt lat="44.46558" lon="6.54897">
        <ele>1928</ele>
        <time>2021-04-08T11:18:15Z</time>
      </trkpt>
      <trkpt lat="44.46558" lon="6.54897">
        <ele>1927</ele>
        <time>2021-04-08T11:18:16Z</time>
      </trkpt>
      <trkpt lat="44.46558" lon="6.54898">
        <ele>1926</ele>
        <time>2021-04-08T11:18:17Z</time>
      </trkpt>
      <trkpt lat="44.46558" lon="6.54898">
        <ele>1926</ele>
        <time>2021-04-08T11:18:18Z</time>
      </trkpt>
      <trkpt lat="44.46558" lon="6.54898">
        <ele>1926</ele>
        <time>2021-04-08T11:18:19Z</time>
      </trkpt>
      <trkpt lat="44.46558" lon="6.54898">
        <ele>1926</ele>
        <time>2021-04-08T11:18:20Z</time>
      </trkpt>
      <trkpt lat="44.46558" lon="6.54898">
        <ele>1926</ele>
        <time>2021-04-08T11:18:21Z</time>
      </trkpt>
      <trkpt lat="44.46558" lon="6.54898">
        <ele>1926</ele>
        <time>2021-04-08T11:18:22Z</time>
      </trkpt>
      <trkpt lat="44.46558" lon="6.54898">
        <ele>1926</ele>
        <time>2021-04-08T11:18:23Z</time>
      </trkpt>
      <trkpt lat="44.46558" lon="6.54898">
        <ele>1926</ele>
        <time>2021-04-08T11:18:24Z</time>
      </trkpt>
      <trkpt lat="44.46558" lon="6.54898">
        <ele>1926</ele>
        <time>2021-04-08T11:18:25Z</time>
      </trkpt>
      <trkpt lat="44.46558" lon="6.54898">
        <ele>1926</ele>
        <time>2021-04-08T11:18:26Z</time>
      </trkpt>
      <trkpt lat="44.46558" lon="6.54898">
        <ele>1926</ele>
        <time>2021-04-08T11:18:27Z</time>
      </trkpt>
      <trkpt lat="44.46558" lon="6.54898">
        <ele>1926</ele>
        <time>2021-04-08T11:18:28Z</time>
      </trkpt>
      <trkpt lat="44.46558" lon="6.54898">
        <ele>1926</ele>
        <time>2021-04-08T11:18:29Z</time>
      </trkpt>
      <trkpt lat="44.46558" lon="6.54898">
        <ele>1926</ele>
        <time>2021-04-08T11:18:30Z</time>
      </trkpt>
      <trkpt lat="44.46558" lon="6.54898">
        <ele>1926</ele>
        <time>2021-04-08T11:18:31Z</time>
      </trkpt>
      <trkpt lat="44.46558" lon="6.54898">
        <ele>1926</ele>
        <time>2021-04-08T11:18:32Z</time>
      </trkpt>
      <trkpt lat="44.46558" lon="6.54898">
        <ele>1926</ele>
        <time>2021-04-08T11:18:33Z</time>
      </trkpt>
      <trkpt lat="44.46558" lon="6.54898">
        <ele>1925</ele>
        <time>2021-04-08T11:18:34Z</time>
      </trkpt>
      <trkpt lat="44.46558" lon="6.54898">
        <ele>1925</ele>
        <time>2021-04-08T11:18:35Z</time>
      </trkpt>
      <trkpt lat="44.46558" lon="6.54898">
        <ele>1925</ele>
        <time>2021-04-08T11:18:36Z</time>
      </trkpt>
      <trkpt lat="44.46558" lon="6.54898">
        <ele>1925</ele>
        <time>2021-04-08T11:18:37Z</time>
      </trkpt>
      <trkpt lat="44.46558" lon="6.54898">
        <ele>1925</ele>
        <time>2021-04-08T11:18:38Z</time>
      </trkpt>
      <trkpt lat="44.46558" lon="6.54898">
        <ele>1925</ele>
        <time>2021-04-08T11:18:39Z</time>
      </trkpt>
      <trkpt lat="44.46558" lon="6.54898">
        <ele>1925</ele>
        <time>2021-04-08T11:18:40Z</time>
      </trkpt>
      <trkpt lat="44.46558" lon="6.54898">
        <ele>1925</ele>
        <time>2021-04-08T11:18:41Z</time>
      </trkpt>
      <trkpt lat="44.46558" lon="6.54898">
        <ele>1925</ele>
        <time>2021-04-08T11:18:42Z</time>
      </trkpt>
      <trkpt lat="44.46558" lon="6.54898">
        <ele>1925</ele>
        <time>2021-04-08T11:18:43Z</time>
      </trkpt>
      <trkpt lat="44.46558" lon="6.54898">
        <ele>1925</ele>
        <time>2021-04-08T11:18:44Z</time>
      </trkpt>
      <trkpt lat="44.46558" lon="6.54898">
        <ele>1925</ele>
        <time>2021-04-08T11:18:45Z</time>
      </trkpt>
      <trkpt lat="44.46558" lon="6.54898">
        <ele>1925</ele>
        <time>2021-04-08T11:18:46Z</time>
      </trkpt>
      <trkpt lat="44.46558" lon="6.54898">
        <ele>1925</ele>
        <time>2021-04-08T11:18:47Z</time>
      </trkpt>
      <trkpt lat="44.46558" lon="6.54898">
        <ele>1925</ele>
        <time>2021-04-08T11:18:48Z</time>
      </trkpt>
      <trkpt lat="44.46558" lon="6.54898">
        <ele>1925</ele>
        <time>2021-04-08T11:18:49Z</time>
      </trkpt>
      <trkpt lat="44.46558" lon="6.54898">
        <ele>1925</ele>
        <time>2021-04-08T11:18:50Z</time>
      </trkpt>
      <trkpt lat="44.46558" lon="6.54898">
        <ele>1925</ele>
        <time>2021-04-08T11:18:51Z</time>
      </trkpt>
      <trkpt lat="44.46558" lon="6.54898">
        <ele>1925</ele>
        <time>2021-04-08T11:18:52Z</time>
      </trkpt>
      <trkpt lat="44.46558" lon="6.54898">
        <ele>1925</ele>
        <time>2021-04-08T11:18:53Z</time>
      </trkpt>
      <trkpt lat="44.46558" lon="6.54898">
        <ele>1925</ele>
        <time>2021-04-08T11:18:54Z</time>
      </trkpt>
      <trkpt lat="44.46558" lon="6.54898">
        <ele>1925</ele>
        <time>2021-04-08T11:18:55Z</time>
      </trkpt>
      <trkpt lat="44.46558" lon="6.54898">
        <ele>1925</ele>
        <time>2021-04-08T11:18:56Z</time>
      </trkpt>
      <trkpt lat="44.46558" lon="6.54898">
        <ele>1925</ele>
        <time>2021-04-08T11:18:57Z</time>
      </trkpt>
      <trkpt lat="44.46558" lon="6.54898">
        <ele>1925</ele>
        <time>2021-04-08T11:18:58Z</time>
      </trkpt>
      <trkpt lat="44.46558" lon="6.54898">
        <ele>1925</ele>
        <time>2021-04-08T11:18:59Z</time>
      </trkpt>
      <trkpt lat="44.46558" lon="6.54898">
        <ele>1925</ele>
        <time>2021-04-08T11:19:00Z</time>
      </trkpt>
      <trkpt lat="44.46558" lon="6.54898">
        <ele>1925</ele>
        <time>2021-04-08T11:19:01Z</time>
      </trkpt>
      <trkpt lat="44.46558" lon="6.54898">
        <ele>1925</ele>
        <time>2021-04-08T11:19:02Z</time>
      </trkpt>
      <trkpt lat="44.46558" lon="6.54898">
        <ele>1925</ele>
        <time>2021-04-08T11:19:03Z</time>
      </trkpt>
      <trkpt lat="44.46558" lon="6.54898">
        <ele>1925</ele>
        <time>2021-04-08T11:19:04Z</time>
      </trkpt>
      <trkpt lat="44.46558" lon="6.54898">
        <ele>1925</ele>
        <time>2021-04-08T11:19:05Z</time>
      </trkpt>
      <trkpt lat="44.46558" lon="6.54898">
        <ele>1925</ele>
        <time>2021-04-08T11:19:06Z</time>
      </trkpt>
      <trkpt lat="44.46558" lon="6.54898">
        <ele>1925</ele>
        <time>2021-04-08T11:19:07Z</time>
      </trkpt>
      <trkpt lat="44.46558" lon="6.54898">
        <ele>1925</ele>
        <time>2021-04-08T11:19:08Z</time>
      </trkpt>
      <trkpt lat="44.46558" lon="6.54898">
        <ele>1925</ele>
        <time>2021-04-08T11:19:09Z</time>
      </trkpt>
      <trkpt lat="44.46558" lon="6.54898">
        <ele>1925</ele>
        <time>2021-04-08T11:19:10Z</time>
      </trkpt>
      <trkpt lat="44.46558" lon="6.54898">
        <ele>1925</ele>
        <time>2021-04-08T11:19:11Z</time>
      </trkpt>
      <trkpt lat="44.46558" lon="6.54898">
        <ele>1925</ele>
        <time>2021-04-08T11:19:12Z</time>
      </trkpt>
      <trkpt lat="44.46558" lon="6.54898">
        <ele>1925</ele>
        <time>2021-04-08T11:19:13Z</time>
      </trkpt>
      <trkpt lat="44.46558" lon="6.54898">
        <ele>1925</ele>
        <time>2021-04-08T11:19:14Z</time>
      </trkpt>
      <trkpt lat="44.46558" lon="6.54898">
        <ele>1925</ele>
        <time>2021-04-08T11:19:15Z</time>
      </trkpt>
      <trkpt lat="44.46558" lon="6.54898">
        <ele>1925</ele>
        <time>2021-04-08T11:19:16Z</time>
      </trkpt>
      <trkpt lat="44.46558" lon="6.54898">
        <ele>1925</ele>
        <time>2021-04-08T11:19:17Z</time>
      </trkpt>
      <trkpt lat="44.46558" lon="6.54898">
        <ele>1925</ele>
        <time>2021-04-08T11:19:18Z</time>
      </trkpt>
      <trkpt lat="44.46558" lon="6.54898">
        <ele>1925</ele>
        <time>2021-04-08T11:19:19Z</time>
      </trkpt>
      <trkpt lat="44.46558" lon="6.54898">
        <ele>1925</ele>
        <time>2021-04-08T11:19:20Z</time>
      </trkpt>
      <trkpt lat="44.46558" lon="6.54898">
        <ele>1925</ele>
        <time>2021-04-08T11:19:21Z</time>
      </trkpt>
      <trkpt lat="44.46558" lon="6.54898">
        <ele>1925</ele>
        <time>2021-04-08T11:19:22Z</time>
      </trkpt>
      <trkpt lat="44.46558" lon="6.54898">
        <ele>1925</ele>
        <time>2021-04-08T11:19:23Z</time>
      </trkpt>
      <trkpt lat="44.46558" lon="6.54898">
        <ele>1925</ele>
        <time>2021-04-08T11:19:24Z</time>
      </trkpt>
      <trkpt lat="44.46558" lon="6.54898">
        <ele>1925</ele>
        <time>2021-04-08T11:19:25Z</time>
      </trkpt>
      <trkpt lat="44.46558" lon="6.54898">
        <ele>1925</ele>
        <time>2021-04-08T11:19:26Z</time>
      </trkpt>
      <trkpt lat="44.46558" lon="6.54898">
        <ele>1925</ele>
        <time>2021-04-08T11:19:27Z</time>
      </trkpt>
      <trkpt lat="44.46558" lon="6.54898">
        <ele>1925</ele>
        <time>2021-04-08T11:19:28Z</time>
      </trkpt>
      <trkpt lat="44.46558" lon="6.54898">
        <ele>1925</ele>
        <time>2021-04-08T11:19:29Z</time>
      </trkpt>
      <trkpt lat="44.46558" lon="6.54898">
        <ele>1925</ele>
        <time>2021-04-08T11:19:30Z</time>
      </trkpt>
      <trkpt lat="44.46558" lon="6.54898">
        <ele>1925</ele>
        <time>2021-04-08T11:19:31Z</time>
      </trkpt>
      <trkpt lat="44.46558" lon="6.54898">
        <ele>1925</ele>
        <time>2021-04-08T11:19:32Z</time>
      </trkpt>
      <trkpt lat="44.46558" lon="6.54898">
        <ele>1925</ele>
        <time>2021-04-08T11:19:33Z</time>
      </trkpt>
      <trkpt lat="44.46558" lon="6.54898">
        <ele>1925</ele>
        <time>2021-04-08T11:19:34Z</time>
      </trkpt>
      <trkpt lat="44.46558" lon="6.54898">
        <ele>1925</ele>
        <time>2021-04-08T11:19:35Z</time>
      </trkpt>
      <trkpt lat="44.46558" lon="6.54898">
        <ele>1925</ele>
        <time>2021-04-08T11:19:36Z</time>
      </trkpt>
      <trkpt lat="44.46558" lon="6.54898">
        <ele>1925</ele>
        <time>2021-04-08T11:19:37Z</time>
      </trkpt>
      <trkpt lat="44.46558" lon="6.54898">
        <ele>1925</ele>
        <time>2021-04-08T11:19:38Z</time>
      </trkpt>
      <trkpt lat="44.46558" lon="6.54898">
        <ele>1925</ele>
        <time>2021-04-08T11:19:39Z</time>
      </trkpt>
      <trkpt lat="44.46558" lon="6.54898">
        <ele>1925</ele>
        <time>2021-04-08T11:19:40Z</time>
      </trkpt>
      <trkpt lat="44.46558" lon="6.54898">
        <ele>1925</ele>
        <time>2021-04-08T11:19:41Z</time>
      </trkpt>
      <trkpt lat="44.46558" lon="6.54898">
        <ele>1925</ele>
        <time>2021-04-08T11:19:42Z</time>
      </trkpt>
      <trkpt lat="44.46558" lon="6.54898">
        <ele>1925</ele>
        <time>2021-04-08T11:19:43Z</time>
      </trkpt>
      <trkpt lat="44.46558" lon="6.54898">
        <ele>1925</ele>
        <time>2021-04-08T11:19:44Z</time>
      </trkpt>
      <trkpt lat="44.46558" lon="6.54898">
        <ele>1925</ele>
        <time>2021-04-08T11:19:45Z</time>
      </trkpt>
      <trkpt lat="44.46558" lon="6.54898">
        <ele>1925</ele>
        <time>2021-04-08T11:19:46Z</time>
      </trkpt>
      <trkpt lat="44.46558" lon="6.54898">
        <ele>1925</ele>
        <time>2021-04-08T11:19:47Z</time>
      </trkpt>
      <trkpt lat="44.46558" lon="6.54898">
        <ele>1925</ele>
        <time>2021-04-08T11:19:48Z</time>
      </trkpt>
      <trkpt lat="44.46558" lon="6.54898">
        <ele>1925</ele>
        <time>2021-04-08T11:19:49Z</time>
      </trkpt>
      <trkpt lat="44.46558" lon="6.54898">
        <ele>1925</ele>
        <time>2021-04-08T11:19:50Z</time>
      </trkpt>
      <trkpt lat="44.46558" lon="6.54898">
        <ele>1925</ele>
        <time>2021-04-08T11:19:51Z</time>
      </trkpt>
      <trkpt lat="44.46558" lon="6.54898">
        <ele>1925</ele>
        <time>2021-04-08T11:19:52Z</time>
      </trkpt>
      <trkpt lat="44.46558" lon="6.54898">
        <ele>1925</ele>
        <time>2021-04-08T11:19:53Z</time>
      </trkpt>
      <trkpt lat="44.46558" lon="6.54898">
        <ele>1925</ele>
        <time>2021-04-08T11:19:54Z</time>
      </trkpt>
      <trkpt lat="44.46558" lon="6.54898">
        <ele>1925</ele>
        <time>2021-04-08T11:19:55Z</time>
      </trkpt>
      <trkpt lat="44.46558" lon="6.54898">
        <ele>1925</ele>
        <time>2021-04-08T11:19:56Z</time>
      </trkpt>
      <trkpt lat="44.46558" lon="6.54898">
        <ele>1925</ele>
        <time>2021-04-08T11:19:57Z</time>
      </trkpt>
      <trkpt lat="44.46558" lon="6.54898">
        <ele>1925</ele>
        <time>2021-04-08T11:19:58Z</time>
      </trkpt>
      <trkpt lat="44.46558" lon="6.54898">
        <ele>1925</ele>
        <time>2021-04-08T11:19:59Z</time>
      </trkpt>
      <trkpt lat="44.46558" lon="6.54898">
        <ele>1925</ele>
        <time>2021-04-08T11:20:00Z</time>
      </trkpt>
      <trkpt lat="44.46558" lon="6.54898">
        <ele>1925</ele>
        <time>2021-04-08T11:20:01Z</time>
      </trkpt>
      <trkpt lat="44.46558" lon="6.54898">
        <ele>1925</ele>
        <time>2021-04-08T11:20:02Z</time>
      </trkpt>
      <trkpt lat="44.46558" lon="6.54898">
        <ele>1925</ele>
        <time>2021-04-08T11:20:03Z</time>
      </trkpt>
      <trkpt lat="44.46558" lon="6.54898">
        <ele>1925</ele>
        <time>2021-04-08T11:20:04Z</time>
      </trkpt>
      <trkpt lat="44.46558" lon="6.54898">
        <ele>1925</ele>
        <time>2021-04-08T11:20:05Z</time>
      </trkpt>
      <trkpt lat="44.46558" lon="6.54898">
        <ele>1925</ele>
        <time>2021-04-08T11:20:06Z</time>
      </trkpt>
      <trkpt lat="44.46558" lon="6.54898">
        <ele>1925</ele>
        <time>2021-04-08T11:20:07Z</time>
      </trkpt>
      <trkpt lat="44.46558" lon="6.54898">
        <ele>1925</ele>
        <time>2021-04-08T11:20:08Z</time>
      </trkpt>
      <trkpt lat="44.46558" lon="6.54898">
        <ele>1925</ele>
        <time>2021-04-08T11:20:09Z</time>
      </trkpt>
      <trkpt lat="44.46558" lon="6.54898">
        <ele>1925</ele>
        <time>2021-04-08T11:20:10Z</time>
      </trkpt>
      <trkpt lat="44.46558" lon="6.54898">
        <ele>1925</ele>
        <time>2021-04-08T11:20:11Z</time>
      </trkpt>
      <trkpt lat="44.46558" lon="6.54898">
        <ele>1925</ele>
        <time>2021-04-08T11:20:12Z</time>
      </trkpt>
      <trkpt lat="44.46558" lon="6.54898">
        <ele>1925</ele>
        <time>2021-04-08T11:20:13Z</time>
      </trkpt>
      <trkpt lat="44.46558" lon="6.54898">
        <ele>1925</ele>
        <time>2021-04-08T11:20:14Z</time>
      </trkpt>
      <trkpt lat="44.46558" lon="6.54898">
        <ele>1925</ele>
        <time>2021-04-08T11:20:15Z</time>
      </trkpt>
      <trkpt lat="44.46558" lon="6.54898">
        <ele>1925</ele>
        <time>2021-04-08T11:20:16Z</time>
      </trkpt>
      <trkpt lat="44.46558" lon="6.54898">
        <ele>1925</ele>
        <time>2021-04-08T11:20:17Z</time>
      </trkpt>
      <trkpt lat="44.46558" lon="6.54898">
        <ele>1925</ele>
        <time>2021-04-08T11:20:18Z</time>
      </trkpt>
      <trkpt lat="44.46558" lon="6.54898">
        <ele>1925</ele>
        <time>2021-04-08T11:20:19Z</time>
      </trkpt>
      <trkpt lat="44.46558" lon="6.54898">
        <ele>1925</ele>
        <time>2021-04-08T11:20:20Z</time>
      </trkpt>
      <trkpt lat="44.46558" lon="6.54898">
        <ele>1925</ele>
        <time>2021-04-08T11:20:21Z</time>
      </trkpt>
      <trkpt lat="44.46558" lon="6.54898">
        <ele>1925</ele>
        <time>2021-04-08T11:20:22Z</time>
      </trkpt>
      <trkpt lat="44.46558" lon="6.54898">
        <ele>1925</ele>
        <time>2021-04-08T11:20:23Z</time>
      </trkpt>
      <trkpt lat="44.46558" lon="6.54898">
        <ele>1925</ele>
        <time>2021-04-08T11:20:24Z</time>
      </trkpt>
      <trkpt lat="44.46558" lon="6.54898">
        <ele>1925</ele>
        <time>2021-04-08T11:20:25Z</time>
      </trkpt>
      <trkpt lat="44.46558" lon="6.54898">
        <ele>1925</ele>
        <time>2021-04-08T11:20:26Z</time>
      </trkpt>
      <trkpt lat="44.46558" lon="6.54898">
        <ele>1925</ele>
        <time>2021-04-08T11:20:27Z</time>
      </trkpt>
      <trkpt lat="44.46558" lon="6.54898">
        <ele>1925</ele>
        <time>2021-04-08T11:20:28Z</time>
      </trkpt>
      <trkpt lat="44.46558" lon="6.54898">
        <ele>1925</ele>
        <time>2021-04-08T11:20:29Z</time>
      </trkpt>
      <trkpt lat="44.46558" lon="6.54898">
        <ele>1925</ele>
        <time>2021-04-08T11:20:30Z</time>
      </trkpt>
      <trkpt lat="44.46558" lon="6.54898">
        <ele>1925</ele>
        <time>2021-04-08T11:20:31Z</time>
      </trkpt>
      <trkpt lat="44.46558" lon="6.54898">
        <ele>1925</ele>
        <time>2021-04-08T11:20:32Z</time>
      </trkpt>
      <trkpt lat="44.46558" lon="6.54898">
        <ele>1925</ele>
        <time>2021-04-08T11:20:33Z</time>
      </trkpt>
      <trkpt lat="44.46571" lon="6.54895">
        <ele>1927</ele>
        <time>2021-04-08T11:20:34Z</time>
      </trkpt>
      <trkpt lat="44.46571" lon="6.54895">
        <ele>1928</ele>
        <time>2021-04-08T11:20:35Z</time>
      </trkpt>
      <trkpt lat="44.46572" lon="6.54895">
        <ele>1928</ele>
        <time>2021-04-08T11:20:36Z</time>
      </trkpt>
      <trkpt lat="44.46572" lon="6.54895">
        <ele>1928</ele>
        <time>2021-04-08T11:20:37Z</time>
      </trkpt>
      <trkpt lat="44.46572" lon="6.54895">
        <ele>1928</ele>
        <time>2021-04-08T11:20:38Z</time>
      </trkpt>
      <trkpt lat="44.46572" lon="6.54895">
        <ele>1928</ele>
        <time>2021-04-08T11:20:39Z</time>
      </trkpt>
      <trkpt lat="44.46572" lon="6.54895">
        <ele>1928</ele>
        <time>2021-04-08T11:20:40Z</time>
      </trkpt>
      <trkpt lat="44.46572" lon="6.54895">
        <ele>1928</ele>
        <time>2021-04-08T11:20:41Z</time>
      </trkpt>
      <trkpt lat="44.46572" lon="6.54895">
        <ele>1928</ele>
        <time>2021-04-08T11:20:42Z</time>
      </trkpt>
      <trkpt lat="44.46572" lon="6.54895">
        <ele>1928</ele>
        <time>2021-04-08T11:20:43Z</time>
      </trkpt>
      <trkpt lat="44.46572" lon="6.54895">
        <ele>1928</ele>
        <time>2021-04-08T11:20:44Z</time>
      </trkpt>
      <trkpt lat="44.46572" lon="6.54895">
        <ele>1928</ele>
        <time>2021-04-08T11:20:45Z</time>
      </trkpt>
      <trkpt lat="44.46572" lon="6.54895">
        <ele>1928</ele>
        <time>2021-04-08T11:20:46Z</time>
      </trkpt>
      <trkpt lat="44.46572" lon="6.54895">
        <ele>1928</ele>
        <time>2021-04-08T11:20:47Z</time>
      </trkpt>
      <trkpt lat="44.46572" lon="6.54895">
        <ele>1928</ele>
        <time>2021-04-08T11:20:48Z</time>
      </trkpt>
      <trkpt lat="44.46572" lon="6.54895">
        <ele>1928</ele>
        <time>2021-04-08T11:20:49Z</time>
      </trkpt>
      <trkpt lat="44.46572" lon="6.54895">
        <ele>1928</ele>
        <time>2021-04-08T11:20:50Z</time>
      </trkpt>
      <trkpt lat="44.46572" lon="6.54895">
        <ele>1928</ele>
        <time>2021-04-08T11:20:51Z</time>
      </trkpt>
      <trkpt lat="44.46572" lon="6.54895">
        <ele>1928</ele>
        <time>2021-04-08T11:20:52Z</time>
      </trkpt>
      <trkpt lat="44.46572" lon="6.54895">
        <ele>1928</ele>
        <time>2021-04-08T11:20:53Z</time>
      </trkpt>
      <trkpt lat="44.46572" lon="6.54895">
        <ele>1928</ele>
        <time>2021-04-08T11:20:54Z</time>
      </trkpt>
      <trkpt lat="44.46572" lon="6.54895">
        <ele>1928</ele>
        <time>2021-04-08T11:20:55Z</time>
      </trkpt>
      <trkpt lat="44.46572" lon="6.54895">
        <ele>1928</ele>
        <time>2021-04-08T11:20:56Z</time>
      </trkpt>
      <trkpt lat="44.46572" lon="6.54895">
        <ele>1928</ele>
        <time>2021-04-08T11:20:57Z</time>
      </trkpt>
      <trkpt lat="44.46572" lon="6.54895">
        <ele>1928</ele>
        <time>2021-04-08T11:20:58Z</time>
      </trkpt>
      <trkpt lat="44.46572" lon="6.54895">
        <ele>1928</ele>
        <time>2021-04-08T11:20:59Z</time>
      </trkpt>
      <trkpt lat="44.46572" lon="6.54895">
        <ele>1928</ele>
        <time>2021-04-08T11:21:00Z</time>
      </trkpt>
      <trkpt lat="44.46572" lon="6.54895">
        <ele>1928</ele>
        <time>2021-04-08T11:21:01Z</time>
      </trkpt>
      <trkpt lat="44.46572" lon="6.54895">
        <ele>1928</ele>
        <time>2021-04-08T11:21:02Z</time>
      </trkpt>
      <trkpt lat="44.46572" lon="6.54895">
        <ele>1928</ele>
        <time>2021-04-08T11:21:03Z</time>
      </trkpt>
      <trkpt lat="44.46572" lon="6.54895">
        <ele>1928</ele>
        <time>2021-04-08T11:21:04Z</time>
      </trkpt>
      <trkpt lat="44.46572" lon="6.54895">
        <ele>1928</ele>
        <time>2021-04-08T11:21:05Z</time>
      </trkpt>
      <trkpt lat="44.46572" lon="6.54895">
        <ele>1928</ele>
        <time>2021-04-08T11:21:06Z</time>
      </trkpt>
      <trkpt lat="44.46572" lon="6.54895">
        <ele>1928</ele>
        <time>2021-04-08T11:21:07Z</time>
      </trkpt>
      <trkpt lat="44.46572" lon="6.54895">
        <ele>1928</ele>
        <time>2021-04-08T11:21:08Z</time>
      </trkpt>
      <trkpt lat="44.46572" lon="6.54895">
        <ele>1928</ele>
        <time>2021-04-08T11:21:09Z</time>
      </trkpt>
      <trkpt lat="44.46572" lon="6.54895">
        <ele>1928</ele>
        <time>2021-04-08T11:21:10Z</time>
      </trkpt>
      <trkpt lat="44.46572" lon="6.54895">
        <ele>1928</ele>
        <time>2021-04-08T11:21:11Z</time>
      </trkpt>
      <trkpt lat="44.46572" lon="6.54895">
        <ele>1928</ele>
        <time>2021-04-08T11:21:12Z</time>
      </trkpt>
      <trkpt lat="44.46572" lon="6.54895">
        <ele>1928</ele>
        <time>2021-04-08T11:21:13Z</time>
      </trkpt>
      <trkpt lat="44.46572" lon="6.54895">
        <ele>1928</ele>
        <time>2021-04-08T11:21:14Z</time>
      </trkpt>
      <trkpt lat="44.46572" lon="6.54895">
        <ele>1928</ele>
        <time>2021-04-08T11:21:15Z</time>
      </trkpt>
      <trkpt lat="44.46572" lon="6.54895">
        <ele>1928</ele>
        <time>2021-04-08T11:21:16Z</time>
      </trkpt>
      <trkpt lat="44.46572" lon="6.54895">
        <ele>1928</ele>
        <time>2021-04-08T11:21:17Z</time>
      </trkpt>
      <trkpt lat="44.46572" lon="6.54895">
        <ele>1928</ele>
        <time>2021-04-08T11:21:18Z</time>
      </trkpt>
      <trkpt lat="44.46572" lon="6.54895">
        <ele>1928</ele>
        <time>2021-04-08T11:21:19Z</time>
      </trkpt>
      <trkpt lat="44.46572" lon="6.54895">
        <ele>1928</ele>
        <time>2021-04-08T11:21:20Z</time>
      </trkpt>
      <trkpt lat="44.46572" lon="6.54895">
        <ele>1928</ele>
        <time>2021-04-08T11:21:21Z</time>
      </trkpt>
      <trkpt lat="44.46572" lon="6.54895">
        <ele>1928</ele>
        <time>2021-04-08T11:21:22Z</time>
      </trkpt>
      <trkpt lat="44.46572" lon="6.54895">
        <ele>1928</ele>
        <time>2021-04-08T11:21:23Z</time>
      </trkpt>
      <trkpt lat="44.46572" lon="6.54895">
        <ele>1928</ele>
        <time>2021-04-08T11:21:24Z</time>
      </trkpt>
      <trkpt lat="44.46572" lon="6.54895">
        <ele>1928</ele>
        <time>2021-04-08T11:21:25Z</time>
      </trkpt>
      <trkpt lat="44.46572" lon="6.54895">
        <ele>1928</ele>
        <time>2021-04-08T11:21:26Z</time>
      </trkpt>
      <trkpt lat="44.46572" lon="6.54895">
        <ele>1928</ele>
        <time>2021-04-08T11:21:27Z</time>
      </trkpt>
      <trkpt lat="44.46577" lon="6.54895">
        <ele>1925</ele>
        <time>2021-04-08T11:21:28Z</time>
      </trkpt>
      <trkpt lat="44.46577" lon="6.54896">
        <ele>1924</ele>
        <time>2021-04-08T11:21:29Z</time>
      </trkpt>
      <trkpt lat="44.46576" lon="6.54898">
        <ele>1923</ele>
        <time>2021-04-08T11:21:30Z</time>
      </trkpt>
      <trkpt lat="44.46576" lon="6.54897">
        <ele>1923</ele>
        <time>2021-04-08T11:21:31Z</time>
      </trkpt>
      <trkpt lat="44.46577" lon="6.54897">
        <ele>1922</ele>
        <time>2021-04-08T11:21:32Z</time>
      </trkpt>
      <trkpt lat="44.46577" lon="6.54898">
        <ele>1921</ele>
        <time>2021-04-08T11:21:33Z</time>
      </trkpt>
      <trkpt lat="44.46577" lon="6.54898">
        <ele>1921</ele>
        <time>2021-04-08T11:21:34Z</time>
      </trkpt>
      <trkpt lat="44.46577" lon="6.54899">
        <ele>1921</ele>
        <time>2021-04-08T11:21:35Z</time>
      </trkpt>
      <trkpt lat="44.46577" lon="6.54899">
        <ele>1920</ele>
        <time>2021-04-08T11:21:36Z</time>
      </trkpt>
      <trkpt lat="44.46577" lon="6.54899">
        <ele>1920</ele>
        <time>2021-04-08T11:21:37Z</time>
      </trkpt>
      <trkpt lat="44.46577" lon="6.54899">
        <ele>1920</ele>
        <time>2021-04-08T11:21:38Z</time>
      </trkpt>
      <trkpt lat="44.46577" lon="6.54899">
        <ele>1920</ele>
        <time>2021-04-08T11:21:39Z</time>
      </trkpt>
      <trkpt lat="44.46577" lon="6.54899">
        <ele>1919</ele>
        <time>2021-04-08T11:21:40Z</time>
      </trkpt>
      <trkpt lat="44.46577" lon="6.54899">
        <ele>1919</ele>
        <time>2021-04-08T11:21:41Z</time>
      </trkpt>
      <trkpt lat="44.46577" lon="6.54899">
        <ele>1919</ele>
        <time>2021-04-08T11:21:42Z</time>
      </trkpt>
      <trkpt lat="44.46577" lon="6.54899">
        <ele>1919</ele>
        <time>2021-04-08T11:21:43Z</time>
      </trkpt>
      <trkpt lat="44.46577" lon="6.54899">
        <ele>1919</ele>
        <time>2021-04-08T11:21:44Z</time>
      </trkpt>
      <trkpt lat="44.46577" lon="6.54899">
        <ele>1919</ele>
        <time>2021-04-08T11:21:45Z</time>
      </trkpt>
      <trkpt lat="44.46577" lon="6.54899">
        <ele>1919</ele>
        <time>2021-04-08T11:21:46Z</time>
      </trkpt>
      <trkpt lat="44.46577" lon="6.54899">
        <ele>1919</ele>
        <time>2021-04-08T11:21:47Z</time>
      </trkpt>
      <trkpt lat="44.46575" lon="6.54911">
        <ele>1915</ele>
        <time>2021-04-08T11:21:48Z</time>
      </trkpt>
      <trkpt lat="44.46576" lon="6.54914">
        <ele>1914</ele>
        <time>2021-04-08T11:21:49Z</time>
      </trkpt>
      <trkpt lat="44.46577" lon="6.54914">
        <ele>1913</ele>
        <time>2021-04-08T11:21:50Z</time>
      </trkpt>
      <trkpt lat="44.46578" lon="6.54913">
        <ele>1912</ele>
        <time>2021-04-08T11:21:51Z</time>
      </trkpt>
      <trkpt lat="44.4658" lon="6.54908">
        <ele>1911</ele>
        <time>2021-04-08T11:21:52Z</time>
      </trkpt>
      <trkpt lat="44.46584" lon="6.54903">
        <ele>1909</ele>
        <time>2021-04-08T11:21:53Z</time>
      </trkpt>
      <trkpt lat="44.46585" lon="6.54898">
        <ele>1908</ele>
        <time>2021-04-08T11:21:54Z</time>
      </trkpt>
      <trkpt lat="44.46586" lon="6.54894">
        <ele>1907</ele>
        <time>2021-04-08T11:21:55Z</time>
      </trkpt>
      <trkpt lat="44.46586" lon="6.54894">
        <ele>1906</ele>
        <time>2021-04-08T11:21:56Z</time>
      </trkpt>
      <trkpt lat="44.46585" lon="6.54893">
        <ele>1905</ele>
        <time>2021-04-08T11:21:57Z</time>
      </trkpt>
      <trkpt lat="44.46585" lon="6.54893">
        <ele>1905</ele>
        <time>2021-04-08T11:21:58Z</time>
      </trkpt>
      <trkpt lat="44.46585" lon="6.54893">
        <ele>1905</ele>
        <time>2021-04-08T11:21:59Z</time>
      </trkpt>
      <trkpt lat="44.46585" lon="6.54893">
        <ele>1904</ele>
        <time>2021-04-08T11:22:00Z</time>
      </trkpt>
      <trkpt lat="44.46585" lon="6.54893">
        <ele>1904</ele>
        <time>2021-04-08T11:22:01Z</time>
      </trkpt>
      <trkpt lat="44.46585" lon="6.54893">
        <ele>1904</ele>
        <time>2021-04-08T11:22:02Z</time>
      </trkpt>
      <trkpt lat="44.46585" lon="6.54893">
        <ele>1904</ele>
        <time>2021-04-08T11:22:03Z</time>
      </trkpt>
      <trkpt lat="44.46585" lon="6.54893">
        <ele>1904</ele>
        <time>2021-04-08T11:22:04Z</time>
      </trkpt>
      <trkpt lat="44.46585" lon="6.54893">
        <ele>1904</ele>
        <time>2021-04-08T11:22:05Z</time>
      </trkpt>
      <trkpt lat="44.46585" lon="6.54893">
        <ele>1904</ele>
        <time>2021-04-08T11:22:06Z</time>
      </trkpt>
      <trkpt lat="44.46585" lon="6.54893">
        <ele>1904</ele>
        <time>2021-04-08T11:22:07Z</time>
      </trkpt>
      <trkpt lat="44.46585" lon="6.54893">
        <ele>1904</ele>
        <time>2021-04-08T11:22:08Z</time>
      </trkpt>
      <trkpt lat="44.46585" lon="6.54893">
        <ele>1904</ele>
        <time>2021-04-08T11:22:09Z</time>
      </trkpt>
      <trkpt lat="44.46585" lon="6.54893">
        <ele>1904</ele>
        <time>2021-04-08T11:22:10Z</time>
      </trkpt>
      <trkpt lat="44.46585" lon="6.54893">
        <ele>1904</ele>
        <time>2021-04-08T11:22:11Z</time>
      </trkpt>
      <trkpt lat="44.46585" lon="6.54893">
        <ele>1904</ele>
        <time>2021-04-08T11:22:12Z</time>
      </trkpt>
      <trkpt lat="44.46585" lon="6.54893">
        <ele>1904</ele>
        <time>2021-04-08T11:22:13Z</time>
      </trkpt>
      <trkpt lat="44.46585" lon="6.54893">
        <ele>1904</ele>
        <time>2021-04-08T11:22:14Z</time>
      </trkpt>
      <trkpt lat="44.46585" lon="6.54893">
        <ele>1903</ele>
        <time>2021-04-08T11:22:15Z</time>
      </trkpt>
      <trkpt lat="44.46585" lon="6.54893">
        <ele>1903</ele>
        <time>2021-04-08T11:22:16Z</time>
      </trkpt>
      <trkpt lat="44.46585" lon="6.54893">
        <ele>1903</ele>
        <time>2021-04-08T11:22:17Z</time>
      </trkpt>
      <trkpt lat="44.46585" lon="6.54893">
        <ele>1903</ele>
        <time>2021-04-08T11:22:18Z</time>
      </trkpt>
      <trkpt lat="44.46585" lon="6.54893">
        <ele>1903</ele>
        <time>2021-04-08T11:22:19Z</time>
      </trkpt>
      <trkpt lat="44.46585" lon="6.54893">
        <ele>1903</ele>
        <time>2021-04-08T11:22:20Z</time>
      </trkpt>
      <trkpt lat="44.46585" lon="6.54893">
        <ele>1903</ele>
        <time>2021-04-08T11:22:21Z</time>
      </trkpt>
      <trkpt lat="44.46585" lon="6.54893">
        <ele>1903</ele>
        <time>2021-04-08T11:22:22Z</time>
      </trkpt>
      <trkpt lat="44.46585" lon="6.54893">
        <ele>1903</ele>
        <time>2021-04-08T11:22:23Z</time>
      </trkpt>
      <trkpt lat="44.46585" lon="6.54893">
        <ele>1903</ele>
        <time>2021-04-08T11:22:24Z</time>
      </trkpt>
      <trkpt lat="44.46585" lon="6.54893">
        <ele>1903</ele>
        <time>2021-04-08T11:22:25Z</time>
      </trkpt>
      <trkpt lat="44.46585" lon="6.54893">
        <ele>1903</ele>
        <time>2021-04-08T11:22:26Z</time>
      </trkpt>
      <trkpt lat="44.46585" lon="6.54893">
        <ele>1903</ele>
        <time>2021-04-08T11:22:27Z</time>
      </trkpt>
      <trkpt lat="44.46585" lon="6.54893">
        <ele>1903</ele>
        <time>2021-04-08T11:22:28Z</time>
      </trkpt>
      <trkpt lat="44.46585" lon="6.54893">
        <ele>1903</ele>
        <time>2021-04-08T11:22:29Z</time>
      </trkpt>
      <trkpt lat="44.46585" lon="6.54893">
        <ele>1903</ele>
        <time>2021-04-08T11:22:30Z</time>
      </trkpt>
      <trkpt lat="44.46585" lon="6.54893">
        <ele>1903</ele>
        <time>2021-04-08T11:22:31Z</time>
      </trkpt>
      <trkpt lat="44.46585" lon="6.54893">
        <ele>1903</ele>
        <time>2021-04-08T11:22:32Z</time>
      </trkpt>
      <trkpt lat="44.46585" lon="6.54893">
        <ele>1903</ele>
        <time>2021-04-08T11:22:33Z</time>
      </trkpt>
      <trkpt lat="44.46585" lon="6.54893">
        <ele>1903</ele>
        <time>2021-04-08T11:22:34Z</time>
      </trkpt>
      <trkpt lat="44.46585" lon="6.54893">
        <ele>1903</ele>
        <time>2021-04-08T11:22:35Z</time>
      </trkpt>
      <trkpt lat="44.46585" lon="6.54893">
        <ele>1903</ele>
        <time>2021-04-08T11:22:36Z</time>
      </trkpt>
      <trkpt lat="44.46585" lon="6.54893">
        <ele>1903</ele>
        <time>2021-04-08T11:22:37Z</time>
      </trkpt>
      <trkpt lat="44.46585" lon="6.54893">
        <ele>1903</ele>
        <time>2021-04-08T11:22:38Z</time>
      </trkpt>
      <trkpt lat="44.46585" lon="6.54893">
        <ele>1903</ele>
        <time>2021-04-08T11:22:39Z</time>
      </trkpt>
      <trkpt lat="44.46585" lon="6.54893">
        <ele>1903</ele>
        <time>2021-04-08T11:22:40Z</time>
      </trkpt>
      <trkpt lat="44.46585" lon="6.54893">
        <ele>1903</ele>
        <time>2021-04-08T11:22:41Z</time>
      </trkpt>
      <trkpt lat="44.46585" lon="6.54893">
        <ele>1903</ele>
        <time>2021-04-08T11:22:42Z</time>
      </trkpt>
      <trkpt lat="44.46585" lon="6.54893">
        <ele>1903</ele>
        <time>2021-04-08T11:22:43Z</time>
      </trkpt>
      <trkpt lat="44.46585" lon="6.54893">
        <ele>1903</ele>
        <time>2021-04-08T11:22:44Z</time>
      </trkpt>
      <trkpt lat="44.46585" lon="6.54893">
        <ele>1903</ele>
        <time>2021-04-08T11:22:45Z</time>
      </trkpt>
      <trkpt lat="44.46585" lon="6.54893">
        <ele>1903</ele>
        <time>2021-04-08T11:22:46Z</time>
      </trkpt>
      <trkpt lat="44.46585" lon="6.54893">
        <ele>1903</ele>
        <time>2021-04-08T11:22:47Z</time>
      </trkpt>
      <trkpt lat="44.46585" lon="6.54893">
        <ele>1903</ele>
        <time>2021-04-08T11:22:48Z</time>
      </trkpt>
      <trkpt lat="44.46585" lon="6.54893">
        <ele>1903</ele>
        <time>2021-04-08T11:22:49Z</time>
      </trkpt>
      <trkpt lat="44.46585" lon="6.54893">
        <ele>1903</ele>
        <time>2021-04-08T11:22:50Z</time>
      </trkpt>
      <trkpt lat="44.46585" lon="6.54893">
        <ele>1903</ele>
        <time>2021-04-08T11:22:51Z</time>
      </trkpt>
      <trkpt lat="44.46585" lon="6.54893">
        <ele>1903</ele>
        <time>2021-04-08T11:22:52Z</time>
      </trkpt>
      <trkpt lat="44.46585" lon="6.54893">
        <ele>1903</ele>
        <time>2021-04-08T11:22:53Z</time>
      </trkpt>
      <trkpt lat="44.46585" lon="6.54893">
        <ele>1903</ele>
        <time>2021-04-08T11:22:54Z</time>
      </trkpt>
      <trkpt lat="44.46582" lon="6.54905">
        <ele>1903</ele>
        <time>2021-04-08T11:22:55Z</time>
      </trkpt>
      <trkpt lat="44.46582" lon="6.54906">
        <ele>1902</ele>
        <time>2021-04-08T11:22:56Z</time>
      </trkpt>
      <trkpt lat="44.46582" lon="6.54906">
        <ele>1902</ele>
        <time>2021-04-08T11:22:57Z</time>
      </trkpt>
      <trkpt lat="44.46582" lon="6.54906">
        <ele>1902</ele>
        <time>2021-04-08T11:22:58Z</time>
      </trkpt>
      <trkpt lat="44.46582" lon="6.54906">
        <ele>1902</ele>
        <time>2021-04-08T11:22:59Z</time>
      </trkpt>
      <trkpt lat="44.46582" lon="6.54906">
        <ele>1902</ele>
        <time>2021-04-08T11:23:00Z</time>
      </trkpt>
      <trkpt lat="44.46582" lon="6.54906">
        <ele>1902</ele>
        <time>2021-04-08T11:23:01Z</time>
      </trkpt>
      <trkpt lat="44.46582" lon="6.54906">
        <ele>1902</ele>
        <time>2021-04-08T11:23:02Z</time>
      </trkpt>
      <trkpt lat="44.46582" lon="6.54906">
        <ele>1902</ele>
        <time>2021-04-08T11:23:03Z</time>
      </trkpt>
      <trkpt lat="44.46582" lon="6.54906">
        <ele>1902</ele>
        <time>2021-04-08T11:23:04Z</time>
      </trkpt>
      <trkpt lat="44.46582" lon="6.54906">
        <ele>1902</ele>
        <time>2021-04-08T11:23:05Z</time>
      </trkpt>
      <trkpt lat="44.46582" lon="6.54906">
        <ele>1902</ele>
        <time>2021-04-08T11:23:06Z</time>
      </trkpt>
      <trkpt lat="44.46582" lon="6.54906">
        <ele>1902</ele>
        <time>2021-04-08T11:23:07Z</time>
      </trkpt>
      <trkpt lat="44.46582" lon="6.54906">
        <ele>1902</ele>
        <time>2021-04-08T11:23:08Z</time>
      </trkpt>
      <trkpt lat="44.46582" lon="6.54906">
        <ele>1902</ele>
        <time>2021-04-08T11:23:09Z</time>
      </trkpt>
      <trkpt lat="44.46582" lon="6.54906">
        <ele>1902</ele>
        <time>2021-04-08T11:23:10Z</time>
      </trkpt>
      <trkpt lat="44.46582" lon="6.54906">
        <ele>1902</ele>
        <time>2021-04-08T11:23:11Z</time>
      </trkpt>
      <trkpt lat="44.46582" lon="6.54906">
        <ele>1902</ele>
        <time>2021-04-08T11:23:12Z</time>
      </trkpt>
      <trkpt lat="44.46582" lon="6.54906">
        <ele>1902</ele>
        <time>2021-04-08T11:23:13Z</time>
      </trkpt>
      <trkpt lat="44.46582" lon="6.54906">
        <ele>1902</ele>
        <time>2021-04-08T11:23:14Z</time>
      </trkpt>
      <trkpt lat="44.46582" lon="6.54906">
        <ele>1902</ele>
        <time>2021-04-08T11:23:15Z</time>
      </trkpt>
      <trkpt lat="44.46582" lon="6.54906">
        <ele>1902</ele>
        <time>2021-04-08T11:23:16Z</time>
      </trkpt>
      <trkpt lat="44.46582" lon="6.54906">
        <ele>1902</ele>
        <time>2021-04-08T11:23:17Z</time>
      </trkpt>
      <trkpt lat="44.46582" lon="6.54906">
        <ele>1902</ele>
        <time>2021-04-08T11:23:18Z</time>
      </trkpt>
      <trkpt lat="44.46582" lon="6.54906">
        <ele>1902</ele>
        <time>2021-04-08T11:23:19Z</time>
      </trkpt>
      <trkpt lat="44.46582" lon="6.54906">
        <ele>1902</ele>
        <time>2021-04-08T11:23:20Z</time>
      </trkpt>
      <trkpt lat="44.46582" lon="6.54906">
        <ele>1902</ele>
        <time>2021-04-08T11:23:21Z</time>
      </trkpt>
      <trkpt lat="44.46582" lon="6.54906">
        <ele>1902</ele>
        <time>2021-04-08T11:23:22Z</time>
      </trkpt>
      <trkpt lat="44.46582" lon="6.54906">
        <ele>1902</ele>
        <time>2021-04-08T11:23:23Z</time>
      </trkpt>
      <trkpt lat="44.46582" lon="6.54906">
        <ele>1902</ele>
        <time>2021-04-08T11:23:24Z</time>
      </trkpt>
      <trkpt lat="44.46582" lon="6.54906">
        <ele>1902</ele>
        <time>2021-04-08T11:23:25Z</time>
      </trkpt>
      <trkpt lat="44.46582" lon="6.54906">
        <ele>1902</ele>
        <time>2021-04-08T11:23:26Z</time>
      </trkpt>
      <trkpt lat="44.46582" lon="6.54906">
        <ele>1902</ele>
        <time>2021-04-08T11:23:27Z</time>
      </trkpt>
      <trkpt lat="44.46582" lon="6.54906">
        <ele>1902</ele>
        <time>2021-04-08T11:23:28Z</time>
      </trkpt>
      <trkpt lat="44.46582" lon="6.54906">
        <ele>1902</ele>
        <time>2021-04-08T11:23:29Z</time>
      </trkpt>
      <trkpt lat="44.46582" lon="6.54906">
        <ele>1902</ele>
        <time>2021-04-08T11:23:30Z</time>
      </trkpt>
      <trkpt lat="44.46582" lon="6.54906">
        <ele>1902</ele>
        <time>2021-04-08T11:23:31Z</time>
      </trkpt>
      <trkpt lat="44.46582" lon="6.54906">
        <ele>1902</ele>
        <time>2021-04-08T11:23:32Z</time>
      </trkpt>
      <trkpt lat="44.46582" lon="6.54906">
        <ele>1902</ele>
        <time>2021-04-08T11:23:33Z</time>
      </trkpt>
      <trkpt lat="44.46582" lon="6.54906">
        <ele>1902</ele>
        <time>2021-04-08T11:23:34Z</time>
      </trkpt>
      <trkpt lat="44.46582" lon="6.54906">
        <ele>1902</ele>
        <time>2021-04-08T11:23:35Z</time>
      </trkpt>
      <trkpt lat="44.46582" lon="6.54906">
        <ele>1902</ele>
        <time>2021-04-08T11:23:36Z</time>
      </trkpt>
      <trkpt lat="44.46582" lon="6.54906">
        <ele>1902</ele>
        <time>2021-04-08T11:23:37Z</time>
      </trkpt>
      <trkpt lat="44.46582" lon="6.54906">
        <ele>1902</ele>
        <time>2021-04-08T11:23:38Z</time>
      </trkpt>
      <trkpt lat="44.46582" lon="6.54906">
        <ele>1902</ele>
        <time>2021-04-08T11:23:39Z</time>
      </trkpt>
      <trkpt lat="44.46582" lon="6.54906">
        <ele>1902</ele>
        <time>2021-04-08T11:23:40Z</time>
      </trkpt>
      <trkpt lat="44.46582" lon="6.54906">
        <ele>1902</ele>
        <time>2021-04-08T11:23:41Z</time>
      </trkpt>
      <trkpt lat="44.46582" lon="6.54906">
        <ele>1902</ele>
        <time>2021-04-08T11:23:42Z</time>
      </trkpt>
      <trkpt lat="44.46582" lon="6.54906">
        <ele>1902</ele>
        <time>2021-04-08T11:23:43Z</time>
      </trkpt>
      <trkpt lat="44.46582" lon="6.54906">
        <ele>1902</ele>
        <time>2021-04-08T11:23:44Z</time>
      </trkpt>
      <trkpt lat="44.46582" lon="6.54906">
        <ele>1902</ele>
        <time>2021-04-08T11:23:45Z</time>
      </trkpt>
      <trkpt lat="44.46582" lon="6.54906">
        <ele>1902</ele>
        <time>2021-04-08T11:23:46Z</time>
      </trkpt>
      <trkpt lat="44.46582" lon="6.54906">
        <ele>1902</ele>
        <time>2021-04-08T11:23:47Z</time>
      </trkpt>
      <trkpt lat="44.46582" lon="6.54906">
        <ele>1902</ele>
        <time>2021-04-08T11:23:48Z</time>
      </trkpt>
      <trkpt lat="44.46582" lon="6.54906">
        <ele>1902</ele>
        <time>2021-04-08T11:23:49Z</time>
      </trkpt>
      <trkpt lat="44.46582" lon="6.54906">
        <ele>1902</ele>
        <time>2021-04-08T11:23:50Z</time>
      </trkpt>
      <trkpt lat="44.46582" lon="6.54906">
        <ele>1902</ele>
        <time>2021-04-08T11:23:51Z</time>
      </trkpt>
      <trkpt lat="44.46582" lon="6.54906">
        <ele>1902</ele>
        <time>2021-04-08T11:23:52Z</time>
      </trkpt>
      <trkpt lat="44.46582" lon="6.54906">
        <ele>1902</ele>
        <time>2021-04-08T11:23:53Z</time>
      </trkpt>
      <trkpt lat="44.46582" lon="6.54906">
        <ele>1902</ele>
        <time>2021-04-08T11:23:54Z</time>
      </trkpt>
      <trkpt lat="44.46582" lon="6.54906">
        <ele>1902</ele>
        <time>2021-04-08T11:23:55Z</time>
      </trkpt>
      <trkpt lat="44.46582" lon="6.54906">
        <ele>1902</ele>
        <time>2021-04-08T11:23:56Z</time>
      </trkpt>
      <trkpt lat="44.46582" lon="6.54906">
        <ele>1902</ele>
        <time>2021-04-08T11:23:57Z</time>
      </trkpt>
      <trkpt lat="44.46582" lon="6.54906">
        <ele>1902</ele>
        <time>2021-04-08T11:23:58Z</time>
      </trkpt>
      <trkpt lat="44.46582" lon="6.54906">
        <ele>1902</ele>
        <time>2021-04-08T11:23:59Z</time>
      </trkpt>
      <trkpt lat="44.46582" lon="6.54906">
        <ele>1902</ele>
        <time>2021-04-08T11:24:00Z</time>
      </trkpt>
      <trkpt lat="44.46582" lon="6.54906">
        <ele>1902</ele>
        <time>2021-04-08T11:24:01Z</time>
      </trkpt>
      <trkpt lat="44.46582" lon="6.54906">
        <ele>1902</ele>
        <time>2021-04-08T11:24:02Z</time>
      </trkpt>
      <trkpt lat="44.46582" lon="6.54906">
        <ele>1902</ele>
        <time>2021-04-08T11:24:03Z</time>
      </trkpt>
      <trkpt lat="44.46591" lon="6.549">
        <ele>1901</ele>
        <time>2021-04-08T11:24:04Z</time>
      </trkpt>
      <trkpt lat="44.46591" lon="6.54899">
        <ele>1900</ele>
        <time>2021-04-08T11:24:05Z</time>
      </trkpt>
      <trkpt lat="44.46591" lon="6.54897">
        <ele>1899</ele>
        <time>2021-04-08T11:24:06Z</time>
      </trkpt>
      <trkpt lat="44.46592" lon="6.54895">
        <ele>1898</ele>
        <time>2021-04-08T11:24:07Z</time>
      </trkpt>
      <trkpt lat="44.46593" lon="6.54895">
        <ele>1897</ele>
        <time>2021-04-08T11:24:08Z</time>
      </trkpt>
      <trkpt lat="44.46593" lon="6.54894">
        <ele>1897</ele>
        <time>2021-04-08T11:24:09Z</time>
      </trkpt>
      <trkpt lat="44.46593" lon="6.54894">
        <ele>1897</ele>
        <time>2021-04-08T11:24:10Z</time>
      </trkpt>
      <trkpt lat="44.46593" lon="6.54894">
        <ele>1897</ele>
        <time>2021-04-08T11:24:11Z</time>
      </trkpt>
      <trkpt lat="44.46593" lon="6.54894">
        <ele>1897</ele>
        <time>2021-04-08T11:24:12Z</time>
      </trkpt>
      <trkpt lat="44.46593" lon="6.54886">
        <ele>1896</ele>
        <time>2021-04-08T11:24:13Z</time>
      </trkpt>
      <trkpt lat="44.46593" lon="6.54882">
        <ele>1896</ele>
        <time>2021-04-08T11:24:14Z</time>
      </trkpt>
      <trkpt lat="44.46594" lon="6.54879">
        <ele>1896</ele>
        <time>2021-04-08T11:24:15Z</time>
      </trkpt>
      <trkpt lat="44.46595" lon="6.54878">
        <ele>1895</ele>
        <time>2021-04-08T11:24:16Z</time>
      </trkpt>
      <trkpt lat="44.46598" lon="6.54878">
        <ele>1894</ele>
        <time>2021-04-08T11:24:17Z</time>
      </trkpt>
      <trkpt lat="44.46601" lon="6.54877">
        <ele>1893</ele>
        <time>2021-04-08T11:24:18Z</time>
      </trkpt>
      <trkpt lat="44.46604" lon="6.54875">
        <ele>1892</ele>
        <time>2021-04-08T11:24:19Z</time>
      </trkpt>
      <trkpt lat="44.46606" lon="6.54875">
        <ele>1891</ele>
        <time>2021-04-08T11:24:20Z</time>
      </trkpt>
      <trkpt lat="44.46609" lon="6.54875">
        <ele>1889</ele>
        <time>2021-04-08T11:24:21Z</time>
      </trkpt>
      <trkpt lat="44.46612" lon="6.54873">
        <ele>1889</ele>
        <time>2021-04-08T11:24:22Z</time>
      </trkpt>
      <trkpt lat="44.46615" lon="6.54871">
        <ele>1888</ele>
        <time>2021-04-08T11:24:23Z</time>
      </trkpt>
      <trkpt lat="44.46617" lon="6.54869">
        <ele>1887</ele>
        <time>2021-04-08T11:24:24Z</time>
      </trkpt>
      <trkpt lat="44.46619" lon="6.54867">
        <ele>1887</ele>
        <time>2021-04-08T11:24:25Z</time>
      </trkpt>
      <trkpt lat="44.46621" lon="6.54867">
        <ele>1886</ele>
        <time>2021-04-08T11:24:26Z</time>
      </trkpt>
      <trkpt lat="44.46622" lon="6.5487">
        <ele>1886</ele>
        <time>2021-04-08T11:24:27Z</time>
      </trkpt>
      <trkpt lat="44.46624" lon="6.54874">
        <ele>1885</ele>
        <time>2021-04-08T11:24:28Z</time>
      </trkpt>
      <trkpt lat="44.46627" lon="6.54876">
        <ele>1885</ele>
        <time>2021-04-08T11:24:29Z</time>
      </trkpt>
      <trkpt lat="44.46629" lon="6.54874">
        <ele>1884</ele>
        <time>2021-04-08T11:24:30Z</time>
      </trkpt>
      <trkpt lat="44.4663" lon="6.54873">
        <ele>1884</ele>
        <time>2021-04-08T11:24:31Z</time>
      </trkpt>
      <trkpt lat="44.46631" lon="6.54872">
        <ele>1884</ele>
        <time>2021-04-08T11:24:32Z</time>
      </trkpt>
      <trkpt lat="44.46632" lon="6.54872">
        <ele>1883</ele>
        <time>2021-04-08T11:24:33Z</time>
      </trkpt>
      <trkpt lat="44.46632" lon="6.54872">
        <ele>1883</ele>
        <time>2021-04-08T11:24:34Z</time>
      </trkpt>
      <trkpt lat="44.46637" lon="6.54873">
        <ele>1882</ele>
        <time>2021-04-08T11:24:35Z</time>
      </trkpt>
      <trkpt lat="44.4664" lon="6.54877">
        <ele>1881</ele>
        <time>2021-04-08T11:24:36Z</time>
      </trkpt>
      <trkpt lat="44.46642" lon="6.5488">
        <ele>1881</ele>
        <time>2021-04-08T11:24:37Z</time>
      </trkpt>
      <trkpt lat="44.46643" lon="6.54882">
        <ele>1880</ele>
        <time>2021-04-08T11:24:38Z</time>
      </trkpt>
      <trkpt lat="44.46644" lon="6.54882">
        <ele>1880</ele>
        <time>2021-04-08T11:24:39Z</time>
      </trkpt>
      <trkpt lat="44.46646" lon="6.54883">
        <ele>1879</ele>
        <time>2021-04-08T11:24:40Z</time>
      </trkpt>
      <trkpt lat="44.46648" lon="6.54885">
        <ele>1878</ele>
        <time>2021-04-08T11:24:41Z</time>
      </trkpt>
      <trkpt lat="44.46651" lon="6.54888">
        <ele>1877</ele>
        <time>2021-04-08T11:24:42Z</time>
      </trkpt>
      <trkpt lat="44.46653" lon="6.54891">
        <ele>1876</ele>
        <time>2021-04-08T11:24:43Z</time>
      </trkpt>
      <trkpt lat="44.46655" lon="6.54896">
        <ele>1875</ele>
        <time>2021-04-08T11:24:44Z</time>
      </trkpt>
      <trkpt lat="44.46657" lon="6.54899">
        <ele>1874</ele>
        <time>2021-04-08T11:24:45Z</time>
      </trkpt>
      <trkpt lat="44.4666" lon="6.54903">
        <ele>1872</ele>
        <time>2021-04-08T11:24:46Z</time>
      </trkpt>
      <trkpt lat="44.46663" lon="6.54907">
        <ele>1871</ele>
        <time>2021-04-08T11:24:47Z</time>
      </trkpt>
      <trkpt lat="44.46665" lon="6.5491">
        <ele>1869</ele>
        <time>2021-04-08T11:24:48Z</time>
      </trkpt>
      <trkpt lat="44.46667" lon="6.54913">
        <ele>1868</ele>
        <time>2021-04-08T11:24:49Z</time>
      </trkpt>
      <trkpt lat="44.46668" lon="6.54914">
        <ele>1866</ele>
        <time>2021-04-08T11:24:50Z</time>
      </trkpt>
      <trkpt lat="44.46669" lon="6.54915">
        <ele>1865</ele>
        <time>2021-04-08T11:24:51Z</time>
      </trkpt>
      <trkpt lat="44.46669" lon="6.54914">
        <ele>1864</ele>
        <time>2021-04-08T11:24:52Z</time>
      </trkpt>
      <trkpt lat="44.4667" lon="6.54914">
        <ele>1864</ele>
        <time>2021-04-08T11:24:53Z</time>
      </trkpt>
      <trkpt lat="44.4667" lon="6.54914">
        <ele>1864</ele>
        <time>2021-04-08T11:24:54Z</time>
      </trkpt>
      <trkpt lat="44.46671" lon="6.5491">
        <ele>1862</ele>
        <time>2021-04-08T11:24:55Z</time>
      </trkpt>
      <trkpt lat="44.46671" lon="6.54906">
        <ele>1860</ele>
        <time>2021-04-08T11:24:56Z</time>
      </trkpt>
      <trkpt lat="44.4667" lon="6.54904">
        <ele>1859</ele>
        <time>2021-04-08T11:24:57Z</time>
      </trkpt>
      <trkpt lat="44.4667" lon="6.54902">
        <ele>1858</ele>
        <time>2021-04-08T11:24:58Z</time>
      </trkpt>
      <trkpt lat="44.46669" lon="6.549">
        <ele>1857</ele>
        <time>2021-04-08T11:24:59Z</time>
      </trkpt>
      <trkpt lat="44.4667" lon="6.54898">
        <ele>1855</ele>
        <time>2021-04-08T11:25:00Z</time>
      </trkpt>
      <trkpt lat="44.46672" lon="6.54893">
        <ele>1852</ele>
        <time>2021-04-08T11:25:01Z</time>
      </trkpt>
      <trkpt lat="44.46672" lon="6.5489">
        <ele>1851</ele>
        <time>2021-04-08T11:25:02Z</time>
      </trkpt>
      <trkpt lat="44.46674" lon="6.54888">
        <ele>1850</ele>
        <time>2021-04-08T11:25:03Z</time>
      </trkpt>
      <trkpt lat="44.46674" lon="6.54888">
        <ele>1849</ele>
        <time>2021-04-08T11:25:04Z</time>
      </trkpt>
      <trkpt lat="44.46675" lon="6.54888">
        <ele>1848</ele>
        <time>2021-04-08T11:25:05Z</time>
      </trkpt>
      <trkpt lat="44.46676" lon="6.5489">
        <ele>1848</ele>
        <time>2021-04-08T11:25:06Z</time>
      </trkpt>
      <trkpt lat="44.46677" lon="6.54891">
        <ele>1846</ele>
        <time>2021-04-08T11:25:07Z</time>
      </trkpt>
      <trkpt lat="44.46678" lon="6.54891">
        <ele>1846</ele>
        <time>2021-04-08T11:25:08Z</time>
      </trkpt>
      <trkpt lat="44.4668" lon="6.54892">
        <ele>1845</ele>
        <time>2021-04-08T11:25:09Z</time>
      </trkpt>
      <trkpt lat="44.46682" lon="6.54893">
        <ele>1844</ele>
        <time>2021-04-08T11:25:10Z</time>
      </trkpt>
      <trkpt lat="44.46684" lon="6.54895">
        <ele>1843</ele>
        <time>2021-04-08T11:25:11Z</time>
      </trkpt>
      <trkpt lat="44.46687" lon="6.54896">
        <ele>1842</ele>
        <time>2021-04-08T11:25:12Z</time>
      </trkpt>
      <trkpt lat="44.46689" lon="6.54897">
        <ele>1841</ele>
        <time>2021-04-08T11:25:13Z</time>
      </trkpt>
      <trkpt lat="44.46691" lon="6.54899">
        <ele>1841</ele>
        <time>2021-04-08T11:25:14Z</time>
      </trkpt>
      <trkpt lat="44.46691" lon="6.549">
        <ele>1840</ele>
        <time>2021-04-08T11:25:15Z</time>
      </trkpt>
      <trkpt lat="44.46692" lon="6.54901">
        <ele>1840</ele>
        <time>2021-04-08T11:25:16Z</time>
      </trkpt>
      <trkpt lat="44.46692" lon="6.54901">
        <ele>1840</ele>
        <time>2021-04-08T11:25:17Z</time>
      </trkpt>
      <trkpt lat="44.46692" lon="6.54901">
        <ele>1839</ele>
        <time>2021-04-08T11:25:18Z</time>
      </trkpt>
      <trkpt lat="44.46692" lon="6.54901">
        <ele>1839</ele>
        <time>2021-04-08T11:25:19Z</time>
      </trkpt>
      <trkpt lat="44.46693" lon="6.54904">
        <ele>1839</ele>
        <time>2021-04-08T11:25:20Z</time>
      </trkpt>
      <trkpt lat="44.46693" lon="6.54906">
        <ele>1837</ele>
        <time>2021-04-08T11:25:21Z</time>
      </trkpt>
      <trkpt lat="44.46695" lon="6.54907">
        <ele>1837</ele>
        <time>2021-04-08T11:25:22Z</time>
      </trkpt>
      <trkpt lat="44.46698" lon="6.54906">
        <ele>1835</ele>
        <time>2021-04-08T11:25:23Z</time>
      </trkpt>
      <trkpt lat="44.467" lon="6.54904">
        <ele>1835</ele>
        <time>2021-04-08T11:25:24Z</time>
      </trkpt>
      <trkpt lat="44.467" lon="6.54903">
        <ele>1835</ele>
        <time>2021-04-08T11:25:25Z</time>
      </trkpt>
      <trkpt lat="44.46701" lon="6.54902">
        <ele>1834</ele>
        <time>2021-04-08T11:25:26Z</time>
      </trkpt>
      <trkpt lat="44.46701" lon="6.54902">
        <ele>1834</ele>
        <time>2021-04-08T11:25:27Z</time>
      </trkpt>
      <trkpt lat="44.46702" lon="6.54898">
        <ele>1834</ele>
        <time>2021-04-08T11:25:28Z</time>
      </trkpt>
      <trkpt lat="44.46705" lon="6.54897">
        <ele>1833</ele>
        <time>2021-04-08T11:25:29Z</time>
      </trkpt>
      <trkpt lat="44.46708" lon="6.54898">
        <ele>1833</ele>
        <time>2021-04-08T11:25:30Z</time>
      </trkpt>
      <trkpt lat="44.46711" lon="6.54899">
        <ele>1832</ele>
        <time>2021-04-08T11:25:31Z</time>
      </trkpt>
      <trkpt lat="44.46714" lon="6.549">
        <ele>1832</ele>
        <time>2021-04-08T11:25:32Z</time>
      </trkpt>
      <trkpt lat="44.46716" lon="6.54899">
        <ele>1832</ele>
        <time>2021-04-08T11:25:33Z</time>
      </trkpt>
      <trkpt lat="44.46718" lon="6.54898">
        <ele>1831</ele>
        <time>2021-04-08T11:25:34Z</time>
      </trkpt>
      <trkpt lat="44.4672" lon="6.54898">
        <ele>1831</ele>
        <time>2021-04-08T11:25:35Z</time>
      </trkpt>
      <trkpt lat="44.46722" lon="6.54897">
        <ele>1830</ele>
        <time>2021-04-08T11:25:36Z</time>
      </trkpt>
      <trkpt lat="44.46723" lon="6.54897">
        <ele>1829</ele>
        <time>2021-04-08T11:25:37Z</time>
      </trkpt>
      <trkpt lat="44.46724" lon="6.54896">
        <ele>1828</ele>
        <time>2021-04-08T11:25:38Z</time>
      </trkpt>
      <trkpt lat="44.46725" lon="6.54896">
        <ele>1828</ele>
        <time>2021-04-08T11:25:39Z</time>
      </trkpt>
      <trkpt lat="44.46725" lon="6.54896">
        <ele>1828</ele>
        <time>2021-04-08T11:25:40Z</time>
      </trkpt>
      <trkpt lat="44.46725" lon="6.54896">
        <ele>1827</ele>
        <time>2021-04-08T11:25:41Z</time>
      </trkpt>
      <trkpt lat="44.46725" lon="6.54896">
        <ele>1827</ele>
        <time>2021-04-08T11:25:42Z</time>
      </trkpt>
      <trkpt lat="44.46725" lon="6.54896">
        <ele>1827</ele>
        <time>2021-04-08T11:25:43Z</time>
      </trkpt>
      <trkpt lat="44.46725" lon="6.54896">
        <ele>1827</ele>
        <time>2021-04-08T11:25:44Z</time>
      </trkpt>
      <trkpt lat="44.46725" lon="6.54896">
        <ele>1827</ele>
        <time>2021-04-08T11:25:45Z</time>
      </trkpt>
      <trkpt lat="44.46725" lon="6.54896">
        <ele>1827</ele>
        <time>2021-04-08T11:25:46Z</time>
      </trkpt>
      <trkpt lat="44.46725" lon="6.54896">
        <ele>1827</ele>
        <time>2021-04-08T11:25:47Z</time>
      </trkpt>
      <trkpt lat="44.46725" lon="6.54896">
        <ele>1827</ele>
        <time>2021-04-08T11:25:48Z</time>
      </trkpt>
      <trkpt lat="44.46725" lon="6.54896">
        <ele>1827</ele>
        <time>2021-04-08T11:25:49Z</time>
      </trkpt>
      <trkpt lat="44.46725" lon="6.54896">
        <ele>1827</ele>
        <time>2021-04-08T11:25:50Z</time>
      </trkpt>
      <trkpt lat="44.46725" lon="6.54896">
        <ele>1827</ele>
        <time>2021-04-08T11:25:51Z</time>
      </trkpt>
      <trkpt lat="44.46725" lon="6.54896">
        <ele>1827</ele>
        <time>2021-04-08T11:25:52Z</time>
      </trkpt>
      <trkpt lat="44.46725" lon="6.54896">
        <ele>1827</ele>
        <time>2021-04-08T11:25:53Z</time>
      </trkpt>
      <trkpt lat="44.46725" lon="6.54896">
        <ele>1827</ele>
        <time>2021-04-08T11:25:54Z</time>
      </trkpt>
      <trkpt lat="44.46731" lon="6.54888">
        <ele>1822</ele>
        <time>2021-04-08T11:25:55Z</time>
      </trkpt>
      <trkpt lat="44.46732" lon="6.54887">
        <ele>1821</ele>
        <time>2021-04-08T11:25:56Z</time>
      </trkpt>
      <trkpt lat="44.46734" lon="6.54887">
        <ele>1820</ele>
        <time>2021-04-08T11:25:57Z</time>
      </trkpt>
      <trkpt lat="44.46735" lon="6.54888">
        <ele>1820</ele>
        <time>2021-04-08T11:25:58Z</time>
      </trkpt>
      <trkpt lat="44.46735" lon="6.5489">
        <ele>1819</ele>
        <time>2021-04-08T11:25:59Z</time>
      </trkpt>
      <trkpt lat="44.46735" lon="6.5489">
        <ele>1818</ele>
        <time>2021-04-08T11:26:00Z</time>
      </trkpt>
      <trkpt lat="44.46736" lon="6.54891">
        <ele>1818</ele>
        <time>2021-04-08T11:26:01Z</time>
      </trkpt>
      <trkpt lat="44.46736" lon="6.54891">
        <ele>1818</ele>
        <time>2021-04-08T11:26:02Z</time>
      </trkpt>
      <trkpt lat="44.46736" lon="6.54891">
        <ele>1818</ele>
        <time>2021-04-08T11:26:03Z</time>
      </trkpt>
      <trkpt lat="44.46736" lon="6.54891">
        <ele>1818</ele>
        <time>2021-04-08T11:26:04Z</time>
      </trkpt>
      <trkpt lat="44.46736" lon="6.54891">
        <ele>1818</ele>
        <time>2021-04-08T11:26:05Z</time>
      </trkpt>
      <trkpt lat="44.46736" lon="6.54891">
        <ele>1818</ele>
        <time>2021-04-08T11:26:06Z</time>
      </trkpt>
      <trkpt lat="44.46736" lon="6.54891">
        <ele>1818</ele>
        <time>2021-04-08T11:26:07Z</time>
      </trkpt>
      <trkpt lat="44.46736" lon="6.54891">
        <ele>1818</ele>
        <time>2021-04-08T11:26:08Z</time>
      </trkpt>
      <trkpt lat="44.46736" lon="6.54891">
        <ele>1818</ele>
        <time>2021-04-08T11:26:09Z</time>
      </trkpt>
      <trkpt lat="44.46736" lon="6.54891">
        <ele>1818</ele>
        <time>2021-04-08T11:26:10Z</time>
      </trkpt>
      <trkpt lat="44.46736" lon="6.54891">
        <ele>1818</ele>
        <time>2021-04-08T11:26:11Z</time>
      </trkpt>
      <trkpt lat="44.46736" lon="6.54891">
        <ele>1818</ele>
        <time>2021-04-08T11:26:12Z</time>
      </trkpt>
      <trkpt lat="44.46736" lon="6.54891">
        <ele>1818</ele>
        <time>2021-04-08T11:26:13Z</time>
      </trkpt>
      <trkpt lat="44.46736" lon="6.54891">
        <ele>1818</ele>
        <time>2021-04-08T11:26:14Z</time>
      </trkpt>
      <trkpt lat="44.46736" lon="6.54891">
        <ele>1818</ele>
        <time>2021-04-08T11:26:15Z</time>
      </trkpt>
      <trkpt lat="44.46736" lon="6.54891">
        <ele>1818</ele>
        <time>2021-04-08T11:26:16Z</time>
      </trkpt>
      <trkpt lat="44.46736" lon="6.54891">
        <ele>1818</ele>
        <time>2021-04-08T11:26:17Z</time>
      </trkpt>
      <trkpt lat="44.46736" lon="6.54891">
        <ele>1818</ele>
        <time>2021-04-08T11:26:18Z</time>
      </trkpt>
      <trkpt lat="44.46736" lon="6.54891">
        <ele>1818</ele>
        <time>2021-04-08T11:26:19Z</time>
      </trkpt>
      <trkpt lat="44.46736" lon="6.54878">
        <ele>1817</ele>
        <time>2021-04-08T11:26:20Z</time>
      </trkpt>
      <trkpt lat="44.46735" lon="6.54876">
        <ele>1817</ele>
        <time>2021-04-08T11:26:21Z</time>
      </trkpt>
      <trkpt lat="44.46734" lon="6.54872">
        <ele>1816</ele>
        <time>2021-04-08T11:26:22Z</time>
      </trkpt>
      <trkpt lat="44.46733" lon="6.5487">
        <ele>1816</ele>
        <time>2021-04-08T11:26:23Z</time>
      </trkpt>
      <trkpt lat="44.46733" lon="6.54867">
        <ele>1816</ele>
        <time>2021-04-08T11:26:24Z</time>
      </trkpt>
      <trkpt lat="44.46734" lon="6.54866">
        <ele>1816</ele>
        <time>2021-04-08T11:26:25Z</time>
      </trkpt>
      <trkpt lat="44.46734" lon="6.54864">
        <ele>1816</ele>
        <time>2021-04-08T11:26:26Z</time>
      </trkpt>
      <trkpt lat="44.46734" lon="6.54863">
        <ele>1815</ele>
        <time>2021-04-08T11:26:27Z</time>
      </trkpt>
      <trkpt lat="44.46734" lon="6.54863">
        <ele>1815</ele>
        <time>2021-04-08T11:26:28Z</time>
      </trkpt>
      <trkpt lat="44.46734" lon="6.54863">
        <ele>1815</ele>
        <time>2021-04-08T11:26:29Z</time>
      </trkpt>
      <trkpt lat="44.46734" lon="6.54863">
        <ele>1815</ele>
        <time>2021-04-08T11:26:30Z</time>
      </trkpt>
      <trkpt lat="44.46734" lon="6.54863">
        <ele>1815</ele>
        <time>2021-04-08T11:26:31Z</time>
      </trkpt>
      <trkpt lat="44.46734" lon="6.54863">
        <ele>1815</ele>
        <time>2021-04-08T11:26:32Z</time>
      </trkpt>
      <trkpt lat="44.46734" lon="6.54863">
        <ele>1815</ele>
        <time>2021-04-08T11:26:33Z</time>
      </trkpt>
      <trkpt lat="44.46734" lon="6.54863">
        <ele>1815</ele>
        <time>2021-04-08T11:26:34Z</time>
      </trkpt>
      <trkpt lat="44.46734" lon="6.54863">
        <ele>1815</ele>
        <time>2021-04-08T11:26:35Z</time>
      </trkpt>
      <trkpt lat="44.46737" lon="6.54853">
        <ele>1814</ele>
        <time>2021-04-08T11:26:36Z</time>
      </trkpt>
      <trkpt lat="44.46738" lon="6.54849">
        <ele>1814</ele>
        <time>2021-04-08T11:26:37Z</time>
      </trkpt>
      <trkpt lat="44.46738" lon="6.54846">
        <ele>1813</ele>
        <time>2021-04-08T11:26:38Z</time>
      </trkpt>
      <trkpt lat="44.46739" lon="6.54843">
        <ele>1813</ele>
        <time>2021-04-08T11:26:39Z</time>
      </trkpt>
      <trkpt lat="44.4674" lon="6.54842">
        <ele>1813</ele>
        <time>2021-04-08T11:26:40Z</time>
      </trkpt>
      <trkpt lat="44.46741" lon="6.54842">
        <ele>1812</ele>
        <time>2021-04-08T11:26:41Z</time>
      </trkpt>
      <trkpt lat="44.46743" lon="6.54843">
        <ele>1811</ele>
        <time>2021-04-08T11:26:42Z</time>
      </trkpt>
      <trkpt lat="44.46744" lon="6.54844">
        <ele>1811</ele>
        <time>2021-04-08T11:26:43Z</time>
      </trkpt>
      <trkpt lat="44.46746" lon="6.54846">
        <ele>1811</ele>
        <time>2021-04-08T11:26:44Z</time>
      </trkpt>
      <trkpt lat="44.46747" lon="6.54848">
        <ele>1810</ele>
        <time>2021-04-08T11:26:45Z</time>
      </trkpt>
      <trkpt lat="44.46746" lon="6.5485">
        <ele>1810</ele>
        <time>2021-04-08T11:26:46Z</time>
      </trkpt>
      <trkpt lat="44.46746" lon="6.54851">
        <ele>1810</ele>
        <time>2021-04-08T11:26:47Z</time>
      </trkpt>
      <trkpt lat="44.46748" lon="6.54853">
        <ele>1810</ele>
        <time>2021-04-08T11:26:48Z</time>
      </trkpt>
      <trkpt lat="44.46749" lon="6.54856">
        <ele>1809</ele>
        <time>2021-04-08T11:26:49Z</time>
      </trkpt>
      <trkpt lat="44.46749" lon="6.54859">
        <ele>1809</ele>
        <time>2021-04-08T11:26:50Z</time>
      </trkpt>
      <trkpt lat="44.4675" lon="6.54859">
        <ele>1808</ele>
        <time>2021-04-08T11:26:51Z</time>
      </trkpt>
      <trkpt lat="44.4675" lon="6.54859">
        <ele>1808</ele>
        <time>2021-04-08T11:26:52Z</time>
      </trkpt>
      <trkpt lat="44.46751" lon="6.54861">
        <ele>1808</ele>
        <time>2021-04-08T11:26:53Z</time>
      </trkpt>
      <trkpt lat="44.46752" lon="6.54862">
        <ele>1807</ele>
        <time>2021-04-08T11:26:54Z</time>
      </trkpt>
      <trkpt lat="44.46753" lon="6.54861">
        <ele>1807</ele>
        <time>2021-04-08T11:26:55Z</time>
      </trkpt>
      <trkpt lat="44.46754" lon="6.5486">
        <ele>1807</ele>
        <time>2021-04-08T11:26:56Z</time>
      </trkpt>
      <trkpt lat="44.46755" lon="6.54858">
        <ele>1806</ele>
        <time>2021-04-08T11:26:57Z</time>
      </trkpt>
      <trkpt lat="44.46754" lon="6.54857">
        <ele>1806</ele>
        <time>2021-04-08T11:26:58Z</time>
      </trkpt>
      <trkpt lat="44.46754" lon="6.54856">
        <ele>1806</ele>
        <time>2021-04-08T11:26:59Z</time>
      </trkpt>
      <trkpt lat="44.46754" lon="6.54856">
        <ele>1805</ele>
        <time>2021-04-08T11:27:00Z</time>
      </trkpt>
      <trkpt lat="44.46755" lon="6.54853">
        <ele>1805</ele>
        <time>2021-04-08T11:27:01Z</time>
      </trkpt>
      <trkpt lat="44.46757" lon="6.5485">
        <ele>1805</ele>
        <time>2021-04-08T11:27:02Z</time>
      </trkpt>
      <trkpt lat="44.46758" lon="6.54851">
        <ele>1804</ele>
        <time>2021-04-08T11:27:03Z</time>
      </trkpt>
      <trkpt lat="44.46758" lon="6.54851">
        <ele>1804</ele>
        <time>2021-04-08T11:27:04Z</time>
      </trkpt>
      <trkpt lat="44.46758" lon="6.54851">
        <ele>1804</ele>
        <time>2021-04-08T11:27:05Z</time>
      </trkpt>
      <trkpt lat="44.46758" lon="6.54851">
        <ele>1804</ele>
        <time>2021-04-08T11:27:06Z</time>
      </trkpt>
      <trkpt lat="44.46758" lon="6.54851">
        <ele>1804</ele>
        <time>2021-04-08T11:27:07Z</time>
      </trkpt>
      <trkpt lat="44.46758" lon="6.54851">
        <ele>1804</ele>
        <time>2021-04-08T11:27:08Z</time>
      </trkpt>
      <trkpt lat="44.46758" lon="6.54851">
        <ele>1804</ele>
        <time>2021-04-08T11:27:09Z</time>
      </trkpt>
      <trkpt lat="44.46758" lon="6.54851">
        <ele>1804</ele>
        <time>2021-04-08T11:27:10Z</time>
      </trkpt>
      <trkpt lat="44.46758" lon="6.54851">
        <ele>1804</ele>
        <time>2021-04-08T11:27:11Z</time>
      </trkpt>
      <trkpt lat="44.46758" lon="6.54851">
        <ele>1804</ele>
        <time>2021-04-08T11:27:12Z</time>
      </trkpt>
      <trkpt lat="44.46758" lon="6.54851">
        <ele>1804</ele>
        <time>2021-04-08T11:27:13Z</time>
      </trkpt>
      <trkpt lat="44.46758" lon="6.54851">
        <ele>1804</ele>
        <time>2021-04-08T11:27:14Z</time>
      </trkpt>
      <trkpt lat="44.46758" lon="6.54851">
        <ele>1804</ele>
        <time>2021-04-08T11:27:15Z</time>
      </trkpt>
      <trkpt lat="44.46758" lon="6.54851">
        <ele>1804</ele>
        <time>2021-04-08T11:27:16Z</time>
      </trkpt>
      <trkpt lat="44.46758" lon="6.54851">
        <ele>1804</ele>
        <time>2021-04-08T11:27:17Z</time>
      </trkpt>
      <trkpt lat="44.46758" lon="6.54851">
        <ele>1804</ele>
        <time>2021-04-08T11:27:18Z</time>
      </trkpt>
      <trkpt lat="44.46758" lon="6.54851">
        <ele>1804</ele>
        <time>2021-04-08T11:27:19Z</time>
      </trkpt>
      <trkpt lat="44.46758" lon="6.54851">
        <ele>1804</ele>
        <time>2021-04-08T11:27:20Z</time>
      </trkpt>
      <trkpt lat="44.46758" lon="6.54851">
        <ele>1804</ele>
        <time>2021-04-08T11:27:21Z</time>
      </trkpt>
      <trkpt lat="44.46758" lon="6.54851">
        <ele>1804</ele>
        <time>2021-04-08T11:27:22Z</time>
      </trkpt>
      <trkpt lat="44.46758" lon="6.54851">
        <ele>1804</ele>
        <time>2021-04-08T11:27:23Z</time>
      </trkpt>
      <trkpt lat="44.46758" lon="6.54851">
        <ele>1804</ele>
        <time>2021-04-08T11:27:24Z</time>
      </trkpt>
      <trkpt lat="44.46758" lon="6.54851">
        <ele>1804</ele>
        <time>2021-04-08T11:27:25Z</time>
      </trkpt>
      <trkpt lat="44.46758" lon="6.54851">
        <ele>1804</ele>
        <time>2021-04-08T11:27:26Z</time>
      </trkpt>
      <trkpt lat="44.46758" lon="6.54851">
        <ele>1804</ele>
        <time>2021-04-08T11:27:27Z</time>
      </trkpt>
      <trkpt lat="44.46758" lon="6.54851">
        <ele>1804</ele>
        <time>2021-04-08T11:27:28Z</time>
      </trkpt>
      <trkpt lat="44.46758" lon="6.54851">
        <ele>1804</ele>
        <time>2021-04-08T11:27:29Z</time>
      </trkpt>
      <trkpt lat="44.46758" lon="6.54851">
        <ele>1804</ele>
        <time>2021-04-08T11:27:30Z</time>
      </trkpt>
      <trkpt lat="44.46758" lon="6.54851">
        <ele>1804</ele>
        <time>2021-04-08T11:27:31Z</time>
      </trkpt>
      <trkpt lat="44.46758" lon="6.54851">
        <ele>1804</ele>
        <time>2021-04-08T11:27:32Z</time>
      </trkpt>
      <trkpt lat="44.46758" lon="6.54851">
        <ele>1804</ele>
        <time>2021-04-08T11:27:33Z</time>
      </trkpt>
      <trkpt lat="44.46758" lon="6.54851">
        <ele>1804</ele>
        <time>2021-04-08T11:27:34Z</time>
      </trkpt>
      <trkpt lat="44.46758" lon="6.54851">
        <ele>1803</ele>
        <time>2021-04-08T11:27:35Z</time>
      </trkpt>
      <trkpt lat="44.46758" lon="6.54851">
        <ele>1803</ele>
        <time>2021-04-08T11:27:36Z</time>
      </trkpt>
      <trkpt lat="44.46758" lon="6.54851">
        <ele>1803</ele>
        <time>2021-04-08T11:27:37Z</time>
      </trkpt>
      <trkpt lat="44.46758" lon="6.54851">
        <ele>1803</ele>
        <time>2021-04-08T11:27:38Z</time>
      </trkpt>
      <trkpt lat="44.46758" lon="6.54851">
        <ele>1803</ele>
        <time>2021-04-08T11:27:39Z</time>
      </trkpt>
      <trkpt lat="44.46758" lon="6.54851">
        <ele>1803</ele>
        <time>2021-04-08T11:27:40Z</time>
      </trkpt>
      <trkpt lat="44.4676" lon="6.54861">
        <ele>1801</ele>
        <time>2021-04-08T11:27:41Z</time>
      </trkpt>
      <trkpt lat="44.4676" lon="6.54864">
        <ele>1801</ele>
        <time>2021-04-08T11:27:42Z</time>
      </trkpt>
      <trkpt lat="44.46762" lon="6.54867">
        <ele>1800</ele>
        <time>2021-04-08T11:27:43Z</time>
      </trkpt>
      <trkpt lat="44.46762" lon="6.5487">
        <ele>1799</ele>
        <time>2021-04-08T11:27:44Z</time>
      </trkpt>
      <trkpt lat="44.46763" lon="6.54873">
        <ele>1799</ele>
        <time>2021-04-08T11:27:45Z</time>
      </trkpt>
      <trkpt lat="44.46763" lon="6.54875">
        <ele>1799</ele>
        <time>2021-04-08T11:27:46Z</time>
      </trkpt>
      <trkpt lat="44.46764" lon="6.54876">
        <ele>1798</ele>
        <time>2021-04-08T11:27:47Z</time>
      </trkpt>
      <trkpt lat="44.46764" lon="6.54878">
        <ele>1798</ele>
        <time>2021-04-08T11:27:48Z</time>
      </trkpt>
      <trkpt lat="44.46765" lon="6.54879">
        <ele>1798</ele>
        <time>2021-04-08T11:27:49Z</time>
      </trkpt>
      <trkpt lat="44.46765" lon="6.5488">
        <ele>1797</ele>
        <time>2021-04-08T11:27:50Z</time>
      </trkpt>
      <trkpt lat="44.46765" lon="6.54881">
        <ele>1796</ele>
        <time>2021-04-08T11:27:51Z</time>
      </trkpt>
      <trkpt lat="44.46766" lon="6.54882">
        <ele>1796</ele>
        <time>2021-04-08T11:27:52Z</time>
      </trkpt>
      <trkpt lat="44.46767" lon="6.54883">
        <ele>1795</ele>
        <time>2021-04-08T11:27:53Z</time>
      </trkpt>
      <trkpt lat="44.46768" lon="6.54885">
        <ele>1794</ele>
        <time>2021-04-08T11:27:54Z</time>
      </trkpt>
      <trkpt lat="44.46768" lon="6.54888">
        <ele>1793</ele>
        <time>2021-04-08T11:27:55Z</time>
      </trkpt>
      <trkpt lat="44.46769" lon="6.54892">
        <ele>1791</ele>
        <time>2021-04-08T11:27:56Z</time>
      </trkpt>
      <trkpt lat="44.4677" lon="6.54894">
        <ele>1789</ele>
        <time>2021-04-08T11:27:57Z</time>
      </trkpt>
      <trkpt lat="44.4677" lon="6.54894">
        <ele>1788</ele>
        <time>2021-04-08T11:27:58Z</time>
      </trkpt>
      <trkpt lat="44.46771" lon="6.54892">
        <ele>1787</ele>
        <time>2021-04-08T11:27:59Z</time>
      </trkpt>
      <trkpt lat="44.46771" lon="6.54888">
        <ele>1787</ele>
        <time>2021-04-08T11:28:00Z</time>
      </trkpt>
      <trkpt lat="44.46771" lon="6.54888">
        <ele>1786</ele>
        <time>2021-04-08T11:28:01Z</time>
      </trkpt>
      <trkpt lat="44.46771" lon="6.54888">
        <ele>1786</ele>
        <time>2021-04-08T11:28:02Z</time>
      </trkpt>
      <trkpt lat="44.46775" lon="6.54882">
        <ele>1782</ele>
        <time>2021-04-08T11:28:03Z</time>
      </trkpt>
      <trkpt lat="44.46778" lon="6.5488">
        <ele>1780</ele>
        <time>2021-04-08T11:28:04Z</time>
      </trkpt>
      <trkpt lat="44.46781" lon="6.54881">
        <ele>1777</ele>
        <time>2021-04-08T11:28:05Z</time>
      </trkpt>
      <trkpt lat="44.46784" lon="6.54882">
        <ele>1776</ele>
        <time>2021-04-08T11:28:06Z</time>
      </trkpt>
      <trkpt lat="44.46786" lon="6.54882">
        <ele>1773</ele>
        <time>2021-04-08T11:28:07Z</time>
      </trkpt>
      <trkpt lat="44.4679" lon="6.54879">
        <ele>1771</ele>
        <time>2021-04-08T11:28:08Z</time>
      </trkpt>
      <trkpt lat="44.46794" lon="6.54874">
        <ele>1770</ele>
        <time>2021-04-08T11:28:09Z</time>
      </trkpt>
      <trkpt lat="44.46799" lon="6.54871">
        <ele>1768</ele>
        <time>2021-04-08T11:28:10Z</time>
      </trkpt>
      <trkpt lat="44.46804" lon="6.54872">
        <ele>1767</ele>
        <time>2021-04-08T11:28:11Z</time>
      </trkpt>
      <trkpt lat="44.46811" lon="6.54872">
        <ele>1765</ele>
        <time>2021-04-08T11:28:12Z</time>
      </trkpt>
      <trkpt lat="44.46818" lon="6.54869">
        <ele>1764</ele>
        <time>2021-04-08T11:28:13Z</time>
      </trkpt>
      <trkpt lat="44.46826" lon="6.54862">
        <ele>1762</ele>
        <time>2021-04-08T11:28:14Z</time>
      </trkpt>
      <trkpt lat="44.46833" lon="6.54854">
        <ele>1760</ele>
        <time>2021-04-08T11:28:15Z</time>
      </trkpt>
      <trkpt lat="44.4684" lon="6.54848">
        <ele>1759</ele>
        <time>2021-04-08T11:28:16Z</time>
      </trkpt>
      <trkpt lat="44.46847" lon="6.54845">
        <ele>1757</ele>
        <time>2021-04-08T11:28:17Z</time>
      </trkpt>
      <trkpt lat="44.46855" lon="6.54847">
        <ele>1756</ele>
        <time>2021-04-08T11:28:18Z</time>
      </trkpt>
      <trkpt lat="44.46861" lon="6.5485">
        <ele>1754</ele>
        <time>2021-04-08T11:28:19Z</time>
      </trkpt>
      <trkpt lat="44.46864" lon="6.54849">
        <ele>1753</ele>
        <time>2021-04-08T11:28:20Z</time>
      </trkpt>
      <trkpt lat="44.46865" lon="6.54848">
        <ele>1751</ele>
        <time>2021-04-08T11:28:21Z</time>
      </trkpt>
      <trkpt lat="44.46865" lon="6.54848">
        <ele>1751</ele>
        <time>2021-04-08T11:28:22Z</time>
      </trkpt>
      <trkpt lat="44.46865" lon="6.54848">
        <ele>1751</ele>
        <time>2021-04-08T11:28:23Z</time>
      </trkpt>
      <trkpt lat="44.46865" lon="6.54848">
        <ele>1751</ele>
        <time>2021-04-08T11:28:24Z</time>
      </trkpt>
      <trkpt lat="44.46865" lon="6.54848">
        <ele>1751</ele>
        <time>2021-04-08T11:28:25Z</time>
      </trkpt>
      <trkpt lat="44.46865" lon="6.54848">
        <ele>1751</ele>
        <time>2021-04-08T11:28:26Z</time>
      </trkpt>
      <trkpt lat="44.46865" lon="6.54848">
        <ele>1751</ele>
        <time>2021-04-08T11:28:27Z</time>
      </trkpt>
      <trkpt lat="44.46865" lon="6.54848">
        <ele>1751</ele>
        <time>2021-04-08T11:28:28Z</time>
      </trkpt>
      <trkpt lat="44.46865" lon="6.54848">
        <ele>1751</ele>
        <time>2021-04-08T11:28:29Z</time>
      </trkpt>
      <trkpt lat="44.46865" lon="6.54848">
        <ele>1751</ele>
        <time>2021-04-08T11:28:30Z</time>
      </trkpt>
      <trkpt lat="44.46865" lon="6.54848">
        <ele>1751</ele>
        <time>2021-04-08T11:28:31Z</time>
      </trkpt>
      <trkpt lat="44.46865" lon="6.54848">
        <ele>1751</ele>
        <time>2021-04-08T11:28:32Z</time>
      </trkpt>
      <trkpt lat="44.46865" lon="6.54848">
        <ele>1751</ele>
        <time>2021-04-08T11:28:33Z</time>
      </trkpt>
      <trkpt lat="44.46865" lon="6.54848">
        <ele>1751</ele>
        <time>2021-04-08T11:28:34Z</time>
      </trkpt>
      <trkpt lat="44.46865" lon="6.54848">
        <ele>1751</ele>
        <time>2021-04-08T11:28:35Z</time>
      </trkpt>
      <trkpt lat="44.46865" lon="6.54848">
        <ele>1751</ele>
        <time>2021-04-08T11:28:36Z</time>
      </trkpt>
      <trkpt lat="44.46865" lon="6.54848">
        <ele>1751</ele>
        <time>2021-04-08T11:28:37Z</time>
      </trkpt>
      <trkpt lat="44.46865" lon="6.54848">
        <ele>1751</ele>
        <time>2021-04-08T11:28:38Z</time>
      </trkpt>
      <trkpt lat="44.46865" lon="6.54848">
        <ele>1751</ele>
        <time>2021-04-08T11:28:39Z</time>
      </trkpt>
      <trkpt lat="44.46865" lon="6.54848">
        <ele>1751</ele>
        <time>2021-04-08T11:28:40Z</time>
      </trkpt>
      <trkpt lat="44.46865" lon="6.54848">
        <ele>1751</ele>
        <time>2021-04-08T11:28:41Z</time>
      </trkpt>
      <trkpt lat="44.46865" lon="6.54848">
        <ele>1751</ele>
        <time>2021-04-08T11:28:42Z</time>
      </trkpt>
      <trkpt lat="44.46865" lon="6.54848">
        <ele>1751</ele>
        <time>2021-04-08T11:28:43Z</time>
      </trkpt>
      <trkpt lat="44.46865" lon="6.54848">
        <ele>1751</ele>
        <time>2021-04-08T11:28:44Z</time>
      </trkpt>
      <trkpt lat="44.46865" lon="6.54848">
        <ele>1751</ele>
        <time>2021-04-08T11:28:45Z</time>
      </trkpt>
      <trkpt lat="44.46865" lon="6.54848">
        <ele>1751</ele>
        <time>2021-04-08T11:28:46Z</time>
      </trkpt>
      <trkpt lat="44.46865" lon="6.54848">
        <ele>1751</ele>
        <time>2021-04-08T11:28:47Z</time>
      </trkpt>
      <trkpt lat="44.46865" lon="6.54848">
        <ele>1751</ele>
        <time>2021-04-08T11:28:48Z</time>
      </trkpt>
      <trkpt lat="44.46865" lon="6.54848">
        <ele>1751</ele>
        <time>2021-04-08T11:28:49Z</time>
      </trkpt>
      <trkpt lat="44.46865" lon="6.54848">
        <ele>1751</ele>
        <time>2021-04-08T11:28:50Z</time>
      </trkpt>
      <trkpt lat="44.46865" lon="6.54848">
        <ele>1751</ele>
        <time>2021-04-08T11:28:51Z</time>
      </trkpt>
      <trkpt lat="44.46865" lon="6.54848">
        <ele>1751</ele>
        <time>2021-04-08T11:28:52Z</time>
      </trkpt>
      <trkpt lat="44.46865" lon="6.54848">
        <ele>1751</ele>
        <time>2021-04-08T11:28:53Z</time>
      </trkpt>
      <trkpt lat="44.46865" lon="6.54848">
        <ele>1751</ele>
        <time>2021-04-08T11:28:54Z</time>
      </trkpt>
      <trkpt lat="44.46865" lon="6.54848">
        <ele>1751</ele>
        <time>2021-04-08T11:28:55Z</time>
      </trkpt>
      <trkpt lat="44.46865" lon="6.54848">
        <ele>1751</ele>
        <time>2021-04-08T11:28:56Z</time>
      </trkpt>
      <trkpt lat="44.46865" lon="6.54848">
        <ele>1752</ele>
        <time>2021-04-08T11:28:57Z</time>
      </trkpt>
      <trkpt lat="44.46865" lon="6.54848">
        <ele>1752</ele>
        <time>2021-04-08T11:28:58Z</time>
      </trkpt>
      <trkpt lat="44.46865" lon="6.54848">
        <ele>1752</ele>
        <time>2021-04-08T11:28:59Z</time>
      </trkpt>
      <trkpt lat="44.46865" lon="6.54848">
        <ele>1752</ele>
        <time>2021-04-08T11:29:00Z</time>
      </trkpt>
      <trkpt lat="44.46865" lon="6.54848">
        <ele>1752</ele>
        <time>2021-04-08T11:29:01Z</time>
      </trkpt>
      <trkpt lat="44.46865" lon="6.54848">
        <ele>1752</ele>
        <time>2021-04-08T11:29:02Z</time>
      </trkpt>
      <trkpt lat="44.46865" lon="6.54848">
        <ele>1752</ele>
        <time>2021-04-08T11:29:03Z</time>
      </trkpt>
      <trkpt lat="44.46865" lon="6.54848">
        <ele>1752</ele>
        <time>2021-04-08T11:29:04Z</time>
      </trkpt>
      <trkpt lat="44.46865" lon="6.54848">
        <ele>1752</ele>
        <time>2021-04-08T11:29:05Z</time>
      </trkpt>
      <trkpt lat="44.46865" lon="6.54848">
        <ele>1752</ele>
        <time>2021-04-08T11:29:06Z</time>
      </trkpt>
      <trkpt lat="44.46865" lon="6.54848">
        <ele>1752</ele>
        <time>2021-04-08T11:29:07Z</time>
      </trkpt>
      <trkpt lat="44.46865" lon="6.54848">
        <ele>1752</ele>
        <time>2021-04-08T11:29:08Z</time>
      </trkpt>
      <trkpt lat="44.46865" lon="6.54848">
        <ele>1752</ele>
        <time>2021-04-08T11:29:09Z</time>
      </trkpt>
      <trkpt lat="44.46865" lon="6.54848">
        <ele>1752</ele>
        <time>2021-04-08T11:29:10Z</time>
      </trkpt>
      <trkpt lat="44.46865" lon="6.54848">
        <ele>1752</ele>
        <time>2021-04-08T11:29:11Z</time>
      </trkpt>
      <trkpt lat="44.46865" lon="6.54848">
        <ele>1752</ele>
        <time>2021-04-08T11:29:12Z</time>
      </trkpt>
      <trkpt lat="44.46865" lon="6.54848">
        <ele>1752</ele>
        <time>2021-04-08T11:29:13Z</time>
      </trkpt>
      <trkpt lat="44.46865" lon="6.54848">
        <ele>1752</ele>
        <time>2021-04-08T11:29:14Z</time>
      </trkpt>
      <trkpt lat="44.46865" lon="6.54848">
        <ele>1752</ele>
        <time>2021-04-08T11:29:15Z</time>
      </trkpt>
      <trkpt lat="44.46865" lon="6.54848">
        <ele>1752</ele>
        <time>2021-04-08T11:29:16Z</time>
      </trkpt>
      <trkpt lat="44.46865" lon="6.54848">
        <ele>1752</ele>
        <time>2021-04-08T11:29:17Z</time>
      </trkpt>
      <trkpt lat="44.46865" lon="6.54848">
        <ele>1752</ele>
        <time>2021-04-08T11:29:18Z</time>
      </trkpt>
      <trkpt lat="44.46865" lon="6.54848">
        <ele>1752</ele>
        <time>2021-04-08T11:29:19Z</time>
      </trkpt>
      <trkpt lat="44.46865" lon="6.54848">
        <ele>1752</ele>
        <time>2021-04-08T11:29:20Z</time>
      </trkpt>
      <trkpt lat="44.46865" lon="6.54848">
        <ele>1752</ele>
        <time>2021-04-08T11:29:21Z</time>
      </trkpt>
      <trkpt lat="44.46865" lon="6.54848">
        <ele>1752</ele>
        <time>2021-04-08T11:29:22Z</time>
      </trkpt>
      <trkpt lat="44.46865" lon="6.54848">
        <ele>1752</ele>
        <time>2021-04-08T11:29:23Z</time>
      </trkpt>
      <trkpt lat="44.46865" lon="6.54848">
        <ele>1752</ele>
        <time>2021-04-08T11:29:24Z</time>
      </trkpt>
      <trkpt lat="44.46865" lon="6.54848">
        <ele>1752</ele>
        <time>2021-04-08T11:29:25Z</time>
      </trkpt>
      <trkpt lat="44.46865" lon="6.54848">
        <ele>1752</ele>
        <time>2021-04-08T11:29:26Z</time>
      </trkpt>
      <trkpt lat="44.46865" lon="6.54848">
        <ele>1752</ele>
        <time>2021-04-08T11:29:27Z</time>
      </trkpt>
      <trkpt lat="44.46865" lon="6.54848">
        <ele>1752</ele>
        <time>2021-04-08T11:29:28Z</time>
      </trkpt>
      <trkpt lat="44.46865" lon="6.54848">
        <ele>1752</ele>
        <time>2021-04-08T11:29:29Z</time>
      </trkpt>
      <trkpt lat="44.46865" lon="6.54848">
        <ele>1752</ele>
        <time>2021-04-08T11:29:30Z</time>
      </trkpt>
      <trkpt lat="44.46865" lon="6.54848">
        <ele>1752</ele>
        <time>2021-04-08T11:29:31Z</time>
      </trkpt>
      <trkpt lat="44.46865" lon="6.54848">
        <ele>1752</ele>
        <time>2021-04-08T11:29:32Z</time>
      </trkpt>
      <trkpt lat="44.46865" lon="6.54848">
        <ele>1752</ele>
        <time>2021-04-08T11:29:33Z</time>
      </trkpt>
      <trkpt lat="44.46865" lon="6.54848">
        <ele>1752</ele>
        <time>2021-04-08T11:29:34Z</time>
      </trkpt>
      <trkpt lat="44.46865" lon="6.54848">
        <ele>1752</ele>
        <time>2021-04-08T11:29:35Z</time>
      </trkpt>
      <trkpt lat="44.46865" lon="6.54848">
        <ele>1752</ele>
        <time>2021-04-08T11:29:36Z</time>
      </trkpt>
      <trkpt lat="44.46865" lon="6.54848">
        <ele>1752</ele>
        <time>2021-04-08T11:29:37Z</time>
      </trkpt>
      <trkpt lat="44.46865" lon="6.54848">
        <ele>1752</ele>
        <time>2021-04-08T11:29:38Z</time>
      </trkpt>
      <trkpt lat="44.46865" lon="6.54848">
        <ele>1752</ele>
        <time>2021-04-08T11:29:39Z</time>
      </trkpt>
      <trkpt lat="44.46865" lon="6.54848">
        <ele>1752</ele>
        <time>2021-04-08T11:29:40Z</time>
      </trkpt>
      <trkpt lat="44.46865" lon="6.54848">
        <ele>1752</ele>
        <time>2021-04-08T11:29:41Z</time>
      </trkpt>
      <trkpt lat="44.46865" lon="6.54848">
        <ele>1752</ele>
        <time>2021-04-08T11:29:42Z</time>
      </trkpt>
      <trkpt lat="44.46865" lon="6.54848">
        <ele>1752</ele>
        <time>2021-04-08T11:29:43Z</time>
      </trkpt>
      <trkpt lat="44.46865" lon="6.54848">
        <ele>1752</ele>
        <time>2021-04-08T11:29:44Z</time>
      </trkpt>
      <trkpt lat="44.46865" lon="6.54848">
        <ele>1752</ele>
        <time>2021-04-08T11:29:45Z</time>
      </trkpt>
      <trkpt lat="44.46865" lon="6.54848">
        <ele>1752</ele>
        <time>2021-04-08T11:29:46Z</time>
      </trkpt>
      <trkpt lat="44.46865" lon="6.54848">
        <ele>1752</ele>
        <time>2021-04-08T11:29:47Z</time>
      </trkpt>
      <trkpt lat="44.46865" lon="6.54848">
        <ele>1752</ele>
        <time>2021-04-08T11:29:48Z</time>
      </trkpt>
      <trkpt lat="44.46865" lon="6.54848">
        <ele>1752</ele>
        <time>2021-04-08T11:29:49Z</time>
      </trkpt>
      <trkpt lat="44.46865" lon="6.54848">
        <ele>1752</ele>
        <time>2021-04-08T11:29:50Z</time>
      </trkpt>
      <trkpt lat="44.46865" lon="6.54848">
        <ele>1752</ele>
        <time>2021-04-08T11:29:51Z</time>
      </trkpt>
      <trkpt lat="44.46857" lon="6.54854">
        <ele>1749</ele>
        <time>2021-04-08T11:29:52Z</time>
      </trkpt>
      <trkpt lat="44.46857" lon="6.54854">
        <ele>1748</ele>
        <time>2021-04-08T11:29:53Z</time>
      </trkpt>
      <trkpt lat="44.46857" lon="6.54854">
        <ele>1747</ele>
        <time>2021-04-08T11:29:54Z</time>
      </trkpt>
      <trkpt lat="44.46857" lon="6.54854">
        <ele>1747</ele>
        <time>2021-04-08T11:29:55Z</time>
      </trkpt>
      <trkpt lat="44.46857" lon="6.54854">
        <ele>1747</ele>
        <time>2021-04-08T11:29:56Z</time>
      </trkpt>
      <trkpt lat="44.46857" lon="6.54854">
        <ele>1747</ele>
        <time>2021-04-08T11:29:57Z</time>
      </trkpt>
      <trkpt lat="44.46857" lon="6.54854">
        <ele>1747</ele>
        <time>2021-04-08T11:29:58Z</time>
      </trkpt>
      <trkpt lat="44.46857" lon="6.54854">
        <ele>1747</ele>
        <time>2021-04-08T11:29:59Z</time>
      </trkpt>
      <trkpt lat="44.46857" lon="6.54854">
        <ele>1747</ele>
        <time>2021-04-08T11:30:00Z</time>
      </trkpt>
      <trkpt lat="44.46857" lon="6.54854">
        <ele>1747</ele>
        <time>2021-04-08T11:30:01Z</time>
      </trkpt>
      <trkpt lat="44.46857" lon="6.54854">
        <ele>1747</ele>
        <time>2021-04-08T11:30:02Z</time>
      </trkpt>
      <trkpt lat="44.46857" lon="6.54854">
        <ele>1747</ele>
        <time>2021-04-08T11:30:03Z</time>
      </trkpt>
      <trkpt lat="44.46857" lon="6.54854">
        <ele>1747</ele>
        <time>2021-04-08T11:30:04Z</time>
      </trkpt>
      <trkpt lat="44.46857" lon="6.54854">
        <ele>1747</ele>
        <time>2021-04-08T11:30:05Z</time>
      </trkpt>
      <trkpt lat="44.46857" lon="6.54854">
        <ele>1746</ele>
        <time>2021-04-08T11:30:06Z</time>
      </trkpt>
      <trkpt lat="44.46857" lon="6.54854">
        <ele>1746</ele>
        <time>2021-04-08T11:30:07Z</time>
      </trkpt>
      <trkpt lat="44.46857" lon="6.54854">
        <ele>1746</ele>
        <time>2021-04-08T11:30:08Z</time>
      </trkpt>
      <trkpt lat="44.46857" lon="6.54854">
        <ele>1746</ele>
        <time>2021-04-08T11:30:09Z</time>
      </trkpt>
      <trkpt lat="44.46857" lon="6.54854">
        <ele>1746</ele>
        <time>2021-04-08T11:30:10Z</time>
      </trkpt>
      <trkpt lat="44.46857" lon="6.54854">
        <ele>1746</ele>
        <time>2021-04-08T11:30:11Z</time>
      </trkpt>
      <trkpt lat="44.46857" lon="6.54854">
        <ele>1746</ele>
        <time>2021-04-08T11:30:12Z</time>
      </trkpt>
      <trkpt lat="44.46857" lon="6.54854">
        <ele>1746</ele>
        <time>2021-04-08T11:30:13Z</time>
      </trkpt>
      <trkpt lat="44.46866" lon="6.54852">
        <ele>1745</ele>
        <time>2021-04-08T11:30:14Z</time>
      </trkpt>
      <trkpt lat="44.46866" lon="6.54852">
        <ele>1745</ele>
        <time>2021-04-08T11:30:15Z</time>
      </trkpt>
      <trkpt lat="44.46867" lon="6.54852">
        <ele>1745</ele>
        <time>2021-04-08T11:30:16Z</time>
      </trkpt>
      <trkpt lat="44.46867" lon="6.54852">
        <ele>1745</ele>
        <time>2021-04-08T11:30:17Z</time>
      </trkpt>
      <trkpt lat="44.46867" lon="6.54852">
        <ele>1745</ele>
        <time>2021-04-08T11:30:18Z</time>
      </trkpt>
      <trkpt lat="44.46867" lon="6.54852">
        <ele>1745</ele>
        <time>2021-04-08T11:30:19Z</time>
      </trkpt>
      <trkpt lat="44.46867" lon="6.54852">
        <ele>1745</ele>
        <time>2021-04-08T11:30:20Z</time>
      </trkpt>
      <trkpt lat="44.46867" lon="6.54852">
        <ele>1745</ele>
        <time>2021-04-08T11:30:21Z</time>
      </trkpt>
      <trkpt lat="44.46867" lon="6.54852">
        <ele>1745</ele>
        <time>2021-04-08T11:30:22Z</time>
      </trkpt>
      <trkpt lat="44.46867" lon="6.54852">
        <ele>1745</ele>
        <time>2021-04-08T11:30:23Z</time>
      </trkpt>
      <trkpt lat="44.46867" lon="6.54852">
        <ele>1745</ele>
        <time>2021-04-08T11:30:24Z</time>
      </trkpt>
      <trkpt lat="44.46867" lon="6.54852">
        <ele>1745</ele>
        <time>2021-04-08T11:30:25Z</time>
      </trkpt>
      <trkpt lat="44.46867" lon="6.54852">
        <ele>1745</ele>
        <time>2021-04-08T11:30:26Z</time>
      </trkpt>
      <trkpt lat="44.46867" lon="6.54852">
        <ele>1745</ele>
        <time>2021-04-08T11:30:27Z</time>
      </trkpt>
      <trkpt lat="44.46867" lon="6.54852">
        <ele>1745</ele>
        <time>2021-04-08T11:30:28Z</time>
      </trkpt>
      <trkpt lat="44.46867" lon="6.54852">
        <ele>1745</ele>
        <time>2021-04-08T11:30:29Z</time>
      </trkpt>
      <trkpt lat="44.46867" lon="6.54852">
        <ele>1745</ele>
        <time>2021-04-08T11:30:30Z</time>
      </trkpt>
      <trkpt lat="44.46867" lon="6.54852">
        <ele>1745</ele>
        <time>2021-04-08T11:30:31Z</time>
      </trkpt>
      <trkpt lat="44.46867" lon="6.54852">
        <ele>1745</ele>
        <time>2021-04-08T11:30:32Z</time>
      </trkpt>
      <trkpt lat="44.46867" lon="6.54852">
        <ele>1745</ele>
        <time>2021-04-08T11:30:33Z</time>
      </trkpt>
      <trkpt lat="44.46867" lon="6.54852">
        <ele>1745</ele>
        <time>2021-04-08T11:30:34Z</time>
      </trkpt>
      <trkpt lat="44.46867" lon="6.54852">
        <ele>1745</ele>
        <time>2021-04-08T11:30:35Z</time>
      </trkpt>
      <trkpt lat="44.46867" lon="6.54852">
        <ele>1745</ele>
        <time>2021-04-08T11:30:36Z</time>
      </trkpt>
      <trkpt lat="44.46867" lon="6.54852">
        <ele>1745</ele>
        <time>2021-04-08T11:30:37Z</time>
      </trkpt>
      <trkpt lat="44.46867" lon="6.54852">
        <ele>1745</ele>
        <time>2021-04-08T11:30:38Z</time>
      </trkpt>
      <trkpt lat="44.46867" lon="6.54852">
        <ele>1745</ele>
        <time>2021-04-08T11:30:39Z</time>
      </trkpt>
      <trkpt lat="44.46867" lon="6.54852">
        <ele>1745</ele>
        <time>2021-04-08T11:30:40Z</time>
      </trkpt>
      <trkpt lat="44.46867" lon="6.54852">
        <ele>1745</ele>
        <time>2021-04-08T11:30:41Z</time>
      </trkpt>
      <trkpt lat="44.46867" lon="6.54852">
        <ele>1745</ele>
        <time>2021-04-08T11:30:42Z</time>
      </trkpt>
      <trkpt lat="44.46867" lon="6.54852">
        <ele>1745</ele>
        <time>2021-04-08T11:30:43Z</time>
      </trkpt>
      <trkpt lat="44.46867" lon="6.54852">
        <ele>1745</ele>
        <time>2021-04-08T11:30:44Z</time>
      </trkpt>
      <trkpt lat="44.46867" lon="6.54852">
        <ele>1745</ele>
        <time>2021-04-08T11:30:45Z</time>
      </trkpt>
      <trkpt lat="44.46867" lon="6.54852">
        <ele>1745</ele>
        <time>2021-04-08T11:30:46Z</time>
      </trkpt>
      <trkpt lat="44.46867" lon="6.54852">
        <ele>1745</ele>
        <time>2021-04-08T11:30:47Z</time>
      </trkpt>
      <trkpt lat="44.46867" lon="6.54852">
        <ele>1745</ele>
        <time>2021-04-08T11:30:48Z</time>
      </trkpt>
      <trkpt lat="44.46867" lon="6.54852">
        <ele>1745</ele>
        <time>2021-04-08T11:30:49Z</time>
      </trkpt>
      <trkpt lat="44.46867" lon="6.54852">
        <ele>1745</ele>
        <time>2021-04-08T11:30:50Z</time>
      </trkpt>
      <trkpt lat="44.46867" lon="6.54852">
        <ele>1745</ele>
        <time>2021-04-08T11:30:51Z</time>
      </trkpt>
      <trkpt lat="44.46867" lon="6.54852">
        <ele>1745</ele>
        <time>2021-04-08T11:30:52Z</time>
      </trkpt>
      <trkpt lat="44.46867" lon="6.54852">
        <ele>1745</ele>
        <time>2021-04-08T11:30:53Z</time>
      </trkpt>
      <trkpt lat="44.46867" lon="6.54852">
        <ele>1745</ele>
        <time>2021-04-08T11:30:54Z</time>
      </trkpt>
      <trkpt lat="44.46867" lon="6.54852">
        <ele>1745</ele>
        <time>2021-04-08T11:30:55Z</time>
      </trkpt>
      <trkpt lat="44.46867" lon="6.54852">
        <ele>1745</ele>
        <time>2021-04-08T11:30:56Z</time>
      </trkpt>
      <trkpt lat="44.46867" lon="6.54852">
        <ele>1745</ele>
        <time>2021-04-08T11:30:57Z</time>
      </trkpt>
      <trkpt lat="44.46867" lon="6.54852">
        <ele>1745</ele>
        <time>2021-04-08T11:30:58Z</time>
      </trkpt>
      <trkpt lat="44.46867" lon="6.54852">
        <ele>1745</ele>
        <time>2021-04-08T11:30:59Z</time>
      </trkpt>
      <trkpt lat="44.46867" lon="6.54852">
        <ele>1745</ele>
        <time>2021-04-08T11:31:00Z</time>
      </trkpt>
      <trkpt lat="44.46867" lon="6.54852">
        <ele>1745</ele>
        <time>2021-04-08T11:31:01Z</time>
      </trkpt>
      <trkpt lat="44.46867" lon="6.54852">
        <ele>1745</ele>
        <time>2021-04-08T11:31:02Z</time>
      </trkpt>
      <trkpt lat="44.46867" lon="6.54852">
        <ele>1745</ele>
        <time>2021-04-08T11:31:03Z</time>
      </trkpt>
      <trkpt lat="44.46867" lon="6.54852">
        <ele>1745</ele>
        <time>2021-04-08T11:31:04Z</time>
      </trkpt>
      <trkpt lat="44.46867" lon="6.54852">
        <ele>1745</ele>
        <time>2021-04-08T11:31:05Z</time>
      </trkpt>
      <trkpt lat="44.46867" lon="6.54852">
        <ele>1745</ele>
        <time>2021-04-08T11:31:06Z</time>
      </trkpt>
      <trkpt lat="44.46875" lon="6.54854">
        <ele>1744</ele>
        <time>2021-04-08T11:31:07Z</time>
      </trkpt>
      <trkpt lat="44.46878" lon="6.54856">
        <ele>1744</ele>
        <time>2021-04-08T11:31:08Z</time>
      </trkpt>
      <trkpt lat="44.4688" lon="6.54858">
        <ele>1744</ele>
        <time>2021-04-08T11:31:09Z</time>
      </trkpt>
      <trkpt lat="44.46883" lon="6.5486">
        <ele>1744</ele>
        <time>2021-04-08T11:31:10Z</time>
      </trkpt>
      <trkpt lat="44.46887" lon="6.54862">
        <ele>1744</ele>
        <time>2021-04-08T11:31:11Z</time>
      </trkpt>
      <trkpt lat="44.46891" lon="6.54864">
        <ele>1743</ele>
        <time>2021-04-08T11:31:12Z</time>
      </trkpt>
      <trkpt lat="44.46896" lon="6.54866">
        <ele>1743</ele>
        <time>2021-04-08T11:31:13Z</time>
      </trkpt>
      <trkpt lat="44.46901" lon="6.54867">
        <ele>1743</ele>
        <time>2021-04-08T11:31:14Z</time>
      </trkpt>
      <trkpt lat="44.46906" lon="6.54869">
        <ele>1743</ele>
        <time>2021-04-08T11:31:15Z</time>
      </trkpt>
      <trkpt lat="44.46912" lon="6.54871">
        <ele>1742</ele>
        <time>2021-04-08T11:31:16Z</time>
      </trkpt>
      <trkpt lat="44.46918" lon="6.54871">
        <ele>1741</ele>
        <time>2021-04-08T11:31:17Z</time>
      </trkpt>
      <trkpt lat="44.46924" lon="6.5487">
        <ele>1740</ele>
        <time>2021-04-08T11:31:18Z</time>
      </trkpt>
      <trkpt lat="44.4693" lon="6.54869">
        <ele>1740</ele>
        <time>2021-04-08T11:31:19Z</time>
      </trkpt>
      <trkpt lat="44.46936" lon="6.54867">
        <ele>1738</ele>
        <time>2021-04-08T11:31:20Z</time>
      </trkpt>
      <trkpt lat="44.46941" lon="6.54866">
        <ele>1737</ele>
        <time>2021-04-08T11:31:21Z</time>
      </trkpt>
      <trkpt lat="44.46947" lon="6.54866">
        <ele>1736</ele>
        <time>2021-04-08T11:31:22Z</time>
      </trkpt>
      <trkpt lat="44.46953" lon="6.54867">
        <ele>1735</ele>
        <time>2021-04-08T11:31:23Z</time>
      </trkpt>
      <trkpt lat="44.46959" lon="6.54868">
        <ele>1735</ele>
        <time>2021-04-08T11:31:24Z</time>
      </trkpt>
      <trkpt lat="44.46965" lon="6.54868">
        <ele>1734</ele>
        <time>2021-04-08T11:31:25Z</time>
      </trkpt>
      <trkpt lat="44.46972" lon="6.54868">
        <ele>1734</ele>
        <time>2021-04-08T11:31:26Z</time>
      </trkpt>
      <trkpt lat="44.46979" lon="6.54869">
        <ele>1734</ele>
        <time>2021-04-08T11:31:27Z</time>
      </trkpt>
      <trkpt lat="44.46985" lon="6.54868">
        <ele>1734</ele>
        <time>2021-04-08T11:31:28Z</time>
      </trkpt>
      <trkpt lat="44.46992" lon="6.54868">
        <ele>1733</ele>
        <time>2021-04-08T11:31:29Z</time>
      </trkpt>
      <trkpt lat="44.46998" lon="6.54869">
        <ele>1733</ele>
        <time>2021-04-08T11:31:30Z</time>
      </trkpt>
      <trkpt lat="44.47005" lon="6.54869">
        <ele>1733</ele>
        <time>2021-04-08T11:31:31Z</time>
      </trkpt>
      <trkpt lat="44.47011" lon="6.5487">
        <ele>1733</ele>
        <time>2021-04-08T11:31:32Z</time>
      </trkpt>
      <trkpt lat="44.47018" lon="6.5487">
        <ele>1732</ele>
        <time>2021-04-08T11:31:33Z</time>
      </trkpt>
      <trkpt lat="44.47024" lon="6.54871">
        <ele>1732</ele>
        <time>2021-04-08T11:31:34Z</time>
      </trkpt>
      <trkpt lat="44.4703" lon="6.54871">
        <ele>1732</ele>
        <time>2021-04-08T11:31:35Z</time>
      </trkpt>
      <trkpt lat="44.47036" lon="6.54869">
        <ele>1732</ele>
        <time>2021-04-08T11:31:36Z</time>
      </trkpt>
      <trkpt lat="44.47042" lon="6.54867">
        <ele>1731</ele>
        <time>2021-04-08T11:31:37Z</time>
      </trkpt>
      <trkpt lat="44.47048" lon="6.54863">
        <ele>1731</ele>
        <time>2021-04-08T11:31:38Z</time>
      </trkpt>
      <trkpt lat="44.47053" lon="6.54858">
        <ele>1730</ele>
        <time>2021-04-08T11:31:39Z</time>
      </trkpt>
      <trkpt lat="44.47058" lon="6.54854">
        <ele>1729</ele>
        <time>2021-04-08T11:31:40Z</time>
      </trkpt>
      <trkpt lat="44.47062" lon="6.5485">
        <ele>1728</ele>
        <time>2021-04-08T11:31:41Z</time>
      </trkpt>
      <trkpt lat="44.47067" lon="6.54845">
        <ele>1728</ele>
        <time>2021-04-08T11:31:42Z</time>
      </trkpt>
      <trkpt lat="44.47073" lon="6.5484">
        <ele>1727</ele>
        <time>2021-04-08T11:31:43Z</time>
      </trkpt>
      <trkpt lat="44.47078" lon="6.54835">
        <ele>1726</ele>
        <time>2021-04-08T11:31:44Z</time>
      </trkpt>
      <trkpt lat="44.47084" lon="6.5483">
        <ele>1725</ele>
        <time>2021-04-08T11:31:45Z</time>
      </trkpt>
      <trkpt lat="44.4709" lon="6.54824">
        <ele>1724</ele>
        <time>2021-04-08T11:31:46Z</time>
      </trkpt>
      <trkpt lat="44.47095" lon="6.54819">
        <ele>1722</ele>
        <time>2021-04-08T11:31:47Z</time>
      </trkpt>
      <trkpt lat="44.471" lon="6.54815">
        <ele>1719</ele>
        <time>2021-04-08T11:31:48Z</time>
      </trkpt>
      <trkpt lat="44.47106" lon="6.54811">
        <ele>1717</ele>
        <time>2021-04-08T11:31:49Z</time>
      </trkpt>
      <trkpt lat="44.47111" lon="6.54808">
        <ele>1714</ele>
        <time>2021-04-08T11:31:50Z</time>
      </trkpt>
      <trkpt lat="44.47117" lon="6.54805">
        <ele>1713</ele>
        <time>2021-04-08T11:31:51Z</time>
      </trkpt>
      <trkpt lat="44.47124" lon="6.54802">
        <ele>1711</ele>
        <time>2021-04-08T11:31:52Z</time>
      </trkpt>
      <trkpt lat="44.4713" lon="6.54799">
        <ele>1709</ele>
        <time>2021-04-08T11:31:53Z</time>
      </trkpt>
      <trkpt lat="44.47137" lon="6.54797">
        <ele>1707</ele>
        <time>2021-04-08T11:31:54Z</time>
      </trkpt>
      <trkpt lat="44.47144" lon="6.54793">
        <ele>1705</ele>
        <time>2021-04-08T11:31:55Z</time>
      </trkpt>
      <trkpt lat="44.47152" lon="6.5479">
        <ele>1703</ele>
        <time>2021-04-08T11:31:56Z</time>
      </trkpt>
      <trkpt lat="44.4716" lon="6.54787">
        <ele>1701</ele>
        <time>2021-04-08T11:31:57Z</time>
      </trkpt>
      <trkpt lat="44.47167" lon="6.54784">
        <ele>1700</ele>
        <time>2021-04-08T11:31:58Z</time>
      </trkpt>
      <trkpt lat="44.47175" lon="6.54783">
        <ele>1699</ele>
        <time>2021-04-08T11:31:59Z</time>
      </trkpt>
      <trkpt lat="44.47183" lon="6.54783">
        <ele>1698</ele>
        <time>2021-04-08T11:32:00Z</time>
      </trkpt>
      <trkpt lat="44.47191" lon="6.54783">
        <ele>1697</ele>
        <time>2021-04-08T11:32:01Z</time>
      </trkpt>
      <trkpt lat="44.47198" lon="6.54783">
        <ele>1696</ele>
        <time>2021-04-08T11:32:02Z</time>
      </trkpt>
      <trkpt lat="44.47206" lon="6.54784">
        <ele>1695</ele>
        <time>2021-04-08T11:32:03Z</time>
      </trkpt>
      <trkpt lat="44.47214" lon="6.54784">
        <ele>1695</ele>
        <time>2021-04-08T11:32:04Z</time>
      </trkpt>
      <trkpt lat="44.47222" lon="6.54783">
        <ele>1694</ele>
        <time>2021-04-08T11:32:05Z</time>
      </trkpt>
      <trkpt lat="44.4723" lon="6.54782">
        <ele>1693</ele>
        <time>2021-04-08T11:32:06Z</time>
      </trkpt>
      <trkpt lat="44.47237" lon="6.5478">
        <ele>1692</ele>
        <time>2021-04-08T11:32:07Z</time>
      </trkpt>
      <trkpt lat="44.47244" lon="6.54777">
        <ele>1691</ele>
        <time>2021-04-08T11:32:08Z</time>
      </trkpt>
      <trkpt lat="44.47251" lon="6.54774">
        <ele>1690</ele>
        <time>2021-04-08T11:32:09Z</time>
      </trkpt>
      <trkpt lat="44.47257" lon="6.54767">
        <ele>1689</ele>
        <time>2021-04-08T11:32:10Z</time>
      </trkpt>
      <trkpt lat="44.47263" lon="6.5476">
        <ele>1687</ele>
        <time>2021-04-08T11:32:11Z</time>
      </trkpt>
      <trkpt lat="44.4727" lon="6.54754">
        <ele>1686</ele>
        <time>2021-04-08T11:32:12Z</time>
      </trkpt>
      <trkpt lat="44.47276" lon="6.54749">
        <ele>1684</ele>
        <time>2021-04-08T11:32:13Z</time>
      </trkpt>
      <trkpt lat="44.47284" lon="6.54745">
        <ele>1682</ele>
        <time>2021-04-08T11:32:14Z</time>
      </trkpt>
      <trkpt lat="44.47291" lon="6.54745">
        <ele>1680</ele>
        <time>2021-04-08T11:32:15Z</time>
      </trkpt>
      <trkpt lat="44.47299" lon="6.54749">
        <ele>1678</ele>
        <time>2021-04-08T11:32:16Z</time>
      </trkpt>
      <trkpt lat="44.47305" lon="6.54755">
        <ele>1677</ele>
        <time>2021-04-08T11:32:17Z</time>
      </trkpt>
      <trkpt lat="44.47311" lon="6.54762">
        <ele>1675</ele>
        <time>2021-04-08T11:32:18Z</time>
      </trkpt>
      <trkpt lat="44.47317" lon="6.54768">
        <ele>1673</ele>
        <time>2021-04-08T11:32:19Z</time>
      </trkpt>
      <trkpt lat="44.47321" lon="6.54775">
        <ele>1672</ele>
        <time>2021-04-08T11:32:20Z</time>
      </trkpt>
      <trkpt lat="44.47324" lon="6.54781">
        <ele>1670</ele>
        <time>2021-04-08T11:32:21Z</time>
      </trkpt>
      <trkpt lat="44.47327" lon="6.54786">
        <ele>1669</ele>
        <time>2021-04-08T11:32:22Z</time>
      </trkpt>
      <trkpt lat="44.47329" lon="6.5479">
        <ele>1668</ele>
        <time>2021-04-08T11:32:23Z</time>
      </trkpt>
      <trkpt lat="44.47329" lon="6.54792">
        <ele>1667</ele>
        <time>2021-04-08T11:32:24Z</time>
      </trkpt>
      <trkpt lat="44.47329" lon="6.54794">
        <ele>1666</ele>
        <time>2021-04-08T11:32:25Z</time>
      </trkpt>
      <trkpt lat="44.4733" lon="6.54795">
        <ele>1666</ele>
        <time>2021-04-08T11:32:26Z</time>
      </trkpt>
      <trkpt lat="44.4733" lon="6.54795">
        <ele>1666</ele>
        <time>2021-04-08T11:32:27Z</time>
      </trkpt>
      <trkpt lat="44.4733" lon="6.54795">
        <ele>1665</ele>
        <time>2021-04-08T11:32:28Z</time>
      </trkpt>
      <trkpt lat="44.4733" lon="6.54795">
        <ele>1665</ele>
        <time>2021-04-08T11:32:29Z</time>
      </trkpt>
      <trkpt lat="44.4733" lon="6.54795">
        <ele>1665</ele>
        <time>2021-04-08T11:32:30Z</time>
      </trkpt>
      <trkpt lat="44.4733" lon="6.54795">
        <ele>1665</ele>
        <time>2021-04-08T11:32:31Z</time>
      </trkpt>
      <trkpt lat="44.4733" lon="6.54795">
        <ele>1665</ele>
        <time>2021-04-08T11:32:32Z</time>
      </trkpt>
      <trkpt lat="44.4733" lon="6.54795">
        <ele>1665</ele>
        <time>2021-04-08T11:32:33Z</time>
      </trkpt>
      <trkpt lat="44.4733" lon="6.54795">
        <ele>1665</ele>
        <time>2021-04-08T11:32:34Z</time>
      </trkpt>
      <trkpt lat="44.4733" lon="6.54795">
        <ele>1665</ele>
        <time>2021-04-08T11:32:35Z</time>
      </trkpt>
      <trkpt lat="44.4733" lon="6.54795">
        <ele>1665</ele>
        <time>2021-04-08T11:32:36Z</time>
      </trkpt>
      <trkpt lat="44.4733" lon="6.54795">
        <ele>1665</ele>
        <time>2021-04-08T11:32:37Z</time>
      </trkpt>
      <trkpt lat="44.4733" lon="6.54795">
        <ele>1665</ele>
        <time>2021-04-08T11:32:38Z</time>
      </trkpt>
      <trkpt lat="44.4733" lon="6.54795">
        <ele>1665</ele>
        <time>2021-04-08T11:32:39Z</time>
      </trkpt>
      <trkpt lat="44.4733" lon="6.54795">
        <ele>1665</ele>
        <time>2021-04-08T11:32:40Z</time>
      </trkpt>
      <trkpt lat="44.4733" lon="6.54795">
        <ele>1665</ele>
        <time>2021-04-08T11:32:41Z</time>
      </trkpt>
      <trkpt lat="44.4733" lon="6.54795">
        <ele>1665</ele>
        <time>2021-04-08T11:32:42Z</time>
      </trkpt>
      <trkpt lat="44.4733" lon="6.54795">
        <ele>1665</ele>
        <time>2021-04-08T11:32:43Z</time>
      </trkpt>
      <trkpt lat="44.4733" lon="6.54795">
        <ele>1665</ele>
        <time>2021-04-08T11:32:44Z</time>
      </trkpt>
      <trkpt lat="44.4733" lon="6.54795">
        <ele>1665</ele>
        <time>2021-04-08T11:32:45Z</time>
      </trkpt>
      <trkpt lat="44.4733" lon="6.54795">
        <ele>1665</ele>
        <time>2021-04-08T11:32:46Z</time>
      </trkpt>
      <trkpt lat="44.4733" lon="6.54795">
        <ele>1665</ele>
        <time>2021-04-08T11:32:47Z</time>
      </trkpt>
      <trkpt lat="44.4733" lon="6.54795">
        <ele>1665</ele>
        <time>2021-04-08T11:32:48Z</time>
      </trkpt>
      <trkpt lat="44.4733" lon="6.54795">
        <ele>1665</ele>
        <time>2021-04-08T11:32:49Z</time>
      </trkpt>
      <trkpt lat="44.4733" lon="6.54795">
        <ele>1665</ele>
        <time>2021-04-08T11:32:50Z</time>
      </trkpt>
      <trkpt lat="44.4733" lon="6.54795">
        <ele>1665</ele>
        <time>2021-04-08T11:32:51Z</time>
      </trkpt>
      <trkpt lat="44.4733" lon="6.54795">
        <ele>1665</ele>
        <time>2021-04-08T11:32:52Z</time>
      </trkpt>
      <trkpt lat="44.4733" lon="6.54795">
        <ele>1665</ele>
        <time>2021-04-08T11:32:53Z</time>
      </trkpt>
      <trkpt lat="44.4733" lon="6.54795">
        <ele>1665</ele>
        <time>2021-04-08T11:32:54Z</time>
      </trkpt>
      <trkpt lat="44.4733" lon="6.54795">
        <ele>1665</ele>
        <time>2021-04-08T11:32:55Z</time>
      </trkpt>
      <trkpt lat="44.4733" lon="6.54795">
        <ele>1665</ele>
        <time>2021-04-08T11:32:56Z</time>
      </trkpt>
      <trkpt lat="44.47321" lon="6.548">
        <ele>1665</ele>
        <time>2021-04-08T11:32:57Z</time>
      </trkpt>
      <trkpt lat="44.47321" lon="6.54801">
        <ele>1665</ele>
        <time>2021-04-08T11:32:58Z</time>
      </trkpt>
      <trkpt lat="44.47324" lon="6.54804">
        <ele>1666</ele>
        <time>2021-04-08T11:32:59Z</time>
      </trkpt>
      <trkpt lat="44.47326" lon="6.54808">
        <ele>1666</ele>
        <time>2021-04-08T11:33:00Z</time>
      </trkpt>
      <trkpt lat="44.47329" lon="6.54808">
        <ele>1666</ele>
        <time>2021-04-08T11:33:01Z</time>
      </trkpt>
      <trkpt lat="44.47329" lon="6.54813">
        <ele>1666</ele>
        <time>2021-04-08T11:33:02Z</time>
      </trkpt>
      <trkpt lat="44.47329" lon="6.54815">
        <ele>1666</ele>
        <time>2021-04-08T11:33:03Z</time>
      </trkpt>
      <trkpt lat="44.47329" lon="6.54816">
        <ele>1666</ele>
        <time>2021-04-08T11:33:04Z</time>
      </trkpt>
      <trkpt lat="44.47329" lon="6.54817">
        <ele>1666</ele>
        <time>2021-04-08T11:33:05Z</time>
      </trkpt>
      <trkpt lat="44.47329" lon="6.5481">
        <ele>1667</ele>
        <time>2021-04-08T11:33:06Z</time>
      </trkpt>
      <trkpt lat="44.47329" lon="6.54809">
        <ele>1669</ele>
        <time>2021-04-08T11:33:07Z</time>
      </trkpt>
      <trkpt lat="44.47329" lon="6.54808">
        <ele>1670</ele>
        <time>2021-04-08T11:33:08Z</time>
      </trkpt>
      <trkpt lat="44.47329" lon="6.54808">
        <ele>1670</ele>
        <time>2021-04-08T11:33:09Z</time>
      </trkpt>
      <trkpt lat="44.47329" lon="6.54808">
        <ele>1670</ele>
        <time>2021-04-08T11:33:10Z</time>
      </trkpt>
      <trkpt lat="44.47329" lon="6.54808">
        <ele>1670</ele>
        <time>2021-04-08T11:33:11Z</time>
      </trkpt>
      <trkpt lat="44.47329" lon="6.54808">
        <ele>1670</ele>
        <time>2021-04-08T11:33:12Z</time>
      </trkpt>
      <trkpt lat="44.47329" lon="6.54808">
        <ele>1670</ele>
        <time>2021-04-08T11:33:13Z</time>
      </trkpt>
      <trkpt lat="44.47329" lon="6.54808">
        <ele>1670</ele>
        <time>2021-04-08T11:33:14Z</time>
      </trkpt>
      <trkpt lat="44.47329" lon="6.54808">
        <ele>1670</ele>
        <time>2021-04-08T11:33:15Z</time>
      </trkpt>
      <trkpt lat="44.47329" lon="6.54808">
        <ele>1670</ele>
        <time>2021-04-08T11:33:16Z</time>
      </trkpt>
      <trkpt lat="44.47329" lon="6.54808">
        <ele>1670</ele>
        <time>2021-04-08T11:33:17Z</time>
      </trkpt>
      <trkpt lat="44.47329" lon="6.54808">
        <ele>1670</ele>
        <time>2021-04-08T11:33:18Z</time>
      </trkpt>
      <trkpt lat="44.47329" lon="6.54808">
        <ele>1670</ele>
        <time>2021-04-08T11:33:19Z</time>
      </trkpt>
      <trkpt lat="44.47329" lon="6.54808">
        <ele>1670</ele>
        <time>2021-04-08T11:33:20Z</time>
      </trkpt>
      <trkpt lat="44.47329" lon="6.54808">
        <ele>1670</ele>
        <time>2021-04-08T11:33:21Z</time>
      </trkpt>
      <trkpt lat="44.47329" lon="6.54808">
        <ele>1670</ele>
        <time>2021-04-08T11:33:22Z</time>
      </trkpt>
      <trkpt lat="44.47329" lon="6.54808">
        <ele>1670</ele>
        <time>2021-04-08T11:33:23Z</time>
      </trkpt>
      <trkpt lat="44.47329" lon="6.54808">
        <ele>1670</ele>
        <time>2021-04-08T11:33:24Z</time>
      </trkpt>
      <trkpt lat="44.47329" lon="6.54808">
        <ele>1670</ele>
        <time>2021-04-08T11:33:25Z</time>
      </trkpt>
      <trkpt lat="44.47329" lon="6.54808">
        <ele>1670</ele>
        <time>2021-04-08T11:33:26Z</time>
      </trkpt>
      <trkpt lat="44.47329" lon="6.54808">
        <ele>1670</ele>
        <time>2021-04-08T11:33:27Z</time>
      </trkpt>
      <trkpt lat="44.47329" lon="6.54808">
        <ele>1670</ele>
        <time>2021-04-08T11:33:28Z</time>
      </trkpt>
      <trkpt lat="44.47329" lon="6.54808">
        <ele>1670</ele>
        <time>2021-04-08T11:33:29Z</time>
      </trkpt>
      <trkpt lat="44.47329" lon="6.54808">
        <ele>1670</ele>
        <time>2021-04-08T11:33:30Z</time>
      </trkpt>
      <trkpt lat="44.47329" lon="6.54808">
        <ele>1670</ele>
        <time>2021-04-08T11:33:31Z</time>
      </trkpt>
      <trkpt lat="44.47329" lon="6.54808">
        <ele>1670</ele>
        <time>2021-04-08T11:33:32Z</time>
      </trkpt>
      <trkpt lat="44.47329" lon="6.54808">
        <ele>1670</ele>
        <time>2021-04-08T11:33:33Z</time>
      </trkpt>
      <trkpt lat="44.47329" lon="6.54808">
        <ele>1670</ele>
        <time>2021-04-08T11:33:34Z</time>
      </trkpt>
      <trkpt lat="44.47329" lon="6.54808">
        <ele>1670</ele>
        <time>2021-04-08T11:33:35Z</time>
      </trkpt>
      <trkpt lat="44.47329" lon="6.54808">
        <ele>1670</ele>
        <time>2021-04-08T11:33:36Z</time>
      </trkpt>
      <trkpt lat="44.47329" lon="6.54808">
        <ele>1670</ele>
        <time>2021-04-08T11:33:37Z</time>
      </trkpt>
      <trkpt lat="44.47329" lon="6.54808">
        <ele>1670</ele>
        <time>2021-04-08T11:33:38Z</time>
      </trkpt>
      <trkpt lat="44.47329" lon="6.54808">
        <ele>1670</ele>
        <time>2021-04-08T11:33:39Z</time>
      </trkpt>
      <trkpt lat="44.47329" lon="6.54808">
        <ele>1670</ele>
        <time>2021-04-08T11:33:40Z</time>
      </trkpt>
      <trkpt lat="44.47329" lon="6.54808">
        <ele>1670</ele>
        <time>2021-04-08T11:33:41Z</time>
      </trkpt>
      <trkpt lat="44.47329" lon="6.54808">
        <ele>1670</ele>
        <time>2021-04-08T11:33:42Z</time>
      </trkpt>
      <trkpt lat="44.47329" lon="6.54808">
        <ele>1670</ele>
        <time>2021-04-08T11:33:43Z</time>
      </trkpt>
      <trkpt lat="44.47329" lon="6.54808">
        <ele>1670</ele>
        <time>2021-04-08T11:33:44Z</time>
      </trkpt>
      <trkpt lat="44.47329" lon="6.54808">
        <ele>1670</ele>
        <time>2021-04-08T11:33:45Z</time>
      </trkpt>
      <trkpt lat="44.47329" lon="6.54808">
        <ele>1670</ele>
        <time>2021-04-08T11:33:46Z</time>
      </trkpt>
      <trkpt lat="44.47329" lon="6.54808">
        <ele>1670</ele>
        <time>2021-04-08T11:33:47Z</time>
      </trkpt>
      <trkpt lat="44.47329" lon="6.54808">
        <ele>1670</ele>
        <time>2021-04-08T11:33:48Z</time>
      </trkpt>
      <trkpt lat="44.47329" lon="6.54808">
        <ele>1670</ele>
        <time>2021-04-08T11:33:49Z</time>
      </trkpt>
      <trkpt lat="44.47329" lon="6.54808">
        <ele>1670</ele>
        <time>2021-04-08T11:33:50Z</time>
      </trkpt>
      <trkpt lat="44.47329" lon="6.54808">
        <ele>1670</ele>
        <time>2021-04-08T11:33:51Z</time>
      </trkpt>
      <trkpt lat="44.47329" lon="6.54808">
        <ele>1670</ele>
        <time>2021-04-08T11:33:52Z</time>
      </trkpt>
      <trkpt lat="44.47329" lon="6.54808">
        <ele>1670</ele>
        <time>2021-04-08T11:33:53Z</time>
      </trkpt>
      <trkpt lat="44.47329" lon="6.54808">
        <ele>1670</ele>
        <time>2021-04-08T11:33:54Z</time>
      </trkpt>
      <trkpt lat="44.47329" lon="6.54808">
        <ele>1670</ele>
        <time>2021-04-08T11:33:55Z</time>
      </trkpt>
      <trkpt lat="44.47329" lon="6.54808">
        <ele>1670</ele>
        <time>2021-04-08T11:33:56Z</time>
      </trkpt>
      <trkpt lat="44.47329" lon="6.54808">
        <ele>1670</ele>
        <time>2021-04-08T11:33:57Z</time>
      </trkpt>
      <trkpt lat="44.47329" lon="6.54808">
        <ele>1670</ele>
        <time>2021-04-08T11:33:58Z</time>
      </trkpt>
      <trkpt lat="44.47329" lon="6.54808">
        <ele>1670</ele>
        <time>2021-04-08T11:33:59Z</time>
      </trkpt>
      <trkpt lat="44.47329" lon="6.54808">
        <ele>1670</ele>
        <time>2021-04-08T11:34:00Z</time>
      </trkpt>
      <trkpt lat="44.47329" lon="6.54808">
        <ele>1670</ele>
        <time>2021-04-08T11:34:01Z</time>
      </trkpt>
      <trkpt lat="44.47329" lon="6.54808">
        <ele>1670</ele>
        <time>2021-04-08T11:34:02Z</time>
      </trkpt>
      <trkpt lat="44.47329" lon="6.54808">
        <ele>1670</ele>
        <time>2021-04-08T11:34:03Z</time>
      </trkpt>
      <trkpt lat="44.47329" lon="6.54808">
        <ele>1670</ele>
        <time>2021-04-08T11:34:04Z</time>
      </trkpt>
      <trkpt lat="44.47329" lon="6.54808">
        <ele>1670</ele>
        <time>2021-04-08T11:34:05Z</time>
      </trkpt>
      <trkpt lat="44.47329" lon="6.54808">
        <ele>1670</ele>
        <time>2021-04-08T11:34:06Z</time>
      </trkpt>
      <trkpt lat="44.47329" lon="6.54808">
        <ele>1670</ele>
        <time>2021-04-08T11:34:07Z</time>
      </trkpt>
      <trkpt lat="44.47329" lon="6.54808">
        <ele>1670</ele>
        <time>2021-04-08T11:34:08Z</time>
      </trkpt>
      <trkpt lat="44.47329" lon="6.54808">
        <ele>1670</ele>
        <time>2021-04-08T11:34:09Z</time>
      </trkpt>
      <trkpt lat="44.47329" lon="6.54808">
        <ele>1670</ele>
        <time>2021-04-08T11:34:10Z</time>
      </trkpt>
      <trkpt lat="44.47329" lon="6.54808">
        <ele>1670</ele>
        <time>2021-04-08T11:34:11Z</time>
      </trkpt>
      <trkpt lat="44.47329" lon="6.54808">
        <ele>1670</ele>
        <time>2021-04-08T11:34:12Z</time>
      </trkpt>
      <trkpt lat="44.47329" lon="6.54808">
        <ele>1670</ele>
        <time>2021-04-08T11:34:13Z</time>
      </trkpt>
      <trkpt lat="44.47329" lon="6.54808">
        <ele>1670</ele>
        <time>2021-04-08T11:34:14Z</time>
      </trkpt>
      <trkpt lat="44.47329" lon="6.54808">
        <ele>1670</ele>
        <time>2021-04-08T11:34:15Z</time>
      </trkpt>
      <trkpt lat="44.47329" lon="6.54808">
        <ele>1670</ele>
        <time>2021-04-08T11:34:16Z</time>
      </trkpt>
      <trkpt lat="44.47329" lon="6.54808">
        <ele>1670</ele>
        <time>2021-04-08T11:34:17Z</time>
      </trkpt>
      <trkpt lat="44.47329" lon="6.54808">
        <ele>1670</ele>
        <time>2021-04-08T11:34:18Z</time>
      </trkpt>
      <trkpt lat="44.47329" lon="6.54808">
        <ele>1670</ele>
        <time>2021-04-08T11:34:19Z</time>
      </trkpt>
      <trkpt lat="44.47329" lon="6.54808">
        <ele>1670</ele>
        <time>2021-04-08T11:34:20Z</time>
      </trkpt>
      <trkpt lat="44.47329" lon="6.54808">
        <ele>1670</ele>
        <time>2021-04-08T11:34:21Z</time>
      </trkpt>
      <trkpt lat="44.47329" lon="6.54808">
        <ele>1670</ele>
        <time>2021-04-08T11:34:22Z</time>
      </trkpt>
      <trkpt lat="44.47329" lon="6.54808">
        <ele>1670</ele>
        <time>2021-04-08T11:34:23Z</time>
      </trkpt>
      <trkpt lat="44.47329" lon="6.54808">
        <ele>1670</ele>
        <time>2021-04-08T11:34:24Z</time>
      </trkpt>
      <trkpt lat="44.47329" lon="6.54808">
        <ele>1670</ele>
        <time>2021-04-08T11:34:25Z</time>
      </trkpt>
      <trkpt lat="44.47329" lon="6.54808">
        <ele>1670</ele>
        <time>2021-04-08T11:34:26Z</time>
      </trkpt>
      <trkpt lat="44.47329" lon="6.54808">
        <ele>1670</ele>
        <time>2021-04-08T11:34:27Z</time>
      </trkpt>
      <trkpt lat="44.47329" lon="6.54808">
        <ele>1670</ele>
        <time>2021-04-08T11:34:28Z</time>
      </trkpt>
      <trkpt lat="44.47329" lon="6.54808">
        <ele>1670</ele>
        <time>2021-04-08T11:34:29Z</time>
      </trkpt>
      <trkpt lat="44.47329" lon="6.54808">
        <ele>1670</ele>
        <time>2021-04-08T11:34:30Z</time>
      </trkpt>
      <trkpt lat="44.47329" lon="6.54808">
        <ele>1670</ele>
        <time>2021-04-08T11:34:31Z</time>
      </trkpt>
      <trkpt lat="44.47329" lon="6.54808">
        <ele>1670</ele>
        <time>2021-04-08T11:34:32Z</time>
      </trkpt>
      <trkpt lat="44.47329" lon="6.54808">
        <ele>1670</ele>
        <time>2021-04-08T11:34:33Z</time>
      </trkpt>
      <trkpt lat="44.47329" lon="6.54808">
        <ele>1670</ele>
        <time>2021-04-08T11:34:34Z</time>
      </trkpt>
      <trkpt lat="44.47329" lon="6.54808">
        <ele>1670</ele>
        <time>2021-04-08T11:34:35Z</time>
      </trkpt>
      <trkpt lat="44.47329" lon="6.54808">
        <ele>1670</ele>
        <time>2021-04-08T11:34:36Z</time>
      </trkpt>
      <trkpt lat="44.47329" lon="6.54808">
        <ele>1670</ele>
        <time>2021-04-08T11:34:37Z</time>
      </trkpt>
      <trkpt lat="44.47329" lon="6.54808">
        <ele>1670</ele>
        <time>2021-04-08T11:34:38Z</time>
      </trkpt>
      <trkpt lat="44.47329" lon="6.54808">
        <ele>1670</ele>
        <time>2021-04-08T11:34:39Z</time>
      </trkpt>
      <trkpt lat="44.47329" lon="6.54808">
        <ele>1670</ele>
        <time>2021-04-08T11:34:40Z</time>
      </trkpt>
      <trkpt lat="44.47329" lon="6.54808">
        <ele>1670</ele>
        <time>2021-04-08T11:34:41Z</time>
      </trkpt>
      <trkpt lat="44.47329" lon="6.54808">
        <ele>1670</ele>
        <time>2021-04-08T11:34:42Z</time>
      </trkpt>
      <trkpt lat="44.47329" lon="6.54808">
        <ele>1670</ele>
        <time>2021-04-08T11:34:43Z</time>
      </trkpt>
      <trkpt lat="44.47329" lon="6.54808">
        <ele>1670</ele>
        <time>2021-04-08T11:34:44Z</time>
      </trkpt>
      <trkpt lat="44.47329" lon="6.54808">
        <ele>1670</ele>
        <time>2021-04-08T11:34:45Z</time>
      </trkpt>
      <trkpt lat="44.47329" lon="6.54808">
        <ele>1670</ele>
        <time>2021-04-08T11:34:46Z</time>
      </trkpt>
      <trkpt lat="44.47329" lon="6.54808">
        <ele>1670</ele>
        <time>2021-04-08T11:34:47Z</time>
      </trkpt>
      <trkpt lat="44.47329" lon="6.54808">
        <ele>1670</ele>
        <time>2021-04-08T11:34:48Z</time>
      </trkpt>
      <trkpt lat="44.47329" lon="6.54808">
        <ele>1670</ele>
        <time>2021-04-08T11:34:49Z</time>
      </trkpt>
      <trkpt lat="44.47329" lon="6.54808">
        <ele>1670</ele>
        <time>2021-04-08T11:34:50Z</time>
      </trkpt>
      <trkpt lat="44.47329" lon="6.54808">
        <ele>1670</ele>
        <time>2021-04-08T11:34:51Z</time>
      </trkpt>
      <trkpt lat="44.47329" lon="6.54808">
        <ele>1670</ele>
        <time>2021-04-08T11:34:52Z</time>
      </trkpt>
      <trkpt lat="44.47329" lon="6.54808">
        <ele>1670</ele>
        <time>2021-04-08T11:34:53Z</time>
      </trkpt>
      <trkpt lat="44.47329" lon="6.54808">
        <ele>1670</ele>
        <time>2021-04-08T11:34:54Z</time>
      </trkpt>
      <trkpt lat="44.47329" lon="6.54808">
        <ele>1670</ele>
        <time>2021-04-08T11:34:55Z</time>
      </trkpt>
      <trkpt lat="44.47329" lon="6.54808">
        <ele>1670</ele>
        <time>2021-04-08T11:34:56Z</time>
      </trkpt>
      <trkpt lat="44.47329" lon="6.54808">
        <ele>1670</ele>
        <time>2021-04-08T11:34:57Z</time>
      </trkpt>
      <trkpt lat="44.47329" lon="6.54808">
        <ele>1670</ele>
        <time>2021-04-08T11:34:58Z</time>
      </trkpt>
      <trkpt lat="44.47329" lon="6.54808">
        <ele>1670</ele>
        <time>2021-04-08T11:34:59Z</time>
      </trkpt>
      <trkpt lat="44.47329" lon="6.54808">
        <ele>1670</ele>
        <time>2021-04-08T11:35:00Z</time>
      </trkpt>
      <trkpt lat="44.47332" lon="6.54797">
        <ele>1672</ele>
        <time>2021-04-08T11:35:01Z</time>
      </trkpt>
      <trkpt lat="44.4733" lon="6.54795">
        <ele>1673</ele>
        <time>2021-04-08T11:35:02Z</time>
      </trkpt>
      <trkpt lat="44.47331" lon="6.54795">
        <ele>1673</ele>
        <time>2021-04-08T11:35:03Z</time>
      </trkpt>
      <trkpt lat="44.47331" lon="6.54795">
        <ele>1673</ele>
        <time>2021-04-08T11:35:04Z</time>
      </trkpt>
      <trkpt lat="44.47331" lon="6.54795">
        <ele>1673</ele>
        <time>2021-04-08T11:35:05Z</time>
      </trkpt>
      <trkpt lat="44.47331" lon="6.54795">
        <ele>1673</ele>
        <time>2021-04-08T11:35:06Z</time>
      </trkpt>
      <trkpt lat="44.47331" lon="6.54795">
        <ele>1673</ele>
        <time>2021-04-08T11:35:07Z</time>
      </trkpt>
      <trkpt lat="44.47331" lon="6.54795">
        <ele>1673</ele>
        <time>2021-04-08T11:35:08Z</time>
      </trkpt>
      <trkpt lat="44.47331" lon="6.54795">
        <ele>1673</ele>
        <time>2021-04-08T11:35:09Z</time>
      </trkpt>
      <trkpt lat="44.47331" lon="6.54795">
        <ele>1673</ele>
        <time>2021-04-08T11:35:10Z</time>
      </trkpt>
      <trkpt lat="44.47331" lon="6.54795">
        <ele>1673</ele>
        <time>2021-04-08T11:35:11Z</time>
      </trkpt>
      <trkpt lat="44.47331" lon="6.54795">
        <ele>1673</ele>
        <time>2021-04-08T11:35:12Z</time>
      </trkpt>
      <trkpt lat="44.47331" lon="6.54795">
        <ele>1673</ele>
        <time>2021-04-08T11:35:13Z</time>
      </trkpt>
      <trkpt lat="44.47331" lon="6.54795">
        <ele>1673</ele>
        <time>2021-04-08T11:35:14Z</time>
      </trkpt>
      <trkpt lat="44.47331" lon="6.54795">
        <ele>1673</ele>
        <time>2021-04-08T11:35:15Z</time>
      </trkpt>
      <trkpt lat="44.47331" lon="6.54795">
        <ele>1673</ele>
        <time>2021-04-08T11:35:16Z</time>
      </trkpt>
      <trkpt lat="44.47331" lon="6.54795">
        <ele>1673</ele>
        <time>2021-04-08T11:35:17Z</time>
      </trkpt>
      <trkpt lat="44.47331" lon="6.54795">
        <ele>1673</ele>
        <time>2021-04-08T11:35:18Z</time>
      </trkpt>
      <trkpt lat="44.47331" lon="6.54795">
        <ele>1673</ele>
        <time>2021-04-08T11:35:19Z</time>
      </trkpt>
      <trkpt lat="44.47331" lon="6.54795">
        <ele>1673</ele>
        <time>2021-04-08T11:35:20Z</time>
      </trkpt>
      <trkpt lat="44.47331" lon="6.54795">
        <ele>1673</ele>
        <time>2021-04-08T11:35:21Z</time>
      </trkpt>
      <trkpt lat="44.47331" lon="6.54795">
        <ele>1673</ele>
        <time>2021-04-08T11:35:22Z</time>
      </trkpt>
      <trkpt lat="44.47331" lon="6.54795">
        <ele>1673</ele>
        <time>2021-04-08T11:35:23Z</time>
      </trkpt>
      <trkpt lat="44.47331" lon="6.54795">
        <ele>1673</ele>
        <time>2021-04-08T11:35:24Z</time>
      </trkpt>
      <trkpt lat="44.47331" lon="6.54795">
        <ele>1673</ele>
        <time>2021-04-08T11:35:25Z</time>
      </trkpt>
      <trkpt lat="44.47331" lon="6.54795">
        <ele>1673</ele>
        <time>2021-04-08T11:35:26Z</time>
      </trkpt>
      <trkpt lat="44.47331" lon="6.54795">
        <ele>1673</ele>
        <time>2021-04-08T11:35:27Z</time>
      </trkpt>
      <trkpt lat="44.47331" lon="6.54795">
        <ele>1673</ele>
        <time>2021-04-08T11:35:28Z</time>
      </trkpt>
      <trkpt lat="44.47331" lon="6.54795">
        <ele>1673</ele>
        <time>2021-04-08T11:35:29Z</time>
      </trkpt>
      <trkpt lat="44.47331" lon="6.54795">
        <ele>1673</ele>
        <time>2021-04-08T11:35:30Z</time>
      </trkpt>
      <trkpt lat="44.47331" lon="6.54795">
        <ele>1673</ele>
        <time>2021-04-08T11:35:31Z</time>
      </trkpt>
      <trkpt lat="44.47331" lon="6.54795">
        <ele>1673</ele>
        <time>2021-04-08T11:35:32Z</time>
      </trkpt>
      <trkpt lat="44.47331" lon="6.54795">
        <ele>1673</ele>
        <time>2021-04-08T11:35:33Z</time>
      </trkpt>
      <trkpt lat="44.47331" lon="6.54795">
        <ele>1673</ele>
        <time>2021-04-08T11:35:34Z</time>
      </trkpt>
      <trkpt lat="44.47331" lon="6.54795">
        <ele>1673</ele>
        <time>2021-04-08T11:35:35Z</time>
      </trkpt>
      <trkpt lat="44.47331" lon="6.54795">
        <ele>1673</ele>
        <time>2021-04-08T11:35:36Z</time>
      </trkpt>
      <trkpt lat="44.47331" lon="6.54795">
        <ele>1673</ele>
        <time>2021-04-08T11:35:37Z</time>
      </trkpt>
      <trkpt lat="44.47331" lon="6.54795">
        <ele>1673</ele>
        <time>2021-04-08T11:35:38Z</time>
      </trkpt>
      <trkpt lat="44.47331" lon="6.54795">
        <ele>1673</ele>
        <time>2021-04-08T11:35:39Z</time>
      </trkpt>
      <trkpt lat="44.47331" lon="6.54795">
        <ele>1673</ele>
        <time>2021-04-08T11:35:40Z</time>
      </trkpt>
      <trkpt lat="44.47331" lon="6.54795">
        <ele>1673</ele>
        <time>2021-04-08T11:35:41Z</time>
      </trkpt>
      <trkpt lat="44.47331" lon="6.54795">
        <ele>1673</ele>
        <time>2021-04-08T11:35:42Z</time>
      </trkpt>
      <trkpt lat="44.47331" lon="6.54795">
        <ele>1673</ele>
        <time>2021-04-08T11:35:43Z</time>
      </trkpt>
      <trkpt lat="44.47331" lon="6.54795">
        <ele>1673</ele>
        <time>2021-04-08T11:35:44Z</time>
      </trkpt>
      <trkpt lat="44.47331" lon="6.54795">
        <ele>1673</ele>
        <time>2021-04-08T11:35:45Z</time>
      </trkpt>
      <trkpt lat="44.47331" lon="6.54795">
        <ele>1673</ele>
        <time>2021-04-08T11:35:46Z</time>
      </trkpt>
      <trkpt lat="44.47331" lon="6.54795">
        <ele>1673</ele>
        <time>2021-04-08T11:35:47Z</time>
      </trkpt>
      <trkpt lat="44.47331" lon="6.54795">
        <ele>1673</ele>
        <time>2021-04-08T11:35:48Z</time>
      </trkpt>
      <trkpt lat="44.47331" lon="6.54795">
        <ele>1673</ele>
        <time>2021-04-08T11:35:49Z</time>
      </trkpt>
      <trkpt lat="44.47331" lon="6.54795">
        <ele>1673</ele>
        <time>2021-04-08T11:35:50Z</time>
      </trkpt>
      <trkpt lat="44.47331" lon="6.54795">
        <ele>1673</ele>
        <time>2021-04-08T11:35:51Z</time>
      </trkpt>
      <trkpt lat="44.47331" lon="6.54795">
        <ele>1673</ele>
        <time>2021-04-08T11:35:52Z</time>
      </trkpt>
      <trkpt lat="44.47331" lon="6.54795">
        <ele>1673</ele>
        <time>2021-04-08T11:35:53Z</time>
      </trkpt>
      <trkpt lat="44.47331" lon="6.54795">
        <ele>1673</ele>
        <time>2021-04-08T11:35:54Z</time>
      </trkpt>
      <trkpt lat="44.47331" lon="6.54795">
        <ele>1673</ele>
        <time>2021-04-08T11:35:55Z</time>
      </trkpt>
      <trkpt lat="44.47331" lon="6.54795">
        <ele>1673</ele>
        <time>2021-04-08T11:35:56Z</time>
      </trkpt>
      <trkpt lat="44.47331" lon="6.54795">
        <ele>1673</ele>
        <time>2021-04-08T11:35:57Z</time>
      </trkpt>
      <trkpt lat="44.47331" lon="6.54795">
        <ele>1673</ele>
        <time>2021-04-08T11:35:58Z</time>
      </trkpt>
      <trkpt lat="44.47331" lon="6.54795">
        <ele>1673</ele>
        <time>2021-04-08T11:35:59Z</time>
      </trkpt>
      <trkpt lat="44.47331" lon="6.54795">
        <ele>1673</ele>
        <time>2021-04-08T11:36:00Z</time>
      </trkpt>
      <trkpt lat="44.47331" lon="6.54795">
        <ele>1673</ele>
        <time>2021-04-08T11:36:01Z</time>
      </trkpt>
      <trkpt lat="44.47331" lon="6.54795">
        <ele>1673</ele>
        <time>2021-04-08T11:36:02Z</time>
      </trkpt>
      <trkpt lat="44.47331" lon="6.54795">
        <ele>1673</ele>
        <time>2021-04-08T11:36:03Z</time>
      </trkpt>
      <trkpt lat="44.47331" lon="6.54795">
        <ele>1673</ele>
        <time>2021-04-08T11:36:04Z</time>
      </trkpt>
      <trkpt lat="44.47331" lon="6.54795">
        <ele>1673</ele>
        <time>2021-04-08T11:36:05Z</time>
      </trkpt>
      <trkpt lat="44.47331" lon="6.54795">
        <ele>1673</ele>
        <time>2021-04-08T11:36:06Z</time>
      </trkpt>
      <trkpt lat="44.47331" lon="6.54795">
        <ele>1673</ele>
        <time>2021-04-08T11:36:07Z</time>
      </trkpt>
      <trkpt lat="44.47331" lon="6.54795">
        <ele>1673</ele>
        <time>2021-04-08T11:36:08Z</time>
      </trkpt>
      <trkpt lat="44.47331" lon="6.54795">
        <ele>1673</ele>
        <time>2021-04-08T11:36:09Z</time>
      </trkpt>
      <trkpt lat="44.47331" lon="6.54795">
        <ele>1673</ele>
        <time>2021-04-08T11:36:10Z</time>
      </trkpt>
      <trkpt lat="44.47331" lon="6.54795">
        <ele>1673</ele>
        <time>2021-04-08T11:36:11Z</time>
      </trkpt>
      <trkpt lat="44.47331" lon="6.54795">
        <ele>1673</ele>
        <time>2021-04-08T11:36:12Z</time>
      </trkpt>
      <trkpt lat="44.47331" lon="6.54795">
        <ele>1673</ele>
        <time>2021-04-08T11:36:13Z</time>
      </trkpt>
      <trkpt lat="44.47331" lon="6.54795">
        <ele>1673</ele>
        <time>2021-04-08T11:36:14Z</time>
      </trkpt>
      <trkpt lat="44.47331" lon="6.54795">
        <ele>1673</ele>
        <time>2021-04-08T11:36:15Z</time>
      </trkpt>
      <trkpt lat="44.47331" lon="6.54795">
        <ele>1673</ele>
        <time>2021-04-08T11:36:16Z</time>
      </trkpt>
      <trkpt lat="44.47331" lon="6.54795">
        <ele>1673</ele>
        <time>2021-04-08T11:36:17Z</time>
      </trkpt>
      <trkpt lat="44.47331" lon="6.54795">
        <ele>1673</ele>
        <time>2021-04-08T11:36:18Z</time>
      </trkpt>
      <trkpt lat="44.47331" lon="6.54795">
        <ele>1673</ele>
        <time>2021-04-08T11:36:19Z</time>
      </trkpt>
      <trkpt lat="44.47331" lon="6.54795">
        <ele>1673</ele>
        <time>2021-04-08T11:36:20Z</time>
      </trkpt>
      <trkpt lat="44.47331" lon="6.54795">
        <ele>1673</ele>
        <time>2021-04-08T11:36:21Z</time>
      </trkpt>
      <trkpt lat="44.47331" lon="6.54795">
        <ele>1673</ele>
        <time>2021-04-08T11:36:22Z</time>
      </trkpt>
      <trkpt lat="44.47331" lon="6.54795">
        <ele>1673</ele>
        <time>2021-04-08T11:36:23Z</time>
      </trkpt>
      <trkpt lat="44.47331" lon="6.54795">
        <ele>1673</ele>
        <time>2021-04-08T11:36:24Z</time>
      </trkpt>
      <trkpt lat="44.47331" lon="6.54795">
        <ele>1673</ele>
        <time>2021-04-08T11:36:25Z</time>
      </trkpt>
      <trkpt lat="44.47331" lon="6.54795">
        <ele>1673</ele>
        <time>2021-04-08T11:36:26Z</time>
      </trkpt>
      <trkpt lat="44.47331" lon="6.54795">
        <ele>1673</ele>
        <time>2021-04-08T11:36:27Z</time>
      </trkpt>
      <trkpt lat="44.47337" lon="6.54805">
        <ele>1673</ele>
        <time>2021-04-08T11:36:28Z</time>
      </trkpt>
      <trkpt lat="44.47337" lon="6.54804">
        <ele>1672</ele>
        <time>2021-04-08T11:36:29Z</time>
      </trkpt>
      <trkpt lat="44.47337" lon="6.54804">
        <ele>1672</ele>
        <time>2021-04-08T11:36:30Z</time>
      </trkpt>
      <trkpt lat="44.47337" lon="6.54804">
        <ele>1672</ele>
        <time>2021-04-08T11:36:31Z</time>
      </trkpt>
      <trkpt lat="44.47337" lon="6.54804">
        <ele>1672</ele>
        <time>2021-04-08T11:36:32Z</time>
      </trkpt>
      <trkpt lat="44.47337" lon="6.54804">
        <ele>1672</ele>
        <time>2021-04-08T11:36:33Z</time>
      </trkpt>
      <trkpt lat="44.47337" lon="6.54804">
        <ele>1672</ele>
        <time>2021-04-08T11:36:34Z</time>
      </trkpt>
      <trkpt lat="44.47337" lon="6.54804">
        <ele>1672</ele>
        <time>2021-04-08T11:36:35Z</time>
      </trkpt>
      <trkpt lat="44.47337" lon="6.54804">
        <ele>1672</ele>
        <time>2021-04-08T11:36:36Z</time>
      </trkpt>
      <trkpt lat="44.47337" lon="6.54804">
        <ele>1672</ele>
        <time>2021-04-08T11:36:37Z</time>
      </trkpt>
      <trkpt lat="44.47337" lon="6.54804">
        <ele>1672</ele>
        <time>2021-04-08T11:36:38Z</time>
      </trkpt>
      <trkpt lat="44.47337" lon="6.54804">
        <ele>1672</ele>
        <time>2021-04-08T11:36:39Z</time>
      </trkpt>
      <trkpt lat="44.47337" lon="6.54804">
        <ele>1672</ele>
        <time>2021-04-08T11:36:40Z</time>
      </trkpt>
      <trkpt lat="44.47337" lon="6.54804">
        <ele>1672</ele>
        <time>2021-04-08T11:36:41Z</time>
      </trkpt>
      <trkpt lat="44.47337" lon="6.54804">
        <ele>1672</ele>
        <time>2021-04-08T11:36:42Z</time>
      </trkpt>
      <trkpt lat="44.47337" lon="6.54804">
        <ele>1672</ele>
        <time>2021-04-08T11:36:43Z</time>
      </trkpt>
      <trkpt lat="44.47337" lon="6.54804">
        <ele>1672</ele>
        <time>2021-04-08T11:36:44Z</time>
      </trkpt>
      <trkpt lat="44.47337" lon="6.54804">
        <ele>1672</ele>
        <time>2021-04-08T11:36:45Z</time>
      </trkpt>
      <trkpt lat="44.47337" lon="6.54804">
        <ele>1672</ele>
        <time>2021-04-08T11:36:46Z</time>
      </trkpt>
      <trkpt lat="44.47337" lon="6.54804">
        <ele>1672</ele>
        <time>2021-04-08T11:36:47Z</time>
      </trkpt>
      <trkpt lat="44.47337" lon="6.54804">
        <ele>1672</ele>
        <time>2021-04-08T11:36:48Z</time>
      </trkpt>
      <trkpt lat="44.47337" lon="6.54804">
        <ele>1672</ele>
        <time>2021-04-08T11:36:49Z</time>
      </trkpt>
      <trkpt lat="44.47337" lon="6.54804">
        <ele>1672</ele>
        <time>2021-04-08T11:36:50Z</time>
      </trkpt>
      <trkpt lat="44.47337" lon="6.54804">
        <ele>1672</ele>
        <time>2021-04-08T11:36:51Z</time>
      </trkpt>
      <trkpt lat="44.47337" lon="6.54804">
        <ele>1672</ele>
        <time>2021-04-08T11:36:52Z</time>
      </trkpt>
      <trkpt lat="44.47337" lon="6.54804">
        <ele>1672</ele>
        <time>2021-04-08T11:36:53Z</time>
      </trkpt>
      <trkpt lat="44.47337" lon="6.54804">
        <ele>1672</ele>
        <time>2021-04-08T11:36:54Z</time>
      </trkpt>
      <trkpt lat="44.47337" lon="6.54804">
        <ele>1672</ele>
        <time>2021-04-08T11:36:55Z</time>
      </trkpt>
      <trkpt lat="44.47337" lon="6.54804">
        <ele>1672</ele>
        <time>2021-04-08T11:36:56Z</time>
      </trkpt>
      <trkpt lat="44.47337" lon="6.54804">
        <ele>1672</ele>
        <time>2021-04-08T11:36:57Z</time>
      </trkpt>
      <trkpt lat="44.47337" lon="6.54804">
        <ele>1672</ele>
        <time>2021-04-08T11:36:58Z</time>
      </trkpt>
      <trkpt lat="44.47337" lon="6.54804">
        <ele>1672</ele>
        <time>2021-04-08T11:36:59Z</time>
      </trkpt>
      <trkpt lat="44.47337" lon="6.54804">
        <ele>1672</ele>
        <time>2021-04-08T11:37:00Z</time>
      </trkpt>
      <trkpt lat="44.47337" lon="6.54804">
        <ele>1672</ele>
        <time>2021-04-08T11:37:01Z</time>
      </trkpt>
      <trkpt lat="44.47337" lon="6.54804">
        <ele>1672</ele>
        <time>2021-04-08T11:37:02Z</time>
      </trkpt>
      <trkpt lat="44.47337" lon="6.54804">
        <ele>1672</ele>
        <time>2021-04-08T11:37:03Z</time>
      </trkpt>
      <trkpt lat="44.47337" lon="6.54804">
        <ele>1672</ele>
        <time>2021-04-08T11:37:04Z</time>
      </trkpt>
      <trkpt lat="44.47337" lon="6.54804">
        <ele>1672</ele>
        <time>2021-04-08T11:37:05Z</time>
      </trkpt>
      <trkpt lat="44.47337" lon="6.54804">
        <ele>1672</ele>
        <time>2021-04-08T11:37:06Z</time>
      </trkpt>
      <trkpt lat="44.47337" lon="6.54804">
        <ele>1672</ele>
        <time>2021-04-08T11:37:07Z</time>
      </trkpt>
      <trkpt lat="44.47337" lon="6.54804">
        <ele>1672</ele>
        <time>2021-04-08T11:37:08Z</time>
      </trkpt>
      <trkpt lat="44.47337" lon="6.54804">
        <ele>1672</ele>
        <time>2021-04-08T11:37:09Z</time>
      </trkpt>
      <trkpt lat="44.47337" lon="6.54804">
        <ele>1672</ele>
        <time>2021-04-08T11:37:10Z</time>
      </trkpt>
      <trkpt lat="44.47337" lon="6.54804">
        <ele>1672</ele>
        <time>2021-04-08T11:37:11Z</time>
      </trkpt>
      <trkpt lat="44.47337" lon="6.54804">
        <ele>1672</ele>
        <time>2021-04-08T11:37:12Z</time>
      </trkpt>
      <trkpt lat="44.47337" lon="6.54804">
        <ele>1672</ele>
        <time>2021-04-08T11:37:13Z</time>
      </trkpt>
      <trkpt lat="44.47337" lon="6.54804">
        <ele>1672</ele>
        <time>2021-04-08T11:37:14Z</time>
      </trkpt>
      <trkpt lat="44.47337" lon="6.54804">
        <ele>1672</ele>
        <time>2021-04-08T11:37:15Z</time>
      </trkpt>
      <trkpt lat="44.47337" lon="6.54804">
        <ele>1672</ele>
        <time>2021-04-08T11:37:16Z</time>
      </trkpt>
      <trkpt lat="44.47337" lon="6.54804">
        <ele>1672</ele>
        <time>2021-04-08T11:37:17Z</time>
      </trkpt>
      <trkpt lat="44.47337" lon="6.54804">
        <ele>1672</ele>
        <time>2021-04-08T11:37:18Z</time>
      </trkpt>
      <trkpt lat="44.47337" lon="6.54804">
        <ele>1672</ele>
        <time>2021-04-08T11:37:19Z</time>
      </trkpt>
      <trkpt lat="44.47337" lon="6.54804">
        <ele>1672</ele>
        <time>2021-04-08T11:37:20Z</time>
      </trkpt>
      <trkpt lat="44.47337" lon="6.54804">
        <ele>1672</ele>
        <time>2021-04-08T11:37:21Z</time>
      </trkpt>
      <trkpt lat="44.47337" lon="6.54804">
        <ele>1672</ele>
        <time>2021-04-08T11:37:22Z</time>
      </trkpt>
      <trkpt lat="44.47337" lon="6.54804">
        <ele>1672</ele>
        <time>2021-04-08T11:37:23Z</time>
      </trkpt>
      <trkpt lat="44.47337" lon="6.54804">
        <ele>1672</ele>
        <time>2021-04-08T11:37:24Z</time>
      </trkpt>
      <trkpt lat="44.47337" lon="6.54804">
        <ele>1672</ele>
        <time>2021-04-08T11:37:25Z</time>
      </trkpt>
      <trkpt lat="44.47337" lon="6.54804">
        <ele>1672</ele>
        <time>2021-04-08T11:37:26Z</time>
      </trkpt>
      <trkpt lat="44.47337" lon="6.54804">
        <ele>1672</ele>
        <time>2021-04-08T11:37:27Z</time>
      </trkpt>
      <trkpt lat="44.47337" lon="6.54804">
        <ele>1672</ele>
        <time>2021-04-08T11:37:28Z</time>
      </trkpt>
      <trkpt lat="44.47337" lon="6.54804">
        <ele>1672</ele>
        <time>2021-04-08T11:37:29Z</time>
      </trkpt>
      <trkpt lat="44.47337" lon="6.54804">
        <ele>1672</ele>
        <time>2021-04-08T11:37:30Z</time>
      </trkpt>
      <trkpt lat="44.47337" lon="6.54804">
        <ele>1672</ele>
        <time>2021-04-08T11:37:31Z</time>
      </trkpt>
      <trkpt lat="44.47337" lon="6.54804">
        <ele>1672</ele>
        <time>2021-04-08T11:37:32Z</time>
      </trkpt>
      <trkpt lat="44.47337" lon="6.54804">
        <ele>1672</ele>
        <time>2021-04-08T11:37:33Z</time>
      </trkpt>
      <trkpt lat="44.47337" lon="6.54804">
        <ele>1672</ele>
        <time>2021-04-08T11:37:34Z</time>
      </trkpt>
      <trkpt lat="44.47337" lon="6.54804">
        <ele>1672</ele>
        <time>2021-04-08T11:37:35Z</time>
      </trkpt>
      <trkpt lat="44.47337" lon="6.54804">
        <ele>1672</ele>
        <time>2021-04-08T11:37:36Z</time>
      </trkpt>
      <trkpt lat="44.47337" lon="6.54804">
        <ele>1672</ele>
        <time>2021-04-08T11:37:37Z</time>
      </trkpt>
      <trkpt lat="44.47337" lon="6.54804">
        <ele>1672</ele>
        <time>2021-04-08T11:37:38Z</time>
      </trkpt>
      <trkpt lat="44.47337" lon="6.54804">
        <ele>1672</ele>
        <time>2021-04-08T11:37:39Z</time>
      </trkpt>
      <trkpt lat="44.47337" lon="6.54804">
        <ele>1672</ele>
        <time>2021-04-08T11:37:40Z</time>
      </trkpt>
      <trkpt lat="44.47337" lon="6.54804">
        <ele>1672</ele>
        <time>2021-04-08T11:37:41Z</time>
      </trkpt>
      <trkpt lat="44.47337" lon="6.54804">
        <ele>1672</ele>
        <time>2021-04-08T11:37:42Z</time>
      </trkpt>
      <trkpt lat="44.47337" lon="6.54804">
        <ele>1672</ele>
        <time>2021-04-08T11:37:43Z</time>
      </trkpt>
      <trkpt lat="44.47337" lon="6.54804">
        <ele>1672</ele>
        <time>2021-04-08T11:37:44Z</time>
      </trkpt>
      <trkpt lat="44.47337" lon="6.54804">
        <ele>1672</ele>
        <time>2021-04-08T11:37:45Z</time>
      </trkpt>
      <trkpt lat="44.47337" lon="6.54804">
        <ele>1672</ele>
        <time>2021-04-08T11:37:46Z</time>
      </trkpt>
      <trkpt lat="44.47337" lon="6.54804">
        <ele>1672</ele>
        <time>2021-04-08T11:37:47Z</time>
      </trkpt>
      <trkpt lat="44.47337" lon="6.54804">
        <ele>1672</ele>
        <time>2021-04-08T11:37:48Z</time>
      </trkpt>
      <trkpt lat="44.4734" lon="6.54795">
        <ele>1671</ele>
        <time>2021-04-08T11:37:49Z</time>
      </trkpt>
      <trkpt lat="44.4734" lon="6.54795">
        <ele>1670</ele>
        <time>2021-04-08T11:37:50Z</time>
      </trkpt>
      <trkpt lat="44.47341" lon="6.54794">
        <ele>1670</ele>
        <time>2021-04-08T11:37:51Z</time>
      </trkpt>
      <trkpt lat="44.47341" lon="6.54794">
        <ele>1670</ele>
        <time>2021-04-08T11:37:52Z</time>
      </trkpt>
      <trkpt lat="44.47342" lon="6.54794">
        <ele>1670</ele>
        <time>2021-04-08T11:37:53Z</time>
      </trkpt>
      <trkpt lat="44.47342" lon="6.54794">
        <ele>1670</ele>
        <time>2021-04-08T11:37:54Z</time>
      </trkpt>
      <trkpt lat="44.47343" lon="6.54794">
        <ele>1670</ele>
        <time>2021-04-08T11:37:55Z</time>
      </trkpt>
      <trkpt lat="44.47343" lon="6.54794">
        <ele>1670</ele>
        <time>2021-04-08T11:37:56Z</time>
      </trkpt>
      <trkpt lat="44.47343" lon="6.54797">
        <ele>1670</ele>
        <time>2021-04-08T11:37:57Z</time>
      </trkpt>
      <trkpt lat="44.47343" lon="6.54798">
        <ele>1670</ele>
        <time>2021-04-08T11:37:58Z</time>
      </trkpt>
      <trkpt lat="44.47343" lon="6.54799">
        <ele>1671</ele>
        <time>2021-04-08T11:37:59Z</time>
      </trkpt>
      <trkpt lat="44.47344" lon="6.548">
        <ele>1670</ele>
        <time>2021-04-08T11:38:00Z</time>
      </trkpt>
      <trkpt lat="44.47343" lon="6.548">
        <ele>1670</ele>
        <time>2021-04-08T11:38:01Z</time>
      </trkpt>
      <trkpt lat="44.47344" lon="6.54799">
        <ele>1671</ele>
        <time>2021-04-08T11:38:02Z</time>
      </trkpt>
      <trkpt lat="44.47344" lon="6.54799">
        <ele>1671</ele>
        <time>2021-04-08T11:38:03Z</time>
      </trkpt>
      <trkpt lat="44.47344" lon="6.54798">
        <ele>1671</ele>
        <time>2021-04-08T11:38:04Z</time>
      </trkpt>
      <trkpt lat="44.47344" lon="6.54798">
        <ele>1671</ele>
        <time>2021-04-08T11:38:05Z</time>
      </trkpt>
      <trkpt lat="44.47344" lon="6.54798">
        <ele>1671</ele>
        <time>2021-04-08T11:38:06Z</time>
      </trkpt>
      <trkpt lat="44.47344" lon="6.54798">
        <ele>1671</ele>
        <time>2021-04-08T11:38:07Z</time>
      </trkpt>
      <trkpt lat="44.47344" lon="6.54798">
        <ele>1671</ele>
        <time>2021-04-08T11:38:08Z</time>
      </trkpt>
      <trkpt lat="44.47344" lon="6.54798">
        <ele>1671</ele>
        <time>2021-04-08T11:38:09Z</time>
      </trkpt>
      <trkpt lat="44.47344" lon="6.54798">
        <ele>1671</ele>
        <time>2021-04-08T11:38:10Z</time>
      </trkpt>
      <trkpt lat="44.47354" lon="6.54796">
        <ele>1672</ele>
        <time>2021-04-08T11:38:11Z</time>
      </trkpt>
      <trkpt lat="44.47355" lon="6.54796">
        <ele>1672</ele>
        <time>2021-04-08T11:38:12Z</time>
      </trkpt>
      <trkpt lat="44.47356" lon="6.54796">
        <ele>1672</ele>
        <time>2021-04-08T11:38:13Z</time>
      </trkpt>
      <trkpt lat="44.47357" lon="6.54796">
        <ele>1672</ele>
        <time>2021-04-08T11:38:14Z</time>
      </trkpt>
      <trkpt lat="44.4736" lon="6.54796">
        <ele>1672</ele>
        <time>2021-04-08T11:38:15Z</time>
      </trkpt>
      <trkpt lat="44.47362" lon="6.54796">
        <ele>1673</ele>
        <time>2021-04-08T11:38:16Z</time>
      </trkpt>
      <trkpt lat="44.47363" lon="6.54797">
        <ele>1673</ele>
        <time>2021-04-08T11:38:17Z</time>
      </trkpt>
      <trkpt lat="44.47365" lon="6.54797">
        <ele>1673</ele>
        <time>2021-04-08T11:38:18Z</time>
      </trkpt>
      <trkpt lat="44.47367" lon="6.54797">
        <ele>1673</ele>
        <time>2021-04-08T11:38:19Z</time>
      </trkpt>
      <trkpt lat="44.47369" lon="6.54798">
        <ele>1673</ele>
        <time>2021-04-08T11:38:20Z</time>
      </trkpt>
      <trkpt lat="44.4737" lon="6.54799">
        <ele>1674</ele>
        <time>2021-04-08T11:38:21Z</time>
      </trkpt>
      <trkpt lat="44.4737" lon="6.548">
        <ele>1673</ele>
        <time>2021-04-08T11:38:22Z</time>
      </trkpt>
      <trkpt lat="44.47371" lon="6.54801">
        <ele>1673</ele>
        <time>2021-04-08T11:38:23Z</time>
      </trkpt>
      <trkpt lat="44.47372" lon="6.54801">
        <ele>1673</ele>
        <time>2021-04-08T11:38:24Z</time>
      </trkpt>
      <trkpt lat="44.47373" lon="6.54801">
        <ele>1673</ele>
        <time>2021-04-08T11:38:25Z</time>
      </trkpt>
      <trkpt lat="44.47374" lon="6.54801">
        <ele>1673</ele>
        <time>2021-04-08T11:38:26Z</time>
      </trkpt>
      <trkpt lat="44.47374" lon="6.54802">
        <ele>1673</ele>
        <time>2021-04-08T11:38:27Z</time>
      </trkpt>
      <trkpt lat="44.47374" lon="6.54802">
        <ele>1673</ele>
        <time>2021-04-08T11:38:28Z</time>
      </trkpt>
      <trkpt lat="44.47374" lon="6.54802">
        <ele>1673</ele>
        <time>2021-04-08T11:38:29Z</time>
      </trkpt>
      <trkpt lat="44.47374" lon="6.54802">
        <ele>1673</ele>
        <time>2021-04-08T11:38:30Z</time>
      </trkpt>
      <trkpt lat="44.47374" lon="6.54802">
        <ele>1673</ele>
        <time>2021-04-08T11:38:31Z</time>
      </trkpt>
      <trkpt lat="44.47379" lon="6.54803">
        <ele>1674</ele>
        <time>2021-04-08T11:38:32Z</time>
      </trkpt>
      <trkpt lat="44.47381" lon="6.54803">
        <ele>1673</ele>
        <time>2021-04-08T11:38:33Z</time>
      </trkpt>
      <trkpt lat="44.47382" lon="6.54803">
        <ele>1673</ele>
        <time>2021-04-08T11:38:34Z</time>
      </trkpt>
      <trkpt lat="44.47383" lon="6.54804">
        <ele>1672</ele>
        <time>2021-04-08T11:38:35Z</time>
      </trkpt>
      <trkpt lat="44.47384" lon="6.54804">
        <ele>1671</ele>
        <time>2021-04-08T11:38:36Z</time>
      </trkpt>
      <trkpt lat="44.47385" lon="6.54804">
        <ele>1671</ele>
        <time>2021-04-08T11:38:37Z</time>
      </trkpt>
      <trkpt lat="44.47387" lon="6.54804">
        <ele>1670</ele>
        <time>2021-04-08T11:38:38Z</time>
      </trkpt>
      <trkpt lat="44.47388" lon="6.54803">
        <ele>1670</ele>
        <time>2021-04-08T11:38:39Z</time>
      </trkpt>
      <trkpt lat="44.47389" lon="6.54802">
        <ele>1670</ele>
        <time>2021-04-08T11:38:40Z</time>
      </trkpt>
      <trkpt lat="44.4739" lon="6.54802">
        <ele>1670</ele>
        <time>2021-04-08T11:38:41Z</time>
      </trkpt>
      <trkpt lat="44.4739" lon="6.54802">
        <ele>1671</ele>
        <time>2021-04-08T11:38:42Z</time>
      </trkpt>
      <trkpt lat="44.4739" lon="6.54802">
        <ele>1671</ele>
        <time>2021-04-08T11:38:43Z</time>
      </trkpt>
      <trkpt lat="44.4739" lon="6.54802">
        <ele>1671</ele>
        <time>2021-04-08T11:38:44Z</time>
      </trkpt>
      <trkpt lat="44.4739" lon="6.54802">
        <ele>1671</ele>
        <time>2021-04-08T11:38:45Z</time>
      </trkpt>
      <trkpt lat="44.47395" lon="6.54803">
        <ele>1671</ele>
        <time>2021-04-08T11:38:46Z</time>
      </trkpt>
      <trkpt lat="44.47396" lon="6.54803">
        <ele>1671</ele>
        <time>2021-04-08T11:38:47Z</time>
      </trkpt>
      <trkpt lat="44.47397" lon="6.54802">
        <ele>1670</ele>
        <time>2021-04-08T11:38:48Z</time>
      </trkpt>
      <trkpt lat="44.47398" lon="6.54802">
        <ele>1670</ele>
        <time>2021-04-08T11:38:49Z</time>
      </trkpt>
      <trkpt lat="44.47398" lon="6.54802">
        <ele>1670</ele>
        <time>2021-04-08T11:38:50Z</time>
      </trkpt>
      <trkpt lat="44.47398" lon="6.54802">
        <ele>1670</ele>
        <time>2021-04-08T11:38:51Z</time>
      </trkpt>
      <trkpt lat="44.47398" lon="6.54802">
        <ele>1670</ele>
        <time>2021-04-08T11:38:52Z</time>
      </trkpt>
      <trkpt lat="44.47398" lon="6.54802">
        <ele>1670</ele>
        <time>2021-04-08T11:38:53Z</time>
      </trkpt>
      <trkpt lat="44.47398" lon="6.54802">
        <ele>1670</ele>
        <time>2021-04-08T11:38:54Z</time>
      </trkpt>
      <trkpt lat="44.47398" lon="6.54802">
        <ele>1670</ele>
        <time>2021-04-08T11:38:55Z</time>
      </trkpt>
      <trkpt lat="44.47398" lon="6.54802">
        <ele>1670</ele>
        <time>2021-04-08T11:38:56Z</time>
      </trkpt>
      <trkpt lat="44.47398" lon="6.54802">
        <ele>1670</ele>
        <time>2021-04-08T11:38:57Z</time>
      </trkpt>
      <trkpt lat="44.47407" lon="6.54801">
        <ele>1671</ele>
        <time>2021-04-08T11:38:58Z</time>
      </trkpt>
      <trkpt lat="44.47409" lon="6.548">
        <ele>1671</ele>
        <time>2021-04-08T11:38:59Z</time>
      </trkpt>
      <trkpt lat="44.4741" lon="6.54799">
        <ele>1671</ele>
        <time>2021-04-08T11:39:00Z</time>
      </trkpt>
      <trkpt lat="44.47411" lon="6.54799">
        <ele>1671</ele>
        <time>2021-04-08T11:39:01Z</time>
      </trkpt>
      <trkpt lat="44.47412" lon="6.54798">
        <ele>1671</ele>
        <time>2021-04-08T11:39:02Z</time>
      </trkpt>
      <trkpt lat="44.47412" lon="6.54798">
        <ele>1671</ele>
        <time>2021-04-08T11:39:03Z</time>
      </trkpt>
      <trkpt lat="44.47412" lon="6.54798">
        <ele>1671</ele>
        <time>2021-04-08T11:39:04Z</time>
      </trkpt>
      <trkpt lat="44.47412" lon="6.54798">
        <ele>1671</ele>
        <time>2021-04-08T11:39:05Z</time>
      </trkpt>
      <trkpt lat="44.47412" lon="6.54798">
        <ele>1671</ele>
        <time>2021-04-08T11:39:06Z</time>
      </trkpt>
      <trkpt lat="44.47412" lon="6.54798">
        <ele>1671</ele>
        <time>2021-04-08T11:39:07Z</time>
      </trkpt>
      <trkpt lat="44.47412" lon="6.54798">
        <ele>1671</ele>
        <time>2021-04-08T11:39:08Z</time>
      </trkpt>
      <trkpt lat="44.47412" lon="6.54798">
        <ele>1671</ele>
        <time>2021-04-08T11:39:09Z</time>
      </trkpt>
      <trkpt lat="44.47412" lon="6.54798">
        <ele>1671</ele>
        <time>2021-04-08T11:39:10Z</time>
      </trkpt>
      <trkpt lat="44.47412" lon="6.54798">
        <ele>1671</ele>
        <time>2021-04-08T11:39:11Z</time>
      </trkpt>
      <trkpt lat="44.47412" lon="6.54798">
        <ele>1671</ele>
        <time>2021-04-08T11:39:12Z</time>
      </trkpt>
      <trkpt lat="44.47422" lon="6.54799">
        <ele>1672</ele>
        <time>2021-04-08T11:39:13Z</time>
      </trkpt>
      <trkpt lat="44.47424" lon="6.54799">
        <ele>1672</ele>
        <time>2021-04-08T11:39:14Z</time>
      </trkpt>
      <trkpt lat="44.47425" lon="6.548">
        <ele>1672</ele>
        <time>2021-04-08T11:39:15Z</time>
      </trkpt>
      <trkpt lat="44.47427" lon="6.548">
        <ele>1672</ele>
        <time>2021-04-08T11:39:16Z</time>
      </trkpt>
      <trkpt lat="44.47427" lon="6.548">
        <ele>1672</ele>
        <time>2021-04-08T11:39:17Z</time>
      </trkpt>
      <trkpt lat="44.47427" lon="6.548">
        <ele>1672</ele>
        <time>2021-04-08T11:39:18Z</time>
      </trkpt>
      <trkpt lat="44.47432" lon="6.54801">
        <ele>1673</ele>
        <time>2021-04-08T11:39:19Z</time>
      </trkpt>
      <trkpt lat="44.47433" lon="6.54802">
        <ele>1673</ele>
        <time>2021-04-08T11:39:20Z</time>
      </trkpt>
      <trkpt lat="44.47434" lon="6.54803">
        <ele>1673</ele>
        <time>2021-04-08T11:39:21Z</time>
      </trkpt>
      <trkpt lat="44.47436" lon="6.54804">
        <ele>1672</ele>
        <time>2021-04-08T11:39:22Z</time>
      </trkpt>
      <trkpt lat="44.47437" lon="6.54805">
        <ele>1672</ele>
        <time>2021-04-08T11:39:23Z</time>
      </trkpt>
      <trkpt lat="44.47438" lon="6.54806">
        <ele>1672</ele>
        <time>2021-04-08T11:39:24Z</time>
      </trkpt>
      <trkpt lat="44.4744" lon="6.54808">
        <ele>1671</ele>
        <time>2021-04-08T11:39:25Z</time>
      </trkpt>
      <trkpt lat="44.47441" lon="6.54809">
        <ele>1671</ele>
        <time>2021-04-08T11:39:26Z</time>
      </trkpt>
      <trkpt lat="44.47441" lon="6.54811">
        <ele>1671</ele>
        <time>2021-04-08T11:39:27Z</time>
      </trkpt>
      <trkpt lat="44.47442" lon="6.54813">
        <ele>1671</ele>
        <time>2021-04-08T11:39:28Z</time>
      </trkpt>
      <trkpt lat="44.47442" lon="6.54815">
        <ele>1671</ele>
        <time>2021-04-08T11:39:29Z</time>
      </trkpt>
      <trkpt lat="44.47443" lon="6.54816">
        <ele>1671</ele>
        <time>2021-04-08T11:39:30Z</time>
      </trkpt>
      <trkpt lat="44.47444" lon="6.54816">
        <ele>1671</ele>
        <time>2021-04-08T11:39:31Z</time>
      </trkpt>
      <trkpt lat="44.47445" lon="6.54817">
        <ele>1671</ele>
        <time>2021-04-08T11:39:32Z</time>
      </trkpt>
      <trkpt lat="44.47446" lon="6.54818">
        <ele>1671</ele>
        <time>2021-04-08T11:39:33Z</time>
      </trkpt>
      <trkpt lat="44.47447" lon="6.54819">
        <ele>1671</ele>
        <time>2021-04-08T11:39:34Z</time>
      </trkpt>
      <trkpt lat="44.47448" lon="6.5482">
        <ele>1672</ele>
        <time>2021-04-08T11:39:35Z</time>
      </trkpt>
      <trkpt lat="44.47448" lon="6.54822">
        <ele>1672</ele>
        <time>2021-04-08T11:39:36Z</time>
      </trkpt>
      <trkpt lat="44.47448" lon="6.54823">
        <ele>1672</ele>
        <time>2021-04-08T11:39:37Z</time>
      </trkpt>
      <trkpt lat="44.47448" lon="6.54825">
        <ele>1672</ele>
        <time>2021-04-08T11:39:38Z</time>
      </trkpt>
      <trkpt lat="44.47449" lon="6.54827">
        <ele>1672</ele>
        <time>2021-04-08T11:39:39Z</time>
      </trkpt>
      <trkpt lat="44.47449" lon="6.54828">
        <ele>1672</ele>
        <time>2021-04-08T11:39:40Z</time>
      </trkpt>
      <trkpt lat="44.4745" lon="6.54829">
        <ele>1672</ele>
        <time>2021-04-08T11:39:41Z</time>
      </trkpt>
      <trkpt lat="44.47451" lon="6.5483">
        <ele>1672</ele>
        <time>2021-04-08T11:39:42Z</time>
      </trkpt>
      <trkpt lat="44.47452" lon="6.5483">
        <ele>1673</ele>
        <time>2021-04-08T11:39:43Z</time>
      </trkpt>
      <trkpt lat="44.47452" lon="6.5483">
        <ele>1673</ele>
        <time>2021-04-08T11:39:44Z</time>
      </trkpt>
      <trkpt lat="44.47452" lon="6.5483">
        <ele>1673</ele>
        <time>2021-04-08T11:39:45Z</time>
      </trkpt>
      <trkpt lat="44.47452" lon="6.5483">
        <ele>1673</ele>
        <time>2021-04-08T11:39:46Z</time>
      </trkpt>
      <trkpt lat="44.47452" lon="6.5483">
        <ele>1673</ele>
        <time>2021-04-08T11:39:47Z</time>
      </trkpt>
      <trkpt lat="44.47452" lon="6.5483">
        <ele>1673</ele>
        <time>2021-04-08T11:39:48Z</time>
      </trkpt>
      <trkpt lat="44.47452" lon="6.5483">
        <ele>1673</ele>
        <time>2021-04-08T11:39:49Z</time>
      </trkpt>
      <trkpt lat="44.47457" lon="6.54836">
        <ele>1673</ele>
        <time>2021-04-08T11:39:50Z</time>
      </trkpt>
      <trkpt lat="44.47457" lon="6.54837">
        <ele>1673</ele>
        <time>2021-04-08T11:39:51Z</time>
      </trkpt>
      <trkpt lat="44.47458" lon="6.54838">
        <ele>1673</ele>
        <time>2021-04-08T11:39:52Z</time>
      </trkpt>
      <trkpt lat="44.47458" lon="6.54838">
        <ele>1673</ele>
        <time>2021-04-08T11:39:53Z</time>
      </trkpt>
      <trkpt lat="44.47459" lon="6.54839">
        <ele>1673</ele>
        <time>2021-04-08T11:39:54Z</time>
      </trkpt>
      <trkpt lat="44.47459" lon="6.54839">
        <ele>1673</ele>
        <time>2021-04-08T11:39:55Z</time>
      </trkpt>
      <trkpt lat="44.47459" lon="6.54839">
        <ele>1673</ele>
        <time>2021-04-08T11:39:56Z</time>
      </trkpt>
      <trkpt lat="44.47459" lon="6.54839">
        <ele>1673</ele>
        <time>2021-04-08T11:39:57Z</time>
      </trkpt>
      <trkpt lat="44.47459" lon="6.54839">
        <ele>1673</ele>
        <time>2021-04-08T11:39:58Z</time>
      </trkpt>
      <trkpt lat="44.47464" lon="6.54841">
        <ele>1673</ele>
        <time>2021-04-08T11:39:59Z</time>
      </trkpt>
      <trkpt lat="44.47466" lon="6.54842">
        <ele>1673</ele>
        <time>2021-04-08T11:40:00Z</time>
      </trkpt>
      <trkpt lat="44.47467" lon="6.54842">
        <ele>1673</ele>
        <time>2021-04-08T11:40:01Z</time>
      </trkpt>
      <trkpt lat="44.47469" lon="6.54842">
        <ele>1673</ele>
        <time>2021-04-08T11:40:02Z</time>
      </trkpt>
      <trkpt lat="44.47471" lon="6.54841">
        <ele>1673</ele>
        <time>2021-04-08T11:40:03Z</time>
      </trkpt>
      <trkpt lat="44.47473" lon="6.5484">
        <ele>1673</ele>
        <time>2021-04-08T11:40:04Z</time>
      </trkpt>
      <trkpt lat="44.47474" lon="6.54839">
        <ele>1673</ele>
        <time>2021-04-08T11:40:05Z</time>
      </trkpt>
      <trkpt lat="44.47476" lon="6.5484">
        <ele>1673</ele>
        <time>2021-04-08T11:40:06Z</time>
      </trkpt>
      <trkpt lat="44.47478" lon="6.5484">
        <ele>1673</ele>
        <time>2021-04-08T11:40:07Z</time>
      </trkpt>
      <trkpt lat="44.47478" lon="6.54839">
        <ele>1673</ele>
        <time>2021-04-08T11:40:08Z</time>
      </trkpt>
      <trkpt lat="44.47479" lon="6.54839">
        <ele>1673</ele>
        <time>2021-04-08T11:40:09Z</time>
      </trkpt>
      <trkpt lat="44.47479" lon="6.54839">
        <ele>1674</ele>
        <time>2021-04-08T11:40:10Z</time>
      </trkpt>
      <trkpt lat="44.47479" lon="6.54839">
        <ele>1674</ele>
        <time>2021-04-08T11:40:11Z</time>
      </trkpt>
      <trkpt lat="44.47479" lon="6.54839">
        <ele>1674</ele>
        <time>2021-04-08T11:40:12Z</time>
      </trkpt>
      <trkpt lat="44.47479" lon="6.54839">
        <ele>1674</ele>
        <time>2021-04-08T11:40:13Z</time>
      </trkpt>
      <trkpt lat="44.47479" lon="6.54839">
        <ele>1674</ele>
        <time>2021-04-08T11:40:14Z</time>
      </trkpt>
      <trkpt lat="44.47479" lon="6.54839">
        <ele>1674</ele>
        <time>2021-04-08T11:40:15Z</time>
      </trkpt>
      <trkpt lat="44.47479" lon="6.54839">
        <ele>1674</ele>
        <time>2021-04-08T11:40:16Z</time>
      </trkpt>
      <trkpt lat="44.47479" lon="6.54839">
        <ele>1674</ele>
        <time>2021-04-08T11:40:17Z</time>
      </trkpt>
      <trkpt lat="44.47479" lon="6.54839">
        <ele>1674</ele>
        <time>2021-04-08T11:40:18Z</time>
      </trkpt>
      <trkpt lat="44.47489" lon="6.54836">
        <ele>1674</ele>
        <time>2021-04-08T11:40:19Z</time>
      </trkpt>
      <trkpt lat="44.4749" lon="6.54836">
        <ele>1674</ele>
        <time>2021-04-08T11:40:20Z</time>
      </trkpt>
      <trkpt lat="44.47491" lon="6.54835">
        <ele>1673</ele>
        <time>2021-04-08T11:40:21Z</time>
      </trkpt>
      <trkpt lat="44.47493" lon="6.54835">
        <ele>1673</ele>
        <time>2021-04-08T11:40:22Z</time>
      </trkpt>
      <trkpt lat="44.47493" lon="6.54835">
        <ele>1673</ele>
        <time>2021-04-08T11:40:23Z</time>
      </trkpt>
      <trkpt lat="44.47493" lon="6.54835">
        <ele>1673</ele>
        <time>2021-04-08T11:40:24Z</time>
      </trkpt>
      <trkpt lat="44.47493" lon="6.54835">
        <ele>1673</ele>
        <time>2021-04-08T11:40:25Z</time>
      </trkpt>
      <trkpt lat="44.47493" lon="6.54835">
        <ele>1673</ele>
        <time>2021-04-08T11:40:26Z</time>
      </trkpt>
      <trkpt lat="44.47493" lon="6.54835">
        <ele>1673</ele>
        <time>2021-04-08T11:40:27Z</time>
      </trkpt>
      <trkpt lat="44.47493" lon="6.54835">
        <ele>1673</ele>
        <time>2021-04-08T11:40:28Z</time>
      </trkpt>
      <trkpt lat="44.47501" lon="6.54834">
        <ele>1672</ele>
        <time>2021-04-08T11:40:29Z</time>
      </trkpt>
      <trkpt lat="44.47503" lon="6.54835">
        <ele>1672</ele>
        <time>2021-04-08T11:40:30Z</time>
      </trkpt>
      <trkpt lat="44.47503" lon="6.54835">
        <ele>1672</ele>
        <time>2021-04-08T11:40:31Z</time>
      </trkpt>
      <trkpt lat="44.47504" lon="6.54835">
        <ele>1672</ele>
        <time>2021-04-08T11:40:32Z</time>
      </trkpt>
      <trkpt lat="44.47504" lon="6.54835">
        <ele>1672</ele>
        <time>2021-04-08T11:40:33Z</time>
      </trkpt>
      <trkpt lat="44.47507" lon="6.54836">
        <ele>1671</ele>
        <time>2021-04-08T11:40:34Z</time>
      </trkpt>
      <trkpt lat="44.47509" lon="6.54836">
        <ele>1671</ele>
        <time>2021-04-08T11:40:35Z</time>
      </trkpt>
      <trkpt lat="44.4751" lon="6.54836">
        <ele>1671</ele>
        <time>2021-04-08T11:40:36Z</time>
      </trkpt>
      <trkpt lat="44.47511" lon="6.54837">
        <ele>1671</ele>
        <time>2021-04-08T11:40:37Z</time>
      </trkpt>
      <trkpt lat="44.47512" lon="6.54838">
        <ele>1671</ele>
        <time>2021-04-08T11:40:38Z</time>
      </trkpt>
      <trkpt lat="44.47515" lon="6.54839">
        <ele>1670</ele>
        <time>2021-04-08T11:40:39Z</time>
      </trkpt>
      <trkpt lat="44.47516" lon="6.5484">
        <ele>1670</ele>
        <time>2021-04-08T11:40:40Z</time>
      </trkpt>
      <trkpt lat="44.47517" lon="6.5484">
        <ele>1670</ele>
        <time>2021-04-08T11:40:41Z</time>
      </trkpt>
      <trkpt lat="44.47518" lon="6.5484">
        <ele>1670</ele>
        <time>2021-04-08T11:40:42Z</time>
      </trkpt>
      <trkpt lat="44.47518" lon="6.5484">
        <ele>1670</ele>
        <time>2021-04-08T11:40:43Z</time>
      </trkpt>
      <trkpt lat="44.47518" lon="6.5484">
        <ele>1670</ele>
        <time>2021-04-08T11:40:44Z</time>
      </trkpt>
      <trkpt lat="44.47518" lon="6.5484">
        <ele>1670</ele>
        <time>2021-04-08T11:40:45Z</time>
      </trkpt>
      <trkpt lat="44.47518" lon="6.5484">
        <ele>1670</ele>
        <time>2021-04-08T11:40:46Z</time>
      </trkpt>
      <trkpt lat="44.47523" lon="6.54841">
        <ele>1670</ele>
        <time>2021-04-08T11:40:47Z</time>
      </trkpt>
      <trkpt lat="44.47525" lon="6.54841">
        <ele>1670</ele>
        <time>2021-04-08T11:40:48Z</time>
      </trkpt>
      <trkpt lat="44.47526" lon="6.54841">
        <ele>1669</ele>
        <time>2021-04-08T11:40:49Z</time>
      </trkpt>
      <trkpt lat="44.47527" lon="6.54841">
        <ele>1669</ele>
        <time>2021-04-08T11:40:50Z</time>
      </trkpt>
      <trkpt lat="44.47529" lon="6.54842">
        <ele>1668</ele>
        <time>2021-04-08T11:40:51Z</time>
      </trkpt>
      <trkpt lat="44.4753" lon="6.54843">
        <ele>1668</ele>
        <time>2021-04-08T11:40:52Z</time>
      </trkpt>
      <trkpt lat="44.47533" lon="6.54843">
        <ele>1668</ele>
        <time>2021-04-08T11:40:53Z</time>
      </trkpt>
      <trkpt lat="44.47534" lon="6.54844">
        <ele>1668</ele>
        <time>2021-04-08T11:40:54Z</time>
      </trkpt>
      <trkpt lat="44.47536" lon="6.54844">
        <ele>1668</ele>
        <time>2021-04-08T11:40:55Z</time>
      </trkpt>
      <trkpt lat="44.47537" lon="6.54845">
        <ele>1668</ele>
        <time>2021-04-08T11:40:56Z</time>
      </trkpt>
      <trkpt lat="44.47538" lon="6.54845">
        <ele>1667</ele>
        <time>2021-04-08T11:40:57Z</time>
      </trkpt>
      <trkpt lat="44.47539" lon="6.54846">
        <ele>1667</ele>
        <time>2021-04-08T11:40:58Z</time>
      </trkpt>
      <trkpt lat="44.4754" lon="6.54846">
        <ele>1667</ele>
        <time>2021-04-08T11:40:59Z</time>
      </trkpt>
      <trkpt lat="44.47542" lon="6.54846">
        <ele>1667</ele>
        <time>2021-04-08T11:41:00Z</time>
      </trkpt>
      <trkpt lat="44.47542" lon="6.54847">
        <ele>1667</ele>
        <time>2021-04-08T11:41:01Z</time>
      </trkpt>
      <trkpt lat="44.47544" lon="6.54847">
        <ele>1667</ele>
        <time>2021-04-08T11:41:02Z</time>
      </trkpt>
      <trkpt lat="44.47544" lon="6.54848">
        <ele>1667</ele>
        <time>2021-04-08T11:41:03Z</time>
      </trkpt>
      <trkpt lat="44.47545" lon="6.54848">
        <ele>1667</ele>
        <time>2021-04-08T11:41:04Z</time>
      </trkpt>
      <trkpt lat="44.47546" lon="6.54849">
        <ele>1666</ele>
        <time>2021-04-08T11:41:05Z</time>
      </trkpt>
      <trkpt lat="44.47547" lon="6.5485">
        <ele>1666</ele>
        <time>2021-04-08T11:41:06Z</time>
      </trkpt>
      <trkpt lat="44.47548" lon="6.5485">
        <ele>1666</ele>
        <time>2021-04-08T11:41:07Z</time>
      </trkpt>
      <trkpt lat="44.47549" lon="6.54851">
        <ele>1666</ele>
        <time>2021-04-08T11:41:08Z</time>
      </trkpt>
      <trkpt lat="44.4755" lon="6.54852">
        <ele>1666</ele>
        <time>2021-04-08T11:41:09Z</time>
      </trkpt>
      <trkpt lat="44.47551" lon="6.54852">
        <ele>1666</ele>
        <time>2021-04-08T11:41:10Z</time>
      </trkpt>
      <trkpt lat="44.47552" lon="6.54852">
        <ele>1666</ele>
        <time>2021-04-08T11:41:11Z</time>
      </trkpt>
      <trkpt lat="44.47554" lon="6.54853">
        <ele>1666</ele>
        <time>2021-04-08T11:41:12Z</time>
      </trkpt>
      <trkpt lat="44.47555" lon="6.54853">
        <ele>1666</ele>
        <time>2021-04-08T11:41:13Z</time>
      </trkpt>
      <trkpt lat="44.47555" lon="6.54853">
        <ele>1666</ele>
        <time>2021-04-08T11:41:14Z</time>
      </trkpt>
      <trkpt lat="44.47556" lon="6.54854">
        <ele>1666</ele>
        <time>2021-04-08T11:41:15Z</time>
      </trkpt>
      <trkpt lat="44.47556" lon="6.54854">
        <ele>1666</ele>
        <time>2021-04-08T11:41:16Z</time>
      </trkpt>
      <trkpt lat="44.47556" lon="6.54854">
        <ele>1666</ele>
        <time>2021-04-08T11:41:17Z</time>
      </trkpt>
      <trkpt lat="44.47556" lon="6.54854">
        <ele>1666</ele>
        <time>2021-04-08T11:41:18Z</time>
      </trkpt>
      <trkpt lat="44.47556" lon="6.54854">
        <ele>1666</ele>
        <time>2021-04-08T11:41:19Z</time>
      </trkpt>
      <trkpt lat="44.47556" lon="6.54854">
        <ele>1666</ele>
        <time>2021-04-08T11:41:20Z</time>
      </trkpt>
      <trkpt lat="44.47556" lon="6.54854">
        <ele>1666</ele>
        <time>2021-04-08T11:41:21Z</time>
      </trkpt>
      <trkpt lat="44.47563" lon="6.54857">
        <ele>1666</ele>
        <time>2021-04-08T11:41:22Z</time>
      </trkpt>
      <trkpt lat="44.47565" lon="6.54858">
        <ele>1665</ele>
        <time>2021-04-08T11:41:23Z</time>
      </trkpt>
      <trkpt lat="44.47566" lon="6.54859">
        <ele>1665</ele>
        <time>2021-04-08T11:41:24Z</time>
      </trkpt>
      <trkpt lat="44.47568" lon="6.54859">
        <ele>1665</ele>
        <time>2021-04-08T11:41:25Z</time>
      </trkpt>
      <trkpt lat="44.47568" lon="6.5486">
        <ele>1665</ele>
        <time>2021-04-08T11:41:26Z</time>
      </trkpt>
      <trkpt lat="44.47569" lon="6.5486">
        <ele>1665</ele>
        <time>2021-04-08T11:41:27Z</time>
      </trkpt>
      <trkpt lat="44.47569" lon="6.5486">
        <ele>1665</ele>
        <time>2021-04-08T11:41:28Z</time>
      </trkpt>
      <trkpt lat="44.47569" lon="6.5486">
        <ele>1665</ele>
        <time>2021-04-08T11:41:29Z</time>
      </trkpt>
      <trkpt lat="44.47569" lon="6.5486">
        <ele>1665</ele>
        <time>2021-04-08T11:41:30Z</time>
      </trkpt>
      <trkpt lat="44.47569" lon="6.5486">
        <ele>1665</ele>
        <time>2021-04-08T11:41:31Z</time>
      </trkpt>
      <trkpt lat="44.47569" lon="6.5486">
        <ele>1665</ele>
        <time>2021-04-08T11:41:32Z</time>
      </trkpt>
      <trkpt lat="44.47569" lon="6.5486">
        <ele>1665</ele>
        <time>2021-04-08T11:41:33Z</time>
      </trkpt>
      <trkpt lat="44.47576" lon="6.54863">
        <ele>1665</ele>
        <time>2021-04-08T11:41:34Z</time>
      </trkpt>
      <trkpt lat="44.47578" lon="6.54863">
        <ele>1665</ele>
        <time>2021-04-08T11:41:35Z</time>
      </trkpt>
      <trkpt lat="44.4758" lon="6.54864">
        <ele>1665</ele>
        <time>2021-04-08T11:41:36Z</time>
      </trkpt>
      <trkpt lat="44.47582" lon="6.54866">
        <ele>1665</ele>
        <time>2021-04-08T11:41:37Z</time>
      </trkpt>
      <trkpt lat="44.47583" lon="6.54866">
        <ele>1665</ele>
        <time>2021-04-08T11:41:38Z</time>
      </trkpt>
      <trkpt lat="44.47583" lon="6.54866">
        <ele>1665</ele>
        <time>2021-04-08T11:41:39Z</time>
      </trkpt>
      <trkpt lat="44.47585" lon="6.54867">
        <ele>1665</ele>
        <time>2021-04-08T11:41:40Z</time>
      </trkpt>
      <trkpt lat="44.47586" lon="6.54867">
        <ele>1665</ele>
        <time>2021-04-08T11:41:41Z</time>
      </trkpt>
      <trkpt lat="44.47588" lon="6.54867">
        <ele>1665</ele>
        <time>2021-04-08T11:41:42Z</time>
      </trkpt>
      <trkpt lat="44.4759" lon="6.54867">
        <ele>1665</ele>
        <time>2021-04-08T11:41:43Z</time>
      </trkpt>
      <trkpt lat="44.47591" lon="6.54866">
        <ele>1666</ele>
        <time>2021-04-08T11:41:44Z</time>
      </trkpt>
      <trkpt lat="44.47591" lon="6.54866">
        <ele>1666</ele>
        <time>2021-04-08T11:41:45Z</time>
      </trkpt>
      <trkpt lat="44.47591" lon="6.54866">
        <ele>1666</ele>
        <time>2021-04-08T11:41:46Z</time>
      </trkpt>
      <trkpt lat="44.47591" lon="6.54866">
        <ele>1666</ele>
        <time>2021-04-08T11:41:47Z</time>
      </trkpt>
      <trkpt lat="44.47591" lon="6.54866">
        <ele>1666</ele>
        <time>2021-04-08T11:41:48Z</time>
      </trkpt>
      <trkpt lat="44.47591" lon="6.54866">
        <ele>1666</ele>
        <time>2021-04-08T11:41:49Z</time>
      </trkpt>
      <trkpt lat="44.47591" lon="6.54866">
        <ele>1666</ele>
        <time>2021-04-08T11:41:50Z</time>
      </trkpt>
      <trkpt lat="44.47598" lon="6.5487">
        <ele>1667</ele>
        <time>2021-04-08T11:41:51Z</time>
      </trkpt>
      <trkpt lat="44.476" lon="6.54872">
        <ele>1667</ele>
        <time>2021-04-08T11:41:52Z</time>
      </trkpt>
      <trkpt lat="44.47601" lon="6.54873">
        <ele>1668</ele>
        <time>2021-04-08T11:41:53Z</time>
      </trkpt>
      <trkpt lat="44.47602" lon="6.54874">
        <ele>1668</ele>
        <time>2021-04-08T11:41:54Z</time>
      </trkpt>
      <trkpt lat="44.47603" lon="6.54875">
        <ele>1668</ele>
        <time>2021-04-08T11:41:55Z</time>
      </trkpt>
      <trkpt lat="44.47604" lon="6.54876">
        <ele>1668</ele>
        <time>2021-04-08T11:41:56Z</time>
      </trkpt>
      <trkpt lat="44.47605" lon="6.54876">
        <ele>1668</ele>
        <time>2021-04-08T11:41:57Z</time>
      </trkpt>
      <trkpt lat="44.47605" lon="6.54876">
        <ele>1669</ele>
        <time>2021-04-08T11:41:58Z</time>
      </trkpt>
      <trkpt lat="44.47605" lon="6.54876">
        <ele>1669</ele>
        <time>2021-04-08T11:41:59Z</time>
      </trkpt>
      <trkpt lat="44.47605" lon="6.54876">
        <ele>1669</ele>
        <time>2021-04-08T11:42:00Z</time>
      </trkpt>
      <trkpt lat="44.47608" lon="6.5488">
        <ele>1669</ele>
        <time>2021-04-08T11:42:01Z</time>
      </trkpt>
      <trkpt lat="44.47609" lon="6.54881">
        <ele>1669</ele>
        <time>2021-04-08T11:42:02Z</time>
      </trkpt>
      <trkpt lat="44.4761" lon="6.54882">
        <ele>1670</ele>
        <time>2021-04-08T11:42:03Z</time>
      </trkpt>
      <trkpt lat="44.4761" lon="6.54883">
        <ele>1670</ele>
        <time>2021-04-08T11:42:04Z</time>
      </trkpt>
      <trkpt lat="44.4761" lon="6.54883">
        <ele>1670</ele>
        <time>2021-04-08T11:42:05Z</time>
      </trkpt>
      <trkpt lat="44.4761" lon="6.54883">
        <ele>1670</ele>
        <time>2021-04-08T11:42:06Z</time>
      </trkpt>
      <trkpt lat="44.4761" lon="6.54883">
        <ele>1670</ele>
        <time>2021-04-08T11:42:07Z</time>
      </trkpt>
      <trkpt lat="44.4761" lon="6.54883">
        <ele>1670</ele>
        <time>2021-04-08T11:42:08Z</time>
      </trkpt>
      <trkpt lat="44.4761" lon="6.54883">
        <ele>1670</ele>
        <time>2021-04-08T11:42:09Z</time>
      </trkpt>
      <trkpt lat="44.4761" lon="6.54883">
        <ele>1670</ele>
        <time>2021-04-08T11:42:10Z</time>
      </trkpt>
      <trkpt lat="44.4761" lon="6.54883">
        <ele>1670</ele>
        <time>2021-04-08T11:42:11Z</time>
      </trkpt>
      <trkpt lat="44.4761" lon="6.54883">
        <ele>1670</ele>
        <time>2021-04-08T11:42:12Z</time>
      </trkpt>
      <trkpt lat="44.4761" lon="6.54883">
        <ele>1670</ele>
        <time>2021-04-08T11:42:13Z</time>
      </trkpt>
      <trkpt lat="44.4761" lon="6.54883">
        <ele>1670</ele>
        <time>2021-04-08T11:42:14Z</time>
      </trkpt>
      <trkpt lat="44.4761" lon="6.54883">
        <ele>1670</ele>
        <time>2021-04-08T11:42:15Z</time>
      </trkpt>
      <trkpt lat="44.47619" lon="6.54888">
        <ele>1671</ele>
        <time>2021-04-08T11:42:16Z</time>
      </trkpt>
      <trkpt lat="44.4762" lon="6.54888">
        <ele>1671</ele>
        <time>2021-04-08T11:42:17Z</time>
      </trkpt>
      <trkpt lat="44.4762" lon="6.54889">
        <ele>1671</ele>
        <time>2021-04-08T11:42:18Z</time>
      </trkpt>
      <trkpt lat="44.47621" lon="6.54891">
        <ele>1672</ele>
        <time>2021-04-08T11:42:19Z</time>
      </trkpt>
      <trkpt lat="44.47623" lon="6.54891">
        <ele>1671</ele>
        <time>2021-04-08T11:42:20Z</time>
      </trkpt>
      <trkpt lat="44.47624" lon="6.54892">
        <ele>1671</ele>
        <time>2021-04-08T11:42:21Z</time>
      </trkpt>
      <trkpt lat="44.47626" lon="6.54894">
        <ele>1671</ele>
        <time>2021-04-08T11:42:22Z</time>
      </trkpt>
      <trkpt lat="44.47627" lon="6.54895">
        <ele>1670</ele>
        <time>2021-04-08T11:42:23Z</time>
      </trkpt>
      <trkpt lat="44.47628" lon="6.54897">
        <ele>1670</ele>
        <time>2021-04-08T11:42:24Z</time>
      </trkpt>
      <trkpt lat="44.47629" lon="6.54898">
        <ele>1670</ele>
        <time>2021-04-08T11:42:25Z</time>
      </trkpt>
      <trkpt lat="44.4763" lon="6.54899">
        <ele>1670</ele>
        <time>2021-04-08T11:42:26Z</time>
      </trkpt>
      <trkpt lat="44.47631" lon="6.549">
        <ele>1671</ele>
        <time>2021-04-08T11:42:27Z</time>
      </trkpt>
      <trkpt lat="44.47631" lon="6.549">
        <ele>1671</ele>
        <time>2021-04-08T11:42:28Z</time>
      </trkpt>
      <trkpt lat="44.47631" lon="6.549">
        <ele>1671</ele>
        <time>2021-04-08T11:42:29Z</time>
      </trkpt>
      <trkpt lat="44.47631" lon="6.549">
        <ele>1671</ele>
        <time>2021-04-08T11:42:30Z</time>
      </trkpt>
      <trkpt lat="44.47631" lon="6.549">
        <ele>1671</ele>
        <time>2021-04-08T11:42:31Z</time>
      </trkpt>
      <trkpt lat="44.47631" lon="6.549">
        <ele>1671</ele>
        <time>2021-04-08T11:42:32Z</time>
      </trkpt>
      <trkpt lat="44.47631" lon="6.549">
        <ele>1671</ele>
        <time>2021-04-08T11:42:33Z</time>
      </trkpt>
      <trkpt lat="44.47631" lon="6.549">
        <ele>1671</ele>
        <time>2021-04-08T11:42:34Z</time>
      </trkpt>
      <trkpt lat="44.47631" lon="6.549">
        <ele>1671</ele>
        <time>2021-04-08T11:42:35Z</time>
      </trkpt>
      <trkpt lat="44.47631" lon="6.549">
        <ele>1671</ele>
        <time>2021-04-08T11:42:36Z</time>
      </trkpt>
      <trkpt lat="44.47631" lon="6.549">
        <ele>1671</ele>
        <time>2021-04-08T11:42:37Z</time>
      </trkpt>
      <trkpt lat="44.4764" lon="6.54904">
        <ele>1671</ele>
        <time>2021-04-08T11:42:38Z</time>
      </trkpt>
      <trkpt lat="44.47641" lon="6.54905">
        <ele>1671</ele>
        <time>2021-04-08T11:42:39Z</time>
      </trkpt>
      <trkpt lat="44.47643" lon="6.54906">
        <ele>1671</ele>
        <time>2021-04-08T11:42:40Z</time>
      </trkpt>
      <trkpt lat="44.47644" lon="6.54906">
        <ele>1670</ele>
        <time>2021-04-08T11:42:41Z</time>
      </trkpt>
      <trkpt lat="44.47645" lon="6.54907">
        <ele>1670</ele>
        <time>2021-04-08T11:42:42Z</time>
      </trkpt>
      <trkpt lat="44.47646" lon="6.54907">
        <ele>1670</ele>
        <time>2021-04-08T11:42:43Z</time>
      </trkpt>
      <trkpt lat="44.47647" lon="6.54908">
        <ele>1670</ele>
        <time>2021-04-08T11:42:44Z</time>
      </trkpt>
      <trkpt lat="44.47648" lon="6.54909">
        <ele>1669</ele>
        <time>2021-04-08T11:42:45Z</time>
      </trkpt>
      <trkpt lat="44.47649" lon="6.54909">
        <ele>1669</ele>
        <time>2021-04-08T11:42:46Z</time>
      </trkpt>
      <trkpt lat="44.47649" lon="6.54909">
        <ele>1669</ele>
        <time>2021-04-08T11:42:47Z</time>
      </trkpt>
      <trkpt lat="44.47649" lon="6.54909">
        <ele>1669</ele>
        <time>2021-04-08T11:42:48Z</time>
      </trkpt>
      <trkpt lat="44.47652" lon="6.5491">
        <ele>1670</ele>
        <time>2021-04-08T11:42:49Z</time>
      </trkpt>
      <trkpt lat="44.47653" lon="6.54911">
        <ele>1670</ele>
        <time>2021-04-08T11:42:50Z</time>
      </trkpt>
      <trkpt lat="44.47655" lon="6.54911">
        <ele>1670</ele>
        <time>2021-04-08T11:42:51Z</time>
      </trkpt>
      <trkpt lat="44.47656" lon="6.54912">
        <ele>1670</ele>
        <time>2021-04-08T11:42:52Z</time>
      </trkpt>
      <trkpt lat="44.47657" lon="6.54912">
        <ele>1670</ele>
        <time>2021-04-08T11:42:53Z</time>
      </trkpt>
      <trkpt lat="44.47658" lon="6.54913">
        <ele>1670</ele>
        <time>2021-04-08T11:42:54Z</time>
      </trkpt>
      <trkpt lat="44.47658" lon="6.54913">
        <ele>1670</ele>
        <time>2021-04-08T11:42:55Z</time>
      </trkpt>
      <trkpt lat="44.47658" lon="6.54913">
        <ele>1670</ele>
        <time>2021-04-08T11:42:56Z</time>
      </trkpt>
      <trkpt lat="44.47658" lon="6.54913">
        <ele>1670</ele>
        <time>2021-04-08T11:42:57Z</time>
      </trkpt>
      <trkpt lat="44.47658" lon="6.54913">
        <ele>1670</ele>
        <time>2021-04-08T11:42:58Z</time>
      </trkpt>
      <trkpt lat="44.47658" lon="6.54913">
        <ele>1670</ele>
        <time>2021-04-08T11:42:59Z</time>
      </trkpt>
      <trkpt lat="44.47665" lon="6.54914">
        <ele>1670</ele>
        <time>2021-04-08T11:43:00Z</time>
      </trkpt>
      <trkpt lat="44.47667" lon="6.54914">
        <ele>1670</ele>
        <time>2021-04-08T11:43:01Z</time>
      </trkpt>
      <trkpt lat="44.47669" lon="6.54915">
        <ele>1670</ele>
        <time>2021-04-08T11:43:02Z</time>
      </trkpt>
      <trkpt lat="44.4767" lon="6.54915">
        <ele>1670</ele>
        <time>2021-04-08T11:43:03Z</time>
      </trkpt>
      <trkpt lat="44.47672" lon="6.54915">
        <ele>1670</ele>
        <time>2021-04-08T11:43:04Z</time>
      </trkpt>
      <trkpt lat="44.47674" lon="6.54915">
        <ele>1670</ele>
        <time>2021-04-08T11:43:05Z</time>
      </trkpt>
      <trkpt lat="44.47675" lon="6.54914">
        <ele>1669</ele>
        <time>2021-04-08T11:43:06Z</time>
      </trkpt>
      <trkpt lat="44.47676" lon="6.54914">
        <ele>1669</ele>
        <time>2021-04-08T11:43:07Z</time>
      </trkpt>
      <trkpt lat="44.47677" lon="6.54915">
        <ele>1669</ele>
        <time>2021-04-08T11:43:08Z</time>
      </trkpt>
      <trkpt lat="44.47678" lon="6.54915">
        <ele>1668</ele>
        <time>2021-04-08T11:43:09Z</time>
      </trkpt>
      <trkpt lat="44.4768" lon="6.54914">
        <ele>1668</ele>
        <time>2021-04-08T11:43:10Z</time>
      </trkpt>
      <trkpt lat="44.47681" lon="6.54914">
        <ele>1668</ele>
        <time>2021-04-08T11:43:11Z</time>
      </trkpt>
      <trkpt lat="44.47682" lon="6.54914">
        <ele>1667</ele>
        <time>2021-04-08T11:43:12Z</time>
      </trkpt>
      <trkpt lat="44.47684" lon="6.54914">
        <ele>1667</ele>
        <time>2021-04-08T11:43:13Z</time>
      </trkpt>
      <trkpt lat="44.47685" lon="6.54914">
        <ele>1667</ele>
        <time>2021-04-08T11:43:14Z</time>
      </trkpt>
      <trkpt lat="44.47685" lon="6.54914">
        <ele>1667</ele>
        <time>2021-04-08T11:43:15Z</time>
      </trkpt>
      <trkpt lat="44.47686" lon="6.54914">
        <ele>1667</ele>
        <time>2021-04-08T11:43:16Z</time>
      </trkpt>
      <trkpt lat="44.47686" lon="6.54914">
        <ele>1667</ele>
        <time>2021-04-08T11:43:17Z</time>
      </trkpt>
      <trkpt lat="44.47686" lon="6.54914">
        <ele>1667</ele>
        <time>2021-04-08T11:43:18Z</time>
      </trkpt>
      <trkpt lat="44.47686" lon="6.54914">
        <ele>1667</ele>
        <time>2021-04-08T11:43:19Z</time>
      </trkpt>
      <trkpt lat="44.47686" lon="6.54914">
        <ele>1667</ele>
        <time>2021-04-08T11:43:20Z</time>
      </trkpt>
      <trkpt lat="44.47686" lon="6.54914">
        <ele>1667</ele>
        <time>2021-04-08T11:43:21Z</time>
      </trkpt>
      <trkpt lat="44.47686" lon="6.54914">
        <ele>1667</ele>
        <time>2021-04-08T11:43:22Z</time>
      </trkpt>
      <trkpt lat="44.47686" lon="6.54914">
        <ele>1667</ele>
        <time>2021-04-08T11:43:23Z</time>
      </trkpt>
      <trkpt lat="44.47686" lon="6.54914">
        <ele>1667</ele>
        <time>2021-04-08T11:43:24Z</time>
      </trkpt>
      <trkpt lat="44.47695" lon="6.54911">
        <ele>1666</ele>
        <time>2021-04-08T11:43:25Z</time>
      </trkpt>
      <trkpt lat="44.47696" lon="6.54911">
        <ele>1666</ele>
        <time>2021-04-08T11:43:26Z</time>
      </trkpt>
      <trkpt lat="44.47697" lon="6.54911">
        <ele>1666</ele>
        <time>2021-04-08T11:43:27Z</time>
      </trkpt>
      <trkpt lat="44.47699" lon="6.54911">
        <ele>1665</ele>
        <time>2021-04-08T11:43:28Z</time>
      </trkpt>
      <trkpt lat="44.477" lon="6.54912">
        <ele>1665</ele>
        <time>2021-04-08T11:43:29Z</time>
      </trkpt>
      <trkpt lat="44.477" lon="6.54912">
        <ele>1665</ele>
        <time>2021-04-08T11:43:30Z</time>
      </trkpt>
      <trkpt lat="44.47701" lon="6.54913">
        <ele>1665</ele>
        <time>2021-04-08T11:43:31Z</time>
      </trkpt>
      <trkpt lat="44.47702" lon="6.54914">
        <ele>1665</ele>
        <time>2021-04-08T11:43:32Z</time>
      </trkpt>
      <trkpt lat="44.47703" lon="6.54914">
        <ele>1665</ele>
        <time>2021-04-08T11:43:33Z</time>
      </trkpt>
      <trkpt lat="44.47704" lon="6.54916">
        <ele>1664</ele>
        <time>2021-04-08T11:43:34Z</time>
      </trkpt>
      <trkpt lat="44.47705" lon="6.54917">
        <ele>1664</ele>
        <time>2021-04-08T11:43:35Z</time>
      </trkpt>
      <trkpt lat="44.47706" lon="6.54918">
        <ele>1664</ele>
        <time>2021-04-08T11:43:36Z</time>
      </trkpt>
      <trkpt lat="44.47706" lon="6.54918">
        <ele>1664</ele>
        <time>2021-04-08T11:43:37Z</time>
      </trkpt>
      <trkpt lat="44.47707" lon="6.54918">
        <ele>1664</ele>
        <time>2021-04-08T11:43:38Z</time>
      </trkpt>
      <trkpt lat="44.47709" lon="6.54919">
        <ele>1664</ele>
        <time>2021-04-08T11:43:39Z</time>
      </trkpt>
      <trkpt lat="44.47709" lon="6.54919">
        <ele>1664</ele>
        <time>2021-04-08T11:43:40Z</time>
      </trkpt>
      <trkpt lat="44.47711" lon="6.54918">
        <ele>1664</ele>
        <time>2021-04-08T11:43:41Z</time>
      </trkpt>
      <trkpt lat="44.47712" lon="6.54919">
        <ele>1663</ele>
        <time>2021-04-08T11:43:42Z</time>
      </trkpt>
      <trkpt lat="44.47714" lon="6.54919">
        <ele>1663</ele>
        <time>2021-04-08T11:43:43Z</time>
      </trkpt>
      <trkpt lat="44.47715" lon="6.54919">
        <ele>1663</ele>
        <time>2021-04-08T11:43:44Z</time>
      </trkpt>
      <trkpt lat="44.47717" lon="6.54919">
        <ele>1663</ele>
        <time>2021-04-08T11:43:45Z</time>
      </trkpt>
      <trkpt lat="44.47718" lon="6.54919">
        <ele>1663</ele>
        <time>2021-04-08T11:43:46Z</time>
      </trkpt>
      <trkpt lat="44.47719" lon="6.54919">
        <ele>1664</ele>
        <time>2021-04-08T11:43:47Z</time>
      </trkpt>
      <trkpt lat="44.47721" lon="6.54919">
        <ele>1665</ele>
        <time>2021-04-08T11:43:48Z</time>
      </trkpt>
      <trkpt lat="44.47722" lon="6.54919">
        <ele>1665</ele>
        <time>2021-04-08T11:43:49Z</time>
      </trkpt>
      <trkpt lat="44.47723" lon="6.54919">
        <ele>1665</ele>
        <time>2021-04-08T11:43:50Z</time>
      </trkpt>
      <trkpt lat="44.47724" lon="6.54918">
        <ele>1666</ele>
        <time>2021-04-08T11:43:51Z</time>
      </trkpt>
      <trkpt lat="44.47725" lon="6.54918">
        <ele>1666</ele>
        <time>2021-04-08T11:43:52Z</time>
      </trkpt>
      <trkpt lat="44.47727" lon="6.54918">
        <ele>1666</ele>
        <time>2021-04-08T11:43:53Z</time>
      </trkpt>
      <trkpt lat="44.47727" lon="6.54917">
        <ele>1666</ele>
        <time>2021-04-08T11:43:54Z</time>
      </trkpt>
      <trkpt lat="44.47729" lon="6.54916">
        <ele>1667</ele>
        <time>2021-04-08T11:43:55Z</time>
      </trkpt>
      <trkpt lat="44.4773" lon="6.54915">
        <ele>1667</ele>
        <time>2021-04-08T11:43:56Z</time>
      </trkpt>
      <trkpt lat="44.47732" lon="6.54914">
        <ele>1667</ele>
        <time>2021-04-08T11:43:57Z</time>
      </trkpt>
      <trkpt lat="44.47733" lon="6.54913">
        <ele>1668</ele>
        <time>2021-04-08T11:43:58Z</time>
      </trkpt>
      <trkpt lat="44.47732" lon="6.54912">
        <ele>1668</ele>
        <time>2021-04-08T11:43:59Z</time>
      </trkpt>
      <trkpt lat="44.47732" lon="6.54912">
        <ele>1668</ele>
        <time>2021-04-08T11:44:00Z</time>
      </trkpt>
      <trkpt lat="44.47731" lon="6.54912">
        <ele>1669</ele>
        <time>2021-04-08T11:44:01Z</time>
      </trkpt>
      <trkpt lat="44.47731" lon="6.54912">
        <ele>1669</ele>
        <time>2021-04-08T11:44:02Z</time>
      </trkpt>
      <trkpt lat="44.47731" lon="6.54912">
        <ele>1669</ele>
        <time>2021-04-08T11:44:03Z</time>
      </trkpt>
      <trkpt lat="44.47731" lon="6.54912">
        <ele>1669</ele>
        <time>2021-04-08T11:44:04Z</time>
      </trkpt>
      <trkpt lat="44.47731" lon="6.54912">
        <ele>1669</ele>
        <time>2021-04-08T11:44:05Z</time>
      </trkpt>
      <trkpt lat="44.47731" lon="6.54912">
        <ele>1669</ele>
        <time>2021-04-08T11:44:06Z</time>
      </trkpt>
      <trkpt lat="44.47731" lon="6.54912">
        <ele>1669</ele>
        <time>2021-04-08T11:44:07Z</time>
      </trkpt>
      <trkpt lat="44.47731" lon="6.54912">
        <ele>1669</ele>
        <time>2021-04-08T11:44:08Z</time>
      </trkpt>
      <trkpt lat="44.47731" lon="6.54912">
        <ele>1669</ele>
        <time>2021-04-08T11:44:09Z</time>
      </trkpt>
      <trkpt lat="44.47731" lon="6.54912">
        <ele>1669</ele>
        <time>2021-04-08T11:44:10Z</time>
      </trkpt>
      <trkpt lat="44.47731" lon="6.54912">
        <ele>1669</ele>
        <time>2021-04-08T11:44:11Z</time>
      </trkpt>
      <trkpt lat="44.47731" lon="6.54912">
        <ele>1669</ele>
        <time>2021-04-08T11:44:12Z</time>
      </trkpt>
      <trkpt lat="44.47731" lon="6.54912">
        <ele>1669</ele>
        <time>2021-04-08T11:44:13Z</time>
      </trkpt>
      <trkpt lat="44.47731" lon="6.54912">
        <ele>1669</ele>
        <time>2021-04-08T11:44:14Z</time>
      </trkpt>
      <trkpt lat="44.47731" lon="6.54912">
        <ele>1669</ele>
        <time>2021-04-08T11:44:15Z</time>
      </trkpt>
      <trkpt lat="44.47731" lon="6.54912">
        <ele>1669</ele>
        <time>2021-04-08T11:44:16Z</time>
      </trkpt>
      <trkpt lat="44.47731" lon="6.54912">
        <ele>1670</ele>
        <time>2021-04-08T11:44:17Z</time>
      </trkpt>
      <trkpt lat="44.47731" lon="6.54912">
        <ele>1670</ele>
        <time>2021-04-08T11:44:18Z</time>
      </trkpt>
      <trkpt lat="44.47731" lon="6.54912">
        <ele>1670</ele>
        <time>2021-04-08T11:44:19Z</time>
      </trkpt>
      <trkpt lat="44.47731" lon="6.54912">
        <ele>1670</ele>
        <time>2021-04-08T11:44:20Z</time>
      </trkpt>
      <trkpt lat="44.47731" lon="6.54912">
        <ele>1670</ele>
        <time>2021-04-08T11:44:21Z</time>
      </trkpt>
      <trkpt lat="44.47731" lon="6.54912">
        <ele>1670</ele>
        <time>2021-04-08T11:44:22Z</time>
      </trkpt>
      <trkpt lat="44.47731" lon="6.54912">
        <ele>1670</ele>
        <time>2021-04-08T11:44:23Z</time>
      </trkpt>
      <trkpt lat="44.47731" lon="6.54912">
        <ele>1670</ele>
        <time>2021-04-08T11:44:24Z</time>
      </trkpt>
      <trkpt lat="44.47731" lon="6.54912">
        <ele>1670</ele>
        <time>2021-04-08T11:44:25Z</time>
      </trkpt>
      <trkpt lat="44.47731" lon="6.54912">
        <ele>1670</ele>
        <time>2021-04-08T11:44:26Z</time>
      </trkpt>
      <trkpt lat="44.47731" lon="6.54912">
        <ele>1670</ele>
        <time>2021-04-08T11:44:27Z</time>
      </trkpt>
      <trkpt lat="44.47731" lon="6.54912">
        <ele>1670</ele>
        <time>2021-04-08T11:44:28Z</time>
      </trkpt>
      <trkpt lat="44.47731" lon="6.54912">
        <ele>1670</ele>
        <time>2021-04-08T11:44:29Z</time>
      </trkpt>
      <trkpt lat="44.47731" lon="6.54912">
        <ele>1670</ele>
        <time>2021-04-08T11:44:30Z</time>
      </trkpt>
      <trkpt lat="44.47731" lon="6.54912">
        <ele>1670</ele>
        <time>2021-04-08T11:44:31Z</time>
      </trkpt>
      <trkpt lat="44.47731" lon="6.54912">
        <ele>1670</ele>
        <time>2021-04-08T11:44:32Z</time>
      </trkpt>
      <trkpt lat="44.47731" lon="6.54912">
        <ele>1670</ele>
        <time>2021-04-08T11:44:33Z</time>
      </trkpt>
      <trkpt lat="44.47731" lon="6.54912">
        <ele>1670</ele>
        <time>2021-04-08T11:44:34Z</time>
      </trkpt>
      <trkpt lat="44.47731" lon="6.54912">
        <ele>1670</ele>
        <time>2021-04-08T11:44:35Z</time>
      </trkpt>
      <trkpt lat="44.47731" lon="6.54912">
        <ele>1670</ele>
        <time>2021-04-08T11:44:36Z</time>
      </trkpt>
      <trkpt lat="44.47731" lon="6.54912">
        <ele>1670</ele>
        <time>2021-04-08T11:44:37Z</time>
      </trkpt>
      <trkpt lat="44.47731" lon="6.54912">
        <ele>1670</ele>
        <time>2021-04-08T11:44:38Z</time>
      </trkpt>
      <trkpt lat="44.47731" lon="6.54912">
        <ele>1670</ele>
        <time>2021-04-08T11:44:39Z</time>
      </trkpt>
      <trkpt lat="44.47731" lon="6.54912">
        <ele>1670</ele>
        <time>2021-04-08T11:44:40Z</time>
      </trkpt>
      <trkpt lat="44.47731" lon="6.54912">
        <ele>1670</ele>
        <time>2021-04-08T11:44:41Z</time>
      </trkpt>
      <trkpt lat="44.47731" lon="6.54912">
        <ele>1670</ele>
        <time>2021-04-08T11:44:42Z</time>
      </trkpt>
      <trkpt lat="44.47731" lon="6.54912">
        <ele>1670</ele>
        <time>2021-04-08T11:44:43Z</time>
      </trkpt>
      <trkpt lat="44.47731" lon="6.54912">
        <ele>1670</ele>
        <time>2021-04-08T11:44:44Z</time>
      </trkpt>
      <trkpt lat="44.47731" lon="6.54912">
        <ele>1670</ele>
        <time>2021-04-08T11:44:45Z</time>
      </trkpt>
      <trkpt lat="44.47731" lon="6.54912">
        <ele>1670</ele>
        <time>2021-04-08T11:44:46Z</time>
      </trkpt>
      <trkpt lat="44.47731" lon="6.54912">
        <ele>1670</ele>
        <time>2021-04-08T11:44:47Z</time>
      </trkpt>
      <trkpt lat="44.47731" lon="6.54912">
        <ele>1670</ele>
        <time>2021-04-08T11:44:48Z</time>
      </trkpt>
      <trkpt lat="44.47731" lon="6.54912">
        <ele>1670</ele>
        <time>2021-04-08T11:44:49Z</time>
      </trkpt>
      <trkpt lat="44.47731" lon="6.54912">
        <ele>1670</ele>
        <time>2021-04-08T11:44:50Z</time>
      </trkpt>
      <trkpt lat="44.47731" lon="6.54912">
        <ele>1670</ele>
        <time>2021-04-08T11:44:51Z</time>
      </trkpt>
      <trkpt lat="44.47731" lon="6.54912">
        <ele>1670</ele>
        <time>2021-04-08T11:44:52Z</time>
      </trkpt>
      <trkpt lat="44.47731" lon="6.54912">
        <ele>1670</ele>
        <time>2021-04-08T11:44:53Z</time>
      </trkpt>
      <trkpt lat="44.47731" lon="6.54912">
        <ele>1670</ele>
        <time>2021-04-08T11:44:54Z</time>
      </trkpt>
      <trkpt lat="44.47731" lon="6.54912">
        <ele>1670</ele>
        <time>2021-04-08T11:44:55Z</time>
      </trkpt>
      <trkpt lat="44.47731" lon="6.54912">
        <ele>1670</ele>
        <time>2021-04-08T11:44:56Z</time>
      </trkpt>
      <trkpt lat="44.47731" lon="6.54912">
        <ele>1670</ele>
        <time>2021-04-08T11:44:57Z</time>
      </trkpt>
      <trkpt lat="44.47731" lon="6.54912">
        <ele>1670</ele>
        <time>2021-04-08T11:44:58Z</time>
      </trkpt>
      <trkpt lat="44.47731" lon="6.54912">
        <ele>1670</ele>
        <time>2021-04-08T11:44:59Z</time>
      </trkpt>
      <trkpt lat="44.47731" lon="6.54912">
        <ele>1670</ele>
        <time>2021-04-08T11:45:00Z</time>
      </trkpt>
      <trkpt lat="44.47731" lon="6.54912">
        <ele>1670</ele>
        <time>2021-04-08T11:45:01Z</time>
      </trkpt>
      <trkpt lat="44.47731" lon="6.54912">
        <ele>1670</ele>
        <time>2021-04-08T11:45:02Z</time>
      </trkpt>
      <trkpt lat="44.47731" lon="6.54912">
        <ele>1670</ele>
        <time>2021-04-08T11:45:03Z</time>
      </trkpt>
      <trkpt lat="44.47731" lon="6.54912">
        <ele>1670</ele>
        <time>2021-04-08T11:45:04Z</time>
      </trkpt>
      <trkpt lat="44.47731" lon="6.54912">
        <ele>1670</ele>
        <time>2021-04-08T11:45:05Z</time>
      </trkpt>
      <trkpt lat="44.47731" lon="6.54912">
        <ele>1670</ele>
        <time>2021-04-08T11:45:06Z</time>
      </trkpt>
      <trkpt lat="44.47731" lon="6.54912">
        <ele>1670</ele>
        <time>2021-04-08T11:45:07Z</time>
      </trkpt>
      <trkpt lat="44.47731" lon="6.54912">
        <ele>1670</ele>
        <time>2021-04-08T11:45:08Z</time>
      </trkpt>
      <trkpt lat="44.47731" lon="6.54912">
        <ele>1670</ele>
        <time>2021-04-08T11:45:09Z</time>
      </trkpt>
      <trkpt lat="44.47731" lon="6.54912">
        <ele>1670</ele>
        <time>2021-04-08T11:45:10Z</time>
      </trkpt>
      <trkpt lat="44.47731" lon="6.54912">
        <ele>1670</ele>
        <time>2021-04-08T11:45:11Z</time>
      </trkpt>
      <trkpt lat="44.47731" lon="6.54912">
        <ele>1670</ele>
        <time>2021-04-08T11:45:12Z</time>
      </trkpt>
      <trkpt lat="44.47731" lon="6.54912">
        <ele>1670</ele>
        <time>2021-04-08T11:45:13Z</time>
      </trkpt>
      <trkpt lat="44.47731" lon="6.54912">
        <ele>1670</ele>
        <time>2021-04-08T11:45:14Z</time>
      </trkpt>
      <trkpt lat="44.47731" lon="6.54912">
        <ele>1670</ele>
        <time>2021-04-08T11:45:15Z</time>
      </trkpt>
      <trkpt lat="44.47731" lon="6.54912">
        <ele>1670</ele>
        <time>2021-04-08T11:45:16Z</time>
      </trkpt>
      <trkpt lat="44.47731" lon="6.54912">
        <ele>1670</ele>
        <time>2021-04-08T11:45:17Z</time>
      </trkpt>
      <trkpt lat="44.47731" lon="6.54912">
        <ele>1670</ele>
        <time>2021-04-08T11:45:18Z</time>
      </trkpt>
      <trkpt lat="44.47731" lon="6.54912">
        <ele>1670</ele>
        <time>2021-04-08T11:45:19Z</time>
      </trkpt>
      <trkpt lat="44.47731" lon="6.54912">
        <ele>1670</ele>
        <time>2021-04-08T11:45:20Z</time>
      </trkpt>
      <trkpt lat="44.47731" lon="6.54912">
        <ele>1670</ele>
        <time>2021-04-08T11:45:21Z</time>
      </trkpt>
      <trkpt lat="44.47731" lon="6.54912">
        <ele>1670</ele>
        <time>2021-04-08T11:45:22Z</time>
      </trkpt>
      <trkpt lat="44.47731" lon="6.54912">
        <ele>1670</ele>
        <time>2021-04-08T11:45:23Z</time>
      </trkpt>
      <trkpt lat="44.47731" lon="6.54912">
        <ele>1670</ele>
        <time>2021-04-08T11:45:24Z</time>
      </trkpt>
      <trkpt lat="44.47731" lon="6.54912">
        <ele>1670</ele>
        <time>2021-04-08T11:45:25Z</time>
      </trkpt>
      <trkpt lat="44.47731" lon="6.54912">
        <ele>1670</ele>
        <time>2021-04-08T11:45:26Z</time>
      </trkpt>
      <trkpt lat="44.47731" lon="6.54912">
        <ele>1670</ele>
        <time>2021-04-08T11:45:27Z</time>
      </trkpt>
      <trkpt lat="44.47731" lon="6.54912">
        <ele>1670</ele>
        <time>2021-04-08T11:45:28Z</time>
      </trkpt>
      <trkpt lat="44.47731" lon="6.54912">
        <ele>1670</ele>
        <time>2021-04-08T11:45:29Z</time>
      </trkpt>
      <trkpt lat="44.47731" lon="6.54912">
        <ele>1670</ele>
        <time>2021-04-08T11:45:30Z</time>
      </trkpt>
      <trkpt lat="44.47731" lon="6.54912">
        <ele>1670</ele>
        <time>2021-04-08T11:45:31Z</time>
      </trkpt>
      <trkpt lat="44.47731" lon="6.54912">
        <ele>1670</ele>
        <time>2021-04-08T11:45:32Z</time>
      </trkpt>
      <trkpt lat="44.47731" lon="6.54912">
        <ele>1670</ele>
        <time>2021-04-08T11:45:33Z</time>
      </trkpt>
      <trkpt lat="44.47731" lon="6.54912">
        <ele>1670</ele>
        <time>2021-04-08T11:45:34Z</time>
      </trkpt>
      <trkpt lat="44.47731" lon="6.54912">
        <ele>1670</ele>
        <time>2021-04-08T11:45:35Z</time>
      </trkpt>
      <trkpt lat="44.47731" lon="6.54912">
        <ele>1670</ele>
        <time>2021-04-08T11:45:36Z</time>
      </trkpt>
      <trkpt lat="44.47731" lon="6.54912">
        <ele>1670</ele>
        <time>2021-04-08T11:45:37Z</time>
      </trkpt>
      <trkpt lat="44.47731" lon="6.54912">
        <ele>1670</ele>
        <time>2021-04-08T11:45:38Z</time>
      </trkpt>
      <trkpt lat="44.47731" lon="6.54912">
        <ele>1670</ele>
        <time>2021-04-08T11:45:39Z</time>
      </trkpt>
      <trkpt lat="44.47731" lon="6.54912">
        <ele>1670</ele>
        <time>2021-04-08T11:45:40Z</time>
      </trkpt>
      <trkpt lat="44.47731" lon="6.54912">
        <ele>1670</ele>
        <time>2021-04-08T11:45:41Z</time>
      </trkpt>
      <trkpt lat="44.47731" lon="6.54912">
        <ele>1670</ele>
        <time>2021-04-08T11:45:42Z</time>
      </trkpt>
      <trkpt lat="44.47731" lon="6.54912">
        <ele>1670</ele>
        <time>2021-04-08T11:45:43Z</time>
      </trkpt>
      <trkpt lat="44.47731" lon="6.54912">
        <ele>1670</ele>
        <time>2021-04-08T11:45:44Z</time>
      </trkpt>
      <trkpt lat="44.47731" lon="6.54912">
        <ele>1670</ele>
        <time>2021-04-08T11:45:45Z</time>
      </trkpt>
      <trkpt lat="44.47731" lon="6.54912">
        <ele>1670</ele>
        <time>2021-04-08T11:45:46Z</time>
      </trkpt>
      <trkpt lat="44.47731" lon="6.54912">
        <ele>1670</ele>
        <time>2021-04-08T11:45:47Z</time>
      </trkpt>
      <trkpt lat="44.47731" lon="6.54912">
        <ele>1670</ele>
        <time>2021-04-08T11:45:48Z</time>
      </trkpt>
      <trkpt lat="44.47731" lon="6.54912">
        <ele>1670</ele>
        <time>2021-04-08T11:45:49Z</time>
      </trkpt>
      <trkpt lat="44.47731" lon="6.54912">
        <ele>1670</ele>
        <time>2021-04-08T11:45:50Z</time>
      </trkpt>
      <trkpt lat="44.47731" lon="6.54912">
        <ele>1670</ele>
        <time>2021-04-08T11:45:51Z</time>
      </trkpt>
      <trkpt lat="44.47731" lon="6.54912">
        <ele>1670</ele>
        <time>2021-04-08T11:45:52Z</time>
      </trkpt>
      <trkpt lat="44.47731" lon="6.54912">
        <ele>1670</ele>
        <time>2021-04-08T11:45:53Z</time>
      </trkpt>
      <trkpt lat="44.47731" lon="6.54912">
        <ele>1670</ele>
        <time>2021-04-08T11:45:54Z</time>
      </trkpt>
      <trkpt lat="44.47731" lon="6.54912">
        <ele>1670</ele>
        <time>2021-04-08T11:45:55Z</time>
      </trkpt>
      <trkpt lat="44.47731" lon="6.54912">
        <ele>1670</ele>
        <time>2021-04-08T11:45:56Z</time>
      </trkpt>
      <trkpt lat="44.47731" lon="6.54912">
        <ele>1670</ele>
        <time>2021-04-08T11:45:57Z</time>
      </trkpt>
      <trkpt lat="44.47731" lon="6.54912">
        <ele>1670</ele>
        <time>2021-04-08T11:45:58Z</time>
      </trkpt>
      <trkpt lat="44.47731" lon="6.54912">
        <ele>1670</ele>
        <time>2021-04-08T11:45:59Z</time>
      </trkpt>
      <trkpt lat="44.47731" lon="6.54912">
        <ele>1670</ele>
        <time>2021-04-08T11:46:00Z</time>
      </trkpt>
      <trkpt lat="44.47731" lon="6.54912">
        <ele>1670</ele>
        <time>2021-04-08T11:46:01Z</time>
      </trkpt>
      <trkpt lat="44.47731" lon="6.54912">
        <ele>1670</ele>
        <time>2021-04-08T11:46:02Z</time>
      </trkpt>
      <trkpt lat="44.47731" lon="6.54912">
        <ele>1670</ele>
        <time>2021-04-08T11:46:03Z</time>
      </trkpt>
      <trkpt lat="44.47731" lon="6.54912">
        <ele>1670</ele>
        <time>2021-04-08T11:46:04Z</time>
      </trkpt>
      <trkpt lat="44.47731" lon="6.54912">
        <ele>1670</ele>
        <time>2021-04-08T11:46:05Z</time>
      </trkpt>
      <trkpt lat="44.47731" lon="6.54912">
        <ele>1670</ele>
        <time>2021-04-08T11:46:06Z</time>
      </trkpt>
      <trkpt lat="44.47731" lon="6.54912">
        <ele>1670</ele>
        <time>2021-04-08T11:46:07Z</time>
      </trkpt>
      <trkpt lat="44.47731" lon="6.54912">
        <ele>1670</ele>
        <time>2021-04-08T11:46:08Z</time>
      </trkpt>
      <trkpt lat="44.47731" lon="6.54912">
        <ele>1670</ele>
        <time>2021-04-08T11:46:09Z</time>
      </trkpt>
      <trkpt lat="44.47731" lon="6.54912">
        <ele>1670</ele>
        <time>2021-04-08T11:46:10Z</time>
      </trkpt>
      <trkpt lat="44.47731" lon="6.54912">
        <ele>1670</ele>
        <time>2021-04-08T11:46:11Z</time>
      </trkpt>
      <trkpt lat="44.47731" lon="6.54912">
        <ele>1670</ele>
        <time>2021-04-08T11:46:12Z</time>
      </trkpt>
      <trkpt lat="44.47731" lon="6.54912">
        <ele>1670</ele>
        <time>2021-04-08T11:46:13Z</time>
      </trkpt>
      <trkpt lat="44.47731" lon="6.54912">
        <ele>1670</ele>
        <time>2021-04-08T11:46:14Z</time>
      </trkpt>
      <trkpt lat="44.47731" lon="6.54912">
        <ele>1670</ele>
        <time>2021-04-08T11:46:15Z</time>
      </trkpt>
      <trkpt lat="44.47731" lon="6.54912">
        <ele>1670</ele>
        <time>2021-04-08T11:46:16Z</time>
      </trkpt>
      <trkpt lat="44.47718" lon="6.54927">
        <ele>1667</ele>
        <time>2021-04-08T11:46:17Z</time>
      </trkpt>
      <trkpt lat="44.47713" lon="6.54934">
        <ele>1667</ele>
        <time>2021-04-08T11:46:18Z</time>
      </trkpt>
      <trkpt lat="44.47714" lon="6.54933">
        <ele>1667</ele>
        <time>2021-04-08T11:46:19Z</time>
      </trkpt>
      <trkpt lat="44.47715" lon="6.54926">
        <ele>1667</ele>
        <time>2021-04-08T11:46:20Z</time>
      </trkpt>
    </trkseg>
  </trk>
</gpx>